<?xml version="1.0" encoding="UTF-8"?>
<gpx version="1.1" creator="https://www.youtrack.es" xsi:schemaLocation="http://www.topografix.com/GPX/1/1 http://www.topografix.com/GPX/1/1/gpx.xsd http://www.garmin.com/xmlschemas/GpxExtensions/v3 http://www.garmin.com/xmlschemas/GpxExtensionsv3.xsd http://www.garmin.com/xmlschemas/TrackPointExtension/v1 http://www.garmin.com/xmlschemas/TrackPointExtensionv1.xsd" xmlns:gpxtpx="http://www.garmin.com/xmlschemas/TrackPointExtension/v1" xmlns:gpxx="http://www.garmin.com/xmlschemas/GpxExtensions/v3" xmlns:xsi="http://www.w3.org/2001/XMLSchema-instance">
  <metadata>
    <author>
      <name>Andres Garcia</name>
      <email id="vegnagum88" domain="gmail.com"/>
    </author>
    <link href="https://www.youtrack.es">
      <text>YouTrack.es</text>
    </link>
    <time>2026-05-08T23:20:19Z</time>
  </metadata>
  <trk>
    <src>https://www.youtrack.es</src>
    <link href="https://www.youtrack.es/ruta/30247-fricktaler-hohenweg">
      <text>YouTrack.es</text>
    </link>
    <trkseg>
      <trkpt lat="47.551158" lon="7.792561">
        <ele>335.393580</ele>
        <time>2022-02-13T11:24:57.812Z</time>
      </trkpt>
      <trkpt lat="47.551032" lon="7.792550">
        <ele>335.393580</ele>
        <time>2022-02-13T11:25:00.309Z</time>
      </trkpt>
      <trkpt lat="47.550978" lon="7.792705">
        <ele>335.393580</ele>
        <time>2022-02-13T11:25:05.303Z</time>
      </trkpt>
      <trkpt lat="47.550860" lon="7.792799">
        <ele>335.393580</ele>
        <time>2022-02-13T11:25:06.303Z</time>
      </trkpt>
      <trkpt lat="47.550998" lon="7.792682">
        <ele>335.393580</ele>
        <time>2022-02-13T11:25:07.306Z</time>
      </trkpt>
      <trkpt lat="47.550908" lon="7.792696">
        <ele>335.393580</ele>
        <time>2022-02-13T11:25:32.857Z</time>
      </trkpt>
      <trkpt lat="47.550810" lon="7.792711">
        <ele>335.393580</ele>
        <time>2022-02-13T11:25:46.850Z</time>
      </trkpt>
      <trkpt lat="47.550715" lon="7.792726">
        <ele>335.393580</ele>
        <time>2022-02-13T11:25:59.849Z</time>
      </trkpt>
      <trkpt lat="47.550617" lon="7.792735">
        <ele>335.489328</ele>
        <time>2022-02-13T11:26:09.853Z</time>
      </trkpt>
      <trkpt lat="47.550544" lon="7.792825">
        <ele>335.936391</ele>
        <time>2022-02-13T11:26:17.857Z</time>
      </trkpt>
      <trkpt lat="47.550451" lon="7.792842">
        <ele>336.377509</ele>
        <time>2022-02-13T11:26:25.859Z</time>
      </trkpt>
      <trkpt lat="47.550349" lon="7.792866">
        <ele>336.863693</ele>
        <time>2022-02-13T11:26:33.860Z</time>
      </trkpt>
      <trkpt lat="47.550253" lon="7.792914">
        <ele>337.340655</ele>
        <time>2022-02-13T11:26:39.861Z</time>
      </trkpt>
      <trkpt lat="47.550160" lon="7.792960">
        <ele>337.802206</ele>
        <time>2022-02-13T11:26:47.862Z</time>
      </trkpt>
      <trkpt lat="47.550074" lon="7.793023">
        <ele>338.253836</ele>
        <time>2022-02-13T11:26:56.847Z</time>
      </trkpt>
      <trkpt lat="47.550007" lon="7.793117">
        <ele>338.688211</ele>
        <time>2022-02-13T11:27:04.860Z</time>
      </trkpt>
      <trkpt lat="47.549922" lon="7.793190">
        <ele>339.150715</ele>
        <time>2022-02-13T11:27:12.848Z</time>
      </trkpt>
      <trkpt lat="47.549829" lon="7.793233">
        <ele>339.609337</ele>
        <time>2022-02-13T11:27:18.865Z</time>
      </trkpt>
      <trkpt lat="47.549744" lon="7.793289">
        <ele>340.047253</ele>
        <time>2022-02-13T11:27:25.859Z</time>
      </trkpt>
      <trkpt lat="47.549660" lon="7.793369">
        <ele>340.517335</ele>
        <time>2022-02-13T11:27:37.884Z</time>
      </trkpt>
      <trkpt lat="47.549590" lon="7.793455">
        <ele>340.945417</ele>
        <time>2022-02-13T11:27:45.849Z</time>
      </trkpt>
      <trkpt lat="47.549501" lon="7.793505">
        <ele>341.393495</ele>
        <time>2022-02-13T11:27:51.857Z</time>
      </trkpt>
      <trkpt lat="47.549408" lon="7.793534">
        <ele>341.840886</ele>
        <time>2022-02-13T11:27:57.864Z</time>
      </trkpt>
      <trkpt lat="47.549327" lon="7.793599">
        <ele>342.274534</ele>
        <time>2022-02-13T11:28:04.893Z</time>
      </trkpt>
      <trkpt lat="47.549241" lon="7.793674">
        <ele>342.744309</ele>
        <time>2022-02-13T11:28:11.886Z</time>
      </trkpt>
      <trkpt lat="47.549139" lon="7.793714">
        <ele>343.241011</ele>
        <time>2022-02-13T11:28:18.867Z</time>
      </trkpt>
      <trkpt lat="47.549044" lon="7.793724">
        <ele>343.689352</ele>
        <time>2022-02-13T11:28:25.859Z</time>
      </trkpt>
      <trkpt lat="47.548945" lon="7.793761">
        <ele>344.080569</ele>
        <time>2022-02-13T11:28:32.895Z</time>
      </trkpt>
      <trkpt lat="47.548866" lon="7.793839">
        <ele>344.398252</ele>
        <time>2022-02-13T11:28:38.876Z</time>
      </trkpt>
      <trkpt lat="47.548777" lon="7.793902">
        <ele>344.728322</ele>
        <time>2022-02-13T11:28:46.849Z</time>
      </trkpt>
      <trkpt lat="47.548690" lon="7.793947">
        <ele>345.036684</ele>
        <time>2022-02-13T11:28:55.859Z</time>
      </trkpt>
      <trkpt lat="47.548598" lon="7.793990">
        <ele>345.359502</ele>
        <time>2022-02-13T11:29:02.863Z</time>
      </trkpt>
      <trkpt lat="47.548498" lon="7.793987">
        <ele>345.694202</ele>
        <time>2022-02-13T11:29:07.870Z</time>
      </trkpt>
      <trkpt lat="47.548408" lon="7.794014">
        <ele>346.001483</ele>
        <time>2022-02-13T11:29:14.860Z</time>
      </trkpt>
      <trkpt lat="47.548312" lon="7.794016">
        <ele>346.322762</ele>
        <time>2022-02-13T11:29:22.846Z</time>
      </trkpt>
      <trkpt lat="47.548218" lon="7.793980">
        <ele>346.647656</ele>
        <time>2022-02-13T11:29:30.859Z</time>
      </trkpt>
      <trkpt lat="47.548121" lon="7.793943">
        <ele>346.982834</ele>
        <time>2022-02-13T11:29:38.857Z</time>
      </trkpt>
      <trkpt lat="47.548020" lon="7.793928">
        <ele>347.322507</ele>
        <time>2022-02-13T11:29:46.887Z</time>
      </trkpt>
      <trkpt lat="47.547931" lon="7.793907">
        <ele>347.624083</ele>
        <time>2022-02-13T11:29:53.863Z</time>
      </trkpt>
      <trkpt lat="47.547838" lon="7.793885">
        <ele>347.939233</ele>
        <time>2022-02-13T11:30:01.862Z</time>
      </trkpt>
      <trkpt lat="47.547746" lon="7.793857">
        <ele>348.253523</ele>
        <time>2022-02-13T11:30:08.855Z</time>
      </trkpt>
      <trkpt lat="47.547659" lon="7.793812">
        <ele>348.561886</ele>
        <time>2022-02-13T11:30:14.852Z</time>
      </trkpt>
      <trkpt lat="47.547568" lon="7.793788">
        <ele>348.871188</ele>
        <time>2022-02-13T11:30:22.607Z</time>
      </trkpt>
      <trkpt lat="47.547471" lon="7.793761">
        <ele>349.201460</ele>
        <time>2022-02-13T11:30:30.583Z</time>
      </trkpt>
      <trkpt lat="47.547370" lon="7.793736">
        <ele>349.544123</ele>
        <time>2022-02-13T11:30:37.581Z</time>
      </trkpt>
      <trkpt lat="47.547276" lon="7.793689">
        <ele>349.876108</ele>
        <time>2022-02-13T11:30:45.578Z</time>
      </trkpt>
      <trkpt lat="47.547186" lon="7.793647">
        <ele>350.063321</ele>
        <time>2022-02-13T11:30:52.593Z</time>
      </trkpt>
      <trkpt lat="47.547099" lon="7.793607">
        <ele>350.242682</ele>
        <time>2022-02-13T11:30:59.576Z</time>
      </trkpt>
      <trkpt lat="47.546997" lon="7.793570">
        <ele>350.449452</ele>
        <time>2022-02-13T11:31:06.577Z</time>
      </trkpt>
      <trkpt lat="47.546907" lon="7.793535">
        <ele>350.632664</ele>
        <time>2022-02-13T11:31:12.577Z</time>
      </trkpt>
      <trkpt lat="47.546814" lon="7.793546">
        <ele>350.816362</ele>
        <time>2022-02-13T11:31:20.578Z</time>
      </trkpt>
      <trkpt lat="47.546722" lon="7.793496">
        <ele>351.009313</ele>
        <time>2022-02-13T11:31:27.580Z</time>
      </trkpt>
      <trkpt lat="47.546621" lon="7.793461">
        <ele>351.213548</ele>
        <time>2022-02-13T11:31:35.582Z</time>
      </trkpt>
      <trkpt lat="47.546528" lon="7.793406">
        <ele>351.410715</ele>
        <time>2022-02-13T11:31:43.569Z</time>
      </trkpt>
      <trkpt lat="47.546439" lon="7.793360">
        <ele>351.596313</ele>
        <time>2022-02-13T11:31:50.575Z</time>
      </trkpt>
      <trkpt lat="47.546343" lon="7.793340">
        <ele>351.787195</ele>
        <time>2022-02-13T11:31:58.582Z</time>
      </trkpt>
      <trkpt lat="47.546252" lon="7.793302">
        <ele>351.973355</ele>
        <time>2022-02-13T11:32:04.580Z</time>
      </trkpt>
      <trkpt lat="47.546160" lon="7.793267">
        <ele>352.160379</ele>
        <time>2022-02-13T11:32:12.618Z</time>
      </trkpt>
      <trkpt lat="47.546097" lon="7.793366">
        <ele>352.341210</ele>
        <time>2022-02-13T11:32:28.580Z</time>
      </trkpt>
      <trkpt lat="47.546063" lon="7.793507">
        <ele>352.540206</ele>
        <time>2022-02-13T11:32:36.578Z</time>
      </trkpt>
      <trkpt lat="47.546040" lon="7.793655">
        <ele>352.742053</ele>
        <time>2022-02-13T11:32:43.573Z</time>
      </trkpt>
      <trkpt lat="47.546018" lon="7.793806">
        <ele>352.947363</ele>
        <time>2022-02-13T11:32:54.575Z</time>
      </trkpt>
      <trkpt lat="47.546001" lon="7.793957">
        <ele>353.150823</ele>
        <time>2022-02-13T11:33:00.582Z</time>
      </trkpt>
      <trkpt lat="47.545992" lon="7.794092">
        <ele>353.331120</ele>
        <time>2022-02-13T11:33:07.598Z</time>
      </trkpt>
      <trkpt lat="47.545978" lon="7.794236">
        <ele>353.182573</ele>
        <time>2022-02-13T11:33:14.579Z</time>
      </trkpt>
      <trkpt lat="47.545977" lon="7.794382">
        <ele>352.735063</ele>
        <time>2022-02-13T11:33:22.579Z</time>
      </trkpt>
      <trkpt lat="47.546003" lon="7.794522">
        <ele>352.290020</ele>
        <time>2022-02-13T11:33:30.579Z</time>
      </trkpt>
      <trkpt lat="47.546028" lon="7.794658">
        <ele>351.858002</ele>
        <time>2022-02-13T11:33:36.581Z</time>
      </trkpt>
      <trkpt lat="47.546032" lon="7.794798">
        <ele>351.428521</ele>
        <time>2022-02-13T11:33:42.576Z</time>
      </trkpt>
      <trkpt lat="47.546071" lon="7.794923">
        <ele>351.006451</ele>
        <time>2022-02-13T11:33:49.604Z</time>
      </trkpt>
      <trkpt lat="47.546111" lon="7.795046">
        <ele>350.587987</ele>
        <time>2022-02-13T11:33:55.585Z</time>
      </trkpt>
      <trkpt lat="47.546170" lon="7.795162">
        <ele>350.142815</ele>
        <time>2022-02-13T11:34:03.588Z</time>
      </trkpt>
      <trkpt lat="47.546207" lon="7.795298">
        <ele>349.693395</ele>
        <time>2022-02-13T11:34:10.580Z</time>
      </trkpt>
      <trkpt lat="47.546229" lon="7.795428">
        <ele>349.282617</ele>
        <time>2022-02-13T11:34:17.591Z</time>
      </trkpt>
      <trkpt lat="47.546256" lon="7.795568">
        <ele>348.836351</ele>
        <time>2022-02-13T11:34:25.591Z</time>
      </trkpt>
      <trkpt lat="47.546267" lon="7.795729">
        <ele>348.340370</ele>
        <time>2022-02-13T11:34:34.587Z</time>
      </trkpt>
      <trkpt lat="47.546238" lon="7.795865">
        <ele>347.903230</ele>
        <time>2022-02-13T11:34:40.674Z</time>
      </trkpt>
      <trkpt lat="47.546176" lon="7.795979">
        <ele>347.454519</ele>
        <time>2022-02-13T11:34:48.607Z</time>
      </trkpt>
      <trkpt lat="47.546120" lon="7.796089">
        <ele>347.032232</ele>
        <time>2022-02-13T11:34:57.628Z</time>
      </trkpt>
      <trkpt lat="47.546066" lon="7.796208">
        <ele>346.592741</ele>
        <time>2022-02-13T11:35:03.577Z</time>
      </trkpt>
      <trkpt lat="47.546017" lon="7.796342">
        <ele>346.125639</ele>
        <time>2022-02-13T11:35:11.576Z</time>
      </trkpt>
      <trkpt lat="47.545967" lon="7.796468">
        <ele>345.677659</ele>
        <time>2022-02-13T11:35:19.578Z</time>
      </trkpt>
      <trkpt lat="47.545921" lon="7.796600">
        <ele>345.280966</ele>
        <time>2022-02-13T11:35:26.574Z</time>
      </trkpt>
      <trkpt lat="47.545869" lon="7.796710">
        <ele>345.633558</ele>
        <time>2022-02-13T11:35:36.605Z</time>
      </trkpt>
      <trkpt lat="47.545828" lon="7.796850">
        <ele>346.034238</ele>
        <time>2022-02-13T11:35:43.571Z</time>
      </trkpt>
      <trkpt lat="47.545794" lon="7.796976">
        <ele>346.390510</ele>
        <time>2022-02-13T11:35:50.588Z</time>
      </trkpt>
      <trkpt lat="47.545769" lon="7.797111">
        <ele>346.758055</ele>
        <time>2022-02-13T11:35:56.569Z</time>
      </trkpt>
      <trkpt lat="47.545743" lon="7.797240">
        <ele>347.111526</ele>
        <time>2022-02-13T11:36:02.584Z</time>
      </trkpt>
      <trkpt lat="47.545713" lon="7.797367">
        <ele>347.464798</ele>
        <time>2022-02-13T11:36:08.578Z</time>
      </trkpt>
      <trkpt lat="47.545695" lon="7.797506">
        <ele>347.836404</ele>
        <time>2022-02-13T11:36:16.591Z</time>
      </trkpt>
      <trkpt lat="47.545691" lon="7.797656">
        <ele>348.230542</ele>
        <time>2022-02-13T11:36:25.568Z</time>
      </trkpt>
      <trkpt lat="47.545681" lon="7.797802">
        <ele>348.615840</ele>
        <time>2022-02-13T11:36:32.576Z</time>
      </trkpt>
      <trkpt lat="47.545656" lon="7.797943">
        <ele>348.998600</ele>
        <time>2022-02-13T11:36:38.566Z</time>
      </trkpt>
      <trkpt lat="47.545649" lon="7.798078">
        <ele>349.354093</ele>
        <time>2022-02-13T11:36:45.614Z</time>
      </trkpt>
      <trkpt lat="47.545626" lon="7.798212">
        <ele>349.717112</ele>
        <time>2022-02-13T11:36:52.571Z</time>
      </trkpt>
      <trkpt lat="47.545624" lon="7.798347">
        <ele>350.071646</ele>
        <time>2022-02-13T11:36:59.577Z</time>
      </trkpt>
      <trkpt lat="47.545608" lon="7.798483">
        <ele>350.434103</ele>
        <time>2022-02-13T11:37:07.569Z</time>
      </trkpt>
      <trkpt lat="47.545640" lon="7.798621">
        <ele>350.817212</ele>
        <time>2022-02-13T11:37:15.582Z</time>
      </trkpt>
      <trkpt lat="47.545642" lon="7.798758">
        <ele>351.176996</ele>
        <time>2022-02-13T11:37:23.632Z</time>
      </trkpt>
      <trkpt lat="47.545543" lon="7.798761">
        <ele>351.562155</ele>
        <time>2022-02-13T11:37:30.595Z</time>
      </trkpt>
      <trkpt lat="47.545458" lon="7.798842">
        <ele>351.955270</ele>
        <time>2022-02-13T11:37:37.571Z</time>
      </trkpt>
      <trkpt lat="47.545427" lon="7.798988">
        <ele>352.335796</ele>
        <time>2022-02-13T11:37:45.575Z</time>
      </trkpt>
      <trkpt lat="47.545356" lon="7.799096">
        <ele>352.652776</ele>
        <time>2022-02-13T11:37:53.580Z</time>
      </trkpt>
      <trkpt lat="47.545285" lon="7.799185">
        <ele>352.942481</ele>
        <time>2022-02-13T11:38:00.581Z</time>
      </trkpt>
      <trkpt lat="47.545189" lon="7.799241">
        <ele>353.263859</ele>
        <time>2022-02-13T11:38:08.576Z</time>
      </trkpt>
      <trkpt lat="47.545101" lon="7.799307">
        <ele>353.571097</ele>
        <time>2022-02-13T11:38:18.587Z</time>
      </trkpt>
      <trkpt lat="47.545008" lon="7.799339">
        <ele>353.868495</ele>
        <time>2022-02-13T11:38:25.581Z</time>
      </trkpt>
      <trkpt lat="47.544915" lon="7.799343">
        <ele>354.158305</ele>
        <time>2022-02-13T11:38:30.580Z</time>
      </trkpt>
      <trkpt lat="47.544811" lon="7.799361">
        <ele>354.484459</ele>
        <time>2022-02-13T11:38:37.581Z</time>
      </trkpt>
      <trkpt lat="47.544711" lon="7.799389">
        <ele>354.801466</ele>
        <time>2022-02-13T11:38:44.581Z</time>
      </trkpt>
      <trkpt lat="47.544617" lon="7.799355">
        <ele>355.102869</ele>
        <time>2022-02-13T11:38:52.611Z</time>
      </trkpt>
      <trkpt lat="47.544523" lon="7.799404">
        <ele>355.413268</ele>
        <time>2022-02-13T11:38:59.584Z</time>
      </trkpt>
      <trkpt lat="47.544454" lon="7.799515">
        <ele>355.730547</ele>
        <time>2022-02-13T11:39:07.591Z</time>
      </trkpt>
      <trkpt lat="47.544413" lon="7.799634">
        <ele>356.011468</ele>
        <time>2022-02-13T11:39:14.581Z</time>
      </trkpt>
      <trkpt lat="47.544422" lon="7.799775">
        <ele>356.309261</ele>
        <time>2022-02-13T11:39:23.576Z</time>
      </trkpt>
      <trkpt lat="47.544326" lon="7.799819">
        <ele>356.622277</ele>
        <time>2022-02-13T11:39:30.577Z</time>
      </trkpt>
      <trkpt lat="47.544277" lon="7.799943">
        <ele>356.924394</ele>
        <time>2022-02-13T11:39:38.574Z</time>
      </trkpt>
      <trkpt lat="47.544317" lon="7.800075">
        <ele>357.228625</ele>
        <time>2022-02-13T11:39:46.580Z</time>
      </trkpt>
      <trkpt lat="47.544354" lon="7.800204">
        <ele>357.523335</ele>
        <time>2022-02-13T11:39:56.593Z</time>
      </trkpt>
      <trkpt lat="47.544400" lon="7.800335">
        <ele>357.833819</ele>
        <time>2022-02-13T11:40:06.587Z</time>
      </trkpt>
      <trkpt lat="47.544460" lon="7.800438">
        <ele>358.526368</ele>
        <time>2022-02-13T11:40:21.581Z</time>
      </trkpt>
      <trkpt lat="47.544511" lon="7.800565">
        <ele>359.309777</ele>
        <time>2022-02-13T11:40:28.595Z</time>
      </trkpt>
      <trkpt lat="47.544506" lon="7.800704">
        <ele>360.047713</ele>
        <time>2022-02-13T11:40:35.608Z</time>
      </trkpt>
      <trkpt lat="47.544544" lon="7.800844">
        <ele>360.847660</ele>
        <time>2022-02-13T11:40:42.614Z</time>
      </trkpt>
      <trkpt lat="47.544529" lon="7.800988">
        <ele>361.620094</ele>
        <time>2022-02-13T11:40:50.577Z</time>
      </trkpt>
      <trkpt lat="47.544512" lon="7.801133">
        <ele>362.400301</ele>
        <time>2022-02-13T11:40:57.597Z</time>
      </trkpt>
      <trkpt lat="47.544495" lon="7.801276">
        <ele>363.170064</ele>
        <time>2022-02-13T11:41:08.581Z</time>
      </trkpt>
      <trkpt lat="47.544507" lon="7.801413">
        <ele>363.902442</ele>
        <time>2022-02-13T11:41:16.580Z</time>
      </trkpt>
      <trkpt lat="47.544491" lon="7.801558">
        <ele>364.681344</ele>
        <time>2022-02-13T11:41:22.583Z</time>
      </trkpt>
      <trkpt lat="47.544490" lon="7.801692">
        <ele>365.391771</ele>
        <time>2022-02-13T11:41:28.583Z</time>
      </trkpt>
      <trkpt lat="47.544508" lon="7.801837">
        <ele>366.173361</ele>
        <time>2022-02-13T11:41:33.585Z</time>
      </trkpt>
      <trkpt lat="47.544524" lon="7.801987">
        <ele>366.978434</ele>
        <time>2022-02-13T11:41:41.582Z</time>
      </trkpt>
      <trkpt lat="47.544522" lon="7.802132">
        <ele>367.747293</ele>
        <time>2022-02-13T11:41:46.610Z</time>
      </trkpt>
      <trkpt lat="47.544517" lon="7.802275">
        <ele>368.506406</ele>
        <time>2022-02-13T11:41:53.579Z</time>
      </trkpt>
      <trkpt lat="47.544523" lon="7.802419">
        <ele>369.271256</ele>
        <time>2022-02-13T11:42:02.587Z</time>
      </trkpt>
      <trkpt lat="47.544507" lon="7.802565">
        <ele>370.055391</ele>
        <time>2022-02-13T11:42:11.569Z</time>
      </trkpt>
      <trkpt lat="47.544492" lon="7.802709">
        <ele>370.827825</ele>
        <time>2022-02-13T11:42:19.574Z</time>
      </trkpt>
      <trkpt lat="47.544468" lon="7.802853">
        <ele>371.614148</ele>
        <time>2022-02-13T11:42:27.574Z</time>
      </trkpt>
      <trkpt lat="47.544454" lon="7.802987">
        <ele>372.258312</ele>
        <time>2022-02-13T11:42:35.606Z</time>
      </trkpt>
      <trkpt lat="47.544478" lon="7.803116">
        <ele>372.818179</ele>
        <time>2022-02-13T11:42:42.580Z</time>
      </trkpt>
      <trkpt lat="47.544507" lon="7.803254">
        <ele>373.422910</ele>
        <time>2022-02-13T11:42:50.590Z</time>
      </trkpt>
      <trkpt lat="47.544537" lon="7.803386">
        <ele>374.005667</ele>
        <time>2022-02-13T11:43:00.576Z</time>
      </trkpt>
      <trkpt lat="47.544566" lon="7.803522">
        <ele>374.602412</ele>
        <time>2022-02-13T11:43:08.577Z</time>
      </trkpt>
      <trkpt lat="47.544555" lon="7.803655">
        <ele>375.163050</ele>
        <time>2022-02-13T11:43:15.580Z</time>
      </trkpt>
      <trkpt lat="47.544542" lon="7.803789">
        <ele>375.729472</ele>
        <time>2022-02-13T11:43:21.582Z</time>
      </trkpt>
      <trkpt lat="47.544556" lon="7.803933">
        <ele>376.338190</ele>
        <time>2022-02-13T11:43:30.582Z</time>
      </trkpt>
      <trkpt lat="47.544565" lon="7.804077">
        <ele>376.943268</ele>
        <time>2022-02-13T11:43:38.576Z</time>
      </trkpt>
      <trkpt lat="47.544580" lon="7.804227">
        <ele>377.577723</ele>
        <time>2022-02-13T11:43:45.582Z</time>
      </trkpt>
      <trkpt lat="47.544606" lon="7.804356">
        <ele>378.141009</ele>
        <time>2022-02-13T11:43:52.579Z</time>
      </trkpt>
      <trkpt lat="47.544608" lon="7.804498">
        <ele>378.735271</ele>
        <time>2022-02-13T11:44:01.584Z</time>
      </trkpt>
      <trkpt lat="47.544583" lon="7.804632">
        <ele>379.316951</ele>
        <time>2022-02-13T11:44:11.567Z</time>
      </trkpt>
      <trkpt lat="47.544593" lon="7.804770">
        <ele>379.897665</ele>
        <time>2022-02-13T11:44:19.582Z</time>
      </trkpt>
      <trkpt lat="47.544612" lon="7.804926">
        <ele>380.560914</ele>
        <time>2022-02-13T11:44:26.592Z</time>
      </trkpt>
      <trkpt lat="47.544600" lon="7.805071">
        <ele>381.172141</ele>
        <time>2022-02-13T11:44:32.580Z</time>
      </trkpt>
      <trkpt lat="47.544646" lon="7.805187">
        <ele>381.735043</ele>
        <time>2022-02-13T11:44:38.578Z</time>
      </trkpt>
      <trkpt lat="47.544604" lon="7.805305">
        <ele>382.293191</ele>
        <time>2022-02-13T11:44:43.581Z</time>
      </trkpt>
      <trkpt lat="47.544585" lon="7.805458">
        <ele>382.944090</ele>
        <time>2022-02-13T11:44:49.585Z</time>
      </trkpt>
      <trkpt lat="47.544610" lon="7.805600">
        <ele>383.748857</ele>
        <time>2022-02-13T11:44:57.586Z</time>
      </trkpt>
      <trkpt lat="47.544613" lon="7.805736">
        <ele>384.570351</ele>
        <time>2022-02-13T11:45:04.586Z</time>
      </trkpt>
      <trkpt lat="47.544602" lon="7.805873">
        <ele>385.403275</ele>
        <time>2022-02-13T11:45:12.590Z</time>
      </trkpt>
      <trkpt lat="47.544603" lon="7.806010">
        <ele>386.230416</ele>
        <time>2022-02-13T11:45:26.572Z</time>
      </trkpt>
      <trkpt lat="47.544555" lon="7.806123">
        <ele>387.036454</ele>
        <time>2022-02-13T11:45:32.580Z</time>
      </trkpt>
      <trkpt lat="47.544499" lon="7.806237">
        <ele>387.887644</ele>
        <time>2022-02-13T11:45:40.593Z</time>
      </trkpt>
      <trkpt lat="47.544452" lon="7.806354">
        <ele>388.709612</ele>
        <time>2022-02-13T11:45:50.578Z</time>
      </trkpt>
      <trkpt lat="47.544401" lon="7.806470">
        <ele>389.545373</ele>
        <time>2022-02-13T11:46:02.584Z</time>
      </trkpt>
      <trkpt lat="47.544329" lon="7.806559">
        <ele>390.384047</ele>
        <time>2022-02-13T11:46:11.582Z</time>
      </trkpt>
      <trkpt lat="47.544245" lon="7.806648">
        <ele>391.307691</ele>
        <time>2022-02-13T11:46:17.576Z</time>
      </trkpt>
      <trkpt lat="47.544176" lon="7.806734">
        <ele>392.114169</ele>
        <time>2022-02-13T11:46:26.572Z</time>
      </trkpt>
      <trkpt lat="47.544105" lon="7.806829">
        <ele>392.969842</ele>
        <time>2022-02-13T11:46:31.747Z</time>
      </trkpt>
      <trkpt lat="47.544038" lon="7.806934">
        <ele>393.842150</ele>
        <time>2022-02-13T11:46:35.576Z</time>
      </trkpt>
      <trkpt lat="47.543973" lon="7.807036">
        <ele>394.689008</ele>
        <time>2022-02-13T11:46:43.577Z</time>
      </trkpt>
      <trkpt lat="47.543885" lon="7.807106">
        <ele>395.582342</ele>
        <time>2022-02-13T11:46:49.581Z</time>
      </trkpt>
      <trkpt lat="47.543814" lon="7.807204">
        <ele>396.450262</ele>
        <time>2022-02-13T11:46:54.580Z</time>
      </trkpt>
      <trkpt lat="47.543762" lon="7.807317">
        <ele>397.275917</ele>
        <time>2022-02-13T11:47:01.582Z</time>
      </trkpt>
      <trkpt lat="47.543692" lon="7.807441">
        <ele>398.251822</ele>
        <time>2022-02-13T11:47:11.581Z</time>
      </trkpt>
      <trkpt lat="47.543617" lon="7.807551">
        <ele>399.195738</ele>
        <time>2022-02-13T11:47:17.578Z</time>
      </trkpt>
      <trkpt lat="47.543542" lon="7.807656">
        <ele>399.807095</ele>
        <time>2022-02-13T11:47:22.580Z</time>
      </trkpt>
      <trkpt lat="47.543465" lon="7.807727">
        <ele>400.338891</ele>
        <time>2022-02-13T11:47:30.582Z</time>
      </trkpt>
      <trkpt lat="47.543373" lon="7.807705">
        <ele>400.885307</ele>
        <time>2022-02-13T11:47:39.590Z</time>
      </trkpt>
      <trkpt lat="47.543273" lon="7.807724">
        <ele>401.476451</ele>
        <time>2022-02-13T11:47:45.633Z</time>
      </trkpt>
      <trkpt lat="47.543170" lon="7.807743">
        <ele>402.085046</ele>
        <time>2022-02-13T11:47:50.599Z</time>
      </trkpt>
      <trkpt lat="47.543067" lon="7.807756">
        <ele>402.691164</ele>
        <time>2022-02-13T11:47:58.631Z</time>
      </trkpt>
      <trkpt lat="47.542972" lon="7.807787">
        <ele>403.261542</ele>
        <time>2022-02-13T11:48:04.581Z</time>
      </trkpt>
      <trkpt lat="47.542881" lon="7.807782">
        <ele>403.795478</ele>
        <time>2022-02-13T11:48:12.586Z</time>
      </trkpt>
      <trkpt lat="47.542780" lon="7.807810">
        <ele>404.397963</ele>
        <time>2022-02-13T11:48:20.576Z</time>
      </trkpt>
      <trkpt lat="47.542697" lon="7.807864">
        <ele>404.929492</ele>
        <time>2022-02-13T11:48:27.576Z</time>
      </trkpt>
      <trkpt lat="47.542597" lon="7.807859">
        <ele>405.516166</ele>
        <time>2022-02-13T11:48:37.579Z</time>
      </trkpt>
      <trkpt lat="47.542501" lon="7.807892">
        <ele>406.094009</ele>
        <time>2022-02-13T11:48:46.605Z</time>
      </trkpt>
      <trkpt lat="47.542417" lon="7.807948">
        <ele>406.634112</ele>
        <time>2022-02-13T11:48:51.610Z</time>
      </trkpt>
      <trkpt lat="47.542336" lon="7.808015">
        <ele>407.178070</ele>
        <time>2022-02-13T11:48:56.585Z</time>
      </trkpt>
      <trkpt lat="47.542257" lon="7.808081">
        <ele>407.709864</ele>
        <time>2022-02-13T11:49:02.583Z</time>
      </trkpt>
      <trkpt lat="47.542166" lon="7.808095">
        <ele>408.246304</ele>
        <time>2022-02-13T11:49:14.590Z</time>
      </trkpt>
      <trkpt lat="47.542077" lon="7.808070">
        <ele>408.777446</ele>
        <time>2022-02-13T11:49:20.575Z</time>
      </trkpt>
      <trkpt lat="47.541980" lon="7.808076">
        <ele>409.346692</ele>
        <time>2022-02-13T11:49:26.598Z</time>
      </trkpt>
      <trkpt lat="47.541889" lon="7.808092">
        <ele>409.915084</ele>
        <time>2022-02-13T11:49:32.611Z</time>
      </trkpt>
      <trkpt lat="47.541791" lon="7.808057">
        <ele>410.654528</ele>
        <time>2022-02-13T11:49:39.580Z</time>
      </trkpt>
      <trkpt lat="47.541678" lon="7.808045">
        <ele>411.485531</ele>
        <time>2022-02-13T11:49:49.581Z</time>
      </trkpt>
      <trkpt lat="47.541568" lon="7.808106">
        <ele>412.347084</ele>
        <time>2022-02-13T11:49:52.632Z</time>
      </trkpt>
      <trkpt lat="47.541496" lon="7.808213">
        <ele>413.095176</ele>
        <time>2022-02-13T11:49:56.573Z</time>
      </trkpt>
      <trkpt lat="47.541442" lon="7.808353">
        <ele>413.893591</ele>
        <time>2022-02-13T11:50:00.589Z</time>
      </trkpt>
      <trkpt lat="47.541445" lon="7.808490">
        <ele>414.572326</ele>
        <time>2022-02-13T11:50:05.580Z</time>
      </trkpt>
      <trkpt lat="47.541509" lon="7.808607">
        <ele>415.317997</ele>
        <time>2022-02-13T11:50:11.590Z</time>
      </trkpt>
      <trkpt lat="47.541596" lon="7.808683">
        <ele>416.058855</ele>
        <time>2022-02-13T11:50:17.572Z</time>
      </trkpt>
      <trkpt lat="47.541668" lon="7.808766">
        <ele>416.728059</ele>
        <time>2022-02-13T11:50:23.582Z</time>
      </trkpt>
      <trkpt lat="47.541755" lon="7.808855">
        <ele>417.503599</ele>
        <time>2022-02-13T11:50:30.576Z</time>
      </trkpt>
      <trkpt lat="47.541845" lon="7.808899">
        <ele>418.198788</ele>
        <time>2022-02-13T11:50:35.573Z</time>
      </trkpt>
      <trkpt lat="47.541929" lon="7.808977">
        <ele>418.925987</ele>
        <time>2022-02-13T11:50:41.579Z</time>
      </trkpt>
      <trkpt lat="47.541941" lon="7.809114">
        <ele>419.610046</ele>
        <time>2022-02-13T11:50:48.572Z</time>
      </trkpt>
      <trkpt lat="47.541930" lon="7.809258">
        <ele>420.327630</ele>
        <time>2022-02-13T11:50:57.672Z</time>
      </trkpt>
      <trkpt lat="47.541928" lon="7.809409">
        <ele>421.075468</ele>
        <time>2022-02-13T11:51:05.579Z</time>
      </trkpt>
      <trkpt lat="47.541950" lon="7.809541">
        <ele>421.748708</ele>
        <time>2022-02-13T11:51:13.587Z</time>
      </trkpt>
      <trkpt lat="47.541914" lon="7.809664">
        <ele>422.412539</ele>
        <time>2022-02-13T11:51:19.578Z</time>
      </trkpt>
      <trkpt lat="47.541921" lon="7.809800">
        <ele>422.865324</ele>
        <time>2022-02-13T11:51:25.588Z</time>
      </trkpt>
      <trkpt lat="47.541911" lon="7.809952">
        <ele>422.368542</ele>
        <time>2022-02-13T11:51:33.582Z</time>
      </trkpt>
      <trkpt lat="47.541901" lon="7.810093">
        <ele>421.907359</ele>
        <time>2022-02-13T11:51:40.580Z</time>
      </trkpt>
      <trkpt lat="47.541886" lon="7.810236">
        <ele>421.436613</ele>
        <time>2022-02-13T11:51:49.581Z</time>
      </trkpt>
      <trkpt lat="47.541830" lon="7.810351">
        <ele>420.975357</ele>
        <time>2022-02-13T11:51:57.586Z</time>
      </trkpt>
      <trkpt lat="47.541762" lon="7.810470">
        <ele>420.468195</ele>
        <time>2022-02-13T11:52:02.577Z</time>
      </trkpt>
      <trkpt lat="47.541718" lon="7.810593">
        <ele>420.015381</ele>
        <time>2022-02-13T11:52:10.578Z</time>
      </trkpt>
      <trkpt lat="47.541662" lon="7.810701">
        <ele>419.572391</ele>
        <time>2022-02-13T11:52:18.584Z</time>
      </trkpt>
      <trkpt lat="47.541612" lon="7.810829">
        <ele>419.091333</ele>
        <time>2022-02-13T11:52:26.582Z</time>
      </trkpt>
      <trkpt lat="47.541545" lon="7.810941">
        <ele>418.604538</ele>
        <time>2022-02-13T11:52:37.578Z</time>
      </trkpt>
      <trkpt lat="47.541490" lon="7.811064">
        <ele>418.124612</ele>
        <time>2022-02-13T11:52:47.583Z</time>
      </trkpt>
      <trkpt lat="47.541438" lon="7.811176">
        <ele>417.682433</ele>
        <time>2022-02-13T11:52:56.617Z</time>
      </trkpt>
      <trkpt lat="47.541385" lon="7.811287">
        <ele>417.240166</ele>
        <time>2022-02-13T11:53:03.565Z</time>
      </trkpt>
      <trkpt lat="47.541308" lon="7.811380">
        <ele>416.761425</ele>
        <time>2022-02-13T11:53:09.571Z</time>
      </trkpt>
      <trkpt lat="47.541233" lon="7.811470">
        <ele>416.296318</ele>
        <time>2022-02-13T11:53:14.611Z</time>
      </trkpt>
      <trkpt lat="47.541164" lon="7.811560">
        <ele>415.853302</ele>
        <time>2022-02-13T11:53:26.576Z</time>
      </trkpt>
      <trkpt lat="47.541080" lon="7.811624">
        <ele>415.398127</ele>
        <time>2022-02-13T11:53:32.572Z</time>
      </trkpt>
      <trkpt lat="47.540983" lon="7.811686">
        <ele>414.889054</ele>
        <time>2022-02-13T11:53:39.610Z</time>
      </trkpt>
      <trkpt lat="47.540892" lon="7.811723">
        <ele>414.434330</ele>
        <time>2022-02-13T11:53:44.579Z</time>
      </trkpt>
      <trkpt lat="47.540817" lon="7.811805">
        <ele>414.433976</ele>
        <time>2022-02-13T11:53:50.580Z</time>
      </trkpt>
      <trkpt lat="47.540728" lon="7.811865">
        <ele>414.664846</ele>
        <time>2022-02-13T11:53:56.575Z</time>
      </trkpt>
      <trkpt lat="47.540644" lon="7.811928">
        <ele>414.887145</ele>
        <time>2022-02-13T11:54:07.566Z</time>
      </trkpt>
      <trkpt lat="47.540559" lon="7.811975">
        <ele>415.101359</ele>
        <time>2022-02-13T11:54:12.570Z</time>
      </trkpt>
      <trkpt lat="47.540466" lon="7.812010">
        <ele>415.327911</ele>
        <time>2022-02-13T11:54:20.570Z</time>
      </trkpt>
      <trkpt lat="47.540376" lon="7.812037">
        <ele>415.544719</ele>
        <time>2022-02-13T11:54:26.584Z</time>
      </trkpt>
      <trkpt lat="47.540297" lon="7.812140">
        <ele>415.793198</ele>
        <time>2022-02-13T11:54:34.576Z</time>
      </trkpt>
      <trkpt lat="47.540214" lon="7.812196">
        <ele>416.008534</ele>
        <time>2022-02-13T11:54:43.573Z</time>
      </trkpt>
      <trkpt lat="47.540140" lon="7.812275">
        <ele>416.223896</ele>
        <time>2022-02-13T11:54:50.575Z</time>
      </trkpt>
      <trkpt lat="47.540059" lon="7.812371">
        <ele>416.468819</ele>
        <time>2022-02-13T11:54:56.579Z</time>
      </trkpt>
      <trkpt lat="47.539962" lon="7.812421">
        <ele>416.711310</ele>
        <time>2022-02-13T11:55:02.577Z</time>
      </trkpt>
      <trkpt lat="47.539875" lon="7.812483">
        <ele>416.939255</ele>
        <time>2022-02-13T11:55:08.572Z</time>
      </trkpt>
      <trkpt lat="47.539796" lon="7.812572">
        <ele>417.173592</ele>
        <time>2022-02-13T11:55:15.604Z</time>
      </trkpt>
      <trkpt lat="47.539706" lon="7.812620">
        <ele>417.399439</ele>
        <time>2022-02-13T11:55:21.584Z</time>
      </trkpt>
      <trkpt lat="47.539624" lon="7.812677">
        <ele>417.613301</ele>
        <time>2022-02-13T11:55:29.568Z</time>
      </trkpt>
      <trkpt lat="47.539538" lon="7.812759">
        <ele>417.854779</ele>
        <time>2022-02-13T11:55:37.568Z</time>
      </trkpt>
      <trkpt lat="47.539441" lon="7.812775">
        <ele>418.085216</ele>
        <time>2022-02-13T11:55:47.618Z</time>
      </trkpt>
      <trkpt lat="47.539361" lon="7.812696">
        <ele>418.312223</ele>
        <time>2022-02-13T11:55:56.617Z</time>
      </trkpt>
      <trkpt lat="47.539292" lon="7.812598">
        <ele>418.534785</ele>
        <time>2022-02-13T11:56:03.620Z</time>
      </trkpt>
      <trkpt lat="47.539251" lon="7.812476">
        <ele>418.612100</ele>
        <time>2022-02-13T11:56:09.607Z</time>
      </trkpt>
      <trkpt lat="47.539219" lon="7.812346">
        <ele>418.690602</ele>
        <time>2022-02-13T11:56:18.583Z</time>
      </trkpt>
      <trkpt lat="47.539217" lon="7.812483">
        <ele>418.768344</ele>
        <time>2022-02-13T11:57:09.564Z</time>
      </trkpt>
      <trkpt lat="47.539291" lon="7.812585">
        <ele>418.853290</ele>
        <time>2022-02-13T11:57:16.563Z</time>
      </trkpt>
      <trkpt lat="47.539268" lon="7.812716">
        <ele>418.930082</ele>
        <time>2022-02-13T11:57:24.573Z</time>
      </trkpt>
      <trkpt lat="47.539168" lon="7.812709">
        <ele>419.014213</ele>
        <time>2022-02-13T11:57:32.586Z</time>
      </trkpt>
      <trkpt lat="47.539072" lon="7.812706">
        <ele>419.094907</ele>
        <time>2022-02-13T11:57:39.723Z</time>
      </trkpt>
      <trkpt lat="47.538983" lon="7.812727">
        <ele>419.170643</ele>
        <time>2022-02-13T11:57:46.571Z</time>
      </trkpt>
      <trkpt lat="47.538894" lon="7.812791">
        <ele>419.253784</ele>
        <time>2022-02-13T11:57:55.616Z</time>
      </trkpt>
      <trkpt lat="47.538810" lon="7.812851">
        <ele>419.332154</ele>
        <time>2022-02-13T11:58:05.588Z</time>
      </trkpt>
      <trkpt lat="47.538721" lon="7.812927">
        <ele>419.418486</ele>
        <time>2022-02-13T11:58:10.574Z</time>
      </trkpt>
      <trkpt lat="47.538646" lon="7.813024">
        <ele>419.502157</ele>
        <time>2022-02-13T11:58:17.577Z</time>
      </trkpt>
      <trkpt lat="47.538586" lon="7.813125">
        <ele>419.578484</ele>
        <time>2022-02-13T11:58:25.573Z</time>
      </trkpt>
      <trkpt lat="47.538518" lon="7.813234">
        <ele>419.662684</ele>
        <time>2022-02-13T11:58:32.606Z</time>
      </trkpt>
      <trkpt lat="47.538459" lon="7.813337">
        <ele>419.739320</ele>
        <time>2022-02-13T11:58:39.665Z</time>
      </trkpt>
      <trkpt lat="47.538407" lon="7.813459">
        <ele>419.821175</ele>
        <time>2022-02-13T11:58:47.575Z</time>
      </trkpt>
      <trkpt lat="47.538354" lon="7.813567">
        <ele>419.896925</ele>
        <time>2022-02-13T11:58:53.607Z</time>
      </trkpt>
      <trkpt lat="47.538302" lon="7.813679">
        <ele>419.974043</ele>
        <time>2022-02-13T11:58:58.576Z</time>
      </trkpt>
      <trkpt lat="47.538232" lon="7.813784">
        <ele>420.057757</ele>
        <time>2022-02-13T11:59:07.574Z</time>
      </trkpt>
      <trkpt lat="47.538178" lon="7.813910">
        <ele>420.142385</ele>
        <time>2022-02-13T11:59:15.576Z</time>
      </trkpt>
      <trkpt lat="47.538104" lon="7.814013">
        <ele>420.227675</ele>
        <time>2022-02-13T11:59:24.583Z</time>
      </trkpt>
      <trkpt lat="47.538023" lon="7.814102">
        <ele>420.312384</ele>
        <time>2022-02-13T11:59:32.576Z</time>
      </trkpt>
      <trkpt lat="47.537940" lon="7.814187">
        <ele>420.397138</ele>
        <time>2022-02-13T11:59:38.587Z</time>
      </trkpt>
      <trkpt lat="47.537874" lon="7.814288">
        <ele>420.476844</ele>
        <time>2022-02-13T11:59:44.573Z</time>
      </trkpt>
      <trkpt lat="47.537812" lon="7.814403">
        <ele>420.560297</ele>
        <time>2022-02-13T11:59:51.578Z</time>
      </trkpt>
      <trkpt lat="47.537744" lon="7.814514">
        <ele>420.645290</ele>
        <time>2022-02-13T11:59:58.578Z</time>
      </trkpt>
      <trkpt lat="47.537676" lon="7.814630">
        <ele>420.732404</ele>
        <time>2022-02-13T12:00:05.572Z</time>
      </trkpt>
      <trkpt lat="47.537622" lon="7.814752">
        <ele>420.815126</ele>
        <time>2022-02-13T12:00:12.567Z</time>
      </trkpt>
      <trkpt lat="47.537568" lon="7.814875">
        <ele>420.898324</ele>
        <time>2022-02-13T12:00:19.577Z</time>
      </trkpt>
      <trkpt lat="47.537533" lon="7.815007">
        <ele>420.978740</ele>
        <time>2022-02-13T12:00:27.571Z</time>
      </trkpt>
      <trkpt lat="47.537515" lon="7.815144">
        <ele>421.057883</ele>
        <time>2022-02-13T12:00:36.593Z</time>
      </trkpt>
      <trkpt lat="47.537541" lon="7.815271">
        <ele>421.133136</ele>
        <time>2022-02-13T12:00:50.562Z</time>
      </trkpt>
      <trkpt lat="47.537546" lon="7.815431">
        <ele>421.223961</ele>
        <time>2022-02-13T12:00:57.573Z</time>
      </trkpt>
      <trkpt lat="47.537500" lon="7.815567">
        <ele>421.310217</ele>
        <time>2022-02-13T12:01:03.579Z</time>
      </trkpt>
      <trkpt lat="47.537446" lon="7.815682">
        <ele>421.389650</ele>
        <time>2022-02-13T12:01:08.580Z</time>
      </trkpt>
      <trkpt lat="47.537363" lon="7.815750">
        <ele>421.469318</ele>
        <time>2022-02-13T12:01:17.568Z</time>
      </trkpt>
      <trkpt lat="47.537269" lon="7.815804">
        <ele>421.554001</ele>
        <time>2022-02-13T12:01:27.582Z</time>
      </trkpt>
      <trkpt lat="47.537157" lon="7.815822">
        <ele>422.344520</ele>
        <time>2022-02-13T12:01:38.583Z</time>
      </trkpt>
      <trkpt lat="47.537052" lon="7.815845">
        <ele>423.098659</ele>
        <time>2022-02-13T12:01:42.582Z</time>
      </trkpt>
      <trkpt lat="47.536962" lon="7.815853">
        <ele>423.739259</ele>
        <time>2022-02-13T12:01:48.576Z</time>
      </trkpt>
      <trkpt lat="47.536871" lon="7.815838">
        <ele>424.389806</ele>
        <time>2022-02-13T12:01:53.590Z</time>
      </trkpt>
      <trkpt lat="47.536777" lon="7.815804">
        <ele>425.077300</ele>
        <time>2022-02-13T12:02:01.657Z</time>
      </trkpt>
      <trkpt lat="47.536685" lon="7.815770">
        <ele>425.750999</ele>
        <time>2022-02-13T12:02:08.573Z</time>
      </trkpt>
      <trkpt lat="47.536595" lon="7.815744">
        <ele>426.402498</ele>
        <time>2022-02-13T12:02:16.156Z</time>
      </trkpt>
      <trkpt lat="47.536509" lon="7.815796">
        <ele>427.062477</ele>
        <time>2022-02-13T12:02:21.596Z</time>
      </trkpt>
      <trkpt lat="47.536413" lon="7.815835">
        <ele>427.769747</ele>
        <time>2022-02-13T12:02:28.613Z</time>
      </trkpt>
      <trkpt lat="47.536320" lon="7.815847">
        <ele>428.433014</ele>
        <time>2022-02-13T12:02:34.578Z</time>
      </trkpt>
      <trkpt lat="47.536226" lon="7.815866">
        <ele>429.107075</ele>
        <time>2022-02-13T12:02:41.580Z</time>
      </trkpt>
      <trkpt lat="47.536150" lon="7.815944">
        <ele>429.764011</ele>
        <time>2022-02-13T12:02:46.576Z</time>
      </trkpt>
      <trkpt lat="47.536107" lon="7.816066">
        <ele>430.424166</ele>
        <time>2022-02-13T12:02:52.579Z</time>
      </trkpt>
      <trkpt lat="47.536057" lon="7.816177">
        <ele>431.064242</ele>
        <time>2022-02-13T12:02:57.575Z</time>
      </trkpt>
      <trkpt lat="47.536022" lon="7.816311">
        <ele>431.753437</ele>
        <time>2022-02-13T12:03:05.578Z</time>
      </trkpt>
      <trkpt lat="47.535957" lon="7.816409">
        <ele>432.412422</ele>
        <time>2022-02-13T12:03:12.588Z</time>
      </trkpt>
      <trkpt lat="47.535888" lon="7.816504">
        <ele>433.081749</ele>
        <time>2022-02-13T12:03:19.576Z</time>
      </trkpt>
      <trkpt lat="47.535806" lon="7.816564">
        <ele>433.731571</ele>
        <time>2022-02-13T12:03:27.612Z</time>
      </trkpt>
      <trkpt lat="47.535714" lon="7.816602">
        <ele>434.380793</ele>
        <time>2022-02-13T12:03:36.573Z</time>
      </trkpt>
      <trkpt lat="47.535626" lon="7.816657">
        <ele>434.795265</ele>
        <time>2022-02-13T12:03:43.612Z</time>
      </trkpt>
      <trkpt lat="47.535538" lon="7.816702">
        <ele>435.199251</ele>
        <time>2022-02-13T12:03:52.566Z</time>
      </trkpt>
      <trkpt lat="47.535462" lon="7.816806">
        <ele>435.648249</ele>
        <time>2022-02-13T12:04:04.573Z</time>
      </trkpt>
      <trkpt lat="47.535395" lon="7.816935">
        <ele>436.125073</ele>
        <time>2022-02-13T12:04:14.089Z</time>
      </trkpt>
      <trkpt lat="47.535346" lon="7.817050">
        <ele>436.523474</ele>
        <time>2022-02-13T12:04:21.561Z</time>
      </trkpt>
      <trkpt lat="47.535277" lon="7.817135">
        <ele>436.912916</ele>
        <time>2022-02-13T12:04:31.997Z</time>
      </trkpt>
      <trkpt lat="47.535204" lon="7.817223">
        <ele>437.321347</ele>
        <time>2022-02-13T12:04:40.576Z</time>
      </trkpt>
      <trkpt lat="47.535119" lon="7.817286">
        <ele>437.733800</ele>
        <time>2022-02-13T12:04:52.563Z</time>
      </trkpt>
      <trkpt lat="47.535059" lon="7.817391">
        <ele>438.136813</ele>
        <time>2022-02-13T12:05:01.577Z</time>
      </trkpt>
      <trkpt lat="47.535023" lon="7.817521">
        <ele>438.548469</ele>
        <time>2022-02-13T12:05:12.616Z</time>
      </trkpt>
      <trkpt lat="47.535003" lon="7.817666">
        <ele>438.982052</ele>
        <time>2022-02-13T12:05:29.607Z</time>
      </trkpt>
      <trkpt lat="47.535019" lon="7.817819">
        <ele>439.435643</ele>
        <time>2022-02-13T12:05:35.611Z</time>
      </trkpt>
      <trkpt lat="47.535078" lon="7.817928">
        <ele>439.844943</ele>
        <time>2022-02-13T12:05:41.574Z</time>
      </trkpt>
      <trkpt lat="47.535106" lon="7.818071">
        <ele>440.281154</ele>
        <time>2022-02-13T12:05:48.612Z</time>
      </trkpt>
      <trkpt lat="47.535111" lon="7.818230">
        <ele>440.747483</ele>
        <time>2022-02-13T12:05:56.577Z</time>
      </trkpt>
      <trkpt lat="47.535108" lon="7.818369">
        <ele>441.154920</ele>
        <time>2022-02-13T12:06:07.579Z</time>
      </trkpt>
      <trkpt lat="47.535122" lon="7.818511">
        <ele>441.575351</ele>
        <time>2022-02-13T12:06:19.617Z</time>
      </trkpt>
      <trkpt lat="47.535161" lon="7.818647">
        <ele>442.008243</ele>
        <time>2022-02-13T12:06:27.570Z</time>
      </trkpt>
      <trkpt lat="47.535195" lon="7.818773">
        <ele>442.967882</ele>
        <time>2022-02-13T12:06:33.571Z</time>
      </trkpt>
      <trkpt lat="47.535230" lon="7.818897">
        <ele>444.193651</ele>
        <time>2022-02-13T12:06:39.587Z</time>
      </trkpt>
      <trkpt lat="47.535274" lon="7.819035">
        <ele>445.585540</ele>
        <time>2022-02-13T12:06:48.619Z</time>
      </trkpt>
      <trkpt lat="47.535291" lon="7.819185">
        <ele>446.972718</ele>
        <time>2022-02-13T12:06:56.570Z</time>
      </trkpt>
      <trkpt lat="47.535289" lon="7.819327">
        <ele>448.268075</ele>
        <time>2022-02-13T12:07:03.576Z</time>
      </trkpt>
      <trkpt lat="47.535269" lon="7.819483">
        <ele>449.716259</ele>
        <time>2022-02-13T12:07:10.574Z</time>
      </trkpt>
      <trkpt lat="47.535244" lon="7.819626">
        <ele>451.063471</ele>
        <time>2022-02-13T12:07:17.608Z</time>
      </trkpt>
      <trkpt lat="47.535202" lon="7.819760">
        <ele>452.410865</ele>
        <time>2022-02-13T12:07:25.569Z</time>
      </trkpt>
      <trkpt lat="47.535224" lon="7.819892">
        <ele>453.650880</ele>
        <time>2022-02-13T12:07:35.675Z</time>
      </trkpt>
      <trkpt lat="47.535257" lon="7.820026">
        <ele>454.951760</ele>
        <time>2022-02-13T12:07:44.571Z</time>
      </trkpt>
      <trkpt lat="47.535256" lon="7.820186">
        <ele>456.411063</ele>
        <time>2022-02-13T12:07:52.619Z</time>
      </trkpt>
      <trkpt lat="47.535262" lon="7.820323">
        <ele>457.663164</ele>
        <time>2022-02-13T12:07:59.608Z</time>
      </trkpt>
      <trkpt lat="47.535268" lon="7.820474">
        <ele>459.042705</ele>
        <time>2022-02-13T12:08:09.589Z</time>
      </trkpt>
      <trkpt lat="47.535289" lon="7.820610">
        <ele>460.315086</ele>
        <time>2022-02-13T12:08:20.577Z</time>
      </trkpt>
      <trkpt lat="47.535334" lon="7.820736">
        <ele>461.615117</ele>
        <time>2022-02-13T12:08:29.585Z</time>
      </trkpt>
      <trkpt lat="47.535389" lon="7.820848">
        <ele>462.878214</ele>
        <time>2022-02-13T12:08:35.569Z</time>
      </trkpt>
      <trkpt lat="47.535390" lon="7.820983">
        <ele>464.109519</ele>
        <time>2022-02-13T12:08:43.574Z</time>
      </trkpt>
      <trkpt lat="47.535461" lon="7.821075">
        <ele>465.383857</ele>
        <time>2022-02-13T12:08:53.584Z</time>
      </trkpt>
      <trkpt lat="47.535469" lon="7.821212">
        <ele>466.638654</ele>
        <time>2022-02-13T12:09:01.577Z</time>
      </trkpt>
      <trkpt lat="47.535459" lon="7.821361">
        <ele>468.008766</ele>
        <time>2022-02-13T12:09:14.607Z</time>
      </trkpt>
      <trkpt lat="47.535416" lon="7.821483">
        <ele>469.268071</ele>
        <time>2022-02-13T12:09:30.608Z</time>
      </trkpt>
      <trkpt lat="47.535298" lon="7.821500">
        <ele>470.874906</ele>
        <time>2022-02-13T12:09:45.224Z</time>
      </trkpt>
      <trkpt lat="47.535210" lon="7.821472">
        <ele>472.094804</ele>
        <time>2022-02-13T12:09:53.583Z</time>
      </trkpt>
      <trkpt lat="47.535132" lon="7.821399">
        <ele>473.345312</ele>
        <time>2022-02-13T12:10:04.606Z</time>
      </trkpt>
      <trkpt lat="47.535074" lon="7.821290">
        <ele>474.615242</ele>
        <time>2022-02-13T12:10:13.573Z</time>
      </trkpt>
      <trkpt lat="47.535040" lon="7.821157">
        <ele>475.916560</ele>
        <time>2022-02-13T12:10:24.605Z</time>
      </trkpt>
      <trkpt lat="47.534967" lon="7.821067">
        <ele>477.203844</ele>
        <time>2022-02-13T12:10:33.576Z</time>
      </trkpt>
      <trkpt lat="47.534897" lon="7.820980">
        <ele>478.442325</ele>
        <time>2022-02-13T12:10:41.585Z</time>
      </trkpt>
      <trkpt lat="47.534812" lon="7.820930">
        <ele>479.681880</ele>
        <time>2022-02-13T12:10:47.578Z</time>
      </trkpt>
      <trkpt lat="47.534736" lon="7.820858">
        <ele>480.904606</ele>
        <time>2022-02-13T12:10:53.577Z</time>
      </trkpt>
      <trkpt lat="47.534669" lon="7.820767">
        <ele>482.136662</ele>
        <time>2022-02-13T12:10:59.564Z</time>
      </trkpt>
      <trkpt lat="47.534600" lon="7.820673">
        <ele>483.407251</ele>
        <time>2022-02-13T12:11:07.566Z</time>
      </trkpt>
      <trkpt lat="47.534522" lon="7.820600">
        <ele>484.657763</ele>
        <time>2022-02-13T12:11:15.585Z</time>
      </trkpt>
      <trkpt lat="47.534445" lon="7.820501">
        <ele>486.039701</ele>
        <time>2022-02-13T12:11:25.578Z</time>
      </trkpt>
      <trkpt lat="47.534375" lon="7.820410">
        <ele>487.302027</ele>
        <time>2022-02-13T12:11:32.608Z</time>
      </trkpt>
      <trkpt lat="47.534295" lon="7.820343">
        <ele>488.547617</ele>
        <time>2022-02-13T12:11:39.574Z</time>
      </trkpt>
      <trkpt lat="47.534224" lon="7.820257">
        <ele>489.790705</ele>
        <time>2022-02-13T12:11:48.679Z</time>
      </trkpt>
      <trkpt lat="47.534148" lon="7.820166">
        <ele>490.819528</ele>
        <time>2022-02-13T12:11:58.575Z</time>
      </trkpt>
      <trkpt lat="47.534070" lon="7.820097">
        <ele>490.839222</ele>
        <time>2022-02-13T12:12:07.587Z</time>
      </trkpt>
      <trkpt lat="47.533985" lon="7.820034">
        <ele>490.859826</ele>
        <time>2022-02-13T12:12:16.565Z</time>
      </trkpt>
      <trkpt lat="47.533930" lon="7.819927">
        <ele>490.879507</ele>
        <time>2022-02-13T12:12:25.577Z</time>
      </trkpt>
      <trkpt lat="47.533859" lon="7.819828">
        <ele>490.900645</ele>
        <time>2022-02-13T12:12:40.607Z</time>
      </trkpt>
      <trkpt lat="47.533785" lon="7.819734">
        <ele>490.921778</ele>
        <time>2022-02-13T12:12:48.608Z</time>
      </trkpt>
      <trkpt lat="47.533703" lon="7.819663">
        <ele>490.942367</ele>
        <time>2022-02-13T12:12:56.574Z</time>
      </trkpt>
      <trkpt lat="47.533620" lon="7.819590">
        <ele>490.963292</ele>
        <time>2022-02-13T12:13:04.579Z</time>
      </trkpt>
      <trkpt lat="47.533526" lon="7.819600">
        <ele>490.983721</ele>
        <time>2022-02-13T12:13:16.576Z</time>
      </trkpt>
      <trkpt lat="47.533615" lon="7.819573">
        <ele>491.003415</ele>
        <time>2022-02-13T12:13:47.572Z</time>
      </trkpt>
      <trkpt lat="47.533698" lon="7.819629">
        <ele>491.023185</ele>
        <time>2022-02-13T12:13:56.578Z</time>
      </trkpt>
      <trkpt lat="47.533781" lon="7.819772">
        <ele>491.050785</ele>
        <time>2022-02-13T12:14:07.747Z</time>
      </trkpt>
      <trkpt lat="47.533855" lon="7.819854">
        <ele>491.070818</ele>
        <time>2022-02-13T12:14:15.563Z</time>
      </trkpt>
      <trkpt lat="47.533915" lon="7.819958">
        <ele>491.090839</ele>
        <time>2022-02-13T12:14:22.608Z</time>
      </trkpt>
      <trkpt lat="47.533958" lon="7.820091">
        <ele>491.112421</ele>
        <time>2022-02-13T12:14:30.604Z</time>
      </trkpt>
      <trkpt lat="47.533995" lon="7.820236">
        <ele>491.135107</ele>
        <time>2022-02-13T12:14:37.571Z</time>
      </trkpt>
      <trkpt lat="47.534028" lon="7.820370">
        <ele>491.155983</ele>
        <time>2022-02-13T12:14:45.581Z</time>
      </trkpt>
      <trkpt lat="47.534056" lon="7.820507">
        <ele>491.176932</ele>
        <time>2022-02-13T12:14:52.575Z</time>
      </trkpt>
      <trkpt lat="47.534076" lon="7.820637">
        <ele>491.196445</ele>
        <time>2022-02-13T12:14:58.578Z</time>
      </trkpt>
      <trkpt lat="47.534112" lon="7.820778">
        <ele>491.262622</ele>
        <time>2022-02-13T12:15:06.608Z</time>
      </trkpt>
      <trkpt lat="47.534140" lon="7.820915">
        <ele>491.350096</ele>
        <time>2022-02-13T12:15:14.568Z</time>
      </trkpt>
      <trkpt lat="47.534154" lon="7.821056">
        <ele>491.437188</ele>
        <time>2022-02-13T12:15:20.602Z</time>
      </trkpt>
      <trkpt lat="47.534187" lon="7.821189">
        <ele>491.523780</ele>
        <time>2022-02-13T12:15:27.576Z</time>
      </trkpt>
      <trkpt lat="47.534207" lon="7.821327">
        <ele>491.610034</ele>
        <time>2022-02-13T12:15:34.578Z</time>
      </trkpt>
      <trkpt lat="47.534231" lon="7.821465">
        <ele>491.697119</ele>
        <time>2022-02-13T12:15:41.789Z</time>
      </trkpt>
      <trkpt lat="47.534259" lon="7.821613">
        <ele>491.791046</ele>
        <time>2022-02-13T12:15:48.576Z</time>
      </trkpt>
      <trkpt lat="47.534288" lon="7.821762">
        <ele>491.885809</ele>
        <time>2022-02-13T12:15:55.584Z</time>
      </trkpt>
      <trkpt lat="47.534320" lon="7.821894">
        <ele>491.971517</ele>
        <time>2022-02-13T12:16:02.571Z</time>
      </trkpt>
      <trkpt lat="47.534361" lon="7.822013">
        <ele>492.053160</ele>
        <time>2022-02-13T12:16:10.574Z</time>
      </trkpt>
      <trkpt lat="47.534396" lon="7.822153">
        <ele>492.144391</ele>
        <time>2022-02-13T12:16:18.615Z</time>
      </trkpt>
      <trkpt lat="47.534419" lon="7.822295">
        <ele>492.233630</ele>
        <time>2022-02-13T12:16:26.575Z</time>
      </trkpt>
      <trkpt lat="47.534441" lon="7.822424">
        <ele>492.314938</ele>
        <time>2022-02-13T12:16:35.565Z</time>
      </trkpt>
      <trkpt lat="47.534452" lon="7.822569">
        <ele>492.404106</ele>
        <time>2022-02-13T12:16:42.573Z</time>
      </trkpt>
      <trkpt lat="47.534459" lon="7.822708">
        <ele>492.489285</ele>
        <time>2022-02-13T12:16:48.576Z</time>
      </trkpt>
      <trkpt lat="47.534459" lon="7.822855">
        <ele>492.579117</ele>
        <time>2022-02-13T12:16:56.572Z</time>
      </trkpt>
      <trkpt lat="47.534444" lon="7.823006">
        <ele>492.672387</ele>
        <time>2022-02-13T12:17:04.570Z</time>
      </trkpt>
      <trkpt lat="47.534415" lon="7.823148">
        <ele>492.763046</ele>
        <time>2022-02-13T12:17:12.592Z</time>
      </trkpt>
      <trkpt lat="47.534389" lon="7.823289">
        <ele>492.864446</ele>
        <time>2022-02-13T12:17:20.603Z</time>
      </trkpt>
      <trkpt lat="47.534361" lon="7.823420">
        <ele>492.999820</ele>
        <time>2022-02-13T12:17:28.616Z</time>
      </trkpt>
      <trkpt lat="47.534347" lon="7.823561">
        <ele>493.140228</ele>
        <time>2022-02-13T12:17:36.564Z</time>
      </trkpt>
      <trkpt lat="47.534331" lon="7.823698">
        <ele>493.277204</ele>
        <time>2022-02-13T12:17:43.579Z</time>
      </trkpt>
      <trkpt lat="47.534304" lon="7.823827">
        <ele>493.410262</ele>
        <time>2022-02-13T12:17:49.576Z</time>
      </trkpt>
      <trkpt lat="47.534298" lon="7.823960">
        <ele>493.541586</ele>
        <time>2022-02-13T12:17:56.561Z</time>
      </trkpt>
      <trkpt lat="47.534284" lon="7.824103">
        <ele>493.683944</ele>
        <time>2022-02-13T12:18:03.610Z</time>
      </trkpt>
      <trkpt lat="47.534250" lon="7.824240">
        <ele>493.827746</ele>
        <time>2022-02-13T12:18:08.607Z</time>
      </trkpt>
      <trkpt lat="47.534225" lon="7.824379">
        <ele>493.969465</ele>
        <time>2022-02-13T12:18:14.877Z</time>
      </trkpt>
      <trkpt lat="47.534228" lon="7.824527">
        <ele>494.115341</ele>
        <time>2022-02-13T12:18:23.559Z</time>
      </trkpt>
      <trkpt lat="47.534222" lon="7.824660">
        <ele>494.246665</ele>
        <time>2022-02-13T12:18:29.602Z</time>
      </trkpt>
      <trkpt lat="47.534209" lon="7.824806">
        <ele>494.391750</ele>
        <time>2022-02-13T12:18:38.606Z</time>
      </trkpt>
      <trkpt lat="47.534190" lon="7.824953">
        <ele>494.539205</ele>
        <time>2022-02-13T12:18:46.610Z</time>
      </trkpt>
      <trkpt lat="47.534178" lon="7.825100">
        <ele>494.685085</ele>
        <time>2022-02-13T12:18:55.603Z</time>
      </trkpt>
      <trkpt lat="47.534153" lon="7.825232">
        <ele>494.820152</ele>
        <time>2022-02-13T12:19:03.573Z</time>
      </trkpt>
      <trkpt lat="47.534121" lon="7.825358">
        <ele>494.952780</ele>
        <time>2022-02-13T12:19:10.577Z</time>
      </trkpt>
      <trkpt lat="47.534091" lon="7.825494">
        <ele>495.093738</ele>
        <time>2022-02-13T12:19:16.564Z</time>
      </trkpt>
      <trkpt lat="47.534057" lon="7.825637">
        <ele>495.243103</ele>
        <time>2022-02-13T12:19:23.588Z</time>
      </trkpt>
      <trkpt lat="47.534036" lon="7.825780">
        <ele>495.387281</ele>
        <time>2022-02-13T12:19:30.572Z</time>
      </trkpt>
      <trkpt lat="47.534032" lon="7.825921">
        <ele>495.561366</ele>
        <time>2022-02-13T12:19:37.578Z</time>
      </trkpt>
      <trkpt lat="47.534023" lon="7.826059">
        <ele>495.767301</ele>
        <time>2022-02-13T12:19:44.579Z</time>
      </trkpt>
      <trkpt lat="47.533998" lon="7.826202">
        <ele>495.986714</ele>
        <time>2022-02-13T12:19:52.576Z</time>
      </trkpt>
      <trkpt lat="47.533985" lon="7.826336">
        <ele>496.187798</ele>
        <time>2022-02-13T12:20:01.572Z</time>
      </trkpt>
      <trkpt lat="47.533964" lon="7.826478">
        <ele>496.403722</ele>
        <time>2022-02-13T12:20:08.572Z</time>
      </trkpt>
      <trkpt lat="47.533951" lon="7.826621">
        <ele>496.618046</ele>
        <time>2022-02-13T12:20:15.575Z</time>
      </trkpt>
      <trkpt lat="47.533939" lon="7.826766">
        <ele>496.835037</ele>
        <time>2022-02-13T12:20:22.576Z</time>
      </trkpt>
      <trkpt lat="47.533939" lon="7.826916">
        <ele>497.057843</ele>
        <time>2022-02-13T12:20:29.575Z</time>
      </trkpt>
      <trkpt lat="47.533938" lon="7.827053">
        <ele>497.261351</ele>
        <time>2022-02-13T12:20:36.576Z</time>
      </trkpt>
      <trkpt lat="47.533940" lon="7.827197">
        <ele>497.475290</ele>
        <time>2022-02-13T12:20:43.580Z</time>
      </trkpt>
      <trkpt lat="47.533945" lon="7.827351">
        <ele>497.704301</ele>
        <time>2022-02-13T12:20:51.570Z</time>
      </trkpt>
      <trkpt lat="47.533924" lon="7.827485">
        <ele>497.908633</ele>
        <time>2022-02-13T12:20:58.577Z</time>
      </trkpt>
      <trkpt lat="47.533918" lon="7.827623">
        <ele>498.114039</ele>
        <time>2022-02-13T12:21:06.574Z</time>
      </trkpt>
      <trkpt lat="47.533916" lon="7.827771">
        <ele>498.333918</ele>
        <time>2022-02-13T12:21:14.576Z</time>
      </trkpt>
      <trkpt lat="47.533907" lon="7.827918">
        <ele>498.553164</ele>
        <time>2022-02-13T12:21:22.614Z</time>
      </trkpt>
      <trkpt lat="47.533888" lon="7.828050">
        <ele>498.753639</ele>
        <time>2022-02-13T12:21:29.580Z</time>
      </trkpt>
      <trkpt lat="47.533864" lon="7.828184">
        <ele>498.959564</ele>
        <time>2022-02-13T12:21:37.613Z</time>
      </trkpt>
      <trkpt lat="47.533845" lon="7.828333">
        <ele>499.184798</ele>
        <time>2022-02-13T12:21:45.592Z</time>
      </trkpt>
      <trkpt lat="47.533823" lon="7.828480">
        <ele>499.408448</ele>
        <time>2022-02-13T12:21:51.577Z</time>
      </trkpt>
      <trkpt lat="47.533793" lon="7.828618">
        <ele>499.141662</ele>
        <time>2022-02-13T12:21:59.580Z</time>
      </trkpt>
      <trkpt lat="47.533772" lon="7.828758">
        <ele>498.864221</ele>
        <time>2022-02-13T12:22:06.578Z</time>
      </trkpt>
      <trkpt lat="47.533749" lon="7.828894">
        <ele>498.592994</ele>
        <time>2022-02-13T12:22:14.577Z</time>
      </trkpt>
      <trkpt lat="47.533722" lon="7.829024">
        <ele>498.329872</ele>
        <time>2022-02-13T12:22:21.580Z</time>
      </trkpt>
      <trkpt lat="47.533683" lon="7.829159">
        <ele>498.045804</ele>
        <time>2022-02-13T12:22:29.582Z</time>
      </trkpt>
      <trkpt lat="47.533644" lon="7.829286">
        <ele>497.775896</ele>
        <time>2022-02-13T12:22:36.637Z</time>
      </trkpt>
      <trkpt lat="47.533612" lon="7.829459">
        <ele>497.428885</ele>
        <time>2022-02-13T12:23:01.576Z</time>
      </trkpt>
      <trkpt lat="47.533570" lon="7.829580">
        <ele>497.165680</ele>
        <time>2022-02-13T12:23:08.577Z</time>
      </trkpt>
      <trkpt lat="47.533537" lon="7.829706">
        <ele>496.904228</ele>
        <time>2022-02-13T12:23:16.573Z</time>
      </trkpt>
      <trkpt lat="47.533512" lon="7.829834">
        <ele>496.646451</ele>
        <time>2022-02-13T12:23:23.578Z</time>
      </trkpt>
      <trkpt lat="47.533456" lon="7.829951">
        <ele>496.369001</ele>
        <time>2022-02-13T12:23:31.576Z</time>
      </trkpt>
      <trkpt lat="47.533428" lon="7.830097">
        <ele>496.075382</ele>
        <time>2022-02-13T12:23:38.576Z</time>
      </trkpt>
      <trkpt lat="47.533402" lon="7.830228">
        <ele>495.811231</ele>
        <time>2022-02-13T12:23:45.577Z</time>
      </trkpt>
      <trkpt lat="47.533369" lon="7.830362">
        <ele>495.535293</ele>
        <time>2022-02-13T12:23:51.580Z</time>
      </trkpt>
      <trkpt lat="47.533338" lon="7.830498">
        <ele>495.257602</ele>
        <time>2022-02-13T12:24:01.610Z</time>
      </trkpt>
      <trkpt lat="47.533295" lon="7.830627">
        <ele>494.979285</ele>
        <time>2022-02-13T12:24:08.577Z</time>
      </trkpt>
      <trkpt lat="47.533255" lon="7.830761">
        <ele>494.695846</ele>
        <time>2022-02-13T12:24:16.606Z</time>
      </trkpt>
      <trkpt lat="47.533240" lon="7.830892">
        <ele>494.438799</ele>
        <time>2022-02-13T12:24:25.582Z</time>
      </trkpt>
      <trkpt lat="47.533251" lon="7.831065">
        <ele>494.264960</ele>
        <time>2022-02-13T12:25:07.582Z</time>
      </trkpt>
      <trkpt lat="47.533294" lon="7.831181">
        <ele>494.271917</ele>
        <time>2022-02-13T12:25:15.578Z</time>
      </trkpt>
      <trkpt lat="47.533353" lon="7.831302">
        <ele>494.279763</ele>
        <time>2022-02-13T12:25:24.577Z</time>
      </trkpt>
      <trkpt lat="47.533410" lon="7.831415">
        <ele>494.287178</ele>
        <time>2022-02-13T12:25:32.573Z</time>
      </trkpt>
      <trkpt lat="47.533486" lon="7.831513">
        <ele>494.295024</ele>
        <time>2022-02-13T12:25:39.580Z</time>
      </trkpt>
      <trkpt lat="47.533546" lon="7.831629">
        <ele>494.302706</ele>
        <time>2022-02-13T12:25:46.572Z</time>
      </trkpt>
      <trkpt lat="47.533627" lon="7.831703">
        <ele>494.310116</ele>
        <time>2022-02-13T12:25:54.562Z</time>
      </trkpt>
      <trkpt lat="47.533699" lon="7.831791">
        <ele>494.317385</ele>
        <time>2022-02-13T12:26:01.571Z</time>
      </trkpt>
      <trkpt lat="47.533764" lon="7.831899">
        <ele>494.324990</ele>
        <time>2022-02-13T12:26:07.573Z</time>
      </trkpt>
      <trkpt lat="47.533767" lon="7.832041">
        <ele>494.332459</ele>
        <time>2022-02-13T12:26:15.576Z</time>
      </trkpt>
      <trkpt lat="47.533764" lon="7.832192">
        <ele>494.340400</ele>
        <time>2022-02-13T12:26:21.584Z</time>
      </trkpt>
      <trkpt lat="47.533733" lon="7.832322">
        <ele>494.347648</ele>
        <time>2022-02-13T12:26:26.564Z</time>
      </trkpt>
      <trkpt lat="47.533800" lon="7.832431">
        <ele>494.355397</ele>
        <time>2022-02-13T12:26:35.577Z</time>
      </trkpt>
      <trkpt lat="47.533839" lon="7.832551">
        <ele>494.362398</ele>
        <time>2022-02-13T12:26:42.581Z</time>
      </trkpt>
      <trkpt lat="47.533859" lon="7.832702">
        <ele>494.370487</ele>
        <time>2022-02-13T12:26:50.607Z</time>
      </trkpt>
      <trkpt lat="47.533872" lon="7.832838">
        <ele>494.377708</ele>
        <time>2022-02-13T12:26:57.576Z</time>
      </trkpt>
      <trkpt lat="47.533869" lon="7.832973">
        <ele>494.384809</ele>
        <time>2022-02-13T12:27:03.582Z</time>
      </trkpt>
      <trkpt lat="47.533861" lon="7.833116">
        <ele>494.392352</ele>
        <time>2022-02-13T12:27:10.575Z</time>
      </trkpt>
      <trkpt lat="47.533864" lon="7.833258">
        <ele>494.399820</ele>
        <time>2022-02-13T12:27:18.572Z</time>
      </trkpt>
      <trkpt lat="47.533871" lon="7.833408">
        <ele>495.462462</ele>
        <time>2022-02-13T12:27:27.576Z</time>
      </trkpt>
      <trkpt lat="47.533877" lon="7.833540">
        <ele>496.515527</ele>
        <time>2022-02-13T12:27:34.570Z</time>
      </trkpt>
      <trkpt lat="47.533877" lon="7.833676">
        <ele>497.598053</ele>
        <time>2022-02-13T12:27:40.658Z</time>
      </trkpt>
      <trkpt lat="47.533920" lon="7.833818">
        <ele>498.836818</ele>
        <time>2022-02-13T12:27:51.579Z</time>
      </trkpt>
      <trkpt lat="47.533936" lon="7.833957">
        <ele>499.959186</ele>
        <time>2022-02-13T12:28:03.615Z</time>
      </trkpt>
      <trkpt lat="47.533961" lon="7.834090">
        <ele>501.058095</ele>
        <time>2022-02-13T12:28:14.561Z</time>
      </trkpt>
      <trkpt lat="47.534015" lon="7.834237">
        <ele>502.390157</ele>
        <time>2022-02-13T12:28:22.760Z</time>
      </trkpt>
      <trkpt lat="47.534053" lon="7.834370">
        <ele>503.539693</ele>
        <time>2022-02-13T12:28:29.566Z</time>
      </trkpt>
      <trkpt lat="47.534076" lon="7.834517">
        <ele>504.740780</ele>
        <time>2022-02-13T12:28:35.575Z</time>
      </trkpt>
      <trkpt lat="47.534081" lon="7.834671">
        <ele>505.967993</ele>
        <time>2022-02-13T12:28:43.569Z</time>
      </trkpt>
      <trkpt lat="47.534046" lon="7.834807">
        <ele>507.126492</ele>
        <time>2022-02-13T12:28:51.617Z</time>
      </trkpt>
      <trkpt lat="47.534049" lon="7.834942">
        <ele>508.201636</ele>
        <time>2022-02-13T12:28:59.610Z</time>
      </trkpt>
      <trkpt lat="47.534050" lon="7.835084">
        <ele>509.331978</ele>
        <time>2022-02-13T12:29:07.605Z</time>
      </trkpt>
      <trkpt lat="47.534082" lon="7.835211">
        <ele>510.410966</ele>
        <time>2022-02-13T12:29:15.585Z</time>
      </trkpt>
      <trkpt lat="47.534100" lon="7.835357">
        <ele>511.592301</ele>
        <time>2022-02-13T12:29:26.568Z</time>
      </trkpt>
      <trkpt lat="47.534159" lon="7.835480">
        <ele>512.793285</ele>
        <time>2022-02-13T12:29:37.569Z</time>
      </trkpt>
      <trkpt lat="47.534187" lon="7.835606">
        <ele>513.849137</ele>
        <time>2022-02-13T12:29:47.574Z</time>
      </trkpt>
      <trkpt lat="47.534218" lon="7.835735">
        <ele>514.939042</ele>
        <time>2022-02-13T12:29:55.568Z</time>
      </trkpt>
      <trkpt lat="47.534209" lon="7.835873">
        <ele>516.105496</ele>
        <time>2022-02-13T12:30:04.575Z</time>
      </trkpt>
      <trkpt lat="47.534239" lon="7.836015">
        <ele>517.460399</ele>
        <time>2022-02-13T12:30:14.576Z</time>
      </trkpt>
      <trkpt lat="47.534260" lon="7.836153">
        <ele>518.748572</ele>
        <time>2022-02-13T12:30:22.591Z</time>
      </trkpt>
      <trkpt lat="47.534257" lon="7.836293">
        <ele>520.024075</ele>
        <time>2022-02-13T12:30:30.568Z</time>
      </trkpt>
      <trkpt lat="47.534264" lon="7.836428">
        <ele>521.257024</ele>
        <time>2022-02-13T12:30:36.572Z</time>
      </trkpt>
      <trkpt lat="47.534279" lon="7.836565">
        <ele>522.520864</ele>
        <time>2022-02-13T12:30:43.569Z</time>
      </trkpt>
      <trkpt lat="47.534331" lon="7.836678">
        <ele>523.766146</ele>
        <time>2022-02-13T12:30:51.581Z</time>
      </trkpt>
      <trkpt lat="47.534369" lon="7.836804">
        <ele>525.022788</ele>
        <time>2022-02-13T12:31:01.575Z</time>
      </trkpt>
      <trkpt lat="47.534382" lon="7.836948">
        <ele>526.345741</ele>
        <time>2022-02-13T12:31:10.570Z</time>
      </trkpt>
      <trkpt lat="47.534359" lon="7.837078">
        <ele>527.569508</ele>
        <time>2022-02-13T12:31:21.579Z</time>
      </trkpt>
      <trkpt lat="47.534409" lon="7.837200">
        <ele>528.869120</ele>
        <time>2022-02-13T12:31:31.585Z</time>
      </trkpt>
      <trkpt lat="47.534376" lon="7.837336">
        <ele>530.185107</ele>
        <time>2022-02-13T12:31:37.576Z</time>
      </trkpt>
      <trkpt lat="47.534359" lon="7.837467">
        <ele>531.399846</ele>
        <time>2022-02-13T12:31:44.600Z</time>
      </trkpt>
      <trkpt lat="47.534304" lon="7.837582">
        <ele>532.683174</ele>
        <time>2022-02-13T12:31:48.575Z</time>
      </trkpt>
      <trkpt lat="47.534247" lon="7.837705">
        <ele>534.041691</ele>
        <time>2022-02-13T12:31:54.579Z</time>
      </trkpt>
      <trkpt lat="47.534178" lon="7.837797">
        <ele>535.293870</ele>
        <time>2022-02-13T12:32:01.578Z</time>
      </trkpt>
      <trkpt lat="47.534089" lon="7.837905">
        <ele>536.845694</ele>
        <time>2022-02-13T12:32:47.611Z</time>
      </trkpt>
      <trkpt lat="47.534062" lon="7.838047">
        <ele>538.189072</ele>
        <time>2022-02-13T12:33:10.171Z</time>
      </trkpt>
      <trkpt lat="47.534017" lon="7.838168">
        <ele>539.447026</ele>
        <time>2022-02-13T12:33:17.579Z</time>
      </trkpt>
      <trkpt lat="47.533987" lon="7.838296">
        <ele>540.373431</ele>
        <time>2022-02-13T12:33:25.581Z</time>
      </trkpt>
      <trkpt lat="47.533944" lon="7.838423">
        <ele>541.179544</ele>
        <time>2022-02-13T12:33:34.590Z</time>
      </trkpt>
      <trkpt lat="47.533930" lon="7.838559">
        <ele>541.960106</ele>
        <time>2022-02-13T12:33:41.576Z</time>
      </trkpt>
      <trkpt lat="47.533947" lon="7.838701">
        <ele>542.778361</ele>
        <time>2022-02-13T12:33:49.579Z</time>
      </trkpt>
      <trkpt lat="47.533939" lon="7.838841">
        <ele>543.575541</ele>
        <time>2022-02-13T12:33:57.576Z</time>
      </trkpt>
      <trkpt lat="47.533940" lon="7.838977">
        <ele>544.347231</ele>
        <time>2022-02-13T12:34:05.575Z</time>
      </trkpt>
      <trkpt lat="47.533986" lon="7.839100">
        <ele>545.145029</ele>
        <time>2022-02-13T12:34:14.576Z</time>
      </trkpt>
      <trkpt lat="47.534040" lon="7.839213">
        <ele>545.930526</ele>
        <time>2022-02-13T12:34:24.604Z</time>
      </trkpt>
      <trkpt lat="47.534054" lon="7.839347">
        <ele>546.699870</ele>
        <time>2022-02-13T12:34:32.607Z</time>
      </trkpt>
      <trkpt lat="47.534099" lon="7.839474">
        <ele>547.513655</ele>
        <time>2022-02-13T12:34:42.566Z</time>
      </trkpt>
      <trkpt lat="47.534121" lon="7.839618">
        <ele>548.351345</ele>
        <time>2022-02-13T12:34:50.586Z</time>
      </trkpt>
      <trkpt lat="47.534199" lon="7.839703">
        <ele>549.165141</ele>
        <time>2022-02-13T12:34:58.596Z</time>
      </trkpt>
      <trkpt lat="47.534223" lon="7.839846">
        <ele>550.001191</ele>
        <time>2022-02-13T12:35:05.576Z</time>
      </trkpt>
      <trkpt lat="47.534206" lon="7.839979">
        <ele>550.769215</ele>
        <time>2022-02-13T12:35:13.579Z</time>
      </trkpt>
      <trkpt lat="47.534171" lon="7.840113">
        <ele>551.584420</ele>
        <time>2022-02-13T12:35:21.582Z</time>
      </trkpt>
      <trkpt lat="47.534113" lon="7.840219">
        <ele>552.358559</ele>
        <time>2022-02-13T12:35:28.575Z</time>
      </trkpt>
      <trkpt lat="47.534061" lon="7.840346">
        <ele>553.201292</ele>
        <time>2022-02-13T12:35:35.656Z</time>
      </trkpt>
      <trkpt lat="47.534002" lon="7.840451">
        <ele>553.976382</ele>
        <time>2022-02-13T12:35:44.593Z</time>
      </trkpt>
      <trkpt lat="47.533959" lon="7.840569">
        <ele>554.737193</ele>
        <time>2022-02-13T12:35:54.610Z</time>
      </trkpt>
      <trkpt lat="47.533948" lon="7.840709">
        <ele>555.611316</ele>
        <time>2022-02-13T12:36:04.003Z</time>
      </trkpt>
      <trkpt lat="47.533949" lon="7.840952">
        <ele>557.174575</ele>
        <time>2022-02-13T12:36:12.999Z</time>
      </trkpt>
      <trkpt lat="47.533925" lon="7.841093">
        <ele>558.110017</ele>
        <time>2022-02-13T12:36:18.007Z</time>
      </trkpt>
      <trkpt lat="47.533903" lon="7.841237">
        <ele>559.059797</ele>
        <time>2022-02-13T12:36:25.992Z</time>
      </trkpt>
      <trkpt lat="47.533879" lon="7.841378">
        <ele>559.995239</ele>
        <time>2022-02-13T12:36:32.992Z</time>
      </trkpt>
      <trkpt lat="47.533870" lon="7.841519">
        <ele>560.906344</ele>
        <time>2022-02-13T12:36:41.001Z</time>
      </trkpt>
      <trkpt lat="47.533879" lon="7.841654">
        <ele>561.779030</ele>
        <time>2022-02-13T12:36:48.998Z</time>
      </trkpt>
      <trkpt lat="47.533812" lon="7.841754">
        <ele>562.685335</ele>
        <time>2022-02-13T12:36:57.037Z</time>
      </trkpt>
      <trkpt lat="47.533721" lon="7.841779">
        <ele>563.567197</ele>
        <time>2022-02-13T12:37:07.993Z</time>
      </trkpt>
      <trkpt lat="47.533638" lon="7.842015">
        <ele>565.279035</ele>
        <time>2022-02-13T12:37:57.004Z</time>
      </trkpt>
      <trkpt lat="47.533624" lon="7.842151">
        <ele>566.164045</ele>
        <time>2022-02-13T12:38:04.009Z</time>
      </trkpt>
      <trkpt lat="47.533586" lon="7.842279">
        <ele>567.063569</ele>
        <time>2022-02-13T12:38:10.996Z</time>
      </trkpt>
      <trkpt lat="47.533561" lon="7.842412">
        <ele>567.951711</ele>
        <time>2022-02-13T12:38:20.987Z</time>
      </trkpt>
      <trkpt lat="47.533504" lon="7.842516">
        <ele>568.813445</ele>
        <time>2022-02-13T12:38:30.001Z</time>
      </trkpt>
      <trkpt lat="47.533474" lon="7.842654">
        <ele>569.746098</ele>
        <time>2022-02-13T12:38:37.004Z</time>
      </trkpt>
      <trkpt lat="47.533456" lon="7.842786">
        <ele>570.612415</ele>
        <time>2022-02-13T12:38:46.035Z</time>
      </trkpt>
      <trkpt lat="47.533429" lon="7.842913">
        <ele>571.468966</ele>
        <time>2022-02-13T12:38:55.031Z</time>
      </trkpt>
      <trkpt lat="47.533442" lon="7.843057">
        <ele>572.678940</ele>
        <time>2022-02-13T12:39:05.028Z</time>
      </trkpt>
      <trkpt lat="47.533483" lon="7.843181">
        <ele>574.425566</ele>
        <time>2022-02-13T12:39:15.008Z</time>
      </trkpt>
      <trkpt lat="47.533486" lon="7.843317">
        <ele>576.146906</ele>
        <time>2022-02-13T12:39:23.001Z</time>
      </trkpt>
      <trkpt lat="47.533509" lon="7.843463">
        <ele>578.043438</ele>
        <time>2022-02-13T12:39:29.001Z</time>
      </trkpt>
      <trkpt lat="47.533538" lon="7.843607">
        <ele>579.944372</ele>
        <time>2022-02-13T12:39:36.002Z</time>
      </trkpt>
      <trkpt lat="47.533581" lon="7.843727">
        <ele>581.662942</ele>
        <time>2022-02-13T12:39:43.013Z</time>
      </trkpt>
      <trkpt lat="47.533617" lon="7.843860">
        <ele>583.475584</ele>
        <time>2022-02-13T12:39:53.003Z</time>
      </trkpt>
      <trkpt lat="47.533562" lon="7.843981">
        <ele>585.320819</ele>
        <time>2022-02-13T12:40:02.000Z</time>
      </trkpt>
      <trkpt lat="47.533546" lon="7.844125">
        <ele>587.166943</ele>
        <time>2022-02-13T12:40:11.010Z</time>
      </trkpt>
      <trkpt lat="47.533492" lon="7.844238">
        <ele>588.918247</ele>
        <time>2022-02-13T12:40:23.030Z</time>
      </trkpt>
      <trkpt lat="47.533470" lon="7.844089">
        <ele>590.847667</ele>
        <time>2022-02-13T12:40:37.005Z</time>
      </trkpt>
      <trkpt lat="47.533389" lon="7.844002">
        <ele>592.722378</ele>
        <time>2022-02-13T12:40:48.997Z</time>
      </trkpt>
      <trkpt lat="47.533298" lon="7.843917">
        <ele>594.738145</ele>
        <time>2022-02-13T12:40:56.995Z</time>
      </trkpt>
      <trkpt lat="47.533223" lon="7.843836">
        <ele>596.477296</ele>
        <time>2022-02-13T12:41:09.004Z</time>
      </trkpt>
      <trkpt lat="47.533097" lon="7.843988">
        <ele>599.522080</ele>
        <time>2022-02-13T12:42:00.012Z</time>
      </trkpt>
      <trkpt lat="47.533060" lon="7.844114">
        <ele>601.260246</ele>
        <time>2022-02-13T12:42:12.998Z</time>
      </trkpt>
      <trkpt lat="47.533091" lon="7.844246">
        <ele>603.028215</ele>
        <time>2022-02-13T12:42:20.006Z</time>
      </trkpt>
      <trkpt lat="47.533137" lon="7.844370">
        <ele>604.818032</ele>
        <time>2022-02-13T12:42:28.029Z</time>
      </trkpt>
      <trkpt lat="47.533180" lon="7.844487">
        <ele>606.570062</ele>
        <time>2022-02-13T12:42:37.029Z</time>
      </trkpt>
      <trkpt lat="47.533191" lon="7.844628">
        <ele>608.541133</ele>
        <time>2022-02-13T12:42:46.002Z</time>
      </trkpt>
      <trkpt lat="47.533211" lon="7.844767">
        <ele>610.514747</ele>
        <time>2022-02-13T12:42:59.034Z</time>
      </trkpt>
      <trkpt lat="47.533257" lon="7.844890">
        <ele>612.467361</ele>
        <time>2022-02-13T12:43:10.035Z</time>
      </trkpt>
      <trkpt lat="47.533268" lon="7.845034">
        <ele>614.479819</ele>
        <time>2022-02-13T12:43:20.031Z</time>
      </trkpt>
      <trkpt lat="47.533282" lon="7.845180">
        <ele>616.527639</ele>
        <time>2022-02-13T12:43:32.001Z</time>
      </trkpt>
      <trkpt lat="47.533275" lon="7.845316">
        <ele>618.421724</ele>
        <time>2022-02-13T12:43:43.001Z</time>
      </trkpt>
      <trkpt lat="47.533310" lon="7.845446">
        <ele>620.365247</ele>
        <time>2022-02-13T12:43:51.008Z</time>
      </trkpt>
      <trkpt lat="47.533347" lon="7.845569">
        <ele>622.235186</ele>
        <time>2022-02-13T12:44:05.002Z</time>
      </trkpt>
      <trkpt lat="47.533394" lon="7.845686">
        <ele>624.125777</ele>
        <time>2022-02-13T12:44:15.001Z</time>
      </trkpt>
      <trkpt lat="47.533379" lon="7.845824">
        <ele>626.066828</ele>
        <time>2022-02-13T12:44:29.006Z</time>
      </trkpt>
      <trkpt lat="47.533412" lon="7.845955">
        <ele>628.008494</ele>
        <time>2022-02-13T12:44:40.997Z</time>
      </trkpt>
      <trkpt lat="47.533411" lon="7.846090">
        <ele>629.883321</ele>
        <time>2022-02-13T12:44:52.990Z</time>
      </trkpt>
      <trkpt lat="47.533440" lon="7.846221">
        <ele>631.797778</ele>
        <time>2022-02-13T12:45:02.008Z</time>
      </trkpt>
      <trkpt lat="47.533500" lon="7.846329">
        <ele>633.740013</ele>
        <time>2022-02-13T12:45:10.002Z</time>
      </trkpt>
      <trkpt lat="47.533520" lon="7.846470">
        <ele>635.740789</ele>
        <time>2022-02-13T12:45:20.029Z</time>
      </trkpt>
      <trkpt lat="47.533559" lon="7.846602">
        <ele>637.741669</ele>
        <time>2022-02-13T12:45:27.998Z</time>
      </trkpt>
      <trkpt lat="47.533602" lon="7.846722">
        <ele>639.628234</ele>
        <time>2022-02-13T12:45:35.998Z</time>
      </trkpt>
      <trkpt lat="47.533640" lon="7.846857">
        <ele>641.659342</ele>
        <time>2022-02-13T12:45:50.029Z</time>
      </trkpt>
      <trkpt lat="47.533699" lon="7.846972">
        <ele>643.494700</ele>
        <time>2022-02-13T12:46:00.006Z</time>
      </trkpt>
      <trkpt lat="47.533748" lon="7.847086">
        <ele>644.995812</ele>
        <time>2022-02-13T12:46:09.033Z</time>
      </trkpt>
      <trkpt lat="47.533789" lon="7.847209">
        <ele>646.519500</ele>
        <time>2022-02-13T12:46:20.089Z</time>
      </trkpt>
      <trkpt lat="47.533831" lon="7.847336">
        <ele>648.090318</ele>
        <time>2022-02-13T12:46:30.007Z</time>
      </trkpt>
      <trkpt lat="47.533745" lon="7.847282">
        <ele>649.627085</ele>
        <time>2022-02-13T12:46:43.034Z</time>
      </trkpt>
      <trkpt lat="47.533655" lon="7.847261">
        <ele>651.126030</ele>
        <time>2022-02-13T12:46:56.023Z</time>
      </trkpt>
      <trkpt lat="47.533574" lon="7.847203">
        <ele>652.606206</ele>
        <time>2022-02-13T12:47:10.013Z</time>
      </trkpt>
      <trkpt lat="47.533493" lon="7.847132">
        <ele>654.154700</ele>
        <time>2022-02-13T12:47:25.992Z</time>
      </trkpt>
      <trkpt lat="47.533405" lon="7.847100">
        <ele>655.645475</ele>
        <time>2022-02-13T12:47:34.009Z</time>
      </trkpt>
      <trkpt lat="47.533322" lon="7.847050">
        <ele>657.119619</ele>
        <time>2022-02-13T12:47:47.033Z</time>
      </trkpt>
      <trkpt lat="47.533259" lon="7.846953">
        <ele>658.614678</ele>
        <time>2022-02-13T12:47:59.036Z</time>
      </trkpt>
      <trkpt lat="47.533181" lon="7.846873">
        <ele>660.175578</ele>
        <time>2022-02-13T12:48:14.030Z</time>
      </trkpt>
      <trkpt lat="47.533099" lon="7.846820">
        <ele>661.647505</ele>
        <time>2022-02-13T12:48:22.990Z</time>
      </trkpt>
      <trkpt lat="47.533007" lon="7.846758">
        <ele>663.310406</ele>
        <time>2022-02-13T12:48:36.000Z</time>
      </trkpt>
      <trkpt lat="47.532920" lon="7.846672">
        <ele>665.031235</ele>
        <time>2022-02-13T12:48:52.437Z</time>
      </trkpt>
      <trkpt lat="47.532853" lon="7.846573">
        <ele>666.588262</ele>
        <time>2022-02-13T12:49:10.003Z</time>
      </trkpt>
      <trkpt lat="47.532788" lon="7.846672">
        <ele>668.122171</ele>
        <time>2022-02-13T12:49:33.001Z</time>
      </trkpt>
      <trkpt lat="47.532807" lon="7.846811">
        <ele>669.697494</ele>
        <time>2022-02-13T12:49:51.999Z</time>
      </trkpt>
      <trkpt lat="47.532736" lon="7.846812">
        <ele>670.865642</ele>
        <time>2022-02-13T12:50:05.223Z</time>
      </trkpt>
      <trkpt lat="47.532829" lon="7.846914">
        <ele>672.487185</ele>
        <time>2022-02-13T13:21:01.578Z</time>
      </trkpt>
      <trkpt lat="47.532884" lon="7.847033">
        <ele>672.848044</ele>
        <time>2022-02-13T13:21:11.061Z</time>
      </trkpt>
      <trkpt lat="47.532928" lon="7.847162">
        <ele>673.209692</ele>
        <time>2022-02-13T13:21:18.997Z</time>
      </trkpt>
      <trkpt lat="47.532929" lon="7.847302">
        <ele>673.560032</ele>
        <time>2022-02-13T13:21:24.999Z</time>
      </trkpt>
      <trkpt lat="47.532914" lon="7.847437">
        <ele>673.902385</ele>
        <time>2022-02-13T13:21:33.993Z</time>
      </trkpt>
      <trkpt lat="47.532934" lon="7.847567">
        <ele>674.236021</ele>
        <time>2022-02-13T13:21:42.005Z</time>
      </trkpt>
      <trkpt lat="47.532975" lon="7.847693">
        <ele>674.586016</ele>
        <time>2022-02-13T13:21:51.995Z</time>
      </trkpt>
      <trkpt lat="47.533056" lon="7.847765">
        <ele>674.936130</ele>
        <time>2022-02-13T13:21:59.991Z</time>
      </trkpt>
      <trkpt lat="47.533110" lon="7.847873">
        <ele>675.272414</ele>
        <time>2022-02-13T13:22:07.118Z</time>
      </trkpt>
      <trkpt lat="47.533169" lon="7.848000">
        <ele>675.658166</ele>
        <time>2022-02-13T13:22:13.030Z</time>
      </trkpt>
      <trkpt lat="47.533241" lon="7.848102">
        <ele>676.027422</ele>
        <time>2022-02-13T13:22:19.006Z</time>
      </trkpt>
      <trkpt lat="47.533279" lon="7.848232">
        <ele>676.381895</ele>
        <time>2022-02-13T13:22:27.001Z</time>
      </trkpt>
      <trkpt lat="47.533334" lon="7.848344">
        <ele>676.728440</ele>
        <time>2022-02-13T13:22:34.004Z</time>
      </trkpt>
      <trkpt lat="47.533415" lon="7.848428">
        <ele>677.094911</ele>
        <time>2022-02-13T13:22:44.017Z</time>
      </trkpt>
      <trkpt lat="47.533486" lon="7.848530">
        <ele>677.461496</ele>
        <time>2022-02-13T13:22:51.002Z</time>
      </trkpt>
      <trkpt lat="47.533569" lon="7.848621">
        <ele>677.844218</ele>
        <time>2022-02-13T13:22:59.002Z</time>
      </trkpt>
      <trkpt lat="47.533661" lon="7.848695">
        <ele>678.232221</ele>
        <time>2022-02-13T13:23:10.003Z</time>
      </trkpt>
      <trkpt lat="47.533724" lon="7.848798">
        <ele>678.579990</ele>
        <time>2022-02-13T13:23:19.019Z</time>
      </trkpt>
      <trkpt lat="47.533777" lon="7.848921">
        <ele>678.945107</ele>
        <time>2022-02-13T13:23:27.006Z</time>
      </trkpt>
      <trkpt lat="47.533835" lon="7.849026">
        <ele>678.292326</ele>
        <time>2022-02-13T13:23:37.008Z</time>
      </trkpt>
      <trkpt lat="47.533866" lon="7.849162">
        <ele>676.981302</ele>
        <time>2022-02-13T13:23:50.002Z</time>
      </trkpt>
      <trkpt lat="47.533920" lon="7.849283">
        <ele>675.656549</ele>
        <time>2022-02-13T13:23:54.993Z</time>
      </trkpt>
      <trkpt lat="47.533986" lon="7.849392">
        <ele>674.319292</ele>
        <time>2022-02-13T13:24:01.059Z</time>
      </trkpt>
      <trkpt lat="47.534032" lon="7.849515">
        <ele>673.035052</ele>
        <time>2022-02-13T13:24:05.999Z</time>
      </trkpt>
      <trkpt lat="47.534092" lon="7.849627">
        <ele>671.729215</ele>
        <time>2022-02-13T13:24:13.003Z</time>
      </trkpt>
      <trkpt lat="47.534139" lon="7.849754">
        <ele>670.406452</ele>
        <time>2022-02-13T13:24:19.009Z</time>
      </trkpt>
      <trkpt lat="47.534209" lon="7.849860">
        <ele>669.052200</ele>
        <time>2022-02-13T13:24:28.004Z</time>
      </trkpt>
      <trkpt lat="47.534242" lon="7.849984">
        <ele>667.834858</ele>
        <time>2022-02-13T13:24:39.006Z</time>
      </trkpt>
      <trkpt lat="47.534302" lon="7.850094">
        <ele>666.543284</ele>
        <time>2022-02-13T13:24:46.000Z</time>
      </trkpt>
      <trkpt lat="47.534351" lon="7.850231">
        <ele>665.127285</ele>
        <time>2022-02-13T13:24:56.004Z</time>
      </trkpt>
      <trkpt lat="47.534394" lon="7.850364">
        <ele>663.780459</ele>
        <time>2022-02-13T13:25:04.015Z</time>
      </trkpt>
      <trkpt lat="47.534450" lon="7.850474">
        <ele>662.522189</ele>
        <time>2022-02-13T13:25:14.003Z</time>
      </trkpt>
      <trkpt lat="47.534517" lon="7.850563">
        <ele>661.304714</ele>
        <time>2022-02-13T13:25:22.006Z</time>
      </trkpt>
      <trkpt lat="47.534572" lon="7.850675">
        <ele>660.039817</ele>
        <time>2022-02-13T13:25:31.031Z</time>
      </trkpt>
      <trkpt lat="47.534641" lon="7.850769">
        <ele>658.771611</ele>
        <time>2022-02-13T13:25:39.063Z</time>
      </trkpt>
      <trkpt lat="47.534692" lon="7.850887">
        <ele>657.491971</ele>
        <time>2022-02-13T13:25:54.000Z</time>
      </trkpt>
      <trkpt lat="47.534726" lon="7.851012">
        <ele>656.261146</ele>
        <time>2022-02-13T13:26:03.026Z</time>
      </trkpt>
      <trkpt lat="47.534776" lon="7.851125">
        <ele>655.027190</ele>
        <time>2022-02-13T13:26:13.034Z</time>
      </trkpt>
      <trkpt lat="47.534801" lon="7.851257">
        <ele>653.880871</ele>
        <time>2022-02-13T13:26:22.029Z</time>
      </trkpt>
      <trkpt lat="47.534859" lon="7.851377">
        <ele>652.680869</ele>
        <time>2022-02-13T13:26:29.035Z</time>
      </trkpt>
      <trkpt lat="47.534921" lon="7.851489">
        <ele>651.503195</ele>
        <time>2022-02-13T13:26:38.033Z</time>
      </trkpt>
      <trkpt lat="47.534976" lon="7.851600">
        <ele>650.383652</ele>
        <time>2022-02-13T13:26:45.003Z</time>
      </trkpt>
      <trkpt lat="47.535027" lon="7.851727">
        <ele>649.182137</ele>
        <time>2022-02-13T13:26:57.000Z</time>
      </trkpt>
      <trkpt lat="47.535076" lon="7.851855">
        <ele>647.985689</ele>
        <time>2022-02-13T13:27:07.040Z</time>
      </trkpt>
      <trkpt lat="47.535139" lon="7.851956">
        <ele>646.867596</ele>
        <time>2022-02-13T13:27:14.035Z</time>
      </trkpt>
      <trkpt lat="47.535153" lon="7.852099">
        <ele>645.692688</ele>
        <time>2022-02-13T13:27:25.033Z</time>
      </trkpt>
      <trkpt lat="47.535206" lon="7.852209">
        <ele>644.593859</ele>
        <time>2022-02-13T13:27:37.065Z</time>
      </trkpt>
      <trkpt lat="47.535257" lon="7.852332">
        <ele>643.420183</ele>
        <time>2022-02-13T13:27:47.016Z</time>
      </trkpt>
      <trkpt lat="47.535303" lon="7.852449">
        <ele>642.319292</ele>
        <time>2022-02-13T13:27:56.002Z</time>
      </trkpt>
      <trkpt lat="47.535405" lon="7.852536">
        <ele>640.901723</ele>
        <time>2022-02-13T13:28:07.996Z</time>
      </trkpt>
      <trkpt lat="47.535490" lon="7.852596">
        <ele>639.767711</ele>
        <time>2022-02-13T13:28:22.001Z</time>
      </trkpt>
      <trkpt lat="47.535559" lon="7.852682">
        <ele>638.681639</ele>
        <time>2022-02-13T13:28:32.001Z</time>
      </trkpt>
      <trkpt lat="47.535636" lon="7.852776">
        <ele>637.479903</ele>
        <time>2022-02-13T13:28:40.000Z</time>
      </trkpt>
      <trkpt lat="47.535704" lon="7.852866">
        <ele>636.381622</ele>
        <time>2022-02-13T13:28:50.031Z</time>
      </trkpt>
      <trkpt lat="47.535782" lon="7.852948">
        <ele>635.229659</ele>
        <time>2022-02-13T13:29:00.006Z</time>
      </trkpt>
      <trkpt lat="47.535856" lon="7.853032">
        <ele>634.106815</ele>
        <time>2022-02-13T13:29:10.039Z</time>
      </trkpt>
      <trkpt lat="47.535943" lon="7.853080">
        <ele>632.975376</ele>
        <time>2022-02-13T13:29:17.001Z</time>
      </trkpt>
      <trkpt lat="47.536029" lon="7.853141">
        <ele>631.654293</ele>
        <time>2022-02-13T13:29:28.009Z</time>
      </trkpt>
      <trkpt lat="47.536115" lon="7.853201">
        <ele>630.337224</ele>
        <time>2022-02-13T13:29:35.005Z</time>
      </trkpt>
      <trkpt lat="47.536193" lon="7.853269">
        <ele>629.083263</ele>
        <time>2022-02-13T13:29:45.011Z</time>
      </trkpt>
      <trkpt lat="47.536270" lon="7.853348">
        <ele>627.785520</ele>
        <time>2022-02-13T13:29:57.032Z</time>
      </trkpt>
      <trkpt lat="47.536340" lon="7.853445">
        <ele>626.457443</ele>
        <time>2022-02-13T13:30:08.006Z</time>
      </trkpt>
      <trkpt lat="47.536413" lon="7.853527">
        <ele>625.188105</ele>
        <time>2022-02-13T13:30:17.994Z</time>
      </trkpt>
      <trkpt lat="47.536494" lon="7.853617">
        <ele>623.785217</ele>
        <time>2022-02-13T13:30:27.046Z</time>
      </trkpt>
      <trkpt lat="47.536570" lon="7.853700">
        <ele>622.476991</ele>
        <time>2022-02-13T13:30:37.000Z</time>
      </trkpt>
      <trkpt lat="47.536659" lon="7.853749">
        <ele>621.161491</ele>
        <time>2022-02-13T13:30:46.792Z</time>
      </trkpt>
      <trkpt lat="47.536740" lon="7.853814">
        <ele>619.885143</ele>
        <time>2022-02-13T13:30:55.005Z</time>
      </trkpt>
      <trkpt lat="47.536814" lon="7.853904">
        <ele>618.558563</ele>
        <time>2022-02-13T13:31:08.009Z</time>
      </trkpt>
      <trkpt lat="47.536885" lon="7.853996">
        <ele>617.251598</ele>
        <time>2022-02-13T13:31:17.030Z</time>
      </trkpt>
      <trkpt lat="47.536964" lon="7.854062">
        <ele>615.994977</ele>
        <time>2022-02-13T13:31:29.000Z</time>
      </trkpt>
      <trkpt lat="47.537041" lon="7.854136">
        <ele>614.723288</ele>
        <time>2022-02-13T13:31:37.040Z</time>
      </trkpt>
      <trkpt lat="47.537104" lon="7.854237">
        <ele>613.437075</ele>
        <time>2022-02-13T13:31:49.034Z</time>
      </trkpt>
      <trkpt lat="47.537177" lon="7.854327">
        <ele>612.121178</ele>
        <time>2022-02-13T13:31:57.034Z</time>
      </trkpt>
      <trkpt lat="47.537254" lon="7.854411">
        <ele>610.796255</ele>
        <time>2022-02-13T13:32:06.998Z</time>
      </trkpt>
      <trkpt lat="47.537350" lon="7.854453">
        <ele>609.409392</ele>
        <time>2022-02-13T13:32:14.996Z</time>
      </trkpt>
      <trkpt lat="47.537418" lon="7.854553">
        <ele>608.066256</ele>
        <time>2022-02-13T13:32:24.998Z</time>
      </trkpt>
      <trkpt lat="47.537510" lon="7.854633">
        <ele>606.284255</ele>
        <time>2022-02-13T13:32:35.034Z</time>
      </trkpt>
      <trkpt lat="47.537614" lon="7.854727">
        <ele>604.249170</ele>
        <time>2022-02-13T13:32:44.893Z</time>
      </trkpt>
      <trkpt lat="47.537649" lon="7.854867">
        <ele>602.565626</ele>
        <time>2022-02-13T13:32:56.003Z</time>
      </trkpt>
      <trkpt lat="47.537702" lon="7.854981">
        <ele>601.004710</ele>
        <time>2022-02-13T13:33:06.003Z</time>
      </trkpt>
      <trkpt lat="47.537764" lon="7.855086">
        <ele>599.431625</ele>
        <time>2022-02-13T13:33:17.017Z</time>
      </trkpt>
      <trkpt lat="47.537835" lon="7.855188">
        <ele>597.779472</ele>
        <time>2022-02-13T13:33:25.997Z</time>
      </trkpt>
      <trkpt lat="47.537901" lon="7.855292">
        <ele>596.169854</ele>
        <time>2022-02-13T13:33:37.167Z</time>
      </trkpt>
      <trkpt lat="47.537965" lon="7.855389">
        <ele>594.640346</ele>
        <time>2022-02-13T13:33:51.175Z</time>
      </trkpt>
      <trkpt lat="47.538032" lon="7.855479">
        <ele>593.129523</ele>
        <time>2022-02-13T13:34:00.167Z</time>
      </trkpt>
      <trkpt lat="47.538110" lon="7.855554">
        <ele>591.576177</ele>
        <time>2022-02-13T13:34:11.164Z</time>
      </trkpt>
      <trkpt lat="47.538199" lon="7.855606">
        <ele>589.978056</ele>
        <time>2022-02-13T13:34:18.175Z</time>
      </trkpt>
      <trkpt lat="47.538279" lon="7.855687">
        <ele>588.359391</ele>
        <time>2022-02-13T13:34:28.164Z</time>
      </trkpt>
      <trkpt lat="47.538362" lon="7.855741">
        <ele>586.845126</ele>
        <time>2022-02-13T13:34:38.169Z</time>
      </trkpt>
      <trkpt lat="47.538437" lon="7.855818">
        <ele>585.320835</ele>
        <time>2022-02-13T13:34:49.165Z</time>
      </trkpt>
      <trkpt lat="47.538566" lon="7.855940">
        <ele>582.764289</ele>
        <time>2022-02-13T13:35:19.178Z</time>
      </trkpt>
      <trkpt lat="47.538645" lon="7.856005">
        <ele>581.254771</ele>
        <time>2022-02-13T13:35:32.196Z</time>
      </trkpt>
      <trkpt lat="47.538702" lon="7.856126">
        <ele>579.590934</ele>
        <time>2022-02-13T13:35:40.203Z</time>
      </trkpt>
      <trkpt lat="47.538767" lon="7.856225">
        <ele>578.028511</ele>
        <time>2022-02-13T13:35:50.169Z</time>
      </trkpt>
      <trkpt lat="47.538834" lon="7.856331">
        <ele>576.285437</ele>
        <time>2022-02-13T13:35:58.167Z</time>
      </trkpt>
      <trkpt lat="47.538914" lon="7.856425">
        <ele>574.469761</ele>
        <time>2022-02-13T13:36:10.165Z</time>
      </trkpt>
      <trkpt lat="47.538981" lon="7.856527">
        <ele>572.761425</ele>
        <time>2022-02-13T13:36:24.194Z</time>
      </trkpt>
      <trkpt lat="47.539037" lon="7.856644">
        <ele>571.039805</ele>
        <time>2022-02-13T13:36:33.154Z</time>
      </trkpt>
      <trkpt lat="47.539086" lon="7.856768">
        <ele>569.315081</ele>
        <time>2022-02-13T13:36:44.203Z</time>
      </trkpt>
      <trkpt lat="47.539142" lon="7.856886">
        <ele>567.583657</ele>
        <time>2022-02-13T13:36:55.168Z</time>
      </trkpt>
      <trkpt lat="47.539189" lon="7.857009">
        <ele>565.887082</ele>
        <time>2022-02-13T13:37:07.165Z</time>
      </trkpt>
      <trkpt lat="47.539252" lon="7.857108">
        <ele>564.253956</ele>
        <time>2022-02-13T13:37:13.161Z</time>
      </trkpt>
      <trkpt lat="47.539298" lon="7.857226">
        <ele>562.618313</ele>
        <time>2022-02-13T13:37:20.163Z</time>
      </trkpt>
      <trkpt lat="47.539355" lon="7.857330">
        <ele>561.010300</ele>
        <time>2022-02-13T13:37:28.166Z</time>
      </trkpt>
      <trkpt lat="47.539388" lon="7.857456">
        <ele>559.387994</ele>
        <time>2022-02-13T13:37:38.166Z</time>
      </trkpt>
      <trkpt lat="47.539442" lon="7.857563">
        <ele>557.784364</ele>
        <time>2022-02-13T13:37:47.184Z</time>
      </trkpt>
      <trkpt lat="47.539502" lon="7.857668">
        <ele>556.133065</ele>
        <time>2022-02-13T13:37:54.168Z</time>
      </trkpt>
      <trkpt lat="47.539540" lon="7.857815">
        <ele>554.243577</ele>
        <time>2022-02-13T13:38:02.168Z</time>
      </trkpt>
      <trkpt lat="47.539570" lon="7.857953">
        <ele>552.503296</ele>
        <time>2022-02-13T13:38:09.168Z</time>
      </trkpt>
      <trkpt lat="47.539629" lon="7.858053">
        <ele>550.909099</ele>
        <time>2022-02-13T13:38:16.173Z</time>
      </trkpt>
      <trkpt lat="47.539665" lon="7.858191">
        <ele>549.133213</ele>
        <time>2022-02-13T13:38:25.174Z</time>
      </trkpt>
      <trkpt lat="47.539737" lon="7.858300">
        <ele>547.302660</ele>
        <time>2022-02-13T13:38:33.167Z</time>
      </trkpt>
      <trkpt lat="47.539798" lon="7.858403">
        <ele>546.118953</ele>
        <time>2022-02-13T13:38:43.200Z</time>
      </trkpt>
      <trkpt lat="47.539850" lon="7.858518">
        <ele>546.076295</ele>
        <time>2022-02-13T13:38:51.183Z</time>
      </trkpt>
      <trkpt lat="47.539907" lon="7.858636">
        <ele>546.031579</ele>
        <time>2022-02-13T13:39:00.194Z</time>
      </trkpt>
      <trkpt lat="47.539965" lon="7.858758">
        <ele>545.985592</ele>
        <time>2022-02-13T13:39:08.169Z</time>
      </trkpt>
      <trkpt lat="47.540019" lon="7.858878">
        <ele>545.941147</ele>
        <time>2022-02-13T13:39:17.167Z</time>
      </trkpt>
      <trkpt lat="47.540048" lon="7.859005">
        <ele>545.899829</ele>
        <time>2022-02-13T13:39:26.166Z</time>
      </trkpt>
      <trkpt lat="47.539972" lon="7.859077">
        <ele>545.858645</ele>
        <time>2022-02-13T13:39:35.168Z</time>
      </trkpt>
      <trkpt lat="47.539879" lon="7.859053">
        <ele>545.815549</ele>
        <time>2022-02-13T13:39:44.167Z</time>
      </trkpt>
      <trkpt lat="47.539792" lon="7.858998">
        <ele>545.772366</ele>
        <time>2022-02-13T13:39:52.170Z</time>
      </trkpt>
      <trkpt lat="47.539710" lon="7.858927">
        <ele>545.729006</ele>
        <time>2022-02-13T13:40:01.173Z</time>
      </trkpt>
      <trkpt lat="47.539624" lon="7.858877">
        <ele>545.686830</ele>
        <time>2022-02-13T13:40:13.169Z</time>
      </trkpt>
      <trkpt lat="47.539550" lon="7.858784">
        <ele>545.642527</ele>
        <time>2022-02-13T13:40:21.171Z</time>
      </trkpt>
      <trkpt lat="47.539468" lon="7.858721">
        <ele>545.600357</ele>
        <time>2022-02-13T13:40:28.169Z</time>
      </trkpt>
      <trkpt lat="47.539382" lon="7.858659">
        <ele>545.556694</ele>
        <time>2022-02-13T13:40:34.168Z</time>
      </trkpt>
      <trkpt lat="47.539287" lon="7.858627">
        <ele>545.512217</ele>
        <time>2022-02-13T13:40:41.170Z</time>
      </trkpt>
      <trkpt lat="47.539203" lon="7.858542">
        <ele>545.465776</ele>
        <time>2022-02-13T13:40:49.182Z</time>
      </trkpt>
      <trkpt lat="47.539126" lon="7.858471">
        <ele>545.424370</ele>
        <time>2022-02-13T13:40:54.169Z</time>
      </trkpt>
      <trkpt lat="47.539050" lon="7.858393">
        <ele>545.382161</ele>
        <time>2022-02-13T13:41:01.166Z</time>
      </trkpt>
      <trkpt lat="47.538975" lon="7.858299">
        <ele>545.337311</ele>
        <time>2022-02-13T13:41:09.171Z</time>
      </trkpt>
      <trkpt lat="47.538889" lon="7.858252">
        <ele>545.401272</ele>
        <time>2022-02-13T13:41:15.173Z</time>
      </trkpt>
      <trkpt lat="47.538818" lon="7.858162">
        <ele>545.669403</ele>
        <time>2022-02-13T13:41:22.194Z</time>
      </trkpt>
      <trkpt lat="47.538732" lon="7.858109">
        <ele>545.936668</ele>
        <time>2022-02-13T13:41:28.214Z</time>
      </trkpt>
      <trkpt lat="47.538646" lon="7.858041">
        <ele>546.216383</ele>
        <time>2022-02-13T13:41:33.162Z</time>
      </trkpt>
      <trkpt lat="47.538565" lon="7.857980">
        <ele>546.477109</ele>
        <time>2022-02-13T13:41:38.219Z</time>
      </trkpt>
      <trkpt lat="47.538471" lon="7.857929">
        <ele>546.764347</ele>
        <time>2022-02-13T13:41:45.167Z</time>
      </trkpt>
      <trkpt lat="47.538385" lon="7.857888">
        <ele>547.023573</ele>
        <time>2022-02-13T13:41:53.236Z</time>
      </trkpt>
      <trkpt lat="47.538276" lon="7.857861">
        <ele>547.340670</ele>
        <time>2022-02-13T13:42:01.647Z</time>
      </trkpt>
      <trkpt lat="47.538185" lon="7.857845">
        <ele>547.603610</ele>
        <time>2022-02-13T13:42:09.164Z</time>
      </trkpt>
      <trkpt lat="47.538085" lon="7.857818">
        <ele>547.895268</ele>
        <time>2022-02-13T13:42:16.164Z</time>
      </trkpt>
      <trkpt lat="47.538006" lon="7.857755">
        <ele>548.152706</ele>
        <time>2022-02-13T13:42:22.206Z</time>
      </trkpt>
      <trkpt lat="47.537927" lon="7.857687">
        <ele>548.414874</ele>
        <time>2022-02-13T13:42:30.165Z</time>
      </trkpt>
      <trkpt lat="47.537832" lon="7.857656">
        <ele>548.693995</ele>
        <time>2022-02-13T13:42:38.170Z</time>
      </trkpt>
      <trkpt lat="47.537736" lon="7.857620">
        <ele>548.978138</ele>
        <time>2022-02-13T13:42:45.170Z</time>
      </trkpt>
      <trkpt lat="47.537635" lon="7.857579">
        <ele>549.278624</ele>
        <time>2022-02-13T13:42:52.167Z</time>
      </trkpt>
      <trkpt lat="47.537548" lon="7.857527">
        <ele>549.547810</ele>
        <time>2022-02-13T13:42:58.168Z</time>
      </trkpt>
      <trkpt lat="47.537458" lon="7.857488">
        <ele>549.816871</ele>
        <time>2022-02-13T13:43:05.167Z</time>
      </trkpt>
      <trkpt lat="47.537368" lon="7.857458">
        <ele>550.081567</ele>
        <time>2022-02-13T13:43:12.165Z</time>
      </trkpt>
      <trkpt lat="47.537274" lon="7.857440">
        <ele>550.353526</ele>
        <time>2022-02-13T13:43:22.168Z</time>
      </trkpt>
      <trkpt lat="47.537182" lon="7.857411">
        <ele>549.556322</ele>
        <time>2022-02-13T13:43:30.163Z</time>
      </trkpt>
      <trkpt lat="47.537088" lon="7.857399">
        <ele>547.933594</ele>
        <time>2022-02-13T13:43:39.236Z</time>
      </trkpt>
      <trkpt lat="47.536986" lon="7.857418">
        <ele>546.165448</ele>
        <time>2022-02-13T13:43:45.168Z</time>
      </trkpt>
      <trkpt lat="47.536916" lon="7.857510">
        <ele>544.555890</ele>
        <time>2022-02-13T13:43:58.168Z</time>
      </trkpt>
      <trkpt lat="47.536929" lon="7.857655">
        <ele>542.857440</ele>
        <time>2022-02-13T13:44:12.170Z</time>
      </trkpt>
      <trkpt lat="47.536982" lon="7.857782">
        <ele>541.123781</ele>
        <time>2022-02-13T13:44:22.170Z</time>
      </trkpt>
      <trkpt lat="47.537074" lon="7.857806">
        <ele>539.517093</ele>
        <time>2022-02-13T13:44:31.167Z</time>
      </trkpt>
      <trkpt lat="47.537161" lon="7.857851">
        <ele>537.932147</ele>
        <time>2022-02-13T13:44:39.173Z</time>
      </trkpt>
      <trkpt lat="47.537251" lon="7.857812">
        <ele>536.319329</ele>
        <time>2022-02-13T13:44:45.161Z</time>
      </trkpt>
      <trkpt lat="47.537351" lon="7.857804">
        <ele>534.596892</ele>
        <time>2022-02-13T13:44:53.192Z</time>
      </trkpt>
      <trkpt lat="47.537439" lon="7.857845">
        <ele>533.010247</ele>
        <time>2022-02-13T13:45:02.162Z</time>
      </trkpt>
      <trkpt lat="47.537495" lon="7.857955">
        <ele>531.410543</ele>
        <time>2022-02-13T13:45:12.172Z</time>
      </trkpt>
      <trkpt lat="47.537517" lon="7.858091">
        <ele>529.786695</ele>
        <time>2022-02-13T13:45:20.170Z</time>
      </trkpt>
      <trkpt lat="47.537564" lon="7.858209">
        <ele>528.195863</ele>
        <time>2022-02-13T13:45:30.168Z</time>
      </trkpt>
      <trkpt lat="47.537612" lon="7.858324">
        <ele>526.625957</ele>
        <time>2022-02-13T13:45:42.169Z</time>
      </trkpt>
      <trkpt lat="47.537635" lon="7.858459">
        <ele>525.009280</ele>
        <time>2022-02-13T13:45:51.167Z</time>
      </trkpt>
      <trkpt lat="47.537677" lon="7.858582">
        <ele>523.408792</ele>
        <time>2022-02-13T13:46:02.171Z</time>
      </trkpt>
      <trkpt lat="47.537713" lon="7.858705">
        <ele>521.852155</ele>
        <time>2022-02-13T13:46:09.164Z</time>
      </trkpt>
      <trkpt lat="47.537768" lon="7.858842">
        <ele>520.001389</ele>
        <time>2022-02-13T13:46:22.608Z</time>
      </trkpt>
      <trkpt lat="47.537810" lon="7.858964">
        <ele>518.571514</ele>
        <time>2022-02-13T13:46:31.308Z</time>
      </trkpt>
      <trkpt lat="47.537875" lon="7.859087">
        <ele>517.016357</ele>
        <time>2022-02-13T13:46:46.302Z</time>
      </trkpt>
      <trkpt lat="47.537931" lon="7.859199">
        <ele>515.628756</ele>
        <time>2022-02-13T13:46:56.305Z</time>
      </trkpt>
      <trkpt lat="47.537970" lon="7.859332">
        <ele>514.185088</ele>
        <time>2022-02-13T13:47:04.305Z</time>
      </trkpt>
      <trkpt lat="47.538005" lon="7.859459">
        <ele>512.819377</ele>
        <time>2022-02-13T13:47:12.302Z</time>
      </trkpt>
      <trkpt lat="47.538095" lon="7.859471">
        <ele>511.486740</ele>
        <time>2022-02-13T13:47:24.307Z</time>
      </trkpt>
      <trkpt lat="47.538179" lon="7.859524">
        <ele>510.140255</ele>
        <time>2022-02-13T13:47:42.308Z</time>
      </trkpt>
      <trkpt lat="47.538245" lon="7.859634">
        <ele>508.675077</ele>
        <time>2022-02-13T13:47:53.304Z</time>
      </trkpt>
      <trkpt lat="47.538323" lon="7.859724">
        <ele>507.216971</ele>
        <time>2022-02-13T13:48:01.305Z</time>
      </trkpt>
      <trkpt lat="47.538394" lon="7.859828">
        <ele>505.744406</ele>
        <time>2022-02-13T13:48:11.304Z</time>
      </trkpt>
      <trkpt lat="47.538440" lon="7.859957">
        <ele>504.291935</ele>
        <time>2022-02-13T13:48:17.305Z</time>
      </trkpt>
      <trkpt lat="47.538538" lon="7.860016">
        <ele>502.731875</ele>
        <time>2022-02-13T13:48:31.312Z</time>
      </trkpt>
      <trkpt lat="47.538657" lon="7.860104">
        <ele>500.770390</ele>
        <time>2022-02-13T13:48:42.030Z</time>
      </trkpt>
      <trkpt lat="47.538738" lon="7.860178">
        <ele>499.366926</ele>
        <time>2022-02-13T13:48:49.313Z</time>
      </trkpt>
      <trkpt lat="47.538808" lon="7.860262">
        <ele>498.038365</ele>
        <time>2022-02-13T13:48:57.309Z</time>
      </trkpt>
      <trkpt lat="47.538858" lon="7.860396">
        <ele>496.514061</ele>
        <time>2022-02-13T13:49:03.359Z</time>
      </trkpt>
      <trkpt lat="47.538904" lon="7.860510">
        <ele>495.191807</ele>
        <time>2022-02-13T13:49:11.304Z</time>
      </trkpt>
      <trkpt lat="47.538988" lon="7.860572">
        <ele>493.807754</ele>
        <time>2022-02-13T13:49:18.307Z</time>
      </trkpt>
      <trkpt lat="47.539040" lon="7.860689">
        <ele>492.468839</ele>
        <time>2022-02-13T13:49:27.304Z</time>
      </trkpt>
      <trkpt lat="47.539117" lon="7.860760">
        <ele>491.256047</ele>
        <time>2022-02-13T13:49:35.309Z</time>
      </trkpt>
      <trkpt lat="47.539138" lon="7.860907">
        <ele>489.899700</ele>
        <time>2022-02-13T13:49:42.499Z</time>
      </trkpt>
      <trkpt lat="47.539194" lon="7.861012">
        <ele>488.691772</ele>
        <time>2022-02-13T13:49:54.304Z</time>
      </trkpt>
      <trkpt lat="47.539218" lon="7.861155">
        <ele>487.361628</ele>
        <time>2022-02-13T13:50:01.311Z</time>
      </trkpt>
      <trkpt lat="47.539207" lon="7.861311">
        <ele>485.945766</ele>
        <time>2022-02-13T13:50:08.308Z</time>
      </trkpt>
      <trkpt lat="47.539231" lon="7.861445">
        <ele>484.694310</ele>
        <time>2022-02-13T13:50:16.310Z</time>
      </trkpt>
      <trkpt lat="47.539246" lon="7.861588">
        <ele>483.387970</ele>
        <time>2022-02-13T13:50:23.310Z</time>
      </trkpt>
      <trkpt lat="47.539289" lon="7.861719">
        <ele>482.073068</ele>
        <time>2022-02-13T13:50:30.311Z</time>
      </trkpt>
      <trkpt lat="47.539293" lon="7.861852">
        <ele>480.871297</ele>
        <time>2022-02-13T13:50:37.311Z</time>
      </trkpt>
      <trkpt lat="47.539343" lon="7.861970">
        <ele>479.613683</ele>
        <time>2022-02-13T13:50:48.311Z</time>
      </trkpt>
      <trkpt lat="47.539367" lon="7.862117">
        <ele>478.248473</ele>
        <time>2022-02-13T13:50:57.308Z</time>
      </trkpt>
      <trkpt lat="47.539397" lon="7.862247">
        <ele>477.008306</ele>
        <time>2022-02-13T13:51:05.306Z</time>
      </trkpt>
      <trkpt lat="47.539415" lon="7.862388">
        <ele>475.712956</ele>
        <time>2022-02-13T13:51:12.309Z</time>
      </trkpt>
      <trkpt lat="47.539427" lon="7.862527">
        <ele>474.447999</ele>
        <time>2022-02-13T13:51:21.318Z</time>
      </trkpt>
      <trkpt lat="47.539358" lon="7.862634">
        <ele>473.112268</ele>
        <time>2022-02-13T13:51:30.309Z</time>
      </trkpt>
      <trkpt lat="47.539290" lon="7.862743">
        <ele>471.772534</ele>
        <time>2022-02-13T13:51:37.308Z</time>
      </trkpt>
      <trkpt lat="47.539201" lon="7.862779">
        <ele>470.538895</ele>
        <time>2022-02-13T13:51:43.312Z</time>
      </trkpt>
      <trkpt lat="47.539108" lon="7.862757">
        <ele>469.279584</ele>
        <time>2022-02-13T13:51:51.308Z</time>
      </trkpt>
      <trkpt lat="47.539020" lon="7.862665">
        <ele>467.732618</ele>
        <time>2022-02-13T13:52:03.307Z</time>
      </trkpt>
      <trkpt lat="47.538934" lon="7.862612">
        <ele>466.368439</ele>
        <time>2022-02-13T13:52:11.315Z</time>
      </trkpt>
      <trkpt lat="47.538852" lon="7.862547">
        <ele>465.006358</ele>
        <time>2022-02-13T13:52:20.332Z</time>
      </trkpt>
      <trkpt lat="47.538754" lon="7.862562">
        <ele>463.563448</ele>
        <time>2022-02-13T13:52:29.312Z</time>
      </trkpt>
      <trkpt lat="47.538660" lon="7.862574">
        <ele>462.181659</ele>
        <time>2022-02-13T13:52:34.309Z</time>
      </trkpt>
      <trkpt lat="47.538556" lon="7.862593">
        <ele>460.646977</ele>
        <time>2022-02-13T13:52:40.310Z</time>
      </trkpt>
      <trkpt lat="47.538555" lon="7.862748">
        <ele>459.114399</ele>
        <time>2022-02-13T13:52:51.309Z</time>
      </trkpt>
      <trkpt lat="47.538552" lon="7.862898">
        <ele>457.630676</ele>
        <time>2022-02-13T13:53:01.343Z</time>
      </trkpt>
      <trkpt lat="47.538523" lon="7.863038">
        <ele>456.182780</ele>
        <time>2022-02-13T13:53:07.307Z</time>
      </trkpt>
      <trkpt lat="47.538547" lon="7.863170">
        <ele>454.831172</ele>
        <time>2022-02-13T13:53:15.366Z</time>
      </trkpt>
      <trkpt lat="47.538516" lon="7.863311">
        <ele>453.365017</ele>
        <time>2022-02-13T13:53:21.304Z</time>
      </trkpt>
      <trkpt lat="47.538541" lon="7.863449">
        <ele>451.952317</ele>
        <time>2022-02-13T13:53:31.303Z</time>
      </trkpt>
      <trkpt lat="47.538587" lon="7.863574">
        <ele>450.544731</ele>
        <time>2022-02-13T13:53:39.304Z</time>
      </trkpt>
      <trkpt lat="47.538601" lon="7.863711">
        <ele>449.174762</ele>
        <time>2022-02-13T13:53:46.312Z</time>
      </trkpt>
      <trkpt lat="47.538622" lon="7.863856">
        <ele>447.708507</ele>
        <time>2022-02-13T13:53:52.310Z</time>
      </trkpt>
      <trkpt lat="47.538680" lon="7.863961">
        <ele>446.367125</ele>
        <time>2022-02-13T13:53:58.305Z</time>
      </trkpt>
      <trkpt lat="47.538744" lon="7.864065">
        <ele>444.975764</ele>
        <time>2022-02-13T13:54:04.305Z</time>
      </trkpt>
      <trkpt lat="47.538784" lon="7.864187">
        <ele>443.634804</ele>
        <time>2022-02-13T13:54:12.352Z</time>
      </trkpt>
      <trkpt lat="47.538850" lon="7.864308">
        <ele>442.074213</ele>
        <time>2022-02-13T13:54:20.301Z</time>
      </trkpt>
      <trkpt lat="47.538919" lon="7.864406">
        <ele>440.613530</ele>
        <time>2022-02-13T13:54:28.347Z</time>
      </trkpt>
      <trkpt lat="47.538972" lon="7.864526">
        <ele>439.134283</ele>
        <time>2022-02-13T13:54:37.304Z</time>
      </trkpt>
      <trkpt lat="47.539040" lon="7.864616">
        <ele>437.740884</ele>
        <time>2022-02-13T13:54:44.303Z</time>
      </trkpt>
      <trkpt lat="47.539083" lon="7.864737">
        <ele>436.330331</ele>
        <time>2022-02-13T13:54:51.308Z</time>
      </trkpt>
      <trkpt lat="47.539126" lon="7.864880">
        <ele>434.715498</ele>
        <time>2022-02-13T13:54:58.308Z</time>
      </trkpt>
      <trkpt lat="47.539172" lon="7.865009">
        <ele>433.210567</ele>
        <time>2022-02-13T13:55:06.308Z</time>
      </trkpt>
      <trkpt lat="47.539209" lon="7.865139">
        <ele>431.755246</ele>
        <time>2022-02-13T13:55:14.304Z</time>
      </trkpt>
      <trkpt lat="47.539268" lon="7.865254">
        <ele>430.265271</ele>
        <time>2022-02-13T13:55:21.304Z</time>
      </trkpt>
      <trkpt lat="47.539321" lon="7.865385">
        <ele>428.689853</ele>
        <time>2022-02-13T13:55:28.305Z</time>
      </trkpt>
      <trkpt lat="47.539400" lon="7.865473">
        <ele>427.179483</ele>
        <time>2022-02-13T13:55:39.852Z</time>
      </trkpt>
      <trkpt lat="47.539465" lon="7.865576">
        <ele>425.725054</ele>
        <time>2022-02-13T13:55:46.310Z</time>
      </trkpt>
      <trkpt lat="47.539526" lon="7.865679">
        <ele>424.311659</ele>
        <time>2022-02-13T13:55:52.309Z</time>
      </trkpt>
      <trkpt lat="47.539604" lon="7.865758">
        <ele>422.867837</ele>
        <time>2022-02-13T13:55:59.303Z</time>
      </trkpt>
      <trkpt lat="47.539668" lon="7.865868">
        <ele>421.369875</ele>
        <time>2022-02-13T13:56:07.299Z</time>
      </trkpt>
      <trkpt lat="47.539737" lon="7.865970">
        <ele>419.880349</ele>
        <time>2022-02-13T13:56:15.307Z</time>
      </trkpt>
      <trkpt lat="47.539797" lon="7.866086">
        <ele>418.372914</ele>
        <time>2022-02-13T13:56:23.304Z</time>
      </trkpt>
      <trkpt lat="47.539843" lon="7.866216">
        <ele>416.858870</ele>
        <time>2022-02-13T13:56:33.307Z</time>
      </trkpt>
      <trkpt lat="47.539890" lon="7.866334">
        <ele>415.445584</ele>
        <time>2022-02-13T13:56:42.304Z</time>
      </trkpt>
      <trkpt lat="47.539937" lon="7.866447">
        <ele>414.637986</ele>
        <time>2022-02-13T13:56:52.309Z</time>
      </trkpt>
      <trkpt lat="47.539970" lon="7.866595">
        <ele>413.884304</ele>
        <time>2022-02-13T13:57:01.337Z</time>
      </trkpt>
      <trkpt lat="47.540022" lon="7.866705">
        <ele>413.234952</ele>
        <time>2022-02-13T13:57:08.309Z</time>
      </trkpt>
      <trkpt lat="47.540063" lon="7.866843">
        <ele>412.505887</ele>
        <time>2022-02-13T13:57:18.307Z</time>
      </trkpt>
      <trkpt lat="47.540099" lon="7.866973">
        <ele>411.826439</ele>
        <time>2022-02-13T13:57:23.314Z</time>
      </trkpt>
      <trkpt lat="47.540154" lon="7.867080">
        <ele>411.176127</ele>
        <time>2022-02-13T13:57:31.312Z</time>
      </trkpt>
      <trkpt lat="47.540214" lon="7.867209">
        <ele>410.418628</ele>
        <time>2022-02-13T13:57:39.309Z</time>
      </trkpt>
      <trkpt lat="47.540271" lon="7.867328">
        <ele>409.713073</ele>
        <time>2022-02-13T13:57:46.306Z</time>
      </trkpt>
      <trkpt lat="47.540313" lon="7.867459">
        <ele>409.011816</ele>
        <time>2022-02-13T13:57:54.307Z</time>
      </trkpt>
      <trkpt lat="47.540368" lon="7.867584">
        <ele>408.290328</ele>
        <time>2022-02-13T13:58:02.304Z</time>
      </trkpt>
      <trkpt lat="47.540412" lon="7.867718">
        <ele>407.569791</ele>
        <time>2022-02-13T13:58:09.313Z</time>
      </trkpt>
      <trkpt lat="47.540452" lon="7.867855">
        <ele>406.848028</ele>
        <time>2022-02-13T13:58:17.312Z</time>
      </trkpt>
      <trkpt lat="47.540491" lon="7.867984">
        <ele>406.164557</ele>
        <time>2022-02-13T13:58:25.304Z</time>
      </trkpt>
      <trkpt lat="47.540537" lon="7.868110">
        <ele>405.471900</ele>
        <time>2022-02-13T13:58:31.312Z</time>
      </trkpt>
      <trkpt lat="47.540570" lon="7.868245">
        <ele>404.777636</ele>
        <time>2022-02-13T13:58:39.306Z</time>
      </trkpt>
      <trkpt lat="47.540618" lon="7.868371">
        <ele>404.078052</ele>
        <time>2022-02-13T13:58:46.309Z</time>
      </trkpt>
      <trkpt lat="47.540654" lon="7.868511">
        <ele>403.353640</ele>
        <time>2022-02-13T13:58:54.310Z</time>
      </trkpt>
      <trkpt lat="47.540681" lon="7.868647">
        <ele>402.668172</ele>
        <time>2022-02-13T13:59:02.322Z</time>
      </trkpt>
      <trkpt lat="47.540732" lon="7.868761">
        <ele>402.000444</ele>
        <time>2022-02-13T13:59:07.320Z</time>
      </trkpt>
      <trkpt lat="47.540788" lon="7.868884">
        <ele>401.264089</ele>
        <time>2022-02-13T13:59:17.312Z</time>
      </trkpt>
      <trkpt lat="47.540820" lon="7.869038">
        <ele>400.464348</ele>
        <time>2022-02-13T13:59:25.338Z</time>
      </trkpt>
      <trkpt lat="47.540829" lon="7.869177">
        <ele>399.771282</ele>
        <time>2022-02-13T13:59:35.306Z</time>
      </trkpt>
      <trkpt lat="47.540845" lon="7.869319">
        <ele>399.056741</ele>
        <time>2022-02-13T13:59:44.313Z</time>
      </trkpt>
      <trkpt lat="47.540940" lon="7.869360">
        <ele>398.329228</ele>
        <time>2022-02-13T13:59:50.303Z</time>
      </trkpt>
      <trkpt lat="47.541021" lon="7.869436">
        <ele>397.624277</ele>
        <time>2022-02-13T13:59:57.304Z</time>
      </trkpt>
      <trkpt lat="47.541104" lon="7.869520">
        <ele>396.885211</ele>
        <time>2022-02-13T14:00:05.310Z</time>
      </trkpt>
      <trkpt lat="47.541198" lon="7.869575">
        <ele>396.142133</ele>
        <time>2022-02-13T14:00:13.317Z</time>
      </trkpt>
      <trkpt lat="47.541255" lon="7.869680">
        <ele>395.473386</ele>
        <time>2022-02-13T14:00:22.320Z</time>
      </trkpt>
      <trkpt lat="47.541340" lon="7.869756">
        <ele>394.743421</ele>
        <time>2022-02-13T14:00:29.304Z</time>
      </trkpt>
      <trkpt lat="47.541398" lon="7.869873">
        <ele>394.022962</ele>
        <time>2022-02-13T14:00:37.310Z</time>
      </trkpt>
      <trkpt lat="47.541442" lon="7.869991">
        <ele>393.353890</ele>
        <time>2022-02-13T14:00:44.311Z</time>
      </trkpt>
      <trkpt lat="47.541440" lon="7.870135">
        <ele>392.639030</ele>
        <time>2022-02-13T14:00:54.305Z</time>
      </trkpt>
      <trkpt lat="47.541471" lon="7.870275">
        <ele>391.907749</ele>
        <time>2022-02-13T14:01:03.313Z</time>
      </trkpt>
      <trkpt lat="47.541535" lon="7.870379">
        <ele>391.209281</ele>
        <time>2022-02-13T14:01:12.306Z</time>
      </trkpt>
      <trkpt lat="47.541567" lon="7.870513">
        <ele>390.503818</ele>
        <time>2022-02-13T14:01:18.301Z</time>
      </trkpt>
      <trkpt lat="47.541599" lon="7.870646">
        <ele>389.803032</ele>
        <time>2022-02-13T14:01:26.312Z</time>
      </trkpt>
      <trkpt lat="47.541674" lon="7.870750">
        <ele>389.047711</ele>
        <time>2022-02-13T14:01:34.355Z</time>
      </trkpt>
      <trkpt lat="47.541747" lon="7.870854">
        <ele>388.883424</ele>
        <time>2022-02-13T14:01:42.337Z</time>
      </trkpt>
      <trkpt lat="47.541820" lon="7.870954">
        <ele>388.739491</ele>
        <time>2022-02-13T14:01:50.314Z</time>
      </trkpt>
      <trkpt lat="47.541902" lon="7.871023">
        <ele>388.602973</ele>
        <time>2022-02-13T14:02:00.306Z</time>
      </trkpt>
      <trkpt lat="47.541936" lon="7.871149">
        <ele>388.470372</ele>
        <time>2022-02-13T14:02:08.309Z</time>
      </trkpt>
      <trkpt lat="47.541974" lon="7.871271">
        <ele>388.339074</ele>
        <time>2022-02-13T14:02:15.337Z</time>
      </trkpt>
      <trkpt lat="47.542026" lon="7.871392">
        <ele>388.198904</ele>
        <time>2022-02-13T14:02:21.317Z</time>
      </trkpt>
      <trkpt lat="47.542071" lon="7.871523">
        <ele>388.055268</ele>
        <time>2022-02-13T14:02:29.345Z</time>
      </trkpt>
      <trkpt lat="47.542109" lon="7.871653">
        <ele>387.916833</ele>
        <time>2022-02-13T14:02:37.308Z</time>
      </trkpt>
      <trkpt lat="47.542172" lon="7.871768">
        <ele>387.772105</ele>
        <time>2022-02-13T14:02:45.311Z</time>
      </trkpt>
      <trkpt lat="47.542233" lon="7.871877">
        <ele>387.633746</ele>
        <time>2022-02-13T14:02:50.304Z</time>
      </trkpt>
      <trkpt lat="47.542303" lon="7.871992">
        <ele>387.482428</ele>
        <time>2022-02-13T14:02:59.302Z</time>
      </trkpt>
      <trkpt lat="47.542345" lon="7.872123">
        <ele>387.340710</ele>
        <time>2022-02-13T14:03:09.307Z</time>
      </trkpt>
      <trkpt lat="47.542410" lon="7.872236">
        <ele>387.195634</ele>
        <time>2022-02-13T14:03:17.303Z</time>
      </trkpt>
      <trkpt lat="47.542455" lon="7.872355">
        <ele>387.062344</ele>
        <time>2022-02-13T14:03:25.303Z</time>
      </trkpt>
      <trkpt lat="47.542535" lon="7.872417">
        <ele>386.931645</ele>
        <time>2022-02-13T14:03:36.303Z</time>
      </trkpt>
      <trkpt lat="47.542592" lon="7.872531">
        <ele>386.793014</ele>
        <time>2022-02-13T14:03:42.301Z</time>
      </trkpt>
      <trkpt lat="47.542677" lon="7.872473">
        <ele>386.657541</ele>
        <time>2022-02-13T14:03:55.305Z</time>
      </trkpt>
      <trkpt lat="47.542775" lon="7.872400">
        <ele>386.498750</ele>
        <time>2022-02-13T14:04:05.714Z</time>
      </trkpt>
      <trkpt lat="47.542793" lon="7.872408">
        <ele>386.471546</ele>
        <time>2022-02-13T14:04:13.901Z</time>
      </trkpt>
      <trkpt lat="47.542869" lon="7.872327">
        <ele>386.329266</ele>
        <time>2022-02-13T14:04:50.310Z</time>
      </trkpt>
      <trkpt lat="47.542951" lon="7.872252">
        <ele>386.178810</ele>
        <time>2022-02-13T14:04:58.302Z</time>
      </trkpt>
      <trkpt lat="47.543040" lon="7.872222">
        <ele>386.036309</ele>
        <time>2022-02-13T14:05:05.307Z</time>
      </trkpt>
      <trkpt lat="47.543129" lon="7.872242">
        <ele>385.895770</ele>
        <time>2022-02-13T14:05:12.309Z</time>
      </trkpt>
      <trkpt lat="47.543221" lon="7.872230">
        <ele>385.751581</ele>
        <time>2022-02-13T14:05:19.311Z</time>
      </trkpt>
      <trkpt lat="47.543292" lon="7.872135">
        <ele>385.602213</ele>
        <time>2022-02-13T14:05:30.344Z</time>
      </trkpt>
      <trkpt lat="47.543392" lon="7.872061">
        <ele>385.427695</ele>
        <time>2022-02-13T14:05:38.305Z</time>
      </trkpt>
      <trkpt lat="47.543489" lon="7.872017">
        <ele>385.269316</ele>
        <time>2022-02-13T14:05:45.308Z</time>
      </trkpt>
      <trkpt lat="47.543579" lon="7.871962">
        <ele>385.117319</ele>
        <time>2022-02-13T14:05:52.800Z</time>
      </trkpt>
      <trkpt lat="47.543652" lon="7.871872">
        <ele>384.969044</ele>
        <time>2022-02-13T14:05:59.804Z</time>
      </trkpt>
      <trkpt lat="47.543738" lon="7.871827">
        <ele>384.826649</ele>
        <time>2022-02-13T14:06:07.835Z</time>
      </trkpt>
      <trkpt lat="47.543816" lon="7.871735">
        <ele>384.670990</ele>
        <time>2022-02-13T14:06:13.800Z</time>
      </trkpt>
      <trkpt lat="47.543960" lon="7.871634">
        <ele>384.422248</ele>
        <time>2022-02-13T14:06:28.462Z</time>
      </trkpt>
      <trkpt lat="47.544044" lon="7.871557">
        <ele>384.268029</ele>
        <time>2022-02-13T14:06:35.844Z</time>
      </trkpt>
      <trkpt lat="47.544139" lon="7.871488">
        <ele>384.102845</ele>
        <time>2022-02-13T14:06:45.799Z</time>
      </trkpt>
      <trkpt lat="47.544215" lon="7.871404">
        <ele>383.954807</ele>
        <time>2022-02-13T14:06:52.831Z</time>
      </trkpt>
      <trkpt lat="47.544309" lon="7.871356">
        <ele>383.799578</ele>
        <time>2022-02-13T14:07:00.863Z</time>
      </trkpt>
      <trkpt lat="47.544391" lon="7.871268">
        <ele>383.641496</ele>
        <time>2022-02-13T14:07:09.836Z</time>
      </trkpt>
      <trkpt lat="47.544463" lon="7.871160">
        <ele>383.821477</ele>
        <time>2022-02-13T14:07:18.833Z</time>
      </trkpt>
      <trkpt lat="47.544549" lon="7.871102">
        <ele>384.052871</ele>
        <time>2022-02-13T14:07:23.841Z</time>
      </trkpt>
      <trkpt lat="47.544621" lon="7.871007">
        <ele>384.288977</ele>
        <time>2022-02-13T14:07:31.802Z</time>
      </trkpt>
      <trkpt lat="47.544696" lon="7.870932">
        <ele>384.510564</ele>
        <time>2022-02-13T14:07:38.805Z</time>
      </trkpt>
      <trkpt lat="47.544774" lon="7.870851">
        <ele>384.743825</ele>
        <time>2022-02-13T14:07:46.801Z</time>
      </trkpt>
      <trkpt lat="47.544866" lon="7.870771">
        <ele>385.005058</ele>
        <time>2022-02-13T14:07:53.804Z</time>
      </trkpt>
      <trkpt lat="47.544939" lon="7.870689">
        <ele>385.229398</ele>
        <time>2022-02-13T14:08:00.836Z</time>
      </trkpt>
      <trkpt lat="47.545025" lon="7.870603">
        <ele>385.483484</ele>
        <time>2022-02-13T14:08:08.803Z</time>
      </trkpt>
      <trkpt lat="47.545106" lon="7.870539">
        <ele>385.708285</ele>
        <time>2022-02-13T14:08:15.833Z</time>
      </trkpt>
      <trkpt lat="47.545168" lon="7.870430">
        <ele>385.943899</ele>
        <time>2022-02-13T14:08:22.806Z</time>
      </trkpt>
      <trkpt lat="47.545245" lon="7.870333">
        <ele>386.191411</ele>
        <time>2022-02-13T14:08:30.809Z</time>
      </trkpt>
      <trkpt lat="47.545323" lon="7.870254">
        <ele>386.422789</ele>
        <time>2022-02-13T14:08:39.074Z</time>
      </trkpt>
      <trkpt lat="47.545402" lon="7.870161">
        <ele>386.669886</ele>
        <time>2022-02-13T14:08:46.804Z</time>
      </trkpt>
      <trkpt lat="47.545475" lon="7.870078">
        <ele>386.895228</ele>
        <time>2022-02-13T14:08:53.835Z</time>
      </trkpt>
      <trkpt lat="47.545549" lon="7.869997">
        <ele>387.120537</ele>
        <time>2022-02-13T14:09:00.829Z</time>
      </trkpt>
      <trkpt lat="47.545628" lon="7.869908">
        <ele>387.363575</ele>
        <time>2022-02-13T14:09:08.814Z</time>
      </trkpt>
      <trkpt lat="47.545699" lon="7.869826">
        <ele>387.584031</ele>
        <time>2022-02-13T14:09:15.839Z</time>
      </trkpt>
      <trkpt lat="47.545767" lon="7.869736">
        <ele>387.807324</ele>
        <time>2022-02-13T14:09:23.839Z</time>
      </trkpt>
      <trkpt lat="47.545829" lon="7.869631">
        <ele>388.018414</ele>
        <time>2022-02-13T14:09:30.795Z</time>
      </trkpt>
      <trkpt lat="47.545906" lon="7.869541">
        <ele>388.018414</ele>
        <time>2022-02-13T14:09:37.795Z</time>
      </trkpt>
      <trkpt lat="47.545984" lon="7.869470">
        <ele>388.018414</ele>
        <time>2022-02-13T14:09:43.805Z</time>
      </trkpt>
      <trkpt lat="47.546063" lon="7.869392">
        <ele>388.018414</ele>
        <time>2022-02-13T14:09:50.807Z</time>
      </trkpt>
      <trkpt lat="47.546159" lon="7.869328">
        <ele>388.018414</ele>
        <time>2022-02-13T14:09:59.811Z</time>
      </trkpt>
      <trkpt lat="47.546241" lon="7.869264">
        <ele>388.018414</ele>
        <time>2022-02-13T14:10:05.805Z</time>
      </trkpt>
      <trkpt lat="47.546334" lon="7.869221">
        <ele>388.018414</ele>
        <time>2022-02-13T14:10:12.823Z</time>
      </trkpt>
      <trkpt lat="47.546426" lon="7.869182">
        <ele>388.018414</ele>
        <time>2022-02-13T14:10:22.808Z</time>
      </trkpt>
      <trkpt lat="47.546525" lon="7.869136">
        <ele>388.018414</ele>
        <time>2022-02-13T14:10:29.807Z</time>
      </trkpt>
      <trkpt lat="47.546619" lon="7.869107">
        <ele>388.018414</ele>
        <time>2022-02-13T14:10:36.808Z</time>
      </trkpt>
      <trkpt lat="47.546707" lon="7.869038">
        <ele>388.018414</ele>
        <time>2022-02-13T14:10:44.844Z</time>
      </trkpt>
      <trkpt lat="47.546803" lon="7.869000">
        <ele>388.018414</ele>
        <time>2022-02-13T14:10:55.802Z</time>
      </trkpt>
      <trkpt lat="47.546902" lon="7.868973">
        <ele>388.018414</ele>
        <time>2022-02-13T14:11:10.807Z</time>
      </trkpt>
      <trkpt lat="47.546986" lon="7.868920">
        <ele>388.018414</ele>
        <time>2022-02-13T14:11:16.802Z</time>
      </trkpt>
      <trkpt lat="47.547069" lon="7.868843">
        <ele>388.018414</ele>
        <time>2022-02-13T14:11:24.800Z</time>
      </trkpt>
      <trkpt lat="47.547159" lon="7.868778">
        <ele>388.018414</ele>
        <time>2022-02-13T14:11:32.804Z</time>
      </trkpt>
      <trkpt lat="47.547249" lon="7.868710">
        <ele>388.018414</ele>
        <time>2022-02-13T14:11:39.804Z</time>
      </trkpt>
      <trkpt lat="47.547310" lon="7.868652">
        <ele>388.018414</ele>
        <time>2022-02-13T14:11:47.284Z</time>
      </trkpt>
      <trkpt lat="47.547162" lon="7.868581">
        <ele>383.663127</ele>
        <time>2022-02-19T11:53:40.047Z</time>
      </trkpt>
      <trkpt lat="47.547061" lon="7.868580">
        <ele>383.663127</ele>
        <time>2022-02-19T11:53:45.804Z</time>
      </trkpt>
      <trkpt lat="47.547004" lon="7.868697">
        <ele>383.663127</ele>
        <time>2022-02-19T11:53:50.807Z</time>
      </trkpt>
      <trkpt lat="47.546911" lon="7.868761">
        <ele>383.663127</ele>
        <time>2022-02-19T11:53:59.830Z</time>
      </trkpt>
      <trkpt lat="47.546857" lon="7.868869">
        <ele>383.663127</ele>
        <time>2022-02-19T11:54:05.809Z</time>
      </trkpt>
      <trkpt lat="47.546777" lon="7.868942">
        <ele>383.663127</ele>
        <time>2022-02-19T11:54:18.839Z</time>
      </trkpt>
      <trkpt lat="47.546694" lon="7.869009">
        <ele>383.663127</ele>
        <time>2022-02-19T11:54:26.804Z</time>
      </trkpt>
      <trkpt lat="47.546619" lon="7.869114">
        <ele>383.663127</ele>
        <time>2022-02-19T11:54:37.823Z</time>
      </trkpt>
      <trkpt lat="47.546529" lon="7.869144">
        <ele>383.663127</ele>
        <time>2022-02-19T11:54:42.806Z</time>
      </trkpt>
      <trkpt lat="47.546442" lon="7.869197">
        <ele>383.663127</ele>
        <time>2022-02-19T11:54:46.838Z</time>
      </trkpt>
      <trkpt lat="47.546352" lon="7.869264">
        <ele>383.738922</ele>
        <time>2022-02-19T11:54:52.801Z</time>
      </trkpt>
      <trkpt lat="47.546256" lon="7.869304">
        <ele>383.845309</ele>
        <time>2022-02-19T11:54:58.816Z</time>
      </trkpt>
      <trkpt lat="47.546159" lon="7.869316">
        <ele>383.949149</ele>
        <time>2022-02-19T11:55:06.804Z</time>
      </trkpt>
      <trkpt lat="47.546078" lon="7.869391">
        <ele>384.051049</ele>
        <time>2022-02-19T11:55:16.805Z</time>
      </trkpt>
      <trkpt lat="47.546003" lon="7.869492">
        <ele>384.159175</ele>
        <time>2022-02-19T11:55:23.809Z</time>
      </trkpt>
      <trkpt lat="47.545928" lon="7.869594">
        <ele>384.267787</ele>
        <time>2022-02-19T11:55:30.798Z</time>
      </trkpt>
      <trkpt lat="47.545839" lon="7.869639">
        <ele>384.368110</ele>
        <time>2022-02-19T11:55:35.803Z</time>
      </trkpt>
      <trkpt lat="47.545758" lon="7.869728">
        <ele>384.475693</ele>
        <time>2022-02-19T11:55:41.811Z</time>
      </trkpt>
      <trkpt lat="47.545686" lon="7.869823">
        <ele>384.578550</ele>
        <time>2022-02-19T11:55:48.806Z</time>
      </trkpt>
      <trkpt lat="47.545610" lon="7.869905">
        <ele>384.678851</ele>
        <time>2022-02-19T11:55:57.808Z</time>
      </trkpt>
      <trkpt lat="47.545542" lon="7.869994">
        <ele>384.775648</ele>
        <time>2022-02-19T11:56:03.893Z</time>
      </trkpt>
      <trkpt lat="47.545505" lon="7.870118">
        <ele>384.873276</ele>
        <time>2022-02-19T11:56:12.803Z</time>
      </trkpt>
      <trkpt lat="47.545458" lon="7.870244">
        <ele>384.976940</ele>
        <time>2022-02-19T11:56:18.811Z</time>
      </trkpt>
      <trkpt lat="47.545348" lon="7.870284">
        <ele>385.097772</ele>
        <time>2022-02-19T11:56:25.808Z</time>
      </trkpt>
      <trkpt lat="47.545247" lon="7.870354">
        <ele>385.216728</ele>
        <time>2022-02-19T11:56:29.809Z</time>
      </trkpt>
      <trkpt lat="47.545174" lon="7.870466">
        <ele>385.328841</ele>
        <time>2022-02-19T11:56:40.804Z</time>
      </trkpt>
      <trkpt lat="47.545120" lon="7.870584">
        <ele>385.431500</ele>
        <time>2022-02-19T11:56:50.824Z</time>
      </trkpt>
      <trkpt lat="47.545027" lon="7.870639">
        <ele>385.538326</ele>
        <time>2022-02-19T11:57:00.841Z</time>
      </trkpt>
      <trkpt lat="47.544937" lon="7.870693">
        <ele>385.596524</ele>
        <time>2022-02-19T11:57:04.806Z</time>
      </trkpt>
      <trkpt lat="47.544838" lon="7.870767">
        <ele>385.625307</ele>
        <time>2022-02-19T11:57:09.803Z</time>
      </trkpt>
      <trkpt lat="47.544762" lon="7.870852">
        <ele>385.650024</ele>
        <time>2022-02-19T11:57:15.806Z</time>
      </trkpt>
      <trkpt lat="47.544698" lon="7.870969">
        <ele>385.676410</ele>
        <time>2022-02-19T11:57:21.834Z</time>
      </trkpt>
      <trkpt lat="47.544612" lon="7.871053">
        <ele>385.703148</ele>
        <time>2022-02-19T11:57:27.809Z</time>
      </trkpt>
      <trkpt lat="47.544550" lon="7.871149">
        <ele>385.726427</ele>
        <time>2022-02-19T11:57:33.831Z</time>
      </trkpt>
      <trkpt lat="47.544477" lon="7.871233">
        <ele>385.750420</ele>
        <time>2022-02-19T11:57:47.799Z</time>
      </trkpt>
      <trkpt lat="47.544388" lon="7.871340">
        <ele>385.780171</ele>
        <time>2022-02-19T11:57:56.809Z</time>
      </trkpt>
      <trkpt lat="47.544305" lon="7.871407">
        <ele>385.804706</ele>
        <time>2022-02-19T11:57:59.806Z</time>
      </trkpt>
      <trkpt lat="47.544221" lon="7.871472">
        <ele>385.829305</ele>
        <time>2022-02-19T11:58:03.805Z</time>
      </trkpt>
      <trkpt lat="47.544122" lon="7.871532">
        <ele>385.857069</ele>
        <time>2022-02-19T11:58:13.812Z</time>
      </trkpt>
      <trkpt lat="47.544034" lon="7.871573">
        <ele>385.881014</ele>
        <time>2022-02-19T11:58:17.802Z</time>
      </trkpt>
      <trkpt lat="47.543979" lon="7.871698">
        <ele>385.907158</ele>
        <time>2022-02-19T11:58:29.804Z</time>
      </trkpt>
      <trkpt lat="47.543896" lon="7.871786">
        <ele>385.933651</ele>
        <time>2022-02-19T11:58:33.795Z</time>
      </trkpt>
      <trkpt lat="47.543801" lon="7.871833">
        <ele>385.959649</ele>
        <time>2022-02-19T11:58:39.799Z</time>
      </trkpt>
      <trkpt lat="47.543721" lon="7.871912">
        <ele>385.984605</ele>
        <time>2022-02-19T11:58:47.801Z</time>
      </trkpt>
      <trkpt lat="47.543637" lon="7.871971">
        <ele>386.008735</ele>
        <time>2022-02-19T11:58:56.808Z</time>
      </trkpt>
      <trkpt lat="47.543538" lon="7.871983">
        <ele>386.034518</ele>
        <time>2022-02-19T11:59:06.805Z</time>
      </trkpt>
      <trkpt lat="47.543437" lon="7.872018">
        <ele>386.868318</ele>
        <time>2022-02-19T11:59:15.817Z</time>
      </trkpt>
      <trkpt lat="47.543374" lon="7.872128">
        <ele>388.506462</ele>
        <time>2022-02-19T11:59:19.798Z</time>
      </trkpt>
      <trkpt lat="47.543302" lon="7.872237">
        <ele>390.238258</ele>
        <time>2022-02-19T11:59:25.809Z</time>
      </trkpt>
      <trkpt lat="47.543207" lon="7.872298">
        <ele>391.980055</ele>
        <time>2022-02-19T11:59:31.793Z</time>
      </trkpt>
      <trkpt lat="47.543110" lon="7.872287">
        <ele>393.616606</ele>
        <time>2022-02-19T11:59:41.344Z</time>
      </trkpt>
      <trkpt lat="47.543020" lon="7.872276">
        <ele>395.135770</ele>
        <time>2022-02-19T11:59:46.304Z</time>
      </trkpt>
      <trkpt lat="47.542963" lon="7.872411">
        <ele>396.943980</ele>
        <time>2022-02-19T11:59:54.300Z</time>
      </trkpt>
      <trkpt lat="47.542901" lon="7.872511">
        <ele>398.485852</ele>
        <time>2022-02-19T12:00:10.306Z</time>
      </trkpt>
      <trkpt lat="47.542909" lon="7.872650">
        <ele>400.070032</ele>
        <time>2022-02-19T12:00:34.313Z</time>
      </trkpt>
      <trkpt lat="47.542930" lon="7.872789">
        <ele>401.687536</ele>
        <time>2022-02-19T12:00:49.313Z</time>
      </trkpt>
      <trkpt lat="47.542954" lon="7.872923">
        <ele>403.261860</ele>
        <time>2022-02-19T12:01:01.311Z</time>
      </trkpt>
      <trkpt lat="47.542971" lon="7.873055">
        <ele>404.787858</ele>
        <time>2022-02-19T12:01:16.313Z</time>
      </trkpt>
      <trkpt lat="47.543023" lon="7.873175">
        <ele>406.407163</ele>
        <time>2022-02-19T12:01:27.311Z</time>
      </trkpt>
      <trkpt lat="47.543091" lon="7.873269">
        <ele>407.971770</ele>
        <time>2022-02-19T12:01:44.051Z</time>
      </trkpt>
      <trkpt lat="47.543154" lon="7.873376">
        <ele>409.584093</ele>
        <time>2022-02-19T12:01:53.308Z</time>
      </trkpt>
      <trkpt lat="47.543231" lon="7.873444">
        <ele>411.092121</ele>
        <time>2022-02-19T12:02:03.312Z</time>
      </trkpt>
      <trkpt lat="47.543268" lon="7.873577">
        <ele>412.725662</ele>
        <time>2022-02-19T12:02:16.298Z</time>
      </trkpt>
      <trkpt lat="47.543363" lon="7.873623">
        <ele>414.406997</ele>
        <time>2022-02-19T12:02:24.306Z</time>
      </trkpt>
      <trkpt lat="47.543446" lon="7.873688">
        <ele>415.986354</ele>
        <time>2022-02-19T12:02:35.308Z</time>
      </trkpt>
      <trkpt lat="47.543532" lon="7.873750">
        <ele>417.643611</ele>
        <time>2022-02-19T12:02:44.309Z</time>
      </trkpt>
      <trkpt lat="47.543612" lon="7.873809">
        <ele>419.203300</ele>
        <time>2022-02-19T12:02:55.304Z</time>
      </trkpt>
      <trkpt lat="47.543642" lon="7.873949">
        <ele>420.933785</ele>
        <time>2022-02-19T12:03:07.322Z</time>
      </trkpt>
      <trkpt lat="47.543722" lon="7.874036">
        <ele>422.665845</ele>
        <time>2022-02-19T12:03:15.300Z</time>
      </trkpt>
      <trkpt lat="47.543769" lon="7.874152">
        <ele>424.259747</ele>
        <time>2022-02-19T12:03:26.314Z</time>
      </trkpt>
      <trkpt lat="47.543840" lon="7.874255">
        <ele>425.994108</ele>
        <time>2022-02-19T12:03:33.313Z</time>
      </trkpt>
      <trkpt lat="47.543885" lon="7.874371">
        <ele>427.570328</ele>
        <time>2022-02-19T12:03:42.338Z</time>
      </trkpt>
      <trkpt lat="47.543939" lon="7.874489">
        <ele>429.249859</ele>
        <time>2022-02-19T12:03:51.346Z</time>
      </trkpt>
      <trkpt lat="47.544003" lon="7.874597">
        <ele>430.942956</ele>
        <time>2022-02-19T12:04:01.313Z</time>
      </trkpt>
      <trkpt lat="47.544072" lon="7.874694">
        <ele>432.603122</ele>
        <time>2022-02-19T12:04:11.344Z</time>
      </trkpt>
      <trkpt lat="47.544152" lon="7.874780">
        <ele>434.328232</ele>
        <time>2022-02-19T12:04:18.311Z</time>
      </trkpt>
      <trkpt lat="47.544208" lon="7.874890">
        <ele>435.951394</ele>
        <time>2022-02-19T12:04:26.335Z</time>
      </trkpt>
      <trkpt lat="47.544289" lon="7.874988">
        <ele>437.776633</ele>
        <time>2022-02-19T12:04:32.308Z</time>
      </trkpt>
      <trkpt lat="47.544371" lon="7.875062">
        <ele>439.452402</ele>
        <time>2022-02-19T12:04:40.308Z</time>
      </trkpt>
      <trkpt lat="47.544450" lon="7.875150">
        <ele>441.177469</ele>
        <time>2022-02-19T12:04:48.301Z</time>
      </trkpt>
      <trkpt lat="47.544493" lon="7.875285">
        <ele>442.936082</ele>
        <time>2022-02-19T12:04:55.309Z</time>
      </trkpt>
      <trkpt lat="47.544504" lon="7.875418">
        <ele>444.514678</ele>
        <time>2022-02-19T12:05:14.303Z</time>
      </trkpt>
      <trkpt lat="47.544533" lon="7.875546">
        <ele>446.105325</ele>
        <time>2022-02-19T12:05:32.309Z</time>
      </trkpt>
      <trkpt lat="47.544564" lon="7.875672">
        <ele>447.685261</ele>
        <time>2022-02-19T12:05:40.306Z</time>
      </trkpt>
      <trkpt lat="47.544560" lon="7.875809">
        <ele>448.925065</ele>
        <time>2022-02-19T12:05:55.315Z</time>
      </trkpt>
      <trkpt lat="47.544600" lon="7.875930">
        <ele>450.140266</ele>
        <time>2022-02-19T12:06:07.310Z</time>
      </trkpt>
      <trkpt lat="47.544656" lon="7.876038">
        <ele>451.368585</ele>
        <time>2022-02-19T12:06:18.307Z</time>
      </trkpt>
      <trkpt lat="47.544654" lon="7.876175">
        <ele>452.604538</ele>
        <time>2022-02-19T12:06:35.312Z</time>
      </trkpt>
      <trkpt lat="47.544687" lon="7.876308">
        <ele>453.882596</ele>
        <time>2022-02-19T12:06:49.335Z</time>
      </trkpt>
      <trkpt lat="47.544749" lon="7.876414">
        <ele>455.147647</ele>
        <time>2022-02-19T12:07:13.495Z</time>
      </trkpt>
      <trkpt lat="47.544780" lon="7.876544">
        <ele>456.391186</ele>
        <time>2022-02-19T12:07:31.318Z</time>
      </trkpt>
      <trkpt lat="47.544697" lon="7.876458">
        <ele>457.744559</ele>
        <time>2022-02-19T12:07:46.305Z</time>
      </trkpt>
      <trkpt lat="47.544603" lon="7.876424">
        <ele>459.037465</ele>
        <time>2022-02-19T12:07:50.321Z</time>
      </trkpt>
      <trkpt lat="47.544507" lon="7.876368">
        <ele>460.416061</ele>
        <time>2022-02-19T12:07:58.307Z</time>
      </trkpt>
      <trkpt lat="47.544433" lon="7.876271">
        <ele>461.736329</ele>
        <time>2022-02-19T12:08:09.310Z</time>
      </trkpt>
      <trkpt lat="47.544351" lon="7.876184">
        <ele>463.084008</ele>
        <time>2022-02-19T12:08:20.301Z</time>
      </trkpt>
      <trkpt lat="47.544258" lon="7.876135">
        <ele>464.402911</ele>
        <time>2022-02-19T12:08:32.314Z</time>
      </trkpt>
      <trkpt lat="47.544174" lon="7.876074">
        <ele>465.652902</ele>
        <time>2022-02-19T12:08:37.327Z</time>
      </trkpt>
      <trkpt lat="47.544086" lon="7.876007">
        <ele>466.974943</ele>
        <time>2022-02-19T12:08:45.318Z</time>
      </trkpt>
      <trkpt lat="47.543991" lon="7.875944">
        <ele>468.365697</ele>
        <time>2022-02-19T12:08:52.322Z</time>
      </trkpt>
      <trkpt lat="47.543894" lon="7.875909">
        <ele>469.699686</ele>
        <time>2022-02-19T12:08:59.318Z</time>
      </trkpt>
      <trkpt lat="47.543802" lon="7.875877">
        <ele>470.962403</ele>
        <time>2022-02-19T12:09:07.311Z</time>
      </trkpt>
      <trkpt lat="47.543708" lon="7.875848">
        <ele>471.970417</ele>
        <time>2022-02-19T12:09:13.309Z</time>
      </trkpt>
      <trkpt lat="47.543618" lon="7.875835">
        <ele>472.532630</ele>
        <time>2022-02-19T12:09:19.315Z</time>
      </trkpt>
      <trkpt lat="47.543518" lon="7.875852">
        <ele>473.158444</ele>
        <time>2022-02-19T12:09:25.315Z</time>
      </trkpt>
      <trkpt lat="47.543466" lon="7.875967">
        <ele>473.739363</ele>
        <time>2022-02-19T12:09:31.322Z</time>
      </trkpt>
      <trkpt lat="47.543488" lon="7.876122">
        <ele>474.404106</ele>
        <time>2022-02-19T12:09:39.343Z</time>
      </trkpt>
      <trkpt lat="47.543536" lon="7.876250">
        <ele>475.018636</ele>
        <time>2022-02-19T12:09:45.315Z</time>
      </trkpt>
      <trkpt lat="47.543631" lon="7.876358">
        <ele>475.763156</ele>
        <time>2022-02-19T12:09:54.301Z</time>
      </trkpt>
      <trkpt lat="47.543736" lon="7.876397">
        <ele>476.436182</ele>
        <time>2022-02-19T12:10:01.311Z</time>
      </trkpt>
      <trkpt lat="47.543834" lon="7.876465">
        <ele>477.109005</ele>
        <time>2022-02-19T12:10:07.312Z</time>
      </trkpt>
      <trkpt lat="47.543925" lon="7.876500">
        <ele>477.693539</ele>
        <time>2022-02-19T12:10:15.313Z</time>
      </trkpt>
      <trkpt lat="47.544026" lon="7.876496">
        <ele>478.321714</ele>
        <time>2022-02-19T12:10:26.316Z</time>
      </trkpt>
      <trkpt lat="47.544113" lon="7.876549">
        <ele>478.906571</ele>
        <time>2022-02-19T12:10:34.310Z</time>
      </trkpt>
      <trkpt lat="47.544191" lon="7.876651">
        <ele>479.553432</ele>
        <time>2022-02-19T12:10:39.317Z</time>
      </trkpt>
      <trkpt lat="47.544215" lon="7.876794">
        <ele>480.171850</ele>
        <time>2022-02-19T12:10:44.565Z</time>
      </trkpt>
      <trkpt lat="47.544119" lon="7.876820">
        <ele>480.778607</ele>
        <time>2022-02-19T12:10:52.538Z</time>
      </trkpt>
      <trkpt lat="47.544026" lon="7.876791">
        <ele>481.369489</ele>
        <time>2022-02-19T12:10:58.530Z</time>
      </trkpt>
      <trkpt lat="47.543918" lon="7.876784">
        <ele>482.041603</ele>
        <time>2022-02-19T12:11:07.579Z</time>
      </trkpt>
      <trkpt lat="47.543813" lon="7.876768">
        <ele>482.697867</ele>
        <time>2022-02-19T12:11:15.560Z</time>
      </trkpt>
      <trkpt lat="47.543720" lon="7.876766">
        <ele>483.112362</ele>
        <time>2022-02-19T12:11:23.527Z</time>
      </trkpt>
      <trkpt lat="47.543630" lon="7.876774">
        <ele>483.419471</ele>
        <time>2022-02-19T12:11:31.536Z</time>
      </trkpt>
      <trkpt lat="47.543532" lon="7.876783">
        <ele>483.753920</ele>
        <time>2022-02-19T12:11:36.517Z</time>
      </trkpt>
      <trkpt lat="47.543442" lon="7.876849">
        <ele>484.095982</ele>
        <time>2022-02-19T12:11:44.531Z</time>
      </trkpt>
      <trkpt lat="47.543352" lon="7.876920">
        <ele>484.443298</ele>
        <time>2022-02-19T12:11:55.616Z</time>
      </trkpt>
      <trkpt lat="47.543269" lon="7.876972">
        <ele>484.750256</ele>
        <time>2022-02-19T12:12:02.556Z</time>
      </trkpt>
      <trkpt lat="47.543198" lon="7.877055">
        <ele>485.058326</ele>
        <time>2022-02-19T12:12:08.560Z</time>
      </trkpt>
      <trkpt lat="47.543108" lon="7.877142">
        <ele>485.424377</ele>
        <time>2022-02-19T12:12:16.539Z</time>
      </trkpt>
      <trkpt lat="47.543031" lon="7.877232">
        <ele>485.758462</ele>
        <time>2022-02-19T12:12:22.525Z</time>
      </trkpt>
      <trkpt lat="47.542942" lon="7.877308">
        <ele>486.108373</ele>
        <time>2022-02-19T12:12:29.518Z</time>
      </trkpt>
      <trkpt lat="47.542867" lon="7.877391">
        <ele>486.427252</ele>
        <time>2022-02-19T12:12:35.531Z</time>
      </trkpt>
      <trkpt lat="47.542795" lon="7.877472">
        <ele>486.735201</ele>
        <time>2022-02-19T12:12:44.533Z</time>
      </trkpt>
      <trkpt lat="47.542698" lon="7.877542">
        <ele>487.102721</ele>
        <time>2022-02-19T12:12:50.532Z</time>
      </trkpt>
      <trkpt lat="47.542612" lon="7.877609">
        <ele>487.433693</ele>
        <time>2022-02-19T12:12:56.532Z</time>
      </trkpt>
      <trkpt lat="47.542528" lon="7.877680">
        <ele>487.763112</ele>
        <time>2022-02-19T12:13:02.563Z</time>
      </trkpt>
      <trkpt lat="47.542457" lon="7.877775">
        <ele>488.088997</ele>
        <time>2022-02-19T12:13:13.567Z</time>
      </trkpt>
      <trkpt lat="47.542370" lon="7.877834">
        <ele>488.414913</ele>
        <time>2022-02-19T12:13:17.521Z</time>
      </trkpt>
      <trkpt lat="47.542292" lon="7.877904">
        <ele>488.725547</ele>
        <time>2022-02-19T12:13:25.533Z</time>
      </trkpt>
      <trkpt lat="47.542188" lon="7.877970">
        <ele>489.063538</ele>
        <time>2022-02-19T12:13:31.532Z</time>
      </trkpt>
      <trkpt lat="47.542107" lon="7.878057">
        <ele>489.175168</ele>
        <time>2022-02-19T12:13:38.042Z</time>
      </trkpt>
      <trkpt lat="47.542034" lon="7.878145">
        <ele>489.280176</ele>
        <time>2022-02-19T12:13:45.107Z</time>
      </trkpt>
      <trkpt lat="47.541955" lon="7.878228">
        <ele>489.388236</ele>
        <time>2022-02-19T12:13:54.517Z</time>
      </trkpt>
      <trkpt lat="47.541891" lon="7.878336">
        <ele>489.496474</ele>
        <time>2022-02-19T12:14:01.517Z</time>
      </trkpt>
      <trkpt lat="47.541816" lon="7.878434">
        <ele>489.608055</ele>
        <time>2022-02-19T12:14:10.565Z</time>
      </trkpt>
      <trkpt lat="47.541744" lon="7.878534">
        <ele>489.718173</ele>
        <time>2022-02-19T12:14:17.563Z</time>
      </trkpt>
      <trkpt lat="47.541683" lon="7.878648">
        <ele>489.827738</ele>
        <time>2022-02-19T12:14:25.564Z</time>
      </trkpt>
      <trkpt lat="47.541637" lon="7.878767">
        <ele>489.931020</ele>
        <time>2022-02-19T12:14:30.606Z</time>
      </trkpt>
      <trkpt lat="47.541571" lon="7.878880">
        <ele>490.043564</ele>
        <time>2022-02-19T12:14:36.581Z</time>
      </trkpt>
      <trkpt lat="47.541502" lon="7.878990">
        <ele>490.156660</ele>
        <time>2022-02-19T12:14:44.563Z</time>
      </trkpt>
      <trkpt lat="47.541433" lon="7.879087">
        <ele>490.262793</ele>
        <time>2022-02-19T12:14:53.534Z</time>
      </trkpt>
      <trkpt lat="47.541389" lon="7.879208">
        <ele>490.366309</ele>
        <time>2022-02-19T12:14:59.526Z</time>
      </trkpt>
      <trkpt lat="47.541331" lon="7.879321">
        <ele>490.473227</ele>
        <time>2022-02-19T12:15:08.538Z</time>
      </trkpt>
      <trkpt lat="47.541250" lon="7.879397">
        <ele>490.580203</ele>
        <time>2022-02-19T12:15:15.542Z</time>
      </trkpt>
      <trkpt lat="47.541189" lon="7.879505">
        <ele>490.686264</ele>
        <time>2022-02-19T12:15:25.564Z</time>
      </trkpt>
      <trkpt lat="47.541137" lon="7.879620">
        <ele>490.790516</ele>
        <time>2022-02-19T12:15:52.540Z</time>
      </trkpt>
      <trkpt lat="47.541081" lon="7.879725">
        <ele>490.891304</ele>
        <time>2022-02-19T12:15:59.528Z</time>
      </trkpt>
      <trkpt lat="47.541023" lon="7.879841">
        <ele>491.000029</ele>
        <time>2022-02-19T12:16:05.533Z</time>
      </trkpt>
      <trkpt lat="47.540959" lon="7.879944">
        <ele>491.090946</ele>
        <time>2022-02-19T12:16:12.562Z</time>
      </trkpt>
      <trkpt lat="47.540912" lon="7.880068">
        <ele>491.171341</ele>
        <time>2022-02-19T12:16:20.560Z</time>
      </trkpt>
      <trkpt lat="47.540871" lon="7.880191">
        <ele>491.248891</ele>
        <time>2022-02-19T12:16:28.520Z</time>
      </trkpt>
      <trkpt lat="47.540842" lon="7.880321">
        <ele>491.326293</ele>
        <time>2022-02-19T12:16:32.545Z</time>
      </trkpt>
      <trkpt lat="47.540775" lon="7.880416">
        <ele>491.403962</ele>
        <time>2022-02-19T12:16:41.532Z</time>
      </trkpt>
      <trkpt lat="47.540714" lon="7.880523">
        <ele>491.483137</ele>
        <time>2022-02-19T12:16:47.528Z</time>
      </trkpt>
      <trkpt lat="47.540628" lon="7.880599">
        <ele>491.566999</ele>
        <time>2022-02-19T12:16:54.559Z</time>
      </trkpt>
      <trkpt lat="47.540540" lon="7.880672">
        <ele>491.651463</ele>
        <time>2022-02-19T12:17:02.530Z</time>
      </trkpt>
      <trkpt lat="47.540471" lon="7.880768">
        <ele>491.730737</ele>
        <time>2022-02-19T12:17:13.526Z</time>
      </trkpt>
      <trkpt lat="47.540419" lon="7.880894">
        <ele>491.814225</ele>
        <time>2022-02-19T12:17:21.530Z</time>
      </trkpt>
      <trkpt lat="47.540396" lon="7.881038">
        <ele>491.897881</ele>
        <time>2022-02-19T12:17:29.571Z</time>
      </trkpt>
      <trkpt lat="47.540331" lon="7.881135">
        <ele>491.975148</ele>
        <time>2022-02-19T12:17:36.525Z</time>
      </trkpt>
      <trkpt lat="47.540280" lon="7.881258">
        <ele>492.056753</ele>
        <time>2022-02-19T12:17:43.532Z</time>
      </trkpt>
      <trkpt lat="47.540214" lon="7.881395">
        <ele>492.151903</ele>
        <time>2022-02-19T12:17:49.556Z</time>
      </trkpt>
      <trkpt lat="47.540147" lon="7.881486">
        <ele>492.228026</ele>
        <time>2022-02-19T12:17:55.239Z</time>
      </trkpt>
      <trkpt lat="47.540062" lon="7.881566">
        <ele>492.312362</ele>
        <time>2022-02-19T12:18:04.520Z</time>
      </trkpt>
      <trkpt lat="47.539999" lon="7.881693">
        <ele>492.401459</ele>
        <time>2022-02-19T12:18:09.530Z</time>
      </trkpt>
      <trkpt lat="47.539921" lon="7.881799">
        <ele>492.490104</ele>
        <time>2022-02-19T12:18:16.530Z</time>
      </trkpt>
      <trkpt lat="47.539847" lon="7.881894">
        <ele>492.411731</ele>
        <time>2022-02-19T12:18:22.522Z</time>
      </trkpt>
      <trkpt lat="47.539768" lon="7.881995">
        <ele>491.745549</ele>
        <time>2022-02-19T12:18:29.525Z</time>
      </trkpt>
      <trkpt lat="47.539713" lon="7.882119">
        <ele>491.106136</ele>
        <time>2022-02-19T12:18:37.524Z</time>
      </trkpt>
      <trkpt lat="47.539650" lon="7.882222">
        <ele>490.507149</ele>
        <time>2022-02-19T12:18:44.528Z</time>
      </trkpt>
      <trkpt lat="47.539566" lon="7.882298">
        <ele>489.878795</ele>
        <time>2022-02-19T12:18:52.538Z</time>
      </trkpt>
      <trkpt lat="47.539495" lon="7.882382">
        <ele>489.298721</ele>
        <time>2022-02-19T12:18:59.528Z</time>
      </trkpt>
      <trkpt lat="47.539428" lon="7.882483">
        <ele>488.688475</ele>
        <time>2022-02-19T12:19:05.531Z</time>
      </trkpt>
      <trkpt lat="47.539356" lon="7.882596">
        <ele>488.018833</ele>
        <time>2022-02-19T12:19:12.562Z</time>
      </trkpt>
      <trkpt lat="47.539284" lon="7.882679">
        <ele>487.436414</ele>
        <time>2022-02-19T12:19:19.532Z</time>
      </trkpt>
      <trkpt lat="47.539229" lon="7.882800">
        <ele>486.807762</ele>
        <time>2022-02-19T12:19:24.980Z</time>
      </trkpt>
      <trkpt lat="47.539176" lon="7.882910">
        <ele>486.225347</ele>
        <time>2022-02-19T12:19:36.200Z</time>
      </trkpt>
      <trkpt lat="47.539112" lon="7.883026">
        <ele>485.579714</ele>
        <time>2022-02-19T12:19:43.016Z</time>
      </trkpt>
      <trkpt lat="47.539040" lon="7.883139">
        <ele>484.910071</ele>
        <time>2022-02-19T12:19:49.976Z</time>
      </trkpt>
      <trkpt lat="47.538966" lon="7.883248">
        <ele>484.243865</ele>
        <time>2022-02-19T12:19:57.984Z</time>
      </trkpt>
      <trkpt lat="47.538883" lon="7.883304">
        <ele>483.661633</ele>
        <time>2022-02-19T12:20:03.007Z</time>
      </trkpt>
      <trkpt lat="47.538789" lon="7.883354">
        <ele>483.024038</ele>
        <time>2022-02-19T12:20:08.011Z</time>
      </trkpt>
      <trkpt lat="47.538729" lon="7.883459">
        <ele>482.431180</ele>
        <time>2022-02-19T12:20:14.986Z</time>
      </trkpt>
      <trkpt lat="47.538658" lon="7.883570">
        <ele>481.772183</ele>
        <time>2022-02-19T12:20:24.004Z</time>
      </trkpt>
      <trkpt lat="47.538552" lon="7.883713">
        <ele>481.140283</ele>
        <time>2022-02-19T12:20:32.092Z</time>
      </trkpt>
      <trkpt lat="47.538469" lon="7.883786">
        <ele>481.338583</ele>
        <time>2022-02-19T12:20:41.984Z</time>
      </trkpt>
      <trkpt lat="47.538413" lon="7.883905">
        <ele>481.539760</ele>
        <time>2022-02-19T12:20:49.072Z</time>
      </trkpt>
      <trkpt lat="47.538282" lon="7.884039">
        <ele>481.866808</ele>
        <time>2022-02-19T12:21:28.984Z</time>
      </trkpt>
      <trkpt lat="47.538213" lon="7.884139">
        <ele>482.065117</ele>
        <time>2022-02-19T12:21:36.012Z</time>
      </trkpt>
      <trkpt lat="47.538144" lon="7.884229">
        <ele>482.253988</ele>
        <time>2022-02-19T12:21:43.016Z</time>
      </trkpt>
      <trkpt lat="47.538057" lon="7.884292">
        <ele>482.452928</ele>
        <time>2022-02-19T12:21:49.970Z</time>
      </trkpt>
      <trkpt lat="47.537971" lon="7.884358">
        <ele>482.651904</ele>
        <time>2022-02-19T12:21:53.989Z</time>
      </trkpt>
      <trkpt lat="47.537879" lon="7.884414">
        <ele>482.856238</ele>
        <time>2022-02-19T12:21:59.012Z</time>
      </trkpt>
      <trkpt lat="47.537811" lon="7.884502">
        <ele>483.041736</ele>
        <time>2022-02-19T12:22:04.978Z</time>
      </trkpt>
      <trkpt lat="47.537725" lon="7.884556">
        <ele>483.233626</ele>
        <time>2022-02-19T12:22:16.378Z</time>
      </trkpt>
      <trkpt lat="47.537629" lon="7.884610">
        <ele>483.444582</ele>
        <time>2022-02-19T12:22:20.990Z</time>
      </trkpt>
      <trkpt lat="47.537528" lon="7.884661">
        <ele>483.663794</ele>
        <time>2022-02-19T12:22:25.975Z</time>
      </trkpt>
      <trkpt lat="47.537455" lon="7.884742">
        <ele>483.851169</ele>
        <time>2022-02-19T12:22:31.980Z</time>
      </trkpt>
      <trkpt lat="47.537394" lon="7.884852">
        <ele>484.048597</ele>
        <time>2022-02-19T12:22:41.985Z</time>
      </trkpt>
      <trkpt lat="47.537318" lon="7.884927">
        <ele>484.236202</ele>
        <time>2022-02-19T12:22:49.008Z</time>
      </trkpt>
      <trkpt lat="47.537233" lon="7.884978">
        <ele>484.424601</ele>
        <time>2022-02-19T12:22:57.974Z</time>
      </trkpt>
      <trkpt lat="47.537150" lon="7.885054">
        <ele>484.625059</ele>
        <time>2022-02-19T12:23:05.979Z</time>
      </trkpt>
      <trkpt lat="47.537110" lon="7.885182">
        <ele>484.747692</ele>
        <time>2022-02-19T12:23:13.986Z</time>
      </trkpt>
      <trkpt lat="47.537037" lon="7.885297">
        <ele>484.672811</ele>
        <time>2022-02-19T12:23:21.010Z</time>
      </trkpt>
      <trkpt lat="47.536953" lon="7.885356">
        <ele>484.607487</ele>
        <time>2022-02-19T12:23:28.005Z</time>
      </trkpt>
      <trkpt lat="47.536929" lon="7.885489">
        <ele>484.542179</ele>
        <time>2022-02-19T12:23:35.972Z</time>
      </trkpt>
      <trkpt lat="47.536848" lon="7.885560">
        <ele>484.476043</ele>
        <time>2022-02-19T12:23:43.986Z</time>
      </trkpt>
      <trkpt lat="47.536779" lon="7.885685">
        <ele>484.399447</ele>
        <time>2022-02-19T12:23:51.982Z</time>
      </trkpt>
      <trkpt lat="47.536712" lon="7.885794">
        <ele>484.329518</ele>
        <time>2022-02-19T12:23:57.007Z</time>
      </trkpt>
      <trkpt lat="47.536647" lon="7.885886">
        <ele>484.266345</ele>
        <time>2022-02-19T12:24:06.990Z</time>
      </trkpt>
      <trkpt lat="47.536595" lon="7.886004">
        <ele>484.199498</ele>
        <time>2022-02-19T12:24:13.985Z</time>
      </trkpt>
      <trkpt lat="47.536520" lon="7.886103">
        <ele>484.128908</ele>
        <time>2022-02-19T12:24:21.981Z</time>
      </trkpt>
      <trkpt lat="47.536462" lon="7.886205">
        <ele>484.065644</ele>
        <time>2022-02-19T12:24:26.989Z</time>
      </trkpt>
      <trkpt lat="47.536361" lon="7.886195">
        <ele>483.994516</ele>
        <time>2022-02-19T12:24:35.974Z</time>
      </trkpt>
      <trkpt lat="47.536282" lon="7.886267">
        <ele>483.929338</ele>
        <time>2022-02-19T12:24:40.986Z</time>
      </trkpt>
      <trkpt lat="47.536311" lon="7.886396">
        <ele>483.864839</ele>
        <time>2022-02-19T12:24:45.986Z</time>
      </trkpt>
      <trkpt lat="47.536354" lon="7.886543">
        <ele>483.788839</ele>
        <time>2022-02-19T12:24:51.007Z</time>
      </trkpt>
      <trkpt lat="47.536364" lon="7.886685">
        <ele>483.721111</ele>
        <time>2022-02-19T12:24:55.988Z</time>
      </trkpt>
      <trkpt lat="47.536381" lon="7.886824">
        <ele>483.654098</ele>
        <time>2022-02-19T12:25:03.012Z</time>
      </trkpt>
      <trkpt lat="47.536361" lon="7.886960">
        <ele>483.588068</ele>
        <time>2022-02-19T12:25:09.983Z</time>
      </trkpt>
      <trkpt lat="47.536325" lon="7.887106">
        <ele>483.514332</ele>
        <time>2022-02-19T12:25:18.996Z</time>
      </trkpt>
      <trkpt lat="47.536321" lon="7.887264">
        <ele>484.497423</ele>
        <time>2022-02-19T12:25:25.970Z</time>
      </trkpt>
      <trkpt lat="47.536322" lon="7.887421">
        <ele>485.671592</ele>
        <time>2022-02-19T12:25:35.014Z</time>
      </trkpt>
      <trkpt lat="47.536303" lon="7.887576">
        <ele>486.849704</ele>
        <time>2022-02-19T12:25:40.978Z</time>
      </trkpt>
      <trkpt lat="47.536258" lon="7.887696">
        <ele>487.876265</ele>
        <time>2022-02-19T12:25:47.990Z</time>
      </trkpt>
      <trkpt lat="47.536234" lon="7.887839">
        <ele>488.978234</ele>
        <time>2022-02-19T12:25:55.025Z</time>
      </trkpt>
      <trkpt lat="47.536153" lon="7.887930">
        <ele>490.104375</ele>
        <time>2022-02-19T12:26:00.983Z</time>
      </trkpt>
      <trkpt lat="47.536161" lon="7.888075">
        <ele>491.192369</ele>
        <time>2022-02-19T12:26:08.986Z</time>
      </trkpt>
      <trkpt lat="47.536118" lon="7.888194">
        <ele>492.201759</ele>
        <time>2022-02-19T12:26:13.986Z</time>
      </trkpt>
      <trkpt lat="47.536177" lon="7.888311">
        <ele>493.293878</ele>
        <time>2022-02-19T12:26:18.984Z</time>
      </trkpt>
      <trkpt lat="47.536204" lon="7.888438">
        <ele>494.289622</ele>
        <time>2022-02-19T12:26:25.007Z</time>
      </trkpt>
      <trkpt lat="47.536175" lon="7.888582">
        <ele>495.413413</ele>
        <time>2022-02-19T12:26:32.981Z</time>
      </trkpt>
      <trkpt lat="47.536156" lon="7.888717">
        <ele>496.444710</ele>
        <time>2022-02-19T12:26:39.980Z</time>
      </trkpt>
      <trkpt lat="47.536159" lon="7.888851">
        <ele>497.447376</ele>
        <time>2022-02-19T12:26:47.985Z</time>
      </trkpt>
      <trkpt lat="47.536200" lon="7.888971">
        <ele>498.453170</ele>
        <time>2022-02-19T12:26:52.982Z</time>
      </trkpt>
      <trkpt lat="47.536268" lon="7.889065">
        <ele>499.483489</ele>
        <time>2022-02-19T12:26:59.976Z</time>
      </trkpt>
      <trkpt lat="47.536320" lon="7.889200">
        <ele>500.645842</ele>
        <time>2022-02-19T12:27:11.182Z</time>
      </trkpt>
      <trkpt lat="47.536316" lon="7.889346">
        <ele>501.738594</ele>
        <time>2022-02-19T12:27:22.151Z</time>
      </trkpt>
      <trkpt lat="47.536371" lon="7.889464">
        <ele>502.810932</ele>
        <time>2022-02-19T12:27:31.154Z</time>
      </trkpt>
      <trkpt lat="47.536427" lon="7.889581">
        <ele>503.719020</ele>
        <time>2022-02-19T12:27:38.234Z</time>
      </trkpt>
      <trkpt lat="47.536423" lon="7.889726">
        <ele>504.413862</ele>
        <time>2022-02-19T12:27:50.175Z</time>
      </trkpt>
      <trkpt lat="47.536401" lon="7.889863">
        <ele>505.088121</ele>
        <time>2022-02-19T12:27:57.141Z</time>
      </trkpt>
      <trkpt lat="47.536411" lon="7.889997">
        <ele>505.733624</ele>
        <time>2022-02-19T12:28:02.150Z</time>
      </trkpt>
      <trkpt lat="47.536394" lon="7.890134">
        <ele>506.400570</ele>
        <time>2022-02-19T12:28:07.141Z</time>
      </trkpt>
      <trkpt lat="47.536363" lon="7.890267">
        <ele>507.074261</ele>
        <time>2022-02-19T12:28:20.157Z</time>
      </trkpt>
      <trkpt lat="47.536339" lon="7.890423">
        <ele>507.840341</ele>
        <time>2022-02-19T12:28:28.139Z</time>
      </trkpt>
      <trkpt lat="47.536268" lon="7.890510">
        <ele>508.493848</ele>
        <time>2022-02-19T12:28:37.150Z</time>
      </trkpt>
      <trkpt lat="47.536189" lon="7.890584">
        <ele>509.156755</ele>
        <time>2022-02-19T12:28:45.151Z</time>
      </trkpt>
      <trkpt lat="47.536173" lon="7.890719">
        <ele>509.813025</ele>
        <time>2022-02-19T12:28:52.143Z</time>
      </trkpt>
      <trkpt lat="47.536170" lon="7.890852">
        <ele>510.450190</ele>
        <time>2022-02-19T12:28:58.141Z</time>
      </trkpt>
      <trkpt lat="47.536117" lon="7.890972">
        <ele>511.136784</ele>
        <time>2022-02-19T12:29:06.147Z</time>
      </trkpt>
      <trkpt lat="47.536086" lon="7.891114">
        <ele>511.851349</ele>
        <time>2022-02-19T12:29:15.148Z</time>
      </trkpt>
      <trkpt lat="47.536075" lon="7.891260">
        <ele>512.554744</ele>
        <time>2022-02-19T12:29:23.143Z</time>
      </trkpt>
      <trkpt lat="47.536022" lon="7.891379">
        <ele>513.237337</ele>
        <time>2022-02-19T12:29:33.143Z</time>
      </trkpt>
      <trkpt lat="47.535956" lon="7.891471">
        <ele>513.880095</ele>
        <time>2022-02-19T12:29:39.189Z</time>
      </trkpt>
      <trkpt lat="47.535925" lon="7.891618">
        <ele>514.617478</ele>
        <time>2022-02-19T12:29:47.143Z</time>
      </trkpt>
      <trkpt lat="47.535885" lon="7.891748">
        <ele>515.301524</ele>
        <time>2022-02-19T12:29:56.147Z</time>
      </trkpt>
      <trkpt lat="47.535830" lon="7.891873">
        <ele>516.015921</ele>
        <time>2022-02-19T12:30:03.146Z</time>
      </trkpt>
      <trkpt lat="47.535801" lon="7.892007">
        <ele>517.048896</ele>
        <time>2022-02-19T12:30:15.148Z</time>
      </trkpt>
      <trkpt lat="47.535820" lon="7.892154">
        <ele>518.273030</ele>
        <time>2022-02-19T12:30:22.153Z</time>
      </trkpt>
      <trkpt lat="47.535800" lon="7.892284">
        <ele>519.363544</ele>
        <time>2022-02-19T12:30:32.153Z</time>
      </trkpt>
      <trkpt lat="47.535804" lon="7.892431">
        <ele>520.566819</ele>
        <time>2022-02-19T12:30:40.152Z</time>
      </trkpt>
      <trkpt lat="47.535836" lon="7.892558">
        <ele>521.675523</ele>
        <time>2022-02-19T12:30:45.150Z</time>
      </trkpt>
      <trkpt lat="47.535892" lon="7.892667">
        <ele>522.795799</ele>
        <time>2022-02-19T12:30:56.153Z</time>
      </trkpt>
      <trkpt lat="47.535957" lon="7.892764">
        <ele>523.913601</ele>
        <time>2022-02-19T12:31:02.161Z</time>
      </trkpt>
      <trkpt lat="47.536047" lon="7.892811">
        <ele>525.069693</ele>
        <time>2022-02-19T12:31:10.148Z</time>
      </trkpt>
      <trkpt lat="47.536136" lon="7.892879">
        <ele>526.282881</ele>
        <time>2022-02-19T12:31:19.151Z</time>
      </trkpt>
      <trkpt lat="47.536214" lon="7.892948">
        <ele>527.383510</ele>
        <time>2022-02-19T12:31:28.155Z</time>
      </trkpt>
      <trkpt lat="47.536315" lon="7.892987">
        <ele>528.647975</ele>
        <time>2022-02-19T12:31:34.151Z</time>
      </trkpt>
      <trkpt lat="47.536405" lon="7.893004">
        <ele>529.747116</ele>
        <time>2022-02-19T12:31:40.193Z</time>
      </trkpt>
      <trkpt lat="47.536495" lon="7.892994">
        <ele>530.840491</ele>
        <time>2022-02-19T12:31:46.145Z</time>
      </trkpt>
      <trkpt lat="47.536601" lon="7.892993">
        <ele>532.124662</ele>
        <time>2022-02-19T12:31:55.152Z</time>
      </trkpt>
      <trkpt lat="47.536694" lon="7.893004">
        <ele>533.254903</ele>
        <time>2022-02-19T12:32:03.166Z</time>
      </trkpt>
      <trkpt lat="47.536772" lon="7.893095">
        <ele>534.457749</ele>
        <time>2022-02-19T12:32:14.162Z</time>
      </trkpt>
      <trkpt lat="47.536858" lon="7.893140">
        <ele>535.562699</ele>
        <time>2022-02-19T12:32:20.149Z</time>
      </trkpt>
      <trkpt lat="47.536925" lon="7.893248">
        <ele>536.762300</ele>
        <time>2022-02-19T12:32:28.144Z</time>
      </trkpt>
      <trkpt lat="47.537023" lon="7.893279">
        <ele>537.975961</ele>
        <time>2022-02-19T12:32:39.161Z</time>
      </trkpt>
      <trkpt lat="47.537117" lon="7.893329">
        <ele>539.085208</ele>
        <time>2022-02-19T12:32:48.152Z</time>
      </trkpt>
      <trkpt lat="47.537208" lon="7.893379">
        <ele>540.163155</ele>
        <time>2022-02-19T12:32:55.143Z</time>
      </trkpt>
      <trkpt lat="47.537297" lon="7.893407">
        <ele>541.173648</ele>
        <time>2022-02-19T12:33:04.156Z</time>
      </trkpt>
      <trkpt lat="47.537394" lon="7.893395">
        <ele>542.254691</ele>
        <time>2022-02-19T12:33:14.166Z</time>
      </trkpt>
      <trkpt lat="47.537484" lon="7.893396">
        <ele>543.254269</ele>
        <time>2022-02-19T12:33:22.156Z</time>
      </trkpt>
      <trkpt lat="47.537587" lon="7.893427">
        <ele>544.421574</ele>
        <time>2022-02-19T12:33:31.180Z</time>
      </trkpt>
      <trkpt lat="47.537687" lon="7.893447">
        <ele>545.542262</ele>
        <time>2022-02-19T12:33:37.150Z</time>
      </trkpt>
      <trkpt lat="47.537785" lon="7.893433">
        <ele>546.635711</ele>
        <time>2022-02-19T12:33:44.152Z</time>
      </trkpt>
      <trkpt lat="47.537877" lon="7.893437">
        <ele>547.657914</ele>
        <time>2022-02-19T12:33:50.151Z</time>
      </trkpt>
      <trkpt lat="47.537955" lon="7.893503">
        <ele>548.655568</ele>
        <time>2022-02-19T12:33:55.150Z</time>
      </trkpt>
      <trkpt lat="47.538032" lon="7.893592">
        <ele>549.740282</ele>
        <time>2022-02-19T12:34:03.155Z</time>
      </trkpt>
      <trkpt lat="47.538133" lon="7.893642">
        <ele>550.922986</ele>
        <time>2022-02-19T12:34:12.150Z</time>
      </trkpt>
      <trkpt lat="47.538179" lon="7.893765">
        <ele>551.977258</ele>
        <time>2022-02-19T12:34:21.152Z</time>
      </trkpt>
      <trkpt lat="47.538276" lon="7.893804">
        <ele>553.093530</ele>
        <time>2022-02-19T12:34:28.151Z</time>
      </trkpt>
      <trkpt lat="47.538356" lon="7.893866">
        <ele>554.096279</ele>
        <time>2022-02-19T12:34:34.138Z</time>
      </trkpt>
      <trkpt lat="47.538440" lon="7.893937">
        <ele>555.170387</ele>
        <time>2022-02-19T12:34:41.302Z</time>
      </trkpt>
      <trkpt lat="47.538526" lon="7.893979">
        <ele>556.176085</ele>
        <time>2022-02-19T12:34:51.149Z</time>
      </trkpt>
      <trkpt lat="47.538619" lon="7.893998">
        <ele>557.218731</ele>
        <time>2022-02-19T12:34:58.148Z</time>
      </trkpt>
      <trkpt lat="47.538694" lon="7.894082">
        <ele>558.011575</ele>
        <time>2022-02-19T12:35:06.179Z</time>
      </trkpt>
      <trkpt lat="47.538786" lon="7.894155">
        <ele>558.245032</ele>
        <time>2022-02-19T12:35:15.149Z</time>
      </trkpt>
      <trkpt lat="47.538870" lon="7.894229">
        <ele>558.463646</ele>
        <time>2022-02-19T12:35:20.150Z</time>
      </trkpt>
      <trkpt lat="47.538965" lon="7.894257">
        <ele>558.680314</ele>
        <time>2022-02-19T12:35:27.152Z</time>
      </trkpt>
      <trkpt lat="47.539046" lon="7.894339">
        <ele>558.899770</ele>
        <time>2022-02-19T12:35:34.150Z</time>
      </trkpt>
      <trkpt lat="47.539093" lon="7.894457">
        <ele>559.106662</ele>
        <time>2022-02-19T12:35:40.150Z</time>
      </trkpt>
      <trkpt lat="47.539162" lon="7.894558">
        <ele>559.323649</ele>
        <time>2022-02-19T12:35:45.181Z</time>
      </trkpt>
      <trkpt lat="47.539254" lon="7.894608">
        <ele>559.542854</ele>
        <time>2022-02-19T12:35:55.185Z</time>
      </trkpt>
      <trkpt lat="47.539337" lon="7.894697">
        <ele>559.772053</ele>
        <time>2022-02-19T12:36:01.148Z</time>
      </trkpt>
      <trkpt lat="47.539397" lon="7.894819">
        <ele>559.999984</ele>
        <time>2022-02-19T12:36:07.154Z</time>
      </trkpt>
      <trkpt lat="47.539437" lon="7.894967">
        <ele>560.240719</ele>
        <time>2022-02-19T12:36:13.153Z</time>
      </trkpt>
      <trkpt lat="47.539483" lon="7.895091">
        <ele>560.454376</ele>
        <time>2022-02-19T12:36:20.153Z</time>
      </trkpt>
      <trkpt lat="47.539517" lon="7.895237">
        <ele>560.687595</ele>
        <time>2022-02-19T12:36:32.180Z</time>
      </trkpt>
      <trkpt lat="47.539557" lon="7.895378">
        <ele>560.918550</ele>
        <time>2022-02-19T12:36:39.154Z</time>
      </trkpt>
      <trkpt lat="47.539585" lon="7.895517">
        <ele>561.137593</ele>
        <time>2022-02-19T12:36:49.153Z</time>
      </trkpt>
      <trkpt lat="47.539604" lon="7.895660">
        <ele>561.357675</ele>
        <time>2022-02-19T12:36:56.155Z</time>
      </trkpt>
      <trkpt lat="47.539629" lon="7.895798">
        <ele>561.573436</ele>
        <time>2022-02-19T12:37:03.143Z</time>
      </trkpt>
      <trkpt lat="47.539677" lon="7.895921">
        <ele>561.787974</ele>
        <time>2022-02-19T12:37:10.153Z</time>
      </trkpt>
      <trkpt lat="47.539727" lon="7.896032">
        <ele>561.963504</ele>
        <time>2022-02-19T12:37:17.154Z</time>
      </trkpt>
      <trkpt lat="47.539724" lon="7.896168">
        <ele>561.872401</ele>
        <time>2022-02-19T12:37:23.162Z</time>
      </trkpt>
      <trkpt lat="47.539735" lon="7.896331">
        <ele>561.762725</ele>
        <time>2022-02-19T12:37:30.417Z</time>
      </trkpt>
      <trkpt lat="47.539742" lon="7.896473">
        <ele>561.667400</ele>
        <time>2022-02-19T12:37:35.149Z</time>
      </trkpt>
      <trkpt lat="47.539730" lon="7.896606">
        <ele>561.577563</ele>
        <time>2022-02-19T12:37:50.173Z</time>
      </trkpt>
      <trkpt lat="47.539713" lon="7.896741">
        <ele>561.485619</ele>
        <time>2022-02-19T12:37:56.147Z</time>
      </trkpt>
      <trkpt lat="47.539696" lon="7.896887">
        <ele>561.386425</ele>
        <time>2022-02-19T12:38:05.163Z</time>
      </trkpt>
      <trkpt lat="47.539647" lon="7.897015">
        <ele>561.287907</ele>
        <time>2022-02-19T12:38:13.176Z</time>
      </trkpt>
      <trkpt lat="47.539614" lon="7.897140">
        <ele>561.198045</ele>
        <time>2022-02-19T12:38:21.187Z</time>
      </trkpt>
      <trkpt lat="47.539573" lon="7.897261">
        <ele>561.107401</ele>
        <time>2022-02-19T12:38:27.164Z</time>
      </trkpt>
      <trkpt lat="47.539521" lon="7.897374">
        <ele>561.015840</ele>
        <time>2022-02-19T12:38:34.142Z</time>
      </trkpt>
      <trkpt lat="47.539489" lon="7.897499">
        <ele>560.926334</ele>
        <time>2022-02-19T12:38:43.159Z</time>
      </trkpt>
      <trkpt lat="47.539484" lon="7.897642">
        <ele>560.830464</ele>
        <time>2022-02-19T12:38:49.154Z</time>
      </trkpt>
      <trkpt lat="47.539470" lon="7.897785">
        <ele>560.733721</ele>
        <time>2022-02-19T12:38:56.159Z</time>
      </trkpt>
      <trkpt lat="47.539469" lon="7.897929">
        <ele>560.637305</ele>
        <time>2022-02-19T12:39:04.168Z</time>
      </trkpt>
      <trkpt lat="47.539461" lon="7.898074">
        <ele>560.539901</ele>
        <time>2022-02-19T12:39:12.154Z</time>
      </trkpt>
      <trkpt lat="47.539505" lon="7.898203">
        <ele>560.443134</ele>
        <time>2022-02-19T12:39:21.188Z</time>
      </trkpt>
      <trkpt lat="47.539554" lon="7.898335">
        <ele>560.342278</ele>
        <time>2022-02-19T12:39:28.144Z</time>
      </trkpt>
      <trkpt lat="47.539589" lon="7.898467">
        <ele>560.247328</ele>
        <time>2022-02-19T12:39:39.156Z</time>
      </trkpt>
      <trkpt lat="47.539609" lon="7.898610">
        <ele>560.668920</ele>
        <time>2022-02-19T12:39:49.190Z</time>
      </trkpt>
      <trkpt lat="47.539599" lon="7.898746">
        <ele>561.825902</ele>
        <time>2022-02-19T12:40:00.151Z</time>
      </trkpt>
      <trkpt lat="47.539563" lon="7.898874">
        <ele>562.998614</ele>
        <time>2022-02-19T12:40:12.157Z</time>
      </trkpt>
      <trkpt lat="47.539501" lon="7.898989">
        <ele>564.243283</ele>
        <time>2022-02-19T12:40:24.178Z</time>
      </trkpt>
      <trkpt lat="47.539456" lon="7.899109">
        <ele>565.404216</ele>
        <time>2022-02-19T12:40:33.178Z</time>
      </trkpt>
      <trkpt lat="47.539407" lon="7.899221">
        <ele>566.532944</ele>
        <time>2022-02-19T12:40:38.149Z</time>
      </trkpt>
      <trkpt lat="47.539388" lon="7.899357">
        <ele>567.707499</ele>
        <time>2022-02-19T12:40:43.183Z</time>
      </trkpt>
      <trkpt lat="47.539370" lon="7.899491">
        <ele>568.862987</ele>
        <time>2022-02-19T12:40:50.150Z</time>
      </trkpt>
      <trkpt lat="47.539320" lon="7.899606">
        <ele>570.019826</ele>
        <time>2022-02-19T12:40:56.151Z</time>
      </trkpt>
      <trkpt lat="47.539270" lon="7.899724">
        <ele>571.198076</ele>
        <time>2022-02-19T12:41:03.198Z</time>
      </trkpt>
      <trkpt lat="47.539244" lon="7.899851">
        <ele>572.320450</ele>
        <time>2022-02-19T12:41:10.236Z</time>
      </trkpt>
      <trkpt lat="47.539229" lon="7.899984">
        <ele>573.460855</ele>
        <time>2022-02-19T12:41:15.188Z</time>
      </trkpt>
      <trkpt lat="47.539206" lon="7.900126">
        <ele>574.695869</ele>
        <time>2022-02-19T12:41:20.194Z</time>
      </trkpt>
      <trkpt lat="47.539173" lon="7.900267">
        <ele>575.957974</ele>
        <time>2022-02-19T12:41:31.186Z</time>
      </trkpt>
      <trkpt lat="47.539175" lon="7.900420">
        <ele>577.252179</ele>
        <time>2022-02-19T12:41:44.157Z</time>
      </trkpt>
      <trkpt lat="47.539137" lon="7.900549">
        <ele>578.442508</ele>
        <time>2022-02-19T12:41:52.186Z</time>
      </trkpt>
      <trkpt lat="47.539109" lon="7.900700">
        <ele>579.766857</ele>
        <time>2022-02-19T12:42:02.182Z</time>
      </trkpt>
      <trkpt lat="47.539088" lon="7.900845">
        <ele>581.021065</ele>
        <time>2022-02-19T12:42:08.150Z</time>
      </trkpt>
      <trkpt lat="47.539059" lon="7.900990">
        <ele>582.300056</ele>
        <time>2022-02-19T12:42:17.182Z</time>
      </trkpt>
      <trkpt lat="47.539049" lon="7.901135">
        <ele>582.732922</ele>
        <time>2022-02-19T12:42:24.150Z</time>
      </trkpt>
      <trkpt lat="47.539003" lon="7.901249">
        <ele>582.750082</ele>
        <time>2022-02-19T12:42:32.152Z</time>
      </trkpt>
      <trkpt lat="47.538952" lon="7.901373">
        <ele>582.768844</ele>
        <time>2022-02-19T12:42:40.163Z</time>
      </trkpt>
      <trkpt lat="47.538904" lon="7.901499">
        <ele>582.787537</ele>
        <time>2022-02-19T12:42:45.153Z</time>
      </trkpt>
      <trkpt lat="47.538860" lon="7.901633">
        <ele>582.806791</ele>
        <time>2022-02-19T12:42:55.158Z</time>
      </trkpt>
      <trkpt lat="47.538795" lon="7.901763">
        <ele>582.827693</ele>
        <time>2022-02-19T12:43:04.161Z</time>
      </trkpt>
      <trkpt lat="47.538709" lon="7.901885">
        <ele>582.850484</ele>
        <time>2022-02-19T12:43:08.158Z</time>
      </trkpt>
      <trkpt lat="47.538647" lon="7.902001">
        <ele>582.869601</ele>
        <time>2022-02-19T12:43:20.155Z</time>
      </trkpt>
      <trkpt lat="47.538562" lon="7.902105">
        <ele>582.890702</ele>
        <time>2022-02-19T12:43:24.150Z</time>
      </trkpt>
      <trkpt lat="47.538480" lon="7.902202">
        <ele>582.910786</ele>
        <time>2022-02-19T12:43:32.161Z</time>
      </trkpt>
      <trkpt lat="47.538418" lon="7.902301">
        <ele>582.928235</ele>
        <time>2022-02-19T12:43:38.142Z</time>
      </trkpt>
      <trkpt lat="47.538342" lon="7.902385">
        <ele>582.946384</ele>
        <time>2022-02-19T12:43:46.143Z</time>
      </trkpt>
      <trkpt lat="47.538279" lon="7.902509">
        <ele>582.966436</ele>
        <time>2022-02-19T12:43:52.146Z</time>
      </trkpt>
      <trkpt lat="47.538217" lon="7.902614">
        <ele>582.984461</ele>
        <time>2022-02-19T12:44:01.149Z</time>
      </trkpt>
      <trkpt lat="47.538157" lon="7.902714">
        <ele>583.001747</ele>
        <time>2022-02-19T12:44:09.153Z</time>
      </trkpt>
      <trkpt lat="47.538094" lon="7.902826">
        <ele>583.020584</ele>
        <time>2022-02-19T12:44:18.149Z</time>
      </trkpt>
      <trkpt lat="47.538040" lon="7.902933">
        <ele>583.037846</ele>
        <time>2022-02-19T12:44:28.146Z</time>
      </trkpt>
      <trkpt lat="47.537965" lon="7.903036">
        <ele>583.057421</ele>
        <time>2022-02-19T12:44:35.146Z</time>
      </trkpt>
      <trkpt lat="47.537906" lon="7.903136">
        <ele>583.041029</ele>
        <time>2022-02-19T12:44:41.146Z</time>
      </trkpt>
      <trkpt lat="47.537832" lon="7.903227">
        <ele>582.996520</ele>
        <time>2022-02-19T12:44:47.211Z</time>
      </trkpt>
      <trkpt lat="47.537760" lon="7.903314">
        <ele>582.953519</ele>
        <time>2022-02-19T12:44:53.416Z</time>
      </trkpt>
      <trkpt lat="47.537690" lon="7.903407">
        <ele>582.910003</ele>
        <time>2022-02-19T12:44:59.142Z</time>
      </trkpt>
      <trkpt lat="47.537619" lon="7.903509">
        <ele>582.864231</ele>
        <time>2022-02-19T12:45:06.146Z</time>
      </trkpt>
      <trkpt lat="47.537550" lon="7.903616">
        <ele>582.818001</ele>
        <time>2022-02-19T12:45:13.149Z</time>
      </trkpt>
      <trkpt lat="47.537486" lon="7.903712">
        <ele>582.775849</ele>
        <time>2022-02-19T12:45:21.163Z</time>
      </trkpt>
      <trkpt lat="47.537422" lon="7.903824">
        <ele>582.730005</ele>
        <time>2022-02-19T12:45:27.148Z</time>
      </trkpt>
      <trkpt lat="47.537345" lon="7.903916">
        <ele>582.684223</ele>
        <time>2022-02-19T12:45:33.150Z</time>
      </trkpt>
      <trkpt lat="47.537273" lon="7.904020">
        <ele>582.637683</ele>
        <time>2022-02-19T12:45:42.182Z</time>
      </trkpt>
      <trkpt lat="47.537211" lon="7.904129">
        <ele>582.593152</ele>
        <time>2022-02-19T12:45:49.790Z</time>
      </trkpt>
      <trkpt lat="47.537143" lon="7.904218">
        <ele>582.551158</ele>
        <time>2022-02-19T12:45:56.755Z</time>
      </trkpt>
      <trkpt lat="47.537075" lon="7.904317">
        <ele>582.507033</ele>
        <time>2022-02-19T12:46:03.773Z</time>
      </trkpt>
      <trkpt lat="47.537011" lon="7.904439">
        <ele>582.458762</ele>
        <time>2022-02-19T12:46:09.755Z</time>
      </trkpt>
      <trkpt lat="47.536956" lon="7.904548">
        <ele>582.416247</ele>
        <time>2022-02-19T12:46:17.768Z</time>
      </trkpt>
      <trkpt lat="47.536895" lon="7.904659">
        <ele>582.371530</ele>
        <time>2022-02-19T12:46:23.755Z</time>
      </trkpt>
      <trkpt lat="47.536827" lon="7.904754">
        <ele>582.328272</ele>
        <time>2022-02-19T12:46:31.910Z</time>
      </trkpt>
      <trkpt lat="47.536751" lon="7.904855">
        <ele>582.281019</ele>
        <time>2022-02-19T12:46:38.752Z</time>
      </trkpt>
      <trkpt lat="47.536682" lon="7.904962">
        <ele>582.234789</ele>
        <time>2022-02-19T12:46:46.759Z</time>
      </trkpt>
      <trkpt lat="47.536616" lon="7.905067">
        <ele>582.464477</ele>
        <time>2022-02-19T12:46:54.753Z</time>
      </trkpt>
      <trkpt lat="47.536532" lon="7.905154">
        <ele>582.724000</ele>
        <time>2022-02-19T12:47:00.799Z</time>
      </trkpt>
      <trkpt lat="47.536436" lon="7.905180">
        <ele>582.971100</ele>
        <time>2022-02-19T12:47:08.762Z</time>
      </trkpt>
      <trkpt lat="47.536335" lon="7.905144">
        <ele>583.234131</ele>
        <time>2022-02-19T12:47:15.746Z</time>
      </trkpt>
      <trkpt lat="47.536240" lon="7.905096">
        <ele>583.488279</ele>
        <time>2022-02-19T12:47:22.756Z</time>
      </trkpt>
      <trkpt lat="47.536146" lon="7.905099">
        <ele>583.726340</ele>
        <time>2022-02-19T12:47:30.756Z</time>
      </trkpt>
      <trkpt lat="47.536046" lon="7.905076">
        <ele>583.982573</ele>
        <time>2022-02-19T12:47:38.762Z</time>
      </trkpt>
      <trkpt lat="47.535951" lon="7.905044">
        <ele>584.229253</ele>
        <time>2022-02-19T12:47:43.797Z</time>
      </trkpt>
      <trkpt lat="47.535854" lon="7.905016">
        <ele>584.479476</ele>
        <time>2022-02-19T12:47:49.757Z</time>
      </trkpt>
      <trkpt lat="47.535754" lon="7.904999">
        <ele>584.734336</ele>
        <time>2022-02-19T12:47:58.791Z</time>
      </trkpt>
      <trkpt lat="47.535663" lon="7.904974">
        <ele>584.968677</ele>
        <time>2022-02-19T12:48:06.754Z</time>
      </trkpt>
      <trkpt lat="47.535570" lon="7.904981">
        <ele>585.204455</ele>
        <time>2022-02-19T12:48:13.746Z</time>
      </trkpt>
      <trkpt lat="47.535571" lon="7.905128">
        <ele>585.455753</ele>
        <time>2022-02-19T12:48:22.765Z</time>
      </trkpt>
      <trkpt lat="47.535596" lon="7.905279">
        <ele>585.721524</ele>
        <time>2022-02-19T12:48:27.792Z</time>
      </trkpt>
      <trkpt lat="47.535587" lon="7.905425">
        <ele>585.972138</ele>
        <time>2022-02-19T12:48:35.788Z</time>
      </trkpt>
      <trkpt lat="47.535591" lon="7.905560">
        <ele>586.203132</ele>
        <time>2022-02-19T12:48:42.790Z</time>
      </trkpt>
      <trkpt lat="47.535592" lon="7.905699">
        <ele>586.440756</ele>
        <time>2022-02-19T12:48:51.777Z</time>
      </trkpt>
      <trkpt lat="47.535587" lon="7.905838">
        <ele>586.678703</ele>
        <time>2022-02-19T12:48:57.751Z</time>
      </trkpt>
      <trkpt lat="47.535580" lon="7.905995">
        <ele>586.652897</ele>
        <time>2022-02-19T12:49:10.758Z</time>
      </trkpt>
      <trkpt lat="47.535562" lon="7.906130">
        <ele>586.457840</ele>
        <time>2022-02-19T12:49:14.792Z</time>
      </trkpt>
      <trkpt lat="47.535532" lon="7.906265">
        <ele>586.256380</ele>
        <time>2022-02-19T12:49:20.750Z</time>
      </trkpt>
      <trkpt lat="47.535507" lon="7.906398">
        <ele>586.060683</ele>
        <time>2022-02-19T12:49:28.865Z</time>
      </trkpt>
      <trkpt lat="47.535477" lon="7.906530">
        <ele>585.863257</ele>
        <time>2022-02-19T12:49:34.748Z</time>
      </trkpt>
      <trkpt lat="47.535435" lon="7.906660">
        <ele>585.658970</ele>
        <time>2022-02-19T12:49:40.759Z</time>
      </trkpt>
      <trkpt lat="47.535389" lon="7.906785">
        <ele>585.457171</ele>
        <time>2022-02-19T12:49:48.870Z</time>
      </trkpt>
      <trkpt lat="47.535351" lon="7.906923">
        <ele>585.245912</ele>
        <time>2022-02-19T12:49:59.772Z</time>
      </trkpt>
      <trkpt lat="47.535283" lon="7.907022">
        <ele>585.045721</ele>
        <time>2022-02-19T12:50:05.751Z</time>
      </trkpt>
      <trkpt lat="47.535233" lon="7.907147">
        <ele>584.839770</ele>
        <time>2022-02-19T12:50:15.881Z</time>
      </trkpt>
      <trkpt lat="47.535161" lon="7.907244">
        <ele>584.635423</ele>
        <time>2022-02-19T12:50:21.779Z</time>
      </trkpt>
      <trkpt lat="47.535083" lon="7.907330">
        <ele>584.431266</ele>
        <time>2022-02-19T12:50:32.754Z</time>
      </trkpt>
      <trkpt lat="47.535017" lon="7.907434">
        <ele>584.228942</ele>
        <time>2022-02-19T12:50:36.755Z</time>
      </trkpt>
      <trkpt lat="47.534939" lon="7.907544">
        <ele>584.002818</ele>
        <time>2022-02-19T12:50:48.750Z</time>
      </trkpt>
      <trkpt lat="47.534877" lon="7.907649">
        <ele>583.805086</ele>
        <time>2022-02-19T12:50:56.769Z</time>
      </trkpt>
      <trkpt lat="47.534790" lon="7.907696">
        <ele>583.610653</ele>
        <time>2022-02-19T12:51:03.760Z</time>
      </trkpt>
      <trkpt lat="47.534700" lon="7.907775">
        <ele>583.391001</ele>
        <time>2022-02-19T12:51:12.747Z</time>
      </trkpt>
      <trkpt lat="47.534600" lon="7.907836">
        <ele>583.163936</ele>
        <time>2022-02-19T12:51:20.752Z</time>
      </trkpt>
      <trkpt lat="47.534515" lon="7.907913">
        <ele>582.705809</ele>
        <time>2022-02-19T12:51:26.762Z</time>
      </trkpt>
      <trkpt lat="47.534425" lon="7.907968">
        <ele>581.582931</ele>
        <time>2022-02-19T12:51:38.783Z</time>
      </trkpt>
      <trkpt lat="47.534330" lon="7.908011">
        <ele>580.437248</ele>
        <time>2022-02-19T12:51:50.754Z</time>
      </trkpt>
      <trkpt lat="47.534228" lon="7.908018">
        <ele>579.259587</ele>
        <time>2022-02-19T12:52:00.751Z</time>
      </trkpt>
      <trkpt lat="47.534131" lon="7.908031">
        <ele>578.136285</ele>
        <time>2022-02-19T12:52:16.752Z</time>
      </trkpt>
      <trkpt lat="47.534041" lon="7.908055">
        <ele>577.081598</ele>
        <time>2022-02-19T12:52:21.764Z</time>
      </trkpt>
      <trkpt lat="47.533971" lon="7.908148">
        <ele>575.997069</ele>
        <time>2022-02-19T12:52:34.194Z</time>
      </trkpt>
      <trkpt lat="47.533935" lon="7.908273">
        <ele>574.938867</ele>
        <time>2022-02-19T12:52:52.760Z</time>
      </trkpt>
      <trkpt lat="47.533914" lon="7.908428">
        <ele>573.707858</ele>
        <time>2022-02-19T12:53:03.755Z</time>
      </trkpt>
      <trkpt lat="47.533866" lon="7.908554">
        <ele>572.581318</ele>
        <time>2022-02-19T12:53:12.847Z</time>
      </trkpt>
      <trkpt lat="47.533864" lon="7.908707">
        <ele>571.389719</ele>
        <time>2022-02-19T12:53:22.801Z</time>
      </trkpt>
      <trkpt lat="47.533841" lon="7.908843">
        <ele>570.298001</ele>
        <time>2022-02-19T12:53:31.755Z</time>
      </trkpt>
      <trkpt lat="47.533850" lon="7.908978">
        <ele>569.241675</ele>
        <time>2022-02-19T12:53:38.795Z</time>
      </trkpt>
      <trkpt lat="47.533849" lon="7.909121">
        <ele>568.128107</ele>
        <time>2022-02-19T12:53:47.789Z</time>
      </trkpt>
      <trkpt lat="47.533848" lon="7.909269">
        <ele>566.975607</ele>
        <time>2022-02-19T12:53:54.803Z</time>
      </trkpt>
      <trkpt lat="47.533838" lon="7.909402">
        <ele>565.933564</ele>
        <time>2022-02-19T12:54:03.792Z</time>
      </trkpt>
      <trkpt lat="47.533808" lon="7.909534">
        <ele>564.849037</ele>
        <time>2022-02-19T12:54:09.759Z</time>
      </trkpt>
      <trkpt lat="47.533814" lon="7.909668">
        <ele>563.803317</ele>
        <time>2022-02-19T12:54:13.759Z</time>
      </trkpt>
      <trkpt lat="47.533784" lon="7.909817">
        <ele>562.592594</ele>
        <time>2022-02-19T12:54:23.750Z</time>
      </trkpt>
      <trkpt lat="47.533749" lon="7.909940">
        <ele>562.644948</ele>
        <time>2022-02-19T12:54:30.756Z</time>
      </trkpt>
      <trkpt lat="47.533669" lon="7.910064">
        <ele>563.355495</ele>
        <time>2022-02-19T12:54:38.749Z</time>
      </trkpt>
      <trkpt lat="47.533623" lon="7.910182">
        <ele>563.919990</ele>
        <time>2022-02-19T12:54:47.811Z</time>
      </trkpt>
      <trkpt lat="47.533558" lon="7.910282">
        <ele>564.495068</ele>
        <time>2022-02-19T12:54:51.794Z</time>
      </trkpt>
      <trkpt lat="47.533513" lon="7.910398">
        <ele>565.049321</ele>
        <time>2022-02-19T12:55:02.761Z</time>
      </trkpt>
      <trkpt lat="47.533448" lon="7.910497">
        <ele>565.621422</ele>
        <time>2022-02-19T12:55:07.760Z</time>
      </trkpt>
      <trkpt lat="47.533404" lon="7.910629">
        <ele>566.231300</ele>
        <time>2022-02-19T12:55:16.763Z</time>
      </trkpt>
      <trkpt lat="47.533375" lon="7.910761">
        <ele>566.806384</ele>
        <time>2022-02-19T12:55:22.758Z</time>
      </trkpt>
      <trkpt lat="47.533339" lon="7.910891">
        <ele>567.388502</ele>
        <time>2022-02-19T12:55:27.776Z</time>
      </trkpt>
      <trkpt lat="47.533311" lon="7.911025">
        <ele>567.969628</ele>
        <time>2022-02-19T12:55:34.785Z</time>
      </trkpt>
      <trkpt lat="47.533284" lon="7.911160">
        <ele>568.552941</ele>
        <time>2022-02-19T12:55:44.760Z</time>
      </trkpt>
      <trkpt lat="47.533246" lon="7.911281">
        <ele>569.105808</ele>
        <time>2022-02-19T12:55:51.795Z</time>
      </trkpt>
      <trkpt lat="47.533222" lon="7.911413">
        <ele>569.672153</ele>
        <time>2022-02-19T12:55:56.763Z</time>
      </trkpt>
      <trkpt lat="47.533211" lon="7.911550">
        <ele>570.243729</ele>
        <time>2022-02-19T12:56:07.767Z</time>
      </trkpt>
      <trkpt lat="47.533232" lon="7.911696">
        <ele>570.862166</ele>
        <time>2022-02-19T12:56:19.752Z</time>
      </trkpt>
      <trkpt lat="47.533273" lon="7.911827">
        <ele>571.460361</ele>
        <time>2022-02-19T12:56:27.905Z</time>
      </trkpt>
      <trkpt lat="47.533283" lon="7.911961">
        <ele>572.018890</ele>
        <time>2022-02-19T12:56:35.750Z</time>
      </trkpt>
      <trkpt lat="47.533333" lon="7.912081">
        <ele>572.603086</ele>
        <time>2022-02-19T12:56:45.793Z</time>
      </trkpt>
      <trkpt lat="47.533361" lon="7.912211">
        <ele>573.168403</ele>
        <time>2022-02-19T12:56:56.818Z</time>
      </trkpt>
      <trkpt lat="47.533379" lon="7.912366">
        <ele>574.510830</ele>
        <time>2022-02-19T12:57:07.743Z</time>
      </trkpt>
      <trkpt lat="47.533438" lon="7.912480">
        <ele>575.900463</ele>
        <time>2022-02-19T12:57:24.819Z</time>
      </trkpt>
      <trkpt lat="47.533502" lon="7.912590">
        <ele>577.305273</ele>
        <time>2022-02-19T12:57:31.757Z</time>
      </trkpt>
      <trkpt lat="47.533553" lon="7.912701">
        <ele>578.604201</ele>
        <time>2022-02-19T12:57:44.761Z</time>
      </trkpt>
      <trkpt lat="47.533627" lon="7.912779">
        <ele>579.905650</ele>
        <time>2022-02-19T12:57:54.754Z</time>
      </trkpt>
      <trkpt lat="47.533663" lon="7.912915">
        <ele>581.318875</ele>
        <time>2022-02-19T12:58:03.757Z</time>
      </trkpt>
      <trkpt lat="47.533717" lon="7.913036">
        <ele>582.722093</ele>
        <time>2022-02-19T12:58:11.786Z</time>
      </trkpt>
      <trkpt lat="47.533786" lon="7.913135">
        <ele>584.098627</ele>
        <time>2022-02-19T12:58:20.753Z</time>
      </trkpt>
      <trkpt lat="47.533860" lon="7.913217">
        <ele>585.422886</ele>
        <time>2022-02-19T12:58:28.746Z</time>
      </trkpt>
      <trkpt lat="47.533927" lon="7.913320">
        <ele>586.806583</ele>
        <time>2022-02-19T12:58:36.765Z</time>
      </trkpt>
      <trkpt lat="47.533956" lon="7.913452">
        <ele>588.149502</ele>
        <time>2022-02-19T12:58:45.765Z</time>
      </trkpt>
      <trkpt lat="47.533999" lon="7.913581">
        <ele>589.541304</ele>
        <time>2022-02-19T12:58:57.746Z</time>
      </trkpt>
      <trkpt lat="47.533997" lon="7.913727">
        <ele>590.954044</ele>
        <time>2022-02-19T12:59:05.746Z</time>
      </trkpt>
      <trkpt lat="47.534010" lon="7.913863">
        <ele>592.282871</ele>
        <time>2022-02-19T12:59:14.748Z</time>
      </trkpt>
      <trkpt lat="47.534012" lon="7.914004">
        <ele>593.647249</ele>
        <time>2022-02-19T12:59:22.749Z</time>
      </trkpt>
      <trkpt lat="47.533993" lon="7.914144">
        <ele>595.028745</ele>
        <time>2022-02-19T12:59:31.783Z</time>
      </trkpt>
      <trkpt lat="47.533910" lon="7.914241">
        <ele>596.543696</ele>
        <time>2022-02-19T12:59:41.287Z</time>
      </trkpt>
      <trkpt lat="47.533824" lon="7.914284">
        <ele>597.844318</ele>
        <time>2022-02-19T12:59:50.748Z</time>
      </trkpt>
      <trkpt lat="47.533741" lon="7.914209">
        <ele>599.143538</ele>
        <time>2022-02-19T13:00:03.747Z</time>
      </trkpt>
      <trkpt lat="47.533687" lon="7.914074">
        <ele>599.781401</ele>
        <time>2022-02-19T13:00:09.791Z</time>
      </trkpt>
      <trkpt lat="47.533592" lon="7.913995">
        <ele>600.437371</ele>
        <time>2022-02-19T13:00:19.744Z</time>
      </trkpt>
      <trkpt lat="47.533508" lon="7.913942">
        <ele>600.987104</ele>
        <time>2022-02-19T13:00:23.744Z</time>
      </trkpt>
      <trkpt lat="47.533407" lon="7.913894">
        <ele>601.625752</ele>
        <time>2022-02-19T13:00:30.747Z</time>
      </trkpt>
      <trkpt lat="47.533317" lon="7.913857">
        <ele>602.188120</ele>
        <time>2022-02-19T13:00:36.766Z</time>
      </trkpt>
      <trkpt lat="47.533228" lon="7.913918">
        <ele>602.778573</ele>
        <time>2022-02-19T13:00:45.766Z</time>
      </trkpt>
      <trkpt lat="47.533135" lon="7.913967">
        <ele>603.372890</ele>
        <time>2022-02-19T13:00:54.751Z</time>
      </trkpt>
      <trkpt lat="47.533067" lon="7.914064">
        <ele>603.941317</ele>
        <time>2022-02-19T13:01:01.919Z</time>
      </trkpt>
      <trkpt lat="47.533014" lon="7.914190">
        <ele>604.544791</ele>
        <time>2022-02-19T13:01:09.767Z</time>
      </trkpt>
      <trkpt lat="47.532967" lon="7.914304">
        <ele>605.087781</ele>
        <time>2022-02-19T13:01:14.754Z</time>
      </trkpt>
      <trkpt lat="47.532910" lon="7.914417">
        <ele>605.661182</ele>
        <time>2022-02-19T13:01:18.790Z</time>
      </trkpt>
      <trkpt lat="47.532862" lon="7.914531">
        <ele>606.207336</ele>
        <time>2022-02-19T13:01:26.786Z</time>
      </trkpt>
      <trkpt lat="47.532795" lon="7.914627">
        <ele>606.768609</ele>
        <time>2022-02-19T13:01:33.791Z</time>
      </trkpt>
      <trkpt lat="47.532724" lon="7.914740">
        <ele>607.396106</ele>
        <time>2022-02-19T13:01:41.782Z</time>
      </trkpt>
      <trkpt lat="47.532655" lon="7.914842">
        <ele>607.983064</ele>
        <time>2022-02-19T13:01:49.818Z</time>
      </trkpt>
      <trkpt lat="47.532573" lon="7.914901">
        <ele>608.531952</ele>
        <time>2022-02-19T13:01:58.854Z</time>
      </trkpt>
      <trkpt lat="47.532485" lon="7.914936">
        <ele>609.080562</ele>
        <time>2022-02-19T13:02:05.778Z</time>
      </trkpt>
      <trkpt lat="47.532396" lon="7.914916">
        <ele>609.622554</ele>
        <time>2022-02-19T13:02:13.815Z</time>
      </trkpt>
      <trkpt lat="47.532304" lon="7.914863">
        <ele>610.082391</ele>
        <time>2022-02-19T13:02:21.781Z</time>
      </trkpt>
      <trkpt lat="47.532215" lon="7.914792">
        <ele>610.428640</ele>
        <time>2022-02-19T13:02:27.826Z</time>
      </trkpt>
      <trkpt lat="47.532093" lon="7.914694">
        <ele>610.904014</ele>
        <time>2022-02-19T13:02:40.946Z</time>
      </trkpt>
      <trkpt lat="47.532023" lon="7.914593">
        <ele>611.238742</ele>
        <time>2022-02-19T13:02:48.985Z</time>
      </trkpt>
      <trkpt lat="47.531942" lon="7.914521">
        <ele>611.562312</ele>
        <time>2022-02-19T13:02:54.986Z</time>
      </trkpt>
      <trkpt lat="47.531856" lon="7.914447">
        <ele>611.902982</ele>
        <time>2022-02-19T13:03:02.977Z</time>
      </trkpt>
      <trkpt lat="47.531774" lon="7.914388">
        <ele>612.215235</ele>
        <time>2022-02-19T13:03:09.035Z</time>
      </trkpt>
      <trkpt lat="47.531679" lon="7.914331">
        <ele>612.566314</ele>
        <time>2022-02-19T13:03:17.033Z</time>
      </trkpt>
      <trkpt lat="47.531600" lon="7.914258">
        <ele>612.885249</ele>
        <time>2022-02-19T13:03:22.982Z</time>
      </trkpt>
      <trkpt lat="47.531506" lon="7.914217">
        <ele>613.220888</ele>
        <time>2022-02-19T13:03:32.984Z</time>
      </trkpt>
      <trkpt lat="47.531422" lon="7.914116">
        <ele>613.591479</ele>
        <time>2022-02-19T13:03:39.983Z</time>
      </trkpt>
      <trkpt lat="47.531344" lon="7.914045">
        <ele>613.905067</ele>
        <time>2022-02-19T13:03:48.024Z</time>
      </trkpt>
      <trkpt lat="47.531262" lon="7.913956">
        <ele>614.253276</ele>
        <time>2022-02-19T13:03:53.987Z</time>
      </trkpt>
      <trkpt lat="47.531177" lon="7.913881">
        <ele>614.592167</ele>
        <time>2022-02-19T13:03:59.988Z</time>
      </trkpt>
      <trkpt lat="47.531094" lon="7.913813">
        <ele>614.917054</ele>
        <time>2022-02-19T13:04:06.983Z</time>
      </trkpt>
      <trkpt lat="47.531001" lon="7.913771">
        <ele>615.250076</ele>
        <time>2022-02-19T13:04:17.018Z</time>
      </trkpt>
      <trkpt lat="47.530902" lon="7.913758">
        <ele>615.590499</ele>
        <time>2022-02-19T13:04:21.044Z</time>
      </trkpt>
      <trkpt lat="47.530820" lon="7.913839">
        <ele>615.928102</ele>
        <time>2022-02-19T13:04:31.991Z</time>
      </trkpt>
      <trkpt lat="47.530760" lon="7.913948">
        <ele>616.389549</ele>
        <time>2022-02-19T13:04:40.977Z</time>
      </trkpt>
      <trkpt lat="47.530704" lon="7.914058">
        <ele>616.939278</ele>
        <time>2022-02-19T13:04:50.978Z</time>
      </trkpt>
      <trkpt lat="47.530625" lon="7.914148">
        <ele>617.528312</ele>
        <time>2022-02-19T13:04:56.990Z</time>
      </trkpt>
      <trkpt lat="47.530532" lon="7.914226">
        <ele>618.159949</ele>
        <time>2022-02-19T13:05:05.989Z</time>
      </trkpt>
      <trkpt lat="47.530467" lon="7.914333">
        <ele>618.734295</ele>
        <time>2022-02-19T13:05:12.983Z</time>
      </trkpt>
      <trkpt lat="47.530390" lon="7.914417">
        <ele>619.299486</ele>
        <time>2022-02-19T13:05:19.985Z</time>
      </trkpt>
      <trkpt lat="47.530350" lon="7.914560">
        <ele>619.917142</ele>
        <time>2022-02-19T13:05:29.031Z</time>
      </trkpt>
      <trkpt lat="47.530299" lon="7.914674">
        <ele>620.462840</ele>
        <time>2022-02-19T13:05:35.998Z</time>
      </trkpt>
      <trkpt lat="47.530231" lon="7.914763">
        <ele>620.999156</ele>
        <time>2022-02-19T13:05:41.026Z</time>
      </trkpt>
      <trkpt lat="47.530166" lon="7.914872">
        <ele>621.579462</ele>
        <time>2022-02-19T13:05:49.025Z</time>
      </trkpt>
      <trkpt lat="47.530103" lon="7.914979">
        <ele>622.145973</ele>
        <time>2022-02-19T13:05:55.990Z</time>
      </trkpt>
      <trkpt lat="47.530042" lon="7.915098">
        <ele>622.742176</ele>
        <time>2022-02-19T13:06:04.983Z</time>
      </trkpt>
      <trkpt lat="47.529980" lon="7.915211">
        <ele>623.323200</ele>
        <time>2022-02-19T13:06:13.022Z</time>
      </trkpt>
      <trkpt lat="47.529937" lon="7.915332">
        <ele>623.868835</ele>
        <time>2022-02-19T13:06:19.991Z</time>
      </trkpt>
      <trkpt lat="47.529858" lon="7.915424">
        <ele>624.462771</ele>
        <time>2022-02-19T13:06:27.986Z</time>
      </trkpt>
      <trkpt lat="47.529783" lon="7.915527">
        <ele>625.067256</ele>
        <time>2022-02-19T13:06:35.015Z</time>
      </trkpt>
      <trkpt lat="47.529708" lon="7.915622">
        <ele>625.650504</ele>
        <time>2022-02-19T13:06:39.993Z</time>
      </trkpt>
      <trkpt lat="47.529632" lon="7.915698">
        <ele>626.192461</ele>
        <time>2022-02-19T13:06:47.976Z</time>
      </trkpt>
      <trkpt lat="47.529551" lon="7.915772">
        <ele>626.617538</ele>
        <time>2022-02-19T13:06:57.000Z</time>
      </trkpt>
      <trkpt lat="47.529464" lon="7.915832">
        <ele>625.873683</ele>
        <time>2022-02-19T13:07:04.987Z</time>
      </trkpt>
      <trkpt lat="47.529372" lon="7.915884">
        <ele>625.110434</ele>
        <time>2022-02-19T13:07:12.995Z</time>
      </trkpt>
      <trkpt lat="47.529284" lon="7.915961">
        <ele>624.318206</ele>
        <time>2022-02-19T13:07:20.987Z</time>
      </trkpt>
      <trkpt lat="47.529197" lon="7.916012">
        <ele>623.592975</ele>
        <time>2022-02-19T13:07:26.023Z</time>
      </trkpt>
      <trkpt lat="47.529157" lon="7.916136">
        <ele>622.873762</ele>
        <time>2022-02-19T13:07:34.986Z</time>
      </trkpt>
      <trkpt lat="47.529072" lon="7.916197">
        <ele>622.141663</ele>
        <time>2022-02-19T13:07:40.988Z</time>
      </trkpt>
      <trkpt lat="47.528974" lon="7.916255">
        <ele>621.323669</ele>
        <time>2022-02-19T13:07:44.891Z</time>
      </trkpt>
      <trkpt lat="47.528894" lon="7.916315">
        <ele>620.628619</ele>
        <time>2022-02-19T13:07:54.910Z</time>
      </trkpt>
      <trkpt lat="47.528811" lon="7.916402">
        <ele>619.840468</ele>
        <time>2022-02-19T13:08:01.882Z</time>
      </trkpt>
      <trkpt lat="47.528707" lon="7.916457">
        <ele>618.984522</ele>
        <time>2022-02-19T13:08:11.893Z</time>
      </trkpt>
      <trkpt lat="47.528636" lon="7.916543">
        <ele>618.273590</ele>
        <time>2022-02-19T13:08:21.875Z</time>
      </trkpt>
      <trkpt lat="47.528536" lon="7.916592">
        <ele>617.457178</ele>
        <time>2022-02-19T13:08:25.911Z</time>
      </trkpt>
      <trkpt lat="47.528446" lon="7.916661">
        <ele>616.671668</ele>
        <time>2022-02-19T13:08:36.672Z</time>
      </trkpt>
      <trkpt lat="47.528355" lon="7.916699">
        <ele>615.938835</ele>
        <time>2022-02-19T13:08:40.917Z</time>
      </trkpt>
      <trkpt lat="47.528280" lon="7.916807">
        <ele>615.128023</ele>
        <time>2022-02-19T13:08:50.882Z</time>
      </trkpt>
      <trkpt lat="47.528212" lon="7.916905">
        <ele>614.392595</ele>
        <time>2022-02-19T13:08:59.881Z</time>
      </trkpt>
      <trkpt lat="47.528140" lon="7.917031">
        <ele>613.528713</ele>
        <time>2022-02-19T13:09:03.883Z</time>
      </trkpt>
      <trkpt lat="47.528078" lon="7.917167">
        <ele>612.738166</ele>
        <time>2022-02-19T13:09:14.887Z</time>
      </trkpt>
      <trkpt lat="47.528015" lon="7.917286">
        <ele>612.586288</ele>
        <time>2022-02-19T13:09:25.877Z</time>
      </trkpt>
      <trkpt lat="47.527919" lon="7.917390">
        <ele>612.409365</ele>
        <time>2022-02-19T13:09:29.889Z</time>
      </trkpt>
      <trkpt lat="47.527871" lon="7.917523">
        <ele>612.257898</ele>
        <time>2022-02-19T13:09:41.892Z</time>
      </trkpt>
      <trkpt lat="47.527801" lon="7.917626">
        <ele>612.111121</ele>
        <time>2022-02-19T13:09:44.882Z</time>
      </trkpt>
      <trkpt lat="47.527768" lon="7.917762">
        <ele>611.965972</ele>
        <time>2022-02-19T13:09:56.895Z</time>
      </trkpt>
      <trkpt lat="47.527696" lon="7.917859">
        <ele>611.821191</ele>
        <time>2022-02-19T13:10:00.884Z</time>
      </trkpt>
      <trkpt lat="47.527626" lon="7.917962">
        <ele>611.674413</ele>
        <time>2022-02-19T13:10:09.877Z</time>
      </trkpt>
      <trkpt lat="47.527561" lon="7.918057">
        <ele>611.538574</ele>
        <time>2022-02-19T13:10:16.886Z</time>
      </trkpt>
      <trkpt lat="47.527501" lon="7.918158">
        <ele>611.403459</ele>
        <time>2022-02-19T13:10:22.889Z</time>
      </trkpt>
      <trkpt lat="47.527442" lon="7.918265">
        <ele>611.264709</ele>
        <time>2022-02-19T13:10:28.886Z</time>
      </trkpt>
      <trkpt lat="47.527385" lon="7.918372">
        <ele>611.127821</ele>
        <time>2022-02-19T13:10:36.893Z</time>
      </trkpt>
      <trkpt lat="47.527295" lon="7.918393">
        <ele>610.992298</ele>
        <time>2022-02-19T13:10:43.886Z</time>
      </trkpt>
      <trkpt lat="47.527191" lon="7.918376">
        <ele>610.836662</ele>
        <time>2022-02-19T13:10:51.882Z</time>
      </trkpt>
      <trkpt lat="47.527100" lon="7.918348">
        <ele>610.698412</ele>
        <time>2022-02-19T13:10:58.881Z</time>
      </trkpt>
      <trkpt lat="47.527005" lon="7.918287">
        <ele>610.544392</ele>
        <time>2022-02-19T13:11:08.891Z</time>
      </trkpt>
      <trkpt lat="47.526923" lon="7.918211">
        <ele>610.400503</ele>
        <time>2022-02-19T13:11:13.887Z</time>
      </trkpt>
      <trkpt lat="47.526825" lon="7.918165">
        <ele>610.247585</ele>
        <time>2022-02-19T13:11:21.889Z</time>
      </trkpt>
      <trkpt lat="47.526736" lon="7.918122">
        <ele>610.108333</ele>
        <time>2022-02-19T13:11:30.887Z</time>
      </trkpt>
      <trkpt lat="47.526632" lon="7.918095">
        <ele>610.350066</ele>
        <time>2022-02-19T13:11:39.890Z</time>
      </trkpt>
      <trkpt lat="47.526543" lon="7.918076">
        <ele>610.634063</ele>
        <time>2022-02-19T13:11:45.888Z</time>
      </trkpt>
      <trkpt lat="47.526466" lon="7.918155">
        <ele>610.929913</ele>
        <time>2022-02-19T13:11:51.886Z</time>
      </trkpt>
      <trkpt lat="47.526418" lon="7.918280">
        <ele>611.236587</ele>
        <time>2022-02-19T13:11:58.881Z</time>
      </trkpt>
      <trkpt lat="47.526384" lon="7.918404">
        <ele>611.522007</ele>
        <time>2022-02-19T13:12:06.895Z</time>
      </trkpt>
      <trkpt lat="47.526343" lon="7.918536">
        <ele>611.831873</ele>
        <time>2022-02-19T13:12:13.895Z</time>
      </trkpt>
      <trkpt lat="47.526301" lon="7.918668">
        <ele>612.143071</ele>
        <time>2022-02-19T13:12:21.885Z</time>
      </trkpt>
      <trkpt lat="47.526249" lon="7.918797">
        <ele>612.463478</ele>
        <time>2022-02-19T13:12:30.883Z</time>
      </trkpt>
      <trkpt lat="47.526200" lon="7.918919">
        <ele>612.766209</ele>
        <time>2022-02-19T13:12:37.886Z</time>
      </trkpt>
      <trkpt lat="47.526155" lon="7.919037">
        <ele>613.055224</ele>
        <time>2022-02-19T13:12:45.910Z</time>
      </trkpt>
      <trkpt lat="47.526099" lon="7.919150">
        <ele>613.354154</ele>
        <time>2022-02-19T13:12:52.913Z</time>
      </trkpt>
      <trkpt lat="47.526050" lon="7.919263">
        <ele>613.640558</ele>
        <time>2022-02-19T13:12:58.920Z</time>
      </trkpt>
      <trkpt lat="47.525999" lon="7.919531">
        <ele>614.234378</ele>
        <time>2022-02-19T13:13:06.516Z</time>
      </trkpt>
      <trkpt lat="47.525961" lon="7.919674">
        <ele>614.562116</ele>
        <time>2022-02-19T13:13:17.494Z</time>
      </trkpt>
      <trkpt lat="47.525892" lon="7.919784">
        <ele>614.882313</ele>
        <time>2022-02-19T13:13:21.524Z</time>
      </trkpt>
      <trkpt lat="47.525853" lon="7.919921">
        <ele>615.199393</ele>
        <time>2022-02-19T13:13:35.491Z</time>
      </trkpt>
      <trkpt lat="47.525788" lon="7.920025">
        <ele>615.501616</ele>
        <time>2022-02-19T13:13:39.556Z</time>
      </trkpt>
      <trkpt lat="47.525744" lon="7.920145">
        <ele>615.743492</ele>
        <time>2022-02-19T13:13:45.531Z</time>
      </trkpt>
      <trkpt lat="47.525703" lon="7.920286">
        <ele>615.583917</ele>
        <time>2022-02-19T13:13:55.482Z</time>
      </trkpt>
      <trkpt lat="47.525647" lon="7.920418">
        <ele>615.421878</ele>
        <time>2022-02-19T13:14:00.485Z</time>
      </trkpt>
      <trkpt lat="47.525597" lon="7.920535">
        <ele>615.277953</ele>
        <time>2022-02-19T13:14:12.484Z</time>
      </trkpt>
      <trkpt lat="47.525507" lon="7.920635">
        <ele>615.104753</ele>
        <time>2022-02-19T13:14:17.497Z</time>
      </trkpt>
      <trkpt lat="47.525447" lon="7.920744">
        <ele>614.958577</ele>
        <time>2022-02-19T13:14:21.520Z</time>
      </trkpt>
      <trkpt lat="47.525409" lon="7.920884">
        <ele>614.801736</ele>
        <time>2022-02-19T13:14:46.519Z</time>
      </trkpt>
      <trkpt lat="47.525342" lon="7.920979">
        <ele>614.658949</ele>
        <time>2022-02-19T13:14:50.486Z</time>
      </trkpt>
      <trkpt lat="47.525296" lon="7.921102">
        <ele>614.512797</ele>
        <time>2022-02-19T13:14:55.491Z</time>
      </trkpt>
      <trkpt lat="47.525266" lon="7.921227">
        <ele>614.374901</ele>
        <time>2022-02-19T13:15:06.502Z</time>
      </trkpt>
      <trkpt lat="47.525201" lon="7.921339">
        <ele>614.221393</ele>
        <time>2022-02-19T13:15:13.791Z</time>
      </trkpt>
      <trkpt lat="47.525131" lon="7.921432">
        <ele>614.076631</ele>
        <time>2022-02-19T13:15:20.486Z</time>
      </trkpt>
      <trkpt lat="47.525055" lon="7.921530">
        <ele>613.921506</ele>
        <time>2022-02-19T13:15:27.479Z</time>
      </trkpt>
      <trkpt lat="47.524985" lon="7.921618">
        <ele>613.780162</ele>
        <time>2022-02-19T13:15:34.578Z</time>
      </trkpt>
      <trkpt lat="47.524924" lon="7.921723">
        <ele>613.636185</ele>
        <time>2022-02-19T13:15:43.486Z</time>
      </trkpt>
      <trkpt lat="47.524863" lon="7.921847">
        <ele>613.476714</ele>
        <time>2022-02-19T13:15:50.520Z</time>
      </trkpt>
      <trkpt lat="47.524801" lon="7.921953">
        <ele>613.330944</ele>
        <time>2022-02-19T13:15:56.484Z</time>
      </trkpt>
      <trkpt lat="47.524727" lon="7.922049">
        <ele>613.179505</ele>
        <time>2022-02-19T13:16:06.579Z</time>
      </trkpt>
      <trkpt lat="47.524662" lon="7.922141">
        <ele>613.041097</ele>
        <time>2022-02-19T13:16:12.492Z</time>
      </trkpt>
      <trkpt lat="47.524593" lon="7.922253">
        <ele>613.031985</ele>
        <time>2022-02-19T13:16:18.493Z</time>
      </trkpt>
      <trkpt lat="47.524514" lon="7.922331">
        <ele>613.087823</ele>
        <time>2022-02-19T13:16:26.524Z</time>
      </trkpt>
      <trkpt lat="47.524454" lon="7.922433">
        <ele>613.141542</ele>
        <time>2022-02-19T13:16:33.498Z</time>
      </trkpt>
      <trkpt lat="47.524383" lon="7.922535">
        <ele>613.199715</ele>
        <time>2022-02-19T13:16:40.484Z</time>
      </trkpt>
      <trkpt lat="47.524323" lon="7.922637">
        <ele>613.253435</ele>
        <time>2022-02-19T13:16:48.487Z</time>
      </trkpt>
      <trkpt lat="47.524256" lon="7.922740">
        <ele>613.310229</ele>
        <time>2022-02-19T13:16:56.493Z</time>
      </trkpt>
      <trkpt lat="47.524192" lon="7.922837">
        <ele>613.364084</ele>
        <time>2022-02-19T13:17:02.497Z</time>
      </trkpt>
      <trkpt lat="47.524125" lon="7.922936">
        <ele>613.419745</ele>
        <time>2022-02-19T13:17:10.497Z</time>
      </trkpt>
      <trkpt lat="47.524063" lon="7.923058">
        <ele>613.480381</ele>
        <time>2022-02-19T13:17:16.483Z</time>
      </trkpt>
      <trkpt lat="47.523985" lon="7.923158">
        <ele>613.541053</ele>
        <time>2022-02-19T13:17:26.499Z</time>
      </trkpt>
      <trkpt lat="47.523921" lon="7.923273">
        <ele>613.600233</ele>
        <time>2022-02-19T13:17:32.482Z</time>
      </trkpt>
      <trkpt lat="47.523857" lon="7.923385">
        <ele>613.658498</ele>
        <time>2022-02-19T13:17:40.473Z</time>
      </trkpt>
      <trkpt lat="47.523784" lon="7.923488">
        <ele>613.717795</ele>
        <time>2022-02-19T13:17:48.491Z</time>
      </trkpt>
      <trkpt lat="47.523714" lon="7.923579">
        <ele>613.772573</ele>
        <time>2022-02-19T13:17:55.501Z</time>
      </trkpt>
      <trkpt lat="47.523636" lon="7.923662">
        <ele>613.829058</ele>
        <time>2022-02-19T13:18:02.737Z</time>
      </trkpt>
      <trkpt lat="47.523561" lon="7.923747">
        <ele>613.884599</ele>
        <time>2022-02-19T13:18:10.478Z</time>
      </trkpt>
      <trkpt lat="47.523479" lon="7.923822">
        <ele>613.941278</ele>
        <time>2022-02-19T13:18:19.474Z</time>
      </trkpt>
      <trkpt lat="47.523411" lon="7.923949">
        <ele>614.005643</ele>
        <time>2022-02-19T13:18:25.509Z</time>
      </trkpt>
      <trkpt lat="47.523332" lon="7.924051">
        <ele>613.939019</ele>
        <time>2022-02-19T13:18:33.484Z</time>
      </trkpt>
      <trkpt lat="47.523264" lon="7.924152">
        <ele>613.604846</ele>
        <time>2022-02-19T13:18:39.577Z</time>
      </trkpt>
      <trkpt lat="47.523204" lon="7.924270">
        <ele>613.258749</ele>
        <time>2022-02-19T13:18:47.559Z</time>
      </trkpt>
      <trkpt lat="47.523137" lon="7.924372">
        <ele>612.925340</ele>
        <time>2022-02-19T13:18:57.522Z</time>
      </trkpt>
      <trkpt lat="47.523085" lon="7.924481">
        <ele>612.612641</ele>
        <time>2022-02-19T13:19:04.493Z</time>
      </trkpt>
      <trkpt lat="47.523011" lon="7.924556">
        <ele>612.301502</ele>
        <time>2022-02-19T13:19:09.496Z</time>
      </trkpt>
      <trkpt lat="47.522934" lon="7.924661">
        <ele>611.938312</ele>
        <time>2022-02-19T13:19:25.527Z</time>
      </trkpt>
      <trkpt lat="47.522885" lon="7.924790">
        <ele>611.591518</ele>
        <time>2022-02-19T13:19:30.513Z</time>
      </trkpt>
      <trkpt lat="47.522817" lon="7.924902">
        <ele>611.238621</ele>
        <time>2022-02-19T13:19:36.547Z</time>
      </trkpt>
      <trkpt lat="47.522741" lon="7.924995">
        <ele>610.896537</ele>
        <time>2022-02-19T13:19:47.508Z</time>
      </trkpt>
      <trkpt lat="47.522691" lon="7.925125">
        <ele>610.545994</ele>
        <time>2022-02-19T13:19:54.546Z</time>
      </trkpt>
      <trkpt lat="47.522627" lon="7.925248">
        <ele>610.182164</ele>
        <time>2022-02-19T13:20:03.503Z</time>
      </trkpt>
      <trkpt lat="47.522564" lon="7.925370">
        <ele>609.822306</ele>
        <time>2022-02-19T13:20:08.547Z</time>
      </trkpt>
      <trkpt lat="47.522484" lon="7.925435">
        <ele>609.505690</ele>
        <time>2022-02-19T13:20:17.505Z</time>
      </trkpt>
      <trkpt lat="47.522423" lon="7.925541">
        <ele>609.179370</ele>
        <time>2022-02-19T13:20:23.504Z</time>
      </trkpt>
      <trkpt lat="47.522358" lon="7.925639">
        <ele>608.857512</ele>
        <time>2022-02-19T13:20:32.512Z</time>
      </trkpt>
      <trkpt lat="47.522281" lon="7.925749">
        <ele>608.486283</ele>
        <time>2022-02-19T13:20:39.526Z</time>
      </trkpt>
      <trkpt lat="47.522219" lon="7.925859">
        <ele>608.150560</ele>
        <time>2022-02-19T13:20:47.546Z</time>
      </trkpt>
      <trkpt lat="47.522145" lon="7.925970">
        <ele>607.771174</ele>
        <time>2022-02-19T13:20:54.519Z</time>
      </trkpt>
      <trkpt lat="47.522078" lon="7.926070">
        <ele>607.239697</ele>
        <time>2022-02-19T13:21:01.561Z</time>
      </trkpt>
      <trkpt lat="47.522011" lon="7.926189">
        <ele>606.655147</ele>
        <time>2022-02-19T13:21:11.524Z</time>
      </trkpt>
      <trkpt lat="47.521956" lon="7.926301">
        <ele>606.132668</ele>
        <time>2022-02-19T13:21:18.513Z</time>
      </trkpt>
      <trkpt lat="47.521890" lon="7.926411">
        <ele>605.577501</ele>
        <time>2022-02-19T13:21:25.551Z</time>
      </trkpt>
      <trkpt lat="47.521833" lon="7.926523">
        <ele>605.048372</ele>
        <time>2022-02-19T13:21:31.505Z</time>
      </trkpt>
      <trkpt lat="47.521767" lon="7.926615">
        <ele>604.541961</ele>
        <time>2022-02-19T13:21:40.520Z</time>
      </trkpt>
      <trkpt lat="47.521704" lon="7.926715">
        <ele>604.025978</ele>
        <time>2022-02-19T13:21:46.517Z</time>
      </trkpt>
      <trkpt lat="47.521626" lon="7.926801">
        <ele>603.482666</ele>
        <time>2022-02-19T13:21:55.523Z</time>
      </trkpt>
      <trkpt lat="47.521550" lon="7.926922">
        <ele>602.859201</ele>
        <time>2022-02-19T13:22:01.506Z</time>
      </trkpt>
      <trkpt lat="47.521478" lon="7.927005">
        <ele>602.349418</ele>
        <time>2022-02-19T13:22:11.516Z</time>
      </trkpt>
      <trkpt lat="47.521410" lon="7.927107">
        <ele>601.808644</ele>
        <time>2022-02-19T13:22:17.519Z</time>
      </trkpt>
      <trkpt lat="47.521348" lon="7.927209">
        <ele>601.290871</ele>
        <time>2022-02-19T13:22:27.524Z</time>
      </trkpt>
      <trkpt lat="47.521293" lon="7.927314">
        <ele>600.789507</ele>
        <time>2022-02-19T13:22:32.517Z</time>
      </trkpt>
      <trkpt lat="47.521238" lon="7.927425">
        <ele>600.270070</ele>
        <time>2022-02-19T13:22:38.520Z</time>
      </trkpt>
      <trkpt lat="47.521175" lon="7.927535">
        <ele>599.725887</ele>
        <time>2022-02-19T13:22:47.527Z</time>
      </trkpt>
      <trkpt lat="47.521116" lon="7.927648">
        <ele>599.186975</ele>
        <time>2022-02-19T13:22:53.522Z</time>
      </trkpt>
      <trkpt lat="47.521037" lon="7.927741">
        <ele>598.623123</ele>
        <time>2022-02-19T13:23:02.522Z</time>
      </trkpt>
      <trkpt lat="47.520960" lon="7.927841">
        <ele>598.050916</ele>
        <time>2022-02-19T13:23:08.514Z</time>
      </trkpt>
      <trkpt lat="47.520889" lon="7.927931">
        <ele>597.661166</ele>
        <time>2022-02-19T13:23:17.526Z</time>
      </trkpt>
      <trkpt lat="47.520831" lon="7.928033">
        <ele>597.447452</ele>
        <time>2022-02-19T13:23:22.524Z</time>
      </trkpt>
      <trkpt lat="47.520761" lon="7.928137">
        <ele>597.212115</ele>
        <time>2022-02-19T13:23:33.517Z</time>
      </trkpt>
      <trkpt lat="47.520696" lon="7.928252">
        <ele>596.971762</ele>
        <time>2022-02-19T13:23:38.528Z</time>
      </trkpt>
      <trkpt lat="47.520632" lon="7.928357">
        <ele>596.745064</ele>
        <time>2022-02-19T13:23:47.516Z</time>
      </trkpt>
      <trkpt lat="47.520559" lon="7.928457">
        <ele>596.509048</ele>
        <time>2022-02-19T13:23:53.518Z</time>
      </trkpt>
      <trkpt lat="47.520492" lon="7.928556">
        <ele>596.284412</ele>
        <time>2022-02-19T13:23:59.518Z</time>
      </trkpt>
      <trkpt lat="47.520419" lon="7.928654">
        <ele>596.050560</ele>
        <time>2022-02-19T13:24:07.517Z</time>
      </trkpt>
      <trkpt lat="47.520360" lon="7.928765">
        <ele>595.824159</ele>
        <time>2022-02-19T13:24:12.530Z</time>
      </trkpt>
      <trkpt lat="47.520293" lon="7.928880">
        <ele>595.580731</ele>
        <time>2022-02-19T13:24:24.517Z</time>
      </trkpt>
      <trkpt lat="47.520234" lon="7.928992">
        <ele>595.353068</ele>
        <time>2022-02-19T13:24:29.518Z</time>
      </trkpt>
      <trkpt lat="47.520158" lon="7.929068">
        <ele>595.135419</ele>
        <time>2022-02-19T13:24:38.512Z</time>
      </trkpt>
      <trkpt lat="47.520083" lon="7.929158">
        <ele>594.906310</ele>
        <time>2022-02-19T13:24:44.545Z</time>
      </trkpt>
      <trkpt lat="47.520001" lon="7.929246">
        <ele>594.665964</ele>
        <time>2022-02-19T13:24:50.514Z</time>
      </trkpt>
      <trkpt lat="47.519915" lon="7.929329">
        <ele>594.422334</ele>
        <time>2022-02-19T13:24:59.523Z</time>
      </trkpt>
      <trkpt lat="47.519844" lon="7.929430">
        <ele>594.188671</ele>
        <time>2022-02-19T13:25:05.508Z</time>
      </trkpt>
      <trkpt lat="47.519763" lon="7.929528">
        <ele>593.940424</ele>
        <time>2022-02-19T13:25:16.522Z</time>
      </trkpt>
      <trkpt lat="47.519691" lon="7.929615">
        <ele>593.719872</ele>
        <time>2022-02-19T13:25:21.546Z</time>
      </trkpt>
      <trkpt lat="47.519611" lon="7.929691">
        <ele>593.494292</ele>
        <time>2022-02-19T13:25:26.555Z</time>
      </trkpt>
      <trkpt lat="47.519548" lon="7.929786">
        <ele>593.464160</ele>
        <time>2022-02-19T13:25:34.526Z</time>
      </trkpt>
      <trkpt lat="47.519465" lon="7.929853">
        <ele>593.436213</ele>
        <time>2022-02-19T13:25:42.505Z</time>
      </trkpt>
      <trkpt lat="47.519383" lon="7.929909">
        <ele>593.409516</ele>
        <time>2022-02-19T13:25:51.517Z</time>
      </trkpt>
      <trkpt lat="47.519302" lon="7.929977">
        <ele>593.381989</ele>
        <time>2022-02-19T13:25:56.508Z</time>
      </trkpt>
      <trkpt lat="47.519224" lon="7.930049">
        <ele>593.354815</ele>
        <time>2022-02-19T13:26:03.552Z</time>
      </trkpt>
      <trkpt lat="47.519145" lon="7.930154">
        <ele>593.323431</ele>
        <time>2022-02-19T13:26:15.511Z</time>
      </trkpt>
      <trkpt lat="47.519056" lon="7.930207">
        <ele>593.295071</ele>
        <time>2022-02-19T13:26:19.516Z</time>
      </trkpt>
      <trkpt lat="47.518973" lon="7.930275">
        <ele>593.267028</ele>
        <time>2022-02-19T13:26:24.519Z</time>
      </trkpt>
      <trkpt lat="47.518875" lon="7.930359">
        <ele>593.233551</ele>
        <time>2022-02-19T13:26:37.517Z</time>
      </trkpt>
      <trkpt lat="47.518780" lon="7.930412">
        <ele>593.203538</ele>
        <time>2022-02-19T13:26:41.514Z</time>
      </trkpt>
      <trkpt lat="47.518694" lon="7.930510">
        <ele>593.171456</ele>
        <time>2022-02-19T13:26:53.513Z</time>
      </trkpt>
      <trkpt lat="47.518618" lon="7.930582">
        <ele>593.144782</ele>
        <time>2022-02-19T13:27:02.569Z</time>
      </trkpt>
      <trkpt lat="47.518517" lon="7.930626">
        <ele>593.113657</ele>
        <time>2022-02-19T13:27:09.511Z</time>
      </trkpt>
      <trkpt lat="47.518428" lon="7.930682">
        <ele>593.085068</ele>
        <time>2022-02-19T13:27:15.533Z</time>
      </trkpt>
      <trkpt lat="47.518325" lon="7.930753">
        <ele>593.051480</ele>
        <time>2022-02-19T13:27:24.524Z</time>
      </trkpt>
      <trkpt lat="47.518245" lon="7.930815">
        <ele>593.024785</ele>
        <time>2022-02-19T13:27:30.510Z</time>
      </trkpt>
      <trkpt lat="47.518169" lon="7.930894">
        <ele>592.997333</ele>
        <time>2022-02-19T13:27:39.514Z</time>
      </trkpt>
      <trkpt lat="47.518078" lon="7.930914">
        <ele>592.970135</ele>
        <time>2022-02-19T13:27:42.519Z</time>
      </trkpt>
      <trkpt lat="47.517990" lon="7.930959">
        <ele>592.908619</ele>
        <time>2022-02-19T13:27:47.517Z</time>
      </trkpt>
      <trkpt lat="47.517916" lon="7.931046">
        <ele>592.820889</ele>
        <time>2022-02-19T13:27:57.526Z</time>
      </trkpt>
      <trkpt lat="47.517826" lon="7.931099">
        <ele>592.730961</ele>
        <time>2022-02-19T13:28:02.517Z</time>
      </trkpt>
      <trkpt lat="47.517731" lon="7.931155">
        <ele>592.636025</ele>
        <time>2022-02-19T13:28:13.514Z</time>
      </trkpt>
      <trkpt lat="47.517636" lon="7.931197">
        <ele>592.543973</ele>
        <time>2022-02-19T13:28:18.514Z</time>
      </trkpt>
      <trkpt lat="47.517539" lon="7.931223">
        <ele>592.452449</ele>
        <time>2022-02-19T13:28:29.545Z</time>
      </trkpt>
      <trkpt lat="47.517454" lon="7.931270">
        <ele>592.368206</ele>
        <time>2022-02-19T13:28:34.511Z</time>
      </trkpt>
      <trkpt lat="47.517352" lon="7.931317">
        <ele>592.269024</ele>
        <time>2022-02-19T13:28:46.525Z</time>
      </trkpt>
      <trkpt lat="47.517257" lon="7.931348">
        <ele>592.178703</ele>
        <time>2022-02-19T13:28:51.518Z</time>
      </trkpt>
      <trkpt lat="47.517164" lon="7.931396">
        <ele>592.087261</ele>
        <time>2022-02-19T13:29:00.522Z</time>
      </trkpt>
      <trkpt lat="47.517070" lon="7.931422">
        <ele>591.998476</ele>
        <time>2022-02-19T13:29:07.515Z</time>
      </trkpt>
      <trkpt lat="47.516975" lon="7.931456">
        <ele>591.907732</ele>
        <time>2022-02-19T13:29:14.514Z</time>
      </trkpt>
      <trkpt lat="47.516882" lon="7.931471">
        <ele>591.820874</ele>
        <time>2022-02-19T13:29:19.516Z</time>
      </trkpt>
      <trkpt lat="47.516796" lon="7.931513">
        <ele>591.736795</ele>
        <time>2022-02-19T13:29:25.514Z</time>
      </trkpt>
      <trkpt lat="47.516706" lon="7.931567">
        <ele>591.646634</ele>
        <time>2022-02-19T13:29:30.529Z</time>
      </trkpt>
      <trkpt lat="47.516596" lon="7.931559">
        <ele>591.544380</ele>
        <time>2022-02-19T13:29:44.524Z</time>
      </trkpt>
      <trkpt lat="47.516511" lon="7.931606">
        <ele>591.460137</ele>
        <time>2022-02-19T13:29:52.523Z</time>
      </trkpt>
      <trkpt lat="47.516419" lon="7.931610">
        <ele>591.374682</ele>
        <time>2022-02-19T13:30:00.516Z</time>
      </trkpt>
      <trkpt lat="47.516322" lon="7.931620">
        <ele>591.306684</ele>
        <time>2022-02-19T13:30:08.546Z</time>
      </trkpt>
      <trkpt lat="47.516223" lon="7.931636">
        <ele>591.714556</ele>
        <time>2022-02-19T13:30:15.509Z</time>
      </trkpt>
      <trkpt lat="47.516136" lon="7.931683">
        <ele>592.093849</ele>
        <time>2022-02-19T13:30:21.515Z</time>
      </trkpt>
      <trkpt lat="47.516059" lon="7.931762">
        <ele>592.477521</ele>
        <time>2022-02-19T13:30:26.525Z</time>
      </trkpt>
      <trkpt lat="47.516059" lon="7.931954">
        <ele>593.008612</ele>
        <time>2022-02-19T13:30:36.671Z</time>
      </trkpt>
      <trkpt lat="47.516090" lon="7.932086">
        <ele>593.395181</ele>
        <time>2022-02-19T13:30:44.509Z</time>
      </trkpt>
      <trkpt lat="47.516111" lon="7.932229">
        <ele>593.799976</ele>
        <time>2022-02-19T13:30:55.515Z</time>
      </trkpt>
      <trkpt lat="47.516124" lon="7.932373">
        <ele>594.201836</ele>
        <time>2022-02-19T13:31:03.586Z</time>
      </trkpt>
      <trkpt lat="47.516149" lon="7.932510">
        <ele>594.594379</ele>
        <time>2022-02-19T13:31:13.510Z</time>
      </trkpt>
      <trkpt lat="47.516167" lon="7.932650">
        <ele>594.988587</ele>
        <time>2022-02-19T13:31:21.517Z</time>
      </trkpt>
      <trkpt lat="47.516213" lon="7.932766">
        <ele>595.360674</ele>
        <time>2022-02-19T13:31:28.554Z</time>
      </trkpt>
      <trkpt lat="47.516226" lon="7.932898">
        <ele>595.729660</ele>
        <time>2022-02-19T13:31:35.554Z</time>
      </trkpt>
      <trkpt lat="47.516278" lon="7.933011">
        <ele>596.107886</ele>
        <time>2022-02-19T13:31:43.517Z</time>
      </trkpt>
      <trkpt lat="47.516318" lon="7.933148">
        <ele>596.520735</ele>
        <time>2022-02-19T13:31:51.511Z</time>
      </trkpt>
      <trkpt lat="47.516350" lon="7.933276">
        <ele>596.898272</ele>
        <time>2022-02-19T13:31:59.518Z</time>
      </trkpt>
      <trkpt lat="47.516407" lon="7.933402">
        <ele>597.317758</ele>
        <time>2022-02-19T13:32:09.517Z</time>
      </trkpt>
      <trkpt lat="47.516459" lon="7.933513">
        <ele>597.691425</ele>
        <time>2022-02-19T13:32:17.528Z</time>
      </trkpt>
      <trkpt lat="47.516506" lon="7.933638">
        <ele>598.087156</ele>
        <time>2022-02-19T13:32:25.525Z</time>
      </trkpt>
      <trkpt lat="47.516565" lon="7.933751">
        <ele>598.482236</ele>
        <time>2022-02-19T13:32:34.254Z</time>
      </trkpt>
      <trkpt lat="47.516620" lon="7.933870">
        <ele>598.614756</ele>
        <time>2022-02-19T13:32:40.513Z</time>
      </trkpt>
      <trkpt lat="47.516678" lon="7.933975">
        <ele>598.547900</ele>
        <time>2022-02-19T13:32:46.529Z</time>
      </trkpt>
      <trkpt lat="47.516735" lon="7.934079">
        <ele>598.481887</ele>
        <time>2022-02-19T13:32:54.513Z</time>
      </trkpt>
      <trkpt lat="47.516798" lon="7.934175">
        <ele>598.415913</ele>
        <time>2022-02-19T13:33:04.519Z</time>
      </trkpt>
      <trkpt lat="47.516861" lon="7.934299">
        <ele>598.339435</ele>
        <time>2022-02-19T13:33:12.554Z</time>
      </trkpt>
      <trkpt lat="47.516926" lon="7.934419">
        <ele>598.263619</ele>
        <time>2022-02-19T13:33:20.529Z</time>
      </trkpt>
      <trkpt lat="47.516992" lon="7.934531">
        <ele>598.190359</ele>
        <time>2022-02-19T13:33:28.556Z</time>
      </trkpt>
      <trkpt lat="47.517051" lon="7.934638">
        <ele>598.122278</ele>
        <time>2022-02-19T13:33:35.521Z</time>
      </trkpt>
      <trkpt lat="47.517111" lon="7.934742">
        <ele>598.054864</ele>
        <time>2022-02-19T13:33:41.530Z</time>
      </trkpt>
      <trkpt lat="47.517127" lon="7.934889">
        <ele>597.981478</ele>
        <time>2022-02-19T13:33:49.526Z</time>
      </trkpt>
      <trkpt lat="47.517058" lon="7.934976">
        <ele>597.915341</ele>
        <time>2022-02-19T13:33:55.519Z</time>
      </trkpt>
      <trkpt lat="47.516983" lon="7.935053">
        <ele>597.848738</ele>
        <time>2022-02-19T13:34:02.523Z</time>
      </trkpt>
      <trkpt lat="47.516898" lon="7.935126">
        <ele>597.777028</ele>
        <time>2022-02-19T13:34:10.518Z</time>
      </trkpt>
      <trkpt lat="47.516814" lon="7.935205">
        <ele>597.704407</ele>
        <time>2022-02-19T13:34:19.520Z</time>
      </trkpt>
      <trkpt lat="47.516740" lon="7.935310">
        <ele>597.629610</ele>
        <time>2022-02-19T13:34:25.524Z</time>
      </trkpt>
      <trkpt lat="47.516667" lon="7.935391">
        <ele>597.563038</ele>
        <time>2022-02-19T13:34:33.521Z</time>
      </trkpt>
      <trkpt lat="47.516592" lon="7.935478">
        <ele>597.493509</ele>
        <time>2022-02-19T13:34:42.008Z</time>
      </trkpt>
      <trkpt lat="47.516517" lon="7.935560">
        <ele>597.425471</ele>
        <time>2022-02-19T13:34:50.007Z</time>
      </trkpt>
      <trkpt lat="47.516446" lon="7.935649">
        <ele>597.357583</ele>
        <time>2022-02-19T13:34:56.992Z</time>
      </trkpt>
      <trkpt lat="47.516368" lon="7.935743">
        <ele>596.775512</ele>
        <time>2022-02-19T13:35:04.002Z</time>
      </trkpt>
      <trkpt lat="47.516242" lon="7.935911">
        <ele>595.571187</ele>
        <time>2022-02-19T13:35:18.843Z</time>
      </trkpt>
      <trkpt lat="47.516145" lon="7.936015">
        <ele>594.720562</ele>
        <time>2022-02-19T13:35:29.011Z</time>
      </trkpt>
      <trkpt lat="47.516095" lon="7.936140">
        <ele>594.023656</ele>
        <time>2022-02-19T13:35:39.997Z</time>
      </trkpt>
      <trkpt lat="47.516002" lon="7.936196">
        <ele>593.310569</ele>
        <time>2022-02-19T13:35:46.040Z</time>
      </trkpt>
      <trkpt lat="47.515927" lon="7.936297">
        <ele>592.590488</ele>
        <time>2022-02-19T13:35:51.048Z</time>
      </trkpt>
      <trkpt lat="47.515847" lon="7.936369">
        <ele>591.925534</ele>
        <time>2022-02-19T13:35:59.010Z</time>
      </trkpt>
      <trkpt lat="47.515762" lon="7.936455">
        <ele>591.194312</ele>
        <time>2022-02-19T13:36:04.997Z</time>
      </trkpt>
      <trkpt lat="47.515691" lon="7.936549">
        <ele>590.517817</ele>
        <time>2022-02-19T13:36:12.056Z</time>
      </trkpt>
      <trkpt lat="47.515620" lon="7.936657">
        <ele>589.794821</ele>
        <time>2022-02-19T13:36:23.007Z</time>
      </trkpt>
      <trkpt lat="47.515551" lon="7.936744">
        <ele>589.151110</ele>
        <time>2022-02-19T13:36:29.008Z</time>
      </trkpt>
      <trkpt lat="47.515485" lon="7.936835">
        <ele>588.510549</ele>
        <time>2022-02-19T13:36:40.003Z</time>
      </trkpt>
      <trkpt lat="47.515398" lon="7.936881">
        <ele>587.854395</ele>
        <time>2022-02-19T13:36:45.006Z</time>
      </trkpt>
      <trkpt lat="47.515341" lon="7.937015">
        <ele>587.094713</ele>
        <time>2022-02-19T13:36:56.008Z</time>
      </trkpt>
      <trkpt lat="47.515237" lon="7.937060">
        <ele>586.325135</ele>
        <time>2022-02-19T13:36:59.995Z</time>
      </trkpt>
      <trkpt lat="47.515146" lon="7.937097">
        <ele>585.654861</ele>
        <time>2022-02-19T13:37:07.995Z</time>
      </trkpt>
      <trkpt lat="47.515045" lon="7.937037">
        <ele>584.881899</ele>
        <time>2022-02-19T13:37:13.034Z</time>
      </trkpt>
      <trkpt lat="47.514947" lon="7.937043">
        <ele>584.124740</ele>
        <time>2022-02-19T13:37:22.000Z</time>
      </trkpt>
      <trkpt lat="47.514849" lon="7.937002">
        <ele>583.286854</ele>
        <time>2022-02-19T13:37:31.006Z</time>
      </trkpt>
      <trkpt lat="47.514750" lon="7.936979">
        <ele>582.462345</ele>
        <time>2022-02-19T13:37:39.008Z</time>
      </trkpt>
      <trkpt lat="47.514654" lon="7.936965">
        <ele>581.668663</ele>
        <time>2022-02-19T13:37:46.001Z</time>
      </trkpt>
      <trkpt lat="47.514554" lon="7.936937">
        <ele>580.831310</ele>
        <time>2022-02-19T13:37:55.005Z</time>
      </trkpt>
      <trkpt lat="47.514460" lon="7.936911">
        <ele>580.044526</ele>
        <time>2022-02-19T13:38:01.001Z</time>
      </trkpt>
      <trkpt lat="47.514370" lon="7.936890">
        <ele>579.294893</ele>
        <time>2022-02-19T13:38:08.011Z</time>
      </trkpt>
      <trkpt lat="47.514283" lon="7.936847">
        <ele>578.540253</ele>
        <time>2022-02-19T13:38:16.004Z</time>
      </trkpt>
      <trkpt lat="47.514191" lon="7.936811">
        <ele>577.757314</ele>
        <time>2022-02-19T13:38:23.003Z</time>
      </trkpt>
      <trkpt lat="47.514101" lon="7.936809">
        <ele>577.016737</ele>
        <time>2022-02-19T13:38:32.001Z</time>
      </trkpt>
      <trkpt lat="47.514012" lon="7.936782">
        <ele>576.269258</ele>
        <time>2022-02-19T13:38:37.987Z</time>
      </trkpt>
      <trkpt lat="47.513920" lon="7.936727">
        <ele>575.452933</ele>
        <time>2022-02-19T13:38:44.991Z</time>
      </trkpt>
      <trkpt lat="47.513814" lon="7.936685">
        <ele>574.550106</ele>
        <time>2022-02-19T13:38:50.978Z</time>
      </trkpt>
      <trkpt lat="47.513719" lon="7.936666">
        <ele>573.761375</ele>
        <time>2022-02-19T13:38:59.985Z</time>
      </trkpt>
      <trkpt lat="47.513625" lon="7.936593">
        <ele>572.888036</ele>
        <time>2022-02-19T13:39:04.017Z</time>
      </trkpt>
      <trkpt lat="47.513524" lon="7.936568">
        <ele>572.045505</ele>
        <time>2022-02-19T13:39:14.017Z</time>
      </trkpt>
      <trkpt lat="47.513442" lon="7.936495">
        <ele>571.258263</ele>
        <time>2022-02-19T13:39:18.008Z</time>
      </trkpt>
      <trkpt lat="47.513337" lon="7.936483">
        <ele>570.391784</ele>
        <time>2022-02-19T13:39:28.020Z</time>
      </trkpt>
      <trkpt lat="47.513236" lon="7.936514">
        <ele>569.751496</ele>
        <time>2022-02-19T13:39:36.978Z</time>
      </trkpt>
      <trkpt lat="47.513136" lon="7.936454">
        <ele>569.684529</ele>
        <time>2022-02-19T13:39:41.999Z</time>
      </trkpt>
      <trkpt lat="47.513042" lon="7.936402">
        <ele>569.622248</ele>
        <time>2022-02-19T13:39:52.018Z</time>
      </trkpt>
      <trkpt lat="47.512950" lon="7.936387">
        <ele>569.564803</ele>
        <time>2022-02-19T13:40:00.015Z</time>
      </trkpt>
      <trkpt lat="47.512849" lon="7.936375">
        <ele>569.501916</ele>
        <time>2022-02-19T13:40:08.052Z</time>
      </trkpt>
      <trkpt lat="47.512749" lon="7.936310">
        <ele>569.434133</ele>
        <time>2022-02-19T13:40:13.018Z</time>
      </trkpt>
      <trkpt lat="47.512652" lon="7.936295">
        <ele>569.373603</ele>
        <time>2022-02-19T13:40:19.001Z</time>
      </trkpt>
      <trkpt lat="47.512548" lon="7.936278">
        <ele>569.308663</ele>
        <time>2022-02-19T13:40:28.019Z</time>
      </trkpt>
      <trkpt lat="47.512439" lon="7.936255">
        <ele>569.240328</ele>
        <time>2022-02-19T13:40:37.017Z</time>
      </trkpt>
      <trkpt lat="47.512344" lon="7.936242">
        <ele>569.181115</ele>
        <time>2022-02-19T13:40:46.978Z</time>
      </trkpt>
      <trkpt lat="47.512240" lon="7.936176">
        <ele>569.110888</ele>
        <time>2022-02-19T13:40:52.996Z</time>
      </trkpt>
      <trkpt lat="47.512149" lon="7.936179">
        <ele>569.054395</ele>
        <time>2022-02-19T13:41:02.015Z</time>
      </trkpt>
      <trkpt lat="47.512050" lon="7.936184">
        <ele>568.992915</ele>
        <time>2022-02-19T13:41:05.987Z</time>
      </trkpt>
      <trkpt lat="47.511958" lon="7.936192">
        <ele>568.935717</ele>
        <time>2022-02-19T13:41:13.976Z</time>
      </trkpt>
      <trkpt lat="47.511861" lon="7.936186">
        <ele>568.875461</ele>
        <time>2022-02-19T13:41:21.993Z</time>
      </trkpt>
      <trkpt lat="47.511754" lon="7.936218">
        <ele>568.807710</ele>
        <time>2022-02-19T13:41:29.991Z</time>
      </trkpt>
      <trkpt lat="47.511662" lon="7.936229">
        <ele>568.750425</ele>
        <time>2022-02-19T13:41:37.980Z</time>
      </trkpt>
      <trkpt lat="47.511560" lon="7.936251">
        <ele>568.686450</ele>
        <time>2022-02-19T13:41:47.000Z</time>
      </trkpt>
      <trkpt lat="47.511468" lon="7.936212">
        <ele>568.778232</ele>
        <time>2022-02-19T13:41:56.989Z</time>
      </trkpt>
      <trkpt lat="47.511363" lon="7.936204">
        <ele>569.105773</ele>
        <time>2022-02-19T13:42:04.987Z</time>
      </trkpt>
      <trkpt lat="47.511251" lon="7.936222">
        <ele>569.456738</ele>
        <time>2022-02-19T13:42:14.017Z</time>
      </trkpt>
      <trkpt lat="47.511149" lon="7.936226">
        <ele>569.774611</ele>
        <time>2022-02-19T13:42:21.998Z</time>
      </trkpt>
      <trkpt lat="47.511057" lon="7.936229">
        <ele>570.061290</ele>
        <time>2022-02-19T13:42:28.980Z</time>
      </trkpt>
      <trkpt lat="47.510946" lon="7.936224">
        <ele>570.407250</ele>
        <time>2022-02-19T13:42:37.002Z</time>
      </trkpt>
      <trkpt lat="47.510857" lon="7.936259">
        <ele>570.694127</ele>
        <time>2022-02-19T13:42:45.989Z</time>
      </trkpt>
      <trkpt lat="47.510761" lon="7.936278">
        <ele>570.995858</ele>
        <time>2022-02-19T13:42:53.996Z</time>
      </trkpt>
      <trkpt lat="47.510677" lon="7.936336">
        <ele>571.284606</ele>
        <time>2022-02-19T13:43:00.992Z</time>
      </trkpt>
      <trkpt lat="47.510595" lon="7.936432">
        <ele>571.610282</ele>
        <time>2022-02-19T13:43:10.987Z</time>
      </trkpt>
      <trkpt lat="47.510557" lon="7.936557">
        <ele>571.898726</ele>
        <time>2022-02-19T13:43:14.989Z</time>
      </trkpt>
      <trkpt lat="47.510555" lon="7.936717">
        <ele>572.235464</ele>
        <time>2022-02-19T13:43:25.974Z</time>
      </trkpt>
      <trkpt lat="47.510501" lon="7.936834">
        <ele>572.533647</ele>
        <time>2022-02-19T13:43:30.032Z</time>
      </trkpt>
      <trkpt lat="47.510471" lon="7.936965">
        <ele>572.824717</ele>
        <time>2022-02-19T13:43:35.980Z</time>
      </trkpt>
      <trkpt lat="47.510440" lon="7.937099">
        <ele>573.122768</ele>
        <time>2022-02-19T13:43:45.998Z</time>
      </trkpt>
      <trkpt lat="47.510403" lon="7.937237">
        <ele>573.435196</ele>
        <time>2022-02-19T13:43:53.988Z</time>
      </trkpt>
      <trkpt lat="47.510394" lon="7.937392">
        <ele>573.762559</ele>
        <time>2022-02-19T13:44:07.018Z</time>
      </trkpt>
      <trkpt lat="47.510358" lon="7.937519">
        <ele>574.052379</ele>
        <time>2022-02-19T13:44:10.992Z</time>
      </trkpt>
      <trkpt lat="47.510351" lon="7.937665">
        <ele>574.339757</ele>
        <time>2022-02-19T13:44:19.988Z</time>
      </trkpt>
      <trkpt lat="47.510310" lon="7.937800">
        <ele>574.589990</ele>
        <time>2022-02-19T13:44:26.995Z</time>
      </trkpt>
      <trkpt lat="47.510274" lon="7.937927">
        <ele>574.822831</ele>
        <time>2022-02-19T13:44:33.991Z</time>
      </trkpt>
      <trkpt lat="47.510239" lon="7.938056">
        <ele>575.057848</ele>
        <time>2022-02-19T13:44:40.986Z</time>
      </trkpt>
      <trkpt lat="47.510204" lon="7.938180">
        <ele>575.285044</ele>
        <time>2022-02-19T13:44:47.994Z</time>
      </trkpt>
      <trkpt lat="47.510173" lon="7.938323">
        <ele>575.538940</ele>
        <time>2022-02-19T13:44:57.987Z</time>
      </trkpt>
      <trkpt lat="47.510161" lon="7.938457">
        <ele>575.767457</ele>
        <time>2022-02-19T13:45:05.985Z</time>
      </trkpt>
      <trkpt lat="47.510131" lon="7.938614">
        <ele>576.043291</ele>
        <time>2022-02-19T13:45:13.016Z</time>
      </trkpt>
      <trkpt lat="47.510085" lon="7.938744">
        <ele>576.291394</ele>
        <time>2022-02-19T13:45:22.024Z</time>
      </trkpt>
      <trkpt lat="47.510057" lon="7.938885">
        <ele>576.539851</ele>
        <time>2022-02-19T13:45:31.003Z</time>
      </trkpt>
      <trkpt lat="47.510020" lon="7.939006">
        <ele>576.764394</ele>
        <time>2022-02-19T13:45:37.145Z</time>
      </trkpt>
      <trkpt lat="47.510004" lon="7.939165">
        <ele>577.036160</ele>
        <time>2022-02-19T13:45:43.980Z</time>
      </trkpt>
      <trkpt lat="47.509981" lon="7.939303">
        <ele>577.276455</ele>
        <time>2022-02-19T13:45:53.018Z</time>
      </trkpt>
      <trkpt lat="47.509936" lon="7.939419">
        <ele>577.502602</ele>
        <time>2022-02-19T13:45:57.019Z</time>
      </trkpt>
      <trkpt lat="47.509886" lon="7.939554">
        <ele>577.762886</ele>
        <time>2022-02-19T13:46:05.986Z</time>
      </trkpt>
      <trkpt lat="47.509869" lon="7.939688">
        <ele>577.993383</ele>
        <time>2022-02-19T13:46:12.994Z</time>
      </trkpt>
      <trkpt lat="47.509893" lon="7.939829">
        <ele>578.239205</ele>
        <time>2022-02-19T13:46:22.986Z</time>
      </trkpt>
      <trkpt lat="47.509986" lon="7.939910">
        <ele>578.509261</ele>
        <time>2022-02-19T13:46:31.980Z</time>
      </trkpt>
      <trkpt lat="47.510068" lon="7.939988">
        <ele>578.753204</ele>
        <time>2022-02-19T13:46:40.991Z</time>
      </trkpt>
      <trkpt lat="47.510128" lon="7.940096">
        <ele>579.070143</ele>
        <time>2022-02-19T13:46:45.014Z</time>
      </trkpt>
      <trkpt lat="47.510139" lon="7.940249">
        <ele>579.420400</ele>
        <time>2022-02-19T13:46:49.993Z</time>
      </trkpt>
      <trkpt lat="47.510110" lon="7.940384">
        <ele>579.742881</ele>
        <time>2022-02-19T13:47:04.999Z</time>
      </trkpt>
      <trkpt lat="47.510078" lon="7.940534">
        <ele>580.100966</ele>
        <time>2022-02-19T13:47:11.993Z</time>
      </trkpt>
      <trkpt lat="47.510040" lon="7.940675">
        <ele>580.446545</ele>
        <time>2022-02-19T13:47:17.985Z</time>
      </trkpt>
      <trkpt lat="47.510020" lon="7.940808">
        <ele>580.756719</ele>
        <time>2022-02-19T13:47:23.991Z</time>
      </trkpt>
      <trkpt lat="47.510000" lon="7.940939">
        <ele>581.062450</ele>
        <time>2022-02-19T13:47:30.986Z</time>
      </trkpt>
      <trkpt lat="47.509973" lon="7.941092">
        <ele>581.422430</ele>
        <time>2022-02-19T13:47:38.985Z</time>
      </trkpt>
      <trkpt lat="47.509942" lon="7.941242">
        <ele>581.779517</ele>
        <time>2022-02-19T13:47:46.993Z</time>
      </trkpt>
      <trkpt lat="47.509905" lon="7.941391">
        <ele>582.140896</ele>
        <time>2022-02-19T13:47:52.988Z</time>
      </trkpt>
      <trkpt lat="47.509909" lon="7.941544">
        <ele>582.489448</ele>
        <time>2022-02-19T13:48:03.989Z</time>
      </trkpt>
      <trkpt lat="47.509860" lon="7.941667">
        <ele>582.814516</ele>
        <time>2022-02-19T13:48:12.029Z</time>
      </trkpt>
      <trkpt lat="47.509759" lon="7.941707">
        <ele>583.166870</ele>
        <time>2022-02-19T13:48:15.987Z</time>
      </trkpt>
      <trkpt lat="47.509667" lon="7.941728">
        <ele>583.480587</ele>
        <time>2022-02-19T13:48:20.997Z</time>
      </trkpt>
      <trkpt lat="47.509577" lon="7.941751">
        <ele>583.788386</ele>
        <time>2022-02-19T13:48:26.011Z</time>
      </trkpt>
      <trkpt lat="47.509488" lon="7.941772">
        <ele>584.092115</ele>
        <time>2022-02-19T13:48:32.000Z</time>
      </trkpt>
      <trkpt lat="47.509416" lon="7.941879">
        <ele>584.435931</ele>
        <time>2022-02-19T13:48:40.020Z</time>
      </trkpt>
      <trkpt lat="47.509322" lon="7.941916">
        <ele>584.763731</ele>
        <time>2022-02-19T13:48:51.715Z</time>
      </trkpt>
      <trkpt lat="47.509219" lon="7.941940">
        <ele>584.916007</ele>
        <time>2022-02-19T13:48:56.978Z</time>
      </trkpt>
      <trkpt lat="47.509128" lon="7.941972">
        <ele>585.019339</ele>
        <time>2022-02-19T13:49:03.985Z</time>
      </trkpt>
      <trkpt lat="47.509036" lon="7.942007">
        <ele>585.124281</ele>
        <time>2022-02-19T13:49:12.038Z</time>
      </trkpt>
      <trkpt lat="47.508952" lon="7.942065">
        <ele>585.226680</ele>
        <time>2022-02-19T13:49:24.992Z</time>
      </trkpt>
      <trkpt lat="47.508864" lon="7.942097">
        <ele>585.326790</ele>
        <time>2022-02-19T13:49:32.975Z</time>
      </trkpt>
      <trkpt lat="47.508776" lon="7.942163">
        <ele>585.435775</ele>
        <time>2022-02-19T13:49:38.997Z</time>
      </trkpt>
      <trkpt lat="47.508681" lon="7.942191">
        <ele>585.542788</ele>
        <time>2022-02-19T13:49:45.983Z</time>
      </trkpt>
      <trkpt lat="47.508580" lon="7.942217">
        <ele>585.656045</ele>
        <time>2022-02-19T13:49:54.000Z</time>
      </trkpt>
      <trkpt lat="47.508485" lon="7.942258">
        <ele>585.765368</ele>
        <time>2022-02-19T13:50:03.001Z</time>
      </trkpt>
      <trkpt lat="47.508392" lon="7.942298">
        <ele>585.872361</ele>
        <time>2022-02-19T13:50:08.987Z</time>
      </trkpt>
      <trkpt lat="47.508301" lon="7.942368">
        <ele>585.985657</ele>
        <time>2022-02-19T13:50:16.988Z</time>
      </trkpt>
      <trkpt lat="47.508206" lon="7.942421">
        <ele>586.097817</ele>
        <time>2022-02-19T13:50:25.017Z</time>
      </trkpt>
      <trkpt lat="47.508104" lon="7.942453">
        <ele>586.213006</ele>
        <time>2022-02-19T13:50:30.986Z</time>
      </trkpt>
      <trkpt lat="47.508004" lon="7.942492">
        <ele>586.327254</ele>
        <time>2022-02-19T13:50:38.987Z</time>
      </trkpt>
      <trkpt lat="47.507914" lon="7.942525">
        <ele>586.429688</ele>
        <time>2022-02-19T13:50:44.027Z</time>
      </trkpt>
      <trkpt lat="47.507825" lon="7.942584">
        <ele>586.537421</ele>
        <time>2022-02-19T13:50:52.992Z</time>
      </trkpt>
      <trkpt lat="47.507740" lon="7.942648">
        <ele>586.642776</ele>
        <time>2022-02-19T13:51:01.999Z</time>
      </trkpt>
      <trkpt lat="47.507646" lon="7.942673">
        <ele>586.748287</ele>
        <time>2022-02-19T13:51:08.987Z</time>
      </trkpt>
      <trkpt lat="47.507552" lon="7.942725">
        <ele>586.705129</ele>
        <time>2022-02-19T13:51:17.003Z</time>
      </trkpt>
      <trkpt lat="47.507455" lon="7.942757">
        <ele>586.496751</ele>
        <time>2022-02-19T13:51:26.980Z</time>
      </trkpt>
      <trkpt lat="47.507365" lon="7.942787">
        <ele>586.303315</ele>
        <time>2022-02-19T13:51:33.983Z</time>
      </trkpt>
      <trkpt lat="47.507291" lon="7.942790">
        <ele>586.148094</ele>
        <time>2022-02-19T13:52:05.469Z</time>
      </trkpt>
      <trkpt lat="47.507273" lon="7.942937">
        <ele>585.936494</ele>
        <time>2022-02-19T13:53:01.996Z</time>
      </trkpt>
      <trkpt lat="47.507282" lon="7.943074">
        <ele>585.741535</ele>
        <time>2022-02-19T13:53:08.991Z</time>
      </trkpt>
      <trkpt lat="47.507310" lon="7.943215">
        <ele>585.533375</ele>
        <time>2022-02-19T13:53:18.989Z</time>
      </trkpt>
      <trkpt lat="47.507333" lon="7.943354">
        <ele>585.330678</ele>
        <time>2022-02-19T13:53:28.986Z</time>
      </trkpt>
      <trkpt lat="47.507354" lon="7.943489">
        <ele>585.134463</ele>
        <time>2022-02-19T13:53:39.987Z</time>
      </trkpt>
      <trkpt lat="47.507371" lon="7.943625">
        <ele>584.938566</ele>
        <time>2022-02-19T13:53:47.037Z</time>
      </trkpt>
      <trkpt lat="47.507415" lon="7.943748">
        <ele>584.741431</ele>
        <time>2022-02-19T13:53:55.984Z</time>
      </trkpt>
      <trkpt lat="47.507442" lon="7.943886">
        <ele>584.537938</ele>
        <time>2022-02-19T13:54:02.989Z</time>
      </trkpt>
      <trkpt lat="47.507445" lon="7.944032">
        <ele>584.331053</ele>
        <time>2022-02-19T13:54:10.989Z</time>
      </trkpt>
      <trkpt lat="47.507467" lon="7.944162">
        <ele>584.141234</ele>
        <time>2022-02-19T13:54:18.028Z</time>
      </trkpt>
      <trkpt lat="47.507499" lon="7.944296">
        <ele>583.939929</ele>
        <time>2022-02-19T13:54:26.960Z</time>
      </trkpt>
      <trkpt lat="47.507544" lon="7.944425">
        <ele>583.734292</ele>
        <time>2022-02-19T13:54:34.003Z</time>
      </trkpt>
      <trkpt lat="47.507568" lon="7.944559">
        <ele>583.537940</ele>
        <time>2022-02-19T13:54:40.978Z</time>
      </trkpt>
      <trkpt lat="47.507579" lon="7.944694">
        <ele>583.345345</ele>
        <time>2022-02-19T13:54:47.986Z</time>
      </trkpt>
      <trkpt lat="47.507609" lon="7.944827">
        <ele>583.146743</ele>
        <time>2022-02-19T13:54:54.009Z</time>
      </trkpt>
      <trkpt lat="47.507643" lon="7.944955">
        <ele>583.059533</ele>
        <time>2022-02-19T13:55:02.976Z</time>
      </trkpt>
      <trkpt lat="47.507688" lon="7.945093">
        <ele>583.124924</ele>
        <time>2022-02-19T13:55:09.989Z</time>
      </trkpt>
      <trkpt lat="47.507712" lon="7.945231">
        <ele>583.185734</ele>
        <time>2022-02-19T13:55:16.990Z</time>
      </trkpt>
      <trkpt lat="47.507736" lon="7.945361">
        <ele>583.243244</ele>
        <time>2022-02-19T13:55:23.984Z</time>
      </trkpt>
      <trkpt lat="47.507758" lon="7.945512">
        <ele>583.309162</ele>
        <time>2022-02-19T13:55:30.988Z</time>
      </trkpt>
      <trkpt lat="47.507766" lon="7.945661">
        <ele>583.372946</ele>
        <time>2022-02-19T13:55:35.983Z</time>
      </trkpt>
      <trkpt lat="47.507750" lon="7.945796">
        <ele>583.431434</ele>
        <time>2022-02-19T13:55:42.989Z</time>
      </trkpt>
      <trkpt lat="47.507732" lon="7.945948">
        <ele>583.497287</ele>
        <time>2022-02-19T13:55:49.991Z</time>
      </trkpt>
      <trkpt lat="47.507719" lon="7.946102">
        <ele>583.563515</ele>
        <time>2022-02-19T13:55:58.021Z</time>
      </trkpt>
      <trkpt lat="47.507700" lon="7.946246">
        <ele>583.626126</ele>
        <time>2022-02-19T13:56:06.020Z</time>
      </trkpt>
      <trkpt lat="47.507697" lon="7.946383">
        <ele>583.684619</ele>
        <time>2022-02-19T13:56:15.993Z</time>
      </trkpt>
      <trkpt lat="47.507680" lon="7.946515">
        <ele>583.741962</ele>
        <time>2022-02-19T13:56:24.008Z</time>
      </trkpt>
      <trkpt lat="47.507673" lon="7.946653">
        <ele>583.801017</ele>
        <time>2022-02-19T13:56:31.987Z</time>
      </trkpt>
      <trkpt lat="47.507658" lon="7.946789">
        <ele>583.859821</ele>
        <time>2022-02-19T13:56:39.025Z</time>
      </trkpt>
      <trkpt lat="47.507629" lon="7.946922">
        <ele>583.919460</ele>
        <time>2022-02-19T13:56:45.024Z</time>
      </trkpt>
      <trkpt lat="47.507613" lon="7.947065">
        <ele>583.981314</ele>
        <time>2022-02-19T13:56:51.993Z</time>
      </trkpt>
      <trkpt lat="47.507600" lon="7.947200">
        <ele>584.039506</ele>
        <time>2022-02-19T13:57:01.007Z</time>
      </trkpt>
      <trkpt lat="47.507594" lon="7.947342">
        <ele>584.100220</ele>
        <time>2022-02-19T13:57:07.979Z</time>
      </trkpt>
      <trkpt lat="47.507569" lon="7.947471">
        <ele>584.157490</ele>
        <time>2022-02-19T13:57:18.995Z</time>
      </trkpt>
      <trkpt lat="47.507555" lon="7.947604">
        <ele>584.186737</ele>
        <time>2022-02-19T13:57:25.017Z</time>
      </trkpt>
      <trkpt lat="47.507551" lon="7.947755">
        <ele>584.209942</ele>
        <time>2022-02-19T13:57:33.177Z</time>
      </trkpt>
      <trkpt lat="47.507540" lon="7.947909">
        <ele>584.233721</ele>
        <time>2022-02-19T13:57:41.015Z</time>
      </trkpt>
      <trkpt lat="47.507552" lon="7.948058">
        <ele>584.256763</ele>
        <time>2022-02-19T13:57:47.997Z</time>
      </trkpt>
      <trkpt lat="47.507543" lon="7.948202">
        <ele>584.278970</ele>
        <time>2022-02-19T13:57:54.986Z</time>
      </trkpt>
      <trkpt lat="47.507525" lon="7.948336">
        <ele>584.299949</ele>
        <time>2022-02-19T13:58:00.988Z</time>
      </trkpt>
      <trkpt lat="47.507495" lon="7.948463">
        <ele>584.320609</ele>
        <time>2022-02-19T13:58:07.981Z</time>
      </trkpt>
      <trkpt lat="47.507486" lon="7.948614">
        <ele>584.343886</ele>
        <time>2022-02-19T13:58:15.987Z</time>
      </trkpt>
      <trkpt lat="47.507468" lon="7.948764">
        <ele>584.367280</ele>
        <time>2022-02-19T13:58:23.999Z</time>
      </trkpt>
      <trkpt lat="47.507458" lon="7.948917">
        <ele>584.390884</ele>
        <time>2022-02-19T13:58:32.993Z</time>
      </trkpt>
      <trkpt lat="47.507469" lon="7.949055">
        <ele>584.412221</ele>
        <time>2022-02-19T13:58:41.991Z</time>
      </trkpt>
      <trkpt lat="47.507480" lon="7.949193">
        <ele>584.433559</ele>
        <time>2022-02-19T13:58:51.022Z</time>
      </trkpt>
      <trkpt lat="47.507467" lon="7.949336">
        <ele>584.455716</ele>
        <time>2022-02-19T13:58:59.977Z</time>
      </trkpt>
      <trkpt lat="47.507488" lon="7.949487">
        <ele>584.479389</ele>
        <time>2022-02-19T13:59:06.990Z</time>
      </trkpt>
      <trkpt lat="47.507498" lon="7.949647">
        <ele>584.504063</ele>
        <time>2022-02-19T13:59:16.000Z</time>
      </trkpt>
      <trkpt lat="47.507521" lon="7.949809">
        <ele>584.529483</ele>
        <time>2022-02-19T13:59:24.994Z</time>
      </trkpt>
      <trkpt lat="47.507580" lon="7.949920">
        <ele>584.551171</ele>
        <time>2022-02-19T13:59:32.991Z</time>
      </trkpt>
      <trkpt lat="47.507580" lon="7.950075">
        <ele>584.574973</ele>
        <time>2022-02-19T13:59:38.984Z</time>
      </trkpt>
      <trkpt lat="47.507572" lon="7.950209">
        <ele>584.809329</ele>
        <time>2022-02-19T13:59:43.985Z</time>
      </trkpt>
      <trkpt lat="47.507588" lon="7.950343">
        <ele>585.111686</ele>
        <time>2022-02-19T13:59:50.991Z</time>
      </trkpt>
      <trkpt lat="47.507595" lon="7.950499">
        <ele>585.459074</ele>
        <time>2022-02-19T13:59:57.986Z</time>
      </trkpt>
      <trkpt lat="47.507612" lon="7.950665">
        <ele>585.832133</ele>
        <time>2022-02-19T14:00:06.984Z</time>
      </trkpt>
      <trkpt lat="47.507621" lon="7.950807">
        <ele>586.149035</ele>
        <time>2022-02-19T14:00:16.988Z</time>
      </trkpt>
      <trkpt lat="47.507631" lon="7.950946">
        <ele>586.459633</ele>
        <time>2022-02-19T14:00:24.988Z</time>
      </trkpt>
      <trkpt lat="47.507623" lon="7.951094">
        <ele>586.789532</ele>
        <time>2022-02-19T14:00:28.983Z</time>
      </trkpt>
      <trkpt lat="47.507665" lon="7.951220">
        <ele>587.101730</ele>
        <time>2022-02-19T14:00:38.984Z</time>
      </trkpt>
      <trkpt lat="47.507674" lon="7.951355">
        <ele>587.403150</ele>
        <time>2022-02-19T14:00:48.974Z</time>
      </trkpt>
      <trkpt lat="47.507672" lon="7.951494">
        <ele>587.712070</ele>
        <time>2022-02-19T14:00:53.987Z</time>
      </trkpt>
      <trkpt lat="47.507708" lon="7.951638">
        <ele>588.053241</ele>
        <time>2022-02-19T14:01:01.984Z</time>
      </trkpt>
      <trkpt lat="47.507757" lon="7.951760">
        <ele>588.368616</ele>
        <time>2022-02-19T14:01:09.990Z</time>
      </trkpt>
      <trkpt lat="47.507809" lon="7.951888">
        <ele>588.700498</ele>
        <time>2022-02-19T14:01:18.990Z</time>
      </trkpt>
      <trkpt lat="47.507892" lon="7.952023">
        <ele>589.106104</ele>
        <time>2022-02-19T14:01:27.814Z</time>
      </trkpt>
      <trkpt lat="47.507967" lon="7.952109">
        <ele>589.418156</ele>
        <time>2022-02-19T14:01:33.099Z</time>
      </trkpt>
      <trkpt lat="47.508043" lon="7.952222">
        <ele>589.772468</ele>
        <time>2022-02-19T14:01:43.098Z</time>
      </trkpt>
      <trkpt lat="47.508118" lon="7.952306">
        <ele>590.081818</ele>
        <time>2022-02-19T14:01:52.106Z</time>
      </trkpt>
      <trkpt lat="47.508176" lon="7.952409">
        <ele>590.379769</ele>
        <time>2022-02-19T14:01:56.066Z</time>
      </trkpt>
      <trkpt lat="47.508235" lon="7.952532">
        <ele>590.451511</ele>
        <time>2022-02-19T14:02:09.074Z</time>
      </trkpt>
      <trkpt lat="47.508267" lon="7.952661">
        <ele>590.389166</ele>
        <time>2022-02-19T14:02:15.098Z</time>
      </trkpt>
      <trkpt lat="47.508304" lon="7.952788">
        <ele>590.326420</ele>
        <time>2022-02-19T14:02:22.536Z</time>
      </trkpt>
      <trkpt lat="47.508345" lon="7.952924">
        <ele>590.258855</ele>
        <time>2022-02-19T14:02:30.097Z</time>
      </trkpt>
      <trkpt lat="47.508374" lon="7.953060">
        <ele>590.194155</ele>
        <time>2022-02-19T14:02:44.099Z</time>
      </trkpt>
      <trkpt lat="47.508495" lon="7.953124">
        <ele>590.107858</ele>
        <time>2022-02-19T14:03:48.771Z</time>
      </trkpt>
      <trkpt lat="47.508573" lon="7.953194">
        <ele>590.046598</ele>
        <time>2022-02-19T14:04:02.071Z</time>
      </trkpt>
      <trkpt lat="47.508632" lon="7.953306">
        <ele>589.982162</ele>
        <time>2022-02-19T14:04:13.075Z</time>
      </trkpt>
      <trkpt lat="47.508688" lon="7.953423">
        <ele>589.917109</ele>
        <time>2022-02-19T14:04:25.151Z</time>
      </trkpt>
      <trkpt lat="47.508654" lon="7.953563">
        <ele>589.849616</ele>
        <time>2022-02-19T14:04:36.056Z</time>
      </trkpt>
      <trkpt lat="47.508688" lon="7.953691">
        <ele>589.787218</ele>
        <time>2022-02-19T14:04:59.096Z</time>
      </trkpt>
      <trkpt lat="47.508768" lon="7.953778">
        <ele>589.720550</ele>
        <time>2022-02-19T14:05:07.062Z</time>
      </trkpt>
      <trkpt lat="47.508853" lon="7.953834">
        <ele>589.658064</ele>
        <time>2022-02-19T14:05:15.068Z</time>
      </trkpt>
      <trkpt lat="47.508933" lon="7.953908">
        <ele>589.594709</ele>
        <time>2022-02-19T14:05:23.067Z</time>
      </trkpt>
      <trkpt lat="47.509013" lon="7.953993">
        <ele>589.528574</ele>
        <time>2022-02-19T14:05:31.088Z</time>
      </trkpt>
      <trkpt lat="47.509083" lon="7.954100">
        <ele>589.460998</ele>
        <time>2022-02-19T14:05:41.104Z</time>
      </trkpt>
      <trkpt lat="47.509166" lon="7.954167">
        <ele>589.397505</ele>
        <time>2022-02-19T14:05:52.093Z</time>
      </trkpt>
      <trkpt lat="47.509249" lon="7.954249">
        <ele>589.330488</ele>
        <time>2022-02-19T14:05:59.110Z</time>
      </trkpt>
      <trkpt lat="47.509351" lon="7.954299">
        <ele>589.022243</ele>
        <time>2022-02-19T14:06:10.110Z</time>
      </trkpt>
      <trkpt lat="47.509424" lon="7.954403">
        <ele>588.416084</ele>
        <time>2022-02-19T14:06:14.064Z</time>
      </trkpt>
      <trkpt lat="47.509490" lon="7.954536">
        <ele>587.749111</ele>
        <time>2022-02-19T14:06:24.311Z</time>
      </trkpt>
      <trkpt lat="47.509529" lon="7.954671">
        <ele>587.155714</ele>
        <time>2022-02-19T14:06:33.074Z</time>
      </trkpt>
      <trkpt lat="47.509576" lon="7.954816">
        <ele>586.505728</ele>
        <time>2022-02-19T14:06:43.056Z</time>
      </trkpt>
      <trkpt lat="47.509617" lon="7.954951">
        <ele>585.907526</ele>
        <time>2022-02-19T14:06:49.064Z</time>
      </trkpt>
      <trkpt lat="47.509677" lon="7.955063">
        <ele>585.329810</ele>
        <time>2022-02-19T14:06:58.097Z</time>
      </trkpt>
      <trkpt lat="47.509724" lon="7.955201">
        <ele>584.705212</ele>
        <time>2022-02-19T14:07:07.063Z</time>
      </trkpt>
      <trkpt lat="47.509772" lon="7.955317">
        <ele>584.155434</ele>
        <time>2022-02-19T14:07:12.097Z</time>
      </trkpt>
      <trkpt lat="47.509827" lon="7.955446">
        <ele>583.538923</ele>
        <time>2022-02-19T14:07:22.078Z</time>
      </trkpt>
      <trkpt lat="47.509867" lon="7.955580">
        <ele>582.946850</ele>
        <time>2022-02-19T14:07:30.072Z</time>
      </trkpt>
      <trkpt lat="47.509952" lon="7.955706">
        <ele>582.227169</ele>
        <time>2022-02-19T14:07:40.668Z</time>
      </trkpt>
      <trkpt lat="47.510005" lon="7.955821">
        <ele>581.664533</ele>
        <time>2022-02-19T14:07:48.075Z</time>
      </trkpt>
      <trkpt lat="47.510054" lon="7.955949">
        <ele>581.069934</ele>
        <time>2022-02-19T14:07:58.486Z</time>
      </trkpt>
      <trkpt lat="47.510115" lon="7.956057">
        <ele>580.500979</ele>
        <time>2022-02-19T14:08:05.067Z</time>
      </trkpt>
      <trkpt lat="47.510161" lon="7.956190">
        <ele>579.897110</ele>
        <time>2022-02-19T14:08:12.071Z</time>
      </trkpt>
      <trkpt lat="47.510189" lon="7.956326">
        <ele>579.322518</ele>
        <time>2022-02-19T14:08:20.103Z</time>
      </trkpt>
      <trkpt lat="47.510224" lon="7.956454">
        <ele>578.764444</ele>
        <time>2022-02-19T14:08:28.058Z</time>
      </trkpt>
      <trkpt lat="47.510263" lon="7.956577">
        <ele>578.043322</ele>
        <time>2022-02-19T14:08:34.104Z</time>
      </trkpt>
      <trkpt lat="47.510299" lon="7.956726">
        <ele>577.050476</ele>
        <time>2022-02-19T14:08:43.107Z</time>
      </trkpt>
      <trkpt lat="47.510344" lon="7.956844">
        <ele>576.200287</ele>
        <time>2022-02-19T14:08:51.062Z</time>
      </trkpt>
      <trkpt lat="47.510369" lon="7.956975">
        <ele>575.346208</ele>
        <time>2022-02-19T14:09:00.065Z</time>
      </trkpt>
      <trkpt lat="47.510406" lon="7.957117">
        <ele>574.391299</ele>
        <time>2022-02-19T14:09:08.099Z</time>
      </trkpt>
      <trkpt lat="47.510430" lon="7.957268">
        <ele>573.418039</ele>
        <time>2022-02-19T14:09:18.062Z</time>
      </trkpt>
      <trkpt lat="47.510456" lon="7.957414">
        <ele>572.470723</ele>
        <time>2022-02-19T14:09:27.069Z</time>
      </trkpt>
      <trkpt lat="47.510493" lon="7.957546">
        <ele>571.574067</ele>
        <time>2022-02-19T14:09:36.061Z</time>
      </trkpt>
      <trkpt lat="47.510531" lon="7.957682">
        <ele>570.650671</ele>
        <time>2022-02-19T14:09:42.075Z</time>
      </trkpt>
      <trkpt lat="47.510547" lon="7.957816">
        <ele>569.796912</ele>
        <time>2022-02-19T14:09:51.078Z</time>
      </trkpt>
      <trkpt lat="47.510571" lon="7.957960">
        <ele>568.866351</ele>
        <time>2022-02-19T14:10:01.076Z</time>
      </trkpt>
      <trkpt lat="47.510615" lon="7.958088">
        <ele>567.965256</ele>
        <time>2022-02-19T14:10:06.066Z</time>
      </trkpt>
      <trkpt lat="47.510664" lon="7.958230">
        <ele>566.964814</ele>
        <time>2022-02-19T14:10:15.101Z</time>
      </trkpt>
      <trkpt lat="47.510699" lon="7.958367">
        <ele>566.045844</ele>
        <time>2022-02-19T14:10:25.111Z</time>
      </trkpt>
      <trkpt lat="47.510750" lon="7.958489">
        <ele>565.145678</ele>
        <time>2022-02-19T14:10:31.105Z</time>
      </trkpt>
      <trkpt lat="47.510801" lon="7.958617">
        <ele>564.213293</ele>
        <time>2022-02-19T14:10:38.072Z</time>
      </trkpt>
      <trkpt lat="47.510879" lon="7.958715">
        <ele>563.263047</ele>
        <time>2022-02-19T14:10:47.069Z</time>
      </trkpt>
      <trkpt lat="47.510939" lon="7.958820">
        <ele>562.400154</ele>
        <time>2022-02-19T14:10:56.063Z</time>
      </trkpt>
      <trkpt lat="47.511010" lon="7.958914">
        <ele>561.396453</ele>
        <time>2022-02-19T14:11:02.069Z</time>
      </trkpt>
      <trkpt lat="47.511075" lon="7.959012">
        <ele>560.197749</ele>
        <time>2022-02-19T14:11:10.065Z</time>
      </trkpt>
      <trkpt lat="47.511147" lon="7.959101">
        <ele>558.985808</ele>
        <time>2022-02-19T14:11:19.105Z</time>
      </trkpt>
      <trkpt lat="47.511230" lon="7.959179">
        <ele>557.715558</ele>
        <time>2022-02-19T14:11:24.063Z</time>
      </trkpt>
      <trkpt lat="47.511296" lon="7.959279">
        <ele>556.495347</ele>
        <time>2022-02-19T14:11:34.066Z</time>
      </trkpt>
      <trkpt lat="47.511361" lon="7.959379">
        <ele>555.284131</ele>
        <time>2022-02-19T14:11:43.083Z</time>
      </trkpt>
      <trkpt lat="47.511440" lon="7.959457">
        <ele>554.057206</ele>
        <time>2022-02-19T14:11:49.072Z</time>
      </trkpt>
      <trkpt lat="47.511520" lon="7.959536">
        <ele>552.814690</ele>
        <time>2022-02-19T14:11:57.095Z</time>
      </trkpt>
      <trkpt lat="47.511595" lon="7.959621">
        <ele>551.594277</ele>
        <time>2022-02-19T14:12:06.073Z</time>
      </trkpt>
      <trkpt lat="47.511665" lon="7.959703">
        <ele>550.440932</ele>
        <time>2022-02-19T14:12:12.105Z</time>
      </trkpt>
      <trkpt lat="47.511756" lon="7.959756">
        <ele>549.177415</ele>
        <time>2022-02-19T14:12:19.168Z</time>
      </trkpt>
      <trkpt lat="47.511830" lon="7.959844">
        <ele>547.951015</ele>
        <time>2022-02-19T14:12:28.070Z</time>
      </trkpt>
      <trkpt lat="47.511927" lon="7.959886">
        <ele>546.645181</ele>
        <time>2022-02-19T14:12:38.077Z</time>
      </trkpt>
      <trkpt lat="47.512013" lon="7.959950">
        <ele>545.401499</ele>
        <time>2022-02-19T14:12:46.061Z</time>
      </trkpt>
      <trkpt lat="47.512102" lon="7.960012">
        <ele>544.130593</ele>
        <time>2022-02-19T14:12:52.068Z</time>
      </trkpt>
      <trkpt lat="47.512196" lon="7.960068">
        <ele>542.821381</ele>
        <time>2022-02-19T14:12:59.076Z</time>
      </trkpt>
      <trkpt lat="47.512291" lon="7.960118">
        <ele>541.518634</ele>
        <time>2022-02-19T14:13:09.077Z</time>
      </trkpt>
      <trkpt lat="47.512369" lon="7.960194">
        <ele>540.312128</ele>
        <time>2022-02-19T14:13:16.075Z</time>
      </trkpt>
      <trkpt lat="47.512441" lon="7.960280">
        <ele>539.116809</ele>
        <time>2022-02-19T14:13:24.084Z</time>
      </trkpt>
      <trkpt lat="47.512524" lon="7.960342">
        <ele>538.018219</ele>
        <time>2022-02-19T14:13:33.098Z</time>
      </trkpt>
      <trkpt lat="47.512601" lon="7.960414">
        <ele>537.023390</ele>
        <time>2022-02-19T14:13:41.071Z</time>
      </trkpt>
      <trkpt lat="47.512681" lon="7.960473">
        <ele>536.047080</ele>
        <time>2022-02-19T14:13:49.064Z</time>
      </trkpt>
      <trkpt lat="47.512764" lon="7.960546">
        <ele>534.992504</ele>
        <time>2022-02-19T14:13:55.098Z</time>
      </trkpt>
      <trkpt lat="47.512838" lon="7.960644">
        <ele>533.907960</ele>
        <time>2022-02-19T14:14:04.067Z</time>
      </trkpt>
      <trkpt lat="47.512931" lon="7.960700">
        <ele>532.811254</ele>
        <time>2022-02-19T14:14:12.069Z</time>
      </trkpt>
      <trkpt lat="47.513007" lon="7.960776">
        <ele>531.809431</ele>
        <time>2022-02-19T14:14:21.062Z</time>
      </trkpt>
      <trkpt lat="47.513094" lon="7.960837">
        <ele>530.757892</ele>
        <time>2022-02-19T14:14:29.066Z</time>
      </trkpt>
      <trkpt lat="47.513190" lon="7.960870">
        <ele>529.681328</ele>
        <time>2022-02-19T14:14:38.069Z</time>
      </trkpt>
      <trkpt lat="47.513281" lon="7.960941">
        <ele>528.557697</ele>
        <time>2022-02-19T14:14:47.059Z</time>
      </trkpt>
      <trkpt lat="47.513337" lon="7.961054">
        <ele>527.523631</ele>
        <time>2022-02-19T14:14:56.075Z</time>
      </trkpt>
      <trkpt lat="47.513428" lon="7.961147">
        <ele>526.315761</ele>
        <time>2022-02-19T14:15:04.068Z</time>
      </trkpt>
      <trkpt lat="47.513450" lon="7.961285">
        <ele>525.269618</ele>
        <time>2022-02-19T14:15:15.072Z</time>
      </trkpt>
      <trkpt lat="47.513389" lon="7.961392">
        <ele>524.236544</ele>
        <time>2022-02-19T14:15:23.068Z</time>
      </trkpt>
      <trkpt lat="47.513306" lon="7.961452">
        <ele>523.227582</ele>
        <time>2022-02-19T14:15:28.069Z</time>
      </trkpt>
      <trkpt lat="47.513210" lon="7.961516">
        <ele>522.077506</ele>
        <time>2022-02-19T14:15:37.069Z</time>
      </trkpt>
      <trkpt lat="47.513117" lon="7.961541">
        <ele>521.044998</ele>
        <time>2022-02-19T14:15:46.070Z</time>
      </trkpt>
      <trkpt lat="47.513038" lon="7.961610">
        <ele>520.043058</ele>
        <time>2022-02-19T14:15:53.067Z</time>
      </trkpt>
      <trkpt lat="47.512947" lon="7.961681">
        <ele>518.922764</ele>
        <time>2022-02-19T14:16:02.067Z</time>
      </trkpt>
      <trkpt lat="47.512872" lon="7.961776">
        <ele>518.137420</ele>
        <time>2022-02-19T14:16:11.065Z</time>
      </trkpt>
      <trkpt lat="47.512851" lon="7.961932">
        <ele>517.282566</ele>
        <time>2022-02-19T14:16:20.924Z</time>
      </trkpt>
      <trkpt lat="47.512876" lon="7.962065">
        <ele>516.540642</ele>
        <time>2022-02-19T14:16:27.070Z</time>
      </trkpt>
      <trkpt lat="47.512909" lon="7.962200">
        <ele>515.769082</ele>
        <time>2022-02-19T14:16:36.067Z</time>
      </trkpt>
      <trkpt lat="47.512969" lon="7.962300">
        <ele>515.050246</ele>
        <time>2022-02-19T14:16:42.072Z</time>
      </trkpt>
      <trkpt lat="47.513035" lon="7.962412">
        <ele>514.251461</ele>
        <time>2022-02-19T14:16:48.066Z</time>
      </trkpt>
      <trkpt lat="47.513106" lon="7.962496">
        <ele>513.528325</ele>
        <time>2022-02-19T14:16:56.070Z</time>
      </trkpt>
      <trkpt lat="47.513151" lon="7.962625">
        <ele>512.748062</ele>
        <time>2022-02-19T14:17:03.074Z</time>
      </trkpt>
      <trkpt lat="47.513199" lon="7.962750">
        <ele>511.975321</ele>
        <time>2022-02-19T14:17:09.068Z</time>
      </trkpt>
      <trkpt lat="47.513251" lon="7.962861">
        <ele>511.249353</ele>
        <time>2022-02-19T14:17:19.064Z</time>
      </trkpt>
      <trkpt lat="47.513280" lon="7.962997">
        <ele>510.482917</ele>
        <time>2022-02-19T14:17:28.073Z</time>
      </trkpt>
      <trkpt lat="47.513284" lon="7.963135">
        <ele>509.740609</ele>
        <time>2022-02-19T14:17:36.072Z</time>
      </trkpt>
      <trkpt lat="47.513296" lon="7.963280">
        <ele>508.955538</ele>
        <time>2022-02-19T14:17:44.071Z</time>
      </trkpt>
      <trkpt lat="47.513324" lon="7.963412">
        <ele>508.211996</ele>
        <time>2022-02-19T14:17:53.070Z</time>
      </trkpt>
      <trkpt lat="47.513357" lon="7.963542">
        <ele>507.465652</ele>
        <time>2022-02-19T14:18:01.071Z</time>
      </trkpt>
      <trkpt lat="47.513451" lon="7.963611">
        <ele>506.630848</ele>
        <time>2022-02-19T14:18:07.071Z</time>
      </trkpt>
      <trkpt lat="47.513483" lon="7.963747">
        <ele>505.856894</ele>
        <time>2022-02-19T14:18:16.071Z</time>
      </trkpt>
      <trkpt lat="47.513535" lon="7.963857">
        <ele>505.135338</ele>
        <time>2022-02-19T14:18:22.073Z</time>
      </trkpt>
      <trkpt lat="47.513580" lon="7.963975">
        <ele>504.620489</ele>
        <time>2022-02-19T14:18:30.068Z</time>
      </trkpt>
      <trkpt lat="47.513604" lon="7.964107">
        <ele>504.620489</ele>
        <time>2022-02-19T14:18:36.071Z</time>
      </trkpt>
      <trkpt lat="47.513626" lon="7.964257">
        <ele>504.620489</ele>
        <time>2022-02-19T14:18:43.072Z</time>
      </trkpt>
      <trkpt lat="47.513655" lon="7.964387">
        <ele>504.620489</ele>
        <time>2022-02-19T14:18:53.099Z</time>
      </trkpt>
      <trkpt lat="47.513668" lon="7.964520">
        <ele>504.620489</ele>
        <time>2022-02-19T14:18:59.074Z</time>
      </trkpt>
      <trkpt lat="47.513700" lon="7.964643">
        <ele>504.620489</ele>
        <time>2022-02-19T14:19:06.067Z</time>
      </trkpt>
      <trkpt lat="47.513754" lon="7.964758">
        <ele>504.620489</ele>
        <time>2022-02-19T14:19:13.072Z</time>
      </trkpt>
      <trkpt lat="47.513796" lon="7.964892">
        <ele>504.620489</ele>
        <time>2022-02-19T14:19:21.069Z</time>
      </trkpt>
      <trkpt lat="47.513806" lon="7.965030">
        <ele>504.620489</ele>
        <time>2022-02-19T14:19:28.074Z</time>
      </trkpt>
      <trkpt lat="47.513736" lon="7.965129">
        <ele>504.620489</ele>
        <time>2022-02-19T14:19:45.070Z</time>
      </trkpt>
      <trkpt lat="47.513650" lon="7.965203">
        <ele>504.620489</ele>
        <time>2022-02-19T14:19:54.066Z</time>
      </trkpt>
      <trkpt lat="47.513516" lon="7.965229">
        <ele>504.620489</ele>
        <time>2022-02-19T14:20:23.074Z</time>
      </trkpt>
      <trkpt lat="47.513608" lon="7.965253">
        <ele>504.620489</ele>
        <time>2022-02-19T14:21:02.072Z</time>
      </trkpt>
      <trkpt lat="47.513706" lon="7.965273">
        <ele>504.620489</ele>
        <time>2022-02-19T14:21:16.073Z</time>
      </trkpt>
      <trkpt lat="47.513794" lon="7.965203">
        <ele>504.620489</ele>
        <time>2022-02-19T14:21:24.069Z</time>
      </trkpt>
      <trkpt lat="47.513868" lon="7.965100">
        <ele>504.620489</ele>
        <time>2022-02-19T14:21:31.067Z</time>
      </trkpt>
      <trkpt lat="47.513960" lon="7.965069">
        <ele>504.620489</ele>
        <time>2022-02-19T14:21:37.062Z</time>
      </trkpt>
      <trkpt lat="47.514053" lon="7.965058">
        <ele>504.620489</ele>
        <time>2022-02-19T14:21:44.059Z</time>
      </trkpt>
      <trkpt lat="47.514143" lon="7.965044">
        <ele>504.620489</ele>
        <time>2022-02-19T14:21:53.070Z</time>
      </trkpt>
      <trkpt lat="47.514242" lon="7.965045">
        <ele>504.620489</ele>
        <time>2022-02-19T14:22:02.072Z</time>
      </trkpt>
      <trkpt lat="47.514327" lon="7.965000">
        <ele>504.620489</ele>
        <time>2022-02-19T14:22:08.072Z</time>
      </trkpt>
      <trkpt lat="47.514417" lon="7.964944">
        <ele>504.620489</ele>
        <time>2022-02-19T14:22:15.070Z</time>
      </trkpt>
      <trkpt lat="47.514490" lon="7.964855">
        <ele>504.620489</ele>
        <time>2022-02-19T14:22:22.066Z</time>
      </trkpt>
      <trkpt lat="47.514553" lon="7.964753">
        <ele>504.620489</ele>
        <time>2022-02-19T14:22:29.071Z</time>
      </trkpt>
      <trkpt lat="47.514580" lon="7.964679">
        <ele>504.620489</ele>
        <time>2022-02-19T14:22:35.899Z</time>
      </trkpt>
      <trkpt lat="47.513534" lon="7.965186">
        <ele>500.241539</ele>
        <time>2022-02-26T11:56:31.240Z</time>
      </trkpt>
      <trkpt lat="47.513623" lon="7.965156">
        <ele>500.241539</ele>
        <time>2022-02-26T11:56:41.043Z</time>
      </trkpt>
      <trkpt lat="47.513707" lon="7.965086">
        <ele>500.241539</ele>
        <time>2022-02-26T11:56:48.032Z</time>
      </trkpt>
      <trkpt lat="47.513811" lon="7.965027">
        <ele>500.241539</ele>
        <time>2022-02-26T11:56:57.047Z</time>
      </trkpt>
      <trkpt lat="47.513785" lon="7.964896">
        <ele>500.241539</ele>
        <time>2022-02-26T11:57:04.031Z</time>
      </trkpt>
      <trkpt lat="47.513785" lon="7.964751">
        <ele>500.241539</ele>
        <time>2022-02-26T11:57:13.031Z</time>
      </trkpt>
      <trkpt lat="47.513767" lon="7.964594">
        <ele>500.241539</ele>
        <time>2022-02-26T11:57:18.037Z</time>
      </trkpt>
      <trkpt lat="47.513686" lon="7.964520">
        <ele>500.241539</ele>
        <time>2022-02-26T11:57:27.034Z</time>
      </trkpt>
      <trkpt lat="47.513632" lon="7.964396">
        <ele>500.241539</ele>
        <time>2022-02-26T11:57:36.137Z</time>
      </trkpt>
      <trkpt lat="47.513567" lon="7.964213">
        <ele>500.465920</ele>
        <time>2022-02-26T11:57:46.605Z</time>
      </trkpt>
      <trkpt lat="47.513530" lon="7.964080">
        <ele>501.149011</ele>
        <time>2022-02-26T11:57:54.038Z</time>
      </trkpt>
      <trkpt lat="47.513522" lon="7.963921">
        <ele>501.906189</ele>
        <time>2022-02-26T11:58:07.039Z</time>
      </trkpt>
      <trkpt lat="47.513521" lon="7.963770">
        <ele>502.623318</ele>
        <time>2022-02-26T11:58:16.036Z</time>
      </trkpt>
      <trkpt lat="47.513489" lon="7.963640">
        <ele>503.280406</ele>
        <time>2022-02-26T11:58:24.042Z</time>
      </trkpt>
      <trkpt lat="47.513419" lon="7.963532">
        <ele>503.991249</ele>
        <time>2022-02-26T11:58:31.046Z</time>
      </trkpt>
      <trkpt lat="47.513382" lon="7.963409">
        <ele>504.630687</ele>
        <time>2022-02-26T11:58:38.037Z</time>
      </trkpt>
      <trkpt lat="47.513346" lon="7.963264">
        <ele>505.364338</ele>
        <time>2022-02-26T11:58:46.040Z</time>
      </trkpt>
      <trkpt lat="47.513308" lon="7.963139">
        <ele>506.015319</ele>
        <time>2022-02-26T11:58:55.036Z</time>
      </trkpt>
      <trkpt lat="47.513284" lon="7.963008">
        <ele>506.659917</ele>
        <time>2022-02-26T11:59:01.035Z</time>
      </trkpt>
      <trkpt lat="47.513242" lon="7.962885">
        <ele>507.314448</ele>
        <time>2022-02-26T11:59:10.036Z</time>
      </trkpt>
      <trkpt lat="47.513190" lon="7.962752">
        <ele>508.044254</ele>
        <time>2022-02-26T11:59:16.034Z</time>
      </trkpt>
      <trkpt lat="47.513145" lon="7.962637">
        <ele>508.675423</ele>
        <time>2022-02-26T11:59:25.038Z</time>
      </trkpt>
      <trkpt lat="47.513111" lon="7.962496">
        <ele>509.386427</ele>
        <time>2022-02-26T11:59:33.037Z</time>
      </trkpt>
      <trkpt lat="47.513060" lon="7.962379">
        <ele>510.047725</ele>
        <time>2022-02-26T11:59:40.039Z</time>
      </trkpt>
      <trkpt lat="47.512996" lon="7.962278">
        <ele>510.705418</ele>
        <time>2022-02-26T11:59:46.036Z</time>
      </trkpt>
      <trkpt lat="47.512962" lon="7.962150">
        <ele>511.358611</ele>
        <time>2022-02-26T11:59:55.632Z</time>
      </trkpt>
      <trkpt lat="47.512910" lon="7.962032">
        <ele>512.027722</ele>
        <time>2022-02-26T12:00:01.034Z</time>
      </trkpt>
      <trkpt lat="47.512840" lon="7.961924">
        <ele>512.738569</ele>
        <time>2022-02-26T12:00:10.035Z</time>
      </trkpt>
      <trkpt lat="47.512749" lon="7.961883">
        <ele>513.490458</ele>
        <time>2022-02-26T12:00:18.038Z</time>
      </trkpt>
      <trkpt lat="47.512652" lon="7.961846">
        <ele>514.307440</ele>
        <time>2022-02-26T12:00:24.034Z</time>
      </trkpt>
      <trkpt lat="47.512590" lon="7.961723">
        <ele>515.152926</ele>
        <time>2022-02-26T12:00:33.035Z</time>
      </trkpt>
      <trkpt lat="47.512510" lon="7.961661">
        <ele>515.889406</ele>
        <time>2022-02-26T12:00:39.029Z</time>
      </trkpt>
      <trkpt lat="47.512438" lon="7.961573">
        <ele>516.650897</ele>
        <time>2022-02-26T12:00:44.040Z</time>
      </trkpt>
      <trkpt lat="47.512352" lon="7.961520">
        <ele>517.410667</ele>
        <time>2022-02-26T12:00:52.036Z</time>
      </trkpt>
      <trkpt lat="47.512259" lon="7.961498">
        <ele>518.178811</ele>
        <time>2022-02-26T12:00:59.039Z</time>
      </trkpt>
      <trkpt lat="47.512157" lon="7.961468">
        <ele>519.026995</ele>
        <time>2022-02-26T12:01:08.037Z</time>
      </trkpt>
      <trkpt lat="47.512060" lon="7.961458">
        <ele>519.820057</ele>
        <time>2022-02-26T12:01:17.038Z</time>
      </trkpt>
      <trkpt lat="47.511958" lon="7.961453">
        <ele>520.652440</ele>
        <time>2022-02-26T12:01:26.037Z</time>
      </trkpt>
      <trkpt lat="47.511867" lon="7.961403">
        <ele>521.444113</ele>
        <time>2022-02-26T12:01:37.037Z</time>
      </trkpt>
      <trkpt lat="47.511766" lon="7.961402">
        <ele>522.267903</ele>
        <time>2022-02-26T12:01:47.038Z</time>
      </trkpt>
      <trkpt lat="47.511671" lon="7.961428">
        <ele>523.055864</ele>
        <time>2022-02-26T12:01:52.039Z</time>
      </trkpt>
      <trkpt lat="47.511584" lon="7.961376">
        <ele>523.821093</ele>
        <time>2022-02-26T12:02:01.032Z</time>
      </trkpt>
      <trkpt lat="47.511501" lon="7.961323">
        <ele>524.558335</ele>
        <time>2022-02-26T12:02:08.065Z</time>
      </trkpt>
      <trkpt lat="47.511420" lon="7.961264">
        <ele>525.294610</ele>
        <time>2022-02-26T12:02:15.036Z</time>
      </trkpt>
      <trkpt lat="47.511314" lon="7.961209">
        <ele>526.210720</ele>
        <time>2022-02-26T12:02:23.035Z</time>
      </trkpt>
      <trkpt lat="47.511235" lon="7.961147">
        <ele>526.939988</ele>
        <time>2022-02-26T12:02:29.037Z</time>
      </trkpt>
      <trkpt lat="47.511155" lon="7.961073">
        <ele>527.826763</ele>
        <time>2022-02-26T12:02:37.038Z</time>
      </trkpt>
      <trkpt lat="47.511079" lon="7.960991">
        <ele>529.189114</ele>
        <time>2022-02-26T12:02:49.037Z</time>
      </trkpt>
      <trkpt lat="47.511011" lon="7.960895">
        <ele>530.550303</ele>
        <time>2022-02-26T12:02:58.037Z</time>
      </trkpt>
      <trkpt lat="47.510937" lon="7.960820">
        <ele>531.849462</ele>
        <time>2022-02-26T12:03:05.038Z</time>
      </trkpt>
      <trkpt lat="47.510869" lon="7.960725">
        <ele>533.203919</ele>
        <time>2022-02-26T12:03:15.041Z</time>
      </trkpt>
      <trkpt lat="47.510780" lon="7.960658">
        <ele>534.650353</ele>
        <time>2022-02-26T12:03:23.040Z</time>
      </trkpt>
      <trkpt lat="47.510691" lon="7.960627">
        <ele>535.974880</ele>
        <time>2022-02-26T12:03:30.056Z</time>
      </trkpt>
      <trkpt lat="47.510608" lon="7.960560">
        <ele>537.344403</ele>
        <time>2022-02-26T12:03:38.034Z</time>
      </trkpt>
      <trkpt lat="47.510531" lon="7.960481">
        <ele>538.701560</ele>
        <time>2022-02-26T12:03:46.039Z</time>
      </trkpt>
      <trkpt lat="47.510442" lon="7.960445">
        <ele>540.038141</ele>
        <time>2022-02-26T12:03:53.035Z</time>
      </trkpt>
      <trkpt lat="47.510355" lon="7.960382">
        <ele>541.441179</ele>
        <time>2022-02-26T12:04:00.035Z</time>
      </trkpt>
      <trkpt lat="47.510266" lon="7.960304">
        <ele>542.939479</ele>
        <time>2022-02-26T12:04:08.034Z</time>
      </trkpt>
      <trkpt lat="47.510207" lon="7.960190">
        <ele>544.344798</ele>
        <time>2022-02-26T12:04:16.035Z</time>
      </trkpt>
      <trkpt lat="47.510137" lon="7.960097">
        <ele>545.707332</ele>
        <time>2022-02-26T12:04:23.049Z</time>
      </trkpt>
      <trkpt lat="47.510057" lon="7.959997">
        <ele>547.224125</ele>
        <time>2022-02-26T12:04:32.036Z</time>
      </trkpt>
      <trkpt lat="47.509982" lon="7.959907">
        <ele>548.622728</ele>
        <time>2022-02-26T12:04:41.046Z</time>
      </trkpt>
      <trkpt lat="47.509910" lon="7.959809">
        <ele>550.039608</ele>
        <time>2022-02-26T12:04:48.037Z</time>
      </trkpt>
      <trkpt lat="47.509836" lon="7.959709">
        <ele>551.491074</ele>
        <time>2022-02-26T12:04:56.036Z</time>
      </trkpt>
      <trkpt lat="47.509775" lon="7.959603">
        <ele>552.853714</ele>
        <time>2022-02-26T12:05:04.039Z</time>
      </trkpt>
      <trkpt lat="47.509720" lon="7.959489">
        <ele>553.932657</ele>
        <time>2022-02-26T12:05:11.052Z</time>
      </trkpt>
      <trkpt lat="47.509657" lon="7.959374">
        <ele>554.688065</ele>
        <time>2022-02-26T12:05:20.041Z</time>
      </trkpt>
      <trkpt lat="47.509627" lon="7.959248">
        <ele>555.369655</ele>
        <time>2022-02-26T12:05:28.056Z</time>
      </trkpt>
      <trkpt lat="47.509571" lon="7.959129">
        <ele>556.109577</ele>
        <time>2022-02-26T12:05:34.049Z</time>
      </trkpt>
      <trkpt lat="47.509501" lon="7.959035">
        <ele>556.823381</ele>
        <time>2022-02-26T12:05:41.036Z</time>
      </trkpt>
      <trkpt lat="47.509427" lon="7.958931">
        <ele>557.594038</ele>
        <time>2022-02-26T12:05:49.036Z</time>
      </trkpt>
      <trkpt lat="47.509347" lon="7.958844">
        <ele>558.343778</ele>
        <time>2022-02-26T12:05:57.037Z</time>
      </trkpt>
      <trkpt lat="47.509256" lon="7.958765">
        <ele>559.140554</ele>
        <time>2022-02-26T12:06:05.032Z</time>
      </trkpt>
      <trkpt lat="47.509172" lon="7.958716">
        <ele>559.822478</ele>
        <time>2022-02-26T12:06:12.064Z</time>
      </trkpt>
      <trkpt lat="47.509104" lon="7.958629">
        <ele>560.501298</ele>
        <time>2022-02-26T12:06:19.035Z</time>
      </trkpt>
      <trkpt lat="47.509042" lon="7.958520">
        <ele>561.228303</ele>
        <time>2022-02-26T12:06:27.046Z</time>
      </trkpt>
      <trkpt lat="47.508964" lon="7.958443">
        <ele>561.936398</ele>
        <time>2022-02-26T12:06:36.084Z</time>
      </trkpt>
      <trkpt lat="47.508887" lon="7.958355">
        <ele>562.671109</ele>
        <time>2022-02-26T12:06:42.035Z</time>
      </trkpt>
      <trkpt lat="47.508795" lon="7.958314">
        <ele>563.396783</ele>
        <time>2022-02-26T12:06:49.042Z</time>
      </trkpt>
      <trkpt lat="47.508722" lon="7.958228">
        <ele>564.101421</ele>
        <time>2022-02-26T12:06:56.043Z</time>
      </trkpt>
      <trkpt lat="47.508661" lon="7.958102">
        <ele>564.892313</ele>
        <time>2022-02-26T12:07:03.052Z</time>
      </trkpt>
      <trkpt lat="47.508574" lon="7.958037">
        <ele>565.628359</ele>
        <time>2022-02-26T12:07:12.041Z</time>
      </trkpt>
      <trkpt lat="47.508473" lon="7.957978">
        <ele>566.448448</ele>
        <time>2022-02-26T12:07:21.036Z</time>
      </trkpt>
      <trkpt lat="47.508408" lon="7.957882">
        <ele>567.141925</ele>
        <time>2022-02-26T12:07:26.066Z</time>
      </trkpt>
      <trkpt lat="47.508348" lon="7.957767">
        <ele>567.331174</ele>
        <time>2022-02-26T12:07:33.035Z</time>
      </trkpt>
      <trkpt lat="47.508291" lon="7.957643">
        <ele>567.478292</ele>
        <time>2022-02-26T12:07:41.042Z</time>
      </trkpt>
      <trkpt lat="47.508217" lon="7.957523">
        <ele>567.637667</ele>
        <time>2022-02-26T12:07:48.035Z</time>
      </trkpt>
      <trkpt lat="47.508149" lon="7.957425">
        <ele>567.775471</ele>
        <time>2022-02-26T12:07:54.036Z</time>
      </trkpt>
      <trkpt lat="47.508083" lon="7.957313">
        <ele>567.921256</ele>
        <time>2022-02-26T12:08:01.041Z</time>
      </trkpt>
      <trkpt lat="47.508022" lon="7.957186">
        <ele>568.074107</ele>
        <time>2022-02-26T12:08:08.050Z</time>
      </trkpt>
      <trkpt lat="47.507966" lon="7.957060">
        <ele>568.222048</ele>
        <time>2022-02-26T12:08:18.035Z</time>
      </trkpt>
      <trkpt lat="47.507905" lon="7.956932">
        <ele>568.375700</ele>
        <time>2022-02-26T12:08:25.037Z</time>
      </trkpt>
      <trkpt lat="47.507845" lon="7.956825">
        <ele>568.512104</ele>
        <time>2022-02-26T12:08:33.040Z</time>
      </trkpt>
      <trkpt lat="47.507772" lon="7.956723">
        <ele>568.657864</ele>
        <time>2022-02-26T12:08:40.039Z</time>
      </trkpt>
      <trkpt lat="47.507702" lon="7.956608">
        <ele>568.809705</ele>
        <time>2022-02-26T12:08:48.038Z</time>
      </trkpt>
      <trkpt lat="47.507638" lon="7.956496">
        <ele>568.953598</ele>
        <time>2022-02-26T12:08:56.036Z</time>
      </trkpt>
      <trkpt lat="47.507574" lon="7.956390">
        <ele>569.093051</ele>
        <time>2022-02-26T12:09:02.039Z</time>
      </trkpt>
      <trkpt lat="47.507471" lon="7.956355">
        <ele>569.246505</ele>
        <time>2022-02-26T12:09:09.033Z</time>
      </trkpt>
      <trkpt lat="47.507387" lon="7.956433">
        <ele>569.390489</ele>
        <time>2022-02-26T12:09:18.041Z</time>
      </trkpt>
      <trkpt lat="47.507296" lon="7.956455">
        <ele>569.524379</ele>
        <time>2022-02-26T12:09:25.045Z</time>
      </trkpt>
      <trkpt lat="47.507232" lon="7.956353">
        <ele>569.660931</ele>
        <time>2022-02-26T12:09:30.041Z</time>
      </trkpt>
      <trkpt lat="47.507167" lon="7.956237">
        <ele>569.808765</ele>
        <time>2022-02-26T12:09:37.038Z</time>
      </trkpt>
      <trkpt lat="47.507113" lon="7.956105">
        <ele>569.747971</ele>
        <time>2022-02-26T12:09:43.034Z</time>
      </trkpt>
      <trkpt lat="47.507071" lon="7.955970">
        <ele>569.685592</ele>
        <time>2022-02-26T12:09:52.037Z</time>
      </trkpt>
      <trkpt lat="47.507017" lon="7.955852">
        <ele>569.625774</ele>
        <time>2022-02-26T12:09:58.038Z</time>
      </trkpt>
      <trkpt lat="47.506955" lon="7.955743">
        <ele>569.565970</ele>
        <time>2022-02-26T12:10:03.030Z</time>
      </trkpt>
      <trkpt lat="47.506884" lon="7.955633">
        <ele>569.502116</ele>
        <time>2022-02-26T12:10:12.032Z</time>
      </trkpt>
      <trkpt lat="47.506815" lon="7.955522">
        <ele>569.438807</ele>
        <time>2022-02-26T12:10:20.038Z</time>
      </trkpt>
      <trkpt lat="47.506739" lon="7.955425">
        <ele>569.376461</ele>
        <time>2022-02-26T12:10:28.035Z</time>
      </trkpt>
      <trkpt lat="47.506657" lon="7.955343">
        <ele>569.314980</ele>
        <time>2022-02-26T12:10:34.033Z</time>
      </trkpt>
      <trkpt lat="47.506630" lon="7.955211">
        <ele>569.257096</ele>
        <time>2022-02-26T12:10:41.074Z</time>
      </trkpt>
      <trkpt lat="47.506620" lon="7.955068">
        <ele>569.196759</ele>
        <time>2022-02-26T12:10:48.034Z</time>
      </trkpt>
      <trkpt lat="47.506612" lon="7.954933">
        <ele>569.139883</ele>
        <time>2022-02-26T12:10:56.037Z</time>
      </trkpt>
      <trkpt lat="47.506619" lon="7.954781">
        <ele>569.075941</ele>
        <time>2022-02-26T12:11:05.036Z</time>
      </trkpt>
      <trkpt lat="47.506554" lon="7.954661">
        <ele>569.011386</ele>
        <time>2022-02-26T12:11:12.036Z</time>
      </trkpt>
      <trkpt lat="47.506453" lon="7.954690">
        <ele>568.947465</ele>
        <time>2022-02-26T12:11:19.041Z</time>
      </trkpt>
      <trkpt lat="47.506393" lon="7.954810">
        <ele>568.884806</ele>
        <time>2022-02-26T12:11:26.035Z</time>
      </trkpt>
      <trkpt lat="47.506390" lon="7.954951">
        <ele>568.825599</ele>
        <time>2022-02-26T12:11:34.038Z</time>
      </trkpt>
      <trkpt lat="47.506390" lon="7.955101">
        <ele>568.762645</ele>
        <time>2022-02-26T12:11:42.039Z</time>
      </trkpt>
      <trkpt lat="47.506368" lon="7.955247">
        <ele>568.699863</ele>
        <time>2022-02-26T12:11:50.045Z</time>
      </trkpt>
      <trkpt lat="47.506334" lon="7.955388">
        <ele>569.305948</ele>
        <time>2022-02-26T12:11:58.038Z</time>
      </trkpt>
      <trkpt lat="47.506279" lon="7.955504">
        <ele>569.944330</ele>
        <time>2022-02-26T12:12:06.036Z</time>
      </trkpt>
      <trkpt lat="47.506233" lon="7.955625">
        <ele>570.569755</ele>
        <time>2022-02-26T12:12:13.481Z</time>
      </trkpt>
      <trkpt lat="47.506193" lon="7.955756">
        <ele>571.217323</ele>
        <time>2022-02-26T12:12:22.034Z</time>
      </trkpt>
      <trkpt lat="47.506151" lon="7.955882">
        <ele>571.850224</ele>
        <time>2022-02-26T12:12:30.035Z</time>
      </trkpt>
      <trkpt lat="47.506101" lon="7.956016">
        <ele>572.539785</ele>
        <time>2022-02-26T12:12:37.035Z</time>
      </trkpt>
      <trkpt lat="47.506051" lon="7.956147">
        <ele>573.217550</ele>
        <time>2022-02-26T12:12:44.038Z</time>
      </trkpt>
      <trkpt lat="47.505984" lon="7.956246">
        <ele>573.848795</ele>
        <time>2022-02-26T12:12:53.035Z</time>
      </trkpt>
      <trkpt lat="47.505892" lon="7.956208">
        <ele>574.485704</ele>
        <time>2022-02-26T12:13:01.035Z</time>
      </trkpt>
      <trkpt lat="47.505805" lon="7.956139">
        <ele>575.143854</ele>
        <time>2022-02-26T12:13:07.037Z</time>
      </trkpt>
      <trkpt lat="47.505732" lon="7.956053">
        <ele>575.765967</ele>
        <time>2022-02-26T12:13:16.048Z</time>
      </trkpt>
      <trkpt lat="47.505638" lon="7.956004">
        <ele>576.430507</ele>
        <time>2022-02-26T12:13:24.070Z</time>
      </trkpt>
      <trkpt lat="47.505552" lon="7.955932">
        <ele>577.089333</ele>
        <time>2022-02-26T12:13:31.038Z</time>
      </trkpt>
      <trkpt lat="47.505449" lon="7.955908">
        <ele>577.784617</ele>
        <time>2022-02-26T12:13:38.035Z</time>
      </trkpt>
      <trkpt lat="47.505354" lon="7.955884">
        <ele>578.427258</ele>
        <time>2022-02-26T12:13:45.044Z</time>
      </trkpt>
      <trkpt lat="47.505257" lon="7.955850">
        <ele>579.091961</ele>
        <time>2022-02-26T12:13:53.039Z</time>
      </trkpt>
      <trkpt lat="47.505164" lon="7.955823">
        <ele>579.723921</ele>
        <time>2022-02-26T12:14:00.040Z</time>
      </trkpt>
      <trkpt lat="47.505066" lon="7.955801">
        <ele>580.384879</ele>
        <time>2022-02-26T12:14:09.047Z</time>
      </trkpt>
      <trkpt lat="47.504968" lon="7.955792">
        <ele>581.178461</ele>
        <time>2022-02-26T12:14:19.029Z</time>
      </trkpt>
      <trkpt lat="47.504873" lon="7.955845">
        <ele>582.122602</ele>
        <time>2022-02-26T12:14:33.046Z</time>
      </trkpt>
      <trkpt lat="47.504777" lon="7.955818">
        <ele>583.031354</ele>
        <time>2022-02-26T12:14:39.046Z</time>
      </trkpt>
      <trkpt lat="47.504682" lon="7.955809">
        <ele>583.916643</ele>
        <time>2022-02-26T12:14:44.077Z</time>
      </trkpt>
      <trkpt lat="47.504591" lon="7.955832">
        <ele>584.775172</ele>
        <time>2022-02-26T12:14:49.034Z</time>
      </trkpt>
      <trkpt lat="47.504501" lon="7.955808">
        <ele>585.625627</ele>
        <time>2022-02-26T12:14:55.034Z</time>
      </trkpt>
      <trkpt lat="47.504407" lon="7.955782">
        <ele>586.514937</ele>
        <time>2022-02-26T12:15:01.032Z</time>
      </trkpt>
      <trkpt lat="47.504303" lon="7.955754">
        <ele>587.497984</ele>
        <time>2022-02-26T12:15:12.035Z</time>
      </trkpt>
      <trkpt lat="47.504213" lon="7.955751">
        <ele>588.335178</ele>
        <time>2022-02-26T12:15:22.031Z</time>
      </trkpt>
      <trkpt lat="47.504116" lon="7.955693">
        <ele>589.308071</ele>
        <time>2022-02-26T12:15:29.033Z</time>
      </trkpt>
      <trkpt lat="47.504032" lon="7.955759">
        <ele>590.192476</ele>
        <time>2022-02-26T12:15:42.040Z</time>
      </trkpt>
      <trkpt lat="47.503930" lon="7.955746">
        <ele>591.144566</ele>
        <time>2022-02-26T12:15:50.035Z</time>
      </trkpt>
      <trkpt lat="47.503848" lon="7.955658">
        <ele>592.086467</ele>
        <time>2022-02-26T12:15:54.036Z</time>
      </trkpt>
      <trkpt lat="47.503759" lon="7.955695">
        <ele>592.946171</ele>
        <time>2022-02-26T12:16:02.028Z</time>
      </trkpt>
      <trkpt lat="47.503660" lon="7.955678">
        <ele>593.873026</ele>
        <time>2022-02-26T12:16:08.062Z</time>
      </trkpt>
      <trkpt lat="47.503556" lon="7.955630">
        <ele>594.886127</ele>
        <time>2022-02-26T12:16:15.034Z</time>
      </trkpt>
      <trkpt lat="47.503472" lon="7.955574">
        <ele>595.742878</ele>
        <time>2022-02-26T12:16:26.056Z</time>
      </trkpt>
      <trkpt lat="47.503371" lon="7.955609">
        <ele>596.707553</ele>
        <time>2022-02-26T12:16:35.662Z</time>
      </trkpt>
      <trkpt lat="47.503278" lon="7.955621">
        <ele>597.720944</ele>
        <time>2022-02-26T12:16:42.063Z</time>
      </trkpt>
      <trkpt lat="47.503185" lon="7.955570">
        <ele>599.475941</ele>
        <time>2022-02-26T12:16:48.034Z</time>
      </trkpt>
      <trkpt lat="47.503096" lon="7.955602">
        <ele>601.096647</ele>
        <time>2022-02-26T12:16:56.035Z</time>
      </trkpt>
      <trkpt lat="47.503008" lon="7.955638">
        <ele>602.712239</ele>
        <time>2022-02-26T12:17:06.032Z</time>
      </trkpt>
      <trkpt lat="47.502911" lon="7.955647">
        <ele>604.432087</ele>
        <time>2022-02-26T12:17:11.034Z</time>
      </trkpt>
      <trkpt lat="47.502814" lon="7.955607">
        <ele>606.213926</ele>
        <time>2022-02-26T12:17:15.035Z</time>
      </trkpt>
      <trkpt lat="47.502724" lon="7.955581">
        <ele>607.836582</ele>
        <time>2022-02-26T12:17:23.031Z</time>
      </trkpt>
      <trkpt lat="47.502621" lon="7.955565">
        <ele>609.669244</ele>
        <time>2022-02-26T12:17:31.036Z</time>
      </trkpt>
      <trkpt lat="47.502525" lon="7.955501">
        <ele>611.532365</ele>
        <time>2022-02-26T12:17:36.031Z</time>
      </trkpt>
      <trkpt lat="47.502446" lon="7.955422">
        <ele>613.219428</ele>
        <time>2022-02-26T12:17:53.035Z</time>
      </trkpt>
      <trkpt lat="47.502367" lon="7.955338">
        <ele>614.940664</ele>
        <time>2022-02-26T12:18:00.032Z</time>
      </trkpt>
      <trkpt lat="47.502281" lon="7.955300">
        <ele>616.528845</ele>
        <time>2022-02-26T12:18:03.031Z</time>
      </trkpt>
      <trkpt lat="47.502209" lon="7.955218">
        <ele>618.136399</ele>
        <time>2022-02-26T12:18:23.033Z</time>
      </trkpt>
      <trkpt lat="47.502135" lon="7.955101">
        <ele>620.052394</ele>
        <time>2022-02-26T12:18:59.036Z</time>
      </trkpt>
      <trkpt lat="47.502059" lon="7.955020">
        <ele>621.709596</ele>
        <time>2022-02-26T12:19:04.032Z</time>
      </trkpt>
      <trkpt lat="47.502001" lon="7.954912">
        <ele>623.358932</ele>
        <time>2022-02-26T12:19:13.033Z</time>
      </trkpt>
      <trkpt lat="47.501926" lon="7.954818">
        <ele>625.097944</ele>
        <time>2022-02-26T12:19:18.035Z</time>
      </trkpt>
      <trkpt lat="47.501861" lon="7.954710">
        <ele>626.827085</ele>
        <time>2022-02-26T12:19:25.034Z</time>
      </trkpt>
      <trkpt lat="47.501774" lon="7.954625">
        <ele>628.671719</ele>
        <time>2022-02-26T12:19:31.032Z</time>
      </trkpt>
      <trkpt lat="47.501723" lon="7.954515">
        <ele>630.046817</ele>
        <time>2022-02-26T12:19:45.034Z</time>
      </trkpt>
      <trkpt lat="47.501641" lon="7.954421">
        <ele>631.488002</ele>
        <time>2022-02-26T12:20:06.033Z</time>
      </trkpt>
      <trkpt lat="47.501538" lon="7.954326">
        <ele>633.174368</ele>
        <time>2022-02-26T12:20:10.035Z</time>
      </trkpt>
      <trkpt lat="47.501451" lon="7.954263">
        <ele>634.520203</ele>
        <time>2022-02-26T12:20:14.033Z</time>
      </trkpt>
      <trkpt lat="47.501359" lon="7.954203">
        <ele>635.917190</ele>
        <time>2022-02-26T12:20:18.036Z</time>
      </trkpt>
      <trkpt lat="47.501286" lon="7.954118">
        <ele>637.207807</ele>
        <time>2022-02-26T12:20:23.034Z</time>
      </trkpt>
      <trkpt lat="47.501205" lon="7.954045">
        <ele>638.525568</ele>
        <time>2022-02-26T12:20:29.034Z</time>
      </trkpt>
      <trkpt lat="47.501113" lon="7.953995">
        <ele>639.887418</ele>
        <time>2022-02-26T12:20:32.038Z</time>
      </trkpt>
      <trkpt lat="47.501066" lon="7.953868">
        <ele>641.246807</ele>
        <time>2022-02-26T12:20:41.034Z</time>
      </trkpt>
      <trkpt lat="47.500971" lon="7.953838">
        <ele>642.596606</ele>
        <time>2022-02-26T12:20:47.037Z</time>
      </trkpt>
      <trkpt lat="47.500882" lon="7.953740">
        <ele>644.137985</ele>
        <time>2022-02-26T12:20:56.034Z</time>
      </trkpt>
      <trkpt lat="47.500785" lon="7.953713">
        <ele>645.509493</ele>
        <time>2022-02-26T12:21:06.033Z</time>
      </trkpt>
      <trkpt lat="47.500710" lon="7.953788">
        <ele>646.767211</ele>
        <time>2022-02-26T12:21:14.033Z</time>
      </trkpt>
      <trkpt lat="47.500605" lon="7.953788">
        <ele>648.226260</ele>
        <time>2022-02-26T12:21:29.033Z</time>
      </trkpt>
      <trkpt lat="47.500508" lon="7.953718">
        <ele>649.725800</ele>
        <time>2022-02-26T12:21:35.060Z</time>
      </trkpt>
      <trkpt lat="47.500421" lon="7.953674">
        <ele>651.003344</ele>
        <time>2022-02-26T12:21:47.030Z</time>
      </trkpt>
      <trkpt lat="47.500353" lon="7.953577">
        <ele>652.315618</ele>
        <time>2022-02-26T12:22:01.035Z</time>
      </trkpt>
      <trkpt lat="47.500277" lon="7.953498">
        <ele>653.606086</ele>
        <time>2022-02-26T12:22:10.033Z</time>
      </trkpt>
      <trkpt lat="47.500180" lon="7.953465">
        <ele>655.044134</ele>
        <time>2022-02-26T12:22:19.035Z</time>
      </trkpt>
      <trkpt lat="47.500085" lon="7.953424">
        <ele>656.519714</ele>
        <time>2022-02-26T12:22:33.036Z</time>
      </trkpt>
      <trkpt lat="47.499991" lon="7.953407">
        <ele>657.931820</ele>
        <time>2022-02-26T12:22:39.032Z</time>
      </trkpt>
      <trkpt lat="47.499899" lon="7.953392">
        <ele>659.311976</ele>
        <time>2022-02-26T12:22:45.039Z</time>
      </trkpt>
      <trkpt lat="47.499808" lon="7.953393">
        <ele>660.668961</ele>
        <time>2022-02-26T12:22:50.034Z</time>
      </trkpt>
      <trkpt lat="47.499712" lon="7.953333">
        <ele>662.222848</ele>
        <time>2022-02-26T12:22:55.037Z</time>
      </trkpt>
      <trkpt lat="47.499621" lon="7.953398">
        <ele>663.729531</ele>
        <time>2022-02-26T12:23:06.039Z</time>
      </trkpt>
      <trkpt lat="47.499532" lon="7.953418">
        <ele>665.071863</ele>
        <time>2022-02-26T12:23:17.032Z</time>
      </trkpt>
      <trkpt lat="47.499445" lon="7.953464">
        <ele>666.449448</ele>
        <time>2022-02-26T12:23:33.035Z</time>
      </trkpt>
      <trkpt lat="47.499351" lon="7.953413">
        <ele>667.942327</ele>
        <time>2022-02-26T12:23:38.048Z</time>
      </trkpt>
      <trkpt lat="47.499250" lon="7.953345">
        <ele>669.596870</ele>
        <time>2022-02-26T12:23:45.876Z</time>
      </trkpt>
      <trkpt lat="47.499161" lon="7.953305">
        <ele>670.983825</ele>
        <time>2022-02-26T12:23:52.096Z</time>
      </trkpt>
      <trkpt lat="47.499132" lon="7.953172">
        <ele>672.391752</ele>
        <time>2022-02-26T12:24:07.066Z</time>
      </trkpt>
      <trkpt lat="47.499078" lon="7.953036">
        <ele>673.980950</ele>
        <time>2022-02-26T12:24:16.036Z</time>
      </trkpt>
      <trkpt lat="47.499021" lon="7.952908">
        <ele>675.525374</ele>
        <time>2022-02-26T12:24:23.037Z</time>
      </trkpt>
      <trkpt lat="47.498947" lon="7.952831">
        <ele>676.874205</ele>
        <time>2022-02-26T12:24:34.033Z</time>
      </trkpt>
      <trkpt lat="47.498860" lon="7.952794">
        <ele>678.223995</ele>
        <time>2022-02-26T12:24:47.032Z</time>
      </trkpt>
      <trkpt lat="47.498768" lon="7.952791">
        <ele>679.596187</ele>
        <time>2022-02-26T12:24:52.040Z</time>
      </trkpt>
      <trkpt lat="47.498667" lon="7.952744">
        <ele>681.070062</ele>
        <time>2022-02-26T12:25:00.044Z</time>
      </trkpt>
      <trkpt lat="47.498573" lon="7.952722">
        <ele>681.227932</ele>
        <time>2022-02-26T12:25:05.036Z</time>
      </trkpt>
      <trkpt lat="47.498482" lon="7.952666">
        <ele>681.391416</ele>
        <time>2022-02-26T12:25:13.037Z</time>
      </trkpt>
      <trkpt lat="47.498379" lon="7.952643">
        <ele>681.564212</ele>
        <time>2022-02-26T12:25:18.037Z</time>
      </trkpt>
      <trkpt lat="47.498284" lon="7.952640">
        <ele>681.721839</ele>
        <time>2022-02-26T12:25:24.033Z</time>
      </trkpt>
      <trkpt lat="47.498207" lon="7.952715">
        <ele>681.874748</ele>
        <time>2022-02-26T12:25:32.035Z</time>
      </trkpt>
      <trkpt lat="47.498118" lon="7.952676">
        <ele>682.028720</ele>
        <time>2022-02-26T12:25:37.033Z</time>
      </trkpt>
      <trkpt lat="47.498026" lon="7.952663">
        <ele>682.182029</ele>
        <time>2022-02-26T12:25:42.068Z</time>
      </trkpt>
      <trkpt lat="47.497934" lon="7.952625">
        <ele>682.340476</ele>
        <time>2022-02-26T12:25:51.039Z</time>
      </trkpt>
      <trkpt lat="47.497838" lon="7.952648">
        <ele>682.501799</ele>
        <time>2022-02-26T12:25:58.033Z</time>
      </trkpt>
      <trkpt lat="47.497754" lon="7.952575">
        <ele>682.663386</ele>
        <time>2022-02-26T12:26:09.038Z</time>
      </trkpt>
      <trkpt lat="47.497668" lon="7.952515">
        <ele>682.821103</ele>
        <time>2022-02-26T12:26:14.036Z</time>
      </trkpt>
      <trkpt lat="47.497574" lon="7.952536">
        <ele>682.978802</ele>
        <time>2022-02-26T12:26:29.037Z</time>
      </trkpt>
      <trkpt lat="47.497471" lon="7.952490">
        <ele>683.157273</ele>
        <time>2022-02-26T12:26:35.068Z</time>
      </trkpt>
      <trkpt lat="47.497382" lon="7.952455">
        <ele>683.310034</ele>
        <time>2022-02-26T12:26:39.074Z</time>
      </trkpt>
      <trkpt lat="47.497300" lon="7.952354">
        <ele>683.487000</ele>
        <time>2022-02-26T12:26:46.033Z</time>
      </trkpt>
      <trkpt lat="47.497213" lon="7.952320">
        <ele>683.636266</ele>
        <time>2022-02-26T12:26:53.033Z</time>
      </trkpt>
      <trkpt lat="47.497131" lon="7.952263">
        <ele>683.786547</ele>
        <time>2022-02-26T12:26:59.038Z</time>
      </trkpt>
      <trkpt lat="47.497040" lon="7.952206">
        <ele>683.950465</ele>
        <time>2022-02-26T12:27:07.032Z</time>
      </trkpt>
      <trkpt lat="47.496950" lon="7.952183">
        <ele>684.642561</ele>
        <time>2022-02-26T12:27:14.039Z</time>
      </trkpt>
      <trkpt lat="47.496851" lon="7.952139">
        <ele>686.325265</ele>
        <time>2022-02-26T12:27:21.032Z</time>
      </trkpt>
      <trkpt lat="47.496763" lon="7.952067">
        <ele>687.962118</ele>
        <time>2022-02-26T12:27:27.033Z</time>
      </trkpt>
      <trkpt lat="47.496664" lon="7.952001">
        <ele>689.729670</ele>
        <time>2022-02-26T12:27:33.039Z</time>
      </trkpt>
      <trkpt lat="47.496571" lon="7.951944">
        <ele>691.368281</ele>
        <time>2022-02-26T12:27:45.033Z</time>
      </trkpt>
      <trkpt lat="47.496485" lon="7.951876">
        <ele>692.955520</ele>
        <time>2022-02-26T12:27:53.038Z</time>
      </trkpt>
      <trkpt lat="47.496382" lon="7.951839">
        <ele>694.680928</ele>
        <time>2022-02-26T12:27:58.037Z</time>
      </trkpt>
      <trkpt lat="47.496279" lon="7.951790">
        <ele>696.442141</ele>
        <time>2022-02-26T12:28:04.043Z</time>
      </trkpt>
      <trkpt lat="47.496069" lon="7.951739">
        <ele>699.906431</ele>
        <time>2022-02-26T12:28:37.051Z</time>
      </trkpt>
      <trkpt lat="47.495952" lon="7.951692">
        <ele>701.879972</ele>
        <time>2022-02-26T12:28:40.032Z</time>
      </trkpt>
      <trkpt lat="47.495865" lon="7.951638">
        <ele>703.415735</ele>
        <time>2022-02-26T12:28:48.031Z</time>
      </trkpt>
      <trkpt lat="47.495785" lon="7.951572">
        <ele>704.906701</ele>
        <time>2022-02-26T12:28:53.035Z</time>
      </trkpt>
      <trkpt lat="47.495689" lon="7.951552">
        <ele>706.484884</ele>
        <time>2022-02-26T12:29:03.031Z</time>
      </trkpt>
      <trkpt lat="47.495607" lon="7.951478">
        <ele>708.048321</ele>
        <time>2022-02-26T12:29:11.032Z</time>
      </trkpt>
      <trkpt lat="47.495515" lon="7.951478">
        <ele>709.545983</ele>
        <time>2022-02-26T12:29:19.033Z</time>
      </trkpt>
      <trkpt lat="47.495402" lon="7.951453">
        <ele>711.405940</ele>
        <time>2022-02-26T12:29:31.046Z</time>
      </trkpt>
      <trkpt lat="47.495301" lon="7.951431">
        <ele>713.067822</ele>
        <time>2022-02-26T12:29:36.034Z</time>
      </trkpt>
      <trkpt lat="47.495211" lon="7.951387">
        <ele>713.931297</ele>
        <time>2022-02-26T12:29:40.029Z</time>
      </trkpt>
      <trkpt lat="47.495120" lon="7.951335">
        <ele>714.682927</ele>
        <time>2022-02-26T12:29:46.032Z</time>
      </trkpt>
      <trkpt lat="47.495039" lon="7.951266">
        <ele>715.403053</ele>
        <time>2022-02-26T12:29:53.035Z</time>
      </trkpt>
      <trkpt lat="47.494949" lon="7.951243">
        <ele>716.106794</ele>
        <time>2022-02-26T12:29:59.036Z</time>
      </trkpt>
      <trkpt lat="47.494855" lon="7.951182">
        <ele>716.897657</ele>
        <time>2022-02-26T12:30:08.033Z</time>
      </trkpt>
      <trkpt lat="47.494769" lon="7.951140">
        <ele>717.595459</ele>
        <time>2022-02-26T12:30:15.035Z</time>
      </trkpt>
      <trkpt lat="47.494670" lon="7.951121">
        <ele>718.364672</ele>
        <time>2022-02-26T12:31:00.033Z</time>
      </trkpt>
      <trkpt lat="47.494583" lon="7.950999">
        <ele>719.288148</ele>
        <time>2022-02-26T12:31:03.031Z</time>
      </trkpt>
      <trkpt lat="47.494481" lon="7.950896">
        <ele>720.239597</ele>
        <time>2022-02-26T12:31:06.033Z</time>
      </trkpt>
      <trkpt lat="47.494380" lon="7.950786">
        <ele>721.205836</ele>
        <time>2022-02-26T12:31:09.033Z</time>
      </trkpt>
      <trkpt lat="47.494291" lon="7.950739">
        <ele>721.933957</ele>
        <time>2022-02-26T12:31:12.033Z</time>
      </trkpt>
      <trkpt lat="47.494182" lon="7.950746">
        <ele>722.774627</ele>
        <time>2022-02-26T12:31:17.033Z</time>
      </trkpt>
      <trkpt lat="47.494104" lon="7.950663">
        <ele>723.514860</ele>
        <time>2022-02-26T12:31:25.046Z</time>
      </trkpt>
      <trkpt lat="47.494071" lon="7.950514">
        <ele>724.331199</ele>
        <time>2022-02-26T12:31:31.044Z</time>
      </trkpt>
      <trkpt lat="47.493985" lon="7.950435">
        <ele>725.111120</ele>
        <time>2022-02-26T12:31:36.034Z</time>
      </trkpt>
      <trkpt lat="47.493900" lon="7.950334">
        <ele>725.951037</ele>
        <time>2022-02-26T12:31:41.035Z</time>
      </trkpt>
      <trkpt lat="47.493824" lon="7.950246">
        <ele>726.694565</ele>
        <time>2022-02-26T12:31:46.034Z</time>
      </trkpt>
      <trkpt lat="47.493728" lon="7.950193">
        <ele>727.459144</ele>
        <time>2022-02-26T12:31:59.033Z</time>
      </trkpt>
      <trkpt lat="47.493639" lon="7.950171">
        <ele>728.097480</ele>
        <time>2022-02-26T12:32:10.033Z</time>
      </trkpt>
      <trkpt lat="47.493554" lon="7.950117">
        <ele>728.751855</ele>
        <time>2022-02-26T12:32:16.034Z</time>
      </trkpt>
      <trkpt lat="47.493460" lon="7.950103">
        <ele>729.420200</ele>
        <time>2022-02-26T12:32:24.040Z</time>
      </trkpt>
      <trkpt lat="47.493381" lon="7.950017">
        <ele>730.113972</ele>
        <time>2022-02-26T12:32:34.031Z</time>
      </trkpt>
      <trkpt lat="47.493285" lon="7.950034">
        <ele>730.797950</ele>
        <time>2022-02-26T12:32:42.037Z</time>
      </trkpt>
      <trkpt lat="47.493190" lon="7.949972">
        <ele>731.532452</ele>
        <time>2022-02-26T12:32:48.033Z</time>
      </trkpt>
      <trkpt lat="47.493097" lon="7.949921">
        <ele>732.234076</ele>
        <time>2022-02-26T12:32:55.030Z</time>
      </trkpt>
      <trkpt lat="47.493000" lon="7.949872">
        <ele>732.959156</ele>
        <time>2022-02-26T12:33:03.032Z</time>
      </trkpt>
      <trkpt lat="47.492906" lon="7.949870">
        <ele>733.624211</ele>
        <time>2022-02-26T12:33:11.036Z</time>
      </trkpt>
      <trkpt lat="47.492810" lon="7.949853">
        <ele>734.308190</ele>
        <time>2022-02-26T12:33:19.032Z</time>
      </trkpt>
      <trkpt lat="47.492714" lon="7.949813">
        <ele>735.013726</ele>
        <time>2022-02-26T12:33:29.033Z</time>
      </trkpt>
      <trkpt lat="47.492605" lon="7.949827">
        <ele>735.787725</ele>
        <time>2022-02-26T12:33:39.299Z</time>
      </trkpt>
      <trkpt lat="47.492507" lon="7.949813">
        <ele>736.484231</ele>
        <time>2022-02-26T12:33:47.040Z</time>
      </trkpt>
      <trkpt lat="47.492422" lon="7.949741">
        <ele>737.177073</ele>
        <time>2022-02-26T12:33:53.034Z</time>
      </trkpt>
      <trkpt lat="47.492368" lon="7.949631">
        <ele>737.826999</ele>
        <time>2022-02-26T12:34:01.035Z</time>
      </trkpt>
      <trkpt lat="47.492280" lon="7.949597">
        <ele>738.470403</ele>
        <time>2022-02-26T12:34:09.033Z</time>
      </trkpt>
      <trkpt lat="47.492191" lon="7.949569">
        <ele>739.114086</ele>
        <time>2022-02-26T12:34:15.030Z</time>
      </trkpt>
      <trkpt lat="47.492100" lon="7.949540">
        <ele>739.772605</ele>
        <time>2022-02-26T12:34:24.033Z</time>
      </trkpt>
      <trkpt lat="47.492003" lon="7.949495">
        <ele>740.403701</ele>
        <time>2022-02-26T12:34:30.035Z</time>
      </trkpt>
      <trkpt lat="47.491910" lon="7.949430">
        <ele>741.022319</ele>
        <time>2022-02-26T12:34:35.036Z</time>
      </trkpt>
      <trkpt lat="47.491820" lon="7.949388">
        <ele>741.589925</ele>
        <time>2022-02-26T12:34:42.047Z</time>
      </trkpt>
      <trkpt lat="47.491727" lon="7.949395">
        <ele>742.150023</ele>
        <time>2022-02-26T12:34:50.033Z</time>
      </trkpt>
      <trkpt lat="47.491635" lon="7.949366">
        <ele>742.715797</ele>
        <time>2022-02-26T12:34:58.033Z</time>
      </trkpt>
      <trkpt lat="47.491541" lon="7.949354">
        <ele>743.283287</ele>
        <time>2022-02-26T12:35:07.033Z</time>
      </trkpt>
      <trkpt lat="47.491453" lon="7.949383">
        <ele>743.825553</ele>
        <time>2022-02-26T12:35:17.032Z</time>
      </trkpt>
      <trkpt lat="47.491359" lon="7.949344">
        <ele>744.412741</ele>
        <time>2022-02-26T12:35:25.037Z</time>
      </trkpt>
      <trkpt lat="47.491254" lon="7.949337">
        <ele>745.044935</ele>
        <time>2022-02-26T12:35:33.033Z</time>
      </trkpt>
      <trkpt lat="47.491281" lon="7.949469">
        <ele>745.605452</ele>
        <time>2022-02-26T12:36:28.037Z</time>
      </trkpt>
      <trkpt lat="47.491348" lon="7.949577">
        <ele>746.201326</ele>
        <time>2022-02-26T12:36:36.033Z</time>
      </trkpt>
      <trkpt lat="47.491424" lon="7.949656">
        <ele>746.759940</ele>
        <time>2022-02-26T12:36:44.033Z</time>
      </trkpt>
      <trkpt lat="47.491526" lon="7.949698">
        <ele>747.396753</ele>
        <time>2022-02-26T12:36:52.046Z</time>
      </trkpt>
      <trkpt lat="47.491619" lon="7.949755">
        <ele>748.002201</ele>
        <time>2022-02-26T12:36:59.030Z</time>
      </trkpt>
      <trkpt lat="47.491709" lon="7.949788">
        <ele>748.559899</ele>
        <time>2022-02-26T12:37:06.033Z</time>
      </trkpt>
      <trkpt lat="47.491797" lon="7.949817">
        <ele>749.102165</ele>
        <time>2022-02-26T12:37:15.035Z</time>
      </trkpt>
      <trkpt lat="47.491891" lon="7.949877">
        <ele>749.717900</ele>
        <time>2022-02-26T12:37:25.032Z</time>
      </trkpt>
      <trkpt lat="47.491979" lon="7.949906">
        <ele>750.260165</ele>
        <time>2022-02-26T12:37:32.032Z</time>
      </trkpt>
      <trkpt lat="47.492056" lon="7.949975">
        <ele>750.687557</ele>
        <time>2022-02-26T12:37:38.035Z</time>
      </trkpt>
      <trkpt lat="47.492133" lon="7.950062">
        <ele>750.431199</ele>
        <time>2022-02-26T12:37:50.036Z</time>
      </trkpt>
      <trkpt lat="47.492220" lon="7.950112">
        <ele>750.184222</ele>
        <time>2022-02-26T12:37:56.032Z</time>
      </trkpt>
      <trkpt lat="47.492283" lon="7.950227">
        <ele>749.919502</ele>
        <time>2022-02-26T12:38:03.035Z</time>
      </trkpt>
      <trkpt lat="47.492345" lon="7.950326">
        <ele>749.678142</ele>
        <time>2022-02-26T12:38:10.032Z</time>
      </trkpt>
      <trkpt lat="47.492419" lon="7.950406">
        <ele>749.435636</ele>
        <time>2022-02-26T12:38:23.031Z</time>
      </trkpt>
      <trkpt lat="47.492505" lon="7.950444">
        <ele>749.198129</ele>
        <time>2022-02-26T12:38:29.031Z</time>
      </trkpt>
      <trkpt lat="47.492614" lon="7.950471">
        <ele>748.905671</ele>
        <time>2022-02-26T12:38:38.064Z</time>
      </trkpt>
      <trkpt lat="47.492698" lon="7.950527">
        <ele>748.661872</ele>
        <time>2022-02-26T12:38:44.032Z</time>
      </trkpt>
      <trkpt lat="47.492773" lon="7.950611">
        <ele>748.412975</ele>
        <time>2022-02-26T12:38:51.035Z</time>
      </trkpt>
      <trkpt lat="47.492845" lon="7.950701">
        <ele>748.163577</ele>
        <time>2022-02-26T12:38:57.031Z</time>
      </trkpt>
      <trkpt lat="47.492930" lon="7.950774">
        <ele>747.903514</ele>
        <time>2022-02-26T12:39:06.037Z</time>
      </trkpt>
      <trkpt lat="47.493016" lon="7.950823">
        <ele>747.659651</ele>
        <time>2022-02-26T12:39:13.028Z</time>
      </trkpt>
      <trkpt lat="47.493085" lon="7.950914">
        <ele>747.415079</ele>
        <time>2022-02-26T12:39:24.041Z</time>
      </trkpt>
      <trkpt lat="47.493160" lon="7.951002">
        <ele>747.161802</ele>
        <time>2022-02-26T12:39:33.049Z</time>
      </trkpt>
      <trkpt lat="47.493245" lon="7.951053">
        <ele>746.919086</ele>
        <time>2022-02-26T12:39:41.032Z</time>
      </trkpt>
      <trkpt lat="47.493325" lon="7.951159">
        <ele>746.634938</ele>
        <time>2022-02-26T12:39:50.148Z</time>
      </trkpt>
      <trkpt lat="47.493364" lon="7.951295">
        <ele>746.370771</ele>
        <time>2022-02-26T12:39:56.032Z</time>
      </trkpt>
      <trkpt lat="47.493435" lon="7.951400">
        <ele>746.105161</ele>
        <time>2022-02-26T12:40:02.035Z</time>
      </trkpt>
      <trkpt lat="47.493491" lon="7.951524">
        <ele>746.584621</ele>
        <time>2022-02-26T12:40:11.035Z</time>
      </trkpt>
      <trkpt lat="47.493551" lon="7.951630">
        <ele>747.822812</ele>
        <time>2022-02-26T12:40:19.032Z</time>
      </trkpt>
      <trkpt lat="47.493639" lon="7.951690">
        <ele>749.106812</ele>
        <time>2022-02-26T12:40:25.043Z</time>
      </trkpt>
      <trkpt lat="47.493725" lon="7.951784">
        <ele>750.523621</ele>
        <time>2022-02-26T12:40:34.044Z</time>
      </trkpt>
      <trkpt lat="47.493819" lon="7.951830">
        <ele>751.835663</ele>
        <time>2022-02-26T12:40:41.037Z</time>
      </trkpt>
      <trkpt lat="47.493864" lon="7.951957">
        <ele>753.119721</ele>
        <time>2022-02-26T12:40:53.043Z</time>
      </trkpt>
      <trkpt lat="47.493938" lon="7.952064">
        <ele>754.490724</ele>
        <time>2022-02-26T12:40:59.037Z</time>
      </trkpt>
      <trkpt lat="47.494001" lon="7.952166">
        <ele>755.728140</ele>
        <time>2022-02-26T12:41:07.036Z</time>
      </trkpt>
      <trkpt lat="47.494089" lon="7.952210">
        <ele>756.959091</ele>
        <time>2022-02-26T12:41:14.033Z</time>
      </trkpt>
      <trkpt lat="47.494178" lon="7.952269">
        <ele>758.251451</ele>
        <time>2022-02-26T12:41:22.037Z</time>
      </trkpt>
      <trkpt lat="47.494261" lon="7.952333">
        <ele>759.491718</ele>
        <time>2022-02-26T12:41:33.029Z</time>
      </trkpt>
      <trkpt lat="47.494303" lon="7.952460">
        <ele>760.757793</ele>
        <time>2022-02-26T12:41:44.032Z</time>
      </trkpt>
      <trkpt lat="47.494388" lon="7.952515">
        <ele>761.987183</ele>
        <time>2022-02-26T12:41:49.067Z</time>
      </trkpt>
      <trkpt lat="47.494463" lon="7.952627">
        <ele>763.399129</ele>
        <time>2022-02-26T12:41:53.031Z</time>
      </trkpt>
      <trkpt lat="47.494553" lon="7.952660">
        <ele>764.627888</ele>
        <time>2022-02-26T12:42:01.029Z</time>
      </trkpt>
      <trkpt lat="47.494625" lon="7.952749">
        <ele>765.871065</ele>
        <time>2022-02-26T12:42:10.033Z</time>
      </trkpt>
      <trkpt lat="47.494693" lon="7.952855">
        <ele>767.179848</ele>
        <time>2022-02-26T12:42:18.035Z</time>
      </trkpt>
      <trkpt lat="47.494771" lon="7.952921">
        <ele>768.370530</ele>
        <time>2022-02-26T12:42:25.037Z</time>
      </trkpt>
      <trkpt lat="47.494822" lon="7.953042">
        <ele>769.647487</ele>
        <time>2022-02-26T12:42:33.036Z</time>
      </trkpt>
      <trkpt lat="47.494876" lon="7.953161">
        <ele>770.138219</ele>
        <time>2022-02-26T12:42:40.098Z</time>
      </trkpt>
      <trkpt lat="47.494905" lon="7.953301">
        <ele>770.531314</ele>
        <time>2022-02-26T12:43:00.034Z</time>
      </trkpt>
      <trkpt lat="47.494936" lon="7.953430">
        <ele>770.898865</ele>
        <time>2022-02-26T12:43:08.034Z</time>
      </trkpt>
      <trkpt lat="47.495021" lon="7.953517">
        <ele>771.309474</ele>
        <time>2022-02-26T12:43:13.067Z</time>
      </trkpt>
      <trkpt lat="47.495079" lon="7.953625">
        <ele>771.679826</ele>
        <time>2022-02-26T12:43:17.032Z</time>
      </trkpt>
      <trkpt lat="47.495142" lon="7.953740">
        <ele>772.077268</ele>
        <time>2022-02-26T12:43:23.034Z</time>
      </trkpt>
      <trkpt lat="47.495234" lon="7.953810">
        <ele>772.488273</ele>
        <time>2022-02-26T12:43:30.034Z</time>
      </trkpt>
      <trkpt lat="47.495300" lon="7.953902">
        <ele>772.848493</ele>
        <time>2022-02-26T12:43:36.036Z</time>
      </trkpt>
      <trkpt lat="47.495347" lon="7.954023">
        <ele>773.223167</ele>
        <time>2022-02-26T12:43:53.035Z</time>
      </trkpt>
      <trkpt lat="47.495416" lon="7.954119">
        <ele>773.599427</ele>
        <time>2022-02-26T12:44:02.037Z</time>
      </trkpt>
      <trkpt lat="47.495497" lon="7.954209">
        <ele>774.001849</ele>
        <time>2022-02-26T12:44:08.042Z</time>
      </trkpt>
      <trkpt lat="47.495580" lon="7.954299">
        <ele>774.410654</ele>
        <time>2022-02-26T12:44:13.039Z</time>
      </trkpt>
      <trkpt lat="47.495669" lon="7.954351">
        <ele>774.790821</ele>
        <time>2022-02-26T12:44:19.035Z</time>
      </trkpt>
      <trkpt lat="47.495757" lon="7.954435">
        <ele>775.206868</ele>
        <time>2022-02-26T12:44:27.067Z</time>
      </trkpt>
      <trkpt lat="47.495838" lon="7.954533">
        <ele>775.622538</ele>
        <time>2022-02-26T12:44:37.039Z</time>
      </trkpt>
      <trkpt lat="47.495903" lon="7.954640">
        <ele>776.008802</ele>
        <time>2022-02-26T12:44:45.035Z</time>
      </trkpt>
      <trkpt lat="47.495971" lon="7.954765">
        <ele>776.439606</ele>
        <time>2022-02-26T12:44:51.045Z</time>
      </trkpt>
      <trkpt lat="47.496066" lon="7.954778">
        <ele>776.818667</ele>
        <time>2022-02-26T12:45:00.045Z</time>
      </trkpt>
      <trkpt lat="47.496129" lon="7.954873">
        <ele>777.276403</ele>
        <time>2022-02-26T12:45:08.029Z</time>
      </trkpt>
      <trkpt lat="47.496189" lon="7.954985">
        <ele>777.826908</ele>
        <time>2022-02-26T12:45:16.033Z</time>
      </trkpt>
      <trkpt lat="47.496245" lon="7.955107">
        <ele>778.394965</ele>
        <time>2022-02-26T12:45:23.032Z</time>
      </trkpt>
      <trkpt lat="47.496304" lon="7.955224">
        <ele>778.957257</ele>
        <time>2022-02-26T12:45:30.028Z</time>
      </trkpt>
      <trkpt lat="47.496388" lon="7.955305">
        <ele>779.528753</ele>
        <time>2022-02-26T12:45:36.029Z</time>
      </trkpt>
      <trkpt lat="47.496467" lon="7.955387">
        <ele>780.078791</ele>
        <time>2022-02-26T12:45:42.035Z</time>
      </trkpt>
      <trkpt lat="47.496516" lon="7.955521">
        <ele>780.665622</ele>
        <time>2022-02-26T12:45:50.067Z</time>
      </trkpt>
      <trkpt lat="47.496572" lon="7.955628">
        <ele>781.186902</ele>
        <time>2022-02-26T12:46:01.029Z</time>
      </trkpt>
      <trkpt lat="47.496648" lon="7.955709">
        <ele>781.720768</ele>
        <time>2022-02-26T12:46:07.036Z</time>
      </trkpt>
      <trkpt lat="47.496721" lon="7.955790">
        <ele>782.240853</ele>
        <time>2022-02-26T12:46:12.036Z</time>
      </trkpt>
      <trkpt lat="47.496804" lon="7.955856">
        <ele>782.777949</ele>
        <time>2022-02-26T12:46:17.036Z</time>
      </trkpt>
      <trkpt lat="47.496866" lon="7.955957">
        <ele>783.303520</ele>
        <time>2022-02-26T12:46:42.033Z</time>
      </trkpt>
      <trkpt lat="47.496940" lon="7.956057">
        <ele>783.874726</ele>
        <time>2022-02-26T12:46:48.033Z</time>
      </trkpt>
      <trkpt lat="47.497015" lon="7.956150">
        <ele>784.432468</ele>
        <time>2022-02-26T12:46:56.044Z</time>
      </trkpt>
      <trkpt lat="47.497037" lon="7.956293">
        <ele>784.997314</ele>
        <time>2022-02-26T12:47:01.029Z</time>
      </trkpt>
      <trkpt lat="47.497122" lon="7.956398">
        <ele>785.628434</ele>
        <time>2022-02-26T12:47:10.031Z</time>
      </trkpt>
      <trkpt lat="47.497181" lon="7.956508">
        <ele>786.169355</ele>
        <time>2022-02-26T12:47:16.031Z</time>
      </trkpt>
      <trkpt lat="47.497254" lon="7.956595">
        <ele>786.703619</ele>
        <time>2022-02-26T12:47:27.032Z</time>
      </trkpt>
      <trkpt lat="47.497305" lon="7.956708">
        <ele>787.205762</ele>
        <time>2022-02-26T12:47:45.034Z</time>
      </trkpt>
      <trkpt lat="47.497399" lon="7.956790">
        <ele>787.370167</ele>
        <time>2022-02-26T12:47:51.031Z</time>
      </trkpt>
      <trkpt lat="47.497473" lon="7.956887">
        <ele>787.519108</ele>
        <time>2022-02-26T12:47:59.031Z</time>
      </trkpt>
      <trkpt lat="47.497578" lon="7.956976">
        <ele>787.701425</ele>
        <time>2022-02-26T12:48:04.043Z</time>
      </trkpt>
      <trkpt lat="47.497664" lon="7.957070">
        <ele>787.862510</ele>
        <time>2022-02-26T12:48:10.032Z</time>
      </trkpt>
      <trkpt lat="47.497716" lon="7.957190">
        <ele>788.007639</ele>
        <time>2022-02-26T12:48:18.033Z</time>
      </trkpt>
      <trkpt lat="47.497748" lon="7.957326">
        <ele>788.154243</ele>
        <time>2022-02-26T12:48:25.034Z</time>
      </trkpt>
      <trkpt lat="47.497740" lon="7.957467">
        <ele>788.298286</ele>
        <time>2022-02-26T12:48:34.031Z</time>
      </trkpt>
      <trkpt lat="47.497760" lon="7.957601">
        <ele>788.437987</ele>
        <time>2022-02-26T12:48:45.037Z</time>
      </trkpt>
      <trkpt lat="47.497774" lon="7.957736">
        <ele>788.577027</ele>
        <time>2022-02-26T12:48:54.076Z</time>
      </trkpt>
      <trkpt lat="47.497833" lon="7.957845">
        <ele>788.719209</ele>
        <time>2022-02-26T12:49:02.027Z</time>
      </trkpt>
      <trkpt lat="47.497898" lon="7.957953">
        <ele>788.866450</ele>
        <time>2022-02-26T12:49:09.031Z</time>
      </trkpt>
      <trkpt lat="47.497952" lon="7.958071">
        <ele>789.011536</ele>
        <time>2022-02-26T12:49:16.044Z</time>
      </trkpt>
      <trkpt lat="47.497965" lon="7.958220">
        <ele>789.164478</ele>
        <time>2022-02-26T12:49:22.032Z</time>
      </trkpt>
      <trkpt lat="47.498040" lon="7.958322">
        <ele>789.317946</ele>
        <time>2022-02-26T12:49:29.031Z</time>
      </trkpt>
      <trkpt lat="47.498111" lon="7.958419">
        <ele>789.463533</ele>
        <time>2022-02-26T12:49:35.032Z</time>
      </trkpt>
      <trkpt lat="47.498127" lon="7.958558">
        <ele>789.607073</ele>
        <time>2022-02-26T12:49:44.028Z</time>
      </trkpt>
      <trkpt lat="47.498204" lon="7.958640">
        <ele>789.750004</ele>
        <time>2022-02-26T12:49:59.862Z</time>
      </trkpt>
      <trkpt lat="47.498273" lon="7.958735">
        <ele>789.891996</ele>
        <time>2022-02-26T12:50:07.031Z</time>
      </trkpt>
      <trkpt lat="47.498329" lon="7.958848">
        <ele>788.741086</ele>
        <time>2022-02-26T12:50:12.062Z</time>
      </trkpt>
      <trkpt lat="47.498380" lon="7.958976">
        <ele>787.344055</ele>
        <time>2022-02-26T12:50:19.027Z</time>
      </trkpt>
      <trkpt lat="47.498411" lon="7.959103">
        <ele>786.074565</ele>
        <time>2022-02-26T12:50:27.027Z</time>
      </trkpt>
      <trkpt lat="47.498484" lon="7.959205">
        <ele>784.677644</ele>
        <time>2022-02-26T12:50:36.031Z</time>
      </trkpt>
      <trkpt lat="47.498488" lon="7.959349">
        <ele>783.322729</ele>
        <time>2022-02-26T12:50:43.033Z</time>
      </trkpt>
      <trkpt lat="47.498549" lon="7.959484">
        <ele>781.795880</ele>
        <time>2022-02-26T12:50:52.038Z</time>
      </trkpt>
      <trkpt lat="47.498578" lon="7.959626">
        <ele>780.401255</ele>
        <time>2022-02-26T12:50:57.034Z</time>
      </trkpt>
      <trkpt lat="47.498631" lon="7.959749">
        <ele>779.029745</ele>
        <time>2022-02-26T12:51:06.070Z</time>
      </trkpt>
      <trkpt lat="47.498670" lon="7.959879">
        <ele>777.692522</ele>
        <time>2022-02-26T12:51:13.039Z</time>
      </trkpt>
      <trkpt lat="47.498716" lon="7.960017">
        <ele>776.245849</ele>
        <time>2022-02-26T12:51:19.073Z</time>
      </trkpt>
      <trkpt lat="47.498748" lon="7.960142">
        <ele>774.989171</ele>
        <time>2022-02-26T12:51:31.030Z</time>
      </trkpt>
      <trkpt lat="47.498818" lon="7.960257">
        <ele>773.533961</ele>
        <time>2022-02-26T12:51:36.035Z</time>
      </trkpt>
      <trkpt lat="47.498869" lon="7.960385">
        <ele>772.136939</ele>
        <time>2022-02-26T12:51:40.052Z</time>
      </trkpt>
      <trkpt lat="47.498916" lon="7.960658">
        <ele>769.488416</ele>
        <time>2022-02-26T12:52:09.039Z</time>
      </trkpt>
      <trkpt lat="47.498964" lon="7.960779">
        <ele>768.169284</ele>
        <time>2022-02-26T12:52:16.040Z</time>
      </trkpt>
      <trkpt lat="47.498984" lon="7.960912">
        <ele>766.888339</ele>
        <time>2022-02-26T12:52:22.036Z</time>
      </trkpt>
      <trkpt lat="47.499010" lon="7.961039">
        <ele>765.640787</ele>
        <time>2022-02-26T12:52:29.037Z</time>
      </trkpt>
      <trkpt lat="47.499048" lon="7.961170">
        <ele>765.296018</ele>
        <time>2022-02-26T12:52:37.033Z</time>
      </trkpt>
      <trkpt lat="47.499071" lon="7.961308">
        <ele>766.255602</ele>
        <time>2022-02-26T12:52:46.030Z</time>
      </trkpt>
      <trkpt lat="47.499095" lon="7.961451">
        <ele>767.250353</ele>
        <time>2022-02-26T12:52:56.029Z</time>
      </trkpt>
      <trkpt lat="47.499100" lon="7.961591">
        <ele>768.196828</ele>
        <time>2022-02-26T12:53:02.054Z</time>
      </trkpt>
      <trkpt lat="47.499136" lon="7.961720">
        <ele>769.139094</ele>
        <time>2022-02-26T12:53:09.069Z</time>
      </trkpt>
      <trkpt lat="47.499176" lon="7.961863">
        <ele>770.183976</ele>
        <time>2022-02-26T12:53:16.180Z</time>
      </trkpt>
      <trkpt lat="47.499150" lon="7.962004">
        <ele>771.170700</ele>
        <time>2022-02-26T12:53:24.033Z</time>
      </trkpt>
      <trkpt lat="47.499125" lon="7.962137">
        <ele>772.102701</ele>
        <time>2022-02-26T12:53:34.067Z</time>
      </trkpt>
      <trkpt lat="47.499134" lon="7.962285">
        <ele>773.105904</ele>
        <time>2022-02-26T12:53:42.039Z</time>
      </trkpt>
      <trkpt lat="47.499126" lon="7.962437">
        <ele>774.135181</ele>
        <time>2022-02-26T12:53:50.061Z</time>
      </trkpt>
      <trkpt lat="47.499138" lon="7.962570">
        <ele>775.041049</ele>
        <time>2022-02-26T12:53:57.043Z</time>
      </trkpt>
      <trkpt lat="47.499148" lon="7.962719">
        <ele>776.051914</ele>
        <time>2022-02-26T12:54:05.034Z</time>
      </trkpt>
      <trkpt lat="47.499157" lon="7.962853">
        <ele>776.961021</ele>
        <time>2022-02-26T12:54:10.034Z</time>
      </trkpt>
      <trkpt lat="47.499165" lon="7.962996">
        <ele>777.929732</ele>
        <time>2022-02-26T12:54:18.039Z</time>
      </trkpt>
      <trkpt lat="47.499180" lon="7.963143">
        <ele>778.933399</ele>
        <time>2022-02-26T12:54:25.034Z</time>
      </trkpt>
      <trkpt lat="47.499152" lon="7.963270">
        <ele>779.835287</ele>
        <time>2022-02-26T12:56:15.041Z</time>
      </trkpt>
      <trkpt lat="47.499117" lon="7.963468">
        <ele>781.217002</ele>
        <time>2022-02-26T12:56:53.038Z</time>
      </trkpt>
      <trkpt lat="47.499103" lon="7.963599">
        <ele>782.112394</ele>
        <time>2022-02-26T12:56:59.760Z</time>
      </trkpt>
      <trkpt lat="47.499129" lon="7.963728">
        <ele>782.841666</ele>
        <time>2022-02-26T12:57:08.024Z</time>
      </trkpt>
      <trkpt lat="47.499129" lon="7.963878">
        <ele>782.771578</ele>
        <time>2022-02-26T12:57:18.032Z</time>
      </trkpt>
      <trkpt lat="47.499149" lon="7.964032">
        <ele>782.698303</ele>
        <time>2022-02-26T12:57:26.035Z</time>
      </trkpt>
      <trkpt lat="47.499145" lon="7.964170">
        <ele>782.633763</ele>
        <time>2022-02-26T12:57:32.036Z</time>
      </trkpt>
      <trkpt lat="47.499118" lon="7.964315">
        <ele>782.563484</ele>
        <time>2022-02-26T12:57:38.045Z</time>
      </trkpt>
      <trkpt lat="47.499075" lon="7.964450">
        <ele>782.493746</ele>
        <time>2022-02-26T12:57:47.035Z</time>
      </trkpt>
      <trkpt lat="47.499054" lon="7.964581">
        <ele>782.430836</ele>
        <time>2022-02-26T12:57:53.034Z</time>
      </trkpt>
      <trkpt lat="47.499057" lon="7.964721">
        <ele>782.365387</ele>
        <time>2022-02-26T12:58:09.035Z</time>
      </trkpt>
      <trkpt lat="47.499080" lon="7.964849">
        <ele>782.303499</ele>
        <time>2022-02-26T12:58:15.034Z</time>
      </trkpt>
      <trkpt lat="47.499122" lon="7.964982">
        <ele>782.234900</ele>
        <time>2022-02-26T12:58:22.032Z</time>
      </trkpt>
      <trkpt lat="47.499163" lon="7.965101">
        <ele>782.172484</ele>
        <time>2022-02-26T12:58:38.038Z</time>
      </trkpt>
      <trkpt lat="47.499194" lon="7.965255">
        <ele>782.097400</ele>
        <time>2022-02-26T12:58:48.036Z</time>
      </trkpt>
      <trkpt lat="47.499239" lon="7.965403">
        <ele>782.021566</ele>
        <time>2022-02-26T12:58:55.044Z</time>
      </trkpt>
      <trkpt lat="47.499256" lon="7.965537">
        <ele>781.957859</ele>
        <time>2022-02-26T12:59:01.092Z</time>
      </trkpt>
      <trkpt lat="47.499304" lon="7.965650">
        <ele>781.895490</ele>
        <time>2022-02-26T12:59:10.031Z</time>
      </trkpt>
      <trkpt lat="47.499229" lon="7.965774">
        <ele>781.817724</ele>
        <time>2022-02-26T13:01:14.048Z</time>
      </trkpt>
      <trkpt lat="47.499214" lon="7.965906">
        <ele>781.755180</ele>
        <time>2022-02-26T13:01:21.024Z</time>
      </trkpt>
      <trkpt lat="47.499243" lon="7.966060">
        <ele>781.680480</ele>
        <time>2022-02-26T13:01:29.072Z</time>
      </trkpt>
      <trkpt lat="47.499266" lon="7.966225">
        <ele>781.546648</ele>
        <time>2022-02-26T13:01:39.036Z</time>
      </trkpt>
      <trkpt lat="47.499309" lon="7.966361">
        <ele>780.965183</ele>
        <time>2022-02-26T13:01:48.054Z</time>
      </trkpt>
      <trkpt lat="47.499336" lon="7.966503">
        <ele>780.393941</ele>
        <time>2022-02-26T13:01:58.028Z</time>
      </trkpt>
      <trkpt lat="47.499399" lon="7.966619">
        <ele>779.817596</ele>
        <time>2022-02-26T13:02:05.077Z</time>
      </trkpt>
      <trkpt lat="47.499444" lon="7.966744">
        <ele>779.269116</ele>
        <time>2022-02-26T13:02:13.028Z</time>
      </trkpt>
      <trkpt lat="47.499474" lon="7.966880">
        <ele>778.715111</ele>
        <time>2022-02-26T13:02:21.036Z</time>
      </trkpt>
      <trkpt lat="47.499499" lon="7.967020">
        <ele>778.154360</ele>
        <time>2022-02-26T13:02:29.058Z</time>
      </trkpt>
      <trkpt lat="47.499503" lon="7.967154">
        <ele>777.634955</ele>
        <time>2022-02-26T13:02:36.042Z</time>
      </trkpt>
      <trkpt lat="47.499523" lon="7.967303">
        <ele>777.046693</ele>
        <time>2022-02-26T13:02:43.028Z</time>
      </trkpt>
      <trkpt lat="47.499557" lon="7.967431">
        <ele>776.514094</ele>
        <time>2022-02-26T13:02:50.025Z</time>
      </trkpt>
      <trkpt lat="47.499602" lon="7.967557">
        <ele>775.962195</ele>
        <time>2022-02-26T13:02:57.031Z</time>
      </trkpt>
      <trkpt lat="47.499623" lon="7.967703">
        <ele>775.384157</ele>
        <time>2022-02-26T13:03:06.035Z</time>
      </trkpt>
      <trkpt lat="47.499670" lon="7.967832">
        <ele>774.816611</ele>
        <time>2022-02-26T13:03:13.030Z</time>
      </trkpt>
      <trkpt lat="47.499693" lon="7.967962">
        <ele>774.296228</ele>
        <time>2022-02-26T13:03:24.042Z</time>
      </trkpt>
      <trkpt lat="47.499696" lon="7.968113">
        <ele>773.711248</ele>
        <time>2022-02-26T13:03:32.036Z</time>
      </trkpt>
      <trkpt lat="47.499757" lon="7.968221">
        <ele>773.166132</ele>
        <time>2022-02-26T13:03:40.047Z</time>
      </trkpt>
      <trkpt lat="47.499733" lon="7.968367">
        <ele>772.584273</ele>
        <time>2022-02-26T13:03:47.038Z</time>
      </trkpt>
      <trkpt lat="47.499782" lon="7.968486">
        <ele>772.044618</ele>
        <time>2022-02-26T13:03:56.031Z</time>
      </trkpt>
      <trkpt lat="47.499784" lon="7.968637">
        <ele>771.459779</ele>
        <time>2022-02-26T13:04:03.038Z</time>
      </trkpt>
      <trkpt lat="47.499737" lon="7.968774">
        <ele>770.982353</ele>
        <time>2022-02-26T13:04:10.039Z</time>
      </trkpt>
      <trkpt lat="47.499749" lon="7.968919">
        <ele>770.569522</ele>
        <time>2022-02-26T13:04:16.056Z</time>
      </trkpt>
      <trkpt lat="47.499789" lon="7.969056">
        <ele>770.147753</ele>
        <time>2022-02-26T13:04:23.040Z</time>
      </trkpt>
      <trkpt lat="47.499821" lon="7.969193">
        <ele>769.738106</ele>
        <time>2022-02-26T13:04:32.037Z</time>
      </trkpt>
      <trkpt lat="47.499882" lon="7.969313">
        <ele>769.313714</ele>
        <time>2022-02-26T13:04:40.035Z</time>
      </trkpt>
      <trkpt lat="47.499841" lon="7.969432">
        <ele>768.936215</ele>
        <time>2022-02-26T13:04:50.036Z</time>
      </trkpt>
      <trkpt lat="47.499774" lon="7.969524">
        <ele>768.553932</ele>
        <time>2022-02-26T13:05:04.036Z</time>
      </trkpt>
      <trkpt lat="47.499724" lon="7.969635">
        <ele>768.176915</ele>
        <time>2022-02-26T13:05:10.031Z</time>
      </trkpt>
      <trkpt lat="47.499731" lon="7.969770">
        <ele>767.794284</ele>
        <time>2022-02-26T13:05:22.032Z</time>
      </trkpt>
      <trkpt lat="47.499816" lon="7.969895">
        <ele>767.293083</ele>
        <time>2022-02-26T13:05:32.519Z</time>
      </trkpt>
      <trkpt lat="47.499875" lon="7.970016">
        <ele>766.871379</ele>
        <time>2022-02-26T13:05:40.028Z</time>
      </trkpt>
      <trkpt lat="47.499945" lon="7.970107">
        <ele>766.481674</ele>
        <time>2022-02-26T13:05:46.036Z</time>
      </trkpt>
      <trkpt lat="47.500000" lon="7.970229">
        <ele>766.067192</ele>
        <time>2022-02-26T13:05:53.032Z</time>
      </trkpt>
      <trkpt lat="47.500097" lon="7.970292">
        <ele>765.624102</ele>
        <time>2022-02-26T13:05:58.066Z</time>
      </trkpt>
      <trkpt lat="47.500193" lon="7.970365">
        <ele>765.172645</ele>
        <time>2022-02-26T13:06:04.031Z</time>
      </trkpt>
      <trkpt lat="47.500197" lon="7.970498">
        <ele>764.796420</ele>
        <time>2022-02-26T13:06:15.032Z</time>
      </trkpt>
      <trkpt lat="47.500143" lon="7.970613">
        <ele>764.400644</ele>
        <time>2022-02-26T13:06:22.031Z</time>
      </trkpt>
      <trkpt lat="47.500191" lon="7.970733">
        <ele>764.006546</ele>
        <time>2022-02-26T13:06:31.035Z</time>
      </trkpt>
      <trkpt lat="47.500275" lon="7.970799">
        <ele>763.071467</ele>
        <time>2022-02-26T13:06:39.036Z</time>
      </trkpt>
      <trkpt lat="47.500236" lon="7.970885">
        <ele>761.839598</ele>
        <time>2022-02-26T13:07:25.684Z</time>
      </trkpt>
      <trkpt lat="47.500181" lon="7.970650">
        <ele>758.881756</ele>
        <time>2022-02-26T13:08:57.036Z</time>
      </trkpt>
      <trkpt lat="47.500236" lon="7.970538">
        <ele>757.235012</ele>
        <time>2022-02-26T13:09:05.046Z</time>
      </trkpt>
      <trkpt lat="47.500279" lon="7.970421">
        <ele>755.650945</ele>
        <time>2022-02-26T13:09:14.039Z</time>
      </trkpt>
      <trkpt lat="47.500380" lon="7.970397">
        <ele>753.850164</ele>
        <time>2022-02-26T13:09:25.035Z</time>
      </trkpt>
      <trkpt lat="47.500455" lon="7.970476">
        <ele>752.229678</ele>
        <time>2022-02-26T13:09:43.034Z</time>
      </trkpt>
      <trkpt lat="47.500539" lon="7.970544">
        <ele>750.544232</ele>
        <time>2022-02-26T13:09:55.035Z</time>
      </trkpt>
      <trkpt lat="47.500574" lon="7.970668">
        <ele>748.945957</ele>
        <time>2022-02-26T13:10:06.029Z</time>
      </trkpt>
      <trkpt lat="47.500624" lon="7.970784">
        <ele>747.309487</ele>
        <time>2022-02-26T13:10:29.030Z</time>
      </trkpt>
      <trkpt lat="47.500677" lon="7.970893">
        <ele>745.712297</ele>
        <time>2022-02-26T13:10:44.026Z</time>
      </trkpt>
      <trkpt lat="47.500727" lon="7.971015">
        <ele>744.015238</ele>
        <time>2022-02-26T13:10:53.035Z</time>
      </trkpt>
      <trkpt lat="47.500804" lon="7.971096">
        <ele>742.352278</ele>
        <time>2022-02-26T13:10:58.037Z</time>
      </trkpt>
      <trkpt lat="47.500807" lon="7.971238">
        <ele>740.662649</ele>
        <time>2022-02-26T13:11:05.037Z</time>
      </trkpt>
      <trkpt lat="47.500878" lon="7.971320">
        <ele>739.077312</ele>
        <time>2022-02-26T13:11:11.035Z</time>
      </trkpt>
      <trkpt lat="47.500954" lon="7.971429">
        <ele>737.214387</ele>
        <time>2022-02-26T13:11:19.030Z</time>
      </trkpt>
      <trkpt lat="47.500942" lon="7.971573">
        <ele>735.488823</ele>
        <time>2022-02-26T13:11:25.037Z</time>
      </trkpt>
      <trkpt lat="47.500900" lon="7.971693">
        <ele>733.881513</ele>
        <time>2022-02-26T13:11:30.032Z</time>
      </trkpt>
      <trkpt lat="47.500940" lon="7.971813">
        <ele>732.290093</ele>
        <time>2022-02-26T13:11:42.041Z</time>
      </trkpt>
      <trkpt lat="47.500912" lon="7.971958">
        <ele>730.908138</ele>
        <time>2022-02-26T13:11:58.032Z</time>
      </trkpt>
      <trkpt lat="47.500907" lon="7.972108">
        <ele>729.576903</ele>
        <time>2022-02-26T13:12:04.035Z</time>
      </trkpt>
      <trkpt lat="47.500994" lon="7.972160">
        <ele>728.345846</ele>
        <time>2022-02-26T13:12:19.036Z</time>
      </trkpt>
      <trkpt lat="47.500918" lon="7.972400">
        <ele>725.996348</ele>
        <time>2022-02-26T13:13:22.047Z</time>
      </trkpt>
      <trkpt lat="47.500848" lon="7.972506">
        <ele>724.682422</ele>
        <time>2022-02-26T13:13:34.047Z</time>
      </trkpt>
      <trkpt lat="47.500747" lon="7.972497">
        <ele>723.354824</ele>
        <time>2022-02-26T13:13:46.036Z</time>
      </trkpt>
      <trkpt lat="47.500654" lon="7.972472">
        <ele>722.114632</ele>
        <time>2022-02-26T13:13:51.032Z</time>
      </trkpt>
      <trkpt lat="47.500574" lon="7.972537">
        <ele>720.917233</ele>
        <time>2022-02-26T13:13:57.032Z</time>
      </trkpt>
      <trkpt lat="47.500476" lon="7.972580">
        <ele>719.576093</ele>
        <time>2022-02-26T13:14:04.038Z</time>
      </trkpt>
      <trkpt lat="47.500374" lon="7.972580">
        <ele>718.237773</ele>
        <time>2022-02-26T13:14:14.034Z</time>
      </trkpt>
      <trkpt lat="47.500276" lon="7.972605">
        <ele>716.932980</ele>
        <time>2022-02-26T13:14:22.030Z</time>
      </trkpt>
      <trkpt lat="47.500203" lon="7.972523">
        <ele>715.730587</ele>
        <time>2022-02-26T13:14:28.030Z</time>
      </trkpt>
      <trkpt lat="47.500114" lon="7.972453">
        <ele>714.408219</ele>
        <time>2022-02-26T13:14:35.030Z</time>
      </trkpt>
      <trkpt lat="47.500029" lon="7.972399">
        <ele>713.194570</ele>
        <time>2022-02-26T13:14:41.036Z</time>
      </trkpt>
      <trkpt lat="47.499932" lon="7.972372">
        <ele>711.899546</ele>
        <time>2022-02-26T13:14:48.034Z</time>
      </trkpt>
      <trkpt lat="47.499839" lon="7.972406">
        <ele>710.642645</ele>
        <time>2022-02-26T13:14:55.038Z</time>
      </trkpt>
      <trkpt lat="47.499739" lon="7.972449">
        <ele>709.276323</ele>
        <time>2022-02-26T13:15:05.033Z</time>
      </trkpt>
      <trkpt lat="47.499652" lon="7.972501">
        <ele>708.314577</ele>
        <time>2022-02-26T13:15:12.037Z</time>
      </trkpt>
      <trkpt lat="47.499575" lon="7.972583">
        <ele>707.786480</ele>
        <time>2022-02-26T13:15:20.034Z</time>
      </trkpt>
      <trkpt lat="47.499486" lon="7.972654">
        <ele>707.223614</ele>
        <time>2022-02-26T13:15:25.037Z</time>
      </trkpt>
      <trkpt lat="47.499397" lon="7.972713">
        <ele>706.680706</ele>
        <time>2022-02-26T13:15:33.033Z</time>
      </trkpt>
      <trkpt lat="47.499308" lon="7.972658">
        <ele>706.143772</ele>
        <time>2022-02-26T13:15:42.030Z</time>
      </trkpt>
      <trkpt lat="47.499235" lon="7.972565">
        <ele>705.607560</ele>
        <time>2022-02-26T13:15:53.031Z</time>
      </trkpt>
      <trkpt lat="47.499151" lon="7.972511">
        <ele>705.097711</ele>
        <time>2022-02-26T13:15:59.033Z</time>
      </trkpt>
      <trkpt lat="47.499060" lon="7.972435">
        <ele>704.516011</ele>
        <time>2022-02-26T13:16:05.034Z</time>
      </trkpt>
      <trkpt lat="47.498957" lon="7.972379">
        <ele>703.905125</ele>
        <time>2022-02-26T13:16:11.034Z</time>
      </trkpt>
      <trkpt lat="47.498869" lon="7.972327">
        <ele>703.377610</ele>
        <time>2022-02-26T13:16:18.031Z</time>
      </trkpt>
      <trkpt lat="47.498777" lon="7.972276">
        <ele>702.830682</ele>
        <time>2022-02-26T13:16:25.034Z</time>
      </trkpt>
      <trkpt lat="47.498706" lon="7.972188">
        <ele>702.315128</ele>
        <time>2022-02-26T13:16:34.047Z</time>
      </trkpt>
      <trkpt lat="47.498612" lon="7.972153">
        <ele>701.775504</ele>
        <time>2022-02-26T13:16:41.037Z</time>
      </trkpt>
      <trkpt lat="47.498518" lon="7.972112">
        <ele>701.229935</ele>
        <time>2022-02-26T13:16:48.035Z</time>
      </trkpt>
      <trkpt lat="47.498412" lon="7.972065">
        <ele>700.613898</ele>
        <time>2022-02-26T13:16:53.037Z</time>
      </trkpt>
      <trkpt lat="47.498321" lon="7.972044">
        <ele>700.101159</ele>
        <time>2022-02-26T13:17:01.034Z</time>
      </trkpt>
      <trkpt lat="47.498225" lon="7.972046">
        <ele>699.566651</ele>
        <time>2022-02-26T13:17:15.032Z</time>
      </trkpt>
      <trkpt lat="47.498153" lon="7.972142">
        <ele>699.027156</ele>
        <time>2022-02-26T13:17:27.028Z</time>
      </trkpt>
      <trkpt lat="47.498050" lon="7.972140">
        <ele>698.390968</ele>
        <time>2022-02-26T13:17:34.033Z</time>
      </trkpt>
      <trkpt lat="47.497969" lon="7.972069">
        <ele>697.151104</ele>
        <time>2022-02-26T13:17:44.026Z</time>
      </trkpt>
      <trkpt lat="47.497886" lon="7.972007">
        <ele>695.926611</ele>
        <time>2022-02-26T13:17:52.032Z</time>
      </trkpt>
      <trkpt lat="47.497805" lon="7.971937">
        <ele>694.691257</ele>
        <time>2022-02-26T13:18:01.031Z</time>
      </trkpt>
      <trkpt lat="47.497709" lon="7.971866">
        <ele>693.277815</ele>
        <time>2022-02-26T13:18:07.038Z</time>
      </trkpt>
      <trkpt lat="47.497618" lon="7.971807">
        <ele>691.969339</ele>
        <time>2022-02-26T13:18:15.031Z</time>
      </trkpt>
      <trkpt lat="47.497516" lon="7.971778">
        <ele>690.601370</ele>
        <time>2022-02-26T13:18:23.027Z</time>
      </trkpt>
      <trkpt lat="47.497477" lon="7.971906">
        <ele>689.351908</ele>
        <time>2022-02-26T13:18:40.149Z</time>
      </trkpt>
      <trkpt lat="47.497393" lon="7.971858">
        <ele>688.165984</ele>
        <time>2022-02-26T13:18:47.664Z</time>
      </trkpt>
      <trkpt lat="47.497446" lon="7.971986">
        <ele>686.830101</ele>
        <time>2022-02-26T13:18:54.655Z</time>
      </trkpt>
      <trkpt lat="47.497504" lon="7.972131">
        <ele>685.330656</ele>
        <time>2022-02-26T13:18:59.661Z</time>
      </trkpt>
      <trkpt lat="47.497521" lon="7.972289">
        <ele>683.906991</ele>
        <time>2022-02-26T13:19:03.655Z</time>
      </trkpt>
      <trkpt lat="47.497266" lon="7.972498">
        <ele>680.067926</ele>
        <time>2022-02-26T13:20:14.662Z</time>
      </trkpt>
      <trkpt lat="47.497241" lon="7.972634">
        <ele>678.813744</ele>
        <time>2022-02-26T13:20:21.658Z</time>
      </trkpt>
      <trkpt lat="47.497173" lon="7.972730">
        <ele>677.576062</ele>
        <time>2022-02-26T13:20:29.656Z</time>
      </trkpt>
      <trkpt lat="47.497091" lon="7.972797">
        <ele>676.342433</ele>
        <time>2022-02-26T13:20:37.687Z</time>
      </trkpt>
      <trkpt lat="47.497003" lon="7.972766">
        <ele>675.151038</ele>
        <time>2022-02-26T13:20:56.669Z</time>
      </trkpt>
      <trkpt lat="47.496910" lon="7.972749">
        <ele>674.210162</ele>
        <time>2022-02-26T13:21:01.658Z</time>
      </trkpt>
      <trkpt lat="47.496888" lon="7.972609">
        <ele>673.351032</ele>
        <time>2022-02-26T13:21:13.670Z</time>
      </trkpt>
      <trkpt lat="47.496843" lon="7.972493">
        <ele>672.551525</ele>
        <time>2022-02-26T13:21:24.673Z</time>
      </trkpt>
      <trkpt lat="47.496932" lon="7.972547">
        <ele>671.700580</ele>
        <time>2022-02-26T13:21:55.662Z</time>
      </trkpt>
      <trkpt lat="47.497014" lon="7.972611">
        <ele>670.880470</ele>
        <time>2022-02-26T13:22:11.658Z</time>
      </trkpt>
      <trkpt lat="47.497104" lon="7.972621">
        <ele>670.082026</ele>
        <time>2022-02-26T13:22:29.671Z</time>
      </trkpt>
      <trkpt lat="47.497011" lon="7.972573">
        <ele>669.210694</ele>
        <time>2022-02-26T13:23:40.657Z</time>
      </trkpt>
      <trkpt lat="47.496928" lon="7.972514">
        <ele>668.396125</ele>
        <time>2022-02-26T13:23:55.660Z</time>
      </trkpt>
      <trkpt lat="47.496831" lon="7.972495">
        <ele>667.530512</ele>
        <time>2022-02-26T13:24:08.668Z</time>
      </trkpt>
      <trkpt lat="47.496825" lon="7.972630">
        <ele>666.721859</ele>
        <time>2022-02-26T13:24:40.663Z</time>
      </trkpt>
      <trkpt lat="47.496904" lon="7.972724">
        <ele>665.825131</ele>
        <time>2022-02-26T13:24:46.659Z</time>
      </trkpt>
      <trkpt lat="47.496985" lon="7.972805">
        <ele>664.960326</ele>
        <time>2022-02-26T13:24:58.663Z</time>
      </trkpt>
      <trkpt lat="47.497079" lon="7.972815">
        <ele>664.126591</ele>
        <time>2022-02-26T13:25:10.659Z</time>
      </trkpt>
      <trkpt lat="47.497161" lon="7.972757">
        <ele>663.322582</ele>
        <time>2022-02-26T13:25:15.658Z</time>
      </trkpt>
      <trkpt lat="47.497257" lon="7.972765">
        <ele>662.471954</ele>
        <time>2022-02-26T13:25:22.237Z</time>
      </trkpt>
      <trkpt lat="47.497339" lon="7.972834">
        <ele>661.637486</ele>
        <time>2022-02-26T13:25:31.231Z</time>
      </trkpt>
      <trkpt lat="47.497417" lon="7.972922">
        <ele>660.769837</ele>
        <time>2022-02-26T13:25:38.268Z</time>
      </trkpt>
      <trkpt lat="47.497446" lon="7.973053">
        <ele>659.945885</ele>
        <time>2022-02-26T13:25:48.248Z</time>
      </trkpt>
      <trkpt lat="47.497486" lon="7.973187">
        <ele>659.070271</ele>
        <time>2022-02-26T13:25:53.233Z</time>
      </trkpt>
      <trkpt lat="47.497560" lon="7.973289">
        <ele>658.778756</ele>
        <time>2022-02-26T13:26:00.237Z</time>
      </trkpt>
      <trkpt lat="47.497647" lon="7.973336">
        <ele>658.643322</ele>
        <time>2022-02-26T13:26:06.239Z</time>
      </trkpt>
      <trkpt lat="47.497731" lon="7.973425">
        <ele>658.492255</ele>
        <time>2022-02-26T13:26:12.239Z</time>
      </trkpt>
      <trkpt lat="47.497749" lon="7.973561">
        <ele>658.355334</ele>
        <time>2022-02-26T13:26:22.240Z</time>
      </trkpt>
      <trkpt lat="47.497781" lon="7.973696">
        <ele>658.213985</ele>
        <time>2022-02-26T13:26:29.243Z</time>
      </trkpt>
      <trkpt lat="47.497855" lon="7.973773">
        <ele>658.081706</ele>
        <time>2022-02-26T13:26:35.248Z</time>
      </trkpt>
      <trkpt lat="47.497948" lon="7.973829">
        <ele>657.934883</ele>
        <time>2022-02-26T13:26:40.237Z</time>
      </trkpt>
      <trkpt lat="47.498048" lon="7.973876">
        <ele>657.781453</ele>
        <time>2022-02-26T13:26:45.238Z</time>
      </trkpt>
      <trkpt lat="47.498133" lon="7.973941">
        <ele>657.641543</ele>
        <time>2022-02-26T13:26:52.235Z</time>
      </trkpt>
      <trkpt lat="47.498240" lon="7.973959">
        <ele>657.484064</ele>
        <time>2022-02-26T13:26:59.249Z</time>
      </trkpt>
      <trkpt lat="47.498316" lon="7.974041">
        <ele>657.346532</ele>
        <time>2022-02-26T13:27:07.244Z</time>
      </trkpt>
      <trkpt lat="47.498396" lon="7.974152">
        <ele>657.186180</ele>
        <time>2022-02-26T13:27:19.238Z</time>
      </trkpt>
      <trkpt lat="47.498458" lon="7.974260">
        <ele>657.046160</ele>
        <time>2022-02-26T13:27:26.238Z</time>
      </trkpt>
      <trkpt lat="47.498565" lon="7.974278">
        <ele>656.888681</ele>
        <time>2022-02-26T13:27:32.243Z</time>
      </trkpt>
      <trkpt lat="47.498661" lon="7.974318">
        <ele>656.742838</ele>
        <time>2022-02-26T13:27:37.236Z</time>
      </trkpt>
      <trkpt lat="47.498748" lon="7.974351">
        <ele>656.611503</ele>
        <time>2022-02-26T13:27:44.240Z</time>
      </trkpt>
      <trkpt lat="47.498842" lon="7.974383">
        <ele>656.470453</ele>
        <time>2022-02-26T13:27:52.238Z</time>
      </trkpt>
      <trkpt lat="47.498943" lon="7.974340">
        <ele>656.316767</ele>
        <time>2022-02-26T13:28:07.239Z</time>
      </trkpt>
      <trkpt lat="47.499033" lon="7.974329">
        <ele>656.556212</ele>
        <time>2022-02-26T13:28:12.236Z</time>
      </trkpt>
      <trkpt lat="47.499127" lon="7.974311">
        <ele>657.036333</ele>
        <time>2022-02-26T13:28:19.238Z</time>
      </trkpt>
      <trkpt lat="47.499209" lon="7.974383">
        <ele>657.519284</ele>
        <time>2022-02-26T13:28:33.239Z</time>
      </trkpt>
      <trkpt lat="47.499298" lon="7.974426">
        <ele>657.993518</ele>
        <time>2022-02-26T13:28:40.250Z</time>
      </trkpt>
      <trkpt lat="47.499407" lon="7.974428">
        <ele>658.545694</ele>
        <time>2022-02-26T13:28:45.248Z</time>
      </trkpt>
      <trkpt lat="47.499510" lon="7.974403">
        <ele>659.074403</ele>
        <time>2022-02-26T13:28:50.241Z</time>
      </trkpt>
      <trkpt lat="47.499603" lon="7.974400">
        <ele>659.545602</ele>
        <time>2022-02-26T13:28:55.237Z</time>
      </trkpt>
      <trkpt lat="47.499706" lon="7.974416">
        <ele>660.070208</ele>
        <time>2022-02-26T13:29:06.238Z</time>
      </trkpt>
      <trkpt lat="47.499802" lon="7.974428">
        <ele>660.558222</ele>
        <time>2022-02-26T13:29:12.240Z</time>
      </trkpt>
      <trkpt lat="47.499886" lon="7.974488">
        <ele>661.030672</ele>
        <time>2022-02-26T13:29:18.238Z</time>
      </trkpt>
      <trkpt lat="47.499977" lon="7.974548">
        <ele>661.535291</ele>
        <time>2022-02-26T13:29:28.237Z</time>
      </trkpt>
      <trkpt lat="47.500060" lon="7.974599">
        <ele>661.990510</ele>
        <time>2022-02-26T13:29:34.236Z</time>
      </trkpt>
      <trkpt lat="47.500116" lon="7.974714">
        <ele>662.475635</ele>
        <time>2022-02-26T13:29:41.277Z</time>
      </trkpt>
      <trkpt lat="47.500218" lon="7.974735">
        <ele>662.997284</ele>
        <time>2022-02-26T13:29:51.249Z</time>
      </trkpt>
      <trkpt lat="47.500316" lon="7.974744">
        <ele>663.494653</ele>
        <time>2022-02-26T13:29:56.238Z</time>
      </trkpt>
      <trkpt lat="47.500403" lon="7.974795">
        <ele>663.968648</ele>
        <time>2022-02-26T13:30:02.249Z</time>
      </trkpt>
      <trkpt lat="47.500488" lon="7.974856">
        <ele>664.447147</ele>
        <time>2022-02-26T13:30:11.240Z</time>
      </trkpt>
      <trkpt lat="47.500582" lon="7.974878">
        <ele>664.929214</ele>
        <time>2022-02-26T13:30:17.241Z</time>
      </trkpt>
      <trkpt lat="47.500674" lon="7.974879">
        <ele>665.401391</ele>
        <time>2022-02-26T13:30:24.246Z</time>
      </trkpt>
      <trkpt lat="47.500778" lon="7.974858">
        <ele>666.132425</ele>
        <time>2022-02-26T13:30:32.237Z</time>
      </trkpt>
      <trkpt lat="47.500869" lon="7.974816">
        <ele>666.796305</ele>
        <time>2022-02-26T13:30:37.233Z</time>
      </trkpt>
      <trkpt lat="47.500953" lon="7.974745">
        <ele>667.469999</ele>
        <time>2022-02-26T13:30:44.238Z</time>
      </trkpt>
      <trkpt lat="47.501017" lon="7.974638">
        <ele>668.142419</ele>
        <time>2022-02-26T13:30:51.235Z</time>
      </trkpt>
      <trkpt lat="47.501065" lon="7.974522">
        <ele>668.782464</ele>
        <time>2022-02-26T13:30:59.238Z</time>
      </trkpt>
      <trkpt lat="47.501087" lon="7.974345">
        <ele>669.629256</ele>
        <time>2022-02-26T13:31:22.238Z</time>
      </trkpt>
      <trkpt lat="47.501150" lon="7.974227">
        <ele>670.336914</ele>
        <time>2022-02-26T13:31:27.254Z</time>
      </trkpt>
      <trkpt lat="47.501202" lon="7.974115">
        <ele>670.976341</ele>
        <time>2022-02-26T13:31:33.235Z</time>
      </trkpt>
      <trkpt lat="47.501264" lon="7.973989">
        <ele>671.709778</ele>
        <time>2022-02-26T13:31:41.237Z</time>
      </trkpt>
      <trkpt lat="47.501346" lon="7.973929">
        <ele>672.346847</ele>
        <time>2022-02-26T13:31:48.238Z</time>
      </trkpt>
      <trkpt lat="47.501435" lon="7.973896">
        <ele>672.985854</ele>
        <time>2022-02-26T13:31:55.245Z</time>
      </trkpt>
      <trkpt lat="47.501527" lon="7.973897">
        <ele>673.626621</ele>
        <time>2022-02-26T13:32:06.241Z</time>
      </trkpt>
      <trkpt lat="47.501633" lon="7.973909">
        <ele>674.367031</ele>
        <time>2022-02-26T13:32:20.240Z</time>
      </trkpt>
      <trkpt lat="47.501734" lon="7.973963">
        <ele>675.114942</ele>
        <time>2022-02-26T13:32:24.240Z</time>
      </trkpt>
      <trkpt lat="47.501818" lon="7.974058">
        <ele>675.851188</ele>
        <time>2022-02-26T13:32:29.257Z</time>
      </trkpt>
      <trkpt lat="47.501898" lon="7.974131">
        <ele>676.505723</ele>
        <time>2022-02-26T13:32:34.241Z</time>
      </trkpt>
      <trkpt lat="47.501997" lon="7.974172">
        <ele>677.221703</ele>
        <time>2022-02-26T13:32:40.248Z</time>
      </trkpt>
      <trkpt lat="47.502086" lon="7.974145">
        <ele>677.854442</ele>
        <time>2022-02-26T13:32:48.238Z</time>
      </trkpt>
      <trkpt lat="47.502189" lon="7.974112">
        <ele>677.222178</ele>
        <time>2022-02-26T13:32:54.241Z</time>
      </trkpt>
      <trkpt lat="47.502285" lon="7.974101">
        <ele>676.550541</ele>
        <time>2022-02-26T13:33:00.243Z</time>
      </trkpt>
      <trkpt lat="47.502362" lon="7.974020">
        <ele>675.891626</ele>
        <time>2022-02-26T13:33:10.244Z</time>
      </trkpt>
      <trkpt lat="47.502416" lon="7.973888">
        <ele>675.164448</ele>
        <time>2022-02-26T13:33:19.244Z</time>
      </trkpt>
      <trkpt lat="47.502468" lon="7.973776">
        <ele>674.524050</ele>
        <time>2022-02-26T13:33:24.344Z</time>
      </trkpt>
      <trkpt lat="47.502545" lon="7.973691">
        <ele>673.854041</ele>
        <time>2022-02-26T13:33:28.241Z</time>
      </trkpt>
      <trkpt lat="47.502596" lon="7.973572">
        <ele>673.189961</ele>
        <time>2022-02-26T13:33:34.240Z</time>
      </trkpt>
      <trkpt lat="47.502647" lon="7.973455">
        <ele>672.533820</ele>
        <time>2022-02-26T13:33:39.265Z</time>
      </trkpt>
      <trkpt lat="47.502637" lon="7.973314">
        <ele>671.865742</ele>
        <time>2022-02-26T13:33:46.238Z</time>
      </trkpt>
      <trkpt lat="47.502698" lon="7.973195">
        <ele>671.161828</ele>
        <time>2022-02-26T13:33:54.272Z</time>
      </trkpt>
      <trkpt lat="47.502791" lon="7.973140">
        <ele>670.463263</ele>
        <time>2022-02-26T13:33:58.268Z</time>
      </trkpt>
      <trkpt lat="47.502805" lon="7.972993">
        <ele>669.763716</ele>
        <time>2022-02-26T13:34:07.242Z</time>
      </trkpt>
      <trkpt lat="47.502781" lon="7.972845">
        <ele>669.046495</ele>
        <time>2022-02-26T13:34:13.239Z</time>
      </trkpt>
      <trkpt lat="47.502738" lon="7.972710">
        <ele>668.343179</ele>
        <time>2022-02-26T13:34:19.238Z</time>
      </trkpt>
      <trkpt lat="47.502669" lon="7.972623">
        <ele>667.710945</ele>
        <time>2022-02-26T13:34:24.236Z</time>
      </trkpt>
      <trkpt lat="47.502581" lon="7.972567">
        <ele>667.042795</ele>
        <time>2022-02-26T13:34:35.238Z</time>
      </trkpt>
      <trkpt lat="47.502495" lon="7.972528">
        <ele>666.415395</ele>
        <time>2022-02-26T13:34:43.239Z</time>
      </trkpt>
      <trkpt lat="47.502424" lon="7.972438">
        <ele>665.763370</ele>
        <time>2022-02-26T13:34:51.234Z</time>
      </trkpt>
      <trkpt lat="47.502378" lon="7.972313">
        <ele>665.349243</ele>
        <time>2022-02-26T13:35:00.374Z</time>
      </trkpt>
      <trkpt lat="47.502348" lon="7.972177">
        <ele>665.322975</ele>
        <time>2022-02-26T13:35:08.234Z</time>
      </trkpt>
      <trkpt lat="47.502347" lon="7.972040">
        <ele>665.297819</ele>
        <time>2022-02-26T13:35:14.238Z</time>
      </trkpt>
      <trkpt lat="47.502357" lon="7.971895">
        <ele>665.271057</ele>
        <time>2022-02-26T13:35:19.239Z</time>
      </trkpt>
      <trkpt lat="47.502427" lon="7.971786">
        <ele>665.243444</ele>
        <time>2022-02-26T13:35:24.267Z</time>
      </trkpt>
      <trkpt lat="47.502518" lon="7.971723">
        <ele>665.216140</ele>
        <time>2022-02-26T13:35:33.237Z</time>
      </trkpt>
      <trkpt lat="47.502588" lon="7.971629">
        <ele>665.190452</ele>
        <time>2022-02-26T13:35:40.241Z</time>
      </trkpt>
      <trkpt lat="47.502649" lon="7.971500">
        <ele>665.161541</ele>
        <time>2022-02-26T13:35:47.237Z</time>
      </trkpt>
      <trkpt lat="47.502704" lon="7.971392">
        <ele>665.136708</ele>
        <time>2022-02-26T13:35:53.243Z</time>
      </trkpt>
      <trkpt lat="47.502793" lon="7.971352">
        <ele>665.111428</ele>
        <time>2022-02-26T13:35:56.234Z</time>
      </trkpt>
      <trkpt lat="47.502844" lon="7.971235">
        <ele>665.085863</ele>
        <time>2022-02-26T13:36:01.233Z</time>
      </trkpt>
      <trkpt lat="47.502882" lon="7.971092">
        <ele>665.057648</ele>
        <time>2022-02-26T13:36:08.237Z</time>
      </trkpt>
      <trkpt lat="47.502943" lon="7.970981">
        <ele>665.031376</ele>
        <time>2022-02-26T13:36:20.236Z</time>
      </trkpt>
      <trkpt lat="47.503012" lon="7.971106">
        <ele>665.001738</ele>
        <time>2022-02-26T13:36:29.234Z</time>
      </trkpt>
      <trkpt lat="47.503022" lon="7.971244">
        <ele>664.976255</ele>
        <time>2022-02-26T13:36:34.324Z</time>
      </trkpt>
      <trkpt lat="47.503028" lon="7.971390">
        <ele>664.949398</ele>
        <time>2022-02-26T13:36:39.234Z</time>
      </trkpt>
      <trkpt lat="47.503087" lon="7.971501">
        <ele>664.923466</ele>
        <time>2022-02-26T13:36:44.231Z</time>
      </trkpt>
      <trkpt lat="47.503076" lon="7.971636">
        <ele>664.898499</ele>
        <time>2022-02-26T13:36:51.246Z</time>
      </trkpt>
      <trkpt lat="47.503167" lon="7.971663">
        <ele>664.873275</ele>
        <time>2022-02-26T13:37:06.235Z</time>
      </trkpt>
      <trkpt lat="47.503185" lon="7.971801">
        <ele>663.537100</ele>
        <time>2022-02-26T13:37:11.237Z</time>
      </trkpt>
      <trkpt lat="47.503222" lon="7.971929">
        <ele>662.075654</ele>
        <time>2022-02-26T13:37:19.233Z</time>
      </trkpt>
      <trkpt lat="47.503263" lon="7.972059">
        <ele>660.569664</ele>
        <time>2022-02-26T13:37:26.236Z</time>
      </trkpt>
      <trkpt lat="47.503262" lon="7.972192">
        <ele>659.173484</ele>
        <time>2022-02-26T13:37:33.245Z</time>
      </trkpt>
      <trkpt lat="47.503306" lon="7.972315">
        <ele>657.712515</ele>
        <time>2022-02-26T13:37:40.236Z</time>
      </trkpt>
      <trkpt lat="47.503329" lon="7.972458">
        <ele>656.169496</ele>
        <time>2022-02-26T13:37:48.234Z</time>
      </trkpt>
      <trkpt lat="47.503331" lon="7.972595">
        <ele>654.731081</ele>
        <time>2022-02-26T13:37:56.238Z</time>
      </trkpt>
      <trkpt lat="47.503287" lon="7.972736">
        <ele>653.100734</ele>
        <time>2022-02-26T13:38:01.238Z</time>
      </trkpt>
      <trkpt lat="47.503273" lon="7.972879">
        <ele>651.583990</ele>
        <time>2022-02-26T13:38:07.239Z</time>
      </trkpt>
      <trkpt lat="47.503313" lon="7.973025">
        <ele>649.930199</ele>
        <time>2022-02-26T13:38:14.236Z</time>
      </trkpt>
      <trkpt lat="47.503388" lon="7.973121">
        <ele>648.389556</ele>
        <time>2022-02-26T13:38:20.249Z</time>
      </trkpt>
      <trkpt lat="47.503480" lon="7.973175">
        <ele>646.851744</ele>
        <time>2022-02-26T13:38:28.240Z</time>
      </trkpt>
      <trkpt lat="47.503564" lon="7.973265">
        <ele>645.240499</ele>
        <time>2022-02-26T13:38:37.032Z</time>
      </trkpt>
      <trkpt lat="47.503652" lon="7.973309">
        <ele>643.797223</ele>
        <time>2022-02-26T13:38:44.237Z</time>
      </trkpt>
      <trkpt lat="47.503726" lon="7.973416">
        <ele>642.189855</ele>
        <time>2022-02-26T13:38:50.238Z</time>
      </trkpt>
      <trkpt lat="47.503802" lon="7.973502">
        <ele>640.703420</ele>
        <time>2022-02-26T13:38:59.229Z</time>
      </trkpt>
      <trkpt lat="47.503858" lon="7.973642">
        <ele>638.995568</ele>
        <time>2022-02-26T13:39:07.241Z</time>
      </trkpt>
      <trkpt lat="47.503924" lon="7.973770">
        <ele>637.305313</ele>
        <time>2022-02-26T13:39:11.237Z</time>
      </trkpt>
      <trkpt lat="47.503995" lon="7.973855">
        <ele>636.174676</ele>
        <time>2022-02-26T13:39:19.242Z</time>
      </trkpt>
      <trkpt lat="47.504080" lon="7.973909">
        <ele>635.137166</ele>
        <time>2022-02-26T13:39:26.240Z</time>
      </trkpt>
      <trkpt lat="47.504166" lon="7.973958">
        <ele>634.103546</ele>
        <time>2022-02-26T13:39:34.239Z</time>
      </trkpt>
      <trkpt lat="47.504254" lon="7.974002">
        <ele>633.061694</ele>
        <time>2022-02-26T13:39:43.236Z</time>
      </trkpt>
      <trkpt lat="47.504312" lon="7.974132">
        <ele>631.881209</ele>
        <time>2022-02-26T13:39:50.250Z</time>
      </trkpt>
      <trkpt lat="47.504373" lon="7.974241">
        <ele>630.808690</ele>
        <time>2022-02-26T13:39:59.236Z</time>
      </trkpt>
      <trkpt lat="47.504398" lon="7.974375">
        <ele>629.755330</ele>
        <time>2022-02-26T13:40:08.234Z</time>
      </trkpt>
      <trkpt lat="47.504416" lon="7.974519">
        <ele>628.645686</ele>
        <time>2022-02-26T13:40:18.258Z</time>
      </trkpt>
      <trkpt lat="47.504438" lon="7.974653">
        <ele>627.600780</ele>
        <time>2022-02-26T13:40:24.251Z</time>
      </trkpt>
      <trkpt lat="47.504433" lon="7.974793">
        <ele>626.538487</ele>
        <time>2022-02-26T13:40:30.244Z</time>
      </trkpt>
      <trkpt lat="47.504469" lon="7.974938">
        <ele>625.367935</ele>
        <time>2022-02-26T13:40:37.232Z</time>
      </trkpt>
      <trkpt lat="47.504472" lon="7.975077">
        <ele>624.314163</ele>
        <time>2022-02-26T13:40:42.245Z</time>
      </trkpt>
      <trkpt lat="47.504574" lon="7.975112">
        <ele>623.139728</ele>
        <time>2022-02-26T13:40:50.240Z</time>
      </trkpt>
      <trkpt lat="47.504663" lon="7.975198">
        <ele>621.947586</ele>
        <time>2022-02-26T13:40:55.238Z</time>
      </trkpt>
      <trkpt lat="47.504748" lon="7.975266">
        <ele>620.863849</ele>
        <time>2022-02-26T13:41:04.271Z</time>
      </trkpt>
      <trkpt lat="47.504823" lon="7.975361">
        <ele>619.756664</ele>
        <time>2022-02-26T13:41:10.241Z</time>
      </trkpt>
      <trkpt lat="47.504913" lon="7.975397">
        <ele>618.710959</ele>
        <time>2022-02-26T13:41:16.240Z</time>
      </trkpt>
      <trkpt lat="47.505012" lon="7.975396">
        <ele>617.600484</ele>
        <time>2022-02-26T13:41:25.234Z</time>
      </trkpt>
      <trkpt lat="47.505091" lon="7.975462">
        <ele>616.746773</ele>
        <time>2022-02-26T13:41:32.235Z</time>
      </trkpt>
      <trkpt lat="47.505149" lon="7.975582">
        <ele>616.738677</ele>
        <time>2022-02-26T13:41:37.236Z</time>
      </trkpt>
      <trkpt lat="47.505249" lon="7.975636">
        <ele>616.730031</ele>
        <time>2022-02-26T13:41:50.273Z</time>
      </trkpt>
      <trkpt lat="47.505317" lon="7.975759">
        <ele>616.721311</ele>
        <time>2022-02-26T13:41:56.273Z</time>
      </trkpt>
      <trkpt lat="47.505407" lon="7.975819">
        <ele>616.713294</ele>
        <time>2022-02-26T13:42:04.239Z</time>
      </trkpt>
      <trkpt lat="47.505481" lon="7.975896">
        <ele>616.705948</ele>
        <time>2022-02-26T13:42:10.241Z</time>
      </trkpt>
      <trkpt lat="47.505561" lon="7.975969">
        <ele>616.698315</ele>
        <time>2022-02-26T13:42:15.271Z</time>
      </trkpt>
      <trkpt lat="47.505559" lon="7.976118">
        <ele>616.690138</ele>
        <time>2022-02-26T13:43:01.235Z</time>
      </trkpt>
      <trkpt lat="47.505585" lon="7.976268">
        <ele>616.681642</ele>
        <time>2022-02-26T13:43:08.250Z</time>
      </trkpt>
      <trkpt lat="47.505666" lon="7.976371">
        <ele>616.672969</ele>
        <time>2022-02-26T13:43:14.236Z</time>
      </trkpt>
      <trkpt lat="47.505746" lon="7.976467">
        <ele>616.664604</ele>
        <time>2022-02-26T13:43:22.243Z</time>
      </trkpt>
      <trkpt lat="47.505787" lon="7.976590">
        <ele>616.657079</ele>
        <time>2022-02-26T13:43:29.289Z</time>
      </trkpt>
      <trkpt lat="47.505832" lon="7.976723">
        <ele>616.648918</ele>
        <time>2022-02-26T13:43:37.236Z</time>
      </trkpt>
      <trkpt lat="47.505887" lon="7.976850">
        <ele>616.640641</ele>
        <time>2022-02-26T13:43:44.222Z</time>
      </trkpt>
      <trkpt lat="47.505923" lon="7.976980">
        <ele>616.632932</ele>
        <time>2022-02-26T13:43:52.266Z</time>
      </trkpt>
      <trkpt lat="47.506009" lon="7.977063">
        <ele>616.624594</ele>
        <time>2022-02-26T13:43:59.236Z</time>
      </trkpt>
      <trkpt lat="47.506049" lon="7.977201">
        <ele>616.616355</ele>
        <time>2022-02-26T13:44:05.238Z</time>
      </trkpt>
      <trkpt lat="47.506107" lon="7.977315">
        <ele>616.608525</ele>
        <time>2022-02-26T13:44:15.234Z</time>
      </trkpt>
      <trkpt lat="47.506168" lon="7.977430">
        <ele>616.455451</ele>
        <time>2022-02-26T13:44:22.243Z</time>
      </trkpt>
      <trkpt lat="47.506238" lon="7.977517">
        <ele>615.666728</ele>
        <time>2022-02-26T13:44:28.235Z</time>
      </trkpt>
      <trkpt lat="47.506314" lon="7.977614">
        <ele>614.800796</ele>
        <time>2022-02-26T13:44:40.241Z</time>
      </trkpt>
      <trkpt lat="47.506363" lon="7.977737">
        <ele>613.968402</ele>
        <time>2022-02-26T13:44:46.238Z</time>
      </trkpt>
      <trkpt lat="47.506431" lon="7.977858">
        <ele>613.050886</ele>
        <time>2022-02-26T13:44:54.236Z</time>
      </trkpt>
      <trkpt lat="47.506478" lon="7.978001">
        <ele>612.123874</ele>
        <time>2022-02-26T13:45:00.242Z</time>
      </trkpt>
      <trkpt lat="47.506504" lon="7.978140">
        <ele>611.283122</ele>
        <time>2022-02-26T13:45:04.235Z</time>
      </trkpt>
      <trkpt lat="47.506552" lon="7.978265">
        <ele>610.444965</ele>
        <time>2022-02-26T13:45:12.242Z</time>
      </trkpt>
      <trkpt lat="47.506613" lon="7.978384">
        <ele>609.574174</ele>
        <time>2022-02-26T13:45:19.251Z</time>
      </trkpt>
      <trkpt lat="47.506680" lon="7.978482">
        <ele>608.761387</ele>
        <time>2022-02-26T13:45:24.238Z</time>
      </trkpt>
      <trkpt lat="47.506673" lon="7.978618">
        <ele>607.966318</ele>
        <time>2022-02-26T13:45:30.237Z</time>
      </trkpt>
      <trkpt lat="47.506685" lon="7.978763">
        <ele>607.114763</ele>
        <time>2022-02-26T13:45:38.239Z</time>
      </trkpt>
      <trkpt lat="47.506693" lon="7.978905">
        <ele>606.284143</ele>
        <time>2022-02-26T13:45:45.237Z</time>
      </trkpt>
      <trkpt lat="47.506699" lon="7.979046">
        <ele>605.460596</ele>
        <time>2022-02-26T13:45:52.236Z</time>
      </trkpt>
      <trkpt lat="47.506707" lon="7.979179">
        <ele>604.682245</ele>
        <time>2022-02-26T13:46:04.319Z</time>
      </trkpt>
      <trkpt lat="47.506668" lon="7.979329">
        <ele>603.745332</ele>
        <time>2022-02-26T13:46:11.236Z</time>
      </trkpt>
      <trkpt lat="47.506654" lon="7.979477">
        <ele>602.874192</ele>
        <time>2022-02-26T13:46:18.238Z</time>
      </trkpt>
      <trkpt lat="47.506646" lon="7.979620">
        <ele>602.037761</ele>
        <time>2022-02-26T13:46:24.238Z</time>
      </trkpt>
      <trkpt lat="47.506629" lon="7.979762">
        <ele>601.197115</ele>
        <time>2022-02-26T13:46:30.241Z</time>
      </trkpt>
      <trkpt lat="47.506631" lon="7.979909">
        <ele>600.029014</ele>
        <time>2022-02-26T13:46:37.235Z</time>
      </trkpt>
      <trkpt lat="47.506668" lon="7.980033">
        <ele>598.906950</ele>
        <time>2022-02-26T13:46:44.237Z</time>
      </trkpt>
      <trkpt lat="47.506715" lon="7.980155">
        <ele>597.744436</ele>
        <time>2022-02-26T13:46:53.244Z</time>
      </trkpt>
      <trkpt lat="47.506762" lon="7.980271">
        <ele>596.624792</ele>
        <time>2022-02-26T13:47:00.240Z</time>
      </trkpt>
      <trkpt lat="47.506790" lon="7.980411">
        <ele>595.416246</ele>
        <time>2022-02-26T13:47:06.236Z</time>
      </trkpt>
      <trkpt lat="47.506845" lon="7.980539">
        <ele>594.160567</ele>
        <time>2022-02-26T13:47:15.251Z</time>
      </trkpt>
      <trkpt lat="47.506919" lon="7.980643">
        <ele>592.910264</ele>
        <time>2022-02-26T13:47:22.239Z</time>
      </trkpt>
      <trkpt lat="47.506958" lon="7.980770">
        <ele>591.755523</ele>
        <time>2022-02-26T13:47:28.243Z</time>
      </trkpt>
      <trkpt lat="47.507003" lon="7.980904">
        <ele>590.516865</ele>
        <time>2022-02-26T13:47:35.266Z</time>
      </trkpt>
      <trkpt lat="47.507036" lon="7.981045">
        <ele>589.281705</ele>
        <time>2022-02-26T13:47:41.238Z</time>
      </trkpt>
      <trkpt lat="47.507038" lon="7.981180">
        <ele>588.164006</ele>
        <time>2022-02-26T13:47:47.233Z</time>
      </trkpt>
      <trkpt lat="47.507063" lon="7.981313">
        <ele>587.021304</ele>
        <time>2022-02-26T13:47:54.238Z</time>
      </trkpt>
      <trkpt lat="47.507099" lon="7.981454">
        <ele>585.773626</ele>
        <time>2022-02-26T13:48:04.250Z</time>
      </trkpt>
      <trkpt lat="47.507106" lon="7.981602">
        <ele>584.545594</ele>
        <time>2022-02-26T13:48:12.235Z</time>
      </trkpt>
      <trkpt lat="47.507107" lon="7.981743">
        <ele>583.378438</ele>
        <time>2022-02-26T13:48:19.246Z</time>
      </trkpt>
      <trkpt lat="47.507106" lon="7.981888">
        <ele>582.178175</ele>
        <time>2022-02-26T13:48:28.998Z</time>
      </trkpt>
      <trkpt lat="47.507111" lon="7.982022">
        <ele>581.067333</ele>
        <time>2022-02-26T13:48:40.233Z</time>
      </trkpt>
      <trkpt lat="47.507113" lon="7.982172">
        <ele>579.825504</ele>
        <time>2022-02-26T13:48:47.264Z</time>
      </trkpt>
      <trkpt lat="47.507107" lon="7.982317">
        <ele>578.820829</ele>
        <time>2022-02-26T13:48:55.236Z</time>
      </trkpt>
      <trkpt lat="47.507122" lon="7.982454">
        <ele>578.215774</ele>
        <time>2022-02-26T13:49:02.234Z</time>
      </trkpt>
      <trkpt lat="47.507101" lon="7.982591">
        <ele>577.603330</ele>
        <time>2022-02-26T13:49:09.235Z</time>
      </trkpt>
      <trkpt lat="47.507117" lon="7.982735">
        <ele>576.967117</ele>
        <time>2022-02-26T13:49:18.249Z</time>
      </trkpt>
      <trkpt lat="47.507095" lon="7.982873">
        <ele>576.348970</ele>
        <time>2022-02-26T13:49:26.241Z</time>
      </trkpt>
      <trkpt lat="47.507067" lon="7.983020">
        <ele>575.683124</ele>
        <time>2022-02-26T13:49:33.238Z</time>
      </trkpt>
      <trkpt lat="47.507060" lon="7.983172">
        <ele>575.018932</ele>
        <time>2022-02-26T13:49:42.235Z</time>
      </trkpt>
      <trkpt lat="47.506995" lon="7.983288">
        <ele>574.361876</ele>
        <time>2022-02-26T13:49:47.240Z</time>
      </trkpt>
      <trkpt lat="47.506966" lon="7.983416">
        <ele>573.773300</ele>
        <time>2022-02-26T13:49:55.237Z</time>
      </trkpt>
      <trkpt lat="47.506926" lon="7.983550">
        <ele>573.134619</ele>
        <time>2022-02-26T13:50:02.243Z</time>
      </trkpt>
      <trkpt lat="47.506883" lon="7.983675">
        <ele>572.523078</ele>
        <time>2022-02-26T13:50:11.265Z</time>
      </trkpt>
      <trkpt lat="47.506845" lon="7.983817">
        <ele>571.857209</ele>
        <time>2022-02-26T13:50:18.237Z</time>
      </trkpt>
      <trkpt lat="47.506805" lon="7.983950">
        <ele>571.222512</ele>
        <time>2022-02-26T13:50:25.555Z</time>
      </trkpt>
      <trkpt lat="47.506763" lon="7.984093">
        <ele>570.542712</ele>
        <time>2022-02-26T13:50:33.254Z</time>
      </trkpt>
      <trkpt lat="47.506705" lon="7.984211">
        <ele>569.906506</ele>
        <time>2022-02-26T13:50:40.238Z</time>
      </trkpt>
      <trkpt lat="47.506674" lon="7.984347">
        <ele>569.280756</ele>
        <time>2022-02-26T13:50:48.237Z</time>
      </trkpt>
      <trkpt lat="47.506609" lon="7.984444">
        <ele>568.685098</ele>
        <time>2022-02-26T13:50:55.246Z</time>
      </trkpt>
      <trkpt lat="47.506547" lon="7.984548">
        <ele>568.080382</ele>
        <time>2022-02-26T13:51:01.236Z</time>
      </trkpt>
      <trkpt lat="47.506514" lon="7.984675">
        <ele>567.487162</ele>
        <time>2022-02-26T13:51:08.237Z</time>
      </trkpt>
      <trkpt lat="47.506478" lon="7.984798">
        <ele>566.537311</ele>
        <time>2022-02-26T13:51:13.240Z</time>
      </trkpt>
      <trkpt lat="47.506419" lon="7.984914">
        <ele>565.467770</ele>
        <time>2022-02-26T13:51:23.250Z</time>
      </trkpt>
      <trkpt lat="47.506349" lon="7.985038">
        <ele>564.277475</ele>
        <time>2022-02-26T13:51:29.247Z</time>
      </trkpt>
      <trkpt lat="47.506279" lon="7.985129">
        <ele>563.261665</ele>
        <time>2022-02-26T13:51:34.241Z</time>
      </trkpt>
      <trkpt lat="47.506246" lon="7.985254">
        <ele>562.273131</ele>
        <time>2022-02-26T13:51:43.240Z</time>
      </trkpt>
      <trkpt lat="47.506170" lon="7.985342">
        <ele>561.221042</ele>
        <time>2022-02-26T13:51:50.241Z</time>
      </trkpt>
      <trkpt lat="47.506104" lon="7.985450">
        <ele>560.148317</ele>
        <time>2022-02-26T13:51:57.238Z</time>
      </trkpt>
      <trkpt lat="47.506013" lon="7.985525">
        <ele>559.012639</ele>
        <time>2022-02-26T13:52:06.239Z</time>
      </trkpt>
      <trkpt lat="47.505934" lon="7.985615">
        <ele>557.925672</ele>
        <time>2022-02-26T13:52:13.232Z</time>
      </trkpt>
      <trkpt lat="47.505841" lon="7.985654">
        <ele>556.871699</ele>
        <time>2022-02-26T13:52:20.241Z</time>
      </trkpt>
      <trkpt lat="47.505755" lon="7.985722">
        <ele>555.808574</ele>
        <time>2022-02-26T13:52:27.234Z</time>
      </trkpt>
      <trkpt lat="47.505674" lon="7.985812">
        <ele>554.704242</ele>
        <time>2022-02-26T13:52:38.238Z</time>
      </trkpt>
      <trkpt lat="47.505584" lon="7.985858">
        <ele>553.666038</ele>
        <time>2022-02-26T13:52:45.246Z</time>
      </trkpt>
      <trkpt lat="47.505498" lon="7.985907">
        <ele>552.661236</ele>
        <time>2022-02-26T13:52:52.239Z</time>
      </trkpt>
      <trkpt lat="47.505400" lon="7.985936">
        <ele>551.571505</ele>
        <time>2022-02-26T13:52:57.254Z</time>
      </trkpt>
      <trkpt lat="47.505308" lon="7.985963">
        <ele>550.548816</ele>
        <time>2022-02-26T13:53:03.240Z</time>
      </trkpt>
      <trkpt lat="47.505241" lon="7.986052">
        <ele>549.567240</ele>
        <time>2022-02-26T13:53:09.235Z</time>
      </trkpt>
      <trkpt lat="47.505175" lon="7.986151">
        <ele>548.542701</ele>
        <time>2022-02-26T13:53:18.239Z</time>
      </trkpt>
      <trkpt lat="47.505125" lon="7.986297">
        <ele>547.576004</ele>
        <time>2022-02-26T13:53:27.243Z</time>
      </trkpt>
      <trkpt lat="47.505093" lon="7.986422">
        <ele>547.078227</ele>
        <time>2022-02-26T13:53:33.234Z</time>
      </trkpt>
      <trkpt lat="47.505075" lon="7.986553">
        <ele>546.580421</ele>
        <time>2022-02-26T13:53:40.221Z</time>
      </trkpt>
      <trkpt lat="47.505057" lon="7.986689">
        <ele>546.064356</ele>
        <time>2022-02-26T13:53:46.226Z</time>
      </trkpt>
      <trkpt lat="47.505054" lon="7.986835">
        <ele>545.520430</ele>
        <time>2022-02-26T13:53:53.223Z</time>
      </trkpt>
      <trkpt lat="47.505042" lon="7.986983">
        <ele>544.965353</ele>
        <time>2022-02-26T13:54:01.232Z</time>
      </trkpt>
      <trkpt lat="47.505030" lon="7.987129">
        <ele>544.417669</ele>
        <time>2022-02-26T13:54:09.223Z</time>
      </trkpt>
      <trkpt lat="47.505054" lon="7.987266">
        <ele>543.890633</ele>
        <time>2022-02-26T13:54:19.239Z</time>
      </trkpt>
      <trkpt lat="47.505075" lon="7.987413">
        <ele>543.331129</ele>
        <time>2022-02-26T13:54:26.901Z</time>
      </trkpt>
      <trkpt lat="47.505066" lon="7.987562">
        <ele>542.774069</ele>
        <time>2022-02-26T13:54:31.234Z</time>
      </trkpt>
      <trkpt lat="47.505066" lon="7.987707">
        <ele>542.234119</ele>
        <time>2022-02-26T13:54:40.310Z</time>
      </trkpt>
      <trkpt lat="47.505070" lon="7.987863">
        <ele>541.652789</ele>
        <time>2022-02-26T13:54:47.240Z</time>
      </trkpt>
      <trkpt lat="47.505044" lon="7.988009">
        <ele>541.090540</ele>
        <time>2022-02-26T13:54:55.267Z</time>
      </trkpt>
      <trkpt lat="47.505025" lon="7.988140">
        <ele>540.591606</ele>
        <time>2022-02-26T13:55:02.237Z</time>
      </trkpt>
      <trkpt lat="47.505004" lon="7.988270">
        <ele>540.093863</ele>
        <time>2022-02-26T13:55:09.271Z</time>
      </trkpt>
      <trkpt lat="47.504977" lon="7.988410">
        <ele>539.551701</ele>
        <time>2022-02-26T13:55:16.298Z</time>
      </trkpt>
      <trkpt lat="47.504962" lon="7.988570">
        <ele>538.950183</ele>
        <time>2022-02-26T13:55:22.241Z</time>
      </trkpt>
      <trkpt lat="47.504966" lon="7.988724">
        <ele>538.376293</ele>
        <time>2022-02-26T13:55:31.239Z</time>
      </trkpt>
      <trkpt lat="47.505001" lon="7.988855">
        <ele>537.830678</ele>
        <time>2022-02-26T13:55:37.239Z</time>
      </trkpt>
      <trkpt lat="47.505000" lon="7.988998">
        <ele>537.089843</ele>
        <time>2022-02-26T13:55:47.266Z</time>
      </trkpt>
      <trkpt lat="47.504966" lon="7.989127">
        <ele>536.372509</ele>
        <time>2022-02-26T13:55:54.240Z</time>
      </trkpt>
      <trkpt lat="47.504940" lon="7.989284">
        <ele>535.535104</ele>
        <time>2022-02-26T13:56:02.236Z</time>
      </trkpt>
      <trkpt lat="47.504921" lon="7.989419">
        <ele>534.820734</ele>
        <time>2022-02-26T13:56:08.236Z</time>
      </trkpt>
      <trkpt lat="47.504924" lon="7.989552">
        <ele>534.131357</ele>
        <time>2022-02-26T13:56:16.237Z</time>
      </trkpt>
      <trkpt lat="47.504913" lon="7.989707">
        <ele>533.323977</ele>
        <time>2022-02-26T13:56:23.236Z</time>
      </trkpt>
      <trkpt lat="47.504894" lon="7.989840">
        <ele>532.619746</ele>
        <time>2022-02-26T13:56:31.239Z</time>
      </trkpt>
      <trkpt lat="47.504888" lon="7.989983">
        <ele>531.877521</ele>
        <time>2022-02-26T13:56:38.247Z</time>
      </trkpt>
      <trkpt lat="47.504875" lon="7.990137">
        <ele>531.073535</ele>
        <time>2022-02-26T13:56:45.238Z</time>
      </trkpt>
      <trkpt lat="47.504869" lon="7.990282">
        <ele>530.320969</ele>
        <time>2022-02-26T13:56:53.237Z</time>
      </trkpt>
      <trkpt lat="47.504846" lon="7.990419">
        <ele>529.589665</ele>
        <time>2022-02-26T13:57:00.239Z</time>
      </trkpt>
      <trkpt lat="47.504801" lon="7.990552">
        <ele>528.819081</ele>
        <time>2022-02-26T13:57:07.249Z</time>
      </trkpt>
      <trkpt lat="47.504783" lon="7.990687">
        <ele>528.106233</ele>
        <time>2022-02-26T13:57:14.239Z</time>
      </trkpt>
      <trkpt lat="47.504761" lon="7.990820">
        <ele>527.396884</ele>
        <time>2022-02-26T13:57:22.239Z</time>
      </trkpt>
      <trkpt lat="47.504757" lon="7.990969">
        <ele>526.624393</ele>
        <time>2022-02-26T13:57:30.265Z</time>
      </trkpt>
      <trkpt lat="47.504734" lon="7.991113">
        <ele>525.857845</ele>
        <time>2022-02-26T13:57:36.240Z</time>
      </trkpt>
      <trkpt lat="47.504707" lon="7.991246">
        <ele>525.138411</ele>
        <time>2022-02-26T13:57:43.249Z</time>
      </trkpt>
      <trkpt lat="47.504682" lon="7.991387">
        <ele>524.383231</ele>
        <time>2022-02-26T13:57:50.235Z</time>
      </trkpt>
      <trkpt lat="47.504667" lon="7.991522">
        <ele>523.541519</ele>
        <time>2022-02-26T13:57:58.242Z</time>
      </trkpt>
      <trkpt lat="47.504671" lon="7.991664">
        <ele>522.581649</ele>
        <time>2022-02-26T13:58:07.270Z</time>
      </trkpt>
      <trkpt lat="47.504646" lon="7.991808">
        <ele>521.577501</ele>
        <time>2022-02-26T13:58:15.237Z</time>
      </trkpt>
      <trkpt lat="47.504622" lon="7.991953">
        <ele>520.569236</ele>
        <time>2022-02-26T13:58:23.241Z</time>
      </trkpt>
      <trkpt lat="47.504604" lon="7.992093">
        <ele>519.606734</ele>
        <time>2022-02-26T13:58:30.241Z</time>
      </trkpt>
      <trkpt lat="47.504597" lon="7.992229">
        <ele>518.685557</ele>
        <time>2022-02-26T13:58:37.280Z</time>
      </trkpt>
      <trkpt lat="47.504568" lon="7.992363">
        <ele>517.735241</ele>
        <time>2022-02-26T13:58:42.265Z</time>
      </trkpt>
      <trkpt lat="47.504551" lon="7.992495">
        <ele>516.827684</ele>
        <time>2022-02-26T13:58:51.245Z</time>
      </trkpt>
      <trkpt lat="47.504535" lon="7.992634">
        <ele>515.875376</ele>
        <time>2022-02-26T13:59:00.232Z</time>
      </trkpt>
      <trkpt lat="47.504519" lon="7.992766">
        <ele>514.969638</ele>
        <time>2022-02-26T13:59:06.234Z</time>
      </trkpt>
      <trkpt lat="47.504498" lon="7.992925">
        <ele>513.875453</ele>
        <time>2022-02-26T13:59:13.240Z</time>
      </trkpt>
      <trkpt lat="47.504488" lon="7.993084">
        <ele>512.796955</ele>
        <time>2022-02-26T13:59:23.236Z</time>
      </trkpt>
      <trkpt lat="47.504474" lon="7.993218">
        <ele>511.881186</ele>
        <time>2022-02-26T13:59:28.226Z</time>
      </trkpt>
      <trkpt lat="47.504451" lon="7.993358">
        <ele>510.908095</ele>
        <time>2022-02-26T13:59:35.241Z</time>
      </trkpt>
      <trkpt lat="47.504464" lon="7.993511">
        <ele>509.866621</ele>
        <time>2022-02-26T13:59:45.239Z</time>
      </trkpt>
      <trkpt lat="47.504435" lon="7.993649">
        <ele>508.890541</ele>
        <time>2022-02-26T13:59:49.238Z</time>
      </trkpt>
      <trkpt lat="47.504407" lon="7.993798">
        <ele>507.846013</ele>
        <time>2022-02-26T14:00:02.236Z</time>
      </trkpt>
      <trkpt lat="47.504375" lon="7.993924">
        <ele>506.936882</ele>
        <time>2022-02-26T14:00:06.234Z</time>
      </trkpt>
      <trkpt lat="47.504341" lon="7.994068">
        <ele>505.921146</ele>
        <time>2022-02-26T14:00:15.236Z</time>
      </trkpt>
      <trkpt lat="47.504372" lon="7.994198">
        <ele>505.050556</ele>
        <time>2022-02-26T14:00:22.235Z</time>
      </trkpt>
      <trkpt lat="47.504426" lon="7.994308">
        <ele>504.191865</ele>
        <time>2022-02-26T14:00:30.237Z</time>
      </trkpt>
      <trkpt lat="47.504348" lon="7.994397">
        <ele>503.271246</ele>
        <time>2022-02-26T14:00:36.236Z</time>
      </trkpt>
      <trkpt lat="47.504311" lon="7.994534">
        <ele>502.339519</ele>
        <time>2022-02-26T14:00:57.238Z</time>
      </trkpt>
      <trkpt lat="47.504253" lon="7.994658">
        <ele>501.387078</ele>
        <time>2022-02-26T14:01:04.253Z</time>
      </trkpt>
      <trkpt lat="47.504232" lon="7.994808">
        <ele>500.419705</ele>
        <time>2022-02-26T14:01:12.242Z</time>
      </trkpt>
      <trkpt lat="47.504205" lon="7.994943">
        <ele>499.530607</ele>
        <time>2022-02-26T14:01:19.241Z</time>
      </trkpt>
      <trkpt lat="47.504180" lon="7.995088">
        <ele>498.585583</ele>
        <time>2022-02-26T14:01:27.239Z</time>
      </trkpt>
      <trkpt lat="47.504154" lon="7.995217">
        <ele>497.735466</ele>
        <time>2022-02-26T14:01:34.237Z</time>
      </trkpt>
      <trkpt lat="47.504154" lon="7.995368">
        <ele>496.781905</ele>
        <time>2022-02-26T14:01:42.283Z</time>
      </trkpt>
      <trkpt lat="47.504141" lon="7.995506">
        <ele>495.902006</ele>
        <time>2022-02-26T14:01:49.242Z</time>
      </trkpt>
      <trkpt lat="47.504140" lon="7.995650">
        <ele>494.992601</ele>
        <time>2022-02-26T14:01:58.238Z</time>
      </trkpt>
      <trkpt lat="47.504129" lon="7.995782">
        <ele>494.152705</ele>
        <time>2022-02-26T14:02:06.238Z</time>
      </trkpt>
      <trkpt lat="47.504101" lon="7.995909">
        <ele>493.309071</ele>
        <time>2022-02-26T14:02:14.234Z</time>
      </trkpt>
      <trkpt lat="47.504085" lon="7.996057">
        <ele>492.362561</ele>
        <time>2022-02-26T14:02:22.239Z</time>
      </trkpt>
      <trkpt lat="47.504072" lon="7.996193">
        <ele>491.495168</ele>
        <time>2022-02-26T14:02:30.239Z</time>
      </trkpt>
      <trkpt lat="47.504055" lon="7.996334">
        <ele>490.590684</ele>
        <time>2022-02-26T14:02:37.241Z</time>
      </trkpt>
      <trkpt lat="47.504034" lon="7.996475">
        <ele>489.678888</ele>
        <time>2022-02-26T14:02:44.234Z</time>
      </trkpt>
      <trkpt lat="47.504027" lon="7.996616">
        <ele>488.939188</ele>
        <time>2022-02-26T14:02:51.237Z</time>
      </trkpt>
      <trkpt lat="47.504028" lon="7.996751">
        <ele>488.332943</ele>
        <time>2022-02-26T14:02:58.243Z</time>
      </trkpt>
      <trkpt lat="47.504015" lon="7.996883">
        <ele>487.733940</ele>
        <time>2022-02-26T14:03:05.241Z</time>
      </trkpt>
      <trkpt lat="47.504003" lon="7.997030">
        <ele>487.069045</ele>
        <time>2022-02-26T14:03:13.239Z</time>
      </trkpt>
      <trkpt lat="47.503977" lon="7.997166">
        <ele>486.434362</ele>
        <time>2022-02-26T14:03:21.234Z</time>
      </trkpt>
      <trkpt lat="47.503970" lon="7.997301">
        <ele>485.826370</ele>
        <time>2022-02-26T14:03:28.235Z</time>
      </trkpt>
      <trkpt lat="47.503926" lon="7.997423">
        <ele>485.205352</ele>
        <time>2022-02-26T14:03:35.233Z</time>
      </trkpt>
      <trkpt lat="47.503896" lon="7.997556">
        <ele>484.575711</ele>
        <time>2022-02-26T14:03:40.233Z</time>
      </trkpt>
      <trkpt lat="47.503867" lon="7.997686">
        <ele>483.960949</ele>
        <time>2022-02-26T14:03:47.240Z</time>
      </trkpt>
      <trkpt lat="47.503873" lon="7.997824">
        <ele>483.339985</ele>
        <time>2022-02-26T14:03:56.241Z</time>
      </trkpt>
      <trkpt lat="47.503861" lon="7.997968">
        <ele>482.688460</ele>
        <time>2022-02-26T14:04:02.240Z</time>
      </trkpt>
      <trkpt lat="47.503838" lon="7.998098">
        <ele>482.085014</ele>
        <time>2022-02-26T14:04:08.238Z</time>
      </trkpt>
      <trkpt lat="47.503829" lon="7.998249">
        <ele>481.404323</ele>
        <time>2022-02-26T14:04:15.245Z</time>
      </trkpt>
      <trkpt lat="47.503807" lon="7.998390">
        <ele>480.754501</ele>
        <time>2022-02-26T14:04:22.237Z</time>
      </trkpt>
      <trkpt lat="47.503766" lon="7.998538">
        <ele>480.036204</ele>
        <time>2022-02-26T14:04:29.242Z</time>
      </trkpt>
      <trkpt lat="47.503744" lon="7.998681">
        <ele>479.377627</ele>
        <time>2022-02-26T14:04:39.252Z</time>
      </trkpt>
      <trkpt lat="47.503739" lon="7.998819">
        <ele>478.757054</ele>
        <time>2022-02-26T14:04:44.241Z</time>
      </trkpt>
      <trkpt lat="47.503761" lon="7.998963">
        <ele>478.094099</ele>
        <time>2022-02-26T14:04:54.239Z</time>
      </trkpt>
      <trkpt lat="47.503735" lon="7.999104">
        <ele>477.437781</ele>
        <time>2022-02-26T14:05:01.242Z</time>
      </trkpt>
      <trkpt lat="47.503687" lon="7.999246">
        <ele>475.561004</ele>
        <time>2022-02-26T14:05:05.243Z</time>
      </trkpt>
      <trkpt lat="47.503654" lon="7.999374">
        <ele>473.818891</ele>
        <time>2022-02-26T14:05:13.240Z</time>
      </trkpt>
      <trkpt lat="47.503707" lon="7.999481">
        <ele>472.131757</ele>
        <time>2022-02-26T14:05:20.241Z</time>
      </trkpt>
      <trkpt lat="47.503684" lon="7.999623">
        <ele>470.274951</ele>
        <time>2022-02-26T14:05:27.248Z</time>
      </trkpt>
      <trkpt lat="47.503707" lon="7.999765">
        <ele>468.418145</ele>
        <time>2022-02-26T14:05:36.238Z</time>
      </trkpt>
      <trkpt lat="47.503721" lon="7.999913">
        <ele>466.517860</ele>
        <time>2022-02-26T14:05:43.240Z</time>
      </trkpt>
      <trkpt lat="47.503698" lon="8.000042">
        <ele>464.821365</ele>
        <time>2022-02-26T14:05:51.237Z</time>
      </trkpt>
      <trkpt lat="47.503724" lon="8.000172">
        <ele>463.097399</ele>
        <time>2022-02-26T14:05:57.236Z</time>
      </trkpt>
      <trkpt lat="47.503687" lon="8.000316">
        <ele>461.138362</ele>
        <time>2022-02-26T14:06:02.240Z</time>
      </trkpt>
      <trkpt lat="47.503711" lon="8.000457">
        <ele>459.289410</ele>
        <time>2022-02-26T14:06:09.240Z</time>
      </trkpt>
      <trkpt lat="47.503762" lon="8.000572">
        <ele>457.540158</ele>
        <time>2022-02-26T14:06:18.238Z</time>
      </trkpt>
      <trkpt lat="47.503792" lon="8.000710">
        <ele>455.696772</ele>
        <time>2022-02-26T14:06:24.240Z</time>
      </trkpt>
      <trkpt lat="47.503856" lon="8.000811">
        <ele>453.935916</ele>
        <time>2022-02-26T14:06:34.238Z</time>
      </trkpt>
      <trkpt lat="47.503922" lon="8.000915">
        <ele>452.121484</ele>
        <time>2022-02-26T14:06:43.241Z</time>
      </trkpt>
      <trkpt lat="47.503980" lon="8.001127">
        <ele>449.213087</ele>
        <time>2022-02-26T14:06:58.045Z</time>
      </trkpt>
      <trkpt lat="47.504019" lon="8.001256">
        <ele>447.415996</ele>
        <time>2022-02-26T14:07:05.273Z</time>
      </trkpt>
      <trkpt lat="47.504055" lon="8.001383">
        <ele>445.664702</ele>
        <time>2022-02-26T14:07:13.244Z</time>
      </trkpt>
      <trkpt lat="47.504081" lon="8.001511">
        <ele>443.965117</ele>
        <time>2022-02-26T14:07:21.360Z</time>
      </trkpt>
      <trkpt lat="47.504088" lon="8.001653">
        <ele>442.545495</ele>
        <time>2022-02-26T14:07:29.236Z</time>
      </trkpt>
      <trkpt lat="47.504079" lon="8.001792">
        <ele>441.284059</ele>
        <time>2022-02-26T14:07:38.282Z</time>
      </trkpt>
      <trkpt lat="47.504045" lon="8.001927">
        <ele>439.982514</ele>
        <time>2022-02-26T14:07:49.273Z</time>
      </trkpt>
      <trkpt lat="47.503975" lon="8.002034">
        <ele>438.636939</ele>
        <time>2022-02-26T14:07:57.236Z</time>
      </trkpt>
      <trkpt lat="47.503905" lon="8.002128">
        <ele>437.373082</ele>
        <time>2022-02-26T14:08:06.238Z</time>
      </trkpt>
      <trkpt lat="47.503846" lon="8.002232">
        <ele>436.146230</ele>
        <time>2022-02-26T14:08:15.241Z</time>
      </trkpt>
      <trkpt lat="47.503806" lon="8.002359">
        <ele>434.880379</ele>
        <time>2022-02-26T14:08:25.231Z</time>
      </trkpt>
      <trkpt lat="47.503758" lon="8.002489">
        <ele>433.542023</ele>
        <time>2022-02-26T14:08:35.268Z</time>
      </trkpt>
      <trkpt lat="47.503759" lon="8.002633">
        <ele>432.241096</ele>
        <time>2022-02-26T14:08:44.266Z</time>
      </trkpt>
      <trkpt lat="47.503716" lon="8.002762">
        <ele>430.941598</ele>
        <time>2022-02-26T14:08:53.239Z</time>
      </trkpt>
      <trkpt lat="47.503662" lon="8.002891">
        <ele>429.570647</ele>
        <time>2022-02-26T14:09:01.323Z</time>
      </trkpt>
      <trkpt lat="47.503604" lon="8.003000">
        <ele>428.317186</ele>
        <time>2022-02-26T14:09:08.229Z</time>
      </trkpt>
      <trkpt lat="47.503537" lon="8.003111">
        <ele>426.972473</ele>
        <time>2022-02-26T14:09:17.240Z</time>
      </trkpt>
      <trkpt lat="47.503489" lon="8.003240">
        <ele>425.642032</ele>
        <time>2022-02-26T14:09:25.244Z</time>
      </trkpt>
      <trkpt lat="47.503465" lon="8.003378">
        <ele>424.354721</ele>
        <time>2022-02-26T14:09:32.242Z</time>
      </trkpt>
      <trkpt lat="47.503438" lon="8.003509">
        <ele>423.117440</ele>
        <time>2022-02-26T14:09:40.238Z</time>
      </trkpt>
      <trkpt lat="47.503379" lon="8.003615">
        <ele>421.876692</ele>
        <time>2022-02-26T14:09:46.240Z</time>
      </trkpt>
      <trkpt lat="47.503325" lon="8.003724">
        <ele>420.655602</ele>
        <time>2022-02-26T14:09:52.258Z</time>
      </trkpt>
      <trkpt lat="47.503280" lon="8.003850">
        <ele>419.421721</ele>
        <time>2022-02-26T14:09:59.238Z</time>
      </trkpt>
      <trkpt lat="47.503197" lon="8.003935">
        <ele>418.936730</ele>
        <time>2022-02-26T14:10:07.239Z</time>
      </trkpt>
      <trkpt lat="47.503132" lon="8.004038">
        <ele>418.479168</ele>
        <time>2022-02-26T14:10:16.237Z</time>
      </trkpt>
      <trkpt lat="47.503074" lon="8.004142">
        <ele>418.041376</ele>
        <time>2022-02-26T14:10:23.241Z</time>
      </trkpt>
      <trkpt lat="47.503022" lon="8.004270">
        <ele>417.556505</ele>
        <time>2022-02-26T14:10:31.239Z</time>
      </trkpt>
      <trkpt lat="47.502955" lon="8.004369">
        <ele>417.101594</ele>
        <time>2022-02-26T14:10:39.248Z</time>
      </trkpt>
      <trkpt lat="47.502886" lon="8.004471">
        <ele>416.633000</ele>
        <time>2022-02-26T14:10:48.242Z</time>
      </trkpt>
      <trkpt lat="47.502820" lon="8.004587">
        <ele>416.140667</ele>
        <time>2022-02-26T14:10:56.242Z</time>
      </trkpt>
      <trkpt lat="47.502773" lon="8.004701">
        <ele>415.707116</ele>
        <time>2022-02-26T14:11:03.242Z</time>
      </trkpt>
      <trkpt lat="47.502726" lon="8.004825">
        <ele>415.245545</ele>
        <time>2022-02-26T14:11:14.262Z</time>
      </trkpt>
      <trkpt lat="47.502690" lon="8.004950">
        <ele>414.804421</ele>
        <time>2022-02-26T14:11:20.275Z</time>
      </trkpt>
      <trkpt lat="47.502642" lon="8.005083">
        <ele>414.314914</ele>
        <time>2022-02-26T14:11:27.242Z</time>
      </trkpt>
      <trkpt lat="47.502606" lon="8.005214">
        <ele>413.855809</ele>
        <time>2022-02-26T14:11:35.236Z</time>
      </trkpt>
      <trkpt lat="47.502561" lon="8.005335">
        <ele>413.407418</ele>
        <time>2022-02-26T14:11:43.237Z</time>
      </trkpt>
      <trkpt lat="47.502512" lon="8.005453">
        <ele>412.957772</ele>
        <time>2022-02-26T14:11:50.242Z</time>
      </trkpt>
      <trkpt lat="47.502481" lon="8.005578">
        <ele>412.525504</ele>
        <time>2022-02-26T14:11:58.243Z</time>
      </trkpt>
      <trkpt lat="47.502490" lon="8.005715">
        <ele>412.078662</ele>
        <time>2022-02-26T14:12:05.252Z</time>
      </trkpt>
      <trkpt lat="47.502465" lon="8.005857">
        <ele>411.602289</ele>
        <time>2022-02-26T14:12:12.274Z</time>
      </trkpt>
      <trkpt lat="47.502407" lon="8.005961">
        <ele>411.164493</ele>
        <time>2022-02-26T14:12:18.269Z</time>
      </trkpt>
      <trkpt lat="47.502397" lon="8.006102">
        <ele>410.787121</ele>
        <time>2022-02-26T14:12:27.235Z</time>
      </trkpt>
      <trkpt lat="47.502345" lon="8.006220">
        <ele>410.692753</ele>
        <time>2022-02-26T14:12:33.229Z</time>
      </trkpt>
      <trkpt lat="47.502274" lon="8.006330">
        <ele>410.590849</ele>
        <time>2022-02-26T14:12:39.265Z</time>
      </trkpt>
      <trkpt lat="47.502211" lon="8.006432">
        <ele>410.498277</ele>
        <time>2022-02-26T14:12:48.266Z</time>
      </trkpt>
      <trkpt lat="47.502267" lon="8.006537">
        <ele>410.408670</ele>
        <time>2022-02-26T14:12:57.244Z</time>
      </trkpt>
      <trkpt lat="47.502331" lon="8.006654">
        <ele>410.307832</ele>
        <time>2022-02-26T14:13:05.233Z</time>
      </trkpt>
      <trkpt lat="47.502405" lon="8.006752">
        <ele>410.209383</ele>
        <time>2022-02-26T14:13:12.272Z</time>
      </trkpt>
      <trkpt lat="47.502458" lon="8.006874">
        <ele>410.112228</ele>
        <time>2022-02-26T14:13:20.241Z</time>
      </trkpt>
      <trkpt lat="47.502506" lon="8.006994">
        <ele>410.018817</ele>
        <time>2022-02-26T14:13:27.231Z</time>
      </trkpt>
      <trkpt lat="47.502583" lon="8.007072">
        <ele>409.926306</ele>
        <time>2022-02-26T14:13:32.233Z</time>
      </trkpt>
      <trkpt lat="47.502593" lon="8.007206">
        <ele>409.836005</ele>
        <time>2022-02-26T14:13:39.236Z</time>
      </trkpt>
      <trkpt lat="47.502573" lon="8.007357">
        <ele>409.732938</ele>
        <time>2022-02-26T14:13:44.235Z</time>
      </trkpt>
      <trkpt lat="47.502521" lon="8.007509">
        <ele>409.618816</ele>
        <time>2022-02-26T14:13:51.239Z</time>
      </trkpt>
      <trkpt lat="47.502434" lon="8.007575">
        <ele>409.521887</ele>
        <time>2022-02-26T14:13:54.278Z</time>
      </trkpt>
      <trkpt lat="47.502345" lon="8.007637">
        <ele>409.424360</ele>
        <time>2022-02-26T14:13:57.236Z</time>
      </trkpt>
      <trkpt lat="47.502433" lon="8.007716">
        <ele>409.322316</ele>
        <time>2022-02-26T14:14:03.235Z</time>
      </trkpt>
      <trkpt lat="47.502510" lon="8.007792">
        <ele>409.230555</ele>
        <time>2022-02-26T14:14:08.248Z</time>
      </trkpt>
      <trkpt lat="47.502565" lon="8.007908">
        <ele>409.135630</ele>
        <time>2022-02-26T14:14:15.235Z</time>
      </trkpt>
      <trkpt lat="47.502493" lon="8.008038">
        <ele>409.028623</ele>
        <time>2022-02-26T14:14:21.267Z</time>
      </trkpt>
      <trkpt lat="47.502431" lon="8.008134">
        <ele>409.157682</ele>
        <time>2022-02-26T14:14:26.242Z</time>
      </trkpt>
      <trkpt lat="47.502406" lon="8.008266">
        <ele>409.290898</ele>
        <time>2022-02-26T14:14:40.238Z</time>
      </trkpt>
      <trkpt lat="47.502387" lon="8.008415">
        <ele>409.438246</ele>
        <time>2022-02-26T14:14:48.248Z</time>
      </trkpt>
      <trkpt lat="47.502340" lon="8.008560">
        <ele>409.594529</ele>
        <time>2022-02-26T14:14:54.241Z</time>
      </trkpt>
      <trkpt lat="47.502286" lon="8.008677">
        <ele>409.732224</ele>
        <time>2022-02-26T14:15:00.235Z</time>
      </trkpt>
      <trkpt lat="47.502238" lon="8.008801">
        <ele>409.871101</ele>
        <time>2022-02-26T14:15:07.239Z</time>
      </trkpt>
      <trkpt lat="47.502252" lon="8.008943">
        <ele>410.010551</ele>
        <time>2022-02-26T14:15:14.234Z</time>
      </trkpt>
      <trkpt lat="47.502311" lon="8.009050">
        <ele>410.144767</ele>
        <time>2022-02-26T14:15:22.235Z</time>
      </trkpt>
      <trkpt lat="47.502389" lon="8.009156">
        <ele>410.297078</ele>
        <time>2022-02-26T14:15:28.245Z</time>
      </trkpt>
      <trkpt lat="47.502449" lon="8.009274">
        <ele>410.440594</ele>
        <time>2022-02-26T14:15:34.235Z</time>
      </trkpt>
      <trkpt lat="47.502505" lon="8.009381">
        <ele>410.572123</ele>
        <time>2022-02-26T14:15:44.261Z</time>
      </trkpt>
      <trkpt lat="47.502511" lon="8.009528">
        <ele>410.715231</ele>
        <time>2022-02-26T14:15:49.233Z</time>
      </trkpt>
      <trkpt lat="47.502595" lon="8.009606">
        <ele>410.857865</ele>
        <time>2022-02-26T14:15:57.235Z</time>
      </trkpt>
      <trkpt lat="47.502634" lon="8.009738">
        <ele>410.997866</ele>
        <time>2022-02-26T14:16:04.242Z</time>
      </trkpt>
      <trkpt lat="47.502703" lon="8.009825">
        <ele>411.128244</ele>
        <time>2022-02-26T14:16:11.226Z</time>
      </trkpt>
      <trkpt lat="47.502796" lon="8.009824">
        <ele>411.262022</ele>
        <time>2022-02-26T14:16:18.230Z</time>
      </trkpt>
      <trkpt lat="47.502863" lon="8.009932">
        <ele>411.404508</ele>
        <time>2022-02-26T14:16:22.241Z</time>
      </trkpt>
      <trkpt lat="47.502892" lon="8.010071">
        <ele>411.545874</ele>
        <time>2022-02-26T14:16:28.232Z</time>
      </trkpt>
      <trkpt lat="47.502946" lon="8.010214">
        <ele>411.786698</ele>
        <time>2022-02-26T14:16:36.240Z</time>
      </trkpt>
      <trkpt lat="47.503007" lon="8.010320">
        <ele>412.041386</ele>
        <time>2022-02-26T14:16:44.232Z</time>
      </trkpt>
      <trkpt lat="47.503110" lon="8.010266">
        <ele>412.337231</ele>
        <time>2022-02-26T14:16:51.238Z</time>
      </trkpt>
      <trkpt lat="47.503200" lon="8.010274">
        <ele>412.581344</ele>
        <time>2022-02-26T14:16:56.238Z</time>
      </trkpt>
      <trkpt lat="47.503298" lon="8.010288">
        <ele>412.847911</ele>
        <time>2022-02-26T14:17:04.236Z</time>
      </trkpt>
      <trkpt lat="47.503383" lon="8.010240">
        <ele>413.094224</ele>
        <time>2022-02-26T14:17:13.237Z</time>
      </trkpt>
      <trkpt lat="47.503480" lon="8.010253">
        <ele>413.357925</ele>
        <time>2022-02-26T14:17:23.244Z</time>
      </trkpt>
      <trkpt lat="47.503576" lon="8.010299">
        <ele>413.631122</ele>
        <time>2022-02-26T14:17:29.241Z</time>
      </trkpt>
      <trkpt lat="47.503678" lon="8.010279">
        <ele>413.909698</ele>
        <time>2022-02-26T14:17:37.242Z</time>
      </trkpt>
      <trkpt lat="47.503762" lon="8.010333">
        <ele>414.157647</ele>
        <time>2022-02-26T14:17:47.250Z</time>
      </trkpt>
      <trkpt lat="47.503837" lon="8.010419">
        <ele>414.414505</ele>
        <time>2022-02-26T14:17:54.238Z</time>
      </trkpt>
      <trkpt lat="47.503920" lon="8.010476">
        <ele>414.662232</ele>
        <time>2022-02-26T14:17:58.237Z</time>
      </trkpt>
      <trkpt lat="47.504011" lon="8.010517">
        <ele>414.919773</ele>
        <time>2022-02-26T14:18:03.237Z</time>
      </trkpt>
      <trkpt lat="47.504119" lon="8.010549">
        <ele>415.217981</ele>
        <time>2022-02-26T14:18:10.272Z</time>
      </trkpt>
      <trkpt lat="47.504209" lon="8.010630">
        <ele>415.503157</ele>
        <time>2022-02-26T14:18:17.248Z</time>
      </trkpt>
      <trkpt lat="47.504317" lon="8.010648">
        <ele>415.797413</ele>
        <time>2022-02-26T14:18:23.234Z</time>
      </trkpt>
      <trkpt lat="47.504399" lon="8.010702">
        <ele>416.040405</ele>
        <time>2022-02-26T14:18:29.266Z</time>
      </trkpt>
      <trkpt lat="47.504492" lon="8.010671">
        <ele>416.298506</ele>
        <time>2022-02-26T14:18:38.235Z</time>
      </trkpt>
      <trkpt lat="47.504544" lon="8.010781">
        <ele>416.408015</ele>
        <time>2022-02-26T14:18:45.233Z</time>
      </trkpt>
      <trkpt lat="47.504643" lon="8.010805">
        <ele>416.080865</ele>
        <time>2022-02-26T14:18:52.235Z</time>
      </trkpt>
      <trkpt lat="47.504732" lon="8.010853">
        <ele>415.771964</ele>
        <time>2022-02-26T14:18:56.239Z</time>
      </trkpt>
      <trkpt lat="47.504831" lon="8.010853">
        <ele>415.449115</ele>
        <time>2022-02-26T14:19:04.235Z</time>
      </trkpt>
      <trkpt lat="47.504926" lon="8.010898">
        <ele>415.123836</ele>
        <time>2022-02-26T14:19:15.235Z</time>
      </trkpt>
      <trkpt lat="47.505006" lon="8.010998">
        <ele>414.782378</ele>
        <time>2022-02-26T14:19:22.234Z</time>
      </trkpt>
      <trkpt lat="47.505064" lon="8.011112">
        <ele>414.467981</ele>
        <time>2022-02-26T14:19:29.237Z</time>
      </trkpt>
      <trkpt lat="47.505157" lon="8.011175">
        <ele>414.134452</ele>
        <time>2022-02-26T14:19:37.237Z</time>
      </trkpt>
      <trkpt lat="47.505238" lon="8.011236">
        <ele>413.838086</ele>
        <time>2022-02-26T14:19:42.236Z</time>
      </trkpt>
      <trkpt lat="47.505308" lon="8.011321">
        <ele>413.542834</ele>
        <time>2022-02-26T14:19:54.237Z</time>
      </trkpt>
      <trkpt lat="47.505396" lon="8.011388">
        <ele>413.220125</ele>
        <time>2022-02-26T14:20:01.238Z</time>
      </trkpt>
      <trkpt lat="47.505495" lon="8.011408">
        <ele>412.894284</ele>
        <time>2022-02-26T14:20:10.240Z</time>
      </trkpt>
      <trkpt lat="47.505560" lon="8.011511">
        <ele>412.583773</ele>
        <time>2022-02-26T14:20:17.235Z</time>
      </trkpt>
      <trkpt lat="47.505660" lon="8.011573">
        <ele>412.230216</ele>
        <time>2022-02-26T14:20:25.238Z</time>
      </trkpt>
      <trkpt lat="47.505742" lon="8.011658">
        <ele>411.903764</ele>
        <time>2022-02-26T14:20:33.235Z</time>
      </trkpt>
      <trkpt lat="47.505826" lon="8.011736">
        <ele>411.580400</ele>
        <time>2022-02-26T14:20:42.237Z</time>
      </trkpt>
      <trkpt lat="47.505856" lon="8.011864">
        <ele>411.281936</ele>
        <time>2022-02-26T14:20:48.238Z</time>
      </trkpt>
      <trkpt lat="47.505909" lon="8.011980">
        <ele>410.973434</ele>
        <time>2022-02-26T14:20:53.237Z</time>
      </trkpt>
      <trkpt lat="47.505974" lon="8.012107">
        <ele>410.622430</ele>
        <time>2022-02-26T14:21:01.249Z</time>
      </trkpt>
      <trkpt lat="47.506062" lon="8.012164">
        <ele>410.616785</ele>
        <time>2022-02-26T14:21:10.240Z</time>
      </trkpt>
      <trkpt lat="47.506155" lon="8.012172">
        <ele>410.616785</ele>
        <time>2022-02-26T14:21:18.238Z</time>
      </trkpt>
      <trkpt lat="47.506241" lon="8.012233">
        <ele>410.616785</ele>
        <time>2022-02-26T14:21:27.241Z</time>
      </trkpt>
      <trkpt lat="47.506332" lon="8.012295">
        <ele>410.616785</ele>
        <time>2022-02-26T14:21:36.236Z</time>
      </trkpt>
      <trkpt lat="47.506416" lon="8.012362">
        <ele>410.616785</ele>
        <time>2022-02-26T14:21:43.238Z</time>
      </trkpt>
      <trkpt lat="47.506485" lon="8.012463">
        <ele>410.616785</ele>
        <time>2022-02-26T14:21:51.261Z</time>
      </trkpt>
      <trkpt lat="47.506556" lon="8.012554">
        <ele>410.616785</ele>
        <time>2022-02-26T14:21:59.243Z</time>
      </trkpt>
      <trkpt lat="47.506636" lon="8.012640">
        <ele>410.616785</ele>
        <time>2022-02-26T14:22:08.246Z</time>
      </trkpt>
      <trkpt lat="47.506720" lon="8.012702">
        <ele>410.616785</ele>
        <time>2022-02-26T14:22:16.238Z</time>
      </trkpt>
      <trkpt lat="47.506781" lon="8.012805">
        <ele>410.616785</ele>
        <time>2022-02-26T14:22:28.251Z</time>
      </trkpt>
      <trkpt lat="47.506877" lon="8.012782">
        <ele>410.616785</ele>
        <time>2022-02-26T14:22:38.238Z</time>
      </trkpt>
      <trkpt lat="47.506974" lon="8.012821">
        <ele>410.616785</ele>
        <time>2022-02-26T14:22:48.247Z</time>
      </trkpt>
      <trkpt lat="47.507021" lon="8.012942">
        <ele>410.616785</ele>
        <time>2022-02-26T14:22:54.238Z</time>
      </trkpt>
      <trkpt lat="47.507089" lon="8.013045">
        <ele>410.616785</ele>
        <time>2022-02-26T14:23:03.236Z</time>
      </trkpt>
      <trkpt lat="47.507091" lon="8.013054">
        <ele>410.616785</ele>
        <time>2022-02-26T14:23:05.725Z</time>
      </trkpt>
      <trkpt lat="47.507097" lon="8.013226">
        <ele>398.871019</ele>
        <time>2022-03-12T11:42:09.414Z</time>
      </trkpt>
      <trkpt lat="47.507009" lon="8.013255">
        <ele>398.871019</ele>
        <time>2022-03-12T11:42:23.161Z</time>
      </trkpt>
      <trkpt lat="47.506924" lon="8.013324">
        <ele>398.871019</ele>
        <time>2022-03-12T11:42:36.156Z</time>
      </trkpt>
      <trkpt lat="47.506873" lon="8.013436">
        <ele>398.871019</ele>
        <time>2022-03-12T11:42:45.152Z</time>
      </trkpt>
      <trkpt lat="47.506831" lon="8.013572">
        <ele>398.871019</ele>
        <time>2022-03-12T11:42:52.155Z</time>
      </trkpt>
      <trkpt lat="47.506738" lon="8.013557">
        <ele>398.871019</ele>
        <time>2022-03-12T11:43:00.155Z</time>
      </trkpt>
      <trkpt lat="47.506664" lon="8.013654">
        <ele>398.871019</ele>
        <time>2022-03-12T11:43:06.153Z</time>
      </trkpt>
      <trkpt lat="47.506578" lon="8.013723">
        <ele>398.871019</ele>
        <time>2022-03-12T11:43:14.158Z</time>
      </trkpt>
      <trkpt lat="47.506549" lon="8.013863">
        <ele>398.871019</ele>
        <time>2022-03-12T11:43:20.160Z</time>
      </trkpt>
      <trkpt lat="47.506604" lon="8.013988">
        <ele>398.871019</ele>
        <time>2022-03-12T11:43:29.156Z</time>
      </trkpt>
      <trkpt lat="47.506656" lon="8.014107">
        <ele>398.794577</ele>
        <time>2022-03-12T11:43:35.183Z</time>
      </trkpt>
      <trkpt lat="47.506676" lon="8.014260">
        <ele>398.672026</ele>
        <time>2022-03-12T11:43:47.164Z</time>
      </trkpt>
      <trkpt lat="47.506723" lon="8.014393">
        <ele>398.553988</ele>
        <time>2022-03-12T11:43:55.252Z</time>
      </trkpt>
      <trkpt lat="47.506746" lon="8.014528">
        <ele>398.444500</ele>
        <time>2022-03-12T11:44:02.213Z</time>
      </trkpt>
      <trkpt lat="47.506800" lon="8.014649">
        <ele>398.330455</ele>
        <time>2022-03-12T11:44:09.157Z</time>
      </trkpt>
      <trkpt lat="47.506844" lon="8.014778">
        <ele>398.216812</ele>
        <time>2022-03-12T11:44:14.164Z</time>
      </trkpt>
      <trkpt lat="47.506918" lon="8.014886">
        <ele>398.095838</ele>
        <time>2022-03-12T11:44:24.154Z</time>
      </trkpt>
      <trkpt lat="47.507004" lon="8.014971">
        <ele>397.975457</ele>
        <time>2022-03-12T11:44:34.150Z</time>
      </trkpt>
      <trkpt lat="47.507067" lon="8.015101">
        <ele>397.849639</ele>
        <time>2022-03-12T11:44:40.156Z</time>
      </trkpt>
      <trkpt lat="47.507152" lon="8.015178">
        <ele>397.733629</ele>
        <time>2022-03-12T11:44:47.157Z</time>
      </trkpt>
      <trkpt lat="47.507238" lon="8.015254">
        <ele>397.617029</ele>
        <time>2022-03-12T11:44:53.188Z</time>
      </trkpt>
      <trkpt lat="47.507318" lon="8.015354">
        <ele>397.495137</ele>
        <time>2022-03-12T11:45:02.155Z</time>
      </trkpt>
      <trkpt lat="47.507389" lon="8.015445">
        <ele>397.385808</ele>
        <time>2022-03-12T11:45:13.195Z</time>
      </trkpt>
      <trkpt lat="47.507465" lon="8.015549">
        <ele>397.265323</ele>
        <time>2022-03-12T11:45:21.157Z</time>
      </trkpt>
      <trkpt lat="47.507543" lon="8.015653">
        <ele>397.143118</ele>
        <time>2022-03-12T11:45:29.196Z</time>
      </trkpt>
      <trkpt lat="47.507594" lon="8.015769">
        <ele>397.034277</ele>
        <time>2022-03-12T11:45:36.147Z</time>
      </trkpt>
      <trkpt lat="47.507658" lon="8.015862">
        <ele>396.929876</ele>
        <time>2022-03-12T11:45:42.151Z</time>
      </trkpt>
      <trkpt lat="47.507741" lon="8.015936">
        <ele>396.817080</ele>
        <time>2022-03-12T11:45:51.156Z</time>
      </trkpt>
      <trkpt lat="47.507800" lon="8.016043">
        <ele>396.559648</ele>
        <time>2022-03-12T11:45:57.155Z</time>
      </trkpt>
      <trkpt lat="47.507862" lon="8.016142">
        <ele>396.223338</ele>
        <time>2022-03-12T11:46:07.169Z</time>
      </trkpt>
      <trkpt lat="47.507926" lon="8.016239">
        <ele>395.885552</ele>
        <time>2022-03-12T11:46:14.164Z</time>
      </trkpt>
      <trkpt lat="47.508007" lon="8.016331">
        <ele>395.509042</ele>
        <time>2022-03-12T11:46:21.161Z</time>
      </trkpt>
      <trkpt lat="47.508029" lon="8.016466">
        <ele>395.163090</ele>
        <time>2022-03-12T11:46:30.179Z</time>
      </trkpt>
      <trkpt lat="47.508014" lon="8.016622">
        <ele>394.770554</ele>
        <time>2022-03-12T11:46:36.155Z</time>
      </trkpt>
      <trkpt lat="47.507993" lon="8.016762">
        <ele>394.413299</ele>
        <time>2022-03-12T11:46:41.160Z</time>
      </trkpt>
      <trkpt lat="47.507991" lon="8.016904">
        <ele>394.059480</ele>
        <time>2022-03-12T11:46:49.159Z</time>
      </trkpt>
      <trkpt lat="47.508006" lon="8.017046">
        <ele>393.701439</ele>
        <time>2022-03-12T11:46:59.160Z</time>
      </trkpt>
      <trkpt lat="47.508035" lon="8.017193">
        <ele>393.319944</ele>
        <time>2022-03-12T11:47:07.154Z</time>
      </trkpt>
      <trkpt lat="47.508070" lon="8.017317">
        <ele>392.985159</ele>
        <time>2022-03-12T11:47:16.153Z</time>
      </trkpt>
      <trkpt lat="47.508097" lon="8.017444">
        <ele>392.653485</ele>
        <time>2022-03-12T11:47:22.161Z</time>
      </trkpt>
      <trkpt lat="47.508140" lon="8.017589">
        <ele>392.258993</ele>
        <time>2022-03-12T11:47:28.089Z</time>
      </trkpt>
      <trkpt lat="47.508175" lon="8.017715">
        <ele>391.919607</ele>
        <time>2022-03-12T11:47:39.081Z</time>
      </trkpt>
      <trkpt lat="47.508210" lon="8.017838">
        <ele>391.587120</ele>
        <time>2022-03-12T11:47:45.106Z</time>
      </trkpt>
      <trkpt lat="47.508267" lon="8.017981">
        <ele>391.173490</ele>
        <time>2022-03-12T11:47:54.098Z</time>
      </trkpt>
      <trkpt lat="47.508305" lon="8.018122">
        <ele>390.795317</ele>
        <time>2022-03-12T11:48:00.100Z</time>
      </trkpt>
      <trkpt lat="47.508359" lon="8.018245">
        <ele>390.429877</ele>
        <time>2022-03-12T11:48:06.060Z</time>
      </trkpt>
      <trkpt lat="47.508371" lon="8.018382">
        <ele>390.152675</ele>
        <time>2022-03-12T11:48:12.103Z</time>
      </trkpt>
      <trkpt lat="47.508408" lon="8.018504">
        <ele>390.203177</ele>
        <time>2022-03-12T11:48:20.073Z</time>
      </trkpt>
      <trkpt lat="47.508440" lon="8.018629">
        <ele>390.253657</ele>
        <time>2022-03-12T11:48:29.090Z</time>
      </trkpt>
      <trkpt lat="47.508439" lon="8.018774">
        <ele>390.308416</ele>
        <time>2022-03-12T11:48:35.115Z</time>
      </trkpt>
      <trkpt lat="47.508410" lon="8.018906">
        <ele>390.360834</ele>
        <time>2022-03-12T11:48:43.114Z</time>
      </trkpt>
      <trkpt lat="47.508362" lon="8.019043">
        <ele>390.419114</ele>
        <time>2022-03-12T11:48:50.063Z</time>
      </trkpt>
      <trkpt lat="47.508312" lon="8.019159">
        <ele>390.471078</ele>
        <time>2022-03-12T11:48:59.112Z</time>
      </trkpt>
      <trkpt lat="47.508244" lon="8.019286">
        <ele>390.532277</ele>
        <time>2022-03-12T11:49:08.084Z</time>
      </trkpt>
      <trkpt lat="47.508167" lon="8.019381">
        <ele>390.588313</ele>
        <time>2022-03-12T11:49:14.107Z</time>
      </trkpt>
      <trkpt lat="47.508086" lon="8.019448">
        <ele>390.640186</ele>
        <time>2022-03-12T11:49:25.074Z</time>
      </trkpt>
      <trkpt lat="47.508039" lon="8.019563">
        <ele>390.690944</ele>
        <time>2022-03-12T11:49:31.076Z</time>
      </trkpt>
      <trkpt lat="47.508014" lon="8.019697">
        <ele>390.743441</ele>
        <time>2022-03-12T11:49:39.086Z</time>
      </trkpt>
      <trkpt lat="47.507953" lon="8.019824">
        <ele>390.802289</ele>
        <time>2022-03-12T11:49:48.076Z</time>
      </trkpt>
      <trkpt lat="47.507896" lon="8.019941">
        <ele>390.856765</ele>
        <time>2022-03-12T11:49:53.107Z</time>
      </trkpt>
      <trkpt lat="47.507831" lon="8.020051">
        <ele>390.911956</ele>
        <time>2022-03-12T11:50:00.080Z</time>
      </trkpt>
      <trkpt lat="47.507776" lon="8.020163">
        <ele>390.964247</ele>
        <time>2022-03-12T11:50:09.079Z</time>
      </trkpt>
      <trkpt lat="47.507696" lon="8.020259">
        <ele>391.021819</ele>
        <time>2022-03-12T11:50:17.108Z</time>
      </trkpt>
      <trkpt lat="47.507638" lon="8.020383">
        <ele>391.078776</ele>
        <time>2022-03-12T11:50:23.077Z</time>
      </trkpt>
      <trkpt lat="47.507569" lon="8.020481">
        <ele>391.132233</ele>
        <time>2022-03-12T11:50:33.107Z</time>
      </trkpt>
      <trkpt lat="47.507520" lon="8.020599">
        <ele>391.097490</ele>
        <time>2022-03-12T11:50:40.086Z</time>
      </trkpt>
      <trkpt lat="47.507433" lon="8.020668">
        <ele>391.015973</ele>
        <time>2022-03-12T11:50:47.076Z</time>
      </trkpt>
      <trkpt lat="47.507359" lon="8.020746">
        <ele>390.940946</ele>
        <time>2022-03-12T11:50:54.091Z</time>
      </trkpt>
      <trkpt lat="47.507282" lon="8.020828">
        <ele>390.862605</ele>
        <time>2022-03-12T11:50:59.067Z</time>
      </trkpt>
      <trkpt lat="47.507214" lon="8.020935">
        <ele>390.780643</ele>
        <time>2022-03-12T11:51:07.072Z</time>
      </trkpt>
      <trkpt lat="47.507158" lon="8.021042">
        <ele>390.705126</ele>
        <time>2022-03-12T11:51:14.079Z</time>
      </trkpt>
      <trkpt lat="47.507098" lon="8.021158">
        <ele>390.623616</ele>
        <time>2022-03-12T11:51:21.098Z</time>
      </trkpt>
      <trkpt lat="47.507028" lon="8.021245">
        <ele>390.548128</ele>
        <time>2022-03-12T11:51:29.088Z</time>
      </trkpt>
      <trkpt lat="47.506980" lon="8.021365">
        <ele>390.470322</ele>
        <time>2022-03-12T11:51:38.066Z</time>
      </trkpt>
      <trkpt lat="47.506943" lon="8.021492">
        <ele>390.393159</ele>
        <time>2022-03-12T11:51:44.071Z</time>
      </trkpt>
      <trkpt lat="47.506944" lon="8.021635">
        <ele>390.313374</ele>
        <time>2022-03-12T11:51:50.083Z</time>
      </trkpt>
      <trkpt lat="47.506992" lon="8.021759">
        <ele>390.233639</ele>
        <time>2022-03-12T11:51:59.075Z</time>
      </trkpt>
      <trkpt lat="47.507054" lon="8.021875">
        <ele>390.151114</ele>
        <time>2022-03-12T11:52:05.069Z</time>
      </trkpt>
      <trkpt lat="47.507126" lon="8.021960">
        <ele>390.075054</ele>
        <time>2022-03-12T11:52:12.086Z</time>
      </trkpt>
      <trkpt lat="47.507204" lon="8.022044">
        <ele>389.995390</ele>
        <time>2022-03-12T11:52:20.075Z</time>
      </trkpt>
      <trkpt lat="47.507267" lon="8.022166">
        <ele>389.909715</ele>
        <time>2022-03-12T11:52:28.074Z</time>
      </trkpt>
      <trkpt lat="47.507335" lon="8.022272">
        <ele>389.828159</ele>
        <time>2022-03-12T11:52:35.112Z</time>
      </trkpt>
      <trkpt lat="47.507369" lon="8.022403">
        <ele>389.749864</ele>
        <time>2022-03-12T11:52:45.091Z</time>
      </trkpt>
      <trkpt lat="47.507302" lon="8.022496">
        <ele>389.674008</ele>
        <time>2022-03-12T11:52:53.080Z</time>
      </trkpt>
      <trkpt lat="47.507352" lon="8.022635">
        <ele>389.689254</ele>
        <time>2022-03-12T11:53:04.063Z</time>
      </trkpt>
      <trkpt lat="47.507451" lon="8.022663">
        <ele>389.716437</ele>
        <time>2022-03-12T11:53:11.107Z</time>
      </trkpt>
      <trkpt lat="47.507504" lon="8.022790">
        <ele>389.743634</ele>
        <time>2022-03-12T11:53:20.079Z</time>
      </trkpt>
      <trkpt lat="47.507632" lon="8.022857">
        <ele>389.780251</ele>
        <time>2022-03-12T11:53:25.064Z</time>
      </trkpt>
      <trkpt lat="47.507735" lon="8.022888">
        <ele>389.808599</ele>
        <time>2022-03-12T11:53:33.078Z</time>
      </trkpt>
      <trkpt lat="47.507824" lon="8.022937">
        <ele>389.834209</ele>
        <time>2022-03-12T11:53:45.064Z</time>
      </trkpt>
      <trkpt lat="47.507914" lon="8.022966">
        <ele>389.859051</ele>
        <time>2022-03-12T11:53:50.073Z</time>
      </trkpt>
      <trkpt lat="47.508002" lon="8.023011">
        <ele>389.884161</ele>
        <time>2022-03-12T11:54:00.082Z</time>
      </trkpt>
      <trkpt lat="47.508089" lon="8.023059">
        <ele>389.909202</ele>
        <time>2022-03-12T11:54:07.109Z</time>
      </trkpt>
      <trkpt lat="47.508191" lon="8.023095">
        <ele>389.937482</ele>
        <time>2022-03-12T11:54:12.072Z</time>
      </trkpt>
      <trkpt lat="47.508276" lon="8.023148">
        <ele>389.962358</ele>
        <time>2022-03-12T11:54:22.083Z</time>
      </trkpt>
      <trkpt lat="47.508288" lon="8.023292">
        <ele>389.988791</ele>
        <time>2022-03-12T11:54:29.085Z</time>
      </trkpt>
      <trkpt lat="47.508247" lon="8.023432">
        <ele>390.016590</ele>
        <time>2022-03-12T11:54:35.078Z</time>
      </trkpt>
      <trkpt lat="47.508202" lon="8.023553">
        <ele>390.041754</ele>
        <time>2022-03-12T11:54:45.088Z</time>
      </trkpt>
      <trkpt lat="47.508155" lon="8.023680">
        <ele>390.068136</ele>
        <time>2022-03-12T11:54:52.106Z</time>
      </trkpt>
      <trkpt lat="47.508135" lon="8.023829">
        <ele>390.095812</ele>
        <time>2022-03-12T11:55:02.065Z</time>
      </trkpt>
      <trkpt lat="47.508117" lon="8.023964">
        <ele>390.120881</ele>
        <time>2022-03-12T11:55:09.115Z</time>
      </trkpt>
      <trkpt lat="47.508083" lon="8.024092">
        <ele>390.145939</ele>
        <time>2022-03-12T11:55:14.080Z</time>
      </trkpt>
      <trkpt lat="47.508100" lon="8.024236">
        <ele>391.073956</ele>
        <time>2022-03-12T11:55:24.084Z</time>
      </trkpt>
      <trkpt lat="47.508112" lon="8.024383">
        <ele>392.131488</ele>
        <time>2022-03-12T11:55:32.079Z</time>
      </trkpt>
      <trkpt lat="47.508138" lon="8.024513">
        <ele>393.099807</ele>
        <time>2022-03-12T11:55:41.065Z</time>
      </trkpt>
      <trkpt lat="47.508167" lon="8.024642">
        <ele>394.070824</ele>
        <time>2022-03-12T11:55:46.079Z</time>
      </trkpt>
      <trkpt lat="47.508201" lon="8.024766">
        <ele>395.026628</ele>
        <time>2022-03-12T11:55:51.077Z</time>
      </trkpt>
      <trkpt lat="47.508253" lon="8.024890">
        <ele>396.069039</ele>
        <time>2022-03-12T11:56:00.110Z</time>
      </trkpt>
      <trkpt lat="47.508288" lon="8.025016">
        <ele>397.042064</ele>
        <time>2022-03-12T11:56:08.079Z</time>
      </trkpt>
      <trkpt lat="47.508306" lon="8.025154">
        <ele>398.045881</ele>
        <time>2022-03-12T11:56:19.078Z</time>
      </trkpt>
      <trkpt lat="47.508312" lon="8.025290">
        <ele>399.019276</ele>
        <time>2022-03-12T11:56:27.079Z</time>
      </trkpt>
      <trkpt lat="47.508339" lon="8.025435">
        <ele>400.093508</ele>
        <time>2022-03-12T11:56:38.116Z</time>
      </trkpt>
      <trkpt lat="47.508364" lon="8.025568">
        <ele>401.079499</ele>
        <time>2022-03-12T11:56:51.077Z</time>
      </trkpt>
      <trkpt lat="47.508421" lon="8.025674">
        <ele>402.047158</ele>
        <time>2022-03-12T11:56:59.075Z</time>
      </trkpt>
      <trkpt lat="47.508488" lon="8.025766">
        <ele>403.013383</ele>
        <time>2022-03-12T11:57:07.078Z</time>
      </trkpt>
      <trkpt lat="47.508546" lon="8.025876">
        <ele>404.010022</ele>
        <time>2022-03-12T11:57:13.075Z</time>
      </trkpt>
      <trkpt lat="47.508617" lon="8.025964">
        <ele>404.989089</ele>
        <time>2022-03-12T11:57:20.076Z</time>
      </trkpt>
      <trkpt lat="47.508686" lon="8.026062">
        <ele>406.000101</ele>
        <time>2022-03-12T11:57:26.078Z</time>
      </trkpt>
      <trkpt lat="47.508752" lon="8.026153">
        <ele>406.953717</ele>
        <time>2022-03-12T11:57:39.081Z</time>
      </trkpt>
      <trkpt lat="47.508818" lon="8.026266">
        <ele>408.020633</ele>
        <time>2022-03-12T11:57:45.086Z</time>
      </trkpt>
      <trkpt lat="47.508883" lon="8.026366">
        <ele>409.011803</ele>
        <time>2022-03-12T11:57:53.077Z</time>
      </trkpt>
      <trkpt lat="47.508916" lon="8.026502">
        <ele>409.797683</ele>
        <time>2022-03-12T11:57:58.077Z</time>
      </trkpt>
      <trkpt lat="47.508963" lon="8.026624">
        <ele>410.519253</ele>
        <time>2022-03-12T11:58:06.069Z</time>
      </trkpt>
      <trkpt lat="47.508998" lon="8.026748">
        <ele>411.209705</ele>
        <time>2022-03-12T11:58:15.077Z</time>
      </trkpt>
      <trkpt lat="47.509042" lon="8.026863">
        <ele>411.888734</ele>
        <time>2022-03-12T11:58:23.074Z</time>
      </trkpt>
      <trkpt lat="47.509079" lon="8.026996">
        <ele>412.627724</ele>
        <time>2022-03-12T11:58:31.086Z</time>
      </trkpt>
      <trkpt lat="47.509121" lon="8.027118">
        <ele>413.331228</ele>
        <time>2022-03-12T11:58:38.082Z</time>
      </trkpt>
      <trkpt lat="47.509169" lon="8.027230">
        <ele>414.012691</ele>
        <time>2022-03-12T11:58:46.075Z</time>
      </trkpt>
      <trkpt lat="47.509219" lon="8.027358">
        <ele>414.772353</ele>
        <time>2022-03-12T11:58:54.066Z</time>
      </trkpt>
      <trkpt lat="47.509280" lon="8.027466">
        <ele>415.495636</ele>
        <time>2022-03-12T11:59:03.121Z</time>
      </trkpt>
      <trkpt lat="47.509331" lon="8.027587">
        <ele>416.228386</ele>
        <time>2022-03-12T11:59:11.076Z</time>
      </trkpt>
      <trkpt lat="47.509401" lon="8.027675">
        <ele>416.926865</ele>
        <time>2022-03-12T11:59:20.074Z</time>
      </trkpt>
      <trkpt lat="47.509459" lon="8.027791">
        <ele>417.668338</ele>
        <time>2022-03-12T11:59:28.074Z</time>
      </trkpt>
      <trkpt lat="47.509526" lon="8.027898">
        <ele>418.417931</ele>
        <time>2022-03-12T11:59:35.077Z</time>
      </trkpt>
      <trkpt lat="47.509578" lon="8.028015">
        <ele>419.137479</ele>
        <time>2022-03-12T11:59:42.071Z</time>
      </trkpt>
      <trkpt lat="47.509640" lon="8.028115">
        <ele>419.834851</ele>
        <time>2022-03-12T11:59:47.082Z</time>
      </trkpt>
      <trkpt lat="47.509718" lon="8.028196">
        <ele>420.559518</ele>
        <time>2022-03-12T11:59:56.072Z</time>
      </trkpt>
      <trkpt lat="47.509799" lon="8.028264">
        <ele>421.267762</ele>
        <time>2022-03-12T12:00:06.067Z</time>
      </trkpt>
      <trkpt lat="47.509890" lon="8.028315">
        <ele>422.007841</ele>
        <time>2022-03-12T12:00:14.074Z</time>
      </trkpt>
      <trkpt lat="47.509985" lon="8.028366">
        <ele>422.776449</ele>
        <time>2022-03-12T12:00:24.074Z</time>
      </trkpt>
      <trkpt lat="47.510062" lon="8.028446">
        <ele>423.931176</ele>
        <time>2022-03-12T12:00:31.076Z</time>
      </trkpt>
      <trkpt lat="47.510153" lon="8.028434">
        <ele>425.099363</ele>
        <time>2022-03-12T12:00:38.077Z</time>
      </trkpt>
      <trkpt lat="47.510209" lon="8.028318">
        <ele>426.330814</ele>
        <time>2022-03-12T12:00:44.078Z</time>
      </trkpt>
      <trkpt lat="47.510252" lon="8.028185">
        <ele>427.604317</ele>
        <time>2022-03-12T12:00:52.071Z</time>
      </trkpt>
      <trkpt lat="47.510330" lon="8.028110">
        <ele>428.793564</ele>
        <time>2022-03-12T12:01:04.069Z</time>
      </trkpt>
      <trkpt lat="47.510410" lon="8.028192">
        <ele>430.037731</ele>
        <time>2022-03-12T12:01:13.077Z</time>
      </trkpt>
      <trkpt lat="47.510480" lon="8.028275">
        <ele>431.184471</ele>
        <time>2022-03-12T12:01:20.080Z</time>
      </trkpt>
      <trkpt lat="47.510542" lon="8.028385">
        <ele>432.421833</ele>
        <time>2022-03-12T12:01:28.882Z</time>
      </trkpt>
      <trkpt lat="47.510595" lon="8.028512">
        <ele>433.711168</ele>
        <time>2022-03-12T12:01:38.845Z</time>
      </trkpt>
      <trkpt lat="47.510626" lon="8.028644">
        <ele>434.918163</ele>
        <time>2022-03-12T12:01:45.839Z</time>
      </trkpt>
      <trkpt lat="47.510678" lon="8.028757">
        <ele>436.099085</ele>
        <time>2022-03-12T12:01:55.838Z</time>
      </trkpt>
      <trkpt lat="47.510760" lon="8.028835">
        <ele>437.345351</ele>
        <time>2022-03-12T12:02:03.839Z</time>
      </trkpt>
      <trkpt lat="47.510844" lon="8.028895">
        <ele>438.537898</ele>
        <time>2022-03-12T12:02:10.836Z</time>
      </trkpt>
      <trkpt lat="47.510933" lon="8.028966">
        <ele>439.830601</ele>
        <time>2022-03-12T12:02:19.841Z</time>
      </trkpt>
      <trkpt lat="47.511024" lon="8.029038">
        <ele>441.149921</ele>
        <time>2022-03-12T12:02:29.841Z</time>
      </trkpt>
      <trkpt lat="47.511103" lon="8.029112">
        <ele>442.345266</ele>
        <time>2022-03-12T12:02:38.839Z</time>
      </trkpt>
      <trkpt lat="47.511185" lon="8.029199">
        <ele>443.635204</ele>
        <time>2022-03-12T12:02:47.843Z</time>
      </trkpt>
      <trkpt lat="47.511239" lon="8.029325">
        <ele>444.923993</ele>
        <time>2022-03-12T12:02:56.838Z</time>
      </trkpt>
      <trkpt lat="47.511324" lon="8.029385">
        <ele>446.115593</ele>
        <time>2022-03-12T12:03:05.836Z</time>
      </trkpt>
      <trkpt lat="47.511390" lon="8.029482">
        <ele>447.252208</ele>
        <time>2022-03-12T12:03:15.837Z</time>
      </trkpt>
      <trkpt lat="47.511398" lon="8.029614">
        <ele>448.346277</ele>
        <time>2022-03-12T12:03:26.837Z</time>
      </trkpt>
      <trkpt lat="47.511389" lon="8.029748">
        <ele>449.457933</ele>
        <time>2022-03-12T12:03:40.829Z</time>
      </trkpt>
      <trkpt lat="47.511471" lon="8.029848">
        <ele>450.756352</ele>
        <time>2022-03-12T12:03:51.840Z</time>
      </trkpt>
      <trkpt lat="47.511560" lon="8.029881">
        <ele>451.877700</ele>
        <time>2022-03-12T12:03:57.829Z</time>
      </trkpt>
      <trkpt lat="47.511640" lon="8.029967">
        <ele>453.086017</ele>
        <time>2022-03-12T12:04:05.842Z</time>
      </trkpt>
      <trkpt lat="47.511702" lon="8.030084">
        <ele>454.313649</ele>
        <time>2022-03-12T12:04:19.836Z</time>
      </trkpt>
      <trkpt lat="47.511773" lon="8.030184">
        <ele>455.511348</ele>
        <time>2022-03-12T12:04:27.830Z</time>
      </trkpt>
      <trkpt lat="47.511807" lon="8.030319">
        <ele>456.700749</ele>
        <time>2022-03-12T12:04:39.839Z</time>
      </trkpt>
      <trkpt lat="47.511785" lon="8.030449">
        <ele>457.807092</ele>
        <time>2022-03-12T12:04:56.867Z</time>
      </trkpt>
      <trkpt lat="47.511805" lon="8.030591">
        <ele>459.004541</ele>
        <time>2022-03-12T12:05:05.839Z</time>
      </trkpt>
      <trkpt lat="47.511902" lon="8.030608">
        <ele>460.198347</ele>
        <time>2022-03-12T12:05:13.831Z</time>
      </trkpt>
      <trkpt lat="47.511975" lon="8.030722">
        <ele>461.495138</ele>
        <time>2022-03-12T12:05:20.845Z</time>
      </trkpt>
      <trkpt lat="47.512018" lon="8.030857">
        <ele>462.727283</ele>
        <time>2022-03-12T12:05:27.835Z</time>
      </trkpt>
      <trkpt lat="47.512036" lon="8.030990">
        <ele>463.847039</ele>
        <time>2022-03-12T12:05:36.868Z</time>
      </trkpt>
      <trkpt lat="47.511974" lon="8.031112">
        <ele>465.107399</ele>
        <time>2022-03-12T12:05:45.825Z</time>
      </trkpt>
      <trkpt lat="47.511882" lon="8.031058">
        <ele>466.316959</ele>
        <time>2022-03-12T12:05:54.834Z</time>
      </trkpt>
      <trkpt lat="47.511832" lon="8.030942">
        <ele>467.452932</ele>
        <time>2022-03-12T12:06:03.841Z</time>
      </trkpt>
      <trkpt lat="47.511731" lon="8.030893">
        <ele>468.354411</ele>
        <time>2022-03-12T12:06:09.828Z</time>
      </trkpt>
      <trkpt lat="47.511642" lon="8.030917">
        <ele>468.984099</ele>
        <time>2022-03-12T12:06:16.833Z</time>
      </trkpt>
      <trkpt lat="47.511555" lon="8.030969">
        <ele>469.637162</ele>
        <time>2022-03-12T12:06:24.837Z</time>
      </trkpt>
      <trkpt lat="47.511466" lon="8.031050">
        <ele>470.364349</ele>
        <time>2022-03-12T12:06:32.839Z</time>
      </trkpt>
      <trkpt lat="47.511420" lon="8.031166">
        <ele>470.996769</ele>
        <time>2022-03-12T12:06:39.840Z</time>
      </trkpt>
      <trkpt lat="47.511380" lon="8.031291">
        <ele>471.647077</ele>
        <time>2022-03-12T12:06:46.847Z</time>
      </trkpt>
      <trkpt lat="47.511334" lon="8.031417">
        <ele>472.320463</ele>
        <time>2022-03-12T12:06:53.842Z</time>
      </trkpt>
      <trkpt lat="47.511275" lon="8.031518">
        <ele>472.948270</ele>
        <time>2022-03-12T12:06:59.840Z</time>
      </trkpt>
      <trkpt lat="47.511201" lon="8.031627">
        <ele>473.674863</ele>
        <time>2022-03-12T12:07:08.840Z</time>
      </trkpt>
      <trkpt lat="47.511142" lon="8.031747">
        <ele>474.372688</ele>
        <time>2022-03-12T12:07:17.886Z</time>
      </trkpt>
      <trkpt lat="47.511229" lon="8.031803">
        <ele>475.033021</ele>
        <time>2022-03-12T12:07:25.826Z</time>
      </trkpt>
      <trkpt lat="47.511333" lon="8.031806">
        <ele>475.757065</ele>
        <time>2022-03-12T12:07:32.853Z</time>
      </trkpt>
      <trkpt lat="47.511423" lon="8.031825">
        <ele>476.389859</ele>
        <time>2022-03-12T12:07:40.824Z</time>
      </trkpt>
      <trkpt lat="47.511527" lon="8.031840">
        <ele>477.117192</ele>
        <time>2022-03-12T12:07:49.840Z</time>
      </trkpt>
      <trkpt lat="47.511622" lon="8.031871">
        <ele>477.794323</ele>
        <time>2022-03-12T12:07:58.827Z</time>
      </trkpt>
      <trkpt lat="47.511718" lon="8.031924">
        <ele>478.507492</ele>
        <time>2022-03-12T12:08:06.849Z</time>
      </trkpt>
      <trkpt lat="47.511807" lon="8.031981">
        <ele>479.182467</ele>
        <time>2022-03-12T12:08:17.829Z</time>
      </trkpt>
      <trkpt lat="47.511900" lon="8.031963">
        <ele>479.835314</ele>
        <time>2022-03-12T12:08:26.841Z</time>
      </trkpt>
      <trkpt lat="47.511993" lon="8.031989">
        <ele>480.489760</ele>
        <time>2022-03-12T12:08:32.868Z</time>
      </trkpt>
      <trkpt lat="47.512093" lon="8.031976">
        <ele>481.167751</ele>
        <time>2022-03-12T12:08:39.834Z</time>
      </trkpt>
      <trkpt lat="47.512201" lon="8.031949">
        <ele>481.907500</ele>
        <time>2022-03-12T12:08:48.839Z</time>
      </trkpt>
      <trkpt lat="47.512297" lon="8.031901">
        <ele>482.591853</ele>
        <time>2022-03-12T12:08:56.853Z</time>
      </trkpt>
      <trkpt lat="47.512214" lon="8.031980">
        <ele>483.258277</ele>
        <time>2022-03-12T12:09:17.835Z</time>
      </trkpt>
      <trkpt lat="47.512154" lon="8.032091">
        <ele>483.906828</ele>
        <time>2022-03-12T12:09:21.838Z</time>
      </trkpt>
      <trkpt lat="47.512114" lon="8.032228">
        <ele>484.587690</ele>
        <time>2022-03-12T12:09:29.842Z</time>
      </trkpt>
      <trkpt lat="47.512049" lon="8.032343">
        <ele>485.271752</ele>
        <time>2022-03-12T12:09:39.838Z</time>
      </trkpt>
      <trkpt lat="47.512004" lon="8.032463">
        <ele>485.897884</ele>
        <time>2022-03-12T12:09:47.837Z</time>
      </trkpt>
      <trkpt lat="47.511950" lon="8.032579">
        <ele>486.540565</ele>
        <time>2022-03-12T12:09:55.863Z</time>
      </trkpt>
      <trkpt lat="47.511894" lon="8.032695">
        <ele>487.191007</ele>
        <time>2022-03-12T12:10:02.848Z</time>
      </trkpt>
      <trkpt lat="47.511830" lon="8.032789">
        <ele>487.799877</ele>
        <time>2022-03-12T12:10:09.828Z</time>
      </trkpt>
      <trkpt lat="47.511759" lon="8.032880">
        <ele>488.434132</ele>
        <time>2022-03-12T12:10:16.826Z</time>
      </trkpt>
      <trkpt lat="47.511682" lon="8.032975">
        <ele>489.111088</ele>
        <time>2022-03-12T12:10:24.866Z</time>
      </trkpt>
      <trkpt lat="47.511606" lon="8.033062">
        <ele>489.759926</ele>
        <time>2022-03-12T12:10:33.831Z</time>
      </trkpt>
      <trkpt lat="47.511517" lon="8.033123">
        <ele>490.422313</ele>
        <time>2022-03-12T12:10:43.841Z</time>
      </trkpt>
      <trkpt lat="47.511441" lon="8.033213">
        <ele>491.079612</ele>
        <time>2022-03-12T12:10:51.840Z</time>
      </trkpt>
      <trkpt lat="47.511364" lon="8.033304">
        <ele>491.745036</ele>
        <time>2022-03-12T12:10:59.839Z</time>
      </trkpt>
      <trkpt lat="47.511281" lon="8.033381">
        <ele>492.406574</ele>
        <time>2022-03-12T12:11:06.839Z</time>
      </trkpt>
      <trkpt lat="47.511195" lon="8.033430">
        <ele>492.963631</ele>
        <time>2022-03-12T12:11:13.844Z</time>
      </trkpt>
      <trkpt lat="47.511134" lon="8.033537">
        <ele>493.524094</ele>
        <time>2022-03-12T12:11:20.879Z</time>
      </trkpt>
      <trkpt lat="47.511058" lon="8.033635">
        <ele>494.121360</ele>
        <time>2022-03-12T12:11:28.871Z</time>
      </trkpt>
      <trkpt lat="47.510990" lon="8.033737">
        <ele>494.695023</ele>
        <time>2022-03-12T12:11:35.831Z</time>
      </trkpt>
      <trkpt lat="47.510952" lon="8.033864">
        <ele>495.251025</ele>
        <time>2022-03-12T12:11:43.825Z</time>
      </trkpt>
      <trkpt lat="47.510888" lon="8.033983">
        <ele>495.859911</ele>
        <time>2022-03-12T12:11:51.839Z</time>
      </trkpt>
      <trkpt lat="47.510826" lon="8.034102">
        <ele>496.461487</ele>
        <time>2022-03-12T12:11:58.838Z</time>
      </trkpt>
      <trkpt lat="47.510761" lon="8.034200">
        <ele>497.011268</ele>
        <time>2022-03-12T12:12:04.838Z</time>
      </trkpt>
      <trkpt lat="47.510695" lon="8.034311">
        <ele>497.603208</ele>
        <time>2022-03-12T12:12:13.838Z</time>
      </trkpt>
      <trkpt lat="47.510637" lon="8.034416">
        <ele>498.146154</ele>
        <time>2022-03-12T12:12:21.835Z</time>
      </trkpt>
      <trkpt lat="47.510573" lon="8.034516">
        <ele>498.697584</ele>
        <time>2022-03-12T12:12:32.868Z</time>
      </trkpt>
      <trkpt lat="47.510505" lon="8.034623">
        <ele>499.285662</ele>
        <time>2022-03-12T12:12:42.849Z</time>
      </trkpt>
      <trkpt lat="47.510458" lon="8.034744">
        <ele>499.844381</ele>
        <time>2022-03-12T12:12:47.838Z</time>
      </trkpt>
      <trkpt lat="47.510403" lon="8.034890">
        <ele>500.513543</ele>
        <time>2022-03-12T12:13:21.871Z</time>
      </trkpt>
      <trkpt lat="47.510395" lon="8.035035">
        <ele>501.095889</ele>
        <time>2022-03-12T12:13:30.844Z</time>
      </trkpt>
      <trkpt lat="47.510456" lon="8.035166">
        <ele>501.732793</ele>
        <time>2022-03-12T12:13:35.844Z</time>
      </trkpt>
      <trkpt lat="47.510500" lon="8.035306">
        <ele>502.350884</ele>
        <time>2022-03-12T12:13:45.839Z</time>
      </trkpt>
      <trkpt lat="47.510542" lon="8.035453">
        <ele>502.989778</ele>
        <time>2022-03-12T12:13:50.838Z</time>
      </trkpt>
      <trkpt lat="47.510459" lon="8.035523">
        <ele>503.049425</ele>
        <time>2022-03-12T12:14:00.829Z</time>
      </trkpt>
      <trkpt lat="47.510361" lon="8.035578">
        <ele>502.885652</ele>
        <time>2022-03-12T12:14:08.867Z</time>
      </trkpt>
      <trkpt lat="47.510294" lon="8.035675">
        <ele>502.739216</ele>
        <time>2022-03-12T12:14:12.837Z</time>
      </trkpt>
      <trkpt lat="47.510200" lon="8.035727">
        <ele>502.582409</ele>
        <time>2022-03-12T12:14:21.827Z</time>
      </trkpt>
      <trkpt lat="47.510130" lon="8.035841">
        <ele>502.419795</ele>
        <time>2022-03-12T12:14:26.835Z</time>
      </trkpt>
      <trkpt lat="47.510075" lon="8.035958">
        <ele>502.269339</ele>
        <time>2022-03-12T12:14:30.833Z</time>
      </trkpt>
      <trkpt lat="47.510048" lon="8.036114">
        <ele>502.099362</ele>
        <time>2022-03-12T12:14:42.840Z</time>
      </trkpt>
      <trkpt lat="47.509974" lon="8.036215">
        <ele>501.942085</ele>
        <time>2022-03-12T12:14:52.837Z</time>
      </trkpt>
      <trkpt lat="47.509908" lon="8.036322">
        <ele>501.789141</ele>
        <time>2022-03-12T12:14:58.827Z</time>
      </trkpt>
      <trkpt lat="47.509853" lon="8.036428">
        <ele>501.648059</ele>
        <time>2022-03-12T12:15:07.837Z</time>
      </trkpt>
      <trkpt lat="47.509804" lon="8.036556">
        <ele>501.492765</ele>
        <time>2022-03-12T12:15:13.839Z</time>
      </trkpt>
      <trkpt lat="47.509741" lon="8.036657">
        <ele>501.347657</ele>
        <time>2022-03-12T12:15:21.835Z</time>
      </trkpt>
      <trkpt lat="47.509661" lon="8.036729">
        <ele>501.201359</ele>
        <time>2022-03-12T12:15:29.839Z</time>
      </trkpt>
      <trkpt lat="47.509604" lon="8.036879">
        <ele>501.019699</ele>
        <time>2022-03-12T12:15:38.837Z</time>
      </trkpt>
      <trkpt lat="47.509529" lon="8.037001">
        <ele>500.845580</ele>
        <time>2022-03-12T12:15:42.840Z</time>
      </trkpt>
      <trkpt lat="47.509462" lon="8.037099">
        <ele>500.698402</ele>
        <time>2022-03-12T12:15:47.840Z</time>
      </trkpt>
      <trkpt lat="47.509396" lon="8.037190">
        <ele>500.557468</ele>
        <time>2022-03-12T12:15:53.845Z</time>
      </trkpt>
      <trkpt lat="47.509347" lon="8.037309">
        <ele>500.410364</ele>
        <time>2022-03-12T12:16:01.837Z</time>
      </trkpt>
      <trkpt lat="47.509303" lon="8.037430">
        <ele>500.199579</ele>
        <time>2022-03-12T12:16:11.876Z</time>
      </trkpt>
      <trkpt lat="47.509208" lon="8.037480">
        <ele>499.911197</ele>
        <time>2022-03-12T12:16:16.944Z</time>
      </trkpt>
      <trkpt lat="47.509148" lon="8.037597">
        <ele>499.627388</ele>
        <time>2022-03-12T12:16:29.847Z</time>
      </trkpt>
      <trkpt lat="47.509057" lon="8.037630">
        <ele>499.359413</ele>
        <time>2022-03-12T12:16:36.852Z</time>
      </trkpt>
      <trkpt lat="47.508977" lon="8.037717">
        <ele>499.075493</ele>
        <time>2022-03-12T12:16:58.832Z</time>
      </trkpt>
      <trkpt lat="47.508881" lon="8.037764">
        <ele>498.786286</ele>
        <time>2022-03-12T12:17:05.825Z</time>
      </trkpt>
      <trkpt lat="47.508785" lon="8.037792">
        <ele>498.506426</ele>
        <time>2022-03-12T12:17:13.875Z</time>
      </trkpt>
      <trkpt lat="47.508694" lon="8.037823">
        <ele>498.239344</ele>
        <time>2022-03-12T12:17:21.834Z</time>
      </trkpt>
      <trkpt lat="47.508617" lon="8.037921">
        <ele>497.948907</ele>
        <time>2022-03-12T12:17:28.834Z</time>
      </trkpt>
      <trkpt lat="47.508554" lon="8.038020">
        <ele>497.686125</ele>
        <time>2022-03-12T12:17:35.840Z</time>
      </trkpt>
      <trkpt lat="47.508501" lon="8.038133">
        <ele>497.420336</ele>
        <time>2022-03-12T12:17:42.839Z</time>
      </trkpt>
      <trkpt lat="47.508446" lon="8.038239">
        <ele>497.162096</ele>
        <time>2022-03-12T12:17:50.828Z</time>
      </trkpt>
      <trkpt lat="47.508384" lon="8.038348">
        <ele>496.886785</ele>
        <time>2022-03-12T12:17:59.824Z</time>
      </trkpt>
      <trkpt lat="47.508330" lon="8.038462">
        <ele>496.617775</ele>
        <time>2022-03-12T12:18:03.828Z</time>
      </trkpt>
      <trkpt lat="47.508287" lon="8.038582">
        <ele>496.355328</ele>
        <time>2022-03-12T12:18:09.864Z</time>
      </trkpt>
      <trkpt lat="47.508232" lon="8.038705">
        <ele>496.070336</ele>
        <time>2022-03-12T12:18:20.874Z</time>
      </trkpt>
      <trkpt lat="47.508173" lon="8.038809">
        <ele>495.807941</ele>
        <time>2022-03-12T12:18:28.838Z</time>
      </trkpt>
      <trkpt lat="47.508138" lon="8.038942">
        <ele>495.532167</ele>
        <time>2022-03-12T12:18:34.837Z</time>
      </trkpt>
      <trkpt lat="47.508072" lon="8.039048">
        <ele>495.253640</ele>
        <time>2022-03-12T12:18:40.842Z</time>
      </trkpt>
      <trkpt lat="47.508000" lon="8.039157">
        <ele>495.507432</ele>
        <time>2022-03-12T12:18:48.841Z</time>
      </trkpt>
      <trkpt lat="47.507923" lon="8.039227">
        <ele>495.837366</ele>
        <time>2022-03-12T12:18:53.837Z</time>
      </trkpt>
      <trkpt lat="47.507829" lon="8.039280">
        <ele>496.204645</ele>
        <time>2022-03-12T12:18:59.840Z</time>
      </trkpt>
      <trkpt lat="47.507782" lon="8.039400">
        <ele>496.546774</ele>
        <time>2022-03-12T12:19:10.843Z</time>
      </trkpt>
      <trkpt lat="47.507732" lon="8.039523">
        <ele>496.900847</ele>
        <time>2022-03-12T12:19:18.850Z</time>
      </trkpt>
      <trkpt lat="47.507729" lon="8.039658">
        <ele>497.234000</ele>
        <time>2022-03-12T12:19:22.846Z</time>
      </trkpt>
      <trkpt lat="47.507779" lon="8.039799">
        <ele>497.626779</ele>
        <time>2022-03-12T12:19:27.838Z</time>
      </trkpt>
      <trkpt lat="47.507843" lon="8.039915">
        <ele>497.996195</ele>
        <time>2022-03-12T12:19:37.841Z</time>
      </trkpt>
      <trkpt lat="47.507925" lon="8.040019">
        <ele>498.390461</ele>
        <time>2022-03-12T12:19:44.836Z</time>
      </trkpt>
      <trkpt lat="47.508009" lon="8.040096">
        <ele>498.751213</ele>
        <time>2022-03-12T12:19:49.844Z</time>
      </trkpt>
      <trkpt lat="47.508052" lon="8.040219">
        <ele>499.092808</ele>
        <time>2022-03-12T12:20:00.838Z</time>
      </trkpt>
      <trkpt lat="47.508128" lon="8.040313">
        <ele>499.454417</ele>
        <time>2022-03-12T12:20:05.836Z</time>
      </trkpt>
      <trkpt lat="47.508147" lon="8.040448">
        <ele>499.794537</ele>
        <time>2022-03-12T12:20:14.834Z</time>
      </trkpt>
      <trkpt lat="47.508181" lon="8.040572">
        <ele>500.124612</ele>
        <time>2022-03-12T12:20:19.835Z</time>
      </trkpt>
      <trkpt lat="47.508263" lon="8.040665">
        <ele>500.501789</ele>
        <time>2022-03-12T12:20:29.836Z</time>
      </trkpt>
      <trkpt lat="47.508355" lon="8.040677">
        <ele>500.839016</ele>
        <time>2022-03-12T12:20:36.836Z</time>
      </trkpt>
      <trkpt lat="47.508446" lon="8.040705">
        <ele>501.178391</ele>
        <time>2022-03-12T12:20:44.840Z</time>
      </trkpt>
      <trkpt lat="47.508537" lon="8.040785">
        <ele>501.564834</ele>
        <time>2022-03-12T12:20:53.840Z</time>
      </trkpt>
      <trkpt lat="47.508613" lon="8.040868">
        <ele>502.165270</ele>
        <time>2022-03-12T12:21:03.835Z</time>
      </trkpt>
      <trkpt lat="47.508695" lon="8.040930">
        <ele>503.105661</ele>
        <time>2022-03-12T12:21:12.839Z</time>
      </trkpt>
      <trkpt lat="47.508754" lon="8.041033">
        <ele>504.037341</ele>
        <time>2022-03-12T12:21:20.864Z</time>
      </trkpt>
      <trkpt lat="47.508838" lon="8.041110">
        <ele>505.046399</ele>
        <time>2022-03-12T12:21:29.830Z</time>
      </trkpt>
      <trkpt lat="47.508894" lon="8.041218">
        <ele>505.985681</ele>
        <time>2022-03-12T12:21:37.838Z</time>
      </trkpt>
      <trkpt lat="47.508961" lon="8.041324">
        <ele>506.987185</ele>
        <time>2022-03-12T12:21:45.833Z</time>
      </trkpt>
      <trkpt lat="47.509015" lon="8.041432">
        <ele>507.914168</ele>
        <time>2022-03-12T12:21:56.834Z</time>
      </trkpt>
      <trkpt lat="47.509073" lon="8.041540">
        <ele>508.866023</ele>
        <time>2022-03-12T12:22:07.836Z</time>
      </trkpt>
      <trkpt lat="47.509114" lon="8.041661">
        <ele>509.799917</ele>
        <time>2022-03-12T12:22:17.830Z</time>
      </trkpt>
      <trkpt lat="47.509124" lon="8.041805">
        <ele>510.798577</ele>
        <time>2022-03-12T12:22:27.840Z</time>
      </trkpt>
      <trkpt lat="47.509121" lon="8.041945">
        <ele>511.764891</ele>
        <time>2022-03-12T12:22:36.836Z</time>
      </trkpt>
      <trkpt lat="47.509157" lon="8.042077">
        <ele>512.746955</ele>
        <time>2022-03-12T12:22:44.840Z</time>
      </trkpt>
      <trkpt lat="47.509212" lon="8.042204">
        <ele>513.787708</ele>
        <time>2022-03-12T12:22:53.833Z</time>
      </trkpt>
      <trkpt lat="47.509251" lon="8.042329">
        <ele>514.737600</ele>
        <time>2022-03-12T12:23:00.836Z</time>
      </trkpt>
      <trkpt lat="47.509284" lon="8.042454">
        <ele>515.663468</ele>
        <time>2022-03-12T12:23:06.824Z</time>
      </trkpt>
      <trkpt lat="47.509314" lon="8.042599">
        <ele>516.709660</ele>
        <time>2022-03-12T12:23:16.828Z</time>
      </trkpt>
      <trkpt lat="47.509277" lon="8.042724">
        <ele>517.651169</ele>
        <time>2022-03-12T12:23:25.826Z</time>
      </trkpt>
      <trkpt lat="47.509283" lon="8.042861">
        <ele>518.598283</ele>
        <time>2022-03-12T12:23:33.867Z</time>
      </trkpt>
      <trkpt lat="47.509249" lon="8.042986">
        <ele>519.527918</ele>
        <time>2022-03-12T12:23:41.844Z</time>
      </trkpt>
      <trkpt lat="47.509242" lon="8.043121">
        <ele>520.291786</ele>
        <time>2022-03-12T12:23:49.825Z</time>
      </trkpt>
      <trkpt lat="47.509195" lon="8.043235">
        <ele>520.729948</ele>
        <time>2022-03-12T12:23:57.845Z</time>
      </trkpt>
      <trkpt lat="47.509133" lon="8.043337">
        <ele>521.180124</ele>
        <time>2022-03-12T12:24:04.826Z</time>
      </trkpt>
      <trkpt lat="47.509052" lon="8.043409">
        <ele>521.639000</ele>
        <time>2022-03-12T12:24:13.840Z</time>
      </trkpt>
      <trkpt lat="47.508972" lon="8.043489">
        <ele>522.107890</ele>
        <time>2022-03-12T12:24:23.834Z</time>
      </trkpt>
      <trkpt lat="47.508882" lon="8.043468">
        <ele>522.550409</ele>
        <time>2022-03-12T12:24:32.879Z</time>
      </trkpt>
      <trkpt lat="47.508777" lon="8.043501">
        <ele>523.071751</ele>
        <time>2022-03-12T12:24:41.826Z</time>
      </trkpt>
      <trkpt lat="47.508693" lon="8.043576">
        <ele>523.548188</ele>
        <time>2022-03-12T12:24:51.845Z</time>
      </trkpt>
      <trkpt lat="47.508604" lon="8.043606">
        <ele>523.991517</ele>
        <time>2022-03-12T12:24:57.823Z</time>
      </trkpt>
      <trkpt lat="47.508529" lon="8.043694">
        <ele>524.456322</ele>
        <time>2022-03-12T12:25:04.832Z</time>
      </trkpt>
      <trkpt lat="47.508443" lon="8.043739">
        <ele>524.899340</ele>
        <time>2022-03-12T12:25:11.829Z</time>
      </trkpt>
      <trkpt lat="47.508359" lon="8.043805">
        <ele>525.361221</ele>
        <time>2022-03-12T12:25:18.831Z</time>
      </trkpt>
      <trkpt lat="47.508293" lon="8.043898">
        <ele>525.803770</ele>
        <time>2022-03-12T12:25:25.834Z</time>
      </trkpt>
      <trkpt lat="47.508240" lon="8.044007">
        <ele>526.244387</ele>
        <time>2022-03-12T12:25:34.834Z</time>
      </trkpt>
      <trkpt lat="47.508161" lon="8.044071">
        <ele>526.681778</ele>
        <time>2022-03-12T12:25:38.832Z</time>
      </trkpt>
      <trkpt lat="47.508076" lon="8.044153">
        <ele>527.174535</ele>
        <time>2022-03-12T12:25:43.839Z</time>
      </trkpt>
      <trkpt lat="47.507976" lon="8.044161">
        <ele>527.660935</ele>
        <time>2022-03-12T12:25:50.835Z</time>
      </trkpt>
      <trkpt lat="47.507882" lon="8.044201">
        <ele>528.135972</ele>
        <time>2022-03-12T12:25:54.869Z</time>
      </trkpt>
      <trkpt lat="47.507790" lon="8.044268">
        <ele>528.633949</ele>
        <time>2022-03-12T12:26:01.868Z</time>
      </trkpt>
      <trkpt lat="47.507683" lon="8.044291">
        <ele>529.039380</ele>
        <time>2022-03-12T12:26:11.833Z</time>
      </trkpt>
      <trkpt lat="47.507595" lon="8.044366">
        <ele>529.325966</ele>
        <time>2022-03-12T12:26:18.830Z</time>
      </trkpt>
      <trkpt lat="47.507520" lon="8.044457">
        <ele>529.599656</ele>
        <time>2022-03-12T12:26:33.868Z</time>
      </trkpt>
      <trkpt lat="47.507451" lon="8.044552">
        <ele>529.865603</ele>
        <time>2022-03-12T12:26:39.838Z</time>
      </trkpt>
      <trkpt lat="47.507353" lon="8.044632">
        <ele>530.181459</ele>
        <time>2022-03-12T12:26:45.828Z</time>
      </trkpt>
      <trkpt lat="47.507278" lon="8.044722">
        <ele>530.453945</ele>
        <time>2022-03-12T12:26:51.831Z</time>
      </trkpt>
      <trkpt lat="47.507201" lon="8.044833">
        <ele>530.757281</ele>
        <time>2022-03-12T12:26:58.838Z</time>
      </trkpt>
      <trkpt lat="47.507142" lon="8.044949">
        <ele>531.034116</ele>
        <time>2022-03-12T12:27:06.845Z</time>
      </trkpt>
      <trkpt lat="47.507075" lon="8.045065">
        <ele>531.325093</ele>
        <time>2022-03-12T12:27:20.829Z</time>
      </trkpt>
      <trkpt lat="47.507007" lon="8.045175">
        <ele>531.609371</ele>
        <time>2022-03-12T12:27:26.847Z</time>
      </trkpt>
      <trkpt lat="47.506927" lon="8.045263">
        <ele>531.890669</ele>
        <time>2022-03-12T12:27:32.837Z</time>
      </trkpt>
      <trkpt lat="47.506891" lon="8.045399">
        <ele>532.169152</ele>
        <time>2022-03-12T12:27:39.836Z</time>
      </trkpt>
      <trkpt lat="47.506876" lon="8.045562">
        <ele>532.482783</ele>
        <time>2022-03-12T12:27:47.832Z</time>
      </trkpt>
      <trkpt lat="47.506886" lon="8.045720">
        <ele>532.785331</ele>
        <time>2022-03-12T12:27:51.844Z</time>
      </trkpt>
      <trkpt lat="47.506812" lon="8.045813">
        <ele>533.059298</ele>
        <time>2022-03-12T12:27:57.842Z</time>
      </trkpt>
      <trkpt lat="47.506769" lon="8.045949">
        <ele>533.345581</ele>
        <time>2022-03-12T12:28:03.366Z</time>
      </trkpt>
      <trkpt lat="47.506745" lon="8.046079">
        <ele>533.602517</ele>
        <time>2022-03-12T12:28:11.369Z</time>
      </trkpt>
      <trkpt lat="47.506721" lon="8.046223">
        <ele>533.885289</ele>
        <time>2022-03-12T12:28:17.375Z</time>
      </trkpt>
      <trkpt lat="47.506698" lon="8.046363">
        <ele>534.094539</ele>
        <time>2022-03-12T12:28:28.365Z</time>
      </trkpt>
      <trkpt lat="47.506760" lon="8.046491">
        <ele>534.301355</ele>
        <time>2022-03-12T12:28:35.366Z</time>
      </trkpt>
      <trkpt lat="47.506765" lon="8.046630">
        <ele>534.484129</ele>
        <time>2022-03-12T12:28:41.376Z</time>
      </trkpt>
      <trkpt lat="47.506765" lon="8.046775">
        <ele>534.674523</ele>
        <time>2022-03-12T12:28:47.363Z</time>
      </trkpt>
      <trkpt lat="47.506758" lon="8.046913">
        <ele>534.856236</ele>
        <time>2022-03-12T12:28:56.400Z</time>
      </trkpt>
      <trkpt lat="47.506792" lon="8.047055">
        <ele>535.054058</ele>
        <time>2022-03-12T12:29:01.365Z</time>
      </trkpt>
      <trkpt lat="47.506801" lon="8.047193">
        <ele>535.236103</ele>
        <time>2022-03-12T12:29:06.358Z</time>
      </trkpt>
      <trkpt lat="47.506768" lon="8.047330">
        <ele>535.427087</ele>
        <time>2022-03-12T12:29:14.376Z</time>
      </trkpt>
      <trkpt lat="47.506780" lon="8.047472">
        <ele>535.614996</ele>
        <time>2022-03-12T12:29:21.369Z</time>
      </trkpt>
      <trkpt lat="47.506840" lon="8.047596">
        <ele>535.815278</ele>
        <time>2022-03-12T12:29:26.372Z</time>
      </trkpt>
      <trkpt lat="47.506862" lon="8.047735">
        <ele>536.002736</ele>
        <time>2022-03-12T12:29:33.399Z</time>
      </trkpt>
      <trkpt lat="47.506874" lon="8.047869">
        <ele>536.180226</ele>
        <time>2022-03-12T12:29:46.370Z</time>
      </trkpt>
      <trkpt lat="47.506932" lon="8.047989">
        <ele>536.373973</ele>
        <time>2022-03-12T12:29:52.361Z</time>
      </trkpt>
      <trkpt lat="47.506972" lon="8.048113">
        <ele>536.554405</ele>
        <time>2022-03-12T12:29:56.363Z</time>
      </trkpt>
      <trkpt lat="47.506973" lon="8.048250">
        <ele>536.734305</ele>
        <time>2022-03-12T12:30:01.357Z</time>
      </trkpt>
      <trkpt lat="47.506977" lon="8.048392">
        <ele>536.920921</ele>
        <time>2022-03-12T12:30:09.396Z</time>
      </trkpt>
      <trkpt lat="47.507051" lon="8.048471">
        <ele>537.098266</ele>
        <time>2022-03-12T12:30:18.365Z</time>
      </trkpt>
      <trkpt lat="47.507138" lon="8.048519">
        <ele>537.278742</ele>
        <time>2022-03-12T12:30:23.357Z</time>
      </trkpt>
      <trkpt lat="47.507232" lon="8.048554">
        <ele>537.423849</ele>
        <time>2022-03-12T12:30:30.362Z</time>
      </trkpt>
      <trkpt lat="47.507307" lon="8.048632">
        <ele>537.237292</ele>
        <time>2022-03-12T12:30:37.368Z</time>
      </trkpt>
      <trkpt lat="47.507402" lon="8.048655">
        <ele>537.041364</ele>
        <time>2022-03-12T12:30:42.364Z</time>
      </trkpt>
      <trkpt lat="47.507481" lon="8.048747">
        <ele>536.836782</ele>
        <time>2022-03-12T12:30:52.368Z</time>
      </trkpt>
      <trkpt lat="47.507585" lon="8.048726">
        <ele>536.623144</ele>
        <time>2022-03-12T12:30:56.365Z</time>
      </trkpt>
      <trkpt lat="47.507666" lon="8.048805">
        <ele>536.425717</ele>
        <time>2022-03-12T12:31:02.403Z</time>
      </trkpt>
      <trkpt lat="47.507760" lon="8.048825">
        <ele>536.232427</ele>
        <time>2022-03-12T12:31:07.368Z</time>
      </trkpt>
      <trkpt lat="47.507858" lon="8.048832">
        <ele>536.032730</ele>
        <time>2022-03-12T12:31:13.354Z</time>
      </trkpt>
      <trkpt lat="47.507928" lon="8.048927">
        <ele>535.839445</ele>
        <time>2022-03-12T12:31:22.362Z</time>
      </trkpt>
      <trkpt lat="47.507996" lon="8.049021">
        <ele>535.650083</ele>
        <time>2022-03-12T12:31:31.364Z</time>
      </trkpt>
      <trkpt lat="47.508094" lon="8.049024">
        <ele>535.450575</ele>
        <time>2022-03-12T12:31:35.363Z</time>
      </trkpt>
      <trkpt lat="47.508168" lon="8.049112">
        <ele>535.257382</ele>
        <time>2022-03-12T12:31:43.370Z</time>
      </trkpt>
      <trkpt lat="47.508268" lon="8.049087">
        <ele>535.050964</ele>
        <time>2022-03-12T12:31:50.371Z</time>
      </trkpt>
      <trkpt lat="47.508362" lon="8.049090">
        <ele>534.859596</ele>
        <time>2022-03-12T12:31:54.365Z</time>
      </trkpt>
      <trkpt lat="47.508422" lon="8.049191">
        <ele>534.674675</ele>
        <time>2022-03-12T12:32:02.376Z</time>
      </trkpt>
      <trkpt lat="47.508493" lon="8.049354">
        <ele>534.408021</ele>
        <time>2022-03-12T12:32:10.358Z</time>
      </trkpt>
      <trkpt lat="47.508534" lon="8.049475">
        <ele>534.221907</ele>
        <time>2022-03-12T12:32:19.396Z</time>
      </trkpt>
      <trkpt lat="47.508519" lon="8.049612">
        <ele>534.031094</ele>
        <time>2022-03-12T12:32:30.365Z</time>
      </trkpt>
      <trkpt lat="47.508508" lon="8.049744">
        <ele>533.848238</ele>
        <time>2022-03-12T12:32:37.368Z</time>
      </trkpt>
      <trkpt lat="47.508471" lon="8.049887">
        <ele>533.320625</ele>
        <time>2022-03-12T12:32:51.363Z</time>
      </trkpt>
      <trkpt lat="47.508432" lon="8.050017">
        <ele>532.704377</ele>
        <time>2022-03-12T12:32:56.362Z</time>
      </trkpt>
      <trkpt lat="47.508367" lon="8.050130">
        <ele>532.061371</ele>
        <time>2022-03-12T12:33:01.377Z</time>
      </trkpt>
      <trkpt lat="47.508306" lon="8.050238">
        <ele>531.451465</ele>
        <time>2022-03-12T12:33:10.368Z</time>
      </trkpt>
      <trkpt lat="47.508231" lon="8.050352">
        <ele>530.762039</ele>
        <time>2022-03-12T12:33:18.369Z</time>
      </trkpt>
      <trkpt lat="47.508159" lon="8.050463">
        <ele>530.095332</ele>
        <time>2022-03-12T12:33:23.370Z</time>
      </trkpt>
      <trkpt lat="47.508129" lon="8.050591">
        <ele>529.508360</ele>
        <time>2022-03-12T12:33:29.354Z</time>
      </trkpt>
      <trkpt lat="47.508054" lon="8.050671">
        <ele>528.915479</ele>
        <time>2022-03-12T12:33:34.375Z</time>
      </trkpt>
      <trkpt lat="47.507975" lon="8.050744">
        <ele>528.318197</ele>
        <time>2022-03-12T12:33:42.362Z</time>
      </trkpt>
      <trkpt lat="47.507939" lon="8.050882">
        <ele>527.677297</ele>
        <time>2022-03-12T12:33:48.367Z</time>
      </trkpt>
      <trkpt lat="47.507872" lon="8.050988">
        <ele>527.048371</ele>
        <time>2022-03-12T12:33:58.358Z</time>
      </trkpt>
      <trkpt lat="47.507822" lon="8.051108">
        <ele>526.437539</ele>
        <time>2022-03-12T12:34:05.363Z</time>
      </trkpt>
      <trkpt lat="47.507781" lon="8.051239">
        <ele>525.812039</ele>
        <time>2022-03-12T12:34:10.373Z</time>
      </trkpt>
      <trkpt lat="47.507702" lon="8.051306">
        <ele>525.228104</ele>
        <time>2022-03-12T12:34:20.356Z</time>
      </trkpt>
      <trkpt lat="47.507640" lon="8.051411">
        <ele>524.623904</ele>
        <time>2022-03-12T12:34:25.371Z</time>
      </trkpt>
      <trkpt lat="47.507634" lon="8.051559">
        <ele>523.981558</ele>
        <time>2022-03-12T12:34:30.367Z</time>
      </trkpt>
      <trkpt lat="47.507613" lon="8.051689">
        <ele>523.402468</ele>
        <time>2022-03-12T12:34:37.365Z</time>
      </trkpt>
      <trkpt lat="47.507572" lon="8.051814">
        <ele>522.800453</ele>
        <time>2022-03-12T12:34:43.365Z</time>
      </trkpt>
      <trkpt lat="47.507511" lon="8.051914">
        <ele>522.256421</ele>
        <time>2022-03-12T12:34:53.366Z</time>
      </trkpt>
      <trkpt lat="47.507440" lon="8.052017">
        <ele>522.397868</ele>
        <time>2022-03-12T12:35:00.368Z</time>
      </trkpt>
      <trkpt lat="47.507385" lon="8.052145">
        <ele>522.543678</ele>
        <time>2022-03-12T12:35:05.356Z</time>
      </trkpt>
      <trkpt lat="47.507332" lon="8.052258">
        <ele>522.675904</ele>
        <time>2022-03-12T12:35:16.365Z</time>
      </trkpt>
      <trkpt lat="47.507291" lon="8.052406">
        <ele>522.829654</ele>
        <time>2022-03-12T12:35:21.371Z</time>
      </trkpt>
      <trkpt lat="47.507233" lon="8.052515">
        <ele>522.963022</ele>
        <time>2022-03-12T12:35:31.367Z</time>
      </trkpt>
      <trkpt lat="47.507178" lon="8.052665">
        <ele>523.127067</ele>
        <time>2022-03-12T12:35:38.375Z</time>
      </trkpt>
      <trkpt lat="47.507146" lon="8.052792">
        <ele>523.257351</ele>
        <time>2022-03-12T12:35:44.361Z</time>
      </trkpt>
      <trkpt lat="47.507071" lon="8.052871">
        <ele>523.388326</ele>
        <time>2022-03-12T12:35:54.377Z</time>
      </trkpt>
      <trkpt lat="47.507007" lon="8.052983">
        <ele>523.529328</ele>
        <time>2022-03-12T12:35:58.392Z</time>
      </trkpt>
      <trkpt lat="47.506982" lon="8.053118">
        <ele>523.663873</ele>
        <time>2022-03-12T12:36:05.377Z</time>
      </trkpt>
      <trkpt lat="47.506955" lon="8.053260">
        <ele>523.805663</ele>
        <time>2022-03-12T12:36:12.376Z</time>
      </trkpt>
      <trkpt lat="47.506885" lon="8.053353">
        <ele>523.939496</ele>
        <time>2022-03-12T12:36:26.357Z</time>
      </trkpt>
      <trkpt lat="47.506829" lon="8.053459">
        <ele>524.068839</ele>
        <time>2022-03-12T12:36:31.372Z</time>
      </trkpt>
      <trkpt lat="47.506770" lon="8.053563">
        <ele>524.199377</ele>
        <time>2022-03-12T12:36:40.392Z</time>
      </trkpt>
      <trkpt lat="47.506759" lon="8.053721">
        <ele>524.352047</ele>
        <time>2022-03-12T12:36:45.364Z</time>
      </trkpt>
      <trkpt lat="47.506822" lon="8.053825">
        <ele>524.486316</ele>
        <time>2022-03-12T12:36:55.368Z</time>
      </trkpt>
      <trkpt lat="47.506853" lon="8.053955">
        <ele>524.618825</ele>
        <time>2022-03-12T12:37:03.385Z</time>
      </trkpt>
      <trkpt lat="47.506870" lon="8.054095">
        <ele>524.755546</ele>
        <time>2022-03-12T12:37:10.375Z</time>
      </trkpt>
      <trkpt lat="47.506808" lon="8.054200">
        <ele>525.197639</ele>
        <time>2022-03-12T12:37:17.367Z</time>
      </trkpt>
      <trkpt lat="47.506805" lon="8.054342">
        <ele>525.852918</ele>
        <time>2022-03-12T12:37:25.381Z</time>
      </trkpt>
      <trkpt lat="47.506789" lon="8.054487">
        <ele>526.530579</ele>
        <time>2022-03-12T12:37:34.364Z</time>
      </trkpt>
      <trkpt lat="47.506748" lon="8.054614">
        <ele>527.179811</ele>
        <time>2022-03-12T12:37:45.361Z</time>
      </trkpt>
      <trkpt lat="47.506705" lon="8.054737">
        <ele>527.818609</ele>
        <time>2022-03-12T12:37:53.375Z</time>
      </trkpt>
      <trkpt lat="47.506667" lon="8.054873">
        <ele>528.497439</ele>
        <time>2022-03-12T12:38:00.398Z</time>
      </trkpt>
      <trkpt lat="47.506608" lon="8.054976">
        <ele>529.120329</ele>
        <time>2022-03-12T12:38:06.356Z</time>
      </trkpt>
      <trkpt lat="47.506623" lon="8.055122">
        <ele>529.801484</ele>
        <time>2022-03-12T12:38:11.370Z</time>
      </trkpt>
      <trkpt lat="47.506630" lon="8.055263">
        <ele>530.453587</ele>
        <time>2022-03-12T12:38:17.356Z</time>
      </trkpt>
      <trkpt lat="47.506670" lon="8.055390">
        <ele>531.099906</ele>
        <time>2022-03-12T12:38:23.364Z</time>
      </trkpt>
      <trkpt lat="47.506680" lon="8.055532">
        <ele>531.758416</ele>
        <time>2022-03-12T12:38:31.391Z</time>
      </trkpt>
      <trkpt lat="47.506692" lon="8.055672">
        <ele>532.409329</ele>
        <time>2022-03-12T12:38:38.365Z</time>
      </trkpt>
      <trkpt lat="47.506685" lon="8.055826">
        <ele>533.121244</ele>
        <time>2022-03-12T12:38:46.375Z</time>
      </trkpt>
      <trkpt lat="47.506676" lon="8.055966">
        <ele>533.769897</ele>
        <time>2022-03-12T12:38:54.367Z</time>
      </trkpt>
      <trkpt lat="47.506709" lon="8.056099">
        <ele>534.423419</ele>
        <time>2022-03-12T12:39:01.374Z</time>
      </trkpt>
      <trkpt lat="47.506727" lon="8.056239">
        <ele>535.080747</ele>
        <time>2022-03-12T12:39:10.354Z</time>
      </trkpt>
      <trkpt lat="47.506671" lon="8.056362">
        <ele>535.764900</ele>
        <time>2022-03-12T12:39:17.365Z</time>
      </trkpt>
      <trkpt lat="47.506668" lon="8.056496">
        <ele>536.383301</ele>
        <time>2022-03-12T12:39:25.362Z</time>
      </trkpt>
      <trkpt lat="47.506631" lon="8.056623">
        <ele>537.021234</ele>
        <time>2022-03-12T12:39:33.369Z</time>
      </trkpt>
      <trkpt lat="47.506640" lon="8.056769">
        <ele>538.026307</ele>
        <time>2022-03-12T12:39:42.372Z</time>
      </trkpt>
      <trkpt lat="47.506638" lon="8.056909">
        <ele>539.021734</ele>
        <time>2022-03-12T12:39:51.362Z</time>
      </trkpt>
      <trkpt lat="47.506660" lon="8.057055">
        <ele>540.085098</ele>
        <time>2022-03-12T12:39:59.367Z</time>
      </trkpt>
      <trkpt lat="47.506665" lon="8.057194">
        <ele>541.074594</ele>
        <time>2022-03-12T12:40:05.362Z</time>
      </trkpt>
      <trkpt lat="47.506669" lon="8.057336">
        <ele>542.084892</ele>
        <time>2022-03-12T12:40:11.363Z</time>
      </trkpt>
      <trkpt lat="47.506642" lon="8.057473">
        <ele>543.099372</ele>
        <time>2022-03-12T12:40:18.374Z</time>
      </trkpt>
      <trkpt lat="47.506630" lon="8.057616">
        <ele>544.123716</ele>
        <time>2022-03-12T12:40:27.367Z</time>
      </trkpt>
      <trkpt lat="47.506632" lon="8.057756">
        <ele>545.119143</ele>
        <time>2022-03-12T12:40:36.353Z</time>
      </trkpt>
      <trkpt lat="47.506629" lon="8.057906">
        <ele>546.185901</ele>
        <time>2022-03-12T12:40:44.376Z</time>
      </trkpt>
      <trkpt lat="47.506654" lon="8.058041">
        <ele>547.180970</ele>
        <time>2022-03-12T12:40:50.375Z</time>
      </trkpt>
      <trkpt lat="47.506670" lon="8.058181">
        <ele>548.190317</ele>
        <time>2022-03-12T12:40:58.364Z</time>
      </trkpt>
      <trkpt lat="47.506663" lon="8.058323">
        <ele>549.202423</ele>
        <time>2022-03-12T12:41:06.365Z</time>
      </trkpt>
      <trkpt lat="47.506675" lon="8.058462">
        <ele>550.198555</ele>
        <time>2022-03-12T12:41:16.356Z</time>
      </trkpt>
      <trkpt lat="47.506673" lon="8.058606">
        <ele>551.222409</ele>
        <time>2022-03-12T12:41:25.362Z</time>
      </trkpt>
      <trkpt lat="47.506677" lon="8.058747">
        <ele>552.225605</ele>
        <time>2022-03-12T12:41:33.360Z</time>
      </trkpt>
      <trkpt lat="47.506640" lon="8.058875">
        <ele>553.215314</ele>
        <time>2022-03-12T12:41:39.382Z</time>
      </trkpt>
      <trkpt lat="47.506643" lon="8.059013">
        <ele>554.196809</ele>
        <time>2022-03-12T12:41:49.376Z</time>
      </trkpt>
      <trkpt lat="47.506617" lon="8.059144">
        <ele>555.167400</ele>
        <time>2022-03-12T12:41:54.367Z</time>
      </trkpt>
      <trkpt lat="47.506611" lon="8.059293">
        <ele>556.146155</ele>
        <time>2022-03-12T12:42:01.398Z</time>
      </trkpt>
      <trkpt lat="47.506556" lon="8.059422">
        <ele>556.807249</ele>
        <time>2022-03-12T12:42:08.360Z</time>
      </trkpt>
      <trkpt lat="47.506537" lon="8.059559">
        <ele>557.413354</ele>
        <time>2022-03-12T12:42:17.373Z</time>
      </trkpt>
      <trkpt lat="47.506530" lon="8.059696">
        <ele>558.008772</ele>
        <time>2022-03-12T12:42:26.377Z</time>
      </trkpt>
      <trkpt lat="47.506520" lon="8.059840">
        <ele>558.636119</ele>
        <time>2022-03-12T12:42:34.364Z</time>
      </trkpt>
      <trkpt lat="47.506477" lon="8.059961">
        <ele>559.228639</ele>
        <time>2022-03-12T12:42:41.364Z</time>
      </trkpt>
      <trkpt lat="47.506454" lon="8.060100">
        <ele>559.848839</ele>
        <time>2022-03-12T12:42:47.396Z</time>
      </trkpt>
      <trkpt lat="47.506410" lon="8.060221">
        <ele>560.444373</ele>
        <time>2022-03-12T12:42:54.379Z</time>
      </trkpt>
      <trkpt lat="47.506363" lon="8.060346">
        <ele>561.064357</ele>
        <time>2022-03-12T12:43:03.356Z</time>
      </trkpt>
      <trkpt lat="47.506338" lon="8.060484">
        <ele>561.683548</ele>
        <time>2022-03-12T12:43:11.396Z</time>
      </trkpt>
      <trkpt lat="47.506397" lon="8.060622">
        <ele>562.391325</ele>
        <time>2022-03-12T12:43:17.353Z</time>
      </trkpt>
      <trkpt lat="47.506411" lon="8.060770">
        <ele>563.038977</ele>
        <time>2022-03-12T12:43:25.376Z</time>
      </trkpt>
      <trkpt lat="47.506407" lon="8.060909">
        <ele>563.641915</ele>
        <time>2022-03-12T12:43:36.403Z</time>
      </trkpt>
      <trkpt lat="47.506391" lon="8.061056">
        <ele>564.287192</ele>
        <time>2022-03-12T12:43:45.405Z</time>
      </trkpt>
      <trkpt lat="47.506367" lon="8.061207">
        <ele>564.959459</ele>
        <time>2022-03-12T12:43:53.369Z</time>
      </trkpt>
      <trkpt lat="47.506312" lon="8.061327">
        <ele>565.587916</ele>
        <time>2022-03-12T12:44:00.373Z</time>
      </trkpt>
      <trkpt lat="47.506293" lon="8.061460">
        <ele>566.177054</ele>
        <time>2022-03-12T12:44:07.364Z</time>
      </trkpt>
      <trkpt lat="47.506314" lon="8.061595">
        <ele>566.777423</ele>
        <time>2022-03-12T12:44:14.353Z</time>
      </trkpt>
      <trkpt lat="47.506250" lon="8.061722">
        <ele>567.464091</ele>
        <time>2022-03-12T12:44:25.360Z</time>
      </trkpt>
      <trkpt lat="47.506220" lon="8.061852">
        <ele>567.385984</ele>
        <time>2022-03-12T12:44:31.370Z</time>
      </trkpt>
      <trkpt lat="47.506193" lon="8.061988">
        <ele>567.177095</ele>
        <time>2022-03-12T12:44:42.358Z</time>
      </trkpt>
      <trkpt lat="47.506199" lon="8.062141">
        <ele>566.951251</ele>
        <time>2022-03-12T12:44:49.368Z</time>
      </trkpt>
      <trkpt lat="47.506183" lon="8.062280">
        <ele>566.743464</ele>
        <time>2022-03-12T12:44:59.367Z</time>
      </trkpt>
      <trkpt lat="47.506145" lon="8.062421">
        <ele>566.519757</ele>
        <time>2022-03-12T12:45:07.401Z</time>
      </trkpt>
      <trkpt lat="47.506108" lon="8.062542">
        <ele>566.324030</ele>
        <time>2022-03-12T12:45:13.369Z</time>
      </trkpt>
      <trkpt lat="47.506069" lon="8.062685">
        <ele>566.096774</ele>
        <time>2022-03-12T12:45:19.397Z</time>
      </trkpt>
      <trkpt lat="47.506006" lon="8.062788">
        <ele>565.892014</ele>
        <time>2022-03-12T12:45:26.351Z</time>
      </trkpt>
      <trkpt lat="47.505992" lon="8.062939">
        <ele>565.667410</ele>
        <time>2022-03-12T12:45:32.387Z</time>
      </trkpt>
      <trkpt lat="47.505965" lon="8.063095">
        <ele>565.430098</ele>
        <time>2022-03-12T12:45:40.356Z</time>
      </trkpt>
      <trkpt lat="47.505881" lon="8.063148">
        <ele>565.230902</ele>
        <time>2022-03-12T12:45:48.402Z</time>
      </trkpt>
      <trkpt lat="47.505810" lon="8.063235">
        <ele>565.029838</ele>
        <time>2022-03-12T12:45:53.391Z</time>
      </trkpt>
      <trkpt lat="47.505732" lon="8.063321">
        <ele>564.817671</ele>
        <time>2022-03-12T12:46:00.374Z</time>
      </trkpt>
      <trkpt lat="47.505634" lon="8.063344">
        <ele>564.601214</ele>
        <time>2022-03-12T12:46:05.394Z</time>
      </trkpt>
      <trkpt lat="47.505547" lon="8.063399">
        <ele>564.394842</ele>
        <time>2022-03-12T12:46:15.362Z</time>
      </trkpt>
      <trkpt lat="47.505464" lon="8.063511">
        <ele>564.149841</ele>
        <time>2022-03-12T12:46:21.369Z</time>
      </trkpt>
      <trkpt lat="47.505398" lon="8.063629">
        <ele>563.924081</ele>
        <time>2022-03-12T12:46:33.368Z</time>
      </trkpt>
      <trkpt lat="47.505318" lon="8.063722">
        <ele>563.702181</ele>
        <time>2022-03-12T12:46:39.370Z</time>
      </trkpt>
      <trkpt lat="47.505229" lon="8.063777">
        <ele>563.742405</ele>
        <time>2022-03-12T12:46:47.358Z</time>
      </trkpt>
      <trkpt lat="47.505152" lon="8.063848">
        <ele>563.895387</ele>
        <time>2022-03-12T12:46:54.366Z</time>
      </trkpt>
      <trkpt lat="47.505098" lon="8.063968">
        <ele>564.059646</ele>
        <time>2022-03-12T12:47:00.394Z</time>
      </trkpt>
      <trkpt lat="47.505021" lon="8.064050">
        <ele>564.219608</ele>
        <time>2022-03-12T12:47:07.356Z</time>
      </trkpt>
      <trkpt lat="47.504952" lon="8.064168">
        <ele>564.397401</ele>
        <time>2022-03-12T12:47:13.395Z</time>
      </trkpt>
      <trkpt lat="47.504864" lon="8.064267">
        <ele>564.583795</ele>
        <time>2022-03-12T12:47:23.371Z</time>
      </trkpt>
      <trkpt lat="47.504798" lon="8.064383">
        <ele>564.756570</ele>
        <time>2022-03-12T12:47:27.364Z</time>
      </trkpt>
      <trkpt lat="47.504730" lon="8.064479">
        <ele>564.915034</ele>
        <time>2022-03-12T12:47:32.363Z</time>
      </trkpt>
      <trkpt lat="47.504695" lon="8.064604">
        <ele>565.069183</ele>
        <time>2022-03-12T12:47:41.359Z</time>
      </trkpt>
      <trkpt lat="47.504692" lon="8.064740">
        <ele>565.224197</ele>
        <time>2022-03-12T12:47:46.373Z</time>
      </trkpt>
      <trkpt lat="47.504672" lon="8.064872">
        <ele>565.378309</ele>
        <time>2022-03-12T12:47:55.363Z</time>
      </trkpt>
      <trkpt lat="47.504649" lon="8.065003">
        <ele>565.532504</ele>
        <time>2022-03-12T12:48:00.393Z</time>
      </trkpt>
      <trkpt lat="47.504602" lon="8.065132">
        <ele>565.699473</ele>
        <time>2022-03-12T12:48:09.355Z</time>
      </trkpt>
      <trkpt lat="47.504597" lon="8.065280">
        <ele>565.868287</ele>
        <time>2022-03-12T12:48:14.392Z</time>
      </trkpt>
      <trkpt lat="47.504564" lon="8.065422">
        <ele>566.039360</ele>
        <time>2022-03-12T12:48:23.369Z</time>
      </trkpt>
      <trkpt lat="47.504504" lon="8.065539">
        <ele>566.206703</ele>
        <time>2022-03-12T12:48:54.368Z</time>
      </trkpt>
      <trkpt lat="47.504486" lon="8.065675">
        <ele>566.364582</ele>
        <time>2022-03-12T12:49:03.375Z</time>
      </trkpt>
      <trkpt lat="47.504449" lon="8.065807">
        <ele>566.527389</ele>
        <time>2022-03-12T12:49:16.365Z</time>
      </trkpt>
      <trkpt lat="47.504416" lon="8.065947">
        <ele>566.690110</ele>
        <time>2022-03-12T12:49:24.367Z</time>
      </trkpt>
      <trkpt lat="47.504397" lon="8.066094">
        <ele>566.825321</ele>
        <time>2022-03-12T12:49:32.363Z</time>
      </trkpt>
      <trkpt lat="47.504362" lon="8.066231">
        <ele>566.957643</ele>
        <time>2022-03-12T12:49:39.369Z</time>
      </trkpt>
      <trkpt lat="47.504346" lon="8.066393">
        <ele>567.105553</ele>
        <time>2022-03-12T12:49:49.364Z</time>
      </trkpt>
      <trkpt lat="47.504325" lon="8.066536">
        <ele>567.237758</ele>
        <time>2022-03-12T12:49:53.370Z</time>
      </trkpt>
      <trkpt lat="47.504298" lon="8.066670">
        <ele>567.364086</ele>
        <time>2022-03-12T12:50:03.365Z</time>
      </trkpt>
      <trkpt lat="47.504251" lon="8.066811">
        <ele>567.506132</ele>
        <time>2022-03-12T12:50:09.354Z</time>
      </trkpt>
      <trkpt lat="47.504240" lon="8.066947">
        <ele>567.629874</ele>
        <time>2022-03-12T12:50:14.370Z</time>
      </trkpt>
      <trkpt lat="47.504210" lon="8.067094">
        <ele>567.768604</ele>
        <time>2022-03-12T12:50:25.367Z</time>
      </trkpt>
      <trkpt lat="47.504193" lon="8.067237">
        <ele>567.899778</ele>
        <time>2022-03-12T12:50:29.366Z</time>
      </trkpt>
      <trkpt lat="47.504215" lon="8.067369">
        <ele>568.022605</ele>
        <time>2022-03-12T12:50:49.358Z</time>
      </trkpt>
      <trkpt lat="47.504316" lon="8.067371">
        <ele>568.157688</ele>
        <time>2022-03-12T12:50:57.392Z</time>
      </trkpt>
      <trkpt lat="47.504410" lon="8.067365">
        <ele>568.283514</ele>
        <time>2022-03-12T12:51:04.389Z</time>
      </trkpt>
      <trkpt lat="47.504503" lon="8.067358">
        <ele>568.408047</ele>
        <time>2022-03-12T12:51:12.352Z</time>
      </trkpt>
      <trkpt lat="47.504600" lon="8.067338">
        <ele>568.539020</ele>
        <time>2022-03-12T12:51:21.357Z</time>
      </trkpt>
      <trkpt lat="47.504696" lon="8.067333">
        <ele>568.667484</ele>
        <time>2022-03-12T12:51:28.393Z</time>
      </trkpt>
      <trkpt lat="47.504790" lon="8.067305">
        <ele>568.795713</ele>
        <time>2022-03-12T12:51:36.393Z</time>
      </trkpt>
      <trkpt lat="47.504884" lon="8.067280">
        <ele>568.923435</ele>
        <time>2022-03-12T12:51:43.367Z</time>
      </trkpt>
      <trkpt lat="47.504976" lon="8.067279">
        <ele>569.046473</ele>
        <time>2022-03-12T12:51:49.362Z</time>
      </trkpt>
      <trkpt lat="47.505070" lon="8.067267">
        <ele>569.188914</ele>
        <time>2022-03-12T12:51:56.361Z</time>
      </trkpt>
      <trkpt lat="47.505170" lon="8.067244">
        <ele>569.346066</ele>
        <time>2022-03-12T12:52:03.364Z</time>
      </trkpt>
      <trkpt lat="47.505261" lon="8.067229">
        <ele>569.488253</ele>
        <time>2022-03-12T12:52:09.358Z</time>
      </trkpt>
      <trkpt lat="47.505359" lon="8.067242">
        <ele>569.641046</ele>
        <time>2022-03-12T12:52:21.393Z</time>
      </trkpt>
      <trkpt lat="47.505452" lon="8.067226">
        <ele>569.786437</ele>
        <time>2022-03-12T12:52:24.359Z</time>
      </trkpt>
      <trkpt lat="47.505552" lon="8.067246">
        <ele>569.943136</ele>
        <time>2022-03-12T12:52:36.367Z</time>
      </trkpt>
      <trkpt lat="47.505655" lon="8.067255">
        <ele>570.103363</ele>
        <time>2022-03-12T12:52:41.353Z</time>
      </trkpt>
      <trkpt lat="47.505744" lon="8.067280">
        <ele>570.244036</ele>
        <time>2022-03-12T12:52:46.355Z</time>
      </trkpt>
      <trkpt lat="47.505849" lon="8.067244">
        <ele>570.411406</ele>
        <time>2022-03-12T12:52:57.356Z</time>
      </trkpt>
      <trkpt lat="47.505945" lon="8.067235">
        <ele>570.560782</ele>
        <time>2022-03-12T12:53:03.362Z</time>
      </trkpt>
      <trkpt lat="47.506045" lon="8.067229">
        <ele>570.716198</ele>
        <time>2022-03-12T12:53:08.361Z</time>
      </trkpt>
      <trkpt lat="47.506135" lon="8.067224">
        <ele>570.856057</ele>
        <time>2022-03-12T12:53:16.366Z</time>
      </trkpt>
      <trkpt lat="47.506241" lon="8.067208">
        <ele>571.021517</ele>
        <time>2022-03-12T12:53:23.363Z</time>
      </trkpt>
      <trkpt lat="47.506350" lon="8.067192">
        <ele>571.191612</ele>
        <time>2022-03-12T12:53:28.392Z</time>
      </trkpt>
      <trkpt lat="47.506443" lon="8.067199">
        <ele>571.336218</ele>
        <time>2022-03-12T12:53:39.364Z</time>
      </trkpt>
      <trkpt lat="47.506541" lon="8.067165">
        <ele>571.492524</ele>
        <time>2022-03-12T12:53:45.365Z</time>
      </trkpt>
      <trkpt lat="47.506632" lon="8.067147">
        <ele>571.635093</ele>
        <time>2022-03-12T12:53:52.353Z</time>
      </trkpt>
      <trkpt lat="47.506729" lon="8.067080">
        <ele>571.801313</ele>
        <time>2022-03-12T12:54:00.356Z</time>
      </trkpt>
      <trkpt lat="47.506812" lon="8.067030">
        <ele>572.260337</ele>
        <time>2022-03-12T12:54:08.392Z</time>
      </trkpt>
      <trkpt lat="47.506898" lon="8.066986">
        <ele>572.999281</ele>
        <time>2022-03-12T12:54:15.372Z</time>
      </trkpt>
      <trkpt lat="47.506989" lon="8.066965">
        <ele>573.747221</ele>
        <time>2022-03-12T12:54:22.356Z</time>
      </trkpt>
      <trkpt lat="47.507092" lon="8.066950">
        <ele>574.587726</ele>
        <time>2022-03-12T12:54:32.369Z</time>
      </trkpt>
      <trkpt lat="47.507176" lon="8.066901">
        <ele>575.320943</ele>
        <time>2022-03-12T12:54:38.366Z</time>
      </trkpt>
      <trkpt lat="47.507269" lon="8.066859">
        <ele>576.110562</ele>
        <time>2022-03-12T12:54:47.369Z</time>
      </trkpt>
      <trkpt lat="47.507362" lon="8.066849">
        <ele>576.867809</ele>
        <time>2022-03-12T12:54:55.370Z</time>
      </trkpt>
      <trkpt lat="47.507448" lon="8.066790">
        <ele>577.637569</ele>
        <time>2022-03-12T12:55:04.361Z</time>
      </trkpt>
      <trkpt lat="47.507530" lon="8.066728">
        <ele>578.385323</ele>
        <time>2022-03-12T12:55:10.369Z</time>
      </trkpt>
      <trkpt lat="47.507613" lon="8.066669">
        <ele>579.133048</ele>
        <time>2022-03-12T12:55:17.572Z</time>
      </trkpt>
      <trkpt lat="47.507703" lon="8.066618">
        <ele>579.915657</ele>
        <time>2022-03-12T12:55:24.359Z</time>
      </trkpt>
      <trkpt lat="47.507791" lon="8.066552">
        <ele>580.716789</ele>
        <time>2022-03-12T12:55:31.361Z</time>
      </trkpt>
      <trkpt lat="47.507881" lon="8.066488">
        <ele>581.527631</ele>
        <time>2022-03-12T12:55:39.362Z</time>
      </trkpt>
      <trkpt lat="47.507969" lon="8.066399">
        <ele>582.393132</ele>
        <time>2022-03-12T12:55:49.361Z</time>
      </trkpt>
      <trkpt lat="47.508049" lon="8.066333">
        <ele>583.136887</ele>
        <time>2022-03-12T12:55:56.356Z</time>
      </trkpt>
      <trkpt lat="47.508128" lon="8.066258">
        <ele>583.899037</ele>
        <time>2022-03-12T12:56:04.371Z</time>
      </trkpt>
      <trkpt lat="47.508214" lon="8.066207">
        <ele>584.651397</ele>
        <time>2022-03-12T12:56:12.388Z</time>
      </trkpt>
      <trkpt lat="47.508284" lon="8.066118">
        <ele>585.400745</ele>
        <time>2022-03-12T12:56:20.354Z</time>
      </trkpt>
      <trkpt lat="47.508362" lon="8.066046">
        <ele>586.147234</ele>
        <time>2022-03-12T12:56:26.365Z</time>
      </trkpt>
      <trkpt lat="47.508442" lon="8.065981">
        <ele>587.101635</ele>
        <time>2022-03-12T12:56:33.357Z</time>
      </trkpt>
      <trkpt lat="47.508533" lon="8.065925">
        <ele>588.311695</ele>
        <time>2022-03-12T12:56:41.357Z</time>
      </trkpt>
      <trkpt lat="47.508613" lon="8.065855">
        <ele>589.452746</ele>
        <time>2022-03-12T12:56:50.354Z</time>
      </trkpt>
      <trkpt lat="47.508698" lon="8.065805">
        <ele>590.575814</ele>
        <time>2022-03-12T12:56:58.380Z</time>
      </trkpt>
      <trkpt lat="47.508787" lon="8.065743">
        <ele>591.783569</ele>
        <time>2022-03-12T12:57:06.379Z</time>
      </trkpt>
      <trkpt lat="47.508869" lon="8.065668">
        <ele>592.967088</ele>
        <time>2022-03-12T12:57:15.371Z</time>
      </trkpt>
      <trkpt lat="47.508959" lon="8.065594">
        <ele>594.231177</ele>
        <time>2022-03-12T12:57:23.373Z</time>
      </trkpt>
      <trkpt lat="47.509041" lon="8.065513">
        <ele>595.441591</ele>
        <time>2022-03-12T12:57:31.365Z</time>
      </trkpt>
      <trkpt lat="47.509123" lon="8.065426">
        <ele>596.680317</ele>
        <time>2022-03-12T12:57:39.369Z</time>
      </trkpt>
      <trkpt lat="47.509203" lon="8.065362">
        <ele>597.796867</ele>
        <time>2022-03-12T12:57:47.362Z</time>
      </trkpt>
      <trkpt lat="47.509280" lon="8.065291">
        <ele>598.910723</ele>
        <time>2022-03-12T12:57:58.353Z</time>
      </trkpt>
      <trkpt lat="47.509366" lon="8.065217">
        <ele>600.132106</ele>
        <time>2022-03-12T12:58:06.367Z</time>
      </trkpt>
      <trkpt lat="47.509435" lon="8.065114">
        <ele>601.335267</ele>
        <time>2022-03-12T12:58:16.405Z</time>
      </trkpt>
      <trkpt lat="47.509528" lon="8.065051">
        <ele>602.591062</ele>
        <time>2022-03-12T12:58:25.357Z</time>
      </trkpt>
      <trkpt lat="47.509599" lon="8.064966">
        <ele>603.712234</ele>
        <time>2022-03-12T12:58:32.354Z</time>
      </trkpt>
      <trkpt lat="47.509676" lon="8.064880">
        <ele>604.896577</ele>
        <time>2022-03-12T12:58:39.361Z</time>
      </trkpt>
      <trkpt lat="47.509739" lon="8.064784">
        <ele>606.006692</ele>
        <time>2022-03-12T12:58:46.370Z</time>
      </trkpt>
      <trkpt lat="47.509820" lon="8.064690">
        <ele>607.270420</ele>
        <time>2022-03-12T12:58:57.357Z</time>
      </trkpt>
      <trkpt lat="47.509905" lon="8.064624">
        <ele>608.448955</ele>
        <time>2022-03-12T12:59:05.363Z</time>
      </trkpt>
      <trkpt lat="47.510000" lon="8.064586">
        <ele>609.147546</ele>
        <time>2022-03-12T12:59:13.367Z</time>
      </trkpt>
      <trkpt lat="47.510091" lon="8.064579">
        <ele>609.748149</ele>
        <time>2022-03-12T12:59:20.387Z</time>
      </trkpt>
      <trkpt lat="47.510189" lon="8.064564">
        <ele>610.397524</ele>
        <time>2022-03-12T12:59:28.396Z</time>
      </trkpt>
      <trkpt lat="47.510282" lon="8.064548">
        <ele>611.014625</ele>
        <time>2022-03-12T12:59:36.396Z</time>
      </trkpt>
      <trkpt lat="47.510379" lon="8.064542">
        <ele>611.654523</ele>
        <time>2022-03-12T12:59:45.371Z</time>
      </trkpt>
      <trkpt lat="47.510453" lon="8.064621">
        <ele>612.255851</ele>
        <time>2022-03-12T12:59:53.364Z</time>
      </trkpt>
      <trkpt lat="47.510458" lon="8.064767">
        <ele>612.906681</ele>
        <time>2022-03-12T13:00:00.395Z</time>
      </trkpt>
      <trkpt lat="47.510450" lon="8.064900">
        <ele>613.501144</ele>
        <time>2022-03-12T13:00:07.373Z</time>
      </trkpt>
      <trkpt lat="47.510440" lon="8.065038">
        <ele>614.119049</ele>
        <time>2022-03-12T13:00:14.364Z</time>
      </trkpt>
      <trkpt lat="47.510451" lon="8.065182">
        <ele>614.764227</ele>
        <time>2022-03-12T13:00:22.359Z</time>
      </trkpt>
      <trkpt lat="47.510458" lon="8.065334">
        <ele>615.442506</ele>
        <time>2022-03-12T13:00:28.369Z</time>
      </trkpt>
      <trkpt lat="47.510447" lon="8.065466">
        <ele>616.034628</ele>
        <time>2022-03-12T13:00:39.060Z</time>
      </trkpt>
      <trkpt lat="47.510380" lon="8.065605">
        <ele>616.794871</ele>
        <time>2022-03-12T13:01:44.373Z</time>
      </trkpt>
      <trkpt lat="47.510368" lon="8.065752">
        <ele>617.454082</ele>
        <time>2022-03-12T13:01:52.366Z</time>
      </trkpt>
      <trkpt lat="47.510371" lon="8.065888">
        <ele>618.059881</ele>
        <time>2022-03-12T13:01:59.366Z</time>
      </trkpt>
      <trkpt lat="47.510370" lon="8.066029">
        <ele>618.687652</ele>
        <time>2022-03-12T13:02:07.365Z</time>
      </trkpt>
      <trkpt lat="47.510355" lon="8.066171">
        <ele>619.327525</ele>
        <time>2022-03-12T13:02:15.355Z</time>
      </trkpt>
      <trkpt lat="47.510333" lon="8.066313">
        <ele>619.976130</ele>
        <time>2022-03-12T13:02:21.359Z</time>
      </trkpt>
      <trkpt lat="47.510317" lon="8.066450">
        <ele>620.294667</ele>
        <time>2022-03-12T13:02:28.361Z</time>
      </trkpt>
      <trkpt lat="47.510305" lon="8.066584">
        <ele>619.909224</ele>
        <time>2022-03-12T13:02:35.356Z</time>
      </trkpt>
      <trkpt lat="47.510261" lon="8.066722">
        <ele>619.474080</ele>
        <time>2022-03-12T13:02:42.390Z</time>
      </trkpt>
      <trkpt lat="47.510234" lon="8.066849">
        <ele>619.094426</ele>
        <time>2022-03-12T13:02:49.369Z</time>
      </trkpt>
      <trkpt lat="47.510202" lon="8.066985">
        <ele>618.683767</ele>
        <time>2022-03-12T13:02:56.415Z</time>
      </trkpt>
      <trkpt lat="47.510192" lon="8.067122">
        <ele>618.290837</ele>
        <time>2022-03-12T13:03:04.476Z</time>
      </trkpt>
      <trkpt lat="47.510205" lon="8.067264">
        <ele>617.882222</ele>
        <time>2022-03-12T13:03:13.397Z</time>
      </trkpt>
      <trkpt lat="47.510199" lon="8.067402">
        <ele>617.487901</ele>
        <time>2022-03-12T13:03:19.366Z</time>
      </trkpt>
      <trkpt lat="47.510167" lon="8.067556">
        <ele>617.028461</ele>
        <time>2022-03-12T13:03:25.367Z</time>
      </trkpt>
      <trkpt lat="47.510166" lon="8.067691">
        <ele>616.643485</ele>
        <time>2022-03-12T13:03:35.369Z</time>
      </trkpt>
      <trkpt lat="47.510142" lon="8.067834">
        <ele>616.223322</ele>
        <time>2022-03-12T13:03:39.368Z</time>
      </trkpt>
      <trkpt lat="47.510137" lon="8.067995">
        <ele>615.763745</ele>
        <time>2022-03-12T13:03:50.363Z</time>
      </trkpt>
      <trkpt lat="47.510112" lon="8.068139">
        <ele>615.339782</ele>
        <time>2022-03-12T13:03:54.401Z</time>
      </trkpt>
      <trkpt lat="47.510096" lon="8.068303">
        <ele>614.867283</ele>
        <time>2022-03-12T13:04:03.371Z</time>
      </trkpt>
      <trkpt lat="47.510083" lon="8.068438">
        <ele>614.478438</ele>
        <time>2022-03-12T13:04:13.377Z</time>
      </trkpt>
      <trkpt lat="47.510077" lon="8.068575">
        <ele>614.086961</ele>
        <time>2022-03-12T13:04:19.368Z</time>
      </trkpt>
      <trkpt lat="47.510057" lon="8.068720">
        <ele>613.664961</ele>
        <time>2022-03-12T13:04:26.373Z</time>
      </trkpt>
      <trkpt lat="47.510069" lon="8.068854">
        <ele>613.279515</ele>
        <time>2022-03-12T13:04:34.375Z</time>
      </trkpt>
      <trkpt lat="47.510062" lon="8.068998">
        <ele>612.867836</ele>
        <time>2022-03-12T13:04:43.354Z</time>
      </trkpt>
      <trkpt lat="47.510061" lon="8.069153">
        <ele>612.354881</ele>
        <time>2022-03-12T13:04:53.372Z</time>
      </trkpt>
      <trkpt lat="47.510070" lon="8.069299">
        <ele>611.861362</ele>
        <time>2022-03-12T13:05:00.371Z</time>
      </trkpt>
      <trkpt lat="47.510110" lon="8.069427">
        <ele>611.386600</ele>
        <time>2022-03-12T13:05:09.353Z</time>
      </trkpt>
      <trkpt lat="47.510147" lon="8.069560">
        <ele>610.902400</ele>
        <time>2022-03-12T13:05:15.405Z</time>
      </trkpt>
      <trkpt lat="47.510167" lon="8.069694">
        <ele>610.440440</ele>
        <time>2022-03-12T13:05:22.362Z</time>
      </trkpt>
      <trkpt lat="47.510203" lon="8.069834">
        <ele>609.936167</ele>
        <time>2022-03-12T13:05:31.366Z</time>
      </trkpt>
      <trkpt lat="47.510223" lon="8.069983">
        <ele>609.424786</ele>
        <time>2022-03-12T13:05:35.371Z</time>
      </trkpt>
      <trkpt lat="47.510235" lon="8.070116">
        <ele>608.973097</ele>
        <time>2022-03-12T13:05:45.392Z</time>
      </trkpt>
      <trkpt lat="47.510281" lon="8.070243">
        <ele>608.487995</ele>
        <time>2022-03-12T13:05:52.359Z</time>
      </trkpt>
      <trkpt lat="47.510321" lon="8.070364">
        <ele>608.034512</ele>
        <time>2022-03-12T13:05:58.361Z</time>
      </trkpt>
      <trkpt lat="47.510383" lon="8.070466">
        <ele>607.572594</ele>
        <time>2022-03-12T13:06:04.376Z</time>
      </trkpt>
      <trkpt lat="47.510432" lon="8.070580">
        <ele>607.117732</ele>
        <time>2022-03-12T13:06:10.365Z</time>
      </trkpt>
      <trkpt lat="47.510455" lon="8.070711">
        <ele>606.662100</ele>
        <time>2022-03-12T13:06:21.367Z</time>
      </trkpt>
      <trkpt lat="47.510491" lon="8.070870">
        <ele>606.097597</ele>
        <time>2022-03-12T13:06:27.366Z</time>
      </trkpt>
      <trkpt lat="47.510518" lon="8.071014">
        <ele>605.594528</ele>
        <time>2022-03-12T13:06:38.365Z</time>
      </trkpt>
      <trkpt lat="47.510559" lon="8.071149">
        <ele>605.096262</ele>
        <time>2022-03-12T13:06:44.375Z</time>
      </trkpt>
      <trkpt lat="47.510629" lon="8.071240">
        <ele>604.632002</ele>
        <time>2022-03-12T13:06:55.358Z</time>
      </trkpt>
      <trkpt lat="47.510659" lon="8.071389">
        <ele>604.108623</ele>
        <time>2022-03-12T13:07:00.377Z</time>
      </trkpt>
      <trkpt lat="47.510691" lon="8.071550">
        <ele>604.246454</ele>
        <time>2022-03-12T13:07:10.357Z</time>
      </trkpt>
      <trkpt lat="47.510751" lon="8.071687">
        <ele>604.937472</ele>
        <time>2022-03-12T13:07:15.396Z</time>
      </trkpt>
      <trkpt lat="47.510762" lon="8.071849">
        <ele>605.626537</ele>
        <time>2022-03-12T13:07:27.363Z</time>
      </trkpt>
      <trkpt lat="47.510779" lon="8.071986">
        <ele>606.216045</ele>
        <time>2022-03-12T13:07:31.377Z</time>
      </trkpt>
      <trkpt lat="47.510832" lon="8.072094">
        <ele>606.781017</ele>
        <time>2022-03-12T13:07:38.365Z</time>
      </trkpt>
      <trkpt lat="47.510819" lon="8.072233">
        <ele>607.374898</ele>
        <time>2022-03-12T13:07:45.366Z</time>
      </trkpt>
      <trkpt lat="47.510842" lon="8.072380">
        <ele>608.013497</ele>
        <time>2022-03-12T13:07:52.359Z</time>
      </trkpt>
      <trkpt lat="47.510841" lon="8.072536">
        <ele>608.673743</ele>
        <time>2022-03-12T13:08:00.367Z</time>
      </trkpt>
      <trkpt lat="47.510869" lon="8.072665">
        <ele>609.247186</ele>
        <time>2022-03-12T13:08:08.372Z</time>
      </trkpt>
      <trkpt lat="47.510888" lon="8.072816">
        <ele>609.897234</ele>
        <time>2022-03-12T13:08:14.426Z</time>
      </trkpt>
      <trkpt lat="47.510883" lon="8.072962">
        <ele>610.515921</ele>
        <time>2022-03-12T13:08:19.401Z</time>
      </trkpt>
      <trkpt lat="47.510917" lon="8.073089">
        <ele>611.094083</ele>
        <time>2022-03-12T13:08:24.373Z</time>
      </trkpt>
      <trkpt lat="47.510892" lon="8.073236">
        <ele>611.735625</ele>
        <time>2022-03-12T13:08:34.362Z</time>
      </trkpt>
      <trkpt lat="47.510920" lon="8.073382">
        <ele>612.377942</ele>
        <time>2022-03-12T13:08:41.370Z</time>
      </trkpt>
      <trkpt lat="47.510896" lon="8.073520">
        <ele>612.981026</ele>
        <time>2022-03-12T13:08:47.356Z</time>
      </trkpt>
      <trkpt lat="47.510948" lon="8.073633">
        <ele>613.559699</ele>
        <time>2022-03-12T13:08:55.371Z</time>
      </trkpt>
      <trkpt lat="47.510931" lon="8.073789">
        <ele>614.228450</ele>
        <time>2022-03-12T13:09:00.397Z</time>
      </trkpt>
      <trkpt lat="47.510911" lon="8.073931">
        <ele>614.842341</ele>
        <time>2022-03-12T13:09:08.365Z</time>
      </trkpt>
      <trkpt lat="47.510924" lon="8.074069">
        <ele>615.588023</ele>
        <time>2022-03-12T13:09:14.393Z</time>
      </trkpt>
      <trkpt lat="47.510973" lon="8.074180">
        <ele>616.434095</ele>
        <time>2022-03-12T13:09:23.360Z</time>
      </trkpt>
      <trkpt lat="47.510973" lon="8.074314">
        <ele>617.289077</ele>
        <time>2022-03-12T13:09:31.366Z</time>
      </trkpt>
      <trkpt lat="47.511040" lon="8.074420">
        <ele>618.215350</ele>
        <time>2022-03-12T13:09:37.363Z</time>
      </trkpt>
      <trkpt lat="47.511081" lon="8.074549">
        <ele>619.124997</ele>
        <time>2022-03-12T13:09:43.369Z</time>
      </trkpt>
      <trkpt lat="47.511090" lon="8.074686">
        <ele>620.003243</ele>
        <time>2022-03-12T13:09:50.360Z</time>
      </trkpt>
      <trkpt lat="47.511084" lon="8.074835">
        <ele>620.955618</ele>
        <time>2022-03-12T13:09:56.351Z</time>
      </trkpt>
      <trkpt lat="47.511086" lon="8.074990">
        <ele>621.944769</ele>
        <time>2022-03-12T13:10:03.352Z</time>
      </trkpt>
      <trkpt lat="47.511055" lon="8.075139">
        <ele>622.939534</ele>
        <time>2022-03-12T13:10:11.367Z</time>
      </trkpt>
      <trkpt lat="47.511093" lon="8.075280">
        <ele>623.908147</ele>
        <time>2022-03-12T13:10:17.359Z</time>
      </trkpt>
      <trkpt lat="47.511155" lon="8.075384">
        <ele>624.793204</ele>
        <time>2022-03-12T13:10:23.368Z</time>
      </trkpt>
      <trkpt lat="47.511211" lon="8.075497">
        <ele>625.687440</ele>
        <time>2022-03-12T13:10:30.363Z</time>
      </trkpt>
      <trkpt lat="47.511217" lon="8.075644">
        <ele>626.627075</ele>
        <time>2022-03-12T13:10:38.376Z</time>
      </trkpt>
      <trkpt lat="47.511232" lon="8.075775">
        <ele>627.474837</ele>
        <time>2022-03-12T13:10:47.398Z</time>
      </trkpt>
      <trkpt lat="47.511289" lon="8.075897">
        <ele>628.421325</ele>
        <time>2022-03-12T13:10:55.361Z</time>
      </trkpt>
      <trkpt lat="47.511344" lon="8.076012">
        <ele>629.320387</ele>
        <time>2022-03-12T13:11:00.364Z</time>
      </trkpt>
      <trkpt lat="47.511365" lon="8.076148">
        <ele>630.210510</ele>
        <time>2022-03-12T13:11:08.373Z</time>
      </trkpt>
      <trkpt lat="47.511405" lon="8.076271">
        <ele>631.081526</ele>
        <time>2022-03-12T13:11:13.361Z</time>
      </trkpt>
      <trkpt lat="47.511424" lon="8.076416">
        <ele>632.023934</ele>
        <time>2022-03-12T13:11:18.404Z</time>
      </trkpt>
      <trkpt lat="47.511468" lon="8.076544">
        <ele>632.362899</ele>
        <time>2022-03-12T13:11:28.375Z</time>
      </trkpt>
      <trkpt lat="47.511533" lon="8.076677">
        <ele>632.677365</ele>
        <time>2022-03-12T13:11:34.367Z</time>
      </trkpt>
      <trkpt lat="47.511534" lon="8.076825">
        <ele>632.960882</ele>
        <time>2022-03-12T13:11:40.368Z</time>
      </trkpt>
      <trkpt lat="47.511531" lon="8.076971">
        <ele>633.240682</ele>
        <time>2022-03-12T13:11:49.367Z</time>
      </trkpt>
      <trkpt lat="47.511536" lon="8.077116">
        <ele>633.518799</ele>
        <time>2022-03-12T13:11:54.376Z</time>
      </trkpt>
      <trkpt lat="47.511564" lon="8.077247">
        <ele>633.782002</ele>
        <time>2022-03-12T13:11:59.379Z</time>
      </trkpt>
      <trkpt lat="47.511633" lon="8.077338">
        <ele>634.044067</ele>
        <time>2022-03-12T13:12:06.369Z</time>
      </trkpt>
      <trkpt lat="47.511659" lon="8.077481">
        <ele>634.327742</ele>
        <time>2022-03-12T13:12:14.355Z</time>
      </trkpt>
      <trkpt lat="47.511685" lon="8.077620">
        <ele>634.604024</ele>
        <time>2022-03-12T13:12:19.373Z</time>
      </trkpt>
      <trkpt lat="47.511689" lon="8.077765">
        <ele>634.882011</ele>
        <time>2022-03-12T13:12:27.363Z</time>
      </trkpt>
      <trkpt lat="47.511711" lon="8.077923">
        <ele>635.191032</ele>
        <time>2022-03-12T13:12:36.369Z</time>
      </trkpt>
      <trkpt lat="47.511728" lon="8.078058">
        <ele>635.454087</ele>
        <time>2022-03-12T13:12:42.377Z</time>
      </trkpt>
      <trkpt lat="47.511753" lon="8.078193">
        <ele>635.722229</ele>
        <time>2022-03-12T13:12:51.366Z</time>
      </trkpt>
      <trkpt lat="47.511760" lon="8.078343">
        <ele>636.010246</ele>
        <time>2022-03-12T13:12:57.355Z</time>
      </trkpt>
      <trkpt lat="47.511789" lon="8.078474">
        <ele>636.274317</ele>
        <time>2022-03-12T13:13:05.356Z</time>
      </trkpt>
      <trkpt lat="47.511799" lon="8.078609">
        <ele>636.534466</ele>
        <time>2022-03-12T13:13:11.365Z</time>
      </trkpt>
      <trkpt lat="47.511810" lon="8.078745">
        <ele>636.796841</ele>
        <time>2022-03-12T13:13:16.376Z</time>
      </trkpt>
      <trkpt lat="47.511801" lon="8.078886">
        <ele>637.068137</ele>
        <time>2022-03-12T13:13:25.359Z</time>
      </trkpt>
      <trkpt lat="47.511853" lon="8.079006">
        <ele>637.209573</ele>
        <time>2022-03-12T13:13:31.353Z</time>
      </trkpt>
      <trkpt lat="47.511882" lon="8.079153">
        <ele>637.194189</ele>
        <time>2022-03-12T13:13:39.052Z</time>
      </trkpt>
      <trkpt lat="47.511878" lon="8.079293">
        <ele>637.180112</ele>
        <time>2022-03-12T13:13:46.372Z</time>
      </trkpt>
      <trkpt lat="47.511890" lon="8.079426">
        <ele>637.166633</ele>
        <time>2022-03-12T13:13:53.363Z</time>
      </trkpt>
      <trkpt lat="47.511980" lon="8.079444">
        <ele>637.153126</ele>
        <time>2022-03-12T13:14:15.354Z</time>
      </trkpt>
      <trkpt lat="47.512070" lon="8.079426">
        <ele>637.139619</ele>
        <time>2022-03-12T13:14:24.355Z</time>
      </trkpt>
      <trkpt lat="47.512170" lon="8.079421">
        <ele>637.124738</ele>
        <time>2022-03-12T13:14:32.401Z</time>
      </trkpt>
      <trkpt lat="47.512268" lon="8.079407">
        <ele>637.110095</ele>
        <time>2022-03-12T13:14:39.389Z</time>
      </trkpt>
      <trkpt lat="47.512370" lon="8.079421">
        <ele>637.094859</ele>
        <time>2022-03-12T13:14:47.363Z</time>
      </trkpt>
      <trkpt lat="47.512469" lon="8.079424">
        <ele>637.080132</ele>
        <time>2022-03-12T13:14:55.369Z</time>
      </trkpt>
      <trkpt lat="47.512565" lon="8.079379">
        <ele>637.065156</ele>
        <time>2022-03-12T13:15:05.366Z</time>
      </trkpt>
      <trkpt lat="47.512658" lon="8.079337">
        <ele>637.050695</ele>
        <time>2022-03-12T13:15:14.377Z</time>
      </trkpt>
      <trkpt lat="47.512750" lon="8.079341">
        <ele>637.037006</ele>
        <time>2022-03-12T13:15:20.364Z</time>
      </trkpt>
      <trkpt lat="47.512842" lon="8.079402">
        <ele>637.022014</ele>
        <time>2022-03-12T13:15:28.398Z</time>
      </trkpt>
      <trkpt lat="47.512915" lon="8.079489">
        <ele>637.008076</ele>
        <time>2022-03-12T13:15:34.387Z</time>
      </trkpt>
      <trkpt lat="47.512979" lon="8.079591">
        <ele>636.994091</ele>
        <time>2022-03-12T13:15:41.365Z</time>
      </trkpt>
      <trkpt lat="47.513035" lon="8.079702">
        <ele>636.980173</ele>
        <time>2022-03-12T13:15:49.368Z</time>
      </trkpt>
      <trkpt lat="47.513071" lon="8.079835">
        <ele>636.965780</ele>
        <time>2022-03-12T13:15:56.353Z</time>
      </trkpt>
      <trkpt lat="47.513117" lon="8.079966">
        <ele>636.950948</ele>
        <time>2022-03-12T13:16:05.364Z</time>
      </trkpt>
      <trkpt lat="47.513182" lon="8.080080">
        <ele>636.970392</ele>
        <time>2022-03-12T13:16:11.366Z</time>
      </trkpt>
      <trkpt lat="47.513264" lon="8.080154">
        <ele>636.994941</ele>
        <time>2022-03-12T13:16:18.366Z</time>
      </trkpt>
      <trkpt lat="47.513324" lon="8.080282">
        <ele>637.021842</ele>
        <time>2022-03-12T13:16:25.352Z</time>
      </trkpt>
      <trkpt lat="47.513324" lon="8.080427">
        <ele>637.046877</ele>
        <time>2022-03-12T13:16:34.374Z</time>
      </trkpt>
      <trkpt lat="47.513368" lon="8.080566">
        <ele>637.073381</ele>
        <time>2022-03-12T13:16:41.362Z</time>
      </trkpt>
      <trkpt lat="47.513394" lon="8.080697">
        <ele>637.096955</ele>
        <time>2022-03-12T13:16:49.363Z</time>
      </trkpt>
      <trkpt lat="47.513429" lon="8.080834">
        <ele>637.122245</ele>
        <time>2022-03-12T13:16:55.394Z</time>
      </trkpt>
      <trkpt lat="47.513457" lon="8.080966">
        <ele>637.146133</ele>
        <time>2022-03-12T13:17:01.368Z</time>
      </trkpt>
      <trkpt lat="47.513478" lon="8.081115">
        <ele>637.172413</ele>
        <time>2022-03-12T13:17:10.363Z</time>
      </trkpt>
      <trkpt lat="47.513509" lon="8.081244">
        <ele>637.196053</ele>
        <time>2022-03-12T13:17:17.366Z</time>
      </trkpt>
      <trkpt lat="47.513543" lon="8.081371">
        <ele>637.219640</ele>
        <time>2022-03-12T13:17:25.393Z</time>
      </trkpt>
      <trkpt lat="47.513627" lon="8.081460">
        <ele>637.246045</ele>
        <time>2022-03-12T13:17:30.399Z</time>
      </trkpt>
      <trkpt lat="47.513693" lon="8.081557">
        <ele>637.269817</ele>
        <time>2022-03-12T13:17:37.364Z</time>
      </trkpt>
      <trkpt lat="47.513767" lon="8.081641">
        <ele>637.293654</ele>
        <time>2022-03-12T13:17:43.356Z</time>
      </trkpt>
      <trkpt lat="47.513799" lon="8.081765">
        <ele>637.316572</ele>
        <time>2022-03-12T13:17:50.374Z</time>
      </trkpt>
      <trkpt lat="47.513869" lon="8.081869">
        <ele>637.341922</ele>
        <time>2022-03-12T13:17:56.373Z</time>
      </trkpt>
      <trkpt lat="47.513938" lon="8.081960">
        <ele>637.365543</ele>
        <time>2022-03-12T13:18:02.368Z</time>
      </trkpt>
      <trkpt lat="47.513984" lon="8.082090">
        <ele>637.390882</ele>
        <time>2022-03-12T13:18:31.357Z</time>
      </trkpt>
      <trkpt lat="47.514058" lon="8.082171">
        <ele>637.533317</ele>
        <time>2022-03-12T13:18:43.366Z</time>
      </trkpt>
      <trkpt lat="47.514067" lon="8.082206">
        <ele>637.668000</ele>
        <time>2022-03-12T13:19:25.349Z</time>
      </trkpt>
      <trkpt lat="47.514163" lon="8.082171">
        <ele>638.194430</ele>
        <time>2022-03-12T13:20:05.353Z</time>
      </trkpt>
      <trkpt lat="47.514255" lon="8.082173">
        <ele>638.684344</ele>
        <time>2022-03-12T13:20:13.367Z</time>
      </trkpt>
      <trkpt lat="47.514377" lon="8.082114">
        <ele>639.367718</ele>
        <time>2022-03-12T13:20:23.859Z</time>
      </trkpt>
      <trkpt lat="47.514452" lon="8.082034">
        <ele>639.859904</ele>
        <time>2022-03-12T13:20:30.670Z</time>
      </trkpt>
      <trkpt lat="47.514536" lon="8.081959">
        <ele>640.382201</ele>
        <time>2022-03-12T13:20:37.361Z</time>
      </trkpt>
      <trkpt lat="47.514592" lon="8.081850">
        <ele>640.874711</ele>
        <time>2022-03-12T13:20:48.361Z</time>
      </trkpt>
      <trkpt lat="47.514679" lon="8.081798">
        <ele>641.374272</ele>
        <time>2022-03-12T13:20:56.368Z</time>
      </trkpt>
      <trkpt lat="47.514766" lon="8.081757">
        <ele>641.860410</ele>
        <time>2022-03-12T13:21:01.366Z</time>
      </trkpt>
      <trkpt lat="47.514843" lon="8.081672">
        <ele>642.371814</ele>
        <time>2022-03-12T13:21:08.364Z</time>
      </trkpt>
      <trkpt lat="47.514922" lon="8.081562">
        <ele>642.949245</ele>
        <time>2022-03-12T13:21:15.404Z</time>
      </trkpt>
      <trkpt lat="47.514988" lon="8.081460">
        <ele>643.457232</ele>
        <time>2022-03-12T13:21:23.353Z</time>
      </trkpt>
      <trkpt lat="47.515042" lon="8.081351">
        <ele>643.943366</ele>
        <time>2022-03-12T13:21:33.364Z</time>
      </trkpt>
      <trkpt lat="47.515121" lon="8.081258">
        <ele>644.480762</ele>
        <time>2022-03-12T13:21:41.363Z</time>
      </trkpt>
      <trkpt lat="47.515206" lon="8.081157">
        <ele>645.061075</ele>
        <time>2022-03-12T13:21:48.354Z</time>
      </trkpt>
      <trkpt lat="47.515306" lon="8.081152">
        <ele>645.593838</ele>
        <time>2022-03-12T13:21:55.360Z</time>
      </trkpt>
      <trkpt lat="47.515395" lon="8.081081">
        <ele>646.132134</ele>
        <time>2022-03-12T13:22:05.373Z</time>
      </trkpt>
      <trkpt lat="47.515494" lon="8.081032">
        <ele>646.687941</ele>
        <time>2022-03-12T13:22:18.355Z</time>
      </trkpt>
      <trkpt lat="47.515608" lon="8.081015">
        <ele>647.276238</ele>
        <time>2022-03-12T13:22:27.356Z</time>
      </trkpt>
      <trkpt lat="47.515698" lon="8.080977">
        <ele>647.739837</ele>
        <time>2022-03-12T13:22:36.361Z</time>
      </trkpt>
      <trkpt lat="47.515796" lon="8.080981">
        <ele>648.225477</ele>
        <time>2022-03-12T13:22:43.384Z</time>
      </trkpt>
      <trkpt lat="47.515898" lon="8.081019">
        <ele>648.746495</ele>
        <time>2022-03-12T13:22:52.366Z</time>
      </trkpt>
      <trkpt lat="47.515999" lon="8.081066">
        <ele>649.270939</ele>
        <time>2022-03-12T13:22:59.398Z</time>
      </trkpt>
      <trkpt lat="47.516096" lon="8.081096">
        <ele>649.761812</ele>
        <time>2022-03-12T13:23:07.361Z</time>
      </trkpt>
      <trkpt lat="47.516176" lon="8.081188">
        <ele>650.263592</ele>
        <time>2022-03-12T13:23:15.360Z</time>
      </trkpt>
      <trkpt lat="47.516258" lon="8.081277">
        <ele>650.767234</ele>
        <time>2022-03-12T13:23:22.361Z</time>
      </trkpt>
      <trkpt lat="47.516339" lon="8.081368">
        <ele>651.270905</ele>
        <time>2022-03-12T13:23:29.362Z</time>
      </trkpt>
      <trkpt lat="47.516418" lon="8.081440">
        <ele>651.730436</ele>
        <time>2022-03-12T13:23:35.400Z</time>
      </trkpt>
      <trkpt lat="47.516455" lon="8.081581">
        <ele>652.236517</ele>
        <time>2022-03-12T13:23:44.389Z</time>
      </trkpt>
      <trkpt lat="47.516465" lon="8.081724">
        <ele>652.717491</ele>
        <time>2022-03-12T13:23:50.422Z</time>
      </trkpt>
      <trkpt lat="47.516519" lon="8.081832">
        <ele>653.167055</ele>
        <time>2022-03-12T13:23:56.438Z</time>
      </trkpt>
      <trkpt lat="47.516582" lon="8.081930">
        <ele>653.619701</ele>
        <time>2022-03-12T13:24:06.387Z</time>
      </trkpt>
      <trkpt lat="47.516663" lon="8.082041">
        <ele>654.166421</ele>
        <time>2022-03-12T13:24:26.426Z</time>
      </trkpt>
      <trkpt lat="47.516766" lon="8.082031">
        <ele>654.677740</ele>
        <time>2022-03-12T13:24:30.422Z</time>
      </trkpt>
      <trkpt lat="47.516867" lon="8.081993">
        <ele>655.193955</ele>
        <time>2022-03-12T13:24:35.389Z</time>
      </trkpt>
      <trkpt lat="47.516953" lon="8.081918">
        <ele>655.688369</ele>
        <time>2022-03-12T13:24:54.374Z</time>
      </trkpt>
      <trkpt lat="47.517041" lon="8.081888">
        <ele>655.625186</ele>
        <time>2022-03-12T13:25:00.384Z</time>
      </trkpt>
      <trkpt lat="47.517138" lon="8.081838">
        <ele>655.053735</ele>
        <time>2022-03-12T13:25:08.385Z</time>
      </trkpt>
      <trkpt lat="47.517234" lon="8.081799">
        <ele>654.499878</ele>
        <time>2022-03-12T13:25:15.420Z</time>
      </trkpt>
      <trkpt lat="47.517334" lon="8.081762">
        <ele>653.926397</ele>
        <time>2022-03-12T13:25:26.393Z</time>
      </trkpt>
      <trkpt lat="47.517418" lon="8.081707">
        <ele>653.415387</ele>
        <time>2022-03-12T13:25:34.417Z</time>
      </trkpt>
      <trkpt lat="47.517506" lon="8.081642">
        <ele>652.868240</ele>
        <time>2022-03-12T13:25:43.424Z</time>
      </trkpt>
      <trkpt lat="47.517573" lon="8.081531">
        <ele>652.308847</ele>
        <time>2022-03-12T13:25:50.397Z</time>
      </trkpt>
      <trkpt lat="47.517662" lon="8.081475">
        <ele>651.770820</ele>
        <time>2022-03-12T13:25:55.424Z</time>
      </trkpt>
      <trkpt lat="47.517733" lon="8.081386">
        <ele>651.253247</ele>
        <time>2022-03-12T13:26:04.381Z</time>
      </trkpt>
      <trkpt lat="47.517816" lon="8.081291">
        <ele>650.669574</ele>
        <time>2022-03-12T13:26:12.421Z</time>
      </trkpt>
      <trkpt lat="47.517876" lon="8.081185">
        <ele>650.149882</ele>
        <time>2022-03-12T13:26:20.418Z</time>
      </trkpt>
      <trkpt lat="47.517952" lon="8.081097">
        <ele>649.613100</ele>
        <time>2022-03-12T13:26:25.424Z</time>
      </trkpt>
      <trkpt lat="47.518043" lon="8.081065">
        <ele>649.092718</ele>
        <time>2022-03-12T13:26:32.379Z</time>
      </trkpt>
      <trkpt lat="47.518069" lon="8.080930">
        <ele>648.565231</ele>
        <time>2022-03-12T13:26:38.395Z</time>
      </trkpt>
      <trkpt lat="47.518105" lon="8.080799">
        <ele>648.033807</ele>
        <time>2022-03-12T13:26:44.384Z</time>
      </trkpt>
      <trkpt lat="47.518183" lon="8.080699">
        <ele>647.459769</ele>
        <time>2022-03-12T13:26:51.391Z</time>
      </trkpt>
      <trkpt lat="47.518269" lon="8.080660">
        <ele>646.959350</ele>
        <time>2022-03-12T13:26:57.378Z</time>
      </trkpt>
      <trkpt lat="47.518348" lon="8.080585">
        <ele>646.437230</ele>
        <time>2022-03-12T13:27:03.382Z</time>
      </trkpt>
      <trkpt lat="47.518423" lon="8.080506">
        <ele>645.925139</ele>
        <time>2022-03-12T13:27:10.394Z</time>
      </trkpt>
      <trkpt lat="47.518501" lon="8.080438">
        <ele>646.353974</ele>
        <time>2022-03-12T13:27:18.616Z</time>
      </trkpt>
      <trkpt lat="47.518586" lon="8.080388">
        <ele>646.862150</ele>
        <time>2022-03-12T13:27:25.378Z</time>
      </trkpt>
      <trkpt lat="47.518679" lon="8.080335">
        <ele>647.415823</ele>
        <time>2022-03-12T13:27:34.381Z</time>
      </trkpt>
      <trkpt lat="47.518767" lon="8.080291">
        <ele>647.931888</ele>
        <time>2022-03-12T13:27:42.381Z</time>
      </trkpt>
      <trkpt lat="47.518839" lon="8.080201">
        <ele>648.455418</ele>
        <time>2022-03-12T13:27:49.426Z</time>
      </trkpt>
      <trkpt lat="47.518876" lon="8.080076">
        <ele>648.967534</ele>
        <time>2022-03-12T13:28:00.394Z</time>
      </trkpt>
      <trkpt lat="47.518937" lon="8.079945">
        <ele>649.564609</ele>
        <time>2022-03-12T13:28:05.388Z</time>
      </trkpt>
      <trkpt lat="47.518978" lon="8.079818">
        <ele>650.092804</ele>
        <time>2022-03-12T13:28:11.423Z</time>
      </trkpt>
      <trkpt lat="47.519075" lon="8.079711">
        <ele>650.764865</ele>
        <time>2022-03-12T13:28:39.389Z</time>
      </trkpt>
      <trkpt lat="47.519151" lon="8.079634">
        <ele>651.276519</ele>
        <time>2022-03-12T13:28:48.379Z</time>
      </trkpt>
      <trkpt lat="47.519241" lon="8.079551">
        <ele>651.865629</ele>
        <time>2022-03-12T13:28:55.392Z</time>
      </trkpt>
      <trkpt lat="47.519318" lon="8.079475">
        <ele>652.379788</ele>
        <time>2022-03-12T13:29:03.422Z</time>
      </trkpt>
      <trkpt lat="47.519372" lon="8.079363">
        <ele>652.896156</ele>
        <time>2022-03-12T13:29:10.419Z</time>
      </trkpt>
      <trkpt lat="47.519428" lon="8.079244">
        <ele>653.440394</ele>
        <time>2022-03-12T13:29:18.383Z</time>
      </trkpt>
      <trkpt lat="47.519485" lon="8.079136">
        <ele>653.954714</ele>
        <time>2022-03-12T13:29:27.397Z</time>
      </trkpt>
      <trkpt lat="47.519547" lon="8.079027">
        <ele>654.489456</ele>
        <time>2022-03-12T13:29:38.379Z</time>
      </trkpt>
      <trkpt lat="47.519613" lon="8.078923">
        <ele>655.024955</ele>
        <time>2022-03-12T13:29:46.385Z</time>
      </trkpt>
      <trkpt lat="47.519681" lon="8.078823">
        <ele>655.557443</ele>
        <time>2022-03-12T13:29:55.388Z</time>
      </trkpt>
      <trkpt lat="47.519748" lon="8.078710">
        <ele>656.592287</ele>
        <time>2022-03-12T13:30:03.417Z</time>
      </trkpt>
      <trkpt lat="47.519829" lon="8.078634">
        <ele>658.169570</ele>
        <time>2022-03-12T13:30:11.390Z</time>
      </trkpt>
      <trkpt lat="47.519898" lon="8.078544">
        <ele>659.682048</ele>
        <time>2022-03-12T13:30:19.392Z</time>
      </trkpt>
      <trkpt lat="47.519974" lon="8.078455">
        <ele>661.275821</ele>
        <time>2022-03-12T13:30:29.384Z</time>
      </trkpt>
      <trkpt lat="47.520060" lon="8.078384">
        <ele>662.895400</ele>
        <time>2022-03-12T13:30:38.391Z</time>
      </trkpt>
      <trkpt lat="47.520139" lon="8.078310">
        <ele>664.433002</ele>
        <time>2022-03-12T13:30:46.390Z</time>
      </trkpt>
      <trkpt lat="47.520216" lon="8.078228">
        <ele>665.993065</ele>
        <time>2022-03-12T13:30:56.389Z</time>
      </trkpt>
      <trkpt lat="47.520284" lon="8.078127">
        <ele>667.577286</ele>
        <time>2022-03-12T13:31:08.388Z</time>
      </trkpt>
      <trkpt lat="47.520337" lon="8.078016">
        <ele>669.087348</ele>
        <time>2022-03-12T13:31:18.388Z</time>
      </trkpt>
      <trkpt lat="47.520396" lon="8.077904">
        <ele>670.665198</ele>
        <time>2022-03-12T13:31:29.417Z</time>
      </trkpt>
      <trkpt lat="47.520467" lon="8.077803">
        <ele>672.284632</ele>
        <time>2022-03-12T13:31:38.469Z</time>
      </trkpt>
      <trkpt lat="47.520531" lon="8.077700">
        <ele>673.839378</ele>
        <time>2022-03-12T13:31:48.388Z</time>
      </trkpt>
      <trkpt lat="47.520597" lon="8.077601">
        <ele>675.384653</ele>
        <time>2022-03-12T13:32:00.387Z</time>
      </trkpt>
      <trkpt lat="47.520651" lon="8.077495">
        <ele>676.859556</ele>
        <time>2022-03-12T13:32:08.392Z</time>
      </trkpt>
      <trkpt lat="47.520701" lon="8.077384">
        <ele>678.341671</ele>
        <time>2022-03-12T13:32:16.384Z</time>
      </trkpt>
      <trkpt lat="47.520746" lon="8.077253">
        <ele>679.974262</ele>
        <time>2022-03-12T13:32:26.399Z</time>
      </trkpt>
      <trkpt lat="47.520814" lon="8.077165">
        <ele>681.459712</ele>
        <time>2022-03-12T13:32:37.388Z</time>
      </trkpt>
      <trkpt lat="47.520880" lon="8.077263">
        <ele>682.997098</ele>
        <time>2022-03-12T13:32:55.380Z</time>
      </trkpt>
      <trkpt lat="47.520975" lon="8.077241">
        <ele>684.578700</ele>
        <time>2022-03-12T13:33:06.417Z</time>
      </trkpt>
      <trkpt lat="47.521069" lon="8.077247">
        <ele>685.995380</ele>
        <time>2022-03-12T13:33:18.419Z</time>
      </trkpt>
      <trkpt lat="47.521151" lon="8.077314">
        <ele>687.230144</ele>
        <time>2022-03-12T13:33:32.393Z</time>
      </trkpt>
      <trkpt lat="47.521242" lon="8.077327">
        <ele>688.435477</ele>
        <time>2022-03-12T13:33:46.392Z</time>
      </trkpt>
      <trkpt lat="47.521332" lon="8.077304">
        <ele>689.639595</ele>
        <time>2022-03-12T13:34:00.386Z</time>
      </trkpt>
      <trkpt lat="47.521424" lon="8.077317">
        <ele>690.858051</ele>
        <time>2022-03-12T13:34:16.377Z</time>
      </trkpt>
      <trkpt lat="47.521511" lon="8.077347">
        <ele>692.035766</ele>
        <time>2022-03-12T13:34:29.396Z</time>
      </trkpt>
      <trkpt lat="47.521603" lon="8.077345">
        <ele>693.248842</ele>
        <time>2022-03-12T13:34:46.388Z</time>
      </trkpt>
      <trkpt lat="47.521699" lon="8.077348">
        <ele>694.514807</ele>
        <time>2022-03-12T13:35:02.393Z</time>
      </trkpt>
      <trkpt lat="47.521791" lon="8.077316">
        <ele>695.760765</ele>
        <time>2022-03-12T13:35:14.384Z</time>
      </trkpt>
      <trkpt lat="47.521879" lon="8.077282">
        <ele>696.959816</ele>
        <time>2022-03-12T13:35:27.385Z</time>
      </trkpt>
      <trkpt lat="47.521969" lon="8.077288">
        <ele>698.147595</ele>
        <time>2022-03-12T13:35:38.402Z</time>
      </trkpt>
      <trkpt lat="47.522066" lon="8.077293">
        <ele>699.427237</ele>
        <time>2022-03-12T13:35:47.377Z</time>
      </trkpt>
      <trkpt lat="47.522172" lon="8.077223">
        <ele>700.957432</ele>
        <time>2022-03-12T13:35:58.387Z</time>
      </trkpt>
      <trkpt lat="47.522265" lon="8.077183">
        <ele>702.234236</ele>
        <time>2022-03-12T13:36:16.387Z</time>
      </trkpt>
      <trkpt lat="47.522355" lon="8.077172">
        <ele>703.424848</ele>
        <time>2022-03-12T13:36:25.386Z</time>
      </trkpt>
      <trkpt lat="47.522446" lon="8.077136">
        <ele>704.666686</ele>
        <time>2022-03-12T13:36:39.374Z</time>
      </trkpt>
      <trkpt lat="47.522536" lon="8.077076">
        <ele>705.967968</ele>
        <time>2022-03-12T13:36:48.386Z</time>
      </trkpt>
      <trkpt lat="47.522624" lon="8.077008">
        <ele>707.276640</ele>
        <time>2022-03-12T13:37:01.396Z</time>
      </trkpt>
      <trkpt lat="47.522715" lon="8.076987">
        <ele>708.490883</ele>
        <time>2022-03-12T13:37:11.397Z</time>
      </trkpt>
      <trkpt lat="47.522810" lon="8.076951">
        <ele>709.795000</ele>
        <time>2022-03-12T13:37:22.381Z</time>
      </trkpt>
      <trkpt lat="47.522900" lon="8.076921">
        <ele>711.033958</ele>
        <time>2022-03-12T13:37:31.377Z</time>
      </trkpt>
      <trkpt lat="47.522989" lon="8.076894">
        <ele>712.254068</ele>
        <time>2022-03-12T13:37:40.387Z</time>
      </trkpt>
      <trkpt lat="47.523032" lon="8.076776">
        <ele>713.470120</ele>
        <time>2022-03-12T13:37:50.385Z</time>
      </trkpt>
      <trkpt lat="47.523017" lon="8.076627">
        <ele>714.836380</ele>
        <time>2022-03-12T13:38:01.419Z</time>
      </trkpt>
      <trkpt lat="47.523052" lon="8.076504">
        <ele>716.046895</ele>
        <time>2022-03-12T13:38:07.384Z</time>
      </trkpt>
      <trkpt lat="47.523057" lon="8.076354">
        <ele>717.408947</ele>
        <time>2022-03-12T13:38:15.387Z</time>
      </trkpt>
      <trkpt lat="47.523050" lon="8.076207">
        <ele>718.745445</ele>
        <time>2022-03-12T13:38:26.417Z</time>
      </trkpt>
      <trkpt lat="47.523041" lon="8.076074">
        <ele>719.957703</ele>
        <time>2022-03-12T13:38:34.416Z</time>
      </trkpt>
      <trkpt lat="47.523031" lon="8.075934">
        <ele>721.234488</ele>
        <time>2022-03-12T13:38:43.383Z</time>
      </trkpt>
      <trkpt lat="47.523025" lon="8.075787">
        <ele>722.570109</ele>
        <time>2022-03-12T13:38:50.379Z</time>
      </trkpt>
      <trkpt lat="47.522992" lon="8.075657">
        <ele>723.829667</ele>
        <time>2022-03-12T13:39:00.388Z</time>
      </trkpt>
      <trkpt lat="47.522975" lon="8.075523">
        <ele>725.066215</ele>
        <time>2022-03-12T13:39:08.415Z</time>
      </trkpt>
      <trkpt lat="47.522940" lon="8.075383">
        <ele>726.420136</ele>
        <time>2022-03-12T13:39:14.423Z</time>
      </trkpt>
      <trkpt lat="47.522939" lon="8.075247">
        <ele>727.653637</ele>
        <time>2022-03-12T13:39:22.382Z</time>
      </trkpt>
      <trkpt lat="47.522932" lon="8.075101">
        <ele>728.981091</ele>
        <time>2022-03-12T13:39:31.379Z</time>
      </trkpt>
      <trkpt lat="47.522919" lon="8.074962">
        <ele>730.253759</ele>
        <time>2022-03-12T13:39:41.388Z</time>
      </trkpt>
      <trkpt lat="47.522901" lon="8.074816">
        <ele>731.599767</ele>
        <time>2022-03-12T13:39:50.385Z</time>
      </trkpt>
      <trkpt lat="47.522929" lon="8.074679">
        <ele>732.897923</ele>
        <time>2022-03-12T13:39:56.390Z</time>
      </trkpt>
      <trkpt lat="47.522904" lon="8.074547">
        <ele>733.149348</ele>
        <time>2022-03-12T13:40:03.396Z</time>
      </trkpt>
      <trkpt lat="47.522888" lon="8.074410">
        <ele>732.856381</ele>
        <time>2022-03-12T13:40:11.388Z</time>
      </trkpt>
      <trkpt lat="47.522834" lon="8.074282">
        <ele>732.538356</ele>
        <time>2022-03-12T13:40:18.393Z</time>
      </trkpt>
      <trkpt lat="47.522807" lon="8.074148">
        <ele>732.243693</ele>
        <time>2022-03-12T13:40:26.383Z</time>
      </trkpt>
      <trkpt lat="47.522784" lon="8.074010">
        <ele>731.944178</ele>
        <time>2022-03-12T13:40:31.387Z</time>
      </trkpt>
      <trkpt lat="47.522776" lon="8.073872">
        <ele>731.652318</ele>
        <time>2022-03-12T13:40:38.386Z</time>
      </trkpt>
      <trkpt lat="47.522762" lon="8.073735">
        <ele>731.360348</ele>
        <time>2022-03-12T13:40:46.396Z</time>
      </trkpt>
      <trkpt lat="47.522744" lon="8.073592">
        <ele>731.053832</ele>
        <time>2022-03-12T13:40:59.694Z</time>
      </trkpt>
      <trkpt lat="47.522684" lon="8.073473">
        <ele>730.740895</ele>
        <time>2022-03-12T13:41:03.427Z</time>
      </trkpt>
      <trkpt lat="47.522683" lon="8.073333">
        <ele>730.445874</ele>
        <time>2022-03-12T13:41:11.385Z</time>
      </trkpt>
      <trkpt lat="47.522621" lon="8.073233">
        <ele>730.159814</ele>
        <time>2022-03-12T13:41:19.395Z</time>
      </trkpt>
      <trkpt lat="47.522567" lon="8.073114">
        <ele>729.857705</ele>
        <time>2022-03-12T13:41:24.394Z</time>
      </trkpt>
      <trkpt lat="47.522529" lon="8.072963">
        <ele>729.518144</ele>
        <time>2022-03-12T13:41:35.386Z</time>
      </trkpt>
      <trkpt lat="47.522511" lon="8.072817">
        <ele>729.205410</ele>
        <time>2022-03-12T13:41:42.393Z</time>
      </trkpt>
      <trkpt lat="47.522509" lon="8.072678">
        <ele>728.912445</ele>
        <time>2022-03-12T13:41:49.382Z</time>
      </trkpt>
      <trkpt lat="47.522479" lon="8.072534">
        <ele>728.594899</ele>
        <time>2022-03-12T13:41:56.396Z</time>
      </trkpt>
      <trkpt lat="47.522470" lon="8.072388">
        <ele>728.285970</ele>
        <time>2022-03-12T13:42:01.395Z</time>
      </trkpt>
      <trkpt lat="47.522425" lon="8.072254">
        <ele>727.970620</ele>
        <time>2022-03-12T13:42:11.440Z</time>
      </trkpt>
      <trkpt lat="47.522393" lon="8.072116">
        <ele>728.155797</ele>
        <time>2022-03-12T13:42:19.379Z</time>
      </trkpt>
      <trkpt lat="47.522382" lon="8.071977">
        <ele>730.251503</ele>
        <time>2022-03-12T13:42:28.387Z</time>
      </trkpt>
      <trkpt lat="47.522352" lon="8.071834">
        <ele>732.493817</ele>
        <time>2022-03-12T13:42:36.388Z</time>
      </trkpt>
      <trkpt lat="47.522352" lon="8.071689">
        <ele>734.665128</ele>
        <time>2022-03-12T13:42:45.387Z</time>
      </trkpt>
      <trkpt lat="47.522365" lon="8.071557">
        <ele>736.662680</ele>
        <time>2022-03-12T13:42:51.387Z</time>
      </trkpt>
      <trkpt lat="47.522394" lon="8.071423">
        <ele>738.769795</ele>
        <time>2022-03-12T13:43:01.385Z</time>
      </trkpt>
      <trkpt lat="47.522486" lon="8.071393">
        <ele>740.858735</ele>
        <time>2022-03-12T13:43:11.392Z</time>
      </trkpt>
      <trkpt lat="47.522580" lon="8.071393">
        <ele>742.943147</ele>
        <time>2022-03-12T13:43:22.373Z</time>
      </trkpt>
      <trkpt lat="47.522677" lon="8.071341">
        <ele>745.230691</ele>
        <time>2022-03-12T13:43:34.379Z</time>
      </trkpt>
      <trkpt lat="47.522782" lon="8.071357">
        <ele>747.571318</ele>
        <time>2022-03-12T13:43:42.389Z</time>
      </trkpt>
      <trkpt lat="47.522874" lon="8.071367">
        <ele>749.616870</ele>
        <time>2022-03-12T13:43:52.382Z</time>
      </trkpt>
      <trkpt lat="47.522965" lon="8.071345">
        <ele>751.661473</ele>
        <time>2022-03-12T13:44:01.420Z</time>
      </trkpt>
      <trkpt lat="47.523051" lon="8.071303">
        <ele>753.669520</ele>
        <time>2022-03-12T13:44:09.417Z</time>
      </trkpt>
      <trkpt lat="47.523150" lon="8.071296">
        <ele>755.867306</ele>
        <time>2022-03-12T13:44:22.401Z</time>
      </trkpt>
      <trkpt lat="47.523234" lon="8.071366">
        <ele>758.004653</ele>
        <time>2022-03-12T13:44:34.374Z</time>
      </trkpt>
      <trkpt lat="47.523270" lon="8.071266">
        <ele>759.701579</ele>
        <time>2022-03-12T13:45:21.748Z</time>
      </trkpt>
      <trkpt lat="47.523364" lon="8.071373">
        <ele>762.330643</ele>
        <time>2022-03-12T13:46:26.396Z</time>
      </trkpt>
      <trkpt lat="47.523450" lon="8.071446">
        <ele>764.528738</ele>
        <time>2022-03-12T13:46:36.394Z</time>
      </trkpt>
      <trkpt lat="47.523490" lon="8.071576">
        <ele>766.667941</ele>
        <time>2022-03-12T13:46:46.389Z</time>
      </trkpt>
      <trkpt lat="47.523540" lon="8.071691">
        <ele>767.730691</ele>
        <time>2022-03-12T13:46:55.472Z</time>
      </trkpt>
      <trkpt lat="47.523556" lon="8.071826">
        <ele>767.957753</ele>
        <time>2022-03-12T13:47:02.418Z</time>
      </trkpt>
      <trkpt lat="47.523633" lon="8.071909">
        <ele>768.191393</ele>
        <time>2022-03-12T13:47:09.387Z</time>
      </trkpt>
      <trkpt lat="47.523658" lon="8.071943">
        <ele>768.274663</ele>
        <time>2022-03-12T13:47:12.800Z</time>
      </trkpt>
      <trkpt lat="47.523735" lon="8.072057">
        <ele>768.541772</ele>
        <time>2022-03-12T13:49:39.092Z</time>
      </trkpt>
      <trkpt lat="47.523706" lon="8.072196">
        <ele>768.782780</ele>
        <time>2022-03-12T13:49:44.092Z</time>
      </trkpt>
      <trkpt lat="47.523716" lon="8.072376">
        <ele>769.081978</ele>
        <time>2022-03-12T13:49:52.091Z</time>
      </trkpt>
      <trkpt lat="47.523808" lon="8.072304">
        <ele>769.337251</ele>
        <time>2022-03-12T13:49:54.092Z</time>
      </trkpt>
      <trkpt lat="47.523715" lon="8.072389">
        <ele>769.605354</ele>
        <time>2022-03-12T13:50:01.092Z</time>
      </trkpt>
      <trkpt lat="47.523799" lon="8.072570">
        <ele>769.969184</ele>
        <time>2022-03-12T13:50:07.088Z</time>
      </trkpt>
      <trkpt lat="47.523813" lon="8.072717">
        <ele>770.215115</ele>
        <time>2022-03-12T13:50:16.383Z</time>
      </trkpt>
      <trkpt lat="47.523864" lon="8.072830">
        <ele>770.440272</ele>
        <time>2022-03-12T13:50:25.388Z</time>
      </trkpt>
      <trkpt lat="47.523916" lon="8.072945">
        <ele>770.669547</ele>
        <time>2022-03-12T13:50:34.390Z</time>
      </trkpt>
      <trkpt lat="47.523943" lon="8.073089">
        <ele>770.917123</ele>
        <time>2022-03-12T13:50:46.394Z</time>
      </trkpt>
      <trkpt lat="47.523924" lon="8.073238">
        <ele>771.168319</ele>
        <time>2022-03-12T13:50:54.390Z</time>
      </trkpt>
      <trkpt lat="47.523930" lon="8.073385">
        <ele>771.412284</ele>
        <time>2022-03-12T13:51:00.390Z</time>
      </trkpt>
      <trkpt lat="47.523964" lon="8.073525">
        <ele>771.658751</ele>
        <time>2022-03-12T13:51:09.395Z</time>
      </trkpt>
      <trkpt lat="47.524002" lon="8.073656">
        <ele>771.894941</ele>
        <time>2022-03-12T13:51:20.393Z</time>
      </trkpt>
      <trkpt lat="47.524035" lon="8.073809">
        <ele>771.602693</ele>
        <time>2022-03-12T13:51:26.401Z</time>
      </trkpt>
      <trkpt lat="47.524048" lon="8.073953">
        <ele>770.886716</ele>
        <time>2022-03-12T13:51:32.389Z</time>
      </trkpt>
      <trkpt lat="47.524056" lon="8.074090">
        <ele>770.209030</ele>
        <time>2022-03-12T13:51:42.387Z</time>
      </trkpt>
      <trkpt lat="47.524113" lon="8.074221">
        <ele>769.441020</ele>
        <time>2022-03-12T13:51:51.385Z</time>
      </trkpt>
      <trkpt lat="47.524141" lon="8.074358">
        <ele>768.735609</ele>
        <time>2022-03-12T13:51:57.414Z</time>
      </trkpt>
      <trkpt lat="47.524162" lon="8.074495">
        <ele>768.043269</ele>
        <time>2022-03-12T13:52:06.416Z</time>
      </trkpt>
      <trkpt lat="47.524158" lon="8.074629">
        <ele>767.382244</ele>
        <time>2022-03-12T13:52:14.389Z</time>
      </trkpt>
      <trkpt lat="47.524147" lon="8.074761">
        <ele>766.726786</ele>
        <time>2022-03-12T13:52:24.386Z</time>
      </trkpt>
      <trkpt lat="47.524132" lon="8.074899">
        <ele>766.037939</ele>
        <time>2022-03-12T13:52:31.393Z</time>
      </trkpt>
      <trkpt lat="47.524143" lon="8.075047">
        <ele>765.304159</ele>
        <time>2022-03-12T13:52:36.400Z</time>
      </trkpt>
      <trkpt lat="47.524194" lon="8.075162">
        <ele>764.626125</ele>
        <time>2022-03-12T13:52:45.415Z</time>
      </trkpt>
      <trkpt lat="47.524191" lon="8.075297">
        <ele>763.960457</ele>
        <time>2022-03-12T13:52:52.403Z</time>
      </trkpt>
      <trkpt lat="47.524195" lon="8.075441">
        <ele>763.250196</ele>
        <time>2022-03-12T13:52:59.437Z</time>
      </trkpt>
      <trkpt lat="47.524215" lon="8.075571">
        <ele>762.593113</ele>
        <time>2022-03-12T13:53:09.386Z</time>
      </trkpt>
      <trkpt lat="47.524202" lon="8.075709">
        <ele>761.906435</ele>
        <time>2022-03-12T13:53:18.379Z</time>
      </trkpt>
      <trkpt lat="47.524252" lon="8.075824">
        <ele>761.232380</ele>
        <time>2022-03-12T13:53:26.377Z</time>
      </trkpt>
      <trkpt lat="47.524237" lon="8.075985">
        <ele>760.431423</ele>
        <time>2022-03-12T13:53:34.376Z</time>
      </trkpt>
      <trkpt lat="47.524210" lon="8.076123">
        <ele>759.723361</ele>
        <time>2022-03-12T13:53:42.394Z</time>
      </trkpt>
      <trkpt lat="47.524251" lon="8.076242">
        <ele>759.064982</ele>
        <time>2022-03-12T13:53:50.392Z</time>
      </trkpt>
      <trkpt lat="47.524280" lon="8.076368">
        <ele>757.918937</ele>
        <time>2022-03-12T13:53:58.386Z</time>
      </trkpt>
      <trkpt lat="47.524310" lon="8.076497">
        <ele>756.567293</ele>
        <time>2022-03-12T13:54:08.389Z</time>
      </trkpt>
      <trkpt lat="47.524346" lon="8.076622">
        <ele>755.221019</ele>
        <time>2022-03-12T13:54:18.388Z</time>
      </trkpt>
      <trkpt lat="47.524365" lon="8.076762">
        <ele>753.806332</ele>
        <time>2022-03-12T13:54:26.403Z</time>
      </trkpt>
      <trkpt lat="47.524357" lon="8.076898">
        <ele>752.453904</ele>
        <time>2022-03-12T13:54:37.390Z</time>
      </trkpt>
      <trkpt lat="47.524389" lon="8.077027">
        <ele>751.092425</ele>
        <time>2022-03-12T13:54:43.394Z</time>
      </trkpt>
      <trkpt lat="47.524406" lon="8.077159">
        <ele>749.761157</ele>
        <time>2022-03-12T13:54:55.385Z</time>
      </trkpt>
      <trkpt lat="47.524416" lon="8.077298">
        <ele>748.376319</ele>
        <time>2022-03-12T13:55:05.387Z</time>
      </trkpt>
      <trkpt lat="47.524421" lon="8.077432">
        <ele>747.046783</ele>
        <time>2022-03-12T13:55:15.383Z</time>
      </trkpt>
      <trkpt lat="47.524418" lon="8.077574">
        <ele>745.639329</ele>
        <time>2022-03-12T13:55:26.379Z</time>
      </trkpt>
      <trkpt lat="47.524438" lon="8.077718">
        <ele>744.182888</ele>
        <time>2022-03-12T13:55:37.404Z</time>
      </trkpt>
      <trkpt lat="47.524466" lon="8.077855">
        <ele>742.764856</ele>
        <time>2022-03-12T13:55:46.395Z</time>
      </trkpt>
      <trkpt lat="47.524457" lon="8.077998">
        <ele>741.342045</ele>
        <time>2022-03-12T13:55:56.389Z</time>
      </trkpt>
      <trkpt lat="47.524447" lon="8.078152">
        <ele>739.809362</ele>
        <time>2022-03-12T13:56:04.401Z</time>
      </trkpt>
      <trkpt lat="47.524496" lon="8.078267">
        <ele>738.462243</ele>
        <time>2022-03-12T13:56:13.391Z</time>
      </trkpt>
      <trkpt lat="47.524483" lon="8.078403">
        <ele>737.101488</ele>
        <time>2022-03-12T13:56:32.390Z</time>
      </trkpt>
      <trkpt lat="47.524379" lon="8.078437">
        <ele>735.538994</ele>
        <time>2022-03-12T13:56:37.394Z</time>
      </trkpt>
      <trkpt lat="47.524366" lon="8.078584">
        <ele>734.070258</ele>
        <time>2022-03-12T13:56:49.202Z</time>
      </trkpt>
      <trkpt lat="47.524446" lon="8.078675">
        <ele>732.590321</ele>
        <time>2022-03-12T13:56:59.392Z</time>
      </trkpt>
      <trkpt lat="47.524444" lon="8.078831">
        <ele>731.305127</ele>
        <time>2022-03-12T13:57:07.388Z</time>
      </trkpt>
      <trkpt lat="47.524419" lon="8.078983">
        <ele>730.031474</ele>
        <time>2022-03-12T13:57:22.386Z</time>
      </trkpt>
      <trkpt lat="47.524426" lon="8.079125">
        <ele>728.872335</ele>
        <time>2022-03-12T13:57:31.386Z</time>
      </trkpt>
      <trkpt lat="47.524396" lon="8.079256">
        <ele>727.746164</ele>
        <time>2022-03-12T13:57:41.388Z</time>
      </trkpt>
      <trkpt lat="47.524334" lon="8.079354">
        <ele>726.652868</ele>
        <time>2022-03-12T13:57:53.384Z</time>
      </trkpt>
      <trkpt lat="47.524276" lon="8.079464">
        <ele>725.516661</ele>
        <time>2022-03-12T13:58:01.389Z</time>
      </trkpt>
      <trkpt lat="47.524220" lon="8.079573">
        <ele>724.401622</ele>
        <time>2022-03-12T13:58:11.385Z</time>
      </trkpt>
      <trkpt lat="47.524166" lon="8.079683">
        <ele>723.294440</ele>
        <time>2022-03-12T13:58:25.392Z</time>
      </trkpt>
      <trkpt lat="47.524091" lon="8.079766">
        <ele>722.165626</ele>
        <time>2022-03-12T13:58:35.392Z</time>
      </trkpt>
      <trkpt lat="47.524027" lon="8.079891">
        <ele>720.888514</ele>
        <time>2022-03-12T13:58:47.387Z</time>
      </trkpt>
      <trkpt lat="47.523956" lon="8.079976">
        <ele>719.787782</ele>
        <time>2022-03-12T13:58:57.413Z</time>
      </trkpt>
      <trkpt lat="47.523868" lon="8.079944">
        <ele>718.695315</ele>
        <time>2022-03-12T13:59:08.389Z</time>
      </trkpt>
      <trkpt lat="47.523817" lon="8.079826">
        <ele>717.554712</ele>
        <time>2022-03-12T13:59:17.382Z</time>
      </trkpt>
      <trkpt lat="47.523734" lon="8.079763">
        <ele>716.430252</ele>
        <time>2022-03-12T13:59:37.458Z</time>
      </trkpt>
      <trkpt lat="47.523645" lon="8.079724">
        <ele>715.311254</ele>
        <time>2022-03-12T13:59:45.396Z</time>
      </trkpt>
      <trkpt lat="47.523536" lon="8.079741">
        <ele>713.989855</ele>
        <time>2022-03-12T13:59:51.435Z</time>
      </trkpt>
      <trkpt lat="47.523439" lon="8.079740">
        <ele>712.820371</ele>
        <time>2022-03-12T13:59:56.399Z</time>
      </trkpt>
      <trkpt lat="47.523358" lon="8.079813">
        <ele>711.677181</ele>
        <time>2022-03-12T14:00:06.413Z</time>
      </trkpt>
      <trkpt lat="47.523278" lon="8.079886">
        <ele>710.402236</ele>
        <time>2022-03-12T14:00:12.389Z</time>
      </trkpt>
      <trkpt lat="47.523187" lon="8.079890">
        <ele>708.742688</ele>
        <time>2022-03-12T14:00:19.386Z</time>
      </trkpt>
      <trkpt lat="47.523087" lon="8.079906">
        <ele>706.909202</ele>
        <time>2022-03-12T14:00:29.382Z</time>
      </trkpt>
      <trkpt lat="47.522997" lon="8.079958">
        <ele>705.148159</ele>
        <time>2022-03-12T14:00:35.386Z</time>
      </trkpt>
      <trkpt lat="47.522919" lon="8.080035">
        <ele>703.439339</ele>
        <time>2022-03-12T14:00:48.389Z</time>
      </trkpt>
      <trkpt lat="47.522844" lon="8.080113">
        <ele>701.768700</ele>
        <time>2022-03-12T14:00:53.389Z</time>
      </trkpt>
      <trkpt lat="47.522760" lon="8.080191">
        <ele>699.961341</ele>
        <time>2022-03-12T14:01:00.381Z</time>
      </trkpt>
      <trkpt lat="47.522673" lon="8.080244">
        <ele>698.246482</ele>
        <time>2022-03-12T14:01:07.406Z</time>
      </trkpt>
      <trkpt lat="47.522584" lon="8.080280">
        <ele>696.564686</ele>
        <time>2022-03-12T14:01:14.387Z</time>
      </trkpt>
      <trkpt lat="47.522484" lon="8.080287">
        <ele>694.739774</ele>
        <time>2022-03-12T14:01:21.461Z</time>
      </trkpt>
      <trkpt lat="47.522387" lon="8.080303">
        <ele>692.960647</ele>
        <time>2022-03-12T14:01:32.392Z</time>
      </trkpt>
      <trkpt lat="47.522299" lon="8.080349">
        <ele>691.259505</ele>
        <time>2022-03-12T14:01:42.383Z</time>
      </trkpt>
      <trkpt lat="47.522196" lon="8.080420">
        <ele>689.188483</ele>
        <time>2022-03-12T14:01:52.392Z</time>
      </trkpt>
      <trkpt lat="47.522100" lon="8.080491">
        <ele>687.232401</ele>
        <time>2022-03-12T14:01:59.413Z</time>
      </trkpt>
      <trkpt lat="47.522002" lon="8.080541">
        <ele>685.342922</ele>
        <time>2022-03-12T14:02:12.374Z</time>
      </trkpt>
      <trkpt lat="47.521908" lon="8.080598">
        <ele>683.491317</ele>
        <time>2022-03-12T14:02:20.413Z</time>
      </trkpt>
      <trkpt lat="47.521811" lon="8.080612">
        <ele>681.714748</ele>
        <time>2022-03-12T14:02:29.389Z</time>
      </trkpt>
      <trkpt lat="47.521751" lon="8.080726">
        <ele>679.935528</ele>
        <time>2022-03-12T14:02:47.388Z</time>
      </trkpt>
      <trkpt lat="47.521670" lon="8.080804">
        <ele>678.174251</ele>
        <time>2022-03-12T14:02:57.397Z</time>
      </trkpt>
      <trkpt lat="47.521593" lon="8.080892">
        <ele>676.661858</ele>
        <time>2022-03-12T14:03:05.394Z</time>
      </trkpt>
      <trkpt lat="47.521512" lon="8.080972">
        <ele>675.170240</ele>
        <time>2022-03-12T14:03:15.383Z</time>
      </trkpt>
      <trkpt lat="47.521430" lon="8.081045">
        <ele>673.704447</ele>
        <time>2022-03-12T14:03:23.386Z</time>
      </trkpt>
      <trkpt lat="47.521345" lon="8.081088">
        <ele>672.328348</ele>
        <time>2022-03-12T14:03:31.378Z</time>
      </trkpt>
      <trkpt lat="47.521261" lon="8.081140">
        <ele>670.933536</ele>
        <time>2022-03-12T14:03:39.383Z</time>
      </trkpt>
      <trkpt lat="47.521181" lon="8.081217">
        <ele>669.471779</ele>
        <time>2022-03-12T14:03:51.393Z</time>
      </trkpt>
      <trkpt lat="47.521096" lon="8.081295">
        <ele>667.939801</ele>
        <time>2022-03-12T14:04:00.389Z</time>
      </trkpt>
      <trkpt lat="47.520997" lon="8.081327">
        <ele>666.387402</ele>
        <time>2022-03-12T14:04:08.387Z</time>
      </trkpt>
      <trkpt lat="47.520918" lon="8.081392">
        <ele>665.002835</ele>
        <time>2022-03-12T14:04:17.391Z</time>
      </trkpt>
      <trkpt lat="47.520831" lon="8.081473">
        <ele>663.428427</ele>
        <time>2022-03-12T14:04:25.383Z</time>
      </trkpt>
      <trkpt lat="47.520745" lon="8.081514">
        <ele>662.044301</ele>
        <time>2022-03-12T14:04:31.442Z</time>
      </trkpt>
      <trkpt lat="47.520664" lon="8.081596">
        <ele>660.541095</ele>
        <time>2022-03-12T14:04:42.387Z</time>
      </trkpt>
      <trkpt lat="47.520593" lon="8.081699">
        <ele>659.018357</ele>
        <time>2022-03-12T14:04:53.393Z</time>
      </trkpt>
      <trkpt lat="47.520503" lon="8.081748">
        <ele>657.549307</ele>
        <time>2022-03-12T14:04:59.392Z</time>
      </trkpt>
      <trkpt lat="47.520419" lon="8.081805">
        <ele>656.133734</ele>
        <time>2022-03-12T14:05:08.406Z</time>
      </trkpt>
      <trkpt lat="47.520327" lon="8.081845">
        <ele>654.664788</ele>
        <time>2022-03-12T14:05:15.418Z</time>
      </trkpt>
      <trkpt lat="47.520246" lon="8.081905">
        <ele>653.277257</ele>
        <time>2022-03-12T14:05:27.391Z</time>
      </trkpt>
      <trkpt lat="47.520155" lon="8.081961">
        <ele>651.767532</ele>
        <time>2022-03-12T14:05:34.386Z</time>
      </trkpt>
      <trkpt lat="47.520053" lon="8.081989">
        <ele>650.736941</ele>
        <time>2022-03-12T14:05:41.412Z</time>
      </trkpt>
      <trkpt lat="47.519964" lon="8.082021">
        <ele>651.937501</ele>
        <time>2022-03-12T14:05:47.424Z</time>
      </trkpt>
      <trkpt lat="47.519870" lon="8.082077">
        <ele>653.265690</ele>
        <time>2022-03-12T14:05:54.383Z</time>
      </trkpt>
      <trkpt lat="47.519789" lon="8.082167">
        <ele>654.593167</ele>
        <time>2022-03-12T14:06:01.390Z</time>
      </trkpt>
      <trkpt lat="47.519695" lon="8.082201">
        <ele>655.861598</ele>
        <time>2022-03-12T14:06:09.395Z</time>
      </trkpt>
      <trkpt lat="47.519599" lon="8.082175">
        <ele>657.140893</ele>
        <time>2022-03-12T14:06:21.386Z</time>
      </trkpt>
      <trkpt lat="47.519501" lon="8.082159">
        <ele>658.433314</ele>
        <time>2022-03-12T14:06:32.384Z</time>
      </trkpt>
      <trkpt lat="47.519408" lon="8.082172">
        <ele>659.657828</ele>
        <time>2022-03-12T14:06:42.383Z</time>
      </trkpt>
      <trkpt lat="47.519317" lon="8.082179">
        <ele>660.852313</ele>
        <time>2022-03-12T14:06:52.465Z</time>
      </trkpt>
      <trkpt lat="47.519225" lon="8.082171">
        <ele>662.060376</ele>
        <time>2022-03-12T14:07:08.419Z</time>
      </trkpt>
      <trkpt lat="47.519130" lon="8.082153">
        <ele>663.315840</ele>
        <time>2022-03-12T14:07:17.389Z</time>
      </trkpt>
      <trkpt lat="47.519038" lon="8.082144">
        <ele>664.524455</ele>
        <time>2022-03-12T14:07:32.401Z</time>
      </trkpt>
      <trkpt lat="47.518945" lon="8.082153">
        <ele>665.746149</ele>
        <time>2022-03-12T14:07:45.387Z</time>
      </trkpt>
      <trkpt lat="47.518854" lon="8.082191">
        <ele>666.985554</ele>
        <time>2022-03-12T14:07:54.387Z</time>
      </trkpt>
      <trkpt lat="47.518765" lon="8.082215">
        <ele>668.171402</ele>
        <time>2022-03-12T14:08:13.395Z</time>
      </trkpt>
      <trkpt lat="47.518667" lon="8.082219">
        <ele>669.456526</ele>
        <time>2022-03-12T14:08:32.387Z</time>
      </trkpt>
      <trkpt lat="47.518598" lon="8.082309">
        <ele>670.661898</ele>
        <time>2022-03-12T14:08:44.396Z</time>
      </trkpt>
      <trkpt lat="47.518581" lon="8.082451">
        <ele>671.938603</ele>
        <time>2022-03-12T14:09:08.420Z</time>
      </trkpt>
      <trkpt lat="47.518531" lon="8.082573">
        <ele>673.201968</ele>
        <time>2022-03-12T14:09:17.389Z</time>
      </trkpt>
      <trkpt lat="47.518433" lon="8.082589">
        <ele>674.252193</ele>
        <time>2022-03-12T14:09:32.389Z</time>
      </trkpt>
      <trkpt lat="47.518336" lon="8.082642">
        <ele>674.857196</ele>
        <time>2022-03-12T14:09:40.391Z</time>
      </trkpt>
      <trkpt lat="47.518242" lon="8.082662">
        <ele>675.412884</ele>
        <time>2022-03-12T14:09:48.411Z</time>
      </trkpt>
      <trkpt lat="47.518151" lon="8.082726">
        <ele>676.002380</ele>
        <time>2022-03-12T14:09:55.386Z</time>
      </trkpt>
      <trkpt lat="47.518089" lon="8.082839">
        <ele>676.577732</ele>
        <time>2022-03-12T14:10:04.378Z</time>
      </trkpt>
      <trkpt lat="47.518083" lon="8.082985">
        <ele>677.155767</ele>
        <time>2022-03-12T14:10:11.420Z</time>
      </trkpt>
      <trkpt lat="47.518131" lon="8.083110">
        <ele>677.724013</ele>
        <time>2022-03-12T14:10:18.388Z</time>
      </trkpt>
      <trkpt lat="47.518184" lon="8.083224">
        <ele>678.270948</ele>
        <time>2022-03-12T14:10:25.412Z</time>
      </trkpt>
      <trkpt lat="47.518207" lon="8.083369">
        <ele>678.859555</ele>
        <time>2022-03-12T14:10:33.412Z</time>
      </trkpt>
      <trkpt lat="47.518214" lon="8.083507">
        <ele>679.406443</ele>
        <time>2022-03-12T14:10:41.389Z</time>
      </trkpt>
      <trkpt lat="47.518219" lon="8.083654">
        <ele>679.988098</ele>
        <time>2022-03-12T14:10:49.390Z</time>
      </trkpt>
      <trkpt lat="47.518221" lon="8.083792">
        <ele>680.533575</ele>
        <time>2022-03-12T14:10:57.413Z</time>
      </trkpt>
      <trkpt lat="47.518200" lon="8.083922">
        <ele>681.061804</ele>
        <time>2022-03-12T14:11:05.610Z</time>
      </trkpt>
      <trkpt lat="47.518185" lon="8.084058">
        <ele>681.606372</ele>
        <time>2022-03-12T14:11:15.390Z</time>
      </trkpt>
      <trkpt lat="47.518176" lon="8.084214">
        <ele>682.225102</ele>
        <time>2022-03-12T14:11:21.393Z</time>
      </trkpt>
      <trkpt lat="47.518163" lon="8.084368">
        <ele>682.838419</ele>
        <time>2022-03-12T14:11:27.393Z</time>
      </trkpt>
      <trkpt lat="47.518150" lon="8.084510">
        <ele>683.404711</ele>
        <time>2022-03-12T14:11:36.395Z</time>
      </trkpt>
      <trkpt lat="47.518164" lon="8.084646">
        <ele>683.948368</ele>
        <time>2022-03-12T14:11:44.397Z</time>
      </trkpt>
      <trkpt lat="47.518175" lon="8.084778">
        <ele>684.473965</ele>
        <time>2022-03-12T14:11:51.390Z</time>
      </trkpt>
      <trkpt lat="47.518219" lon="8.084899">
        <ele>684.437606</ele>
        <time>2022-03-12T14:11:59.385Z</time>
      </trkpt>
      <trkpt lat="47.518216" lon="8.085033">
        <ele>684.262378</ele>
        <time>2022-03-12T14:12:06.401Z</time>
      </trkpt>
      <trkpt lat="47.518192" lon="8.085176">
        <ele>684.069799</ele>
        <time>2022-03-12T14:12:14.389Z</time>
      </trkpt>
      <trkpt lat="47.518219" lon="8.085313">
        <ele>683.883278</ele>
        <time>2022-03-12T14:12:21.387Z</time>
      </trkpt>
      <trkpt lat="47.518192" lon="8.085452">
        <ele>683.694246</ele>
        <time>2022-03-12T14:12:28.388Z</time>
      </trkpt>
      <trkpt lat="47.518158" lon="8.085589">
        <ele>683.503487</ele>
        <time>2022-03-12T14:12:36.389Z</time>
      </trkpt>
      <trkpt lat="47.518172" lon="8.085731">
        <ele>683.315932</ele>
        <time>2022-03-12T14:12:42.390Z</time>
      </trkpt>
      <trkpt lat="47.518178" lon="8.085877">
        <ele>683.124764</ele>
        <time>2022-03-12T14:12:50.394Z</time>
      </trkpt>
      <trkpt lat="47.518194" lon="8.086015">
        <ele>682.941765</ele>
        <time>2022-03-12T14:12:54.390Z</time>
      </trkpt>
      <trkpt lat="47.518211" lon="8.086156">
        <ele>682.754571</ele>
        <time>2022-03-12T14:13:03.399Z</time>
      </trkpt>
      <trkpt lat="47.518260" lon="8.086268">
        <ele>682.580162</ele>
        <time>2022-03-12T14:13:08.389Z</time>
      </trkpt>
      <trkpt lat="47.518303" lon="8.086385">
        <ele>682.406073</ele>
        <time>2022-03-12T14:13:15.385Z</time>
      </trkpt>
      <trkpt lat="47.518351" lon="8.086514">
        <ele>682.213580</ele>
        <time>2022-03-12T14:13:21.388Z</time>
      </trkpt>
      <trkpt lat="47.518368" lon="8.086659">
        <ele>682.021238</ele>
        <time>2022-03-12T14:13:27.451Z</time>
      </trkpt>
      <trkpt lat="47.518411" lon="8.086796">
        <ele>681.823794</ele>
        <time>2022-03-12T14:13:38.395Z</time>
      </trkpt>
      <trkpt lat="47.518463" lon="8.086906">
        <ele>681.648309</ele>
        <time>2022-03-12T14:13:43.391Z</time>
      </trkpt>
      <trkpt lat="47.518499" lon="8.087040">
        <ele>681.459830</ele>
        <time>2022-03-12T14:13:54.424Z</time>
      </trkpt>
      <trkpt lat="47.518556" lon="8.087155">
        <ele>681.273397</ele>
        <time>2022-03-12T14:13:59.391Z</time>
      </trkpt>
      <trkpt lat="47.518596" lon="8.087292">
        <ele>681.092081</ele>
        <time>2022-03-12T14:14:07.389Z</time>
      </trkpt>
      <trkpt lat="47.518666" lon="8.087408">
        <ele>681.012842</ele>
        <time>2022-03-12T14:14:14.392Z</time>
      </trkpt>
      <trkpt lat="47.518740" lon="8.087520">
        <ele>680.933032</ele>
        <time>2022-03-12T14:14:20.382Z</time>
      </trkpt>
      <trkpt lat="47.518833" lon="8.087594">
        <ele>680.853402</ele>
        <time>2022-03-12T14:14:27.380Z</time>
      </trkpt>
      <trkpt lat="47.518926" lon="8.087647">
        <ele>680.778243</ele>
        <time>2022-03-12T14:14:34.392Z</time>
      </trkpt>
      <trkpt lat="47.519023" lon="8.087688">
        <ele>680.702160</ele>
        <time>2022-03-12T14:14:42.387Z</time>
      </trkpt>
      <trkpt lat="47.519117" lon="8.087728">
        <ele>680.628393</ele>
        <time>2022-03-12T14:14:50.384Z</time>
      </trkpt>
      <trkpt lat="47.519212" lon="8.087768">
        <ele>680.553901</ele>
        <time>2022-03-12T14:14:59.391Z</time>
      </trkpt>
      <trkpt lat="47.519302" lon="8.087834">
        <ele>680.478151</ele>
        <time>2022-03-12T14:15:06.431Z</time>
      </trkpt>
      <trkpt lat="47.519398" lon="8.087853">
        <ele>680.405101</ele>
        <time>2022-03-12T14:15:12.383Z</time>
      </trkpt>
      <trkpt lat="47.519480" lon="8.087912">
        <ele>680.336339</ele>
        <time>2022-03-12T14:15:19.411Z</time>
      </trkpt>
      <trkpt lat="47.519596" lon="8.087910">
        <ele>680.248843</ele>
        <time>2022-03-12T14:15:26.400Z</time>
      </trkpt>
      <trkpt lat="47.519657" lon="8.088014">
        <ele>680.178679</ele>
        <time>2022-03-12T14:15:36.388Z</time>
      </trkpt>
      <trkpt lat="47.519741" lon="8.088083">
        <ele>680.106228</ele>
        <time>2022-03-12T14:15:42.389Z</time>
      </trkpt>
      <trkpt lat="47.519785" lon="8.088211">
        <ele>680.033070</ele>
        <time>2022-03-12T14:15:51.389Z</time>
      </trkpt>
      <trkpt lat="47.519793" lon="8.088353">
        <ele>679.960490</ele>
        <time>2022-03-12T14:16:02.395Z</time>
      </trkpt>
      <trkpt lat="47.519786" lon="8.088499">
        <ele>679.885937</ele>
        <time>2022-03-12T14:16:07.415Z</time>
      </trkpt>
      <trkpt lat="47.519740" lon="8.088619">
        <ele>679.815653</ele>
        <time>2022-03-12T14:16:15.392Z</time>
      </trkpt>
      <trkpt lat="47.519714" lon="8.088749">
        <ele>679.746594</ele>
        <time>2022-03-12T14:16:24.386Z</time>
      </trkpt>
      <trkpt lat="47.519668" lon="8.088875">
        <ele>679.624535</ele>
        <time>2022-03-12T14:16:35.392Z</time>
      </trkpt>
      <trkpt lat="47.519608" lon="8.088990">
        <ele>679.499059</ele>
        <time>2022-03-12T14:16:43.394Z</time>
      </trkpt>
      <trkpt lat="47.519537" lon="8.089093">
        <ele>679.371977</ele>
        <time>2022-03-12T14:16:49.394Z</time>
      </trkpt>
      <trkpt lat="47.519452" lon="8.089165">
        <ele>679.246777</ele>
        <time>2022-03-12T14:16:57.392Z</time>
      </trkpt>
      <trkpt lat="47.519389" lon="8.089266">
        <ele>679.128062</ele>
        <time>2022-03-12T14:17:03.430Z</time>
      </trkpt>
      <trkpt lat="47.519327" lon="8.089369">
        <ele>679.008928</ele>
        <time>2022-03-12T14:17:13.383Z</time>
      </trkpt>
      <trkpt lat="47.519232" lon="8.089423">
        <ele>678.878825</ele>
        <time>2022-03-12T14:17:21.398Z</time>
      </trkpt>
      <trkpt lat="47.519186" lon="8.089552">
        <ele>678.752867</ele>
        <time>2022-03-12T14:17:26.394Z</time>
      </trkpt>
      <trkpt lat="47.519128" lon="8.089659">
        <ele>678.634398</ele>
        <time>2022-03-12T14:17:34.392Z</time>
      </trkpt>
      <trkpt lat="47.519068" lon="8.089794">
        <ele>678.494855</ele>
        <time>2022-03-12T14:17:40.388Z</time>
      </trkpt>
      <trkpt lat="47.519000" lon="8.089892">
        <ele>678.373534</ele>
        <time>2022-03-12T14:17:49.386Z</time>
      </trkpt>
      <trkpt lat="47.518931" lon="8.089989">
        <ele>678.251889</ele>
        <time>2022-03-12T14:17:54.386Z</time>
      </trkpt>
      <trkpt lat="47.518906" lon="8.090118">
        <ele>678.136008</ele>
        <time>2022-03-12T14:18:03.391Z</time>
      </trkpt>
      <trkpt lat="47.518848" lon="8.090232">
        <ele>678.012767</ele>
        <time>2022-03-12T14:18:08.391Z</time>
      </trkpt>
      <trkpt lat="47.518796" lon="8.090350">
        <ele>677.891107</ele>
        <time>2022-03-12T14:18:15.427Z</time>
      </trkpt>
      <trkpt lat="47.518757" lon="8.090471">
        <ele>677.775340</ele>
        <time>2022-03-12T14:18:21.403Z</time>
      </trkpt>
      <trkpt lat="47.518706" lon="8.090607">
        <ele>677.641021</ele>
        <time>2022-03-12T14:18:30.390Z</time>
      </trkpt>
      <trkpt lat="47.518645" lon="8.090706">
        <ele>677.525307</ele>
        <time>2022-03-12T14:18:35.391Z</time>
      </trkpt>
      <trkpt lat="47.518567" lon="8.090785">
        <ele>677.153756</ele>
        <time>2022-03-12T14:18:41.391Z</time>
      </trkpt>
      <trkpt lat="47.518496" lon="8.090886">
        <ele>676.241994</ele>
        <time>2022-03-12T14:18:46.391Z</time>
      </trkpt>
      <trkpt lat="47.518557" lon="8.091008">
        <ele>675.292635</ele>
        <time>2022-03-12T14:18:55.390Z</time>
      </trkpt>
      <trkpt lat="47.518589" lon="8.091149">
        <ele>674.362342</ele>
        <time>2022-03-12T14:19:02.384Z</time>
      </trkpt>
      <trkpt lat="47.518612" lon="8.091292">
        <ele>673.442988</ele>
        <time>2022-03-12T14:19:10.390Z</time>
      </trkpt>
      <trkpt lat="47.518635" lon="8.091431">
        <ele>672.547952</ele>
        <time>2022-03-12T14:19:18.392Z</time>
      </trkpt>
      <trkpt lat="47.518655" lon="8.091564">
        <ele>671.695783</ele>
        <time>2022-03-12T14:19:26.384Z</time>
      </trkpt>
      <trkpt lat="47.518696" lon="8.091701">
        <ele>670.758611</ele>
        <time>2022-03-12T14:19:34.385Z</time>
      </trkpt>
      <trkpt lat="47.518688" lon="8.091847">
        <ele>669.842509</ele>
        <time>2022-03-12T14:19:44.390Z</time>
      </trkpt>
      <trkpt lat="47.518650" lon="8.091992">
        <ele>668.869777</ele>
        <time>2022-03-12T14:19:51.389Z</time>
      </trkpt>
      <trkpt lat="47.518687" lon="8.092124">
        <ele>667.975951</ele>
        <time>2022-03-12T14:19:56.384Z</time>
      </trkpt>
      <trkpt lat="47.518703" lon="8.092268">
        <ele>667.063250</ele>
        <time>2022-03-12T14:20:06.393Z</time>
      </trkpt>
      <trkpt lat="47.518720" lon="8.092408">
        <ele>666.173634</ele>
        <time>2022-03-12T14:20:15.393Z</time>
      </trkpt>
      <trkpt lat="47.518772" lon="8.092531">
        <ele>665.266085</ele>
        <time>2022-03-12T14:20:22.381Z</time>
      </trkpt>
      <trkpt lat="47.518797" lon="8.092669">
        <ele>664.372506</ele>
        <time>2022-03-12T14:20:28.395Z</time>
      </trkpt>
      <trkpt lat="47.518803" lon="8.092823">
        <ele>663.407772</ele>
        <time>2022-03-12T14:20:37.390Z</time>
      </trkpt>
      <trkpt lat="47.518812" lon="8.092956">
        <ele>662.571811</ele>
        <time>2022-03-12T14:20:41.387Z</time>
      </trkpt>
      <trkpt lat="47.518849" lon="8.093086">
        <ele>661.689527</ele>
        <time>2022-03-12T14:20:50.388Z</time>
      </trkpt>
      <trkpt lat="47.518887" lon="8.093218">
        <ele>660.792112</ele>
        <time>2022-03-12T14:20:57.378Z</time>
      </trkpt>
      <trkpt lat="47.518903" lon="8.093352">
        <ele>660.603015</ele>
        <time>2022-03-12T14:21:08.382Z</time>
      </trkpt>
      <trkpt lat="47.518911" lon="8.093494">
        <ele>660.408212</ele>
        <time>2022-03-12T14:21:16.382Z</time>
      </trkpt>
      <trkpt lat="47.518938" lon="8.093642">
        <ele>660.198627</ele>
        <time>2022-03-12T14:21:24.388Z</time>
      </trkpt>
      <trkpt lat="47.518990" lon="8.093774">
        <ele>659.989712</ele>
        <time>2022-03-12T14:21:31.387Z</time>
      </trkpt>
      <trkpt lat="47.519013" lon="8.093915">
        <ele>659.791406</ele>
        <time>2022-03-12T14:21:38.406Z</time>
      </trkpt>
      <trkpt lat="47.519010" lon="8.094077">
        <ele>659.569852</ele>
        <time>2022-03-12T14:21:48.391Z</time>
      </trkpt>
      <trkpt lat="47.519017" lon="8.094222">
        <ele>659.371116</ele>
        <time>2022-03-12T14:21:53.392Z</time>
      </trkpt>
      <trkpt lat="47.519005" lon="8.094357">
        <ele>659.184964</ele>
        <time>2022-03-12T14:22:00.394Z</time>
      </trkpt>
      <trkpt lat="47.518969" lon="8.094505">
        <ele>658.969909</ele>
        <time>2022-03-12T14:22:11.391Z</time>
      </trkpt>
      <trkpt lat="47.519017" lon="8.094623">
        <ele>658.781587</ele>
        <time>2022-03-12T14:22:15.391Z</time>
      </trkpt>
      <trkpt lat="47.519072" lon="8.094745">
        <ele>658.581053</ele>
        <time>2022-03-12T14:22:24.438Z</time>
      </trkpt>
      <trkpt lat="47.519102" lon="8.094878">
        <ele>658.389355</ele>
        <time>2022-03-12T14:22:34.391Z</time>
      </trkpt>
      <trkpt lat="47.519159" lon="8.094983">
        <ele>658.205183</ele>
        <time>2022-03-12T14:22:40.050Z</time>
      </trkpt>
      <trkpt lat="47.519234" lon="8.095076">
        <ele>658.007155</ele>
        <time>2022-03-12T14:22:44.393Z</time>
      </trkpt>
      <trkpt lat="47.519305" lon="8.095195">
        <ele>657.790076</ele>
        <time>2022-03-12T14:22:53.389Z</time>
      </trkpt>
      <trkpt lat="47.519371" lon="8.095309">
        <ele>657.584798</ele>
        <time>2022-03-12T14:23:10.418Z</time>
      </trkpt>
      <trkpt lat="47.519461" lon="8.095372">
        <ele>657.383278</ele>
        <time>2022-03-12T14:23:15.391Z</time>
      </trkpt>
      <trkpt lat="47.519541" lon="8.095465">
        <ele>657.177388</ele>
        <time>2022-03-12T14:23:21.391Z</time>
      </trkpt>
      <trkpt lat="47.519585" lon="8.095585">
        <ele>656.883981</ele>
        <time>2022-03-12T14:23:28.390Z</time>
      </trkpt>
      <trkpt lat="47.519648" lon="8.095687">
        <ele>656.566110</ele>
        <time>2022-03-12T14:23:33.390Z</time>
      </trkpt>
      <trkpt lat="47.519677" lon="8.095834">
        <ele>656.213933</ele>
        <time>2022-03-12T14:23:43.389Z</time>
      </trkpt>
      <trkpt lat="47.519716" lon="8.095962">
        <ele>655.891006</ele>
        <time>2022-03-12T14:23:50.390Z</time>
      </trkpt>
      <trkpt lat="47.519757" lon="8.096085">
        <ele>655.575570</ele>
        <time>2022-03-12T14:23:57.382Z</time>
      </trkpt>
      <trkpt lat="47.519775" lon="8.096224">
        <ele>655.250096</ele>
        <time>2022-03-12T14:24:06.388Z</time>
      </trkpt>
      <trkpt lat="47.519750" lon="8.096367">
        <ele>654.910406</ele>
        <time>2022-03-12T14:24:16.397Z</time>
      </trkpt>
      <trkpt lat="47.519750" lon="8.096505">
        <ele>654.593055</ele>
        <time>2022-03-12T14:24:24.388Z</time>
      </trkpt>
      <trkpt lat="47.519746" lon="8.096653">
        <ele>654.252434</ele>
        <time>2022-03-12T14:24:32.398Z</time>
      </trkpt>
      <trkpt lat="47.519729" lon="8.096795">
        <ele>653.920793</ele>
        <time>2022-03-12T14:24:39.385Z</time>
      </trkpt>
      <trkpt lat="47.519663" lon="8.096928">
        <ele>653.541246</ele>
        <time>2022-03-12T14:24:45.385Z</time>
      </trkpt>
      <trkpt lat="47.519644" lon="8.097078">
        <ele>653.190284</ele>
        <time>2022-03-12T14:24:56.390Z</time>
      </trkpt>
      <trkpt lat="47.519650" lon="8.097212">
        <ele>652.881454</ele>
        <time>2022-03-12T14:25:03.386Z</time>
      </trkpt>
      <trkpt lat="47.519615" lon="8.097366">
        <ele>652.507791</ele>
        <time>2022-03-12T14:25:10.389Z</time>
      </trkpt>
      <trkpt lat="47.519564" lon="8.097487">
        <ele>652.179786</ele>
        <time>2022-03-12T14:25:18.388Z</time>
      </trkpt>
      <trkpt lat="47.519584" lon="8.097624">
        <ele>651.857456</ele>
        <time>2022-03-12T14:25:22.392Z</time>
      </trkpt>
      <trkpt lat="47.519552" lon="8.097753">
        <ele>651.541421</ele>
        <time>2022-03-12T14:25:32.416Z</time>
      </trkpt>
      <trkpt lat="47.519542" lon="8.097898">
        <ele>651.206237</ele>
        <time>2022-03-12T14:25:38.421Z</time>
      </trkpt>
      <trkpt lat="47.519531" lon="8.098033">
        <ele>650.648728</ele>
        <time>2022-03-12T14:25:45.412Z</time>
      </trkpt>
      <trkpt lat="47.519501" lon="8.098167">
        <ele>649.707674</ele>
        <time>2022-03-12T14:25:51.387Z</time>
      </trkpt>
      <trkpt lat="47.519476" lon="8.098312">
        <ele>648.710094</ele>
        <time>2022-03-12T14:25:58.385Z</time>
      </trkpt>
      <trkpt lat="47.519445" lon="8.098437">
        <ele>647.822431</ele>
        <time>2022-03-12T14:26:05.387Z</time>
      </trkpt>
      <trkpt lat="47.519421" lon="8.098566">
        <ele>646.930475</ele>
        <time>2022-03-12T14:26:13.387Z</time>
      </trkpt>
      <trkpt lat="47.519406" lon="8.098704">
        <ele>645.998720</ele>
        <time>2022-03-12T14:26:22.392Z</time>
      </trkpt>
      <trkpt lat="47.519346" lon="8.098816">
        <ele>645.045747</ele>
        <time>2022-03-12T14:26:31.423Z</time>
      </trkpt>
      <trkpt lat="47.519303" lon="8.098962">
        <ele>643.983976</ele>
        <time>2022-03-12T14:26:40.395Z</time>
      </trkpt>
      <trkpt lat="47.519271" lon="8.099107">
        <ele>642.967095</ele>
        <time>2022-03-12T14:26:47.397Z</time>
      </trkpt>
      <trkpt lat="47.519265" lon="8.099258">
        <ele>641.958777</ele>
        <time>2022-03-12T14:26:56.389Z</time>
      </trkpt>
      <trkpt lat="47.519221" lon="8.099389">
        <ele>640.983481</ele>
        <time>2022-03-12T14:27:05.391Z</time>
      </trkpt>
      <trkpt lat="47.519213" lon="8.099531">
        <ele>640.033609</ele>
        <time>2022-03-12T14:27:13.393Z</time>
      </trkpt>
      <trkpt lat="47.519162" lon="8.099670">
        <ele>638.979106</ele>
        <time>2022-03-12T14:27:19.388Z</time>
      </trkpt>
      <trkpt lat="47.519136" lon="8.099824">
        <ele>637.920935</ele>
        <time>2022-03-12T14:27:29.393Z</time>
      </trkpt>
      <trkpt lat="47.519088" lon="8.099969">
        <ele>636.844476</ele>
        <time>2022-03-12T14:27:39.449Z</time>
      </trkpt>
      <trkpt lat="47.519050" lon="8.100097">
        <ele>635.912412</ele>
        <time>2022-03-12T14:27:45.421Z</time>
      </trkpt>
      <trkpt lat="47.519010" lon="8.100231">
        <ele>634.935786</ele>
        <time>2022-03-12T14:27:51.391Z</time>
      </trkpt>
      <trkpt lat="47.518995" lon="8.100367">
        <ele>634.017184</ele>
        <time>2022-03-12T14:27:59.390Z</time>
      </trkpt>
      <trkpt lat="47.518950" lon="8.100488">
        <ele>633.166398</ele>
        <time>2022-03-12T14:28:18.388Z</time>
      </trkpt>
      <trkpt lat="47.518942" lon="8.100652">
        <ele>632.515826</ele>
        <time>2022-03-12T14:28:27.396Z</time>
      </trkpt>
      <trkpt lat="47.518901" lon="8.100792">
        <ele>631.912063</ele>
        <time>2022-03-12T14:28:36.392Z</time>
      </trkpt>
      <trkpt lat="47.518854" lon="8.100917">
        <ele>631.346002</ele>
        <time>2022-03-12T14:28:42.392Z</time>
      </trkpt>
      <trkpt lat="47.518826" lon="8.101065">
        <ele>630.737882</ele>
        <time>2022-03-12T14:28:50.389Z</time>
      </trkpt>
      <trkpt lat="47.518817" lon="8.101210">
        <ele>630.161756</ele>
        <time>2022-03-12T14:29:00.390Z</time>
      </trkpt>
      <trkpt lat="47.518801" lon="8.101346">
        <ele>629.615554</ele>
        <time>2022-03-12T14:29:07.389Z</time>
      </trkpt>
      <trkpt lat="47.518766" lon="8.101487">
        <ele>629.021182</ele>
        <time>2022-03-12T14:29:13.389Z</time>
      </trkpt>
      <trkpt lat="47.518788" lon="8.101621">
        <ele>628.475555</ele>
        <time>2022-03-12T14:29:20.390Z</time>
      </trkpt>
      <trkpt lat="47.518760" lon="8.101751">
        <ele>627.935671</ele>
        <time>2022-03-12T14:29:28.391Z</time>
      </trkpt>
      <trkpt lat="47.518738" lon="8.101911">
        <ele>627.289625</ele>
        <time>2022-03-12T14:29:34.389Z</time>
      </trkpt>
      <trkpt lat="47.518696" lon="8.102031">
        <ele>626.754859</ele>
        <time>2022-03-12T14:29:43.391Z</time>
      </trkpt>
      <trkpt lat="47.518672" lon="8.102179">
        <ele>626.152635</ele>
        <time>2022-03-12T14:29:52.396Z</time>
      </trkpt>
      <trkpt lat="47.518625" lon="8.102298">
        <ele>625.607192</ele>
        <time>2022-03-12T14:30:02.393Z</time>
      </trkpt>
      <trkpt lat="47.518608" lon="8.102436">
        <ele>625.052169</ele>
        <time>2022-03-12T14:30:07.386Z</time>
      </trkpt>
      <trkpt lat="47.518574" lon="8.102589">
        <ele>624.414876</ele>
        <time>2022-03-12T14:30:16.392Z</time>
      </trkpt>
      <trkpt lat="47.518529" lon="8.102714">
        <ele>623.854418</ele>
        <time>2022-03-12T14:30:26.416Z</time>
      </trkpt>
      <trkpt lat="47.518485" lon="8.102838">
        <ele>623.300198</ele>
        <time>2022-03-12T14:30:31.388Z</time>
      </trkpt>
      <trkpt lat="47.518466" lon="8.103002">
        <ele>622.654865</ele>
        <time>2022-03-12T14:30:41.390Z</time>
      </trkpt>
      <trkpt lat="47.518438" lon="8.103142">
        <ele>622.161506</ele>
        <time>2022-03-12T14:30:50.398Z</time>
      </trkpt>
      <trkpt lat="47.518407" lon="8.103281">
        <ele>621.666886</ele>
        <time>2022-03-12T14:30:56.388Z</time>
      </trkpt>
      <trkpt lat="47.518467" lon="8.103380">
        <ele>621.217424</ele>
        <time>2022-03-12T14:31:01.456Z</time>
      </trkpt>
      <trkpt lat="47.518408" lon="8.103483">
        <ele>620.761066</ele>
        <time>2022-03-12T14:31:07.392Z</time>
      </trkpt>
      <trkpt lat="47.518350" lon="8.103616">
        <ele>620.226119</ele>
        <time>2022-03-12T14:31:15.395Z</time>
      </trkpt>
      <trkpt lat="47.518309" lon="8.103759">
        <ele>619.701189</ele>
        <time>2022-03-12T14:31:23.687Z</time>
      </trkpt>
      <trkpt lat="47.518313" lon="8.103906">
        <ele>619.204080</ele>
        <time>2022-03-12T14:31:30.672Z</time>
      </trkpt>
      <trkpt lat="47.518316" lon="8.104065">
        <ele>618.666618</ele>
        <time>2022-03-12T14:31:39.672Z</time>
      </trkpt>
      <trkpt lat="47.518289" lon="8.104198">
        <ele>618.197353</ele>
        <time>2022-03-12T14:31:46.674Z</time>
      </trkpt>
      <trkpt lat="47.518235" lon="8.104319">
        <ele>617.707297</ele>
        <time>2022-03-12T14:31:52.668Z</time>
      </trkpt>
      <trkpt lat="47.518164" lon="8.104443">
        <ele>617.157988</ele>
        <time>2022-03-12T14:32:02.672Z</time>
      </trkpt>
      <trkpt lat="47.518125" lon="8.104589">
        <ele>616.627472</ele>
        <time>2022-03-12T14:32:12.711Z</time>
      </trkpt>
      <trkpt lat="47.518112" lon="8.104728">
        <ele>616.153315</ele>
        <time>2022-03-12T14:32:20.669Z</time>
      </trkpt>
      <trkpt lat="47.518066" lon="8.104853">
        <ele>615.672310</ele>
        <time>2022-03-12T14:32:24.691Z</time>
      </trkpt>
      <trkpt lat="47.518027" lon="8.104975">
        <ele>615.216228</ele>
        <time>2022-03-12T14:32:32.676Z</time>
      </trkpt>
      <trkpt lat="47.517970" lon="8.105112">
        <ele>614.672516</ele>
        <time>2022-03-12T14:32:43.675Z</time>
      </trkpt>
      <trkpt lat="47.517947" lon="8.105279">
        <ele>614.096613</ele>
        <time>2022-03-12T14:32:53.672Z</time>
      </trkpt>
      <trkpt lat="47.517920" lon="8.105414">
        <ele>613.629987</ele>
        <time>2022-03-12T14:33:01.673Z</time>
      </trkpt>
      <trkpt lat="47.517896" lon="8.105556">
        <ele>613.175921</ele>
        <time>2022-03-12T14:33:10.679Z</time>
      </trkpt>
      <trkpt lat="47.517880" lon="8.105719">
        <ele>612.664985</ele>
        <time>2022-03-12T14:33:15.670Z</time>
      </trkpt>
      <trkpt lat="47.517838" lon="8.105854">
        <ele>612.203921</ele>
        <time>2022-03-12T14:33:24.675Z</time>
      </trkpt>
      <trkpt lat="47.517781" lon="8.105959">
        <ele>611.786035</ele>
        <time>2022-03-12T14:33:30.677Z</time>
      </trkpt>
      <trkpt lat="47.517749" lon="8.106086">
        <ele>611.365558</ele>
        <time>2022-03-12T14:33:36.674Z</time>
      </trkpt>
      <trkpt lat="47.517761" lon="8.106234">
        <ele>610.903166</ele>
        <time>2022-03-12T14:33:47.673Z</time>
      </trkpt>
      <trkpt lat="47.517716" lon="8.106351">
        <ele>610.485506</ele>
        <time>2022-03-12T14:33:56.674Z</time>
      </trkpt>
      <trkpt lat="47.517694" lon="8.106496">
        <ele>610.024506</ele>
        <time>2022-03-12T14:34:05.672Z</time>
      </trkpt>
      <trkpt lat="47.517671" lon="8.106636">
        <ele>609.577562</ele>
        <time>2022-03-12T14:34:10.670Z</time>
      </trkpt>
      <trkpt lat="47.517637" lon="8.106773">
        <ele>609.124804</ele>
        <time>2022-03-12T14:34:19.669Z</time>
      </trkpt>
      <trkpt lat="47.517604" lon="8.106900">
        <ele>608.702698</ele>
        <time>2022-03-12T14:34:24.670Z</time>
      </trkpt>
      <trkpt lat="47.517541" lon="8.107034">
        <ele>608.196228</ele>
        <time>2022-03-12T14:34:32.677Z</time>
      </trkpt>
      <trkpt lat="47.517496" lon="8.107173">
        <ele>607.718070</ele>
        <time>2022-03-12T14:34:43.675Z</time>
      </trkpt>
      <trkpt lat="47.517481" lon="8.107326">
        <ele>607.238488</ele>
        <time>2022-03-12T14:34:56.672Z</time>
      </trkpt>
      <trkpt lat="47.517472" lon="8.107485">
        <ele>606.743540</ele>
        <time>2022-03-12T14:35:00.673Z</time>
      </trkpt>
      <trkpt lat="47.517480" lon="8.107632">
        <ele>606.286067</ele>
        <time>2022-03-12T14:35:10.677Z</time>
      </trkpt>
      <trkpt lat="47.517444" lon="8.107757">
        <ele>605.864532</ele>
        <time>2022-03-12T14:35:14.671Z</time>
      </trkpt>
      <trkpt lat="47.517398" lon="8.107887">
        <ele>605.401740</ele>
        <time>2022-03-12T14:35:23.671Z</time>
      </trkpt>
      <trkpt lat="47.517389" lon="8.108038">
        <ele>604.873905</ele>
        <time>2022-03-12T14:35:32.684Z</time>
      </trkpt>
      <trkpt lat="47.517398" lon="8.108181">
        <ele>604.373813</ele>
        <time>2022-03-12T14:35:37.674Z</time>
      </trkpt>
      <trkpt lat="47.517382" lon="8.108314">
        <ele>603.903409</ele>
        <time>2022-03-12T14:35:43.674Z</time>
      </trkpt>
      <trkpt lat="47.517372" lon="8.108467">
        <ele>603.368164</ele>
        <time>2022-03-12T14:35:51.672Z</time>
      </trkpt>
      <trkpt lat="47.517318" lon="8.108605">
        <ele>602.812810</ele>
        <time>2022-03-12T14:36:02.679Z</time>
      </trkpt>
      <trkpt lat="47.517252" lon="8.108699">
        <ele>602.340657</ele>
        <time>2022-03-12T14:36:09.676Z</time>
      </trkpt>
      <trkpt lat="47.517233" lon="8.108829">
        <ele>601.877510</ele>
        <time>2022-03-12T14:36:14.673Z</time>
      </trkpt>
      <trkpt lat="47.517252" lon="8.108966">
        <ele>601.390512</ele>
        <time>2022-03-12T14:36:19.670Z</time>
      </trkpt>
      <trkpt lat="47.517279" lon="8.109112">
        <ele>600.863415</ele>
        <time>2022-03-12T14:36:31.672Z</time>
      </trkpt>
      <trkpt lat="47.517286" lon="8.109253">
        <ele>600.371118</ele>
        <time>2022-03-12T14:36:38.667Z</time>
      </trkpt>
      <trkpt lat="47.517304" lon="8.109394">
        <ele>599.871452</ele>
        <time>2022-03-12T14:36:44.671Z</time>
      </trkpt>
      <trkpt lat="47.517339" lon="8.109535">
        <ele>599.348369</ele>
        <time>2022-03-12T14:36:51.669Z</time>
      </trkpt>
      <trkpt lat="47.517337" lon="8.109670">
        <ele>598.878177</ele>
        <time>2022-03-12T14:36:59.686Z</time>
      </trkpt>
      <trkpt lat="47.517370" lon="8.109813">
        <ele>598.351976</ele>
        <time>2022-03-12T14:37:08.673Z</time>
      </trkpt>
      <trkpt lat="47.517393" lon="8.109946">
        <ele>597.873920</ele>
        <time>2022-03-12T14:37:17.670Z</time>
      </trkpt>
      <trkpt lat="47.517414" lon="8.110088">
        <ele>597.367752</ele>
        <time>2022-03-12T14:37:22.673Z</time>
      </trkpt>
      <trkpt lat="47.517364" lon="8.110209">
        <ele>596.873814</ele>
        <time>2022-03-12T14:37:31.673Z</time>
      </trkpt>
      <trkpt lat="47.517396" lon="8.110356">
        <ele>596.336018</ele>
        <time>2022-03-12T14:37:37.669Z</time>
      </trkpt>
      <trkpt lat="47.517410" lon="8.110499">
        <ele>596.284666</ele>
        <time>2022-03-12T14:37:47.672Z</time>
      </trkpt>
      <trkpt lat="47.517434" lon="8.110643">
        <ele>596.408476</ele>
        <time>2022-03-12T14:37:52.671Z</time>
      </trkpt>
      <trkpt lat="47.517435" lon="8.110780">
        <ele>596.522843</ele>
        <time>2022-03-12T14:38:01.671Z</time>
      </trkpt>
      <trkpt lat="47.517440" lon="8.110927">
        <ele>596.645707</ele>
        <time>2022-03-12T14:38:07.672Z</time>
      </trkpt>
      <trkpt lat="47.517441" lon="8.111081">
        <ele>596.774264</ele>
        <time>2022-03-12T14:38:16.708Z</time>
      </trkpt>
      <trkpt lat="47.517431" lon="8.111215">
        <ele>596.886802</ele>
        <time>2022-03-12T14:38:23.676Z</time>
      </trkpt>
      <trkpt lat="47.517443" lon="8.111362">
        <ele>597.010403</ele>
        <time>2022-03-12T14:38:32.706Z</time>
      </trkpt>
      <trkpt lat="47.517452" lon="8.111498">
        <ele>597.124473</ele>
        <time>2022-03-12T14:38:39.711Z</time>
      </trkpt>
      <trkpt lat="47.517469" lon="8.111640">
        <ele>597.244855</ele>
        <time>2022-03-12T14:38:47.713Z</time>
      </trkpt>
      <trkpt lat="47.517492" lon="8.111790">
        <ele>597.373254</ele>
        <time>2022-03-12T14:38:53.672Z</time>
      </trkpt>
      <trkpt lat="47.517526" lon="8.111920">
        <ele>597.489624</ele>
        <time>2022-03-12T14:39:02.723Z</time>
      </trkpt>
      <trkpt lat="47.517466" lon="8.112039">
        <ele>597.613588</ele>
        <time>2022-03-12T14:39:10.667Z</time>
      </trkpt>
      <trkpt lat="47.517395" lon="8.112135">
        <ele>597.732428</ele>
        <time>2022-03-12T14:39:18.681Z</time>
      </trkpt>
      <trkpt lat="47.517299" lon="8.112186">
        <ele>597.858490</ele>
        <time>2022-03-12T14:39:27.692Z</time>
      </trkpt>
      <trkpt lat="47.517219" lon="8.112248">
        <ele>597.970095</ele>
        <time>2022-03-12T14:39:36.675Z</time>
      </trkpt>
      <trkpt lat="47.517131" lon="8.112297">
        <ele>598.086299</ele>
        <time>2022-03-12T14:39:44.737Z</time>
      </trkpt>
      <trkpt lat="47.517065" lon="8.112400">
        <ele>598.204820</ele>
        <time>2022-03-12T14:39:52.714Z</time>
      </trkpt>
      <trkpt lat="47.516984" lon="8.112462">
        <ele>598.317522</ele>
        <time>2022-03-12T14:40:00.703Z</time>
      </trkpt>
      <trkpt lat="47.516913" lon="8.112548">
        <ele>598.553248</ele>
        <time>2022-03-12T14:40:08.664Z</time>
      </trkpt>
      <trkpt lat="47.516835" lon="8.112617">
        <ele>599.976474</ele>
        <time>2022-03-12T14:40:17.663Z</time>
      </trkpt>
      <trkpt lat="47.516791" lon="8.112739">
        <ele>601.439602</ele>
        <time>2022-03-12T14:40:25.674Z</time>
      </trkpt>
      <trkpt lat="47.516733" lon="8.112848">
        <ele>602.907607</ele>
        <time>2022-03-12T14:40:35.705Z</time>
      </trkpt>
      <trkpt lat="47.516664" lon="8.112941">
        <ele>604.369145</ele>
        <time>2022-03-12T14:40:44.679Z</time>
      </trkpt>
      <trkpt lat="47.516574" lon="8.112973">
        <ele>605.818969</ele>
        <time>2022-03-12T14:40:51.676Z</time>
      </trkpt>
      <trkpt lat="47.516544" lon="8.113101">
        <ele>607.252302</ele>
        <time>2022-03-12T14:41:01.683Z</time>
      </trkpt>
      <trkpt lat="47.516458" lon="8.113180">
        <ele>608.837585</ele>
        <time>2022-03-12T14:41:09.667Z</time>
      </trkpt>
      <trkpt lat="47.516380" lon="8.113254">
        <ele>610.288654</ele>
        <time>2022-03-12T14:41:17.671Z</time>
      </trkpt>
      <trkpt lat="47.516307" lon="8.113355">
        <ele>611.853635</ele>
        <time>2022-03-12T14:41:25.670Z</time>
      </trkpt>
      <trkpt lat="47.516248" lon="8.113465">
        <ele>613.339662</ele>
        <time>2022-03-12T14:41:32.674Z</time>
      </trkpt>
      <trkpt lat="47.516209" lon="8.113606">
        <ele>614.951558</ele>
        <time>2022-03-12T14:41:40.677Z</time>
      </trkpt>
      <trkpt lat="47.516150" lon="8.113722">
        <ele>616.487801</ele>
        <time>2022-03-12T14:41:48.676Z</time>
      </trkpt>
      <trkpt lat="47.516096" lon="8.113832">
        <ele>617.926432</ele>
        <time>2022-03-12T14:41:58.666Z</time>
      </trkpt>
      <trkpt lat="47.516058" lon="8.113975">
        <ele>619.552131</ele>
        <time>2022-03-12T14:42:08.664Z</time>
      </trkpt>
      <trkpt lat="47.516043" lon="8.114113">
        <ele>621.030835</ele>
        <time>2022-03-12T14:42:18.499Z</time>
      </trkpt>
      <trkpt lat="47.516044" lon="8.114257">
        <ele>622.554308</ele>
        <time>2022-03-12T14:42:29.696Z</time>
      </trkpt>
      <trkpt lat="47.516000" lon="8.114378">
        <ele>624.008130</ele>
        <time>2022-03-12T14:42:36.764Z</time>
      </trkpt>
      <trkpt lat="47.516004" lon="8.114517">
        <ele>625.479963</ele>
        <time>2022-03-12T14:42:44.680Z</time>
      </trkpt>
      <trkpt lat="47.516004" lon="8.114664">
        <ele>626.658016</ele>
        <time>2022-03-12T14:42:53.674Z</time>
      </trkpt>
      <trkpt lat="47.515965" lon="8.114786">
        <ele>626.864937</ele>
        <time>2022-03-12T14:43:00.675Z</time>
      </trkpt>
      <trkpt lat="47.515975" lon="8.114922">
        <ele>627.074660</ele>
        <time>2022-03-12T14:43:08.700Z</time>
      </trkpt>
      <trkpt lat="47.515972" lon="8.115075">
        <ele>627.309312</ele>
        <time>2022-03-12T14:43:16.705Z</time>
      </trkpt>
      <trkpt lat="47.515952" lon="8.115222">
        <ele>627.539193</ele>
        <time>2022-03-12T14:43:24.659Z</time>
      </trkpt>
      <trkpt lat="47.515927" lon="8.115363">
        <ele>627.762674</ele>
        <time>2022-03-12T14:43:33.664Z</time>
      </trkpt>
      <trkpt lat="47.515885" lon="8.115492">
        <ele>627.982214</ele>
        <time>2022-03-12T14:43:43.670Z</time>
      </trkpt>
      <trkpt lat="47.515839" lon="8.115608">
        <ele>628.188432</ele>
        <time>2022-03-12T14:43:51.678Z</time>
      </trkpt>
      <trkpt lat="47.515793" lon="8.115735">
        <ele>628.409358</ele>
        <time>2022-03-12T14:43:59.667Z</time>
      </trkpt>
      <trkpt lat="47.515749" lon="8.115856">
        <ele>628.620032</ele>
        <time>2022-03-12T14:44:07.668Z</time>
      </trkpt>
      <trkpt lat="47.515679" lon="8.115960">
        <ele>628.845122</ele>
        <time>2022-03-12T14:44:16.787Z</time>
      </trkpt>
      <trkpt lat="47.515585" lon="8.115956">
        <ele>629.058576</ele>
        <time>2022-03-12T14:44:24.669Z</time>
      </trkpt>
      <trkpt lat="47.515505" lon="8.115863">
        <ele>629.289446</ele>
        <time>2022-03-12T14:44:39.663Z</time>
      </trkpt>
      <trkpt lat="47.515451" lon="8.115742">
        <ele>629.511782</ele>
        <time>2022-03-12T14:44:47.675Z</time>
      </trkpt>
      <trkpt lat="47.515388" lon="8.115634">
        <ele>629.730556</ele>
        <time>2022-03-12T14:44:54.674Z</time>
      </trkpt>
      <trkpt lat="47.515317" lon="8.115546">
        <ele>629.940729</ele>
        <time>2022-03-12T14:44:59.666Z</time>
      </trkpt>
      <trkpt lat="47.515274" lon="8.115406">
        <ele>630.176506</ele>
        <time>2022-03-12T14:45:05.677Z</time>
      </trkpt>
      <trkpt lat="47.515231" lon="8.115285">
        <ele>630.386115</ele>
        <time>2022-03-12T14:45:11.671Z</time>
      </trkpt>
      <trkpt lat="47.515140" lon="8.115238">
        <ele>630.604878</ele>
        <time>2022-03-12T14:45:32.679Z</time>
      </trkpt>
      <trkpt lat="47.515097" lon="8.115103">
        <ele>630.440135</ele>
        <time>2022-03-12T14:45:38.661Z</time>
      </trkpt>
      <trkpt lat="47.515049" lon="8.114990">
        <ele>630.131554</ele>
        <time>2022-03-12T14:45:47.663Z</time>
      </trkpt>
      <trkpt lat="47.514977" lon="8.114881">
        <ele>629.779114</ele>
        <time>2022-03-12T14:45:53.705Z</time>
      </trkpt>
      <trkpt lat="47.514904" lon="8.114785">
        <ele>629.444940</ele>
        <time>2022-03-12T14:46:00.680Z</time>
      </trkpt>
      <trkpt lat="47.514860" lon="8.114661">
        <ele>629.121146</ele>
        <time>2022-03-12T14:46:10.682Z</time>
      </trkpt>
      <trkpt lat="47.514772" lon="8.114596">
        <ele>628.784556</ele>
        <time>2022-03-12T14:46:16.683Z</time>
      </trkpt>
      <trkpt lat="47.514718" lon="8.114472">
        <ele>628.443495</ele>
        <time>2022-03-12T14:46:25.673Z</time>
      </trkpt>
      <trkpt lat="47.514632" lon="8.114392">
        <ele>628.095876</ele>
        <time>2022-03-12T14:46:32.666Z</time>
      </trkpt>
      <trkpt lat="47.514541" lon="8.114375">
        <ele>627.781949</ele>
        <time>2022-03-12T14:46:45.664Z</time>
      </trkpt>
      <trkpt lat="47.514438" lon="8.114316">
        <ele>627.403956</ele>
        <time>2022-03-12T14:46:53.715Z</time>
      </trkpt>
      <trkpt lat="47.514359" lon="8.114250">
        <ele>627.093495</ele>
        <time>2022-03-12T14:46:58.669Z</time>
      </trkpt>
      <trkpt lat="47.514269" lon="8.114233">
        <ele>626.782963</ele>
        <time>2022-03-12T14:47:02.666Z</time>
      </trkpt>
      <trkpt lat="47.514177" lon="8.114189">
        <ele>626.452062</ele>
        <time>2022-03-12T14:47:10.686Z</time>
      </trkpt>
      <trkpt lat="47.514107" lon="8.114099">
        <ele>626.134754</ele>
        <time>2022-03-12T14:47:17.678Z</time>
      </trkpt>
      <trkpt lat="47.514029" lon="8.114022">
        <ele>625.813890</ele>
        <time>2022-03-12T14:47:27.668Z</time>
      </trkpt>
      <trkpt lat="47.513931" lon="8.114006">
        <ele>625.476441</ele>
        <time>2022-03-12T14:47:35.673Z</time>
      </trkpt>
      <trkpt lat="47.513853" lon="8.114108">
        <ele>625.120257</ele>
        <time>2022-03-12T14:47:41.670Z</time>
      </trkpt>
      <trkpt lat="47.513781" lon="8.114189">
        <ele>624.810761</ele>
        <time>2022-03-12T14:47:45.671Z</time>
      </trkpt>
      <trkpt lat="47.513723" lon="8.114308">
        <ele>624.487295</ele>
        <time>2022-03-12T14:47:51.674Z</time>
      </trkpt>
      <trkpt lat="47.513707" lon="8.114446">
        <ele>624.267417</ele>
        <time>2022-03-12T14:47:57.663Z</time>
      </trkpt>
      <trkpt lat="47.513733" lon="8.114578">
        <ele>624.051495</ele>
        <time>2022-03-12T14:48:06.672Z</time>
      </trkpt>
      <trkpt lat="47.513779" lon="8.114704">
        <ele>623.826575</ele>
        <time>2022-03-12T14:48:19.674Z</time>
      </trkpt>
      <trkpt lat="47.513836" lon="8.114821">
        <ele>623.600035</ele>
        <time>2022-03-12T14:48:30.708Z</time>
      </trkpt>
      <trkpt lat="47.513853" lon="8.114961">
        <ele>623.376661</ele>
        <time>2022-03-12T14:48:35.681Z</time>
      </trkpt>
      <trkpt lat="47.513872" lon="8.115099">
        <ele>623.155496</ele>
        <time>2022-03-12T14:48:39.669Z</time>
      </trkpt>
      <trkpt lat="47.513840" lon="8.115230">
        <ele>622.936739</ele>
        <time>2022-03-12T14:48:46.671Z</time>
      </trkpt>
      <trkpt lat="47.513794" lon="8.115350">
        <ele>622.720062</ele>
        <time>2022-03-12T14:48:50.679Z</time>
      </trkpt>
      <trkpt lat="47.513702" lon="8.115420">
        <ele>622.479567</ele>
        <time>2022-03-12T14:48:56.670Z</time>
      </trkpt>
      <trkpt lat="47.513612" lon="8.115412">
        <ele>622.269938</ele>
        <time>2022-03-12T14:49:07.669Z</time>
      </trkpt>
      <trkpt lat="47.513551" lon="8.115305">
        <ele>622.050056</ele>
        <time>2022-03-12T14:49:12.671Z</time>
      </trkpt>
      <trkpt lat="47.513461" lon="8.115280">
        <ele>621.837152</ele>
        <time>2022-03-12T14:49:20.678Z</time>
      </trkpt>
      <trkpt lat="47.513395" lon="8.115184">
        <ele>621.622037</ele>
        <time>2022-03-12T14:49:27.670Z</time>
      </trkpt>
      <trkpt lat="47.513298" lon="8.115119">
        <ele>621.374486</ele>
        <time>2022-03-12T14:49:37.670Z</time>
      </trkpt>
      <trkpt lat="47.513239" lon="8.115005">
        <ele>621.148950</ele>
        <time>2022-03-12T14:49:46.666Z</time>
      </trkpt>
      <trkpt lat="47.513213" lon="8.114876">
        <ele>620.937545</ele>
        <time>2022-03-12T14:49:50.673Z</time>
      </trkpt>
      <trkpt lat="47.513158" lon="8.114751">
        <ele>620.703271</ele>
        <time>2022-03-12T14:50:00.676Z</time>
      </trkpt>
      <trkpt lat="47.513100" lon="8.114646">
        <ele>620.490261</ele>
        <time>2022-03-12T14:50:04.687Z</time>
      </trkpt>
      <trkpt lat="47.513027" lon="8.114554">
        <ele>620.242537</ele>
        <time>2022-03-12T14:50:13.671Z</time>
      </trkpt>
      <trkpt lat="47.512951" lon="8.114458">
        <ele>619.929522</ele>
        <time>2022-03-12T14:50:18.661Z</time>
      </trkpt>
      <trkpt lat="47.512859" lon="8.114405">
        <ele>619.620211</ele>
        <time>2022-03-12T14:50:29.698Z</time>
      </trkpt>
      <trkpt lat="47.512778" lon="8.114325">
        <ele>619.315132</ele>
        <time>2022-03-12T14:50:34.671Z</time>
      </trkpt>
      <trkpt lat="47.512686" lon="8.114274">
        <ele>619.007331</ele>
        <time>2022-03-12T14:50:42.667Z</time>
      </trkpt>
      <trkpt lat="47.512604" lon="8.114161">
        <ele>618.656335</ele>
        <time>2022-03-12T14:50:48.670Z</time>
      </trkpt>
      <trkpt lat="47.512537" lon="8.114066">
        <ele>618.365665</ele>
        <time>2022-03-12T14:51:00.682Z</time>
      </trkpt>
      <trkpt lat="47.512497" lon="8.113912">
        <ele>618.016491</ele>
        <time>2022-03-12T14:51:04.671Z</time>
      </trkpt>
      <trkpt lat="47.512458" lon="8.113790">
        <ele>617.730848</ele>
        <time>2022-03-12T14:51:13.662Z</time>
      </trkpt>
      <trkpt lat="47.512391" lon="8.113690">
        <ele>617.432761</ele>
        <time>2022-03-12T14:51:19.681Z</time>
      </trkpt>
      <trkpt lat="47.512308" lon="8.113635">
        <ele>617.147842</ele>
        <time>2022-03-12T14:51:28.684Z</time>
      </trkpt>
      <trkpt lat="47.512259" lon="8.113502">
        <ele>616.827227</ele>
        <time>2022-03-12T14:51:34.669Z</time>
      </trkpt>
      <trkpt lat="47.512174" lon="8.113451">
        <ele>616.539862</ele>
        <time>2022-03-12T14:51:43.662Z</time>
      </trkpt>
      <trkpt lat="47.512128" lon="8.113315">
        <ele>616.217975</ele>
        <time>2022-03-12T14:51:51.658Z</time>
      </trkpt>
      <trkpt lat="47.512060" lon="8.113199">
        <ele>615.892921</ele>
        <time>2022-03-12T14:51:58.684Z</time>
      </trkpt>
      <trkpt lat="47.512013" lon="8.113072">
        <ele>615.586452</ele>
        <time>2022-03-12T14:52:04.675Z</time>
      </trkpt>
      <trkpt lat="47.511979" lon="8.112941">
        <ele>615.289454</ele>
        <time>2022-03-12T14:52:11.669Z</time>
      </trkpt>
      <trkpt lat="47.511926" lon="8.112831">
        <ele>615.003501</ele>
        <time>2022-03-12T14:52:20.678Z</time>
      </trkpt>
      <trkpt lat="47.511888" lon="8.112710">
        <ele>614.721101</ele>
        <time>2022-03-12T14:52:24.661Z</time>
      </trkpt>
      <trkpt lat="47.511809" lon="8.112635">
        <ele>614.866503</ele>
        <time>2022-03-12T14:52:31.662Z</time>
      </trkpt>
      <trkpt lat="47.511740" lon="8.112534">
        <ele>615.046231</ele>
        <time>2022-03-12T14:52:41.664Z</time>
      </trkpt>
      <trkpt lat="47.511697" lon="8.112398">
        <ele>615.234101</ele>
        <time>2022-03-12T14:52:46.700Z</time>
      </trkpt>
      <trkpt lat="47.511605" lon="8.112306">
        <ele>615.439742</ele>
        <time>2022-03-12T14:52:54.675Z</time>
      </trkpt>
      <trkpt lat="47.511540" lon="8.112208">
        <ele>615.611581</ele>
        <time>2022-03-12T14:53:00.663Z</time>
      </trkpt>
      <trkpt lat="47.511450" lon="8.112189">
        <ele>615.779974</ele>
        <time>2022-03-12T14:53:13.676Z</time>
      </trkpt>
      <trkpt lat="47.511380" lon="8.112099">
        <ele>615.951702</ele>
        <time>2022-03-12T14:53:19.876Z</time>
      </trkpt>
      <trkpt lat="47.511297" lon="8.112038">
        <ele>616.123342</ele>
        <time>2022-03-12T14:53:24.669Z</time>
      </trkpt>
      <trkpt lat="47.511204" lon="8.111975">
        <ele>616.312781</ele>
        <time>2022-03-12T14:53:32.665Z</time>
      </trkpt>
      <trkpt lat="47.511116" lon="8.111934">
        <ele>616.483663</ele>
        <time>2022-03-12T14:53:39.665Z</time>
      </trkpt>
      <trkpt lat="47.511033" lon="8.111882">
        <ele>616.650602</ele>
        <time>2022-03-12T14:53:46.668Z</time>
      </trkpt>
      <trkpt lat="47.510943" lon="8.111841">
        <ele>616.825022</ele>
        <time>2022-03-12T14:53:56.668Z</time>
      </trkpt>
      <trkpt lat="47.510856" lon="8.111784">
        <ele>617.001245</ele>
        <time>2022-03-12T14:54:03.687Z</time>
      </trkpt>
      <trkpt lat="47.510768" lon="8.111717">
        <ele>617.184538</ele>
        <time>2022-03-12T14:54:11.664Z</time>
      </trkpt>
      <trkpt lat="47.510679" lon="8.111672">
        <ele>617.358740</ele>
        <time>2022-03-12T14:54:17.674Z</time>
      </trkpt>
      <trkpt lat="47.510591" lon="8.111589">
        <ele>617.552010</ele>
        <time>2022-03-12T14:54:26.670Z</time>
      </trkpt>
      <trkpt lat="47.510495" lon="8.111566">
        <ele>617.732143</ele>
        <time>2022-03-12T14:54:32.677Z</time>
      </trkpt>
      <trkpt lat="47.510393" lon="8.111552">
        <ele>617.921886</ele>
        <time>2022-03-12T14:54:39.691Z</time>
      </trkpt>
      <trkpt lat="47.510291" lon="8.111580">
        <ele>617.442643</ele>
        <time>2022-03-12T14:54:46.671Z</time>
      </trkpt>
      <trkpt lat="47.510206" lon="8.111645">
        <ele>616.117635</ele>
        <time>2022-03-12T14:54:53.678Z</time>
      </trkpt>
      <trkpt lat="47.510171" lon="8.111506">
        <ele>614.729873</ele>
        <time>2022-03-12T14:55:07.666Z</time>
      </trkpt>
      <trkpt lat="47.510182" lon="8.111368">
        <ele>613.429922</ele>
        <time>2022-03-12T14:55:15.666Z</time>
      </trkpt>
      <trkpt lat="47.510207" lon="8.111230">
        <ele>612.093304</ele>
        <time>2022-03-12T14:55:21.738Z</time>
      </trkpt>
      <trkpt lat="47.510233" lon="8.111100">
        <ele>610.824961</ele>
        <time>2022-03-12T14:55:26.138Z</time>
      </trkpt>
      <trkpt lat="47.510214" lon="8.110954">
        <ele>609.434011</ele>
        <time>2022-03-12T14:55:31.128Z</time>
      </trkpt>
      <trkpt lat="47.510209" lon="8.110813">
        <ele>608.113137</ele>
        <time>2022-03-12T14:55:38.156Z</time>
      </trkpt>
      <trkpt lat="47.510215" lon="8.110671">
        <ele>606.782128</ele>
        <time>2022-03-12T14:55:51.156Z</time>
      </trkpt>
      <trkpt lat="47.510190" lon="8.110543">
        <ele>605.535632</ele>
        <time>2022-03-12T14:55:57.166Z</time>
      </trkpt>
      <trkpt lat="47.510189" lon="8.110405">
        <ele>604.244565</ele>
        <time>2022-03-12T14:56:04.130Z</time>
      </trkpt>
      <trkpt lat="47.510184" lon="8.110256">
        <ele>602.848948</ele>
        <time>2022-03-12T14:56:10.129Z</time>
      </trkpt>
      <trkpt lat="47.510196" lon="8.110103">
        <ele>601.408013</ele>
        <time>2022-03-12T14:56:15.131Z</time>
      </trkpt>
      <trkpt lat="47.510172" lon="8.109949">
        <ele>599.929492</ele>
        <time>2022-03-12T14:56:24.133Z</time>
      </trkpt>
      <trkpt lat="47.510172" lon="8.109809">
        <ele>598.619789</ele>
        <time>2022-03-12T14:56:29.172Z</time>
      </trkpt>
      <trkpt lat="47.510184" lon="8.109662">
        <ele>597.234594</ele>
        <time>2022-03-12T14:56:38.124Z</time>
      </trkpt>
      <trkpt lat="47.510201" lon="8.109528">
        <ele>595.959103</ele>
        <time>2022-03-12T14:56:43.132Z</time>
      </trkpt>
      <trkpt lat="47.510257" lon="8.109423">
        <ele>594.707540</ele>
        <time>2022-03-12T14:56:49.124Z</time>
      </trkpt>
      <trkpt lat="47.510345" lon="8.109378">
        <ele>593.418096</ele>
        <time>2022-03-12T14:56:57.159Z</time>
      </trkpt>
      <trkpt lat="47.510430" lon="8.109333">
        <ele>592.864026</ele>
        <time>2022-03-12T14:57:04.129Z</time>
      </trkpt>
      <trkpt lat="47.510510" lon="8.109271">
        <ele>592.524109</ele>
        <time>2022-03-12T14:57:12.161Z</time>
      </trkpt>
      <trkpt lat="47.510610" lon="8.109249">
        <ele>592.143538</ele>
        <time>2022-03-12T14:57:22.131Z</time>
      </trkpt>
      <trkpt lat="47.510685" lon="8.109174">
        <ele>591.802839</ele>
        <time>2022-03-12T14:57:29.167Z</time>
      </trkpt>
      <trkpt lat="47.510639" lon="8.108959">
        <ele>591.229398</ele>
        <time>2022-03-12T14:58:07.132Z</time>
      </trkpt>
      <trkpt lat="47.510612" lon="8.108825">
        <ele>590.873844</ele>
        <time>2022-03-12T14:58:14.358Z</time>
      </trkpt>
      <trkpt lat="47.510583" lon="8.108682">
        <ele>590.494209</ele>
        <time>2022-03-12T14:58:22.129Z</time>
      </trkpt>
      <trkpt lat="47.510554" lon="8.108553">
        <ele>590.148516</ele>
        <time>2022-03-12T14:58:27.134Z</time>
      </trkpt>
      <trkpt lat="47.510513" lon="8.108432">
        <ele>589.804311</ele>
        <time>2022-03-12T14:58:34.119Z</time>
      </trkpt>
      <trkpt lat="47.510466" lon="8.108307">
        <ele>589.440552</ele>
        <time>2022-03-12T14:58:45.137Z</time>
      </trkpt>
      <trkpt lat="47.510401" lon="8.108201">
        <ele>589.076528</ele>
        <time>2022-03-12T14:58:49.127Z</time>
      </trkpt>
      <trkpt lat="47.510342" lon="8.108086">
        <ele>588.709336</ele>
        <time>2022-03-12T14:58:54.136Z</time>
      </trkpt>
      <trkpt lat="47.510288" lon="8.107978">
        <ele>588.367676</ele>
        <time>2022-03-12T14:58:59.131Z</time>
      </trkpt>
      <trkpt lat="47.510234" lon="8.107854">
        <ele>587.992536</ele>
        <time>2022-03-12T14:59:06.122Z</time>
      </trkpt>
      <trkpt lat="47.510201" lon="8.107728">
        <ele>587.648917</ele>
        <time>2022-03-12T14:59:12.140Z</time>
      </trkpt>
      <trkpt lat="47.510174" lon="8.107594">
        <ele>587.293361</ele>
        <time>2022-03-12T14:59:19.129Z</time>
      </trkpt>
      <trkpt lat="47.510135" lon="8.107465">
        <ele>586.933998</ele>
        <time>2022-03-12T14:59:28.207Z</time>
      </trkpt>
      <trkpt lat="47.510099" lon="8.107324">
        <ele>586.550722</ele>
        <time>2022-03-12T14:59:37.160Z</time>
      </trkpt>
      <trkpt lat="47.510075" lon="8.107186">
        <ele>586.143659</ele>
        <time>2022-03-12T14:59:44.141Z</time>
      </trkpt>
      <trkpt lat="47.510073" lon="8.107049">
        <ele>585.700613</ele>
        <time>2022-03-12T14:59:52.133Z</time>
      </trkpt>
      <trkpt lat="47.510061" lon="8.106903">
        <ele>585.225089</ele>
        <time>2022-03-12T15:00:02.130Z</time>
      </trkpt>
      <trkpt lat="47.510021" lon="8.106762">
        <ele>584.730638</ele>
        <time>2022-03-12T15:00:08.130Z</time>
      </trkpt>
      <trkpt lat="47.510023" lon="8.106620">
        <ele>584.271429</ele>
        <time>2022-03-12T15:00:18.141Z</time>
      </trkpt>
      <trkpt lat="47.510012" lon="8.106479">
        <ele>583.812522</ele>
        <time>2022-03-12T15:00:26.144Z</time>
      </trkpt>
      <trkpt lat="47.509981" lon="8.106345">
        <ele>583.354572</ele>
        <time>2022-03-12T15:00:34.317Z</time>
      </trkpt>
      <trkpt lat="47.509923" lon="8.106228">
        <ele>582.885348</ele>
        <time>2022-03-12T15:00:40.128Z</time>
      </trkpt>
      <trkpt lat="47.509868" lon="8.106099">
        <ele>582.392132</ele>
        <time>2022-03-12T15:00:47.160Z</time>
      </trkpt>
      <trkpt lat="47.509820" lon="8.105960">
        <ele>581.887395</ele>
        <time>2022-03-12T15:00:53.129Z</time>
      </trkpt>
      <trkpt lat="47.509797" lon="8.105817">
        <ele>581.412124</ele>
        <time>2022-03-12T15:01:00.134Z</time>
      </trkpt>
      <trkpt lat="47.509755" lon="8.105681">
        <ele>580.928634</ele>
        <time>2022-03-12T15:01:07.131Z</time>
      </trkpt>
      <trkpt lat="47.509692" lon="8.105564">
        <ele>580.444863</ele>
        <time>2022-03-12T15:01:12.138Z</time>
      </trkpt>
      <trkpt lat="47.509659" lon="8.105425">
        <ele>579.968500</ele>
        <time>2022-03-12T15:01:19.131Z</time>
      </trkpt>
      <trkpt lat="47.509591" lon="8.105325">
        <ele>579.509720</ele>
        <time>2022-03-12T15:01:29.132Z</time>
      </trkpt>
      <trkpt lat="47.509515" lon="8.105251">
        <ele>579.074312</ele>
        <time>2022-03-12T15:01:34.129Z</time>
      </trkpt>
      <trkpt lat="47.509446" lon="8.105154">
        <ele>578.618856</ele>
        <time>2022-03-12T15:01:44.130Z</time>
      </trkpt>
      <trkpt lat="47.509352" lon="8.105093">
        <ele>578.127588</ele>
        <time>2022-03-12T15:01:51.234Z</time>
      </trkpt>
      <trkpt lat="47.509273" lon="8.105005">
        <ele>577.611885</ele>
        <time>2022-03-12T15:01:59.202Z</time>
      </trkpt>
      <trkpt lat="47.509215" lon="8.104902">
        <ele>576.972206</ele>
        <time>2022-03-12T15:02:08.206Z</time>
      </trkpt>
      <trkpt lat="47.509137" lon="8.104826">
        <ele>576.312760</ele>
        <time>2022-03-12T15:02:15.193Z</time>
      </trkpt>
      <trkpt lat="47.509050" lon="8.104743">
        <ele>575.581830</ele>
        <time>2022-03-12T15:02:22.207Z</time>
      </trkpt>
      <trkpt lat="47.508982" lon="8.104641">
        <ele>574.898188</ele>
        <time>2022-03-12T15:02:28.221Z</time>
      </trkpt>
      <trkpt lat="47.508928" lon="8.104525">
        <ele>574.226150</ele>
        <time>2022-03-12T15:02:35.606Z</time>
      </trkpt>
      <trkpt lat="47.508838" lon="8.104478">
        <ele>573.552173</ele>
        <time>2022-03-12T15:02:45.570Z</time>
      </trkpt>
      <trkpt lat="47.508759" lon="8.104397">
        <ele>572.873524</ele>
        <time>2022-03-12T15:02:52.576Z</time>
      </trkpt>
      <trkpt lat="47.508685" lon="8.104289">
        <ele>572.139674</ele>
        <time>2022-03-12T15:02:56.565Z</time>
      </trkpt>
      <trkpt lat="47.508626" lon="8.104185">
        <ele>571.491801</ele>
        <time>2022-03-12T15:03:05.570Z</time>
      </trkpt>
      <trkpt lat="47.508552" lon="8.104105">
        <ele>570.844693</ele>
        <time>2022-03-12T15:03:10.574Z</time>
      </trkpt>
      <trkpt lat="47.508462" lon="8.104029">
        <ele>570.112970</ele>
        <time>2022-03-12T15:03:18.572Z</time>
      </trkpt>
      <trkpt lat="47.508388" lon="8.103931">
        <ele>569.411785</ele>
        <time>2022-03-12T15:03:22.568Z</time>
      </trkpt>
      <trkpt lat="47.508293" lon="8.103933">
        <ele>568.740814</ele>
        <time>2022-03-12T15:03:33.571Z</time>
      </trkpt>
      <trkpt lat="47.508209" lon="8.103883">
        <ele>568.101439</ele>
        <time>2022-03-12T15:03:40.579Z</time>
      </trkpt>
      <trkpt lat="47.508103" lon="8.103821">
        <ele>567.296542</ele>
        <time>2022-03-12T15:03:49.571Z</time>
      </trkpt>
      <trkpt lat="47.508142" lon="8.103690">
        <ele>566.613620</ele>
        <time>2022-03-12T15:03:57.570Z</time>
      </trkpt>
      <trkpt lat="47.508241" lon="8.103721">
        <ele>565.898999</ele>
        <time>2022-03-12T15:04:09.567Z</time>
      </trkpt>
      <trkpt lat="47.508338" lon="8.103743">
        <ele>565.205979</ele>
        <time>2022-03-12T15:04:17.568Z</time>
      </trkpt>
      <trkpt lat="47.508430" lon="8.103751">
        <ele>564.181182</ele>
        <time>2022-03-12T15:04:25.579Z</time>
      </trkpt>
      <trkpt lat="47.508525" lon="8.103759">
        <ele>562.992432</ele>
        <time>2022-03-12T15:04:32.601Z</time>
      </trkpt>
      <trkpt lat="47.508612" lon="8.103793">
        <ele>561.868311</ele>
        <time>2022-03-12T15:04:38.574Z</time>
      </trkpt>
      <trkpt lat="47.508721" lon="8.103775">
        <ele>560.498131</ele>
        <time>2022-03-12T15:04:47.605Z</time>
      </trkpt>
      <trkpt lat="47.508838" lon="8.103773">
        <ele>559.036356</ele>
        <time>2022-03-12T15:04:53.605Z</time>
      </trkpt>
      <trkpt lat="47.508943" lon="8.103762">
        <ele>557.721314</ele>
        <time>2022-03-12T15:05:01.564Z</time>
      </trkpt>
      <trkpt lat="47.509047" lon="8.103764">
        <ele>556.421936</ele>
        <time>2022-03-12T15:05:05.622Z</time>
      </trkpt>
      <trkpt lat="47.509149" lon="8.103802">
        <ele>555.107924</ele>
        <time>2022-03-12T15:05:16.583Z</time>
      </trkpt>
      <trkpt lat="47.509243" lon="8.103846">
        <ele>553.876285</ele>
        <time>2022-03-12T15:05:22.580Z</time>
      </trkpt>
      <trkpt lat="47.509327" lon="8.103892">
        <ele>552.757383</ele>
        <time>2022-03-12T15:05:31.578Z</time>
      </trkpt>
      <trkpt lat="47.509424" lon="8.103889">
        <ele>551.545300</ele>
        <time>2022-03-12T15:05:40.574Z</time>
      </trkpt>
      <trkpt lat="47.509456" lon="8.103737">
        <ele>550.201775</ele>
        <time>2022-03-12T15:05:46.582Z</time>
      </trkpt>
      <trkpt lat="47.509376" lon="8.103668">
        <ele>549.045096</ele>
        <time>2022-03-12T15:05:56.568Z</time>
      </trkpt>
      <trkpt lat="47.509289" lon="8.103614">
        <ele>547.866547</ele>
        <time>2022-03-12T15:06:02.597Z</time>
      </trkpt>
      <trkpt lat="47.509204" lon="8.103543">
        <ele>546.647281</ele>
        <time>2022-03-12T15:06:09.584Z</time>
      </trkpt>
      <trkpt lat="47.509131" lon="8.103458">
        <ele>545.487015</ele>
        <time>2022-03-12T15:06:17.565Z</time>
      </trkpt>
      <trkpt lat="47.509047" lon="8.103375">
        <ele>544.225336</ele>
        <time>2022-03-12T15:06:24.561Z</time>
      </trkpt>
      <trkpt lat="47.508978" lon="8.103280">
        <ele>543.048156</ele>
        <time>2022-03-12T15:06:30.584Z</time>
      </trkpt>
      <trkpt lat="47.508910" lon="8.103187">
        <ele>542.035528</ele>
        <time>2022-03-12T15:06:38.569Z</time>
      </trkpt>
      <trkpt lat="47.508845" lon="8.103081">
        <ele>541.083315</ele>
        <time>2022-03-12T15:06:44.694Z</time>
      </trkpt>
      <trkpt lat="47.508782" lon="8.102963">
        <ele>540.082913</ele>
        <time>2022-03-12T15:06:51.608Z</time>
      </trkpt>
      <trkpt lat="47.508708" lon="8.102883">
        <ele>539.180656</ele>
        <time>2022-03-12T15:07:00.585Z</time>
      </trkpt>
      <trkpt lat="47.508633" lon="8.102792">
        <ele>538.225811</ele>
        <time>2022-03-12T15:07:06.570Z</time>
      </trkpt>
      <trkpt lat="47.508554" lon="8.102727">
        <ele>537.335855</ele>
        <time>2022-03-12T15:07:15.577Z</time>
      </trkpt>
      <trkpt lat="47.508489" lon="8.102631">
        <ele>536.431779</ele>
        <time>2022-03-12T15:07:23.575Z</time>
      </trkpt>
      <trkpt lat="47.508408" lon="8.102546">
        <ele>535.454146</ele>
        <time>2022-03-12T15:07:29.576Z</time>
      </trkpt>
      <trkpt lat="47.508337" lon="8.102442">
        <ele>534.470654</ele>
        <time>2022-03-12T15:07:38.575Z</time>
      </trkpt>
      <trkpt lat="47.508271" lon="8.102342">
        <ele>533.540739</ele>
        <time>2022-03-12T15:07:54.561Z</time>
      </trkpt>
      <trkpt lat="47.508194" lon="8.102248">
        <ele>532.558007</ele>
        <time>2022-03-12T15:08:03.590Z</time>
      </trkpt>
      <trkpt lat="47.508117" lon="8.102146">
        <ele>531.540592</ele>
        <time>2022-03-12T15:08:11.611Z</time>
      </trkpt>
      <trkpt lat="47.508054" lon="8.102022">
        <ele>530.508576</ele>
        <time>2022-03-12T15:08:19.581Z</time>
      </trkpt>
      <trkpt lat="47.507994" lon="8.101911">
        <ele>529.562993</ele>
        <time>2022-03-12T15:08:27.623Z</time>
      </trkpt>
      <trkpt lat="47.507936" lon="8.101791">
        <ele>528.581554</ele>
        <time>2022-03-12T15:08:35.605Z</time>
      </trkpt>
      <trkpt lat="47.507879" lon="8.101683">
        <ele>527.669944</ele>
        <time>2022-03-12T15:08:42.559Z</time>
      </trkpt>
      <trkpt lat="47.507830" lon="8.101569">
        <ele>526.771199</ele>
        <time>2022-03-12T15:08:50.562Z</time>
      </trkpt>
      <trkpt lat="47.507774" lon="8.101463">
        <ele>525.876133</ele>
        <time>2022-03-12T15:08:57.562Z</time>
      </trkpt>
      <trkpt lat="47.507721" lon="8.101351">
        <ele>524.966569</ele>
        <time>2022-03-12T15:09:06.606Z</time>
      </trkpt>
      <trkpt lat="47.507676" lon="8.101234">
        <ele>524.055431</ele>
        <time>2022-03-12T15:09:14.609Z</time>
      </trkpt>
      <trkpt lat="47.507605" lon="8.101131">
        <ele>523.057225</ele>
        <time>2022-03-12T15:09:21.571Z</time>
      </trkpt>
      <trkpt lat="47.507569" lon="8.101004">
        <ele>522.123006</ele>
        <time>2022-03-12T15:09:28.572Z</time>
      </trkpt>
      <trkpt lat="47.507509" lon="8.100885">
        <ele>521.115761</ele>
        <time>2022-03-12T15:09:36.574Z</time>
      </trkpt>
      <trkpt lat="47.507504" lon="8.100750">
        <ele>520.198676</ele>
        <time>2022-03-12T15:09:44.560Z</time>
      </trkpt>
      <trkpt lat="47.507559" lon="8.100625">
        <ele>519.186786</ele>
        <time>2022-03-12T15:09:52.560Z</time>
      </trkpt>
      <trkpt lat="47.507647" lon="8.100573">
        <ele>518.235332</ele>
        <time>2022-03-12T15:09:59.570Z</time>
      </trkpt>
      <trkpt lat="47.507745" lon="8.100601">
        <ele>517.233096</ele>
        <time>2022-03-12T15:10:08.571Z</time>
      </trkpt>
      <trkpt lat="47.507856" lon="8.100598">
        <ele>516.118293</ele>
        <time>2022-03-12T15:10:15.560Z</time>
      </trkpt>
      <trkpt lat="47.507835" lon="8.100466">
        <ele>515.198441</ele>
        <time>2022-03-12T15:10:21.575Z</time>
      </trkpt>
      <trkpt lat="47.507766" lon="8.100359">
        <ele>514.195033</ele>
        <time>2022-03-12T15:10:29.569Z</time>
      </trkpt>
      <trkpt lat="47.507708" lon="8.100257">
        <ele>513.290664</ele>
        <time>2022-03-12T15:10:35.573Z</time>
      </trkpt>
      <trkpt lat="47.507630" lon="8.100152">
        <ele>512.232022</ele>
        <time>2022-03-12T15:10:43.602Z</time>
      </trkpt>
      <trkpt lat="47.507557" lon="8.100059">
        <ele>511.264924</ele>
        <time>2022-03-12T15:10:50.637Z</time>
      </trkpt>
      <trkpt lat="47.507470" lon="8.100026">
        <ele>510.363085</ele>
        <time>2022-03-12T15:10:58.640Z</time>
      </trkpt>
      <trkpt lat="47.507382" lon="8.099981">
        <ele>509.428191</ele>
        <time>2022-03-12T15:11:06.621Z</time>
      </trkpt>
      <trkpt lat="47.507288" lon="8.100027">
        <ele>508.434047</ele>
        <time>2022-03-12T15:11:15.639Z</time>
      </trkpt>
      <trkpt lat="47.507207" lon="8.100100">
        <ele>507.481809</ele>
        <time>2022-03-12T15:11:25.675Z</time>
      </trkpt>
      <trkpt lat="47.507153" lon="8.100214">
        <ele>506.799088</ele>
        <time>2022-03-12T15:11:32.631Z</time>
      </trkpt>
      <trkpt lat="47.507072" lon="8.100273">
        <ele>506.799088</ele>
        <time>2022-03-12T15:11:43.624Z</time>
      </trkpt>
      <trkpt lat="47.506996" lon="8.100348">
        <ele>506.799088</ele>
        <time>2022-03-12T15:11:50.621Z</time>
      </trkpt>
      <trkpt lat="47.506912" lon="8.100293">
        <ele>506.799088</ele>
        <time>2022-03-12T15:11:57.629Z</time>
      </trkpt>
      <trkpt lat="47.506861" lon="8.100173">
        <ele>506.799088</ele>
        <time>2022-03-12T15:12:04.661Z</time>
      </trkpt>
      <trkpt lat="47.506878" lon="8.100023">
        <ele>506.799088</ele>
        <time>2022-03-12T15:12:10.641Z</time>
      </trkpt>
      <trkpt lat="47.506895" lon="8.099892">
        <ele>506.799088</ele>
        <time>2022-03-12T15:12:22.685Z</time>
      </trkpt>
      <trkpt lat="47.506901" lon="8.099740">
        <ele>506.799088</ele>
        <time>2022-03-12T15:12:29.623Z</time>
      </trkpt>
      <trkpt lat="47.506899" lon="8.099606">
        <ele>506.799088</ele>
        <time>2022-03-12T15:12:35.637Z</time>
      </trkpt>
      <trkpt lat="47.506907" lon="8.099470">
        <ele>506.799088</ele>
        <time>2022-03-12T15:12:42.633Z</time>
      </trkpt>
      <trkpt lat="47.506947" lon="8.099340">
        <ele>506.799088</ele>
        <time>2022-03-12T15:12:51.632Z</time>
      </trkpt>
      <trkpt lat="47.507004" lon="8.099221">
        <ele>506.799088</ele>
        <time>2022-03-12T15:12:59.635Z</time>
      </trkpt>
      <trkpt lat="47.506955" lon="8.099099">
        <ele>506.799088</ele>
        <time>2022-03-12T15:13:07.658Z</time>
      </trkpt>
      <trkpt lat="47.506861" lon="8.099041">
        <ele>506.799088</ele>
        <time>2022-03-12T15:13:15.636Z</time>
      </trkpt>
      <trkpt lat="47.506788" lon="8.098938">
        <ele>506.799088</ele>
        <time>2022-03-12T15:13:23.634Z</time>
      </trkpt>
      <trkpt lat="47.506751" lon="8.098814">
        <ele>506.799088</ele>
        <time>2022-03-12T15:13:31.627Z</time>
      </trkpt>
      <trkpt lat="47.506663" lon="8.098744">
        <ele>506.799088</ele>
        <time>2022-03-12T15:13:46.629Z</time>
      </trkpt>
      <trkpt lat="47.506584" lon="8.098672">
        <ele>506.799088</ele>
        <time>2022-03-12T15:13:55.641Z</time>
      </trkpt>
      <trkpt lat="47.506564" lon="8.098600">
        <ele>506.799088</ele>
        <time>2022-03-12T15:14:18.593Z</time>
      </trkpt>
      <trkpt lat="47.506550" lon="8.098645">
        <ele>499.129817</ele>
        <time>2022-03-19T11:05:35.844Z</time>
      </trkpt>
      <trkpt lat="47.506625" lon="8.098719">
        <ele>499.129817</ele>
        <time>2022-03-19T11:05:43.220Z</time>
      </trkpt>
      <trkpt lat="47.506701" lon="8.098811">
        <ele>499.129817</ele>
        <time>2022-03-19T11:05:51.214Z</time>
      </trkpt>
      <trkpt lat="47.506791" lon="8.098860">
        <ele>499.129817</ele>
        <time>2022-03-19T11:05:59.216Z</time>
      </trkpt>
      <trkpt lat="47.506866" lon="8.098966">
        <ele>499.129817</ele>
        <time>2022-03-19T11:06:09.268Z</time>
      </trkpt>
      <trkpt lat="47.506922" lon="8.099098">
        <ele>499.129817</ele>
        <time>2022-03-19T11:06:15.221Z</time>
      </trkpt>
      <trkpt lat="47.506915" lon="8.099236">
        <ele>499.129817</ele>
        <time>2022-03-19T11:06:23.217Z</time>
      </trkpt>
      <trkpt lat="47.506884" lon="8.099362">
        <ele>499.129817</ele>
        <time>2022-03-19T11:06:30.220Z</time>
      </trkpt>
      <trkpt lat="47.506868" lon="8.099510">
        <ele>499.129817</ele>
        <time>2022-03-19T11:06:39.216Z</time>
      </trkpt>
      <trkpt lat="47.506862" lon="8.099665">
        <ele>499.129817</ele>
        <time>2022-03-19T11:06:47.214Z</time>
      </trkpt>
      <trkpt lat="47.506860" lon="8.099821">
        <ele>500.321113</ele>
        <time>2022-03-19T11:06:55.221Z</time>
      </trkpt>
      <trkpt lat="47.506867" lon="8.099964">
        <ele>501.611025</ele>
        <time>2022-03-19T11:07:03.217Z</time>
      </trkpt>
      <trkpt lat="47.506854" lon="8.100096">
        <ele>502.811153</ele>
        <time>2022-03-19T11:07:12.217Z</time>
      </trkpt>
      <trkpt lat="47.506872" lon="8.100226">
        <ele>504.005051</ele>
        <time>2022-03-19T11:07:21.222Z</time>
      </trkpt>
      <trkpt lat="47.506957" lon="8.100300">
        <ele>505.318387</ele>
        <time>2022-03-19T11:07:31.225Z</time>
      </trkpt>
      <trkpt lat="47.507046" lon="8.100274">
        <ele>506.526606</ele>
        <time>2022-03-19T11:07:42.210Z</time>
      </trkpt>
      <trkpt lat="47.507124" lon="8.100184">
        <ele>507.843740</ele>
        <time>2022-03-19T11:07:51.253Z</time>
      </trkpt>
      <trkpt lat="47.507196" lon="8.100094">
        <ele>509.098806</ele>
        <time>2022-03-19T11:08:00.205Z</time>
      </trkpt>
      <trkpt lat="47.507273" lon="8.100022">
        <ele>510.311786</ele>
        <time>2022-03-19T11:08:09.248Z</time>
      </trkpt>
      <trkpt lat="47.507360" lon="8.099956">
        <ele>511.613790</ele>
        <time>2022-03-19T11:08:19.221Z</time>
      </trkpt>
      <trkpt lat="47.507447" lon="8.099997">
        <ele>512.829807</ele>
        <time>2022-03-19T11:08:26.220Z</time>
      </trkpt>
      <trkpt lat="47.507523" lon="8.100097">
        <ele>514.184053</ele>
        <time>2022-03-19T11:08:33.217Z</time>
      </trkpt>
      <trkpt lat="47.507596" lon="8.100184">
        <ele>515.432221</ele>
        <time>2022-03-19T11:08:41.216Z</time>
      </trkpt>
      <trkpt lat="47.507664" lon="8.100273">
        <ele>516.641086</ele>
        <time>2022-03-19T11:08:49.215Z</time>
      </trkpt>
      <trkpt lat="47.507722" lon="8.100396">
        <ele>517.990626</ele>
        <time>2022-03-19T11:08:57.214Z</time>
      </trkpt>
      <trkpt lat="47.507778" lon="8.100519">
        <ele>519.325097</ele>
        <time>2022-03-19T11:09:05.218Z</time>
      </trkpt>
      <trkpt lat="47.507795" lon="8.100660">
        <ele>520.613667</ele>
        <time>2022-03-19T11:09:13.215Z</time>
      </trkpt>
      <trkpt lat="47.507706" lon="8.100628">
        <ele>521.833486</ele>
        <time>2022-03-19T11:09:19.245Z</time>
      </trkpt>
      <trkpt lat="47.507613" lon="8.100589">
        <ele>523.110003</ele>
        <time>2022-03-19T11:09:26.247Z</time>
      </trkpt>
      <trkpt lat="47.507518" lon="8.100599">
        <ele>523.991222</ele>
        <time>2022-03-19T11:09:34.261Z</time>
      </trkpt>
      <trkpt lat="47.507483" lon="8.100722">
        <ele>524.825409</ele>
        <time>2022-03-19T11:09:39.228Z</time>
      </trkpt>
      <trkpt lat="47.507483" lon="8.100871">
        <ele>525.756674</ele>
        <time>2022-03-19T11:09:47.246Z</time>
      </trkpt>
      <trkpt lat="47.507528" lon="8.100989">
        <ele>526.603601</ele>
        <time>2022-03-19T11:09:54.213Z</time>
      </trkpt>
      <trkpt lat="47.507606" lon="8.101080">
        <ele>527.522482</ele>
        <time>2022-03-19T11:10:01.210Z</time>
      </trkpt>
      <trkpt lat="47.507654" lon="8.101193">
        <ele>528.356778</ele>
        <time>2022-03-19T11:10:08.213Z</time>
      </trkpt>
      <trkpt lat="47.507709" lon="8.101306">
        <ele>529.227281</ele>
        <time>2022-03-19T11:10:15.214Z</time>
      </trkpt>
      <trkpt lat="47.507761" lon="8.101416">
        <ele>530.066423</ele>
        <time>2022-03-19T11:10:23.219Z</time>
      </trkpt>
      <trkpt lat="47.507809" lon="8.101535">
        <ele>530.932692</ele>
        <time>2022-03-19T11:10:30.215Z</time>
      </trkpt>
      <trkpt lat="47.507862" lon="8.101643">
        <ele>531.767027</ele>
        <time>2022-03-19T11:10:36.215Z</time>
      </trkpt>
      <trkpt lat="47.507919" lon="8.101754">
        <ele>532.638490</ele>
        <time>2022-03-19T11:10:43.212Z</time>
      </trkpt>
      <trkpt lat="47.507982" lon="8.101867">
        <ele>533.554234</ele>
        <time>2022-03-19T11:10:50.212Z</time>
      </trkpt>
      <trkpt lat="47.508039" lon="8.101981">
        <ele>534.440694</ele>
        <time>2022-03-19T11:10:58.211Z</time>
      </trkpt>
      <trkpt lat="47.508102" lon="8.102093">
        <ele>535.351625</ele>
        <time>2022-03-19T11:11:06.218Z</time>
      </trkpt>
      <trkpt lat="47.508149" lon="8.102206">
        <ele>536.181027</ele>
        <time>2022-03-19T11:11:13.216Z</time>
      </trkpt>
      <trkpt lat="47.508209" lon="8.102307">
        <ele>537.021669</ele>
        <time>2022-03-19T11:11:20.212Z</time>
      </trkpt>
      <trkpt lat="47.508273" lon="8.102400">
        <ele>537.851437</ele>
        <time>2022-03-19T11:11:27.216Z</time>
      </trkpt>
      <trkpt lat="47.508351" lon="8.102497">
        <ele>538.793985</ele>
        <time>2022-03-19T11:11:35.214Z</time>
      </trkpt>
      <trkpt lat="47.508412" lon="8.102597">
        <ele>539.636115</ele>
        <time>2022-03-19T11:11:42.246Z</time>
      </trkpt>
      <trkpt lat="47.508489" lon="8.102685">
        <ele>540.531985</ele>
        <time>2022-03-19T11:11:50.179Z</time>
      </trkpt>
      <trkpt lat="47.508551" lon="8.102786">
        <ele>541.380550</ele>
        <time>2022-03-19T11:11:57.426Z</time>
      </trkpt>
      <trkpt lat="47.508623" lon="8.102877">
        <ele>542.251970</ele>
        <time>2022-03-19T11:12:05.418Z</time>
      </trkpt>
      <trkpt lat="47.508695" lon="8.102978">
        <ele>543.164985</ele>
        <time>2022-03-19T11:12:13.426Z</time>
      </trkpt>
      <trkpt lat="47.508770" lon="8.103069">
        <ele>544.057586</ele>
        <time>2022-03-19T11:12:20.437Z</time>
      </trkpt>
      <trkpt lat="47.508838" lon="8.103159">
        <ele>544.897184</ele>
        <time>2022-03-19T11:12:28.421Z</time>
      </trkpt>
      <trkpt lat="47.508913" lon="8.103266">
        <ele>545.855936</ele>
        <time>2022-03-19T11:12:37.466Z</time>
      </trkpt>
      <trkpt lat="47.508973" lon="8.103370">
        <ele>546.706323</ele>
        <time>2022-03-19T11:12:45.439Z</time>
      </trkpt>
      <trkpt lat="47.509049" lon="8.103474">
        <ele>547.658965</ele>
        <time>2022-03-19T11:12:53.426Z</time>
      </trkpt>
      <trkpt lat="47.509123" lon="8.103564">
        <ele>548.540503</ele>
        <time>2022-03-19T11:13:00.419Z</time>
      </trkpt>
      <trkpt lat="47.509203" lon="8.103652">
        <ele>549.457910</ele>
        <time>2022-03-19T11:13:08.428Z</time>
      </trkpt>
      <trkpt lat="47.509278" lon="8.103735">
        <ele>550.319836</ele>
        <time>2022-03-19T11:13:14.420Z</time>
      </trkpt>
      <trkpt lat="47.509359" lon="8.103812">
        <ele>551.205901</ele>
        <time>2022-03-19T11:13:22.425Z</time>
      </trkpt>
      <trkpt lat="47.509426" lon="8.103935">
        <ele>552.188351</ele>
        <time>2022-03-19T11:13:29.419Z</time>
      </trkpt>
      <trkpt lat="47.509339" lon="8.103986">
        <ele>553.049664</ele>
        <time>2022-03-19T11:13:38.433Z</time>
      </trkpt>
      <trkpt lat="47.509235" lon="8.103936">
        <ele>554.056179</ele>
        <time>2022-03-19T11:13:46.421Z</time>
      </trkpt>
      <trkpt lat="47.509140" lon="8.103900">
        <ele>554.958830</ele>
        <time>2022-03-19T11:13:52.423Z</time>
      </trkpt>
      <trkpt lat="47.509047" lon="8.103845">
        <ele>555.880655</ele>
        <time>2022-03-19T11:13:58.422Z</time>
      </trkpt>
      <trkpt lat="47.508957" lon="8.103825">
        <ele>556.756384</ele>
        <time>2022-03-19T11:14:05.458Z</time>
      </trkpt>
      <trkpt lat="47.508856" lon="8.103841">
        <ele>557.773145</ele>
        <time>2022-03-19T11:14:12.518Z</time>
      </trkpt>
      <trkpt lat="47.508757" lon="8.103821">
        <ele>558.773299</ele>
        <time>2022-03-19T11:14:19.547Z</time>
      </trkpt>
      <trkpt lat="47.508659" lon="8.103805">
        <ele>559.760206</ele>
        <time>2022-03-19T11:14:27.508Z</time>
      </trkpt>
      <trkpt lat="47.508561" lon="8.103793">
        <ele>560.744515</ele>
        <time>2022-03-19T11:14:34.529Z</time>
      </trkpt>
      <trkpt lat="47.508461" lon="8.103772">
        <ele>561.755515</ele>
        <time>2022-03-19T11:14:41.522Z</time>
      </trkpt>
      <trkpt lat="47.508371" lon="8.103715">
        <ele>562.735373</ele>
        <time>2022-03-19T11:14:48.550Z</time>
      </trkpt>
      <trkpt lat="47.508274" lon="8.103710">
        <ele>563.706912</ele>
        <time>2022-03-19T11:14:57.525Z</time>
      </trkpt>
      <trkpt lat="47.508184" lon="8.103695">
        <ele>564.613484</ele>
        <time>2022-03-19T11:15:05.507Z</time>
      </trkpt>
      <trkpt lat="47.508082" lon="8.103692">
        <ele>565.634685</ele>
        <time>2022-03-19T11:15:14.522Z</time>
      </trkpt>
      <trkpt lat="47.508058" lon="8.103830">
        <ele>566.598199</ele>
        <time>2022-03-19T11:15:23.514Z</time>
      </trkpt>
      <trkpt lat="47.508149" lon="8.103888">
        <ele>567.589923</ele>
        <time>2022-03-19T11:15:31.522Z</time>
      </trkpt>
      <trkpt lat="47.508240" lon="8.103947">
        <ele>568.584340</ele>
        <time>2022-03-19T11:15:39.533Z</time>
      </trkpt>
      <trkpt lat="47.508340" lon="8.103998">
        <ele>569.643052</ele>
        <time>2022-03-19T11:15:48.529Z</time>
      </trkpt>
      <trkpt lat="47.508420" lon="8.104060">
        <ele>570.546927</ele>
        <time>2022-03-19T11:15:54.963Z</time>
      </trkpt>
      <trkpt lat="47.508501" lon="8.104122">
        <ele>571.459682</ele>
        <time>2022-03-19T11:16:00.525Z</time>
      </trkpt>
      <trkpt lat="47.508582" lon="8.104218">
        <ele>572.498292</ele>
        <time>2022-03-19T11:16:07.523Z</time>
      </trkpt>
      <trkpt lat="47.508639" lon="8.104326">
        <ele>573.424994</ele>
        <time>2022-03-19T11:16:15.526Z</time>
      </trkpt>
      <trkpt lat="47.508715" lon="8.104427">
        <ele>574.385361</ele>
        <time>2022-03-19T11:16:23.511Z</time>
      </trkpt>
      <trkpt lat="47.508786" lon="8.104513">
        <ele>574.947240</ele>
        <time>2022-03-19T11:16:30.490Z</time>
      </trkpt>
      <trkpt lat="47.508854" lon="8.104608">
        <ele>575.519908</ele>
        <time>2022-03-19T11:16:39.520Z</time>
      </trkpt>
      <trkpt lat="47.508932" lon="8.104679">
        <ele>576.080734</ele>
        <time>2022-03-19T11:16:46.507Z</time>
      </trkpt>
      <trkpt lat="47.509015" lon="8.104766">
        <ele>576.703627</ele>
        <time>2022-03-19T11:16:54.521Z</time>
      </trkpt>
      <trkpt lat="47.509088" lon="8.104850">
        <ele>577.269923</ele>
        <time>2022-03-19T11:17:01.513Z</time>
      </trkpt>
      <trkpt lat="47.509148" lon="8.104949">
        <ele>577.820208</ele>
        <time>2022-03-19T11:17:08.529Z</time>
      </trkpt>
      <trkpt lat="47.509224" lon="8.105028">
        <ele>578.388988</ele>
        <time>2022-03-19T11:17:14.524Z</time>
      </trkpt>
      <trkpt lat="47.509322" lon="8.105084">
        <ele>579.032393</ele>
        <time>2022-03-19T11:17:22.520Z</time>
      </trkpt>
      <trkpt lat="47.509392" lon="8.105180">
        <ele>579.616831</ele>
        <time>2022-03-19T11:17:30.515Z</time>
      </trkpt>
      <trkpt lat="47.509461" lon="8.105281">
        <ele>580.211148</ele>
        <time>2022-03-19T11:17:38.522Z</time>
      </trkpt>
      <trkpt lat="47.509515" lon="8.105387">
        <ele>580.760432</ele>
        <time>2022-03-19T11:17:44.554Z</time>
      </trkpt>
      <trkpt lat="47.509580" lon="8.105488">
        <ele>581.337584</ele>
        <time>2022-03-19T11:17:51.547Z</time>
      </trkpt>
      <trkpt lat="47.509660" lon="8.105585">
        <ele>581.970941</ele>
        <time>2022-03-19T11:17:59.520Z</time>
      </trkpt>
      <trkpt lat="47.509726" lon="8.105692">
        <ele>582.570423</ele>
        <time>2022-03-19T11:18:05.522Z</time>
      </trkpt>
      <trkpt lat="47.509758" lon="8.105835">
        <ele>583.193661</ele>
        <time>2022-03-19T11:18:12.506Z</time>
      </trkpt>
      <trkpt lat="47.509793" lon="8.105978">
        <ele>583.822918</ele>
        <time>2022-03-19T11:18:19.521Z</time>
      </trkpt>
      <trkpt lat="47.509852" lon="8.106108">
        <ele>584.470879</ele>
        <time>2022-03-19T11:18:28.603Z</time>
      </trkpt>
      <trkpt lat="47.509881" lon="8.106258">
        <ele>585.116373</ele>
        <time>2022-03-19T11:18:34.509Z</time>
      </trkpt>
      <trkpt lat="47.509912" lon="8.106387">
        <ele>585.690331</ele>
        <time>2022-03-19T11:18:42.523Z</time>
      </trkpt>
      <trkpt lat="47.509943" lon="8.106524">
        <ele>586.299913</ele>
        <time>2022-03-19T11:18:49.548Z</time>
      </trkpt>
      <trkpt lat="47.509945" lon="8.106676">
        <ele>586.941331</ele>
        <time>2022-03-19T11:18:56.512Z</time>
      </trkpt>
      <trkpt lat="47.509978" lon="8.106804">
        <ele>587.519371</ele>
        <time>2022-03-19T11:19:03.553Z</time>
      </trkpt>
      <trkpt lat="47.510008" lon="8.106929">
        <ele>588.079054</ele>
        <time>2022-03-19T11:19:09.522Z</time>
      </trkpt>
      <trkpt lat="47.510045" lon="8.107051">
        <ele>588.643281</ele>
        <time>2022-03-19T11:19:15.553Z</time>
      </trkpt>
      <trkpt lat="47.510061" lon="8.107195">
        <ele>589.258989</ele>
        <time>2022-03-19T11:19:24.507Z</time>
      </trkpt>
      <trkpt lat="47.510083" lon="8.107330">
        <ele>589.844903</ele>
        <time>2022-03-19T11:19:32.544Z</time>
      </trkpt>
      <trkpt lat="47.510111" lon="8.107466">
        <ele>590.444755</ele>
        <time>2022-03-19T11:19:40.521Z</time>
      </trkpt>
      <trkpt lat="47.510144" lon="8.107591">
        <ele>591.010986</ele>
        <time>2022-03-19T11:19:48.524Z</time>
      </trkpt>
      <trkpt lat="47.510208" lon="8.107704">
        <ele>591.633157</ele>
        <time>2022-03-19T11:19:55.518Z</time>
      </trkpt>
      <trkpt lat="47.510245" lon="8.107831">
        <ele>592.216691</ele>
        <time>2022-03-19T11:20:01.516Z</time>
      </trkpt>
      <trkpt lat="47.510319" lon="8.107944">
        <ele>592.880721</ele>
        <time>2022-03-19T11:20:06.523Z</time>
      </trkpt>
      <trkpt lat="47.510365" lon="8.108062">
        <ele>593.455530</ele>
        <time>2022-03-19T11:20:13.521Z</time>
      </trkpt>
      <trkpt lat="47.510431" lon="8.108159">
        <ele>594.036417</ele>
        <time>2022-03-19T11:20:19.546Z</time>
      </trkpt>
      <trkpt lat="47.510455" lon="8.108288">
        <ele>594.600938</ele>
        <time>2022-03-19T11:20:27.521Z</time>
      </trkpt>
      <trkpt lat="47.510513" lon="8.108397">
        <ele>595.186369</ele>
        <time>2022-03-19T11:20:34.527Z</time>
      </trkpt>
      <trkpt lat="47.510580" lon="8.108510">
        <ele>595.820739</ele>
        <time>2022-03-19T11:20:40.524Z</time>
      </trkpt>
      <trkpt lat="47.510647" lon="8.108620">
        <ele>596.445653</ele>
        <time>2022-03-19T11:20:47.532Z</time>
      </trkpt>
      <trkpt lat="47.510651" lon="8.108778">
        <ele>597.138141</ele>
        <time>2022-03-19T11:20:54.546Z</time>
      </trkpt>
      <trkpt lat="47.510669" lon="8.108929">
        <ele>597.813712</ele>
        <time>2022-03-19T11:21:01.518Z</time>
      </trkpt>
      <trkpt lat="47.510668" lon="8.109069">
        <ele>598.430572</ele>
        <time>2022-03-19T11:21:11.520Z</time>
      </trkpt>
      <trkpt lat="47.510664" lon="8.109229">
        <ele>599.135998</ele>
        <time>2022-03-19T11:21:17.545Z</time>
      </trkpt>
      <trkpt lat="47.510598" lon="8.109319">
        <ele>599.721297</ele>
        <time>2022-03-19T11:21:23.521Z</time>
      </trkpt>
      <trkpt lat="47.510493" lon="8.109308">
        <ele>600.407911</ele>
        <time>2022-03-19T11:21:30.517Z</time>
      </trkpt>
      <trkpt lat="47.510397" lon="8.109333">
        <ele>601.043721</ele>
        <time>2022-03-19T11:21:37.518Z</time>
      </trkpt>
      <trkpt lat="47.510300" lon="8.109306">
        <ele>601.687526</ele>
        <time>2022-03-19T11:21:42.517Z</time>
      </trkpt>
      <trkpt lat="47.510211" lon="8.109364">
        <ele>602.321816</ele>
        <time>2022-03-19T11:21:51.559Z</time>
      </trkpt>
      <trkpt lat="47.510180" lon="8.109509">
        <ele>602.991914</ele>
        <time>2022-03-19T11:21:58.519Z</time>
      </trkpt>
      <trkpt lat="47.510145" lon="8.109646">
        <ele>603.637259</ele>
        <time>2022-03-19T11:22:04.518Z</time>
      </trkpt>
      <trkpt lat="47.510100" lon="8.109770">
        <ele>604.257455</ele>
        <time>2022-03-19T11:22:12.524Z</time>
      </trkpt>
      <trkpt lat="47.510118" lon="8.109902">
        <ele>604.850773</ele>
        <time>2022-03-19T11:22:18.518Z</time>
      </trkpt>
      <trkpt lat="47.510115" lon="8.110045">
        <ele>605.481126</ele>
        <time>2022-03-19T11:22:25.518Z</time>
      </trkpt>
      <trkpt lat="47.510146" lon="8.110180">
        <ele>606.109360</ele>
        <time>2022-03-19T11:22:32.531Z</time>
      </trkpt>
      <trkpt lat="47.510155" lon="8.110317">
        <ele>606.715821</ele>
        <time>2022-03-19T11:22:39.510Z</time>
      </trkpt>
      <trkpt lat="47.510173" lon="8.110469">
        <ele>607.395738</ele>
        <time>2022-03-19T11:22:48.514Z</time>
      </trkpt>
      <trkpt lat="47.510185" lon="8.110600">
        <ele>607.978199</ele>
        <time>2022-03-19T11:22:53.528Z</time>
      </trkpt>
      <trkpt lat="47.510184" lon="8.110737">
        <ele>608.594797</ele>
        <time>2022-03-19T11:23:00.376Z</time>
      </trkpt>
      <trkpt lat="47.510171" lon="8.110876">
        <ele>609.238845</ele>
        <time>2022-03-19T11:23:07.470Z</time>
      </trkpt>
      <trkpt lat="47.510141" lon="8.111021">
        <ele>609.934863</ele>
        <time>2022-03-19T11:23:18.336Z</time>
      </trkpt>
      <trkpt lat="47.510125" lon="8.111152">
        <ele>610.545858</ele>
        <time>2022-03-19T11:23:24.367Z</time>
      </trkpt>
      <trkpt lat="47.510110" lon="8.111285">
        <ele>611.164732</ele>
        <time>2022-03-19T11:23:32.326Z</time>
      </trkpt>
      <trkpt lat="47.510124" lon="8.111436">
        <ele>611.864268</ele>
        <time>2022-03-19T11:23:40.339Z</time>
      </trkpt>
      <trkpt lat="47.510152" lon="8.111567">
        <ele>612.494896</ele>
        <time>2022-03-19T11:23:45.328Z</time>
      </trkpt>
      <trkpt lat="47.510243" lon="8.111578">
        <ele>613.115286</ele>
        <time>2022-03-19T11:23:58.339Z</time>
      </trkpt>
      <trkpt lat="47.510333" lon="8.111569">
        <ele>613.728216</ele>
        <time>2022-03-19T11:24:09.506Z</time>
      </trkpt>
      <trkpt lat="47.510435" lon="8.111584">
        <ele>614.424702</ele>
        <time>2022-03-19T11:24:16.366Z</time>
      </trkpt>
      <trkpt lat="47.510532" lon="8.111568">
        <ele>615.087881</ele>
        <time>2022-03-19T11:24:22.339Z</time>
      </trkpt>
      <trkpt lat="47.510623" lon="8.111620">
        <ele>615.750673</ele>
        <time>2022-03-19T11:24:30.356Z</time>
      </trkpt>
      <trkpt lat="47.510716" lon="8.111677">
        <ele>616.434605</ele>
        <time>2022-03-19T11:24:35.346Z</time>
      </trkpt>
      <trkpt lat="47.510788" lon="8.111787">
        <ele>617.137616</ele>
        <time>2022-03-19T11:24:42.332Z</time>
      </trkpt>
      <trkpt lat="47.510873" lon="8.111838">
        <ele>617.760807</ele>
        <time>2022-03-19T11:24:49.366Z</time>
      </trkpt>
      <trkpt lat="47.510950" lon="8.111917">
        <ele>618.397364</ele>
        <time>2022-03-19T11:24:57.331Z</time>
      </trkpt>
      <trkpt lat="47.511043" lon="8.111938">
        <ele>619.036593</ele>
        <time>2022-03-19T11:25:03.372Z</time>
      </trkpt>
      <trkpt lat="47.511129" lon="8.111991">
        <ele>619.669557</ele>
        <time>2022-03-19T11:25:08.328Z</time>
      </trkpt>
      <trkpt lat="47.511215" lon="8.112056">
        <ele>620.325658</ele>
        <time>2022-03-19T11:25:18.331Z</time>
      </trkpt>
      <trkpt lat="47.511297" lon="8.112145">
        <ele>620.576331</ele>
        <time>2022-03-19T11:25:23.338Z</time>
      </trkpt>
      <trkpt lat="47.511391" lon="8.112184">
        <ele>620.682142</ele>
        <time>2022-03-19T11:25:30.354Z</time>
      </trkpt>
      <trkpt lat="47.511487" lon="8.112209">
        <ele>620.787793</ele>
        <time>2022-03-19T11:25:37.376Z</time>
      </trkpt>
      <trkpt lat="47.511574" lon="8.112295">
        <ele>620.901179</ele>
        <time>2022-03-19T11:25:44.346Z</time>
      </trkpt>
      <trkpt lat="47.511654" lon="8.112379">
        <ele>621.007484</ele>
        <time>2022-03-19T11:25:53.351Z</time>
      </trkpt>
      <trkpt lat="47.511698" lon="8.112495">
        <ele>621.104883</ele>
        <time>2022-03-19T11:25:59.338Z</time>
      </trkpt>
      <trkpt lat="47.511754" lon="8.112609">
        <ele>621.208081</ele>
        <time>2022-03-19T11:26:08.347Z</time>
      </trkpt>
      <trkpt lat="47.511801" lon="8.112742">
        <ele>621.317972</ele>
        <time>2022-03-19T11:26:14.350Z</time>
      </trkpt>
      <trkpt lat="47.511870" lon="8.112852">
        <ele>621.427875</ele>
        <time>2022-03-19T11:26:21.336Z</time>
      </trkpt>
      <trkpt lat="47.511946" lon="8.112938">
        <ele>621.531557</ele>
        <time>2022-03-19T11:26:27.353Z</time>
      </trkpt>
      <trkpt lat="47.511968" lon="8.113083">
        <ele>621.640357</ele>
        <time>2022-03-19T11:26:33.342Z</time>
      </trkpt>
      <trkpt lat="47.512022" lon="8.113204">
        <ele>621.746531</ele>
        <time>2022-03-19T11:26:38.344Z</time>
      </trkpt>
      <trkpt lat="47.512102" lon="8.113297">
        <ele>621.856778</ele>
        <time>2022-03-19T11:26:44.337Z</time>
      </trkpt>
      <trkpt lat="47.512185" lon="8.113380">
        <ele>621.965340</ele>
        <time>2022-03-19T11:26:50.327Z</time>
      </trkpt>
      <trkpt lat="47.512252" lon="8.113479">
        <ele>622.067940</ele>
        <time>2022-03-19T11:26:56.333Z</time>
      </trkpt>
      <trkpt lat="47.512328" lon="8.113567">
        <ele>622.172517</ele>
        <time>2022-03-19T11:27:06.337Z</time>
      </trkpt>
      <trkpt lat="47.512382" lon="8.113692">
        <ele>622.281146</ele>
        <time>2022-03-19T11:27:13.325Z</time>
      </trkpt>
      <trkpt lat="47.512449" lon="8.113815">
        <ele>622.396828</ele>
        <time>2022-03-19T11:27:21.329Z</time>
      </trkpt>
      <trkpt lat="47.512512" lon="8.113917">
        <ele>622.492326</ele>
        <time>2022-03-19T11:27:26.333Z</time>
      </trkpt>
      <trkpt lat="47.512556" lon="8.114048">
        <ele>622.588490</ele>
        <time>2022-03-19T11:27:33.334Z</time>
      </trkpt>
      <trkpt lat="47.512599" lon="8.114173">
        <ele>622.680693</ele>
        <time>2022-03-19T11:27:40.344Z</time>
      </trkpt>
      <trkpt lat="47.512682" lon="8.114236">
        <ele>622.771461</ele>
        <time>2022-03-19T11:27:47.322Z</time>
      </trkpt>
      <trkpt lat="47.512754" lon="8.114345">
        <ele>622.871672</ele>
        <time>2022-03-19T11:27:55.562Z</time>
      </trkpt>
      <trkpt lat="47.512824" lon="8.114442">
        <ele>622.964974</ele>
        <time>2022-03-19T11:28:03.338Z</time>
      </trkpt>
      <trkpt lat="47.512905" lon="8.114543">
        <ele>623.068030</ele>
        <time>2022-03-19T11:28:09.336Z</time>
      </trkpt>
      <trkpt lat="47.512993" lon="8.114601">
        <ele>623.161769</ele>
        <time>2022-03-19T11:28:17.364Z</time>
      </trkpt>
      <trkpt lat="47.513094" lon="8.114640">
        <ele>623.263344</ele>
        <time>2022-03-19T11:28:23.336Z</time>
      </trkpt>
      <trkpt lat="47.513150" lon="8.114763">
        <ele>623.360843</ele>
        <time>2022-03-19T11:28:31.344Z</time>
      </trkpt>
      <trkpt lat="47.513192" lon="8.114897">
        <ele>623.457940</ele>
        <time>2022-03-19T11:28:38.349Z</time>
      </trkpt>
      <trkpt lat="47.513237" lon="8.115023">
        <ele>623.551623</ele>
        <time>2022-03-19T11:28:46.353Z</time>
      </trkpt>
      <trkpt lat="47.513324" lon="8.115092">
        <ele>623.647669</ele>
        <time>2022-03-19T11:28:52.374Z</time>
      </trkpt>
      <trkpt lat="47.513387" lon="8.115207">
        <ele>623.744994</ele>
        <time>2022-03-19T11:29:01.372Z</time>
      </trkpt>
      <trkpt lat="47.513481" lon="8.115273">
        <ele>623.846234</ele>
        <time>2022-03-19T11:29:07.330Z</time>
      </trkpt>
      <trkpt lat="47.513566" lon="8.115340">
        <ele>623.939944</ele>
        <time>2022-03-19T11:29:14.340Z</time>
      </trkpt>
      <trkpt lat="47.513648" lon="8.115416">
        <ele>624.034088</ele>
        <time>2022-03-19T11:29:22.344Z</time>
      </trkpt>
      <trkpt lat="47.513735" lon="8.115452">
        <ele>624.121996</ele>
        <time>2022-03-19T11:29:29.343Z</time>
      </trkpt>
      <trkpt lat="47.513808" lon="8.115340">
        <ele>624.194763</ele>
        <time>2022-03-19T11:29:38.874Z</time>
      </trkpt>
      <trkpt lat="47.513825" lon="8.115207">
        <ele>624.200658</ele>
        <time>2022-03-19T11:29:44.334Z</time>
      </trkpt>
      <trkpt lat="47.513793" lon="8.115064">
        <ele>624.207219</ele>
        <time>2022-03-19T11:29:51.336Z</time>
      </trkpt>
      <trkpt lat="47.513741" lon="8.114932">
        <ele>624.213874</ele>
        <time>2022-03-19T11:29:57.324Z</time>
      </trkpt>
      <trkpt lat="47.513711" lon="8.114780">
        <ele>624.220771</ele>
        <time>2022-03-19T11:30:05.338Z</time>
      </trkpt>
      <trkpt lat="47.513698" lon="8.114637">
        <ele>624.227055</ele>
        <time>2022-03-19T11:30:10.328Z</time>
      </trkpt>
      <trkpt lat="47.513741" lon="8.114508">
        <ele>624.233319</ele>
        <time>2022-03-19T11:30:18.327Z</time>
      </trkpt>
      <trkpt lat="47.513747" lon="8.114370">
        <ele>624.239342</ele>
        <time>2022-03-19T11:30:25.371Z</time>
      </trkpt>
      <trkpt lat="47.513792" lon="8.114228">
        <ele>624.246173</ele>
        <time>2022-03-19T11:30:31.345Z</time>
      </trkpt>
      <trkpt lat="47.513841" lon="8.114104">
        <ele>624.252430</ele>
        <time>2022-03-19T11:30:38.340Z</time>
      </trkpt>
      <trkpt lat="47.513933" lon="8.114072">
        <ele>624.258523</ele>
        <time>2022-03-19T11:30:46.338Z</time>
      </trkpt>
      <trkpt lat="47.514024" lon="8.114102">
        <ele>624.264535</ele>
        <time>2022-03-19T11:30:54.366Z</time>
      </trkpt>
      <trkpt lat="47.514116" lon="8.114154">
        <ele>624.270884</ele>
        <time>2022-03-19T11:30:59.349Z</time>
      </trkpt>
      <trkpt lat="47.514210" lon="8.114196">
        <ele>624.277216</ele>
        <time>2022-03-19T11:31:08.331Z</time>
      </trkpt>
      <trkpt lat="47.514303" lon="8.114247">
        <ele>624.283610</ele>
        <time>2022-03-19T11:31:16.339Z</time>
      </trkpt>
      <trkpt lat="47.514406" lon="8.114273">
        <ele>624.290348</ele>
        <time>2022-03-19T11:31:22.342Z</time>
      </trkpt>
      <trkpt lat="47.514487" lon="8.114332">
        <ele>624.296168</ele>
        <time>2022-03-19T11:31:28.351Z</time>
      </trkpt>
      <trkpt lat="47.514581" lon="8.114381">
        <ele>624.302594</ele>
        <time>2022-03-19T11:31:36.346Z</time>
      </trkpt>
      <trkpt lat="47.514676" lon="8.114403">
        <ele>624.328607</ele>
        <time>2022-03-19T11:31:43.342Z</time>
      </trkpt>
      <trkpt lat="47.514755" lon="8.114485">
        <ele>625.156115</ele>
        <time>2022-03-19T11:31:49.338Z</time>
      </trkpt>
      <trkpt lat="47.514829" lon="8.114576">
        <ele>625.981185</ele>
        <time>2022-03-19T11:31:56.327Z</time>
      </trkpt>
      <trkpt lat="47.514876" lon="8.114704">
        <ele>626.825176</ele>
        <time>2022-03-19T11:32:04.342Z</time>
      </trkpt>
      <trkpt lat="47.514915" lon="8.114836">
        <ele>627.659805</ele>
        <time>2022-03-19T11:32:12.328Z</time>
      </trkpt>
      <trkpt lat="47.514980" lon="8.114933">
        <ele>628.451362</ele>
        <time>2022-03-19T11:32:17.347Z</time>
      </trkpt>
      <trkpt lat="47.515033" lon="8.115041">
        <ele>629.224708</ele>
        <time>2022-03-19T11:32:27.349Z</time>
      </trkpt>
      <trkpt lat="47.515079" lon="8.115156">
        <ele>629.998960</ele>
        <time>2022-03-19T11:32:36.330Z</time>
      </trkpt>
      <trkpt lat="47.515157" lon="8.115245">
        <ele>630.843580</ele>
        <time>2022-03-19T11:32:46.341Z</time>
      </trkpt>
      <trkpt lat="47.515212" lon="8.115357">
        <ele>631.645754</ele>
        <time>2022-03-19T11:32:55.339Z</time>
      </trkpt>
      <trkpt lat="47.515248" lon="8.115484">
        <ele>632.443620</ele>
        <time>2022-03-19T11:33:03.335Z</time>
      </trkpt>
      <trkpt lat="47.515311" lon="8.115595">
        <ele>633.283527</ele>
        <time>2022-03-19T11:33:09.357Z</time>
      </trkpt>
      <trkpt lat="47.515383" lon="8.115693">
        <ele>634.122365</ele>
        <time>2022-03-19T11:33:17.336Z</time>
      </trkpt>
      <trkpt lat="47.515460" lon="8.115792">
        <ele>634.997045</ele>
        <time>2022-03-19T11:33:24.343Z</time>
      </trkpt>
      <trkpt lat="47.515557" lon="8.115854">
        <ele>635.903231</ele>
        <time>2022-03-19T11:33:31.370Z</time>
      </trkpt>
      <trkpt lat="47.515643" lon="8.115891">
        <ele>636.671366</ele>
        <time>2022-03-19T11:33:38.369Z</time>
      </trkpt>
      <trkpt lat="47.515648" lon="8.116033">
        <ele>637.495066</ele>
        <time>2022-03-19T11:33:43.390Z</time>
      </trkpt>
      <trkpt lat="47.515611" lon="8.116169">
        <ele>638.344408</ele>
        <time>2022-03-19T11:33:49.340Z</time>
      </trkpt>
      <trkpt lat="47.515573" lon="8.116294">
        <ele>639.138485</ele>
        <time>2022-03-19T11:33:54.381Z</time>
      </trkpt>
      <trkpt lat="47.515563" lon="8.116438">
        <ele>639.955211</ele>
        <time>2022-03-19T11:34:03.352Z</time>
      </trkpt>
      <trkpt lat="47.515525" lon="8.116563">
        <ele>640.677431</ele>
        <time>2022-03-19T11:34:09.334Z</time>
      </trkpt>
      <trkpt lat="47.515491" lon="8.116687">
        <ele>641.382530</ele>
        <time>2022-03-19T11:34:17.366Z</time>
      </trkpt>
      <trkpt lat="47.515448" lon="8.116811">
        <ele>642.116925</ele>
        <time>2022-03-19T11:34:24.336Z</time>
      </trkpt>
      <trkpt lat="47.515414" lon="8.116939">
        <ele>642.841595</ele>
        <time>2022-03-19T11:34:32.336Z</time>
      </trkpt>
      <trkpt lat="47.515348" lon="8.117062">
        <ele>643.669268</ele>
        <time>2022-03-19T11:34:40.329Z</time>
      </trkpt>
      <trkpt lat="47.515324" lon="8.117194">
        <ele>644.389491</ele>
        <time>2022-03-19T11:34:47.346Z</time>
      </trkpt>
      <trkpt lat="47.515273" lon="8.117309">
        <ele>645.114331</ele>
        <time>2022-03-19T11:34:53.327Z</time>
      </trkpt>
      <trkpt lat="47.515226" lon="8.117431">
        <ele>645.854324</ele>
        <time>2022-03-19T11:35:00.341Z</time>
      </trkpt>
      <trkpt lat="47.515175" lon="8.117580">
        <ele>646.734414</ele>
        <time>2022-03-19T11:35:09.333Z</time>
      </trkpt>
      <trkpt lat="47.515121" lon="8.117702">
        <ele>647.502929</ele>
        <time>2022-03-19T11:35:17.330Z</time>
      </trkpt>
      <trkpt lat="47.515066" lon="8.117814">
        <ele>648.232513</ele>
        <time>2022-03-19T11:35:24.334Z</time>
      </trkpt>
      <trkpt lat="47.515013" lon="8.117927">
        <ele>648.957355</ele>
        <time>2022-03-19T11:35:30.340Z</time>
      </trkpt>
      <trkpt lat="47.514977" lon="8.118059">
        <ele>649.707384</ele>
        <time>2022-03-19T11:35:39.350Z</time>
      </trkpt>
      <trkpt lat="47.514950" lon="8.118188">
        <ele>650.418934</ele>
        <time>2022-03-19T11:35:44.372Z</time>
      </trkpt>
      <trkpt lat="47.514928" lon="8.118341">
        <ele>651.243112</ele>
        <time>2022-03-19T11:35:58.327Z</time>
      </trkpt>
      <trkpt lat="47.514904" lon="8.118474">
        <ele>651.968430</ele>
        <time>2022-03-19T11:36:07.338Z</time>
      </trkpt>
      <trkpt lat="47.514872" lon="8.118606">
        <ele>652.707343</ele>
        <time>2022-03-19T11:36:11.341Z</time>
      </trkpt>
      <trkpt lat="47.514840" lon="8.118738">
        <ele>653.446257</ele>
        <time>2022-03-19T11:36:19.334Z</time>
      </trkpt>
      <trkpt lat="47.514790" lon="8.118859">
        <ele>654.515569</ele>
        <time>2022-03-19T11:36:27.343Z</time>
      </trkpt>
      <trkpt lat="47.514766" lon="8.118991">
        <ele>655.778928</ele>
        <time>2022-03-19T11:36:34.341Z</time>
      </trkpt>
      <trkpt lat="47.514705" lon="8.119117">
        <ele>657.211663</ele>
        <time>2022-03-19T11:36:43.349Z</time>
      </trkpt>
      <trkpt lat="47.514650" lon="8.119234">
        <ele>658.529091</ele>
        <time>2022-03-19T11:36:48.333Z</time>
      </trkpt>
      <trkpt lat="47.514596" lon="8.119342">
        <ele>659.770965</ele>
        <time>2022-03-19T11:36:58.396Z</time>
      </trkpt>
      <trkpt lat="47.514553" lon="8.119465">
        <ele>661.050973</ele>
        <time>2022-03-19T11:37:04.369Z</time>
      </trkpt>
      <trkpt lat="47.514487" lon="8.119570">
        <ele>662.376605</ele>
        <time>2022-03-19T11:37:10.345Z</time>
      </trkpt>
      <trkpt lat="47.514428" lon="8.119677">
        <ele>663.653195</ele>
        <time>2022-03-19T11:37:20.340Z</time>
      </trkpt>
      <trkpt lat="47.514392" lon="8.119800">
        <ele>664.892100</ele>
        <time>2022-03-19T11:37:28.332Z</time>
      </trkpt>
      <trkpt lat="47.514367" lon="8.119945">
        <ele>666.275158</ele>
        <time>2022-03-19T11:37:36.334Z</time>
      </trkpt>
      <trkpt lat="47.514285" lon="8.120011">
        <ele>667.552290</ele>
        <time>2022-03-19T11:37:47.344Z</time>
      </trkpt>
      <trkpt lat="47.514198" lon="8.119966">
        <ele>668.813315</ele>
        <time>2022-03-19T11:37:57.341Z</time>
      </trkpt>
      <trkpt lat="47.514122" lon="8.119884">
        <ele>670.100104</ele>
        <time>2022-03-19T11:38:06.342Z</time>
      </trkpt>
      <trkpt lat="47.514040" lon="8.119809">
        <ele>671.418990</ele>
        <time>2022-03-19T11:38:14.342Z</time>
      </trkpt>
      <trkpt lat="47.513944" lon="8.119845">
        <ele>672.774092</ele>
        <time>2022-03-19T11:38:22.330Z</time>
      </trkpt>
      <trkpt lat="47.513989" lon="8.120005">
        <ele>674.375900</ele>
        <time>2022-03-19T11:38:31.482Z</time>
      </trkpt>
      <trkpt lat="47.513996" lon="8.120152">
        <ele>675.737850</ele>
        <time>2022-03-19T11:38:41.392Z</time>
      </trkpt>
      <trkpt lat="47.514054" lon="8.120271">
        <ele>677.094108</ele>
        <time>2022-03-19T11:38:48.346Z</time>
      </trkpt>
      <trkpt lat="47.514058" lon="8.120416">
        <ele>678.377030</ele>
        <time>2022-03-19T11:38:58.340Z</time>
      </trkpt>
      <trkpt lat="47.514070" lon="8.120578">
        <ele>678.336214</ele>
        <time>2022-03-19T11:39:03.343Z</time>
      </trkpt>
      <trkpt lat="47.514097" lon="8.120718">
        <ele>678.299750</ele>
        <time>2022-03-19T11:39:09.334Z</time>
      </trkpt>
      <trkpt lat="47.514168" lon="8.120830">
        <ele>678.261280</ele>
        <time>2022-03-19T11:39:19.336Z</time>
      </trkpt>
      <trkpt lat="47.514224" lon="8.120937">
        <ele>678.227378</ele>
        <time>2022-03-19T11:39:28.346Z</time>
      </trkpt>
      <trkpt lat="47.514271" lon="8.121059">
        <ele>678.192202</ele>
        <time>2022-03-19T11:39:34.335Z</time>
      </trkpt>
      <trkpt lat="47.514334" lon="8.121164">
        <ele>678.157027</ele>
        <time>2022-03-19T11:39:39.343Z</time>
      </trkpt>
      <trkpt lat="47.514376" lon="8.121293">
        <ele>678.121162</ele>
        <time>2022-03-19T11:39:46.702Z</time>
      </trkpt>
      <trkpt lat="47.514426" lon="8.121429">
        <ele>678.082382</ele>
        <time>2022-03-19T11:39:55.708Z</time>
      </trkpt>
      <trkpt lat="47.514498" lon="8.121522">
        <ele>678.046951</ele>
        <time>2022-03-19T11:40:04.672Z</time>
      </trkpt>
      <trkpt lat="47.514554" lon="8.121636">
        <ele>678.011648</ele>
        <time>2022-03-19T11:40:11.677Z</time>
      </trkpt>
      <trkpt lat="47.514613" lon="8.121737">
        <ele>677.978204</ele>
        <time>2022-03-19T11:40:21.675Z</time>
      </trkpt>
      <trkpt lat="47.514700" lon="8.121820">
        <ele>677.939826</ele>
        <time>2022-03-19T11:40:30.685Z</time>
      </trkpt>
      <trkpt lat="47.514786" lon="8.121904">
        <ele>677.901622</ele>
        <time>2022-03-19T11:40:38.664Z</time>
      </trkpt>
      <trkpt lat="47.514861" lon="8.122000">
        <ele>677.864860</ele>
        <time>2022-03-19T11:40:48.669Z</time>
      </trkpt>
      <trkpt lat="47.514905" lon="8.122138">
        <ele>677.826641</ele>
        <time>2022-03-19T11:40:56.677Z</time>
      </trkpt>
      <trkpt lat="47.514960" lon="8.122254">
        <ele>677.791145</ele>
        <time>2022-03-19T11:41:01.673Z</time>
      </trkpt>
      <trkpt lat="47.515056" lon="8.122336">
        <ele>677.750048</ele>
        <time>2022-03-19T11:41:07.672Z</time>
      </trkpt>
      <trkpt lat="47.515126" lon="8.122440">
        <ele>677.713276</ele>
        <time>2022-03-19T11:41:16.702Z</time>
      </trkpt>
      <trkpt lat="47.515193" lon="8.122557">
        <ele>676.103842</ele>
        <time>2022-03-19T11:41:25.679Z</time>
      </trkpt>
      <trkpt lat="47.515248" lon="8.122685">
        <ele>674.441708</ele>
        <time>2022-03-19T11:41:32.740Z</time>
      </trkpt>
      <trkpt lat="47.515325" lon="8.122801">
        <ele>672.659745</ele>
        <time>2022-03-19T11:41:41.032Z</time>
      </trkpt>
      <trkpt lat="47.515392" lon="8.122889">
        <ele>671.206880</ele>
        <time>2022-03-19T11:41:46.662Z</time>
      </trkpt>
      <trkpt lat="47.515457" lon="8.122986">
        <ele>669.709815</ele>
        <time>2022-03-19T11:41:58.729Z</time>
      </trkpt>
      <trkpt lat="47.515520" lon="8.123096">
        <ele>668.129674</ele>
        <time>2022-03-19T11:42:03.681Z</time>
      </trkpt>
      <trkpt lat="47.515591" lon="8.123198">
        <ele>666.524881</ele>
        <time>2022-03-19T11:42:16.668Z</time>
      </trkpt>
      <trkpt lat="47.515666" lon="8.123274">
        <ele>665.050597</ele>
        <time>2022-03-19T11:42:20.668Z</time>
      </trkpt>
      <trkpt lat="47.515750" lon="8.123328">
        <ele>663.565075</ele>
        <time>2022-03-19T11:42:26.659Z</time>
      </trkpt>
      <trkpt lat="47.515843" lon="8.123332">
        <ele>662.055813</ele>
        <time>2022-03-19T11:42:33.668Z</time>
      </trkpt>
      <trkpt lat="47.515937" lon="8.123378">
        <ele>660.449840</ele>
        <time>2022-03-19T11:42:41.670Z</time>
      </trkpt>
      <trkpt lat="47.516044" lon="8.123444">
        <ele>658.569516</ele>
        <time>2022-03-19T11:42:51.671Z</time>
      </trkpt>
      <trkpt lat="47.516145" lon="8.123436">
        <ele>656.928774</ele>
        <time>2022-03-19T11:42:57.703Z</time>
      </trkpt>
      <trkpt lat="47.516247" lon="8.123462">
        <ele>655.249812</ele>
        <time>2022-03-19T11:43:03.673Z</time>
      </trkpt>
      <trkpt lat="47.516330" lon="8.123529">
        <ele>653.716308</ele>
        <time>2022-03-19T11:43:10.671Z</time>
      </trkpt>
      <trkpt lat="47.516434" lon="8.123554">
        <ele>652.007154</ele>
        <time>2022-03-19T11:43:19.670Z</time>
      </trkpt>
      <trkpt lat="47.516508" lon="8.123633">
        <ele>650.527257</ele>
        <time>2022-03-19T11:43:28.704Z</time>
      </trkpt>
      <trkpt lat="47.516580" lon="8.123715">
        <ele>649.053747</ele>
        <time>2022-03-19T11:43:37.673Z</time>
      </trkpt>
      <trkpt lat="47.516659" lon="8.123791">
        <ele>647.815060</ele>
        <time>2022-03-19T11:43:42.718Z</time>
      </trkpt>
      <trkpt lat="47.516756" lon="8.123821">
        <ele>646.668947</ele>
        <time>2022-03-19T11:43:50.689Z</time>
      </trkpt>
      <trkpt lat="47.516839" lon="8.123886">
        <ele>645.582968</ele>
        <time>2022-03-19T11:43:55.669Z</time>
      </trkpt>
      <trkpt lat="47.516934" lon="8.123907">
        <ele>644.472023</ele>
        <time>2022-03-19T11:44:06.675Z</time>
      </trkpt>
      <trkpt lat="47.517021" lon="8.123997">
        <ele>643.244524</ele>
        <time>2022-03-19T11:44:10.668Z</time>
      </trkpt>
      <trkpt lat="47.517102" lon="8.123926">
        <ele>642.155827</ele>
        <time>2022-03-19T11:44:20.722Z</time>
      </trkpt>
      <trkpt lat="47.517191" lon="8.123890">
        <ele>641.088736</ele>
        <time>2022-03-19T11:44:25.667Z</time>
      </trkpt>
      <trkpt lat="47.517291" lon="8.123840">
        <ele>639.867975</ele>
        <time>2022-03-19T11:44:36.667Z</time>
      </trkpt>
      <trkpt lat="47.517381" lon="8.123798">
        <ele>638.776562</ele>
        <time>2022-03-19T11:44:45.657Z</time>
      </trkpt>
      <trkpt lat="47.517469" lon="8.123764">
        <ele>637.724677</ele>
        <time>2022-03-19T11:44:50.663Z</time>
      </trkpt>
      <trkpt lat="47.517556" lon="8.123712">
        <ele>636.639548</ele>
        <time>2022-03-19T11:44:59.666Z</time>
      </trkpt>
      <trkpt lat="47.517651" lon="8.123734">
        <ele>635.527424</ele>
        <time>2022-03-19T11:45:04.778Z</time>
      </trkpt>
      <trkpt lat="47.517758" lon="8.123768">
        <ele>634.261688</ele>
        <time>2022-03-19T11:45:08.669Z</time>
      </trkpt>
      <trkpt lat="47.517832" lon="8.123845">
        <ele>633.215605</ele>
        <time>2022-03-19T11:45:21.666Z</time>
      </trkpt>
      <trkpt lat="47.517928" lon="8.123890">
        <ele>632.050961</ele>
        <time>2022-03-19T11:45:28.669Z</time>
      </trkpt>
      <trkpt lat="47.518018" lon="8.123917">
        <ele>630.988873</ele>
        <time>2022-03-19T11:45:35.679Z</time>
      </trkpt>
      <trkpt lat="47.518115" lon="8.123919">
        <ele>629.866865</ele>
        <time>2022-03-19T11:45:42.675Z</time>
      </trkpt>
      <trkpt lat="47.518204" lon="8.123895">
        <ele>628.820562</ele>
        <time>2022-03-19T11:45:47.679Z</time>
      </trkpt>
      <trkpt lat="47.518298" lon="8.123865">
        <ele>627.754960</ele>
        <time>2022-03-19T11:46:01.672Z</time>
      </trkpt>
      <trkpt lat="47.518385" lon="8.123823">
        <ele>628.841834</ele>
        <time>2022-03-19T11:46:10.677Z</time>
      </trkpt>
      <trkpt lat="47.518477" lon="8.123775">
        <ele>630.000411</ele>
        <time>2022-03-19T11:46:16.665Z</time>
      </trkpt>
      <trkpt lat="47.518565" lon="8.123733">
        <ele>631.098583</ele>
        <time>2022-03-19T11:46:23.671Z</time>
      </trkpt>
      <trkpt lat="47.518682" lon="8.123716">
        <ele>632.494921</ele>
        <time>2022-03-19T11:46:33.669Z</time>
      </trkpt>
      <trkpt lat="47.518773" lon="8.123688">
        <ele>633.598860</ele>
        <time>2022-03-19T11:46:41.699Z</time>
      </trkpt>
      <trkpt lat="47.518867" lon="8.123662">
        <ele>634.734654</ele>
        <time>2022-03-19T11:46:49.699Z</time>
      </trkpt>
      <trkpt lat="47.518962" lon="8.123645">
        <ele>635.871224</ele>
        <time>2022-03-19T11:46:54.709Z</time>
      </trkpt>
      <trkpt lat="47.519056" lon="8.123616">
        <ele>637.011682</ele>
        <time>2022-03-19T11:47:04.702Z</time>
      </trkpt>
      <trkpt lat="47.519147" lon="8.123601">
        <ele>638.099208</ele>
        <time>2022-03-19T11:47:09.675Z</time>
      </trkpt>
      <trkpt lat="47.519255" lon="8.123621">
        <ele>639.391967</ele>
        <time>2022-03-19T11:47:22.673Z</time>
      </trkpt>
      <trkpt lat="47.519350" lon="8.123606">
        <ele>640.526724</ele>
        <time>2022-03-19T11:47:30.722Z</time>
      </trkpt>
      <trkpt lat="47.519447" lon="8.123615">
        <ele>641.681098</ele>
        <time>2022-03-19T11:47:37.666Z</time>
      </trkpt>
      <trkpt lat="47.519544" lon="8.123588">
        <ele>642.853391</ele>
        <time>2022-03-19T11:47:47.698Z</time>
      </trkpt>
      <trkpt lat="47.519636" lon="8.123558">
        <ele>643.972301</ele>
        <time>2022-03-19T11:47:55.663Z</time>
      </trkpt>
      <trkpt lat="47.519727" lon="8.123527">
        <ele>645.081386</ele>
        <time>2022-03-19T11:48:07.669Z</time>
      </trkpt>
      <trkpt lat="47.519817" lon="8.123544">
        <ele>646.159020</ele>
        <time>2022-03-19T11:48:17.673Z</time>
      </trkpt>
      <trkpt lat="47.519910" lon="8.123591">
        <ele>647.326188</ele>
        <time>2022-03-19T11:48:28.661Z</time>
      </trkpt>
      <trkpt lat="47.520003" lon="8.123634">
        <ele>648.483390</ele>
        <time>2022-03-19T11:48:34.679Z</time>
      </trkpt>
      <trkpt lat="47.520099" lon="8.123675">
        <ele>649.303772</ele>
        <time>2022-03-19T11:48:39.295Z</time>
      </trkpt>
      <trkpt lat="47.520197" lon="8.123682">
        <ele>649.727204</ele>
        <time>2022-03-19T11:48:46.244Z</time>
      </trkpt>
      <trkpt lat="47.520288" lon="8.123680">
        <ele>650.119977</ele>
        <time>2022-03-19T11:48:52.241Z</time>
      </trkpt>
      <trkpt lat="47.520377" lon="8.123710">
        <ele>650.513902</ele>
        <time>2022-03-19T11:49:00.237Z</time>
      </trkpt>
      <trkpt lat="47.520481" lon="8.123716">
        <ele>650.963077</ele>
        <time>2022-03-19T11:49:11.218Z</time>
      </trkpt>
      <trkpt lat="47.520576" lon="8.123693">
        <ele>651.378513</ele>
        <time>2022-03-19T11:49:17.220Z</time>
      </trkpt>
      <trkpt lat="47.520680" lon="8.123711">
        <ele>651.830403</ele>
        <time>2022-03-19T11:49:24.220Z</time>
      </trkpt>
      <trkpt lat="47.520783" lon="8.123688">
        <ele>652.279948</ele>
        <time>2022-03-19T11:49:30.217Z</time>
      </trkpt>
      <trkpt lat="47.520898" lon="8.123664">
        <ele>652.781160</ele>
        <time>2022-03-19T11:49:41.232Z</time>
      </trkpt>
      <trkpt lat="47.520991" lon="8.123631">
        <ele>653.193884</ele>
        <time>2022-03-19T11:49:46.232Z</time>
      </trkpt>
      <trkpt lat="47.521077" lon="8.123581">
        <ele>653.592618</ele>
        <time>2022-03-19T11:49:53.220Z</time>
      </trkpt>
      <trkpt lat="47.521153" lon="8.123509">
        <ele>653.981995</ele>
        <time>2022-03-19T11:50:01.228Z</time>
      </trkpt>
      <trkpt lat="47.521244" lon="8.123466">
        <ele>654.394235</ele>
        <time>2022-03-19T11:50:10.241Z</time>
      </trkpt>
      <trkpt lat="47.521323" lon="8.123384">
        <ele>654.810595</ele>
        <time>2022-03-19T11:50:17.271Z</time>
      </trkpt>
      <trkpt lat="47.521406" lon="8.123319">
        <ele>655.215809</ele>
        <time>2022-03-19T11:50:22.306Z</time>
      </trkpt>
      <trkpt lat="47.521479" lon="8.123210">
        <ele>655.663216</ele>
        <time>2022-03-19T11:50:29.266Z</time>
      </trkpt>
      <trkpt lat="47.521553" lon="8.123130">
        <ele>656.058633</ele>
        <time>2022-03-19T11:50:38.231Z</time>
      </trkpt>
      <trkpt lat="47.521647" lon="8.123108">
        <ele>656.469346</ele>
        <time>2022-03-19T11:50:44.225Z</time>
      </trkpt>
      <trkpt lat="47.521748" lon="8.123070">
        <ele>656.819717</ele>
        <time>2022-03-19T11:50:48.228Z</time>
      </trkpt>
      <trkpt lat="47.521831" lon="8.123017">
        <ele>656.584197</ele>
        <time>2022-03-19T11:50:59.230Z</time>
      </trkpt>
      <trkpt lat="47.521922" lon="8.122976">
        <ele>656.336351</ele>
        <time>2022-03-19T11:51:06.229Z</time>
      </trkpt>
      <trkpt lat="47.521994" lon="8.122885">
        <ele>656.089701</ele>
        <time>2022-03-19T11:51:17.259Z</time>
      </trkpt>
      <trkpt lat="47.522061" lon="8.122792">
        <ele>655.850417</ele>
        <time>2022-03-19T11:51:26.600Z</time>
      </trkpt>
      <trkpt lat="47.522177" lon="8.122736">
        <ele>655.532506</ele>
        <time>2022-03-19T11:51:32.581Z</time>
      </trkpt>
      <trkpt lat="47.522259" lon="8.122664">
        <ele>655.284106</ele>
        <time>2022-03-19T11:51:36.592Z</time>
      </trkpt>
      <trkpt lat="47.522354" lon="8.122566">
        <ele>654.982427</ele>
        <time>2022-03-19T11:51:46.586Z</time>
      </trkpt>
      <trkpt lat="47.522443" lon="8.122489">
        <ele>654.713845</ele>
        <time>2022-03-19T11:51:50.591Z</time>
      </trkpt>
      <trkpt lat="47.522531" lon="8.122378">
        <ele>654.412639</ele>
        <time>2022-03-19T11:52:03.583Z</time>
      </trkpt>
      <trkpt lat="47.522626" lon="8.122303">
        <ele>654.132122</ele>
        <time>2022-03-19T11:52:08.679Z</time>
      </trkpt>
      <trkpt lat="47.522654" lon="8.122176">
        <ele>653.897046</ele>
        <time>2022-03-19T11:52:18.590Z</time>
      </trkpt>
      <trkpt lat="47.522728" lon="8.122058">
        <ele>653.613692</ele>
        <time>2022-03-19T11:52:28.597Z</time>
      </trkpt>
      <trkpt lat="47.522820" lon="8.121994">
        <ele>653.348839</ele>
        <time>2022-03-19T11:52:33.578Z</time>
      </trkpt>
      <trkpt lat="47.522879" lon="8.121885">
        <ele>653.103036</ele>
        <time>2022-03-19T11:52:40.591Z</time>
      </trkpt>
      <trkpt lat="47.522967" lon="8.121810">
        <ele>652.838475</ele>
        <time>2022-03-19T11:52:45.592Z</time>
      </trkpt>
      <trkpt lat="47.523053" lon="8.121744">
        <ele>652.586084</ele>
        <time>2022-03-19T11:52:55.586Z</time>
      </trkpt>
      <trkpt lat="47.523133" lon="8.121658">
        <ele>652.328498</ele>
        <time>2022-03-19T11:53:00.619Z</time>
      </trkpt>
      <trkpt lat="47.523221" lon="8.121570">
        <ele>652.108345</ele>
        <time>2022-03-19T11:53:10.589Z</time>
      </trkpt>
      <trkpt lat="47.523310" lon="8.121532">
        <ele>651.981954</ele>
        <time>2022-03-19T11:53:13.588Z</time>
      </trkpt>
      <trkpt lat="47.523395" lon="8.121478">
        <ele>651.855745</ele>
        <time>2022-03-19T11:53:24.624Z</time>
      </trkpt>
      <trkpt lat="47.523488" lon="8.121494">
        <ele>651.727989</ele>
        <time>2022-03-19T11:53:30.583Z</time>
      </trkpt>
      <trkpt lat="47.523589" lon="8.121507">
        <ele>651.589650</ele>
        <time>2022-03-19T11:53:39.582Z</time>
      </trkpt>
      <trkpt lat="47.523678" lon="8.121592">
        <ele>651.445140</ele>
        <time>2022-03-19T11:53:43.597Z</time>
      </trkpt>
      <trkpt lat="47.523769" lon="8.121657">
        <ele>651.307276</ele>
        <time>2022-03-19T11:53:52.583Z</time>
      </trkpt>
      <trkpt lat="47.523831" lon="8.121758">
        <ele>651.181503</ele>
        <time>2022-03-19T11:54:01.595Z</time>
      </trkpt>
      <trkpt lat="47.523893" lon="8.121870">
        <ele>651.048056</ele>
        <time>2022-03-19T11:54:09.621Z</time>
      </trkpt>
      <trkpt lat="47.523965" lon="8.121952">
        <ele>650.924113</ele>
        <time>2022-03-19T11:54:15.585Z</time>
      </trkpt>
      <trkpt lat="47.524051" lon="8.122016">
        <ele>650.792778</ele>
        <time>2022-03-19T11:54:21.623Z</time>
      </trkpt>
      <trkpt lat="47.524137" lon="8.122068">
        <ele>650.666022</ele>
        <time>2022-03-19T11:54:29.588Z</time>
      </trkpt>
      <trkpt lat="47.524246" lon="8.122043">
        <ele>650.515514</ele>
        <time>2022-03-19T11:54:37.589Z</time>
      </trkpt>
      <trkpt lat="47.524314" lon="8.121950">
        <ele>650.389207</ele>
        <time>2022-03-19T11:54:44.590Z</time>
      </trkpt>
      <trkpt lat="47.524308" lon="8.121805">
        <ele>650.255347</ele>
        <time>2022-03-19T11:54:54.708Z</time>
      </trkpt>
      <trkpt lat="47.524280" lon="8.121676">
        <ele>650.130491</ele>
        <time>2022-03-19T11:55:02.581Z</time>
      </trkpt>
      <trkpt lat="47.524256" lon="8.121546">
        <ele>650.006307</ele>
        <time>2022-03-19T11:55:12.585Z</time>
      </trkpt>
      <trkpt lat="47.524239" lon="8.121410">
        <ele>649.878862</ele>
        <time>2022-03-19T11:55:16.590Z</time>
      </trkpt>
      <trkpt lat="47.524178" lon="8.121282">
        <ele>649.734503</ele>
        <time>2022-03-19T11:55:26.594Z</time>
      </trkpt>
      <trkpt lat="47.524164" lon="8.121138">
        <ele>650.015112</ele>
        <time>2022-03-19T11:55:30.591Z</time>
      </trkpt>
      <trkpt lat="47.524138" lon="8.120995">
        <ele>650.367608</ele>
        <time>2022-03-19T11:55:40.595Z</time>
      </trkpt>
      <trkpt lat="47.524124" lon="8.120863">
        <ele>650.685651</ele>
        <time>2022-03-19T11:55:44.591Z</time>
      </trkpt>
      <trkpt lat="47.524093" lon="8.120702">
        <ele>651.084144</ele>
        <time>2022-03-19T11:55:54.578Z</time>
      </trkpt>
      <trkpt lat="47.524074" lon="8.120571">
        <ele>651.403067</ele>
        <time>2022-03-19T11:55:58.584Z</time>
      </trkpt>
      <trkpt lat="47.524048" lon="8.120427">
        <ele>651.757863</ele>
        <time>2022-03-19T11:56:08.591Z</time>
      </trkpt>
      <trkpt lat="47.524038" lon="8.120284">
        <ele>652.100058</ele>
        <time>2022-03-19T11:56:12.575Z</time>
      </trkpt>
      <trkpt lat="47.524019" lon="8.120152">
        <ele>652.421309</ele>
        <time>2022-03-19T11:56:19.590Z</time>
      </trkpt>
      <trkpt lat="47.524026" lon="8.119996">
        <ele>652.793446</ele>
        <time>2022-03-19T11:56:27.515Z</time>
      </trkpt>
      <trkpt lat="47.524057" lon="8.119854">
        <ele>653.148665</ele>
        <time>2022-03-19T11:56:33.548Z</time>
      </trkpt>
      <trkpt lat="47.524103" lon="8.119718">
        <ele>653.510714</ele>
        <time>2022-03-19T11:56:41.517Z</time>
      </trkpt>
      <trkpt lat="47.524145" lon="8.119590">
        <ele>653.849449</ele>
        <time>2022-03-19T11:56:47.503Z</time>
      </trkpt>
      <trkpt lat="47.524154" lon="8.119438">
        <ele>654.212633</ele>
        <time>2022-03-19T11:56:55.560Z</time>
      </trkpt>
      <trkpt lat="47.524154" lon="8.119295">
        <ele>654.553008</ele>
        <time>2022-03-19T11:57:01.550Z</time>
      </trkpt>
      <trkpt lat="47.524155" lon="8.119160">
        <ele>654.874359</ele>
        <time>2022-03-19T11:57:12.551Z</time>
      </trkpt>
      <trkpt lat="47.524165" lon="8.119024">
        <ele>655.199985</ele>
        <time>2022-03-19T11:57:16.513Z</time>
      </trkpt>
      <trkpt lat="47.524169" lon="8.118878">
        <ele>655.547786</ele>
        <time>2022-03-19T11:57:26.521Z</time>
      </trkpt>
      <trkpt lat="47.524177" lon="8.118730">
        <ele>655.901188</ele>
        <time>2022-03-19T11:57:31.509Z</time>
      </trkpt>
      <trkpt lat="47.524178" lon="8.118570">
        <ele>656.694612</ele>
        <time>2022-03-19T11:57:41.519Z</time>
      </trkpt>
      <trkpt lat="47.524194" lon="8.118426">
        <ele>657.676175</ele>
        <time>2022-03-19T11:57:45.506Z</time>
      </trkpt>
      <trkpt lat="47.524201" lon="8.118282">
        <ele>658.647221</ele>
        <time>2022-03-19T11:57:55.548Z</time>
      </trkpt>
      <trkpt lat="47.524228" lon="8.118132">
        <ele>659.691343</ele>
        <time>2022-03-19T11:58:00.512Z</time>
      </trkpt>
      <trkpt lat="47.524245" lon="8.117996">
        <ele>660.621614</ele>
        <time>2022-03-19T11:58:09.509Z</time>
      </trkpt>
      <trkpt lat="47.524258" lon="8.117844">
        <ele>661.652128</ele>
        <time>2022-03-19T11:58:19.522Z</time>
      </trkpt>
      <trkpt lat="47.524242" lon="8.117713">
        <ele>662.547525</ele>
        <time>2022-03-19T11:58:29.520Z</time>
      </trkpt>
      <trkpt lat="47.524261" lon="8.117580">
        <ele>663.461877</ele>
        <time>2022-03-19T11:58:33.518Z</time>
      </trkpt>
      <trkpt lat="47.524249" lon="8.117414">
        <ele>664.584766</ele>
        <time>2022-03-19T11:58:41.519Z</time>
      </trkpt>
      <trkpt lat="47.524277" lon="8.117273">
        <ele>665.573283</ele>
        <time>2022-03-19T11:58:46.514Z</time>
      </trkpt>
      <trkpt lat="47.524355" lon="8.117191">
        <ele>666.526047</ele>
        <time>2022-03-19T11:58:55.547Z</time>
      </trkpt>
      <trkpt lat="47.524445" lon="8.117154">
        <ele>667.456375</ele>
        <time>2022-03-19T11:59:04.521Z</time>
      </trkpt>
      <trkpt lat="47.524527" lon="8.117088">
        <ele>668.385960</ele>
        <time>2022-03-19T11:59:11.517Z</time>
      </trkpt>
      <trkpt lat="47.524585" lon="8.116944">
        <ele>669.513696</ele>
        <time>2022-03-19T11:59:22.509Z</time>
      </trkpt>
      <trkpt lat="47.524633" lon="8.116823">
        <ele>670.457572</ele>
        <time>2022-03-19T11:59:31.528Z</time>
      </trkpt>
      <trkpt lat="47.524661" lon="8.116680">
        <ele>671.458995</ele>
        <time>2022-03-19T11:59:39.520Z</time>
      </trkpt>
      <trkpt lat="47.524698" lon="8.116531">
        <ele>672.526769</ele>
        <time>2022-03-19T11:59:47.518Z</time>
      </trkpt>
      <trkpt lat="47.524727" lon="8.116401">
        <ele>673.447612</ele>
        <time>2022-03-19T11:59:54.520Z</time>
      </trkpt>
      <trkpt lat="47.524771" lon="8.116275">
        <ele>674.425207</ele>
        <time>2022-03-19T12:00:02.512Z</time>
      </trkpt>
      <trkpt lat="47.524831" lon="8.116170">
        <ele>675.400882</ele>
        <time>2022-03-19T12:00:10.528Z</time>
      </trkpt>
      <trkpt lat="47.524899" lon="8.116067">
        <ele>676.422644</ele>
        <time>2022-03-19T12:00:18.505Z</time>
      </trkpt>
      <trkpt lat="47.524947" lon="8.115937">
        <ele>677.473611</ele>
        <time>2022-03-19T12:00:27.510Z</time>
      </trkpt>
      <trkpt lat="47.525013" lon="8.115815">
        <ele>678.582447</ele>
        <time>2022-03-19T12:00:35.546Z</time>
      </trkpt>
      <trkpt lat="47.525057" lon="8.115692">
        <ele>679.569776</ele>
        <time>2022-03-19T12:00:43.520Z</time>
      </trkpt>
      <trkpt lat="47.525100" lon="8.115567">
        <ele>680.564850</ele>
        <time>2022-03-19T12:00:51.544Z</time>
      </trkpt>
      <trkpt lat="47.525138" lon="8.115432">
        <ele>681.602298</ele>
        <time>2022-03-19T12:00:59.507Z</time>
      </trkpt>
      <trkpt lat="47.525184" lon="8.115297">
        <ele>682.674887</ele>
        <time>2022-03-19T12:01:07.546Z</time>
      </trkpt>
      <trkpt lat="47.525227" lon="8.115180">
        <ele>683.619747</ele>
        <time>2022-03-19T12:01:13.509Z</time>
      </trkpt>
      <trkpt lat="47.525260" lon="8.115053">
        <ele>684.584976</ele>
        <time>2022-03-19T12:01:19.524Z</time>
      </trkpt>
      <trkpt lat="47.525294" lon="8.114914">
        <ele>685.633622</ele>
        <time>2022-03-19T12:01:28.543Z</time>
      </trkpt>
      <trkpt lat="47.525321" lon="8.114779">
        <ele>686.632321</ele>
        <time>2022-03-19T12:01:35.523Z</time>
      </trkpt>
      <trkpt lat="47.525356" lon="8.114639">
        <ele>687.691239</ele>
        <time>2022-03-19T12:01:43.521Z</time>
      </trkpt>
      <trkpt lat="47.525383" lon="8.114493">
        <ele>688.764977</ele>
        <time>2022-03-19T12:01:52.548Z</time>
      </trkpt>
      <trkpt lat="47.525433" lon="8.114363">
        <ele>689.826177</ele>
        <time>2022-03-19T12:02:00.548Z</time>
      </trkpt>
      <trkpt lat="47.525514" lon="8.114244">
        <ele>691.024687</ele>
        <time>2022-03-19T12:02:10.516Z</time>
      </trkpt>
      <trkpt lat="47.525591" lon="8.114171">
        <ele>691.985065</ele>
        <time>2022-03-19T12:02:18.543Z</time>
      </trkpt>
      <trkpt lat="47.525681" lon="8.114112">
        <ele>692.987692</ele>
        <time>2022-03-19T12:02:26.518Z</time>
      </trkpt>
      <trkpt lat="47.525761" lon="8.114013">
        <ele>693.861117</ele>
        <time>2022-03-19T12:02:34.532Z</time>
      </trkpt>
      <trkpt lat="47.525826" lon="8.113898">
        <ele>694.709524</ele>
        <time>2022-03-19T12:02:42.523Z</time>
      </trkpt>
      <trkpt lat="47.525899" lon="8.113796">
        <ele>695.550356</ele>
        <time>2022-03-19T12:02:48.599Z</time>
      </trkpt>
      <trkpt lat="47.525957" lon="8.113689">
        <ele>696.326579</ele>
        <time>2022-03-19T12:02:56.546Z</time>
      </trkpt>
      <trkpt lat="47.526031" lon="8.113603">
        <ele>697.114644</ele>
        <time>2022-03-19T12:03:03.626Z</time>
      </trkpt>
      <trkpt lat="47.526100" lon="8.113488">
        <ele>697.984937</ele>
        <time>2022-03-19T12:03:10.521Z</time>
      </trkpt>
      <trkpt lat="47.526181" lon="8.113396">
        <ele>698.840144</ele>
        <time>2022-03-19T12:03:18.511Z</time>
      </trkpt>
      <trkpt lat="47.526284" lon="8.113319">
        <ele>699.806773</ele>
        <time>2022-03-19T12:03:26.546Z</time>
      </trkpt>
      <trkpt lat="47.526381" lon="8.113245">
        <ele>700.720910</ele>
        <time>2022-03-19T12:03:35.514Z</time>
      </trkpt>
      <trkpt lat="47.526460" lon="8.113173">
        <ele>701.498050</ele>
        <time>2022-03-19T12:03:43.514Z</time>
      </trkpt>
      <trkpt lat="47.526543" lon="8.113102">
        <ele>702.301076</ele>
        <time>2022-03-19T12:03:50.515Z</time>
      </trkpt>
      <trkpt lat="47.526642" lon="8.113070">
        <ele>703.150006</ele>
        <time>2022-03-19T12:03:56.553Z</time>
      </trkpt>
      <trkpt lat="47.526738" lon="8.113055">
        <ele>703.958741</ele>
        <time>2022-03-19T12:04:05.502Z</time>
      </trkpt>
      <trkpt lat="47.526835" lon="8.113049">
        <ele>704.772098</ele>
        <time>2022-03-19T12:04:13.514Z</time>
      </trkpt>
      <trkpt lat="47.526932" lon="8.112978">
        <ele>705.678586</ele>
        <time>2022-03-19T12:04:22.597Z</time>
      </trkpt>
      <trkpt lat="47.526984" lon="8.112848">
        <ele>706.533354</ele>
        <time>2022-03-19T12:04:31.516Z</time>
      </trkpt>
      <trkpt lat="47.526993" lon="8.112709">
        <ele>707.323293</ele>
        <time>2022-03-19T12:04:39.514Z</time>
      </trkpt>
      <trkpt lat="47.526994" lon="8.112566">
        <ele>708.114866</ele>
        <time>2022-03-19T12:04:47.518Z</time>
      </trkpt>
      <trkpt lat="47.527013" lon="8.112434">
        <ele>708.811503</ele>
        <time>2022-03-19T12:04:53.521Z</time>
      </trkpt>
      <trkpt lat="47.527015" lon="8.112295">
        <ele>709.529127</ele>
        <time>2022-03-19T12:04:59.518Z</time>
      </trkpt>
      <trkpt lat="47.527041" lon="8.112147">
        <ele>710.318472</ele>
        <time>2022-03-19T12:05:09.515Z</time>
      </trkpt>
      <trkpt lat="47.527070" lon="8.112000">
        <ele>711.108944</ele>
        <time>2022-03-19T12:05:16.516Z</time>
      </trkpt>
      <trkpt lat="47.527138" lon="8.111883">
        <ele>711.905743</ele>
        <time>2022-03-19T12:05:25.518Z</time>
      </trkpt>
      <trkpt lat="47.527228" lon="8.111791">
        <ele>712.741680</ele>
        <time>2022-03-19T12:05:33.516Z</time>
      </trkpt>
      <trkpt lat="47.527268" lon="8.111524">
        <ele>714.153329</ele>
        <time>2022-03-19T12:06:11.524Z</time>
      </trkpt>
      <trkpt lat="47.527304" lon="8.111394">
        <ele>714.878569</ele>
        <time>2022-03-19T12:06:21.516Z</time>
      </trkpt>
      <trkpt lat="47.527392" lon="8.111356">
        <ele>715.579257</ele>
        <time>2022-03-19T12:06:31.523Z</time>
      </trkpt>
      <trkpt lat="47.527487" lon="8.111325">
        <ele>716.322861</ele>
        <time>2022-03-19T12:06:41.740Z</time>
      </trkpt>
      <trkpt lat="47.527528" lon="8.111446">
        <ele>717.021632</ele>
        <time>2022-03-19T12:09:40.547Z</time>
      </trkpt>
      <trkpt lat="47.527557" lon="8.111582">
        <ele>717.757771</ele>
        <time>2022-03-19T12:09:53.514Z</time>
      </trkpt>
      <trkpt lat="47.527594" lon="8.111711">
        <ele>718.481188</ele>
        <time>2022-03-19T12:10:04.517Z</time>
      </trkpt>
      <trkpt lat="47.527638" lon="8.111842">
        <ele>719.236381</ele>
        <time>2022-03-19T12:10:14.548Z</time>
      </trkpt>
      <trkpt lat="47.527670" lon="8.111971">
        <ele>719.945727</ele>
        <time>2022-03-19T12:10:21.554Z</time>
      </trkpt>
      <trkpt lat="47.527691" lon="8.112105">
        <ele>720.655755</ele>
        <time>2022-03-19T12:10:32.544Z</time>
      </trkpt>
      <trkpt lat="47.527698" lon="8.112238">
        <ele>721.344319</ele>
        <time>2022-03-19T12:10:40.548Z</time>
      </trkpt>
      <trkpt lat="47.527715" lon="8.112391">
        <ele>721.530219</ele>
        <time>2022-03-19T12:10:48.507Z</time>
      </trkpt>
      <trkpt lat="47.527743" lon="8.112526">
        <ele>721.290650</ele>
        <time>2022-03-19T12:10:57.521Z</time>
      </trkpt>
      <trkpt lat="47.527749" lon="8.112665">
        <ele>721.054374</ele>
        <time>2022-03-19T12:11:06.530Z</time>
      </trkpt>
      <trkpt lat="47.527779" lon="8.112812">
        <ele>720.793868</ele>
        <time>2022-03-19T12:11:15.531Z</time>
      </trkpt>
      <trkpt lat="47.527825" lon="8.112952">
        <ele>720.529753</ele>
        <time>2022-03-19T12:11:22.523Z</time>
      </trkpt>
      <trkpt lat="47.527853" lon="8.113086">
        <ele>720.291806</ele>
        <time>2022-03-19T12:11:29.519Z</time>
      </trkpt>
      <trkpt lat="47.527902" lon="8.113199">
        <ele>720.063994</ele>
        <time>2022-03-19T12:11:37.529Z</time>
      </trkpt>
      <trkpt lat="47.527926" lon="8.113328">
        <ele>719.837009</ele>
        <time>2022-03-19T12:11:44.546Z</time>
      </trkpt>
      <trkpt lat="47.527965" lon="8.113456">
        <ele>719.598793</ele>
        <time>2022-03-19T12:11:51.546Z</time>
      </trkpt>
      <trkpt lat="47.527978" lon="8.113587">
        <ele>719.374184</ele>
        <time>2022-03-19T12:11:59.541Z</time>
      </trkpt>
      <trkpt lat="47.528017" lon="8.113712">
        <ele>719.140597</ele>
        <time>2022-03-19T12:12:08.505Z</time>
      </trkpt>
      <trkpt lat="47.528052" lon="8.113836">
        <ele>718.912611</ele>
        <time>2022-03-19T12:12:15.517Z</time>
      </trkpt>
      <trkpt lat="47.528078" lon="8.113975">
        <ele>718.667938</ele>
        <time>2022-03-19T12:12:22.516Z</time>
      </trkpt>
      <trkpt lat="47.528089" lon="8.114124">
        <ele>718.413675</ele>
        <time>2022-03-19T12:12:33.508Z</time>
      </trkpt>
      <trkpt lat="47.528124" lon="8.114249">
        <ele>718.184123</ele>
        <time>2022-03-19T12:12:42.557Z</time>
      </trkpt>
      <trkpt lat="47.528127" lon="8.114386">
        <ele>717.951601</ele>
        <time>2022-03-19T12:12:49.503Z</time>
      </trkpt>
      <trkpt lat="47.528147" lon="8.114531">
        <ele>717.700551</ele>
        <time>2022-03-19T12:12:57.521Z</time>
      </trkpt>
      <trkpt lat="47.528162" lon="8.114669">
        <ele>717.463441</ele>
        <time>2022-03-19T12:13:05.505Z</time>
      </trkpt>
      <trkpt lat="47.528163" lon="8.114814">
        <ele>717.217457</ele>
        <time>2022-03-19T12:13:15.516Z</time>
      </trkpt>
      <trkpt lat="47.528177" lon="8.114951">
        <ele>718.561815</ele>
        <time>2022-03-19T12:13:21.518Z</time>
      </trkpt>
      <trkpt lat="47.528202" lon="8.115097">
        <ele>720.534257</ele>
        <time>2022-03-19T12:13:30.538Z</time>
      </trkpt>
      <trkpt lat="47.528232" lon="8.115249">
        <ele>722.608041</ele>
        <time>2022-03-19T12:13:38.549Z</time>
      </trkpt>
      <trkpt lat="47.528265" lon="8.115417">
        <ele>724.899260</ele>
        <time>2022-03-19T12:13:48.551Z</time>
      </trkpt>
      <trkpt lat="47.528234" lon="8.115672">
        <ele>728.292263</ele>
        <time>2022-03-19T12:14:50.542Z</time>
      </trkpt>
      <trkpt lat="47.528319" lon="8.115735">
        <ele>730.135672</ele>
        <time>2022-03-19T12:16:05.564Z</time>
      </trkpt>
      <trkpt lat="47.528280" lon="8.115785">
        <ele>731.136076</ele>
        <time>2022-03-19T12:16:30.880Z</time>
      </trkpt>
      <trkpt lat="47.528147" lon="8.115723">
        <ele>733.840243</ele>
        <time>2022-03-19T12:25:54.159Z</time>
      </trkpt>
      <trkpt lat="47.528084" lon="8.115842">
        <ele>735.820471</ele>
        <time>2022-03-19T12:25:58.125Z</time>
      </trkpt>
      <trkpt lat="47.528188" lon="8.115846">
        <ele>737.838127</ele>
        <time>2022-03-19T12:26:00.132Z</time>
      </trkpt>
      <trkpt lat="47.528205" lon="8.116016">
        <ele>740.088620</ele>
        <time>2022-03-19T12:26:01.157Z</time>
      </trkpt>
      <trkpt lat="47.528228" lon="8.115881">
        <ele>741.911899</ele>
        <time>2022-03-19T12:26:05.544Z</time>
      </trkpt>
      <trkpt lat="47.528277" lon="8.115753">
        <ele>743.838746</ele>
        <time>2022-03-19T12:26:14.520Z</time>
      </trkpt>
      <trkpt lat="47.528255" lon="8.115970">
        <ele>746.712288</ele>
        <time>2022-03-19T12:27:56.521Z</time>
      </trkpt>
      <trkpt lat="47.528220" lon="8.116109">
        <ele>748.654987</ele>
        <time>2022-03-19T12:28:04.514Z</time>
      </trkpt>
      <trkpt lat="47.528219" lon="8.116250">
        <ele>750.501534</ele>
        <time>2022-03-19T12:28:12.527Z</time>
      </trkpt>
      <trkpt lat="47.528217" lon="8.116390">
        <ele>751.882653</ele>
        <time>2022-03-19T12:28:20.600Z</time>
      </trkpt>
      <trkpt lat="47.528184" lon="8.116518">
        <ele>750.865375</ele>
        <time>2022-03-19T12:28:29.512Z</time>
      </trkpt>
      <trkpt lat="47.528185" lon="8.116656">
        <ele>749.840707</ele>
        <time>2022-03-19T12:28:37.522Z</time>
      </trkpt>
      <trkpt lat="47.528205" lon="8.116786">
        <ele>748.850760</ele>
        <time>2022-03-19T12:28:44.517Z</time>
      </trkpt>
      <trkpt lat="47.528187" lon="8.116924">
        <ele>747.807211</ele>
        <time>2022-03-19T12:28:54.523Z</time>
      </trkpt>
      <trkpt lat="47.528160" lon="8.117070">
        <ele>746.683284</ele>
        <time>2022-03-19T12:29:02.515Z</time>
      </trkpt>
      <trkpt lat="47.528154" lon="8.117350">
        <ele>744.603320</ele>
        <time>2022-03-19T12:29:45.519Z</time>
      </trkpt>
      <trkpt lat="47.528143" lon="8.117497">
        <ele>743.505207</ele>
        <time>2022-03-19T12:29:51.516Z</time>
      </trkpt>
      <trkpt lat="47.528113" lon="8.117635">
        <ele>742.428805</ele>
        <time>2022-03-19T12:29:58.518Z</time>
      </trkpt>
      <trkpt lat="47.528107" lon="8.117778">
        <ele>741.365024</ele>
        <time>2022-03-19T12:30:04.519Z</time>
      </trkpt>
      <trkpt lat="47.528098" lon="8.117919">
        <ele>740.313472</ele>
        <time>2022-03-19T12:30:20.530Z</time>
      </trkpt>
      <trkpt lat="47.528079" lon="8.118062">
        <ele>739.231379</ele>
        <time>2022-03-19T12:30:27.514Z</time>
      </trkpt>
      <trkpt lat="47.528066" lon="8.118203">
        <ele>738.174780</ele>
        <time>2022-03-19T12:30:32.512Z</time>
      </trkpt>
      <trkpt lat="47.528095" lon="8.118340">
        <ele>737.108782</ele>
        <time>2022-03-19T12:30:39.517Z</time>
      </trkpt>
      <trkpt lat="47.528016" lon="8.118425">
        <ele>736.035060</ele>
        <time>2022-03-19T12:30:45.514Z</time>
      </trkpt>
      <trkpt lat="47.527919" lon="8.118437">
        <ele>734.964748</ele>
        <time>2022-03-19T12:30:52.510Z</time>
      </trkpt>
      <trkpt lat="47.527878" lon="8.118315">
        <ele>733.952941</ele>
        <time>2022-03-19T12:31:00.541Z</time>
      </trkpt>
      <trkpt lat="47.527845" lon="8.118192">
        <ele>732.970249</ele>
        <time>2022-03-19T12:31:06.519Z</time>
      </trkpt>
      <trkpt lat="47.527803" lon="8.118053">
        <ele>731.939472</ele>
        <time>2022-03-19T12:31:12.678Z</time>
      </trkpt>
      <trkpt lat="47.527763" lon="8.117928">
        <ele>731.151424</ele>
        <time>2022-03-19T12:31:22.581Z</time>
      </trkpt>
      <trkpt lat="47.527705" lon="8.118051">
        <ele>730.296735</ele>
        <time>2022-03-19T12:31:28.588Z</time>
      </trkpt>
      <trkpt lat="47.527715" lon="8.118210">
        <ele>729.386987</ele>
        <time>2022-03-19T12:31:34.581Z</time>
      </trkpt>
      <trkpt lat="47.527642" lon="8.118295">
        <ele>728.603508</ele>
        <time>2022-03-19T12:31:45.514Z</time>
      </trkpt>
      <trkpt lat="47.527546" lon="8.118357">
        <ele>727.719878</ele>
        <time>2022-03-19T12:31:56.515Z</time>
      </trkpt>
      <trkpt lat="47.527462" lon="8.118422">
        <ele>726.920248</ele>
        <time>2022-03-19T12:32:03.510Z</time>
      </trkpt>
      <trkpt lat="47.527393" lon="8.118517">
        <ele>726.125370</ele>
        <time>2022-03-19T12:32:11.513Z</time>
      </trkpt>
      <trkpt lat="47.527379" lon="8.118666">
        <ele>725.268330</ele>
        <time>2022-03-19T12:32:17.519Z</time>
      </trkpt>
      <trkpt lat="47.527302" lon="8.118751">
        <ele>724.458050</ele>
        <time>2022-03-19T12:32:26.516Z</time>
      </trkpt>
      <trkpt lat="47.527286" lon="8.118891">
        <ele>723.649117</ele>
        <time>2022-03-19T12:32:30.512Z</time>
      </trkpt>
      <trkpt lat="47.527203" lon="8.118965">
        <ele>722.831727</ele>
        <time>2022-03-19T12:32:38.516Z</time>
      </trkpt>
      <trkpt lat="47.527176" lon="8.119117">
        <ele>721.936309</ele>
        <time>2022-03-19T12:32:44.521Z</time>
      </trkpt>
      <trkpt lat="47.527109" lon="8.119233">
        <ele>721.066661</ele>
        <time>2022-03-19T12:32:51.516Z</time>
      </trkpt>
      <trkpt lat="47.527031" lon="8.119324">
        <ele>720.228888</ele>
        <time>2022-03-19T12:33:01.512Z</time>
      </trkpt>
      <trkpt lat="47.527014" lon="8.119459">
        <ele>719.446520</ele>
        <time>2022-03-19T12:33:05.516Z</time>
      </trkpt>
      <trkpt lat="47.526982" lon="8.119584">
        <ele>718.684921</ele>
        <time>2022-03-19T12:33:10.523Z</time>
      </trkpt>
      <trkpt lat="47.526965" lon="8.119721">
        <ele>717.891348</ele>
        <time>2022-03-19T12:33:16.509Z</time>
      </trkpt>
      <trkpt lat="47.526935" lon="8.119862">
        <ele>717.035347</ele>
        <time>2022-03-19T12:33:22.516Z</time>
      </trkpt>
      <trkpt lat="47.526894" lon="8.119982">
        <ele>716.031139</ele>
        <time>2022-03-19T12:33:28.510Z</time>
      </trkpt>
      <trkpt lat="47.526900" lon="8.120131">
        <ele>714.916587</ele>
        <time>2022-03-19T12:33:36.509Z</time>
      </trkpt>
      <trkpt lat="47.526923" lon="8.120277">
        <ele>713.797137</ele>
        <time>2022-03-19T12:33:44.551Z</time>
      </trkpt>
      <trkpt lat="47.526975" lon="8.120396">
        <ele>712.738740</ele>
        <time>2022-03-19T12:33:51.517Z</time>
      </trkpt>
      <trkpt lat="47.527012" lon="8.120532">
        <ele>711.643911</ele>
        <time>2022-03-19T12:33:59.511Z</time>
      </trkpt>
      <trkpt lat="47.527057" lon="8.120651">
        <ele>710.625495</ele>
        <time>2022-03-19T12:34:03.552Z</time>
      </trkpt>
      <trkpt lat="47.527105" lon="8.120765">
        <ele>709.622335</ele>
        <time>2022-03-19T12:34:10.524Z</time>
      </trkpt>
      <trkpt lat="47.527081" lon="8.120896">
        <ele>708.608804</ele>
        <time>2022-03-19T12:34:21.515Z</time>
      </trkpt>
      <trkpt lat="47.527063" lon="8.121041">
        <ele>707.507955</ele>
        <time>2022-03-19T12:34:27.514Z</time>
      </trkpt>
      <trkpt lat="47.527054" lon="8.121192">
        <ele>706.376065</ele>
        <time>2022-03-19T12:34:36.513Z</time>
      </trkpt>
      <trkpt lat="47.527089" lon="8.121328">
        <ele>705.289308</ele>
        <time>2022-03-19T12:34:43.519Z</time>
      </trkpt>
      <trkpt lat="47.527086" lon="8.121470">
        <ele>704.228486</ele>
        <time>2022-03-19T12:34:48.508Z</time>
      </trkpt>
      <trkpt lat="47.527059" lon="8.121606">
        <ele>703.170002</ele>
        <time>2022-03-19T12:34:54.516Z</time>
      </trkpt>
      <trkpt lat="47.527046" lon="8.121762">
        <ele>701.996324</ele>
        <time>2022-03-19T12:35:05.525Z</time>
      </trkpt>
      <trkpt lat="47.527046" lon="8.121914">
        <ele>700.861350</ele>
        <time>2022-03-19T12:35:10.515Z</time>
      </trkpt>
      <trkpt lat="47.527059" lon="8.122058">
        <ele>699.776545</ele>
        <time>2022-03-19T12:35:16.517Z</time>
      </trkpt>
      <trkpt lat="47.527015" lon="8.122187">
        <ele>698.697398</ele>
        <time>2022-03-19T12:35:26.520Z</time>
      </trkpt>
      <trkpt lat="47.527011" lon="8.122321">
        <ele>697.695851</ele>
        <time>2022-03-19T12:35:32.524Z</time>
      </trkpt>
      <trkpt lat="47.527016" lon="8.122481">
        <ele>697.274150</ele>
        <time>2022-03-19T12:35:37.515Z</time>
      </trkpt>
      <trkpt lat="47.527014" lon="8.122639">
        <ele>697.392087</ele>
        <time>2022-03-19T12:35:42.513Z</time>
      </trkpt>
      <trkpt lat="47.527014" lon="8.122787">
        <ele>697.502540</ele>
        <time>2022-03-19T12:35:54.505Z</time>
      </trkpt>
      <trkpt lat="47.526995" lon="8.122940">
        <ele>697.618640</ele>
        <time>2022-03-19T12:36:00.544Z</time>
      </trkpt>
      <trkpt lat="47.527013" lon="8.123071">
        <ele>697.718409</ele>
        <time>2022-03-19T12:36:04.556Z</time>
      </trkpt>
      <trkpt lat="47.527037" lon="8.123213">
        <ele>697.827653</ele>
        <time>2022-03-19T12:36:10.510Z</time>
      </trkpt>
      <trkpt lat="47.527109" lon="8.123305">
        <ele>697.932757</ele>
        <time>2022-03-19T12:36:20.515Z</time>
      </trkpt>
      <trkpt lat="47.527181" lon="8.123406">
        <ele>698.042366</ele>
        <time>2022-03-19T12:36:25.535Z</time>
      </trkpt>
      <trkpt lat="47.527245" lon="8.123521">
        <ele>698.153583</ele>
        <time>2022-03-19T12:36:30.506Z</time>
      </trkpt>
      <trkpt lat="47.527313" lon="8.123640">
        <ele>698.269926</ele>
        <time>2022-03-19T12:36:41.508Z</time>
      </trkpt>
      <trkpt lat="47.527394" lon="8.123717">
        <ele>698.376307</ele>
        <time>2022-03-19T12:36:47.518Z</time>
      </trkpt>
      <trkpt lat="47.527484" lon="8.123764">
        <ele>698.481781</ele>
        <time>2022-03-19T12:36:54.547Z</time>
      </trkpt>
      <trkpt lat="47.527513" lon="8.123895">
        <ele>698.584666</ele>
        <time>2022-03-19T12:37:04.504Z</time>
      </trkpt>
      <trkpt lat="47.527495" lon="8.124028">
        <ele>698.685898</ele>
        <time>2022-03-19T12:37:17.519Z</time>
      </trkpt>
      <trkpt lat="47.527433" lon="8.124125">
        <ele>698.785577</ele>
        <time>2022-03-19T12:37:26.504Z</time>
      </trkpt>
      <trkpt lat="47.527342" lon="8.124109">
        <ele>698.886861</ele>
        <time>2022-03-19T12:37:35.540Z</time>
      </trkpt>
      <trkpt lat="47.527248" lon="8.124102">
        <ele>698.990884</ele>
        <time>2022-03-19T12:37:44.595Z</time>
      </trkpt>
      <trkpt lat="47.527151" lon="8.124056">
        <ele>699.103455</ele>
        <time>2022-03-19T12:37:52.637Z</time>
      </trkpt>
      <trkpt lat="47.527061" lon="8.124031">
        <ele>699.112991</ele>
        <time>2022-03-19T12:37:57.507Z</time>
      </trkpt>
      <trkpt lat="47.526986" lon="8.124114">
        <ele>698.483248</ele>
        <time>2022-03-19T12:38:06.515Z</time>
      </trkpt>
      <trkpt lat="47.526893" lon="8.124103">
        <ele>697.855733</ele>
        <time>2022-03-19T12:38:17.524Z</time>
      </trkpt>
      <trkpt lat="47.526808" lon="8.124157">
        <ele>697.233633</ele>
        <time>2022-03-19T12:38:25.525Z</time>
      </trkpt>
      <trkpt lat="47.526719" lon="8.124205">
        <ele>696.596553</ele>
        <time>2022-03-19T12:38:33.521Z</time>
      </trkpt>
      <trkpt lat="47.526623" lon="8.124247">
        <ele>695.923264</ele>
        <time>2022-03-19T12:38:42.521Z</time>
      </trkpt>
      <trkpt lat="47.526536" lon="8.124291">
        <ele>695.304915</ele>
        <time>2022-03-19T12:38:51.517Z</time>
      </trkpt>
      <trkpt lat="47.526463" lon="8.124369">
        <ele>694.699455</ele>
        <time>2022-03-19T12:38:54.525Z</time>
      </trkpt>
      <trkpt lat="47.526370" lon="8.124413">
        <ele>694.042785</ele>
        <time>2022-03-19T12:38:57.547Z</time>
      </trkpt>
      <trkpt lat="47.526312" lon="8.124540">
        <ele>693.346442</ele>
        <time>2022-03-19T12:39:04.546Z</time>
      </trkpt>
      <trkpt lat="47.526264" lon="8.124663">
        <ele>692.701221</ele>
        <time>2022-03-19T12:39:10.518Z</time>
      </trkpt>
      <trkpt lat="47.526245" lon="8.124809">
        <ele>692.025917</ele>
        <time>2022-03-19T12:39:18.513Z</time>
      </trkpt>
      <trkpt lat="47.526225" lon="8.124947">
        <ele>691.384877</ele>
        <time>2022-03-19T12:39:23.545Z</time>
      </trkpt>
      <trkpt lat="47.526218" lon="8.125092">
        <ele>690.724636</ele>
        <time>2022-03-19T12:39:29.550Z</time>
      </trkpt>
      <trkpt lat="47.526206" lon="8.125230">
        <ele>690.092693</ele>
        <time>2022-03-19T12:39:36.503Z</time>
      </trkpt>
      <trkpt lat="47.526202" lon="8.125368">
        <ele>689.465348</ele>
        <time>2022-03-19T12:39:40.509Z</time>
      </trkpt>
      <trkpt lat="47.526185" lon="8.125516">
        <ele>688.783507</ele>
        <time>2022-03-19T12:39:50.515Z</time>
      </trkpt>
      <trkpt lat="47.526190" lon="8.125652">
        <ele>688.164908</ele>
        <time>2022-03-19T12:39:57.526Z</time>
      </trkpt>
      <trkpt lat="47.526272" lon="8.125727">
        <ele>687.516660</ele>
        <time>2022-03-19T12:40:04.516Z</time>
      </trkpt>
      <trkpt lat="47.526302" lon="8.125878">
        <ele>686.897155</ele>
        <time>2022-03-19T12:40:10.506Z</time>
      </trkpt>
      <trkpt lat="47.526365" lon="8.125996">
        <ele>686.436975</ele>
        <time>2022-03-19T12:40:15.519Z</time>
      </trkpt>
      <trkpt lat="47.526388" lon="8.126140">
        <ele>685.984304</ele>
        <time>2022-03-19T12:40:26.527Z</time>
      </trkpt>
      <trkpt lat="47.526426" lon="8.126271">
        <ele>685.548145</ele>
        <time>2022-03-19T12:40:32.542Z</time>
      </trkpt>
      <trkpt lat="47.526490" lon="8.126387">
        <ele>685.089897</ele>
        <time>2022-03-19T12:40:37.517Z</time>
      </trkpt>
      <trkpt lat="47.526556" lon="8.126495">
        <ele>684.644298</ele>
        <time>2022-03-19T12:40:47.582Z</time>
      </trkpt>
      <trkpt lat="47.526615" lon="8.126616">
        <ele>684.187726</ele>
        <time>2022-03-19T12:40:52.519Z</time>
      </trkpt>
      <trkpt lat="47.526623" lon="8.126752">
        <ele>683.770110</ele>
        <time>2022-03-19T12:40:58.545Z</time>
      </trkpt>
      <trkpt lat="47.526630" lon="8.126890">
        <ele>683.346762</ele>
        <time>2022-03-19T12:41:05.518Z</time>
      </trkpt>
      <trkpt lat="47.526689" lon="8.127011">
        <ele>682.890190</ele>
        <time>2022-03-19T12:41:11.518Z</time>
      </trkpt>
      <trkpt lat="47.526732" lon="8.127129">
        <ele>682.480004</ele>
        <time>2022-03-19T12:41:20.519Z</time>
      </trkpt>
      <trkpt lat="47.526757" lon="8.127267">
        <ele>682.042918</ele>
        <time>2022-03-19T12:41:25.512Z</time>
      </trkpt>
      <trkpt lat="47.526794" lon="8.127405">
        <ele>681.588700</ele>
        <time>2022-03-19T12:41:30.505Z</time>
      </trkpt>
      <trkpt lat="47.526827" lon="8.127588">
        <ele>681.009264</ele>
        <time>2022-03-19T12:41:43.896Z</time>
      </trkpt>
      <trkpt lat="47.526844" lon="8.127743">
        <ele>680.528889</ele>
        <time>2022-03-19T12:41:50.514Z</time>
      </trkpt>
      <trkpt lat="47.526876" lon="8.127868">
        <ele>680.119942</ele>
        <time>2022-03-19T12:41:57.519Z</time>
      </trkpt>
      <trkpt lat="47.526892" lon="8.128025">
        <ele>679.634224</ele>
        <time>2022-03-19T12:42:02.526Z</time>
      </trkpt>
      <trkpt lat="47.526916" lon="8.128164">
        <ele>679.195328</ele>
        <time>2022-03-19T12:42:09.510Z</time>
      </trkpt>
      <trkpt lat="47.526911" lon="8.128305">
        <ele>678.726477</ele>
        <time>2022-03-19T12:42:19.512Z</time>
      </trkpt>
      <trkpt lat="47.526954" lon="8.128447">
        <ele>678.153834</ele>
        <time>2022-03-19T12:42:26.518Z</time>
      </trkpt>
      <trkpt lat="47.526985" lon="8.128582">
        <ele>677.629147</ele>
        <time>2022-03-19T12:42:33.503Z</time>
      </trkpt>
      <trkpt lat="47.526979" lon="8.128739">
        <ele>677.050522</ele>
        <time>2022-03-19T12:42:42.516Z</time>
      </trkpt>
      <trkpt lat="47.526986" lon="8.128890">
        <ele>676.493591</ele>
        <time>2022-03-19T12:42:48.517Z</time>
      </trkpt>
      <trkpt lat="47.526986" lon="8.129026">
        <ele>675.993163</ele>
        <time>2022-03-19T12:42:56.530Z</time>
      </trkpt>
      <trkpt lat="47.526984" lon="8.129181">
        <ele>675.422718</ele>
        <time>2022-03-19T12:43:04.552Z</time>
      </trkpt>
      <trkpt lat="47.527018" lon="8.129311">
        <ele>674.909739</ele>
        <time>2022-03-19T12:43:09.531Z</time>
      </trkpt>
      <trkpt lat="47.527008" lon="8.129462">
        <ele>674.351451</ele>
        <time>2022-03-19T12:43:17.512Z</time>
      </trkpt>
      <trkpt lat="47.526991" lon="8.129596">
        <ele>673.849755</ele>
        <time>2022-03-19T12:43:23.930Z</time>
      </trkpt>
      <trkpt lat="47.526990" lon="8.129746">
        <ele>673.297785</ele>
        <time>2022-03-19T12:43:30.528Z</time>
      </trkpt>
      <trkpt lat="47.526993" lon="8.129887">
        <ele>672.778701</ele>
        <time>2022-03-19T12:43:37.504Z</time>
      </trkpt>
      <trkpt lat="47.526953" lon="8.130015">
        <ele>672.259716</ele>
        <time>2022-03-19T12:43:44.514Z</time>
      </trkpt>
      <trkpt lat="47.526930" lon="8.130148">
        <ele>671.754532</ele>
        <time>2022-03-19T12:43:51.505Z</time>
      </trkpt>
      <trkpt lat="47.526903" lon="8.130292">
        <ele>671.204617</ele>
        <time>2022-03-19T12:43:56.515Z</time>
      </trkpt>
      <trkpt lat="47.526909" lon="8.130435">
        <ele>670.677416</ele>
        <time>2022-03-19T12:44:06.518Z</time>
      </trkpt>
      <trkpt lat="47.526863" lon="8.130561">
        <ele>670.150357</ele>
        <time>2022-03-19T12:44:20.516Z</time>
      </trkpt>
      <trkpt lat="47.526853" lon="8.130710">
        <ele>669.599391</ele>
        <time>2022-03-19T12:44:26.517Z</time>
      </trkpt>
      <trkpt lat="47.526868" lon="8.130862">
        <ele>669.026793</ele>
        <time>2022-03-19T12:44:34.537Z</time>
      </trkpt>
      <trkpt lat="47.526896" lon="8.130999">
        <ele>668.464853</ele>
        <time>2022-03-19T12:44:38.528Z</time>
      </trkpt>
      <trkpt lat="47.526854" lon="8.131140">
        <ele>667.859839</ele>
        <time>2022-03-19T12:44:46.523Z</time>
      </trkpt>
      <trkpt lat="47.526763" lon="8.131280">
        <ele>667.096949</ele>
        <time>2022-03-19T12:45:00.034Z</time>
      </trkpt>
      <trkpt lat="47.526667" lon="8.131295">
        <ele>666.535708</ele>
        <time>2022-03-19T12:45:10.529Z</time>
      </trkpt>
      <trkpt lat="47.526570" lon="8.131261">
        <ele>665.956170</ele>
        <time>2022-03-19T12:45:21.520Z</time>
      </trkpt>
      <trkpt lat="47.526486" lon="8.131177">
        <ele>665.366881</ele>
        <time>2022-03-19T12:45:32.546Z</time>
      </trkpt>
      <trkpt lat="47.526427" lon="8.131058">
        <ele>664.787291</ele>
        <time>2022-03-19T12:45:37.512Z</time>
      </trkpt>
      <trkpt lat="47.526345" lon="8.130961">
        <ele>664.177122</ele>
        <time>2022-03-19T12:45:45.513Z</time>
      </trkpt>
      <trkpt lat="47.526263" lon="8.130887">
        <ele>663.618832</ele>
        <time>2022-03-19T12:45:51.512Z</time>
      </trkpt>
      <trkpt lat="47.526206" lon="8.130774">
        <ele>663.065090</ele>
        <time>2022-03-19T12:45:58.508Z</time>
      </trkpt>
      <trkpt lat="47.526132" lon="8.130690">
        <ele>662.523006</ele>
        <time>2022-03-19T12:46:04.514Z</time>
      </trkpt>
      <trkpt lat="47.526062" lon="8.130584">
        <ele>661.940931</ele>
        <time>2022-03-19T12:46:11.520Z</time>
      </trkpt>
      <trkpt lat="47.526033" lon="8.130441">
        <ele>661.354752</ele>
        <time>2022-03-19T12:46:21.517Z</time>
      </trkpt>
      <trkpt lat="47.525990" lon="8.130318">
        <ele>660.810985</ele>
        <time>2022-03-19T12:46:26.524Z</time>
      </trkpt>
      <trkpt lat="47.525923" lon="8.130210">
        <ele>660.235211</ele>
        <time>2022-03-19T12:46:34.524Z</time>
      </trkpt>
      <trkpt lat="47.525835" lon="8.130134">
        <ele>659.642934</ele>
        <time>2022-03-19T12:46:46.518Z</time>
      </trkpt>
      <trkpt lat="47.525742" lon="8.130106">
        <ele>659.091172</ele>
        <time>2022-03-19T12:46:56.591Z</time>
      </trkpt>
      <trkpt lat="47.525652" lon="8.130077">
        <ele>658.429777</ele>
        <time>2022-03-19T12:47:03.520Z</time>
      </trkpt>
      <trkpt lat="47.525563" lon="8.130039">
        <ele>657.373983</ele>
        <time>2022-03-19T12:47:08.525Z</time>
      </trkpt>
      <trkpt lat="47.525463" lon="8.129960">
        <ele>656.082080</ele>
        <time>2022-03-19T12:47:16.525Z</time>
      </trkpt>
      <trkpt lat="47.525389" lon="8.129866">
        <ele>654.970792</ele>
        <time>2022-03-19T12:47:22.523Z</time>
      </trkpt>
      <trkpt lat="47.525308" lon="8.129770">
        <ele>653.788232</ele>
        <time>2022-03-19T12:47:29.508Z</time>
      </trkpt>
      <trkpt lat="47.525234" lon="8.129650">
        <ele>652.537392</ele>
        <time>2022-03-19T12:47:39.510Z</time>
      </trkpt>
      <trkpt lat="47.525189" lon="8.129533">
        <ele>651.501003</ele>
        <time>2022-03-19T12:47:47.520Z</time>
      </trkpt>
      <trkpt lat="47.525109" lon="8.129441">
        <ele>650.346455</ele>
        <time>2022-03-19T12:47:53.515Z</time>
      </trkpt>
      <trkpt lat="47.525037" lon="8.129336">
        <ele>649.194622</ele>
        <time>2022-03-19T12:48:01.515Z</time>
      </trkpt>
      <trkpt lat="47.524942" lon="8.129281">
        <ele>648.031949</ele>
        <time>2022-03-19T12:48:06.509Z</time>
      </trkpt>
      <trkpt lat="47.524880" lon="8.129178">
        <ele>646.969888</ele>
        <time>2022-03-19T12:48:14.539Z</time>
      </trkpt>
      <trkpt lat="47.524826" lon="8.129065">
        <ele>645.904350</ele>
        <time>2022-03-19T12:48:22.532Z</time>
      </trkpt>
      <trkpt lat="47.524740" lon="8.129017">
        <ele>644.856761</ele>
        <time>2022-03-19T12:48:28.521Z</time>
      </trkpt>
      <trkpt lat="47.524658" lon="8.128959">
        <ele>643.820936</ele>
        <time>2022-03-19T12:48:37.511Z</time>
      </trkpt>
      <trkpt lat="47.524567" lon="8.128969">
        <ele>642.780816</ele>
        <time>2022-03-19T12:48:46.507Z</time>
      </trkpt>
      <trkpt lat="47.524477" lon="8.128999">
        <ele>641.729278</ele>
        <time>2022-03-19T12:48:53.524Z</time>
      </trkpt>
      <trkpt lat="47.524409" lon="8.129100">
        <ele>640.631483</ele>
        <time>2022-03-19T12:49:02.518Z</time>
      </trkpt>
      <trkpt lat="47.524360" lon="8.129220">
        <ele>639.552082</ele>
        <time>2022-03-19T12:49:12.516Z</time>
      </trkpt>
      <trkpt lat="47.524341" lon="8.129352">
        <ele>638.513229</ele>
        <time>2022-03-19T12:49:16.517Z</time>
      </trkpt>
      <trkpt lat="47.524316" lon="8.129503">
        <ele>637.384115</ele>
        <time>2022-03-19T12:49:24.524Z</time>
      </trkpt>
      <trkpt lat="47.524279" lon="8.129626">
        <ele>636.428347</ele>
        <time>2022-03-19T12:49:31.518Z</time>
      </trkpt>
      <trkpt lat="47.524329" lon="8.129744">
        <ele>635.439539</ele>
        <time>2022-03-19T12:49:42.518Z</time>
      </trkpt>
      <trkpt lat="47.524422" lon="8.129760">
        <ele>634.455412</ele>
        <time>2022-03-19T12:49:49.571Z</time>
      </trkpt>
      <trkpt lat="47.524522" lon="8.129789">
        <ele>633.384315</ele>
        <time>2022-03-19T12:49:56.987Z</time>
      </trkpt>
      <trkpt lat="47.524597" lon="8.129875">
        <ele>632.387261</ele>
        <time>2022-03-19T12:50:05.509Z</time>
      </trkpt>
      <trkpt lat="47.524564" lon="8.130014">
        <ele>631.341437</ele>
        <time>2022-03-19T12:50:13.512Z</time>
      </trkpt>
      <trkpt lat="47.524547" lon="8.130157">
        <ele>630.310811</ele>
        <time>2022-03-19T12:50:20.507Z</time>
      </trkpt>
      <trkpt lat="47.524481" lon="8.130260">
        <ele>629.302949</ele>
        <time>2022-03-19T12:50:28.514Z</time>
      </trkpt>
      <trkpt lat="47.524389" lon="8.130332">
        <ele>628.209171</ele>
        <time>2022-03-19T12:50:44.512Z</time>
      </trkpt>
      <trkpt lat="47.524324" lon="8.130432">
        <ele>627.223964</ele>
        <time>2022-03-19T12:50:53.516Z</time>
      </trkpt>
      <trkpt lat="47.524308" lon="8.130583">
        <ele>626.139044</ele>
        <time>2022-03-19T12:51:00.513Z</time>
      </trkpt>
      <trkpt lat="47.524272" lon="8.130709">
        <ele>625.167930</ele>
        <time>2022-03-19T12:51:06.518Z</time>
      </trkpt>
      <trkpt lat="47.524246" lon="8.130845">
        <ele>624.164654</ele>
        <time>2022-03-19T12:51:14.512Z</time>
      </trkpt>
      <trkpt lat="47.524204" lon="8.130978">
        <ele>623.122485</ele>
        <time>2022-03-19T12:51:21.658Z</time>
      </trkpt>
      <trkpt lat="47.524148" lon="8.131085">
        <ele>622.161590</ele>
        <time>2022-03-19T12:51:26.649Z</time>
      </trkpt>
      <trkpt lat="47.524153" lon="8.131222">
        <ele>621.187735</ele>
        <time>2022-03-19T12:51:33.693Z</time>
      </trkpt>
      <trkpt lat="47.524123" lon="8.131360">
        <ele>620.158693</ele>
        <time>2022-03-19T12:51:39.650Z</time>
      </trkpt>
      <trkpt lat="47.524072" lon="8.131480">
        <ele>619.092892</ele>
        <time>2022-03-19T12:51:49.641Z</time>
      </trkpt>
      <trkpt lat="47.524019" lon="8.131604">
        <ele>617.562030</ele>
        <time>2022-03-19T12:51:55.675Z</time>
      </trkpt>
      <trkpt lat="47.523985" lon="8.131734">
        <ele>616.107756</ele>
        <time>2022-03-19T12:52:03.653Z</time>
      </trkpt>
      <trkpt lat="47.523924" lon="8.131838">
        <ele>614.670758</ele>
        <time>2022-03-19T12:52:12.643Z</time>
      </trkpt>
      <trkpt lat="47.523956" lon="8.131982">
        <ele>613.089350</ele>
        <time>2022-03-19T12:52:18.659Z</time>
      </trkpt>
      <trkpt lat="47.523894" lon="8.132080">
        <ele>611.688484</ele>
        <time>2022-03-19T12:52:27.652Z</time>
      </trkpt>
      <trkpt lat="47.523894" lon="8.132220">
        <ele>610.228048</ele>
        <time>2022-03-19T12:52:31.652Z</time>
      </trkpt>
      <trkpt lat="47.523840" lon="8.132346">
        <ele>608.671291</ele>
        <time>2022-03-19T12:52:38.652Z</time>
      </trkpt>
      <trkpt lat="47.523835" lon="8.132493">
        <ele>607.135888</ele>
        <time>2022-03-19T12:52:47.654Z</time>
      </trkpt>
      <trkpt lat="47.523800" lon="8.132624">
        <ele>605.666264</ele>
        <time>2022-03-19T12:52:51.649Z</time>
      </trkpt>
      <trkpt lat="47.523740" lon="8.132749">
        <ele>604.066447</ele>
        <time>2022-03-19T12:52:58.666Z</time>
      </trkpt>
      <trkpt lat="47.523681" lon="8.132854">
        <ele>602.641511</ele>
        <time>2022-03-19T12:53:02.646Z</time>
      </trkpt>
      <trkpt lat="47.523716" lon="8.132996">
        <ele>601.064618</ele>
        <time>2022-03-19T12:53:11.644Z</time>
      </trkpt>
      <trkpt lat="47.523753" lon="8.133136">
        <ele>599.496313</ele>
        <time>2022-03-19T12:53:21.654Z</time>
      </trkpt>
      <trkpt lat="47.523728" lon="8.133264">
        <ele>598.106326</ele>
        <time>2022-03-19T12:53:27.649Z</time>
      </trkpt>
      <trkpt lat="47.523697" lon="8.133403">
        <ele>596.579284</ele>
        <time>2022-03-19T12:53:33.659Z</time>
      </trkpt>
      <trkpt lat="47.523670" lon="8.133539">
        <ele>595.100529</ele>
        <time>2022-03-19T12:53:43.659Z</time>
      </trkpt>
      <trkpt lat="47.523597" lon="8.133619">
        <ele>593.697621</ele>
        <time>2022-03-19T12:53:48.650Z</time>
      </trkpt>
      <trkpt lat="47.523560" lon="8.133748">
        <ele>592.235572</ele>
        <time>2022-03-19T12:53:56.649Z</time>
      </trkpt>
      <trkpt lat="47.523556" lon="8.133886">
        <ele>591.302591</ele>
        <time>2022-03-19T12:54:03.643Z</time>
      </trkpt>
      <trkpt lat="47.523513" lon="8.134016">
        <ele>590.890090</ele>
        <time>2022-03-19T12:54:08.658Z</time>
      </trkpt>
      <trkpt lat="47.523486" lon="8.134163">
        <ele>590.455980</ele>
        <time>2022-03-19T12:54:15.643Z</time>
      </trkpt>
      <trkpt lat="47.523506" lon="8.134295">
        <ele>590.070481</ele>
        <time>2022-03-19T12:54:23.638Z</time>
      </trkpt>
      <trkpt lat="47.523543" lon="8.134429">
        <ele>589.657947</ele>
        <time>2022-03-19T12:54:31.646Z</time>
      </trkpt>
      <trkpt lat="47.523544" lon="8.134565">
        <ele>589.270378</ele>
        <time>2022-03-19T12:54:39.645Z</time>
      </trkpt>
      <trkpt lat="47.523545" lon="8.134702">
        <ele>588.879960</ele>
        <time>2022-03-19T12:54:47.651Z</time>
      </trkpt>
      <trkpt lat="47.523533" lon="8.134844">
        <ele>588.472161</ele>
        <time>2022-03-19T12:54:54.684Z</time>
      </trkpt>
      <trkpt lat="47.523561" lon="8.134984">
        <ele>588.056088</ele>
        <time>2022-03-19T12:55:00.640Z</time>
      </trkpt>
      <trkpt lat="47.523595" lon="8.135114">
        <ele>587.658827</ele>
        <time>2022-03-19T12:55:07.659Z</time>
      </trkpt>
      <trkpt lat="47.523605" lon="8.135249">
        <ele>587.271824</ele>
        <time>2022-03-19T12:55:13.653Z</time>
      </trkpt>
      <trkpt lat="47.523625" lon="8.135401">
        <ele>586.830540</ele>
        <time>2022-03-19T12:55:22.648Z</time>
      </trkpt>
      <trkpt lat="47.523639" lon="8.135550">
        <ele>586.401860</ele>
        <time>2022-03-19T12:55:32.650Z</time>
      </trkpt>
      <trkpt lat="47.523683" lon="8.135667">
        <ele>586.020243</ele>
        <time>2022-03-19T12:55:38.639Z</time>
      </trkpt>
      <trkpt lat="47.523657" lon="8.135804">
        <ele>585.614725</ele>
        <time>2022-03-19T12:55:45.639Z</time>
      </trkpt>
      <trkpt lat="47.523702" lon="8.135934">
        <ele>585.198444</ele>
        <time>2022-03-19T12:55:53.677Z</time>
      </trkpt>
      <trkpt lat="47.523723" lon="8.136066">
        <ele>584.812000</ele>
        <time>2022-03-19T12:56:01.656Z</time>
      </trkpt>
      <trkpt lat="47.523737" lon="8.136209">
        <ele>584.400249</ele>
        <time>2022-03-19T12:56:06.655Z</time>
      </trkpt>
      <trkpt lat="47.523774" lon="8.136345">
        <ele>583.982435</ele>
        <time>2022-03-19T12:56:13.657Z</time>
      </trkpt>
      <trkpt lat="47.523838" lon="8.136450">
        <ele>583.770304</ele>
        <time>2022-03-19T12:56:19.650Z</time>
      </trkpt>
      <trkpt lat="47.523833" lon="8.136585">
        <ele>583.611975</ele>
        <time>2022-03-19T12:56:26.682Z</time>
      </trkpt>
      <trkpt lat="47.523786" lon="8.136738">
        <ele>583.415137</ele>
        <time>2022-03-19T12:56:34.644Z</time>
      </trkpt>
      <trkpt lat="47.523743" lon="8.136864">
        <ele>583.249812</ele>
        <time>2022-03-19T12:56:40.640Z</time>
      </trkpt>
      <trkpt lat="47.523760" lon="8.136994">
        <ele>583.094748</ele>
        <time>2022-03-19T12:56:46.650Z</time>
      </trkpt>
      <trkpt lat="47.523783" lon="8.137129">
        <ele>582.931702</ele>
        <time>2022-03-19T12:56:53.640Z</time>
      </trkpt>
      <trkpt lat="47.523811" lon="8.137265">
        <ele>582.765202</ele>
        <time>2022-03-19T12:56:59.643Z</time>
      </trkpt>
      <trkpt lat="47.523828" lon="8.137412">
        <ele>582.590552</ele>
        <time>2022-03-19T12:57:04.654Z</time>
      </trkpt>
      <trkpt lat="47.523834" lon="8.137556">
        <ele>582.421600</ele>
        <time>2022-03-19T12:57:12.650Z</time>
      </trkpt>
      <trkpt lat="47.523873" lon="8.137694">
        <ele>582.246414</ele>
        <time>2022-03-19T12:57:17.666Z</time>
      </trkpt>
      <trkpt lat="47.523888" lon="8.137828">
        <ele>582.087352</ele>
        <time>2022-03-19T12:57:26.914Z</time>
      </trkpt>
      <trkpt lat="47.523915" lon="8.137961">
        <ele>581.924717</ele>
        <time>2022-03-19T12:57:32.652Z</time>
      </trkpt>
      <trkpt lat="47.523970" lon="8.138085">
        <ele>581.750985</ele>
        <time>2022-03-19T12:57:41.653Z</time>
      </trkpt>
      <trkpt lat="47.523991" lon="8.138221">
        <ele>581.587612</ele>
        <time>2022-03-19T12:57:49.641Z</time>
      </trkpt>
      <trkpt lat="47.523924" lon="8.138320">
        <ele>581.423477</ele>
        <time>2022-03-19T12:58:00.642Z</time>
      </trkpt>
      <trkpt lat="47.523869" lon="8.138431">
        <ele>581.262252</ele>
        <time>2022-03-19T12:58:07.639Z</time>
      </trkpt>
      <trkpt lat="47.523863" lon="8.138580">
        <ele>581.087456</ele>
        <time>2022-03-19T12:58:14.654Z</time>
      </trkpt>
      <trkpt lat="47.523897" lon="8.138721">
        <ele>580.912127</ele>
        <time>2022-03-19T12:58:23.654Z</time>
      </trkpt>
      <trkpt lat="47.523945" lon="8.138838">
        <ele>580.905713</ele>
        <time>2022-03-19T12:58:29.642Z</time>
      </trkpt>
      <trkpt lat="47.523942" lon="8.138980">
        <ele>581.525510</ele>
        <time>2022-03-19T12:58:38.648Z</time>
      </trkpt>
      <trkpt lat="47.523944" lon="8.139119">
        <ele>582.132054</ele>
        <time>2022-03-19T12:58:47.652Z</time>
      </trkpt>
      <trkpt lat="47.523942" lon="8.139215">
        <ele>582.551066</ele>
        <time>2022-03-19T12:58:57.661Z</time>
      </trkpt>
      <trkpt lat="47.523934" lon="8.139406">
        <ele>583.385931</ele>
        <time>2022-03-19T13:00:27.650Z</time>
      </trkpt>
      <trkpt lat="47.523948" lon="8.139543">
        <ele>583.990417</ele>
        <time>2022-03-19T13:00:35.652Z</time>
      </trkpt>
      <trkpt lat="47.523929" lon="8.139690">
        <ele>584.643367</ele>
        <time>2022-03-19T13:00:41.651Z</time>
      </trkpt>
      <trkpt lat="47.523908" lon="8.139835">
        <ele>585.290334</ele>
        <time>2022-03-19T13:00:49.651Z</time>
      </trkpt>
      <trkpt lat="47.523971" lon="8.139954">
        <ele>585.950014</ele>
        <time>2022-03-19T13:00:56.652Z</time>
      </trkpt>
      <trkpt lat="47.524012" lon="8.140092">
        <ele>586.607750</ele>
        <time>2022-03-19T13:01:05.650Z</time>
      </trkpt>
      <trkpt lat="47.524093" lon="8.140160">
        <ele>587.209287</ele>
        <time>2022-03-19T13:01:11.658Z</time>
      </trkpt>
      <trkpt lat="47.524166" lon="8.140238">
        <ele>587.790848</ele>
        <time>2022-03-19T13:01:17.655Z</time>
      </trkpt>
      <trkpt lat="47.524243" lon="8.140318">
        <ele>588.398524</ele>
        <time>2022-03-19T13:01:24.725Z</time>
      </trkpt>
      <trkpt lat="47.524298" lon="8.140441">
        <ele>589.042105</ele>
        <time>2022-03-19T13:01:33.641Z</time>
      </trkpt>
      <trkpt lat="47.524354" lon="8.140550">
        <ele>589.639610</ele>
        <time>2022-03-19T13:01:40.647Z</time>
      </trkpt>
      <trkpt lat="47.524412" lon="8.140657">
        <ele>590.238196</ele>
        <time>2022-03-19T13:01:46.656Z</time>
      </trkpt>
      <trkpt lat="47.524412" lon="8.140799">
        <ele>590.857685</ele>
        <time>2022-03-19T13:01:54.661Z</time>
      </trkpt>
      <trkpt lat="47.524377" lon="8.140931">
        <ele>591.476351</ele>
        <time>2022-03-19T13:01:59.654Z</time>
      </trkpt>
      <trkpt lat="47.524397" lon="8.141075">
        <ele>592.117715</ele>
        <time>2022-03-19T13:02:07.650Z</time>
      </trkpt>
      <trkpt lat="47.524408" lon="8.141219">
        <ele>592.766709</ele>
        <time>2022-03-19T13:02:15.654Z</time>
      </trkpt>
      <trkpt lat="47.524441" lon="8.141359">
        <ele>593.445020</ele>
        <time>2022-03-19T13:02:23.642Z</time>
      </trkpt>
      <trkpt lat="47.524505" lon="8.141469">
        <ele>594.109215</ele>
        <time>2022-03-19T13:02:30.661Z</time>
      </trkpt>
      <trkpt lat="47.524564" lon="8.141604">
        <ele>594.844809</ele>
        <time>2022-03-19T13:02:38.645Z</time>
      </trkpt>
      <trkpt lat="47.524599" lon="8.141732">
        <ele>595.476513</ele>
        <time>2022-03-19T13:02:46.652Z</time>
      </trkpt>
      <trkpt lat="47.524662" lon="8.141839">
        <ele>596.125899</ele>
        <time>2022-03-19T13:02:54.659Z</time>
      </trkpt>
      <trkpt lat="47.524766" lon="8.141979">
        <ele>597.077982</ele>
        <time>2022-03-19T13:03:03.779Z</time>
      </trkpt>
      <trkpt lat="47.524851" lon="8.142051">
        <ele>597.741322</ele>
        <time>2022-03-19T13:03:09.641Z</time>
      </trkpt>
      <trkpt lat="47.524925" lon="8.142143">
        <ele>598.395841</ele>
        <time>2022-03-19T13:03:17.648Z</time>
      </trkpt>
      <trkpt lat="47.524994" lon="8.142247">
        <ele>599.062773</ele>
        <time>2022-03-19T13:03:24.652Z</time>
      </trkpt>
      <trkpt lat="47.525026" lon="8.142380">
        <ele>599.708627</ele>
        <time>2022-03-19T13:03:32.650Z</time>
      </trkpt>
      <trkpt lat="47.525096" lon="8.142473">
        <ele>600.345676</ele>
        <time>2022-03-19T13:03:40.647Z</time>
      </trkpt>
      <trkpt lat="47.525174" lon="8.142547">
        <ele>600.973188</ele>
        <time>2022-03-19T13:03:50.653Z</time>
      </trkpt>
      <trkpt lat="47.525268" lon="8.142602">
        <ele>601.657855</ele>
        <time>2022-03-19T13:03:56.636Z</time>
      </trkpt>
      <trkpt lat="47.525364" lon="8.142635">
        <ele>602.325461</ele>
        <time>2022-03-19T13:04:04.652Z</time>
      </trkpt>
      <trkpt lat="47.525430" lon="8.142742">
        <ele>602.988375</ele>
        <time>2022-03-19T13:04:15.692Z</time>
      </trkpt>
      <trkpt lat="47.525528" lon="8.142800">
        <ele>603.703291</ele>
        <time>2022-03-19T13:04:21.643Z</time>
      </trkpt>
      <trkpt lat="47.525600" lon="8.142882">
        <ele>604.318581</ele>
        <time>2022-03-19T13:04:27.651Z</time>
      </trkpt>
      <trkpt lat="47.525660" lon="8.142992">
        <ele>604.486827</ele>
        <time>2022-03-19T13:04:33.641Z</time>
      </trkpt>
      <trkpt lat="47.525737" lon="8.143089">
        <ele>604.301670</ele>
        <time>2022-03-19T13:04:42.662Z</time>
      </trkpt>
      <trkpt lat="47.525816" lon="8.143158">
        <ele>604.133681</ele>
        <time>2022-03-19T13:04:47.642Z</time>
      </trkpt>
      <trkpt lat="47.525898" lon="8.143248">
        <ele>603.946738</ele>
        <time>2022-03-19T13:04:57.650Z</time>
      </trkpt>
      <trkpt lat="47.525977" lon="8.143324">
        <ele>603.774190</ele>
        <time>2022-03-19T13:05:02.679Z</time>
      </trkpt>
      <trkpt lat="47.526049" lon="8.143419">
        <ele>603.597565</ele>
        <time>2022-03-19T13:05:09.686Z</time>
      </trkpt>
      <trkpt lat="47.526088" lon="8.143554">
        <ele>603.415958</ele>
        <time>2022-03-19T13:05:17.652Z</time>
      </trkpt>
      <trkpt lat="47.526084" lon="8.143692">
        <ele>603.245123</ele>
        <time>2022-03-19T13:05:23.653Z</time>
      </trkpt>
      <trkpt lat="47.526125" lon="8.143824">
        <ele>603.065422</ele>
        <time>2022-03-19T13:05:29.648Z</time>
      </trkpt>
      <trkpt lat="47.526142" lon="8.143962">
        <ele>602.891927</ele>
        <time>2022-03-19T13:05:37.646Z</time>
      </trkpt>
      <trkpt lat="47.526130" lon="8.144105">
        <ele>602.713704</ele>
        <time>2022-03-19T13:05:45.653Z</time>
      </trkpt>
      <trkpt lat="47.526098" lon="8.144229">
        <ele>602.549523</ele>
        <time>2022-03-19T13:05:51.638Z</time>
      </trkpt>
      <trkpt lat="47.526103" lon="8.144377">
        <ele>602.366248</ele>
        <time>2022-03-19T13:05:57.642Z</time>
      </trkpt>
      <trkpt lat="47.526102" lon="8.144520">
        <ele>602.189376</ele>
        <time>2022-03-19T13:06:02.644Z</time>
      </trkpt>
      <trkpt lat="47.526150" lon="8.144661">
        <ele>601.994079</ele>
        <time>2022-03-19T13:06:09.642Z</time>
      </trkpt>
      <trkpt lat="47.526145" lon="8.144798">
        <ele>601.824391</ele>
        <time>2022-03-19T13:06:18.650Z</time>
      </trkpt>
      <trkpt lat="47.526140" lon="8.144931">
        <ele>601.659642</ele>
        <time>2022-03-19T13:06:25.649Z</time>
      </trkpt>
      <trkpt lat="47.526141" lon="8.145082">
        <ele>601.472876</ele>
        <time>2022-03-19T13:06:29.661Z</time>
      </trkpt>
      <trkpt lat="47.526131" lon="8.145219">
        <ele>601.302448</ele>
        <time>2022-03-19T13:06:40.686Z</time>
      </trkpt>
      <trkpt lat="47.526091" lon="8.145344">
        <ele>601.415072</ele>
        <time>2022-03-19T13:06:45.639Z</time>
      </trkpt>
      <trkpt lat="47.526094" lon="8.145500">
        <ele>601.558181</ele>
        <time>2022-03-19T13:06:50.653Z</time>
      </trkpt>
      <trkpt lat="47.526165" lon="8.145632">
        <ele>601.712932</ele>
        <time>2022-03-19T13:06:59.937Z</time>
      </trkpt>
      <trkpt lat="47.526197" lon="8.145773">
        <ele>601.849335</ele>
        <time>2022-03-19T13:07:09.652Z</time>
      </trkpt>
      <trkpt lat="47.526241" lon="8.145934">
        <ele>602.008605</ele>
        <time>2022-03-19T13:07:14.639Z</time>
      </trkpt>
      <trkpt lat="47.526208" lon="8.146074">
        <ele>602.144581</ele>
        <time>2022-03-19T13:07:21.641Z</time>
      </trkpt>
      <trkpt lat="47.526238" lon="8.146204">
        <ele>602.270559</ele>
        <time>2022-03-19T13:07:27.653Z</time>
      </trkpt>
      <trkpt lat="47.526274" lon="8.146338">
        <ele>602.402804</ele>
        <time>2022-03-19T13:07:32.648Z</time>
      </trkpt>
      <trkpt lat="47.526334" lon="8.146457">
        <ele>602.538990</ele>
        <time>2022-03-19T13:07:39.643Z</time>
      </trkpt>
      <trkpt lat="47.526397" lon="8.146555">
        <ele>602.663067</ele>
        <time>2022-03-19T13:07:45.657Z</time>
      </trkpt>
      <trkpt lat="47.526411" lon="8.146712">
        <ele>602.808285</ele>
        <time>2022-03-19T13:07:53.637Z</time>
      </trkpt>
      <trkpt lat="47.526439" lon="8.146859">
        <ele>602.948342</ele>
        <time>2022-03-19T13:08:00.640Z</time>
      </trkpt>
      <trkpt lat="47.526481" lon="8.146985">
        <ele>603.077194</ele>
        <time>2022-03-19T13:08:06.642Z</time>
      </trkpt>
      <trkpt lat="47.526438" lon="8.147103">
        <ele>603.200150</ele>
        <time>2022-03-19T13:08:13.649Z</time>
      </trkpt>
      <trkpt lat="47.526483" lon="8.147245">
        <ele>603.343989</ele>
        <time>2022-03-19T13:08:20.640Z</time>
      </trkpt>
      <trkpt lat="47.526503" lon="8.147381">
        <ele>603.471622</ele>
        <time>2022-03-19T13:08:27.654Z</time>
      </trkpt>
      <trkpt lat="47.526522" lon="8.147518">
        <ele>603.599872</ele>
        <time>2022-03-19T13:08:36.686Z</time>
      </trkpt>
      <trkpt lat="47.526552" lon="8.147663">
        <ele>603.741643</ele>
        <time>2022-03-19T13:08:42.660Z</time>
      </trkpt>
      <trkpt lat="47.526529" lon="8.147797">
        <ele>604.031985</ele>
        <time>2022-03-19T13:08:52.647Z</time>
      </trkpt>
      <trkpt lat="47.526581" lon="8.147912">
        <ele>604.322624</ele>
        <time>2022-03-19T13:08:56.651Z</time>
      </trkpt>
      <trkpt lat="47.526538" lon="8.148033">
        <ele>604.609758</ele>
        <time>2022-03-19T13:09:01.650Z</time>
      </trkpt>
      <trkpt lat="47.526575" lon="8.148161">
        <ele>604.902145</ele>
        <time>2022-03-19T13:09:10.155Z</time>
      </trkpt>
      <trkpt lat="47.526549" lon="8.148293">
        <ele>605.190890</ele>
        <time>2022-03-19T13:09:14.641Z</time>
      </trkpt>
      <trkpt lat="47.526492" lon="8.148404">
        <ele>605.483730</ele>
        <time>2022-03-19T13:09:19.685Z</time>
      </trkpt>
      <trkpt lat="47.526492" lon="8.148571">
        <ele>605.834422</ele>
        <time>2022-03-19T13:09:29.638Z</time>
      </trkpt>
      <trkpt lat="47.526509" lon="8.148707">
        <ele>606.124868</ele>
        <time>2022-03-19T13:09:35.650Z</time>
      </trkpt>
      <trkpt lat="47.526564" lon="8.148838">
        <ele>606.448800</ele>
        <time>2022-03-19T13:09:41.651Z</time>
      </trkpt>
      <trkpt lat="47.526613" lon="8.148956">
        <ele>606.739701</ele>
        <time>2022-03-19T13:09:46.675Z</time>
      </trkpt>
      <trkpt lat="47.526650" lon="8.149095">
        <ele>607.053454</ele>
        <time>2022-03-19T13:09:52.641Z</time>
      </trkpt>
      <trkpt lat="47.526701" lon="8.149230">
        <ele>607.378298</ele>
        <time>2022-03-19T13:09:59.652Z</time>
      </trkpt>
      <trkpt lat="47.526712" lon="8.149381">
        <ele>607.697229</ele>
        <time>2022-03-19T13:10:05.655Z</time>
      </trkpt>
      <trkpt lat="47.526714" lon="8.149518">
        <ele>607.984988</ele>
        <time>2022-03-19T13:10:12.662Z</time>
      </trkpt>
      <trkpt lat="47.526708" lon="8.149664">
        <ele>608.292147</ele>
        <time>2022-03-19T13:10:19.665Z</time>
      </trkpt>
      <trkpt lat="47.526719" lon="8.149798">
        <ele>608.575611</ele>
        <time>2022-03-19T13:10:26.660Z</time>
      </trkpt>
      <trkpt lat="47.526711" lon="8.149945">
        <ele>608.885304</ele>
        <time>2022-03-19T13:10:33.638Z</time>
      </trkpt>
      <trkpt lat="47.526700" lon="8.150090">
        <ele>609.191711</ele>
        <time>2022-03-19T13:10:39.654Z</time>
      </trkpt>
      <trkpt lat="47.526730" lon="8.150219">
        <ele>609.747647</ele>
        <time>2022-03-19T13:10:46.647Z</time>
      </trkpt>
      <trkpt lat="47.526770" lon="8.150361">
        <ele>610.659739</ele>
        <time>2022-03-19T13:10:54.651Z</time>
      </trkpt>
      <trkpt lat="47.526717" lon="8.150500">
        <ele>611.606031</ele>
        <time>2022-03-19T13:11:00.644Z</time>
      </trkpt>
      <trkpt lat="47.526770" lon="8.150618">
        <ele>612.446155</ele>
        <time>2022-03-19T13:11:08.656Z</time>
      </trkpt>
      <trkpt lat="47.526809" lon="8.150785">
        <ele>613.493672</ele>
        <time>2022-03-19T13:11:14.646Z</time>
      </trkpt>
      <trkpt lat="47.526778" lon="8.150918">
        <ele>614.327750</ele>
        <time>2022-03-19T13:11:24.658Z</time>
      </trkpt>
      <trkpt lat="47.526806" lon="8.151066">
        <ele>615.238885</ele>
        <time>2022-03-19T13:11:30.653Z</time>
      </trkpt>
      <trkpt lat="47.526778" lon="8.151203">
        <ele>616.087411</ele>
        <time>2022-03-19T13:11:37.648Z</time>
      </trkpt>
      <trkpt lat="47.526767" lon="8.151344">
        <ele>616.928825</ele>
        <time>2022-03-19T13:11:45.649Z</time>
      </trkpt>
      <trkpt lat="47.526820" lon="8.151467">
        <ele>617.793783</ele>
        <time>2022-03-19T13:11:51.651Z</time>
      </trkpt>
      <trkpt lat="47.526798" lon="8.151601">
        <ele>618.611282</ele>
        <time>2022-03-19T13:11:59.650Z</time>
      </trkpt>
      <trkpt lat="47.526775" lon="8.151733">
        <ele>619.419415</ele>
        <time>2022-03-19T13:12:05.684Z</time>
      </trkpt>
      <trkpt lat="47.526802" lon="8.151872">
        <ele>620.276828</ele>
        <time>2022-03-19T13:12:18.650Z</time>
      </trkpt>
      <trkpt lat="47.526832" lon="8.152004">
        <ele>621.102462</ele>
        <time>2022-03-19T13:12:26.660Z</time>
      </trkpt>
      <trkpt lat="47.526865" lon="8.152144">
        <ele>621.981499</ele>
        <time>2022-03-19T13:12:34.637Z</time>
      </trkpt>
      <trkpt lat="47.526912" lon="8.152278">
        <ele>622.876626</ele>
        <time>2022-03-19T13:12:41.644Z</time>
      </trkpt>
      <trkpt lat="47.526949" lon="8.152415">
        <ele>623.751315</ele>
        <time>2022-03-19T13:12:48.644Z</time>
      </trkpt>
      <trkpt lat="47.526959" lon="8.152565">
        <ele>624.644841</ele>
        <time>2022-03-19T13:12:56.641Z</time>
      </trkpt>
      <trkpt lat="47.527015" lon="8.152689">
        <ele>624.572632</ele>
        <time>2022-03-19T13:13:02.653Z</time>
      </trkpt>
      <trkpt lat="47.527065" lon="8.152807">
        <ele>623.463810</ele>
        <time>2022-03-19T13:13:10.645Z</time>
      </trkpt>
      <trkpt lat="47.527081" lon="8.152949">
        <ele>622.317943</ele>
        <time>2022-03-19T13:13:17.652Z</time>
      </trkpt>
      <trkpt lat="47.527169" lon="8.153080">
        <ele>620.847165</ele>
        <time>2022-03-19T13:13:26.368Z</time>
      </trkpt>
      <trkpt lat="47.527241" lon="8.153177">
        <ele>619.699831</ele>
        <time>2022-03-19T13:13:32.651Z</time>
      </trkpt>
      <trkpt lat="47.527321" lon="8.153247">
        <ele>618.604533</ele>
        <time>2022-03-19T13:13:39.649Z</time>
      </trkpt>
      <trkpt lat="47.527404" lon="8.153323">
        <ele>617.454264</ele>
        <time>2022-03-19T13:13:45.656Z</time>
      </trkpt>
      <trkpt lat="47.527496" lon="8.153368">
        <ele>616.312194</ele>
        <time>2022-03-19T13:13:52.651Z</time>
      </trkpt>
      <trkpt lat="47.527572" lon="8.153444">
        <ele>615.231236</ele>
        <time>2022-03-19T13:13:58.655Z</time>
      </trkpt>
      <trkpt lat="47.527644" lon="8.153525">
        <ele>614.165430</ele>
        <time>2022-03-19T13:14:05.689Z</time>
      </trkpt>
      <trkpt lat="47.527707" lon="8.153621">
        <ele>613.099916</ele>
        <time>2022-03-19T13:14:13.647Z</time>
      </trkpt>
      <trkpt lat="47.527758" lon="8.153745">
        <ele>611.944285</ele>
        <time>2022-03-19T13:14:22.643Z</time>
      </trkpt>
      <trkpt lat="47.527838" lon="8.153833">
        <ele>610.769619</ele>
        <time>2022-03-19T13:14:28.654Z</time>
      </trkpt>
      <trkpt lat="47.527904" lon="8.153938">
        <ele>609.627827</ele>
        <time>2022-03-19T13:14:34.657Z</time>
      </trkpt>
      <trkpt lat="47.527971" lon="8.154034">
        <ele>608.528934</ele>
        <time>2022-03-19T13:14:41.644Z</time>
      </trkpt>
      <trkpt lat="47.528023" lon="8.154154">
        <ele>607.394053</ele>
        <time>2022-03-19T13:14:48.656Z</time>
      </trkpt>
      <trkpt lat="47.528066" lon="8.154280">
        <ele>606.270372</ele>
        <time>2022-03-19T13:14:53.641Z</time>
      </trkpt>
      <trkpt lat="47.528110" lon="8.154406">
        <ele>605.141326</ele>
        <time>2022-03-19T13:15:02.654Z</time>
      </trkpt>
      <trkpt lat="47.528150" lon="8.154550">
        <ele>603.914283</ele>
        <time>2022-03-19T13:15:10.681Z</time>
      </trkpt>
      <trkpt lat="47.528213" lon="8.154655">
        <ele>603.590066</ele>
        <time>2022-03-19T13:15:16.660Z</time>
      </trkpt>
      <trkpt lat="47.528259" lon="8.154777">
        <ele>603.267540</ele>
        <time>2022-03-19T13:15:22.653Z</time>
      </trkpt>
      <trkpt lat="47.528269" lon="8.154926">
        <ele>602.921928</ele>
        <time>2022-03-19T13:15:29.664Z</time>
      </trkpt>
      <trkpt lat="47.528296" lon="8.155068">
        <ele>602.581420</ele>
        <time>2022-03-19T13:15:36.723Z</time>
      </trkpt>
      <trkpt lat="47.528335" lon="8.155198">
        <ele>602.253075</ele>
        <time>2022-03-19T13:15:42.681Z</time>
      </trkpt>
      <trkpt lat="47.528390" lon="8.155313">
        <ele>601.927797</ele>
        <time>2022-03-19T13:15:50.651Z</time>
      </trkpt>
      <trkpt lat="47.528406" lon="8.155450">
        <ele>601.606882</ele>
        <time>2022-03-19T13:15:57.651Z</time>
      </trkpt>
      <trkpt lat="47.528453" lon="8.155572">
        <ele>601.282677</ele>
        <time>2022-03-19T13:16:06.371Z</time>
      </trkpt>
      <trkpt lat="47.528508" lon="8.155682">
        <ele>600.966747</ele>
        <time>2022-03-19T13:16:11.750Z</time>
      </trkpt>
      <trkpt lat="47.528520" lon="8.155833">
        <ele>600.615808</ele>
        <time>2022-03-19T13:16:17.681Z</time>
      </trkpt>
      <trkpt lat="47.528552" lon="8.155973">
        <ele>600.274653</ele>
        <time>2022-03-19T13:16:24.690Z</time>
      </trkpt>
      <trkpt lat="47.528620" lon="8.156077">
        <ele>599.940504</ele>
        <time>2022-03-19T13:16:31.653Z</time>
      </trkpt>
      <trkpt lat="47.528644" lon="8.156218">
        <ele>599.604872</ele>
        <time>2022-03-19T13:16:37.656Z</time>
      </trkpt>
      <trkpt lat="47.528651" lon="8.156367">
        <ele>599.260125</ele>
        <time>2022-03-19T13:16:43.640Z</time>
      </trkpt>
      <trkpt lat="47.528663" lon="8.156506">
        <ele>598.936680</ele>
        <time>2022-03-19T13:16:55.653Z</time>
      </trkpt>
      <trkpt lat="47.528675" lon="8.156645">
        <ele>598.613235</ele>
        <time>2022-03-19T13:17:00.649Z</time>
      </trkpt>
      <trkpt lat="47.528732" lon="8.156756">
        <ele>598.291355</ele>
        <time>2022-03-19T13:17:08.643Z</time>
      </trkpt>
      <trkpt lat="47.528729" lon="8.156897">
        <ele>597.965744</ele>
        <time>2022-03-19T13:17:16.649Z</time>
      </trkpt>
      <trkpt lat="47.528739" lon="8.157037">
        <ele>598.216180</ele>
        <time>2022-03-19T13:17:20.644Z</time>
      </trkpt>
      <trkpt lat="47.528747" lon="8.157174">
        <ele>599.302774</ele>
        <time>2022-03-19T13:17:26.655Z</time>
      </trkpt>
      <trkpt lat="47.528754" lon="8.157324">
        <ele>600.490879</ele>
        <time>2022-03-19T13:17:35.660Z</time>
      </trkpt>
      <trkpt lat="47.528785" lon="8.157462">
        <ele>601.640097</ele>
        <time>2022-03-19T13:17:40.643Z</time>
      </trkpt>
      <trkpt lat="47.528837" lon="8.157601">
        <ele>602.895765</ele>
        <time>2022-03-19T13:17:45.646Z</time>
      </trkpt>
      <trkpt lat="47.528877" lon="8.157738">
        <ele>604.075188</ele>
        <time>2022-03-19T13:17:54.651Z</time>
      </trkpt>
      <trkpt lat="47.528888" lon="8.157877">
        <ele>605.181061</ele>
        <time>2022-03-19T13:17:59.644Z</time>
      </trkpt>
      <trkpt lat="47.528904" lon="8.158011">
        <ele>606.256334</ele>
        <time>2022-03-19T13:18:04.644Z</time>
      </trkpt>
      <trkpt lat="47.528944" lon="8.158136">
        <ele>607.349370</ele>
        <time>2022-03-19T13:18:12.654Z</time>
      </trkpt>
      <trkpt lat="47.528933" lon="8.158270">
        <ele>608.416011</ele>
        <time>2022-03-19T13:18:18.638Z</time>
      </trkpt>
      <trkpt lat="47.528921" lon="8.158406">
        <ele>609.499795</ele>
        <time>2022-03-19T13:18:33.676Z</time>
      </trkpt>
      <trkpt lat="47.528980" lon="8.158531">
        <ele>610.704923</ele>
        <time>2022-03-19T13:18:44.685Z</time>
      </trkpt>
      <trkpt lat="47.529040" lon="8.158652">
        <ele>611.891173</ele>
        <time>2022-03-19T13:18:50.678Z</time>
      </trkpt>
      <trkpt lat="47.529085" lon="8.158777">
        <ele>613.010516</ele>
        <time>2022-03-19T13:18:59.690Z</time>
      </trkpt>
      <trkpt lat="47.529170" lon="8.158845">
        <ele>614.141086</ele>
        <time>2022-03-19T13:19:08.655Z</time>
      </trkpt>
      <trkpt lat="47.529246" lon="8.158919">
        <ele>615.205484</ele>
        <time>2022-03-19T13:19:25.654Z</time>
      </trkpt>
      <trkpt lat="47.529351" lon="8.158912">
        <ele>616.435504</ele>
        <time>2022-03-19T13:19:33.646Z</time>
      </trkpt>
      <trkpt lat="47.529448" lon="8.158897">
        <ele>617.576830</ele>
        <time>2022-03-19T13:19:41.648Z</time>
      </trkpt>
      <trkpt lat="47.529545" lon="8.158881">
        <ele>618.719004</ele>
        <time>2022-03-19T13:19:50.675Z</time>
      </trkpt>
      <trkpt lat="47.529636" lon="8.158818">
        <ele>619.045807</ele>
        <time>2022-03-19T13:19:57.641Z</time>
      </trkpt>
      <trkpt lat="47.529727" lon="8.158785">
        <ele>619.276427</ele>
        <time>2022-03-19T13:20:06.676Z</time>
      </trkpt>
      <trkpt lat="47.529822" lon="8.158749">
        <ele>619.517810</ele>
        <time>2022-03-19T13:20:15.647Z</time>
      </trkpt>
      <trkpt lat="47.529913" lon="8.158723">
        <ele>619.745943</ele>
        <time>2022-03-19T13:20:23.654Z</time>
      </trkpt>
      <trkpt lat="47.530012" lon="8.158745">
        <ele>619.992367</ele>
        <time>2022-03-19T13:20:30.671Z</time>
      </trkpt>
      <trkpt lat="47.530110" lon="8.158780">
        <ele>620.240515</ele>
        <time>2022-03-19T13:20:36.649Z</time>
      </trkpt>
      <trkpt lat="47.530200" lon="8.158789">
        <ele>620.462561</ele>
        <time>2022-03-19T13:20:42.652Z</time>
      </trkpt>
      <trkpt lat="47.530287" lon="8.158751">
        <ele>620.685836</ele>
        <time>2022-03-19T13:20:54.640Z</time>
      </trkpt>
      <trkpt lat="47.530382" lon="8.158693">
        <ele>620.938776</ele>
        <time>2022-03-19T13:21:07.637Z</time>
      </trkpt>
      <trkpt lat="47.530475" lon="8.158687">
        <ele>621.167919</ele>
        <time>2022-03-19T13:21:14.683Z</time>
      </trkpt>
      <trkpt lat="47.530597" lon="8.158667">
        <ele>621.470064</ele>
        <time>2022-03-19T13:21:27.698Z</time>
      </trkpt>
      <trkpt lat="47.530695" lon="8.158690">
        <ele>621.714308</ele>
        <time>2022-03-19T13:21:35.651Z</time>
      </trkpt>
      <trkpt lat="47.530796" lon="8.158711">
        <ele>621.965365</ele>
        <time>2022-03-19T13:21:46.649Z</time>
      </trkpt>
      <trkpt lat="47.530883" lon="8.158752">
        <ele>622.190101</ele>
        <time>2022-03-19T13:21:53.639Z</time>
      </trkpt>
      <trkpt lat="47.530972" lon="8.158771">
        <ele>622.411445</ele>
        <time>2022-03-19T13:22:04.685Z</time>
      </trkpt>
      <trkpt lat="47.531060" lon="8.158825">
        <ele>622.645920</ele>
        <time>2022-03-19T13:22:16.659Z</time>
      </trkpt>
      <trkpt lat="47.531156" lon="8.158895">
        <ele>622.909317</ele>
        <time>2022-03-19T13:22:26.652Z</time>
      </trkpt>
      <trkpt lat="47.531246" lon="8.158914">
        <ele>623.133098</ele>
        <time>2022-03-19T13:22:30.650Z</time>
      </trkpt>
      <trkpt lat="47.531331" lon="8.158969">
        <ele>623.754149</ele>
        <time>2022-03-19T13:22:38.643Z</time>
      </trkpt>
      <trkpt lat="47.531414" lon="8.159041">
        <ele>624.805045</ele>
        <time>2022-03-19T13:22:46.678Z</time>
      </trkpt>
      <trkpt lat="47.531517" lon="8.159011">
        <ele>625.951911</ele>
        <time>2022-03-19T13:22:56.650Z</time>
      </trkpt>
      <trkpt lat="47.531614" lon="8.159023">
        <ele>627.015362</ele>
        <time>2022-03-19T13:23:04.653Z</time>
      </trkpt>
      <trkpt lat="47.531701" lon="8.159120">
        <ele>628.205088</ele>
        <time>2022-03-19T13:23:12.646Z</time>
      </trkpt>
      <trkpt lat="47.531793" lon="8.159092">
        <ele>629.231223</ele>
        <time>2022-03-19T13:23:20.688Z</time>
      </trkpt>
      <trkpt lat="47.531890" lon="8.159028">
        <ele>630.391383</ele>
        <time>2022-03-19T13:23:27.676Z</time>
      </trkpt>
      <trkpt lat="47.531985" lon="8.158983">
        <ele>631.481082</ele>
        <time>2022-03-19T13:23:34.678Z</time>
      </trkpt>
      <trkpt lat="47.532078" lon="8.158923">
        <ele>632.589353</ele>
        <time>2022-03-19T13:23:40.650Z</time>
      </trkpt>
      <trkpt lat="47.532173" lon="8.158875">
        <ele>633.685995</ele>
        <time>2022-03-19T13:23:48.652Z</time>
      </trkpt>
      <trkpt lat="47.532257" lon="8.158824">
        <ele>634.677841</ele>
        <time>2022-03-19T13:23:54.669Z</time>
      </trkpt>
      <trkpt lat="47.532361" lon="8.158777">
        <ele>635.865795</ele>
        <time>2022-03-19T13:24:02.652Z</time>
      </trkpt>
      <trkpt lat="47.532438" lon="8.158694">
        <ele>636.906255</ele>
        <time>2022-03-19T13:24:09.655Z</time>
      </trkpt>
      <trkpt lat="47.532470" lon="8.158552">
        <ele>638.010523</ele>
        <time>2022-03-19T13:24:14.733Z</time>
      </trkpt>
      <trkpt lat="47.532430" lon="8.158422">
        <ele>639.064353</ele>
        <time>2022-03-19T13:24:22.651Z</time>
      </trkpt>
      <trkpt lat="47.532470" lon="8.158279">
        <ele>640.206136</ele>
        <time>2022-03-19T13:24:30.685Z</time>
      </trkpt>
      <trkpt lat="47.532534" lon="8.158171">
        <ele>641.266128</ele>
        <time>2022-03-19T13:24:36.686Z</time>
      </trkpt>
      <trkpt lat="47.532576" lon="8.158034">
        <ele>642.376005</ele>
        <time>2022-03-19T13:24:45.652Z</time>
      </trkpt>
      <trkpt lat="47.532637" lon="8.157921">
        <ele>642.718592</ele>
        <time>2022-03-19T13:24:54.641Z</time>
      </trkpt>
      <trkpt lat="47.532652" lon="8.157781">
        <ele>642.374423</ele>
        <time>2022-03-19T13:25:01.649Z</time>
      </trkpt>
      <trkpt lat="47.532681" lon="8.157630">
        <ele>641.993256</ele>
        <time>2022-03-19T13:25:09.656Z</time>
      </trkpt>
      <trkpt lat="47.532698" lon="8.157490">
        <ele>641.647887</ele>
        <time>2022-03-19T13:25:16.651Z</time>
      </trkpt>
      <trkpt lat="47.532740" lon="8.157366">
        <ele>641.311058</ele>
        <time>2022-03-19T13:25:26.651Z</time>
      </trkpt>
      <trkpt lat="47.532768" lon="8.157227">
        <ele>640.958871</ele>
        <time>2022-03-19T13:25:34.661Z</time>
      </trkpt>
      <trkpt lat="47.532810" lon="8.157086">
        <ele>640.584692</ele>
        <time>2022-03-19T13:25:43.646Z</time>
      </trkpt>
      <trkpt lat="47.532843" lon="8.156960">
        <ele>640.256558</ele>
        <time>2022-03-19T13:25:49.642Z</time>
      </trkpt>
      <trkpt lat="47.532888" lon="8.156844">
        <ele>639.931735</ele>
        <time>2022-03-19T13:25:58.686Z</time>
      </trkpt>
      <trkpt lat="47.532934" lon="8.156700">
        <ele>639.544951</ele>
        <time>2022-03-19T13:26:08.056Z</time>
      </trkpt>
      <trkpt lat="47.533000" lon="8.156599">
        <ele>639.203681</ele>
        <time>2022-03-19T13:26:14.660Z</time>
      </trkpt>
      <trkpt lat="47.533067" lon="8.156484">
        <ele>638.834883</ele>
        <time>2022-03-19T13:26:20.646Z</time>
      </trkpt>
      <trkpt lat="47.533153" lon="8.156402">
        <ele>638.467077</ele>
        <time>2022-03-19T13:26:27.658Z</time>
      </trkpt>
      <trkpt lat="47.533244" lon="8.156345">
        <ele>638.111773</ele>
        <time>2022-03-19T13:26:37.657Z</time>
      </trkpt>
      <trkpt lat="47.533304" lon="8.156228">
        <ele>637.755053</ele>
        <time>2022-03-19T13:26:45.656Z</time>
      </trkpt>
      <trkpt lat="47.533393" lon="8.156174">
        <ele>637.409188</ele>
        <time>2022-03-19T13:26:53.651Z</time>
      </trkpt>
      <trkpt lat="47.533489" lon="8.156161">
        <ele>637.062524</ele>
        <time>2022-03-19T13:27:01.660Z</time>
      </trkpt>
      <trkpt lat="47.533555" lon="8.156057">
        <ele>636.715984</ele>
        <time>2022-03-19T13:27:09.684Z</time>
      </trkpt>
      <trkpt lat="47.533614" lon="8.155954">
        <ele>636.456793</ele>
        <time>2022-03-19T13:27:16.657Z</time>
      </trkpt>
      <trkpt lat="47.533644" lon="8.155819">
        <ele>636.677549</ele>
        <time>2022-03-19T13:27:26.652Z</time>
      </trkpt>
      <trkpt lat="47.533703" lon="8.155704">
        <ele>636.901894</ele>
        <time>2022-03-19T13:27:35.681Z</time>
      </trkpt>
      <trkpt lat="47.533784" lon="8.155634">
        <ele>637.117642</ele>
        <time>2022-03-19T13:27:45.645Z</time>
      </trkpt>
      <trkpt lat="47.533849" lon="8.155538">
        <ele>637.328820</ele>
        <time>2022-03-19T13:27:55.655Z</time>
      </trkpt>
      <trkpt lat="47.533924" lon="8.155463">
        <ele>637.537009</ele>
        <time>2022-03-19T13:28:07.831Z</time>
      </trkpt>
      <trkpt lat="47.534002" lon="8.155373">
        <ele>637.764479</ele>
        <time>2022-03-19T13:28:15.656Z</time>
      </trkpt>
      <trkpt lat="47.534068" lon="8.155281">
        <ele>637.972986</ele>
        <time>2022-03-19T13:28:25.655Z</time>
      </trkpt>
      <trkpt lat="47.534143" lon="8.155204">
        <ele>638.182928</ele>
        <time>2022-03-19T13:28:33.651Z</time>
      </trkpt>
      <trkpt lat="47.534228" lon="8.155113">
        <ele>638.424213</ele>
        <time>2022-03-19T13:28:44.652Z</time>
      </trkpt>
      <trkpt lat="47.534299" lon="8.155009">
        <ele>638.653940</ele>
        <time>2022-03-19T13:28:52.663Z</time>
      </trkpt>
      <trkpt lat="47.534372" lon="8.154912">
        <ele>638.879561</ele>
        <time>2022-03-19T13:28:59.664Z</time>
      </trkpt>
      <trkpt lat="47.534448" lon="8.154816">
        <ele>639.109353</ele>
        <time>2022-03-19T13:29:08.641Z</time>
      </trkpt>
      <trkpt lat="47.534527" lon="8.154746">
        <ele>639.321139</ele>
        <time>2022-03-19T13:29:14.686Z</time>
      </trkpt>
      <trkpt lat="47.534590" lon="8.154650">
        <ele>639.529083</ele>
        <time>2022-03-19T13:29:22.639Z</time>
      </trkpt>
      <trkpt lat="47.534633" lon="8.154524">
        <ele>639.748372</ele>
        <time>2022-03-19T13:29:28.649Z</time>
      </trkpt>
      <trkpt lat="47.534712" lon="8.154425">
        <ele>639.986441</ele>
        <time>2022-03-19T13:29:37.648Z</time>
      </trkpt>
      <trkpt lat="47.534766" lon="8.154302">
        <ele>640.214328</ele>
        <time>2022-03-19T13:29:43.680Z</time>
      </trkpt>
      <trkpt lat="47.534844" lon="8.154226">
        <ele>640.429120</ele>
        <time>2022-03-19T13:29:52.655Z</time>
      </trkpt>
      <trkpt lat="47.534908" lon="8.154120">
        <ele>640.601841</ele>
        <time>2022-03-19T13:29:57.654Z</time>
      </trkpt>
      <trkpt lat="47.534962" lon="8.153997">
        <ele>640.696050</ele>
        <time>2022-03-19T13:30:04.651Z</time>
      </trkpt>
      <trkpt lat="47.535008" lon="8.153880">
        <ele>640.782987</ele>
        <time>2022-03-19T13:30:12.658Z</time>
      </trkpt>
      <trkpt lat="47.535058" lon="8.153768">
        <ele>640.869203</ele>
        <time>2022-03-19T13:30:16.691Z</time>
      </trkpt>
      <trkpt lat="47.535121" lon="8.153664">
        <ele>640.958923</ele>
        <time>2022-03-19T13:30:27.665Z</time>
      </trkpt>
      <trkpt lat="47.535197" lon="8.153561">
        <ele>641.056896</ele>
        <time>2022-03-19T13:30:33.657Z</time>
      </trkpt>
      <trkpt lat="47.535255" lon="8.153453">
        <ele>641.145507</ele>
        <time>2022-03-19T13:30:43.021Z</time>
      </trkpt>
      <trkpt lat="47.535307" lon="8.153303">
        <ele>641.253778</ele>
        <time>2022-03-19T13:30:50.073Z</time>
      </trkpt>
      <trkpt lat="47.535326" lon="8.153164">
        <ele>641.344841</ele>
        <time>2022-03-19T13:30:57.987Z</time>
      </trkpt>
      <trkpt lat="47.535371" lon="8.153037">
        <ele>641.436937</ele>
        <time>2022-03-19T13:31:04.985Z</time>
      </trkpt>
      <trkpt lat="47.535449" lon="8.152960">
        <ele>641.526087</ele>
        <time>2022-03-19T13:31:11.984Z</time>
      </trkpt>
      <trkpt lat="47.535518" lon="8.152867">
        <ele>641.614813</ele>
        <time>2022-03-19T13:31:20.867Z</time>
      </trkpt>
      <trkpt lat="47.535568" lon="8.152733">
        <ele>641.713121</ele>
        <time>2022-03-19T13:31:26.977Z</time>
      </trkpt>
      <trkpt lat="47.535621" lon="8.152613">
        <ele>641.805197</ele>
        <time>2022-03-19T13:31:34.023Z</time>
      </trkpt>
      <trkpt lat="47.535654" lon="8.152487">
        <ele>641.891976</ele>
        <time>2022-03-19T13:31:40.981Z</time>
      </trkpt>
      <trkpt lat="47.535723" lon="8.152399">
        <ele>641.978574</ele>
        <time>2022-03-19T13:31:47.982Z</time>
      </trkpt>
      <trkpt lat="47.535770" lon="8.152265">
        <ele>642.075534</ele>
        <time>2022-03-19T13:31:54.984Z</time>
      </trkpt>
      <trkpt lat="47.535820" lon="8.152144">
        <ele>642.166626</ele>
        <time>2022-03-19T13:32:00.975Z</time>
      </trkpt>
      <trkpt lat="47.535877" lon="8.152036">
        <ele>642.254647</ele>
        <time>2022-03-19T13:32:10.000Z</time>
      </trkpt>
      <trkpt lat="47.535943" lon="8.151899">
        <ele>641.738356</ele>
        <time>2022-03-19T13:32:16.980Z</time>
      </trkpt>
      <trkpt lat="47.535980" lon="8.151776">
        <ele>641.183438</ele>
        <time>2022-03-19T13:32:24.985Z</time>
      </trkpt>
      <trkpt lat="47.536017" lon="8.151641">
        <ele>640.583013</ele>
        <time>2022-03-19T13:32:30.993Z</time>
      </trkpt>
      <trkpt lat="47.536080" lon="8.151536">
        <ele>640.004126</ele>
        <time>2022-03-19T13:32:37.975Z</time>
      </trkpt>
      <trkpt lat="47.536116" lon="8.151395">
        <ele>639.382907</ele>
        <time>2022-03-19T13:32:43.979Z</time>
      </trkpt>
      <trkpt lat="47.536168" lon="8.151267">
        <ele>638.767289</ele>
        <time>2022-03-19T13:32:49.974Z</time>
      </trkpt>
      <trkpt lat="47.536189" lon="8.151123">
        <ele>638.160185</ele>
        <time>2022-03-19T13:32:56.978Z</time>
      </trkpt>
      <trkpt lat="47.536190" lon="8.150988">
        <ele>637.603823</ele>
        <time>2022-03-19T13:33:01.984Z</time>
      </trkpt>
      <trkpt lat="47.536202" lon="8.150838">
        <ele>636.981355</ele>
        <time>2022-03-19T13:33:09.987Z</time>
      </trkpt>
      <trkpt lat="47.536293" lon="8.150870">
        <ele>636.410453</ele>
        <time>2022-03-19T13:33:19.984Z</time>
      </trkpt>
      <trkpt lat="47.536356" lon="8.150988">
        <ele>635.790501</ele>
        <time>2022-03-19T13:33:28.985Z</time>
      </trkpt>
      <trkpt lat="47.536428" lon="8.151067">
        <ele>635.243569</ele>
        <time>2022-03-19T13:33:34.979Z</time>
      </trkpt>
      <trkpt lat="47.536506" lon="8.151137">
        <ele>634.686888</ele>
        <time>2022-03-19T13:33:41.982Z</time>
      </trkpt>
      <trkpt lat="47.536578" lon="8.151224">
        <ele>634.119714</ele>
        <time>2022-03-19T13:33:49.983Z</time>
      </trkpt>
      <trkpt lat="47.536654" lon="8.151321">
        <ele>633.507350</ele>
        <time>2022-03-19T13:33:56.984Z</time>
      </trkpt>
      <trkpt lat="47.536744" lon="8.151384">
        <ele>632.899734</ele>
        <time>2022-03-19T13:34:03.990Z</time>
      </trkpt>
      <trkpt lat="47.536826" lon="8.151450">
        <ele>632.330085</ele>
        <time>2022-03-19T13:34:11.979Z</time>
      </trkpt>
      <trkpt lat="47.536911" lon="8.151507">
        <ele>631.760551</ele>
        <time>2022-03-19T13:34:18.990Z</time>
      </trkpt>
      <trkpt lat="47.537003" lon="8.151552">
        <ele>631.460286</ele>
        <time>2022-03-19T13:34:25.976Z</time>
      </trkpt>
      <trkpt lat="47.537087" lon="8.151602">
        <ele>632.140591</ele>
        <time>2022-03-19T13:34:32.990Z</time>
      </trkpt>
      <trkpt lat="47.537177" lon="8.151658">
        <ele>632.874173</ele>
        <time>2022-03-19T13:34:39.983Z</time>
      </trkpt>
      <trkpt lat="47.537272" lon="8.151706">
        <ele>633.628470</ele>
        <time>2022-03-19T13:34:46.980Z</time>
      </trkpt>
      <trkpt lat="47.537369" lon="8.151704">
        <ele>634.357477</ele>
        <time>2022-03-19T13:34:54.991Z</time>
      </trkpt>
      <trkpt lat="47.537456" lon="8.151646">
        <ele>635.074431</ele>
        <time>2022-03-19T13:35:01.997Z</time>
      </trkpt>
      <trkpt lat="47.537529" lon="8.151540">
        <ele>635.842635</ele>
        <time>2022-03-19T13:35:09.985Z</time>
      </trkpt>
      <trkpt lat="47.537616" lon="8.151478">
        <ele>636.568153</ele>
        <time>2022-03-19T13:35:17.998Z</time>
      </trkpt>
      <trkpt lat="47.537723" lon="8.151456">
        <ele>637.379946</ele>
        <time>2022-03-19T13:35:23.986Z</time>
      </trkpt>
      <trkpt lat="47.537819" lon="8.151428">
        <ele>638.115220</ele>
        <time>2022-03-19T13:35:33.988Z</time>
      </trkpt>
      <trkpt lat="47.537917" lon="8.151429">
        <ele>638.851688</ele>
        <time>2022-03-19T13:35:41.076Z</time>
      </trkpt>
      <trkpt lat="47.538016" lon="8.151448">
        <ele>639.601873</ele>
        <time>2022-03-19T13:35:57.981Z</time>
      </trkpt>
      <trkpt lat="47.538111" lon="8.151496">
        <ele>640.356168</ele>
        <time>2022-03-19T13:36:03.978Z</time>
      </trkpt>
      <trkpt lat="47.538200" lon="8.151561">
        <ele>641.101862</ele>
        <time>2022-03-19T13:36:09.983Z</time>
      </trkpt>
      <trkpt lat="47.538278" lon="8.151656">
        <ele>641.860716</ele>
        <time>2022-03-19T13:36:15.994Z</time>
      </trkpt>
      <trkpt lat="47.538320" lon="8.151777">
        <ele>642.550964</ele>
        <time>2022-03-19T13:36:24.013Z</time>
      </trkpt>
      <trkpt lat="47.538369" lon="8.151912">
        <ele>643.328560</ele>
        <time>2022-03-19T13:36:30.994Z</time>
      </trkpt>
      <trkpt lat="47.538439" lon="8.152004">
        <ele>644.031807</ele>
        <time>2022-03-19T13:36:40.009Z</time>
      </trkpt>
      <trkpt lat="47.538511" lon="8.152092">
        <ele>644.733279</ele>
        <time>2022-03-19T13:36:47.015Z</time>
      </trkpt>
      <trkpt lat="47.538607" lon="8.152161">
        <ele>645.610911</ele>
        <time>2022-03-19T13:36:54.986Z</time>
      </trkpt>
      <trkpt lat="47.538701" lon="8.152191">
        <ele>646.409655</ele>
        <time>2022-03-19T13:37:02.983Z</time>
      </trkpt>
      <trkpt lat="47.538806" lon="8.152217">
        <ele>647.293957</ele>
        <time>2022-03-19T13:37:09.999Z</time>
      </trkpt>
      <trkpt lat="47.538897" lon="8.152214">
        <ele>648.050050</ele>
        <time>2022-03-19T13:37:15.991Z</time>
      </trkpt>
      <trkpt lat="47.538992" lon="8.152203">
        <ele>648.841590</ele>
        <time>2022-03-19T13:37:23.969Z</time>
      </trkpt>
      <trkpt lat="47.539083" lon="8.152187">
        <ele>649.602803</ele>
        <time>2022-03-19T13:37:31.987Z</time>
      </trkpt>
      <trkpt lat="47.539174" lon="8.152137">
        <ele>650.409035</ele>
        <time>2022-03-19T13:37:39.983Z</time>
      </trkpt>
      <trkpt lat="47.539260" lon="8.152090">
        <ele>651.170477</ele>
        <time>2022-03-19T13:37:46.990Z</time>
      </trkpt>
      <trkpt lat="47.539351" lon="8.152058">
        <ele>651.947391</ele>
        <time>2022-03-19T13:37:53.973Z</time>
      </trkpt>
      <trkpt lat="47.539439" lon="8.152005">
        <ele>652.736487</ele>
        <time>2022-03-19T13:38:01.972Z</time>
      </trkpt>
      <trkpt lat="47.539520" lon="8.151947">
        <ele>653.483814</ele>
        <time>2022-03-19T13:38:08.985Z</time>
      </trkpt>
      <trkpt lat="47.539606" lon="8.151866">
        <ele>654.330363</ele>
        <time>2022-03-19T13:38:16.995Z</time>
      </trkpt>
      <trkpt lat="47.539683" lon="8.151773">
        <ele>655.155639</ele>
        <time>2022-03-19T13:38:26.032Z</time>
      </trkpt>
      <trkpt lat="47.539757" lon="8.151690">
        <ele>655.926663</ele>
        <time>2022-03-19T13:38:32.990Z</time>
      </trkpt>
      <trkpt lat="47.539827" lon="8.151601">
        <ele>656.692942</ele>
        <time>2022-03-19T13:38:39.975Z</time>
      </trkpt>
      <trkpt lat="47.539909" lon="8.151527">
        <ele>657.490536</ele>
        <time>2022-03-19T13:38:47.991Z</time>
      </trkpt>
      <trkpt lat="47.539980" lon="8.151443">
        <ele>658.245329</ele>
        <time>2022-03-19T13:38:55.978Z</time>
      </trkpt>
      <trkpt lat="47.540070" lon="8.151379">
        <ele>659.074609</ele>
        <time>2022-03-19T13:39:03.988Z</time>
      </trkpt>
      <trkpt lat="47.540158" lon="8.151343">
        <ele>659.856311</ele>
        <time>2022-03-19T13:39:09.985Z</time>
      </trkpt>
      <trkpt lat="47.540247" lon="8.151259">
        <ele>661.001766</ele>
        <time>2022-03-19T13:39:17.981Z</time>
      </trkpt>
      <trkpt lat="47.540330" lon="8.151205">
        <ele>661.985737</ele>
        <time>2022-03-19T13:39:25.078Z</time>
      </trkpt>
      <trkpt lat="47.540424" lon="8.151162">
        <ele>663.053584</ele>
        <time>2022-03-19T13:39:30.999Z</time>
      </trkpt>
      <trkpt lat="47.540510" lon="8.151101">
        <ele>664.088548</ele>
        <time>2022-03-19T13:39:37.992Z</time>
      </trkpt>
      <trkpt lat="47.540605" lon="8.151056">
        <ele>665.171144</ele>
        <time>2022-03-19T13:39:45.983Z</time>
      </trkpt>
      <trkpt lat="47.540695" lon="8.151009">
        <ele>666.206959</ele>
        <time>2022-03-19T13:39:53.015Z</time>
      </trkpt>
      <trkpt lat="47.540791" lon="8.150962">
        <ele>667.304408</ele>
        <time>2022-03-19T13:39:59.985Z</time>
      </trkpt>
      <trkpt lat="47.540885" lon="8.150920">
        <ele>668.370115</ele>
        <time>2022-03-19T13:40:07.984Z</time>
      </trkpt>
      <trkpt lat="47.540971" lon="8.150877">
        <ele>669.355326</ele>
        <time>2022-03-19T13:40:15.984Z</time>
      </trkpt>
      <trkpt lat="47.541072" lon="8.150843">
        <ele>670.479562</ele>
        <time>2022-03-19T13:40:23.979Z</time>
      </trkpt>
      <trkpt lat="47.541160" lon="8.150785">
        <ele>671.525018</ele>
        <time>2022-03-19T13:40:31.987Z</time>
      </trkpt>
      <trkpt lat="47.541257" lon="8.150739">
        <ele>672.630521</ele>
        <time>2022-03-19T13:40:39.978Z</time>
      </trkpt>
      <trkpt lat="47.541347" lon="8.150713">
        <ele>673.625812</ele>
        <time>2022-03-19T13:40:47.983Z</time>
      </trkpt>
      <trkpt lat="47.541436" lon="8.150664">
        <ele>674.656408</ele>
        <time>2022-03-19T13:40:54.983Z</time>
      </trkpt>
      <trkpt lat="47.541527" lon="8.150648">
        <ele>675.651083</ele>
        <time>2022-03-19T13:41:02.983Z</time>
      </trkpt>
      <trkpt lat="47.541617" lon="8.150616">
        <ele>676.655716</ele>
        <time>2022-03-19T13:41:12.282Z</time>
      </trkpt>
      <trkpt lat="47.541716" lon="8.150582">
        <ele>677.758793</ele>
        <time>2022-03-19T13:41:21.254Z</time>
      </trkpt>
      <trkpt lat="47.541808" lon="8.150535">
        <ele>678.815103</ele>
        <time>2022-03-19T13:41:30.217Z</time>
      </trkpt>
      <trkpt lat="47.541894" lon="8.150455">
        <ele>679.530149</ele>
        <time>2022-03-19T13:41:36.258Z</time>
      </trkpt>
      <trkpt lat="47.541986" lon="8.150407">
        <ele>679.945830</ele>
        <time>2022-03-19T13:41:43.241Z</time>
      </trkpt>
      <trkpt lat="47.542065" lon="8.150339">
        <ele>680.335210</ele>
        <time>2022-03-19T13:41:49.228Z</time>
      </trkpt>
      <trkpt lat="47.542133" lon="8.150249">
        <ele>680.723820</ele>
        <time>2022-03-19T13:41:56.258Z</time>
      </trkpt>
      <trkpt lat="47.542207" lon="8.150151">
        <ele>681.146832</ele>
        <time>2022-03-19T13:42:02.262Z</time>
      </trkpt>
      <trkpt lat="47.542289" lon="8.150095">
        <ele>681.531636</ele>
        <time>2022-03-19T13:42:08.262Z</time>
      </trkpt>
      <trkpt lat="47.542384" lon="8.150051">
        <ele>681.955821</ele>
        <time>2022-03-19T13:42:16.229Z</time>
      </trkpt>
      <trkpt lat="47.542479" lon="8.149976">
        <ele>682.414585</ele>
        <time>2022-03-19T13:42:23.261Z</time>
      </trkpt>
      <trkpt lat="47.542568" lon="8.149927">
        <ele>682.819222</ele>
        <time>2022-03-19T13:42:30.226Z</time>
      </trkpt>
      <trkpt lat="47.542663" lon="8.149872">
        <ele>683.253900</ele>
        <time>2022-03-19T13:42:37.213Z</time>
      </trkpt>
      <trkpt lat="47.542761" lon="8.149842">
        <ele>683.680368</ele>
        <time>2022-03-19T13:42:46.720Z</time>
      </trkpt>
      <trkpt lat="47.542864" lon="8.149784">
        <ele>684.149964</ele>
        <time>2022-03-19T13:42:52.224Z</time>
      </trkpt>
      <trkpt lat="47.542944" lon="8.149722">
        <ele>684.534734</ele>
        <time>2022-03-19T13:42:59.220Z</time>
      </trkpt>
      <trkpt lat="47.543034" lon="8.149702">
        <ele>684.922576</ele>
        <time>2022-03-19T13:43:06.228Z</time>
      </trkpt>
      <trkpt lat="47.543123" lon="8.149663">
        <ele>685.318111</ele>
        <time>2022-03-19T13:43:14.263Z</time>
      </trkpt>
      <trkpt lat="47.543216" lon="8.149622">
        <ele>685.731625</ele>
        <time>2022-03-19T13:43:23.517Z</time>
      </trkpt>
      <trkpt lat="47.543302" lon="8.149570">
        <ele>686.127482</ele>
        <time>2022-03-19T13:43:31.240Z</time>
      </trkpt>
      <trkpt lat="47.543394" lon="8.149539">
        <ele>686.529571</ele>
        <time>2022-03-19T13:43:39.320Z</time>
      </trkpt>
      <trkpt lat="47.543487" lon="8.149515">
        <ele>686.931875</ele>
        <time>2022-03-19T13:43:47.237Z</time>
      </trkpt>
      <trkpt lat="47.543582" lon="8.149533">
        <ele>687.465168</ele>
        <time>2022-03-19T13:43:56.229Z</time>
      </trkpt>
      <trkpt lat="47.543657" lon="8.149626">
        <ele>688.014048</ele>
        <time>2022-03-19T13:44:04.220Z</time>
      </trkpt>
      <trkpt lat="47.543751" lon="8.149647">
        <ele>688.547533</ele>
        <time>2022-03-19T13:44:12.222Z</time>
      </trkpt>
      <trkpt lat="47.543844" lon="8.149621">
        <ele>689.078654</ele>
        <time>2022-03-19T13:44:21.225Z</time>
      </trkpt>
      <trkpt lat="47.543942" lon="8.149605">
        <ele>689.631952</ele>
        <time>2022-03-19T13:44:29.214Z</time>
      </trkpt>
      <trkpt lat="47.544036" lon="8.149581">
        <ele>690.167250</ele>
        <time>2022-03-19T13:44:38.265Z</time>
      </trkpt>
      <trkpt lat="47.544130" lon="8.149539">
        <ele>690.718241</ele>
        <time>2022-03-19T13:44:46.229Z</time>
      </trkpt>
      <trkpt lat="47.544233" lon="8.149514">
        <ele>691.303976</ele>
        <time>2022-03-19T13:44:52.216Z</time>
      </trkpt>
      <trkpt lat="47.544324" lon="8.149483">
        <ele>691.827989</ele>
        <time>2022-03-19T13:45:00.240Z</time>
      </trkpt>
      <trkpt lat="47.544422" lon="8.149437">
        <ele>692.404903</ele>
        <time>2022-03-19T13:45:08.226Z</time>
      </trkpt>
      <trkpt lat="47.544509" lon="8.149396">
        <ele>692.917248</ele>
        <time>2022-03-19T13:45:15.263Z</time>
      </trkpt>
      <trkpt lat="47.544598" lon="8.149381">
        <ele>693.419931</ele>
        <time>2022-03-19T13:45:23.236Z</time>
      </trkpt>
      <trkpt lat="47.544693" lon="8.149382">
        <ele>693.953077</ele>
        <time>2022-03-19T13:45:32.221Z</time>
      </trkpt>
      <trkpt lat="47.544795" lon="8.149361">
        <ele>694.530994</ele>
        <time>2022-03-19T13:45:39.215Z</time>
      </trkpt>
      <trkpt lat="47.544883" lon="8.149332">
        <ele>695.036914</ele>
        <time>2022-03-19T13:45:46.257Z</time>
      </trkpt>
      <trkpt lat="47.544979" lon="8.149284">
        <ele>695.605515</ele>
        <time>2022-03-19T13:45:54.218Z</time>
      </trkpt>
      <trkpt lat="47.545070" lon="8.149247">
        <ele>696.135084</ele>
        <time>2022-03-19T13:46:03.239Z</time>
      </trkpt>
      <trkpt lat="47.545164" lon="8.149213">
        <ele>696.678100</ele>
        <time>2022-03-19T13:46:13.227Z</time>
      </trkpt>
      <trkpt lat="47.545254" lon="8.149150">
        <ele>696.338045</ele>
        <time>2022-03-19T13:46:20.234Z</time>
      </trkpt>
      <trkpt lat="47.545332" lon="8.149068">
        <ele>694.436182</ele>
        <time>2022-03-19T13:46:30.273Z</time>
      </trkpt>
      <trkpt lat="47.545359" lon="8.149037">
        <ele>693.756926</ele>
        <time>2022-03-19T13:46:44.496Z</time>
      </trkpt>
      <trkpt lat="47.545357" lon="8.149192">
        <ele>691.676068</ele>
        <time>2022-03-19T14:27:21.844Z</time>
      </trkpt>
      <trkpt lat="47.545480" lon="8.149188">
        <ele>689.229636</ele>
        <time>2022-03-19T14:27:25.845Z</time>
      </trkpt>
      <trkpt lat="47.545400" lon="8.149269">
        <ele>687.302811</ele>
        <time>2022-03-19T14:27:38.218Z</time>
      </trkpt>
      <trkpt lat="47.545494" lon="8.149284">
        <ele>685.422818</ele>
        <time>2022-03-19T14:27:50.216Z</time>
      </trkpt>
      <trkpt lat="47.545580" lon="8.149231">
        <ele>683.570652</ele>
        <time>2022-03-19T14:28:06.225Z</time>
      </trkpt>
      <trkpt lat="47.545668" lon="8.149196">
        <ele>681.758817</ele>
        <time>2022-03-19T14:28:19.227Z</time>
      </trkpt>
      <trkpt lat="47.545740" lon="8.149114">
        <ele>679.952940</ele>
        <time>2022-03-19T14:28:38.220Z</time>
      </trkpt>
      <trkpt lat="47.545783" lon="8.148993">
        <ele>678.117505</ele>
        <time>2022-03-19T14:28:47.215Z</time>
      </trkpt>
      <trkpt lat="47.545868" lon="8.148920">
        <ele>676.163817</ele>
        <time>2022-03-19T14:29:03.220Z</time>
      </trkpt>
      <trkpt lat="47.545947" lon="8.148844">
        <ele>674.290760</ele>
        <time>2022-03-19T14:29:12.220Z</time>
      </trkpt>
      <trkpt lat="47.546018" lon="8.148750">
        <ele>672.397316</ele>
        <time>2022-03-19T14:29:23.231Z</time>
      </trkpt>
      <trkpt lat="47.546088" lon="8.148658">
        <ele>670.536576</ele>
        <time>2022-03-19T14:29:33.255Z</time>
      </trkpt>
      <trkpt lat="47.546131" lon="8.148540">
        <ele>668.736684</ele>
        <time>2022-03-19T14:29:49.230Z</time>
      </trkpt>
      <trkpt lat="47.546179" lon="8.148422">
        <ele>666.887490</ele>
        <time>2022-03-19T14:30:05.221Z</time>
      </trkpt>
      <trkpt lat="47.546189" lon="8.148287">
        <ele>665.064611</ele>
        <time>2022-03-19T14:30:19.219Z</time>
      </trkpt>
      <trkpt lat="47.546155" lon="8.148157">
        <ele>663.193320</ele>
        <time>2022-03-19T14:30:52.223Z</time>
      </trkpt>
      <trkpt lat="47.546099" lon="8.148048">
        <ele>661.354722</ele>
        <time>2022-03-19T14:30:58.211Z</time>
      </trkpt>
      <trkpt lat="47.546049" lon="8.147923">
        <ele>659.359012</ele>
        <time>2022-03-19T14:31:07.219Z</time>
      </trkpt>
      <trkpt lat="47.546025" lon="8.147793">
        <ele>657.506023</ele>
        <time>2022-03-19T14:31:19.220Z</time>
      </trkpt>
      <trkpt lat="47.545986" lon="8.147664">
        <ele>655.562655</ele>
        <time>2022-03-19T14:31:31.222Z</time>
      </trkpt>
      <trkpt lat="47.546075" lon="8.147621">
        <ele>653.655877</ele>
        <time>2022-03-19T14:31:47.229Z</time>
      </trkpt>
      <trkpt lat="47.545999" lon="8.147530">
        <ele>651.665472</ele>
        <time>2022-03-19T14:32:10.213Z</time>
      </trkpt>
      <trkpt lat="47.545962" lon="8.147408">
        <ele>649.826588</ele>
        <time>2022-03-19T14:32:18.224Z</time>
      </trkpt>
      <trkpt lat="47.545911" lon="8.147285">
        <ele>647.841910</ele>
        <time>2022-03-19T14:32:30.246Z</time>
      </trkpt>
      <trkpt lat="47.545824" lon="8.147228">
        <ele>645.904281</ele>
        <time>2022-03-19T14:32:40.246Z</time>
      </trkpt>
      <trkpt lat="47.545743" lon="8.147149">
        <ele>643.928986</ele>
        <time>2022-03-19T14:32:50.224Z</time>
      </trkpt>
      <trkpt lat="47.545682" lon="8.147031">
        <ele>641.885495</ele>
        <time>2022-03-19T14:32:59.212Z</time>
      </trkpt>
      <trkpt lat="47.545596" lon="8.146986">
        <ele>640.027738</ele>
        <time>2022-03-19T14:33:09.484Z</time>
      </trkpt>
      <trkpt lat="47.545501" lon="8.146901">
        <ele>637.767190</ele>
        <time>2022-03-19T14:33:15.214Z</time>
      </trkpt>
      <trkpt lat="47.545412" lon="8.146849">
        <ele>635.818490</ele>
        <time>2022-03-19T14:33:24.265Z</time>
      </trkpt>
      <trkpt lat="47.545313" lon="8.146813">
        <ele>633.742134</ele>
        <time>2022-03-19T14:33:32.217Z</time>
      </trkpt>
      <trkpt lat="47.545216" lon="8.146805">
        <ele>631.763315</ele>
        <time>2022-03-19T14:33:39.229Z</time>
      </trkpt>
      <trkpt lat="47.545106" lon="8.146794">
        <ele>629.517663</ele>
        <time>2022-03-19T14:33:45.250Z</time>
      </trkpt>
      <trkpt lat="47.545018" lon="8.146818">
        <ele>627.695100</ele>
        <time>2022-03-19T14:33:53.252Z</time>
      </trkpt>
      <trkpt lat="47.544922" lon="8.146848">
        <ele>625.696678</ele>
        <time>2022-03-19T14:33:59.224Z</time>
      </trkpt>
      <trkpt lat="47.544831" lon="8.146875">
        <ele>624.212939</ele>
        <time>2022-03-19T14:34:09.218Z</time>
      </trkpt>
      <trkpt lat="47.544738" lon="8.146872">
        <ele>623.245551</ele>
        <time>2022-03-19T14:34:14.221Z</time>
      </trkpt>
      <trkpt lat="47.544650" lon="8.146908">
        <ele>622.296139</ele>
        <time>2022-03-19T14:34:22.224Z</time>
      </trkpt>
      <trkpt lat="47.544551" lon="8.146914">
        <ele>621.265723</ele>
        <time>2022-03-19T14:34:27.216Z</time>
      </trkpt>
      <trkpt lat="47.544455" lon="8.146893">
        <ele>620.256541</ele>
        <time>2022-03-19T14:34:35.236Z</time>
      </trkpt>
      <trkpt lat="47.544364" lon="8.146907">
        <ele>619.305092</ele>
        <time>2022-03-19T14:34:43.250Z</time>
      </trkpt>
      <trkpt lat="47.544274" lon="8.146950">
        <ele>618.321661</ele>
        <time>2022-03-19T14:34:50.212Z</time>
      </trkpt>
      <trkpt lat="47.544169" lon="8.146973">
        <ele>617.217836</ele>
        <time>2022-03-19T14:34:59.221Z</time>
      </trkpt>
      <trkpt lat="47.544069" lon="8.146982">
        <ele>616.175963</ele>
        <time>2022-03-19T14:35:08.260Z</time>
      </trkpt>
      <trkpt lat="47.543977" lon="8.147056">
        <ele>615.087275</ele>
        <time>2022-03-19T14:35:13.218Z</time>
      </trkpt>
      <trkpt lat="47.543872" lon="8.147060">
        <ele>613.994961</ele>
        <time>2022-03-19T14:35:22.212Z</time>
      </trkpt>
      <trkpt lat="47.543774" lon="8.147095">
        <ele>612.946607</ele>
        <time>2022-03-19T14:35:26.231Z</time>
      </trkpt>
      <trkpt lat="47.543677" lon="8.147172">
        <ele>611.802155</ele>
        <time>2022-03-19T14:35:36.240Z</time>
      </trkpt>
      <trkpt lat="47.543585" lon="8.147223">
        <ele>610.780604</ele>
        <time>2022-03-19T14:35:43.228Z</time>
      </trkpt>
      <trkpt lat="47.543487" lon="8.147287">
        <ele>609.666813</ele>
        <time>2022-03-19T14:35:54.219Z</time>
      </trkpt>
      <trkpt lat="47.543390" lon="8.147301">
        <ele>608.653280</ele>
        <time>2022-03-19T14:35:59.221Z</time>
      </trkpt>
      <trkpt lat="47.543299" lon="8.147286">
        <ele>607.701081</ele>
        <time>2022-03-19T14:36:03.238Z</time>
      </trkpt>
      <trkpt lat="47.543206" lon="8.147290">
        <ele>606.733515</ele>
        <time>2022-03-19T14:36:12.227Z</time>
      </trkpt>
      <trkpt lat="47.543106" lon="8.147292">
        <ele>605.757847</ele>
        <time>2022-03-19T14:36:17.215Z</time>
      </trkpt>
      <trkpt lat="47.543014" lon="8.147324">
        <ele>605.040293</ele>
        <time>2022-03-19T14:36:26.216Z</time>
      </trkpt>
      <trkpt lat="47.542929" lon="8.147390">
        <ele>604.311604</ele>
        <time>2022-03-19T14:36:33.212Z</time>
      </trkpt>
      <trkpt lat="47.542831" lon="8.147371">
        <ele>603.561142</ele>
        <time>2022-03-19T14:36:39.213Z</time>
      </trkpt>
      <trkpt lat="47.542738" lon="8.147404">
        <ele>602.835017</ele>
        <time>2022-03-19T14:36:50.210Z</time>
      </trkpt>
      <trkpt lat="47.542642" lon="8.147395">
        <ele>602.104629</ele>
        <time>2022-03-19T14:36:55.221Z</time>
      </trkpt>
      <trkpt lat="47.542550" lon="8.147353">
        <ele>601.373652</ele>
        <time>2022-03-19T14:36:59.229Z</time>
      </trkpt>
      <trkpt lat="47.542533" lon="8.147202">
        <ele>600.588995</ele>
        <time>2022-03-19T14:37:04.218Z</time>
      </trkpt>
      <trkpt lat="47.542624" lon="8.147158">
        <ele>599.862156</ele>
        <time>2022-03-19T14:37:10.213Z</time>
      </trkpt>
      <trkpt lat="47.542731" lon="8.147129">
        <ele>599.036218</ele>
        <time>2022-03-19T14:37:17.220Z</time>
      </trkpt>
      <trkpt lat="47.542832" lon="8.147086">
        <ele>598.238281</ele>
        <time>2022-03-19T14:37:28.232Z</time>
      </trkpt>
      <trkpt lat="47.542924" lon="8.147026">
        <ele>597.475024</ele>
        <time>2022-03-19T14:37:36.230Z</time>
      </trkpt>
      <trkpt lat="47.543007" lon="8.146965">
        <ele>596.771509</ele>
        <time>2022-03-19T14:37:41.208Z</time>
      </trkpt>
      <trkpt lat="47.543094" lon="8.146902">
        <ele>596.036218</ele>
        <time>2022-03-19T14:37:51.228Z</time>
      </trkpt>
      <trkpt lat="47.543184" lon="8.146836">
        <ele>595.273699</ele>
        <time>2022-03-19T14:38:00.224Z</time>
      </trkpt>
      <trkpt lat="47.543270" lon="8.146751">
        <ele>594.488704</ele>
        <time>2022-03-19T14:38:05.211Z</time>
      </trkpt>
      <trkpt lat="47.543351" lon="8.146675">
        <ele>593.760686</ele>
        <time>2022-03-19T14:38:14.265Z</time>
      </trkpt>
      <trkpt lat="47.543426" lon="8.146596">
        <ele>593.061930</ele>
        <time>2022-03-19T14:38:19.253Z</time>
      </trkpt>
      <trkpt lat="47.543512" lon="8.146533">
        <ele>592.333453</ele>
        <time>2022-03-19T14:38:28.231Z</time>
      </trkpt>
      <trkpt lat="47.543600" lon="8.146491">
        <ele>591.718879</ele>
        <time>2022-03-19T14:38:37.215Z</time>
      </trkpt>
      <trkpt lat="47.543682" lon="8.146432">
        <ele>591.120752</ele>
        <time>2022-03-19T14:38:46.232Z</time>
      </trkpt>
      <trkpt lat="47.543782" lon="8.146383">
        <ele>590.429663</ele>
        <time>2022-03-19T14:38:53.222Z</time>
      </trkpt>
      <trkpt lat="47.543857" lon="8.146308">
        <ele>589.835946</ele>
        <time>2022-03-19T14:39:00.228Z</time>
      </trkpt>
      <trkpt lat="47.543937" lon="8.146243">
        <ele>589.237279</ele>
        <time>2022-03-19T14:39:06.218Z</time>
      </trkpt>
      <trkpt lat="47.544019" lon="8.146148">
        <ele>588.554265</ele>
        <time>2022-03-19T14:39:14.229Z</time>
      </trkpt>
      <trkpt lat="47.544112" lon="8.146102">
        <ele>587.910953</ele>
        <time>2022-03-19T14:39:20.221Z</time>
      </trkpt>
      <trkpt lat="47.544164" lon="8.145977">
        <ele>587.260637</ele>
        <time>2022-03-19T14:39:29.250Z</time>
      </trkpt>
      <trkpt lat="47.544251" lon="8.145896">
        <ele>586.586434</ele>
        <time>2022-03-19T14:39:37.225Z</time>
      </trkpt>
      <trkpt lat="47.544329" lon="8.145805">
        <ele>585.935006</ele>
        <time>2022-03-19T14:39:43.223Z</time>
      </trkpt>
      <trkpt lat="47.544411" lon="8.145747">
        <ele>585.338802</ele>
        <time>2022-03-19T14:39:52.309Z</time>
      </trkpt>
      <trkpt lat="47.544487" lon="8.145666">
        <ele>584.724506</ele>
        <time>2022-03-19T14:39:58.222Z</time>
      </trkpt>
      <trkpt lat="47.544558" lon="8.145564">
        <ele>584.075584</ele>
        <time>2022-03-19T14:40:07.280Z</time>
      </trkpt>
      <trkpt lat="47.544654" lon="8.145520">
        <ele>583.416244</ele>
        <time>2022-03-19T14:40:13.231Z</time>
      </trkpt>
      <trkpt lat="47.544751" lon="8.145474">
        <ele>582.747986</ele>
        <time>2022-03-19T14:40:21.224Z</time>
      </trkpt>
      <trkpt lat="47.544828" lon="8.145388">
        <ele>582.115275</ele>
        <time>2022-03-19T14:40:28.229Z</time>
      </trkpt>
      <trkpt lat="47.544891" lon="8.145273">
        <ele>581.459315</ele>
        <time>2022-03-19T14:40:36.260Z</time>
      </trkpt>
      <trkpt lat="47.544981" lon="8.145255">
        <ele>580.863443</ele>
        <time>2022-03-19T14:40:42.222Z</time>
      </trkpt>
      <trkpt lat="47.545071" lon="8.145279">
        <ele>580.786889</ele>
        <time>2022-03-19T14:40:50.211Z</time>
      </trkpt>
      <trkpt lat="47.545170" lon="8.145298">
        <ele>581.764085</ele>
        <time>2022-03-19T14:40:57.226Z</time>
      </trkpt>
      <trkpt lat="47.545295" lon="8.145342">
        <ele>583.021760</ele>
        <time>2022-03-19T14:41:06.795Z</time>
      </trkpt>
      <trkpt lat="47.545384" lon="8.145369">
        <ele>583.911049</ele>
        <time>2022-03-19T14:41:14.222Z</time>
      </trkpt>
      <trkpt lat="47.545477" lon="8.145390">
        <ele>584.831928</ele>
        <time>2022-03-19T14:41:21.224Z</time>
      </trkpt>
      <trkpt lat="47.545579" lon="8.145446">
        <ele>585.896752</ele>
        <time>2022-03-19T14:41:30.222Z</time>
      </trkpt>
      <trkpt lat="47.545659" lon="8.145517">
        <ele>586.809631</ele>
        <time>2022-03-19T14:41:38.220Z</time>
      </trkpt>
      <trkpt lat="47.545759" lon="8.145564">
        <ele>587.836599</ele>
        <time>2022-03-19T14:41:46.207Z</time>
      </trkpt>
      <trkpt lat="47.545834" lon="8.145643">
        <ele>588.737418</ele>
        <time>2022-03-19T14:41:55.229Z</time>
      </trkpt>
      <trkpt lat="47.545912" lon="8.145714">
        <ele>589.633557</ele>
        <time>2022-03-19T14:42:05.231Z</time>
      </trkpt>
      <trkpt lat="47.545997" lon="8.145785">
        <ele>590.588753</ele>
        <time>2022-03-19T14:42:13.252Z</time>
      </trkpt>
      <trkpt lat="47.546082" lon="8.145858">
        <ele>591.550507</ele>
        <time>2022-03-19T14:42:21.210Z</time>
      </trkpt>
      <trkpt lat="47.546180" lon="8.145885">
        <ele>592.526264</ele>
        <time>2022-03-19T14:42:28.222Z</time>
      </trkpt>
      <trkpt lat="47.546271" lon="8.145897">
        <ele>593.420574</ele>
        <time>2022-03-19T14:42:35.222Z</time>
      </trkpt>
      <trkpt lat="47.546368" lon="8.145916">
        <ele>594.378358</ele>
        <time>2022-03-19T14:42:44.217Z</time>
      </trkpt>
      <trkpt lat="47.546461" lon="8.145957">
        <ele>595.328176</ele>
        <time>2022-03-19T14:42:50.209Z</time>
      </trkpt>
      <trkpt lat="47.546561" lon="8.145947">
        <ele>596.309291</ele>
        <time>2022-03-19T14:43:00.212Z</time>
      </trkpt>
      <trkpt lat="47.546654" lon="8.145917">
        <ele>597.240987</ele>
        <time>2022-03-19T14:43:08.218Z</time>
      </trkpt>
      <trkpt lat="47.546752" lon="8.145889">
        <ele>598.007845</ele>
        <time>2022-03-19T14:43:13.248Z</time>
      </trkpt>
      <trkpt lat="47.546853" lon="8.145855">
        <ele>597.475487</ele>
        <time>2022-03-19T14:43:23.223Z</time>
      </trkpt>
      <trkpt lat="47.546946" lon="8.145773">
        <ele>596.919230</ele>
        <time>2022-03-19T14:43:28.218Z</time>
      </trkpt>
      <trkpt lat="47.547034" lon="8.145710">
        <ele>596.416882</ele>
        <time>2022-03-19T14:43:34.248Z</time>
      </trkpt>
      <trkpt lat="47.547124" lon="8.145647">
        <ele>595.905259</ele>
        <time>2022-03-19T14:43:42.255Z</time>
      </trkpt>
      <trkpt lat="47.547211" lon="8.145601">
        <ele>595.430468</ele>
        <time>2022-03-19T14:43:48.216Z</time>
      </trkpt>
      <trkpt lat="47.547291" lon="8.145509">
        <ele>594.909940</ele>
        <time>2022-03-19T14:43:56.230Z</time>
      </trkpt>
      <trkpt lat="47.547379" lon="8.145451">
        <ele>594.414894</ele>
        <time>2022-03-19T14:44:03.208Z</time>
      </trkpt>
      <trkpt lat="47.547474" lon="8.145432">
        <ele>593.922179</ele>
        <time>2022-03-19T14:44:09.331Z</time>
      </trkpt>
      <trkpt lat="47.547572" lon="8.145398">
        <ele>593.404846</ele>
        <time>2022-03-19T14:44:16.224Z</time>
      </trkpt>
      <trkpt lat="47.547662" lon="8.145388">
        <ele>592.940960</ele>
        <time>2022-03-19T14:44:23.220Z</time>
      </trkpt>
      <trkpt lat="47.547744" lon="8.145448">
        <ele>592.470892</ele>
        <time>2022-03-19T14:44:28.223Z</time>
      </trkpt>
      <trkpt lat="47.547837" lon="8.145490">
        <ele>591.971171</ele>
        <time>2022-03-19T14:44:37.220Z</time>
      </trkpt>
      <trkpt lat="47.547920" lon="8.145570">
        <ele>591.462227</ele>
        <time>2022-03-19T14:44:44.223Z</time>
      </trkpt>
      <trkpt lat="47.547999" lon="8.145643">
        <ele>590.983673</ele>
        <time>2022-03-19T14:44:52.222Z</time>
      </trkpt>
      <trkpt lat="47.548084" lon="8.145690">
        <ele>590.517350</ele>
        <time>2022-03-19T14:44:59.220Z</time>
      </trkpt>
      <trkpt lat="47.548174" lon="8.145714">
        <ele>590.047329</ele>
        <time>2022-03-19T14:45:06.227Z</time>
      </trkpt>
      <trkpt lat="47.548251" lon="8.145808">
        <ele>589.534514</ele>
        <time>2022-03-19T14:45:12.220Z</time>
      </trkpt>
      <trkpt lat="47.548330" lon="8.145902">
        <ele>589.013724</ele>
        <time>2022-03-19T14:45:21.257Z</time>
      </trkpt>
      <trkpt lat="47.548386" lon="8.146010">
        <ele>588.516515</ele>
        <time>2022-03-19T14:45:26.221Z</time>
      </trkpt>
      <trkpt lat="47.548440" lon="8.146118">
        <ele>588.011026</ele>
        <time>2022-03-19T14:45:36.229Z</time>
      </trkpt>
      <trkpt lat="47.548483" lon="8.146248">
        <ele>587.466551</ele>
        <time>2022-03-19T14:45:43.221Z</time>
      </trkpt>
      <trkpt lat="47.548514" lon="8.146376">
        <ele>586.955099</ele>
        <time>2022-03-19T14:45:50.247Z</time>
      </trkpt>
      <trkpt lat="47.548528" lon="8.146513">
        <ele>586.433979</ele>
        <time>2022-03-19T14:45:56.258Z</time>
      </trkpt>
      <trkpt lat="47.548530" lon="8.146653">
        <ele>585.907329</ele>
        <time>2022-03-19T14:46:02.207Z</time>
      </trkpt>
      <trkpt lat="47.548540" lon="8.146788">
        <ele>585.396554</ele>
        <time>2022-03-19T14:46:08.340Z</time>
      </trkpt>
      <trkpt lat="47.548564" lon="8.146917">
        <ele>584.893300</ele>
        <time>2022-03-19T14:46:18.210Z</time>
      </trkpt>
      <trkpt lat="47.548564" lon="8.147065">
        <ele>584.336682</ele>
        <time>2022-03-19T14:46:25.225Z</time>
      </trkpt>
      <trkpt lat="47.548549" lon="8.147200">
        <ele>583.822122</ele>
        <time>2022-03-19T14:46:30.214Z</time>
      </trkpt>
      <trkpt lat="47.548538" lon="8.147334">
        <ele>583.314442</ele>
        <time>2022-03-19T14:46:35.230Z</time>
      </trkpt>
      <trkpt lat="47.548515" lon="8.147476">
        <ele>582.765227</ele>
        <time>2022-03-19T14:46:43.232Z</time>
      </trkpt>
      <trkpt lat="47.548488" lon="8.147609">
        <ele>582.242887</ele>
        <time>2022-03-19T14:46:49.286Z</time>
      </trkpt>
      <trkpt lat="47.548443" lon="8.147742">
        <ele>581.683354</ele>
        <time>2022-03-19T14:47:01.224Z</time>
      </trkpt>
      <trkpt lat="47.548412" lon="8.147874">
        <ele>581.157717</ele>
        <time>2022-03-19T14:47:06.209Z</time>
      </trkpt>
      <trkpt lat="47.548367" lon="8.147998">
        <ele>580.628226</ele>
        <time>2022-03-19T14:47:14.244Z</time>
      </trkpt>
      <trkpt lat="47.548308" lon="8.148106">
        <ele>580.105673</ele>
        <time>2022-03-19T14:47:22.211Z</time>
      </trkpt>
      <trkpt lat="47.548250" lon="8.148214">
        <ele>579.586607</ele>
        <time>2022-03-19T14:47:27.221Z</time>
      </trkpt>
      <trkpt lat="47.548223" lon="8.148356">
        <ele>579.031765</ele>
        <time>2022-03-19T14:47:36.220Z</time>
      </trkpt>
      <trkpt lat="47.548202" lon="8.148513">
        <ele>578.106739</ele>
        <time>2022-03-19T14:47:43.220Z</time>
      </trkpt>
      <trkpt lat="47.548180" lon="8.148668">
        <ele>577.009197</ele>
        <time>2022-03-19T14:47:49.221Z</time>
      </trkpt>
      <trkpt lat="47.548172" lon="8.148807">
        <ele>576.042520</ele>
        <time>2022-03-19T14:47:55.223Z</time>
      </trkpt>
      <trkpt lat="47.548191" lon="8.148951">
        <ele>575.025805</ele>
        <time>2022-03-19T14:48:03.226Z</time>
      </trkpt>
      <trkpt lat="47.548178" lon="8.149102">
        <ele>573.970994</ele>
        <time>2022-03-19T14:48:09.230Z</time>
      </trkpt>
      <trkpt lat="47.548175" lon="8.149240">
        <ele>573.014246</ele>
        <time>2022-03-19T14:48:18.224Z</time>
      </trkpt>
      <trkpt lat="47.548169" lon="8.149378">
        <ele>572.056012</ele>
        <time>2022-03-19T14:48:24.213Z</time>
      </trkpt>
      <trkpt lat="47.548140" lon="8.149508">
        <ele>571.107271</ele>
        <time>2022-03-19T14:48:29.251Z</time>
      </trkpt>
      <trkpt lat="47.548115" lon="8.149646">
        <ele>570.117174</ele>
        <time>2022-03-19T14:48:39.217Z</time>
      </trkpt>
      <trkpt lat="47.548068" lon="8.149779">
        <ele>569.076897</ele>
        <time>2022-03-19T14:48:44.250Z</time>
      </trkpt>
      <trkpt lat="47.548019" lon="8.149903">
        <ele>568.081231</ele>
        <time>2022-03-19T14:48:49.223Z</time>
      </trkpt>
      <trkpt lat="47.547977" lon="8.150027">
        <ele>567.119869</ele>
        <time>2022-03-19T14:48:59.258Z</time>
      </trkpt>
      <trkpt lat="47.547938" lon="8.150151">
        <ele>566.171920</ele>
        <time>2022-03-19T14:49:04.219Z</time>
      </trkpt>
      <trkpt lat="47.547900" lon="8.150276">
        <ele>565.221947</ele>
        <time>2022-03-19T14:49:10.246Z</time>
      </trkpt>
      <trkpt lat="47.547884" lon="8.150408">
        <ele>564.292634</ele>
        <time>2022-03-19T14:49:20.219Z</time>
      </trkpt>
      <trkpt lat="47.547976" lon="8.150374">
        <ele>563.319204</ele>
        <time>2022-03-19T14:49:27.221Z</time>
      </trkpt>
      <trkpt lat="47.548051" lon="8.150263">
        <ele>562.230878</ele>
        <time>2022-03-19T14:49:37.246Z</time>
      </trkpt>
      <trkpt lat="47.548128" lon="8.150193">
        <ele>561.303428</ele>
        <time>2022-03-19T14:49:43.219Z</time>
      </trkpt>
      <trkpt lat="47.548189" lon="8.150090">
        <ele>560.353914</ele>
        <time>2022-03-19T14:49:50.219Z</time>
      </trkpt>
      <trkpt lat="47.548254" lon="8.149963">
        <ele>559.252834</ele>
        <time>2022-03-19T14:49:55.255Z</time>
      </trkpt>
      <trkpt lat="47.548333" lon="8.149893">
        <ele>558.310696</ele>
        <time>2022-03-19T14:50:04.227Z</time>
      </trkpt>
      <trkpt lat="47.548431" lon="8.149831">
        <ele>557.220045</ele>
        <time>2022-03-19T14:50:10.229Z</time>
      </trkpt>
      <trkpt lat="47.548520" lon="8.149803">
        <ele>556.288821</ele>
        <time>2022-03-19T14:50:17.248Z</time>
      </trkpt>
      <trkpt lat="47.548610" lon="8.149773">
        <ele>555.344647</ele>
        <time>2022-03-19T14:50:26.250Z</time>
      </trkpt>
      <trkpt lat="47.548695" lon="8.149724">
        <ele>554.411138</ele>
        <time>2022-03-19T14:50:33.214Z</time>
      </trkpt>
      <trkpt lat="47.548776" lon="8.149649">
        <ele>553.433517</ele>
        <time>2022-03-19T14:50:42.210Z</time>
      </trkpt>
      <trkpt lat="47.548839" lon="8.149531">
        <ele>552.394155</ele>
        <time>2022-03-19T14:50:47.217Z</time>
      </trkpt>
      <trkpt lat="47.548916" lon="8.149457">
        <ele>551.454780</ele>
        <time>2022-03-19T14:50:56.223Z</time>
      </trkpt>
      <trkpt lat="47.548988" lon="8.149376">
        <ele>550.529490</ele>
        <time>2022-03-19T14:51:05.230Z</time>
      </trkpt>
      <trkpt lat="47.549079" lon="8.149297">
        <ele>549.449993</ele>
        <time>2022-03-19T14:51:12.219Z</time>
      </trkpt>
      <trkpt lat="47.549170" lon="8.149251">
        <ele>548.465891</ele>
        <time>2022-03-19T14:51:19.220Z</time>
      </trkpt>
      <trkpt lat="47.549266" lon="8.149234">
        <ele>547.476339</ele>
        <time>2022-03-19T14:51:27.220Z</time>
      </trkpt>
      <trkpt lat="47.549350" lon="8.149167">
        <ele>546.499929</ele>
        <time>2022-03-19T14:51:33.222Z</time>
      </trkpt>
      <trkpt lat="47.549430" lon="8.149105">
        <ele>545.575875</ele>
        <time>2022-03-19T14:51:40.219Z</time>
      </trkpt>
      <trkpt lat="47.549526" lon="8.149124">
        <ele>544.584589</ele>
        <time>2022-03-19T14:51:49.223Z</time>
      </trkpt>
      <trkpt lat="47.549617" lon="8.149115">
        <ele>543.651133</ele>
        <time>2022-03-19T14:51:54.226Z</time>
      </trkpt>
      <trkpt lat="47.549709" lon="8.149123">
        <ele>542.707894</ele>
        <time>2022-03-19T14:51:59.221Z</time>
      </trkpt>
      <trkpt lat="47.549799" lon="8.149179">
        <ele>541.816811</ele>
        <time>2022-03-19T14:52:07.213Z</time>
      </trkpt>
      <trkpt lat="47.549890" lon="8.149166">
        <ele>541.320069</ele>
        <time>2022-03-19T14:52:14.217Z</time>
      </trkpt>
      <trkpt lat="47.549987" lon="8.149189">
        <ele>540.786312</ele>
        <time>2022-03-19T14:52:21.308Z</time>
      </trkpt>
      <trkpt lat="47.550079" lon="8.149224">
        <ele>540.270213</ele>
        <time>2022-03-19T14:52:28.254Z</time>
      </trkpt>
      <trkpt lat="47.550172" lon="8.149246">
        <ele>539.758496</ele>
        <time>2022-03-19T14:52:35.211Z</time>
      </trkpt>
      <trkpt lat="47.550274" lon="8.149246">
        <ele>539.204279</ele>
        <time>2022-03-19T14:52:42.208Z</time>
      </trkpt>
      <trkpt lat="47.550370" lon="8.149210">
        <ele>538.666213</ele>
        <time>2022-03-19T14:52:50.226Z</time>
      </trkpt>
      <trkpt lat="47.550466" lon="8.149163">
        <ele>538.116856</ele>
        <time>2022-03-19T14:52:58.244Z</time>
      </trkpt>
      <trkpt lat="47.550562" lon="8.149117">
        <ele>537.568639</ele>
        <time>2022-03-19T14:53:05.214Z</time>
      </trkpt>
      <trkpt lat="47.550654" lon="8.149060">
        <ele>537.026810</ele>
        <time>2022-03-19T14:53:12.215Z</time>
      </trkpt>
      <trkpt lat="47.550740" lon="8.149016">
        <ele>536.532453</ele>
        <time>2022-03-19T14:53:19.261Z</time>
      </trkpt>
      <trkpt lat="47.550829" lon="8.148971">
        <ele>536.021487</ele>
        <time>2022-03-19T14:53:26.228Z</time>
      </trkpt>
      <trkpt lat="47.550926" lon="8.148939">
        <ele>535.481530</ele>
        <time>2022-03-19T14:53:33.225Z</time>
      </trkpt>
      <trkpt lat="47.551019" lon="8.148931">
        <ele>534.975363</ele>
        <time>2022-03-19T14:53:41.209Z</time>
      </trkpt>
      <trkpt lat="47.551110" lon="8.148991">
        <ele>534.434165</ele>
        <time>2022-03-19T14:53:51.259Z</time>
      </trkpt>
      <trkpt lat="47.551207" lon="8.149001">
        <ele>533.905840</ele>
        <time>2022-03-19T14:53:59.217Z</time>
      </trkpt>
      <trkpt lat="47.551285" lon="8.149069">
        <ele>533.414104</ele>
        <time>2022-03-19T14:54:06.252Z</time>
      </trkpt>
      <trkpt lat="47.551361" lon="8.149161">
        <ele>532.880856</ele>
        <time>2022-03-19T14:54:14.259Z</time>
      </trkpt>
      <trkpt lat="47.551451" lon="8.149243">
        <ele>532.306779</ele>
        <time>2022-03-19T14:54:21.222Z</time>
      </trkpt>
      <trkpt lat="47.551538" lon="8.149318">
        <ele>531.708562</ele>
        <time>2022-03-19T14:54:28.256Z</time>
      </trkpt>
      <trkpt lat="47.551622" lon="8.149383">
        <ele>531.128612</ele>
        <time>2022-03-19T14:54:36.253Z</time>
      </trkpt>
      <trkpt lat="47.551719" lon="8.149425">
        <ele>530.510161</ele>
        <time>2022-03-19T14:54:43.260Z</time>
      </trkpt>
      <trkpt lat="47.551791" lon="8.149510">
        <ele>529.946767</ele>
        <time>2022-03-19T14:54:51.225Z</time>
      </trkpt>
      <trkpt lat="47.551874" lon="8.149569">
        <ele>529.383389</ele>
        <time>2022-03-19T14:54:58.231Z</time>
      </trkpt>
      <trkpt lat="47.551951" lon="8.149660">
        <ele>528.780621</ele>
        <time>2022-03-19T14:55:04.220Z</time>
      </trkpt>
      <trkpt lat="47.552049" lon="8.149685">
        <ele>528.172055</ele>
        <time>2022-03-19T14:55:12.218Z</time>
      </trkpt>
      <trkpt lat="47.552144" lon="8.149683">
        <ele>527.590614</ele>
        <time>2022-03-19T14:55:17.209Z</time>
      </trkpt>
      <trkpt lat="47.552238" lon="8.149728">
        <ele>526.986070</ele>
        <time>2022-03-19T14:55:24.231Z</time>
      </trkpt>
      <trkpt lat="47.552345" lon="8.149722">
        <ele>526.330781</ele>
        <time>2022-03-19T14:55:32.246Z</time>
      </trkpt>
      <trkpt lat="47.552442" lon="8.149697">
        <ele>525.728245</ele>
        <time>2022-03-19T14:55:38.219Z</time>
      </trkpt>
      <trkpt lat="47.552523" lon="8.149630">
        <ele>525.160526</ele>
        <time>2022-03-19T14:55:49.222Z</time>
      </trkpt>
      <trkpt lat="47.552608" lon="8.149576">
        <ele>524.594542</ele>
        <time>2022-03-19T14:55:58.228Z</time>
      </trkpt>
      <trkpt lat="47.552694" lon="8.149491">
        <ele>523.961887</ele>
        <time>2022-03-19T14:56:04.297Z</time>
      </trkpt>
      <trkpt lat="47.552768" lon="8.149413">
        <ele>523.406118</ele>
        <time>2022-03-19T14:56:11.261Z</time>
      </trkpt>
      <trkpt lat="47.552839" lon="8.149320">
        <ele>522.826166</ele>
        <time>2022-03-19T14:56:19.230Z</time>
      </trkpt>
      <trkpt lat="47.552919" lon="8.149244">
        <ele>522.244590</ele>
        <time>2022-03-19T14:56:24.221Z</time>
      </trkpt>
      <trkpt lat="47.552996" lon="8.149176">
        <ele>521.696013</ele>
        <time>2022-03-19T14:56:32.220Z</time>
      </trkpt>
      <trkpt lat="47.553076" lon="8.149103">
        <ele>521.154802</ele>
        <time>2022-03-19T14:56:37.221Z</time>
      </trkpt>
      <trkpt lat="47.553166" lon="8.149033">
        <ele>521.090080</ele>
        <time>2022-03-19T14:56:47.218Z</time>
      </trkpt>
      <trkpt lat="47.553251" lon="8.148945">
        <ele>521.024054</ele>
        <time>2022-03-19T14:56:52.243Z</time>
      </trkpt>
      <trkpt lat="47.553337" lon="8.148871">
        <ele>520.960730</ele>
        <time>2022-03-19T14:56:59.222Z</time>
      </trkpt>
      <trkpt lat="47.553423" lon="8.148798">
        <ele>520.897621</ele>
        <time>2022-03-19T14:57:08.249Z</time>
      </trkpt>
      <trkpt lat="47.553505" lon="8.148742">
        <ele>520.840129</ele>
        <time>2022-03-19T14:57:15.213Z</time>
      </trkpt>
      <trkpt lat="47.553590" lon="8.148677">
        <ele>520.779223</ele>
        <time>2022-03-19T14:57:23.253Z</time>
      </trkpt>
      <trkpt lat="47.553669" lon="8.148608">
        <ele>520.720831</ele>
        <time>2022-03-19T14:57:30.252Z</time>
      </trkpt>
      <trkpt lat="47.553747" lon="8.148531">
        <ele>520.661152</ele>
        <time>2022-03-19T14:57:37.211Z</time>
      </trkpt>
      <trkpt lat="47.553810" lon="8.148421">
        <ele>520.599154</ele>
        <time>2022-03-19T14:57:44.223Z</time>
      </trkpt>
      <trkpt lat="47.553825" lon="8.148279">
        <ele>520.537389</ele>
        <time>2022-03-19T14:57:52.249Z</time>
      </trkpt>
      <trkpt lat="47.553830" lon="8.148140">
        <ele>520.477571</ele>
        <time>2022-03-19T14:58:00.215Z</time>
      </trkpt>
      <trkpt lat="47.553845" lon="8.147993">
        <ele>520.413682</ele>
        <time>2022-03-19T14:58:08.245Z</time>
      </trkpt>
      <trkpt lat="47.553854" lon="8.147861">
        <ele>520.356669</ele>
        <time>2022-03-19T14:58:15.229Z</time>
      </trkpt>
      <trkpt lat="47.553874" lon="8.147711">
        <ele>520.290963</ele>
        <time>2022-03-19T14:58:22.243Z</time>
      </trkpt>
      <trkpt lat="47.553876" lon="8.147560">
        <ele>520.226060</ele>
        <time>2022-03-19T14:58:30.213Z</time>
      </trkpt>
      <trkpt lat="47.553877" lon="8.147426">
        <ele>520.168472</ele>
        <time>2022-03-19T14:58:38.221Z</time>
      </trkpt>
      <trkpt lat="47.553893" lon="8.147295">
        <ele>520.111263</ele>
        <time>2022-03-19T14:58:46.223Z</time>
      </trkpt>
      <trkpt lat="47.553897" lon="8.147156">
        <ele>520.051475</ele>
        <time>2022-03-19T14:58:53.225Z</time>
      </trkpt>
      <trkpt lat="47.553884" lon="8.147015">
        <ele>519.704793</ele>
        <time>2022-03-19T14:59:00.299Z</time>
      </trkpt>
      <trkpt lat="47.553884" lon="8.146873">
        <ele>518.890617</ele>
        <time>2022-03-19T14:59:05.224Z</time>
      </trkpt>
      <trkpt lat="47.553896" lon="8.146729">
        <ele>518.058703</ele>
        <time>2022-03-19T14:59:15.217Z</time>
      </trkpt>
      <trkpt lat="47.553894" lon="8.146592">
        <ele>517.273011</ele>
        <time>2022-03-19T14:59:20.221Z</time>
      </trkpt>
      <trkpt lat="47.553902" lon="8.146443">
        <ele>516.416001</ele>
        <time>2022-03-19T14:59:30.220Z</time>
      </trkpt>
      <trkpt lat="47.553907" lon="8.146307">
        <ele>515.635070</ele>
        <time>2022-03-19T14:59:36.225Z</time>
      </trkpt>
      <trkpt lat="47.553919" lon="8.146171">
        <ele>514.848660</ele>
        <time>2022-03-19T14:59:45.212Z</time>
      </trkpt>
      <trkpt lat="47.553927" lon="8.146008">
        <ele>513.911610</ele>
        <time>2022-03-19T14:59:53.248Z</time>
      </trkpt>
      <trkpt lat="47.553936" lon="8.145862">
        <ele>513.071015</ele>
        <time>2022-03-19T15:00:01.208Z</time>
      </trkpt>
      <trkpt lat="47.553950" lon="8.145731">
        <ele>512.310551</ele>
        <time>2022-03-19T15:00:08.222Z</time>
      </trkpt>
      <trkpt lat="47.553962" lon="8.145599">
        <ele>511.546877</ele>
        <time>2022-03-19T15:00:15.248Z</time>
      </trkpt>
      <trkpt lat="47.553964" lon="8.145463">
        <ele>510.766918</ele>
        <time>2022-03-19T15:00:24.223Z</time>
      </trkpt>
      <trkpt lat="47.553976" lon="8.145315">
        <ele>509.912240</ele>
        <time>2022-03-19T15:00:30.305Z</time>
      </trkpt>
      <trkpt lat="47.554002" lon="8.145183">
        <ele>509.123827</ele>
        <time>2022-03-19T15:00:37.232Z</time>
      </trkpt>
      <trkpt lat="47.554001" lon="8.145044">
        <ele>508.326808</ele>
        <time>2022-03-19T15:00:42.221Z</time>
      </trkpt>
      <trkpt lat="47.553989" lon="8.144912">
        <ele>507.563134</ele>
        <time>2022-03-19T15:00:49.253Z</time>
      </trkpt>
      <trkpt lat="47.553983" lon="8.144757">
        <ele>506.672962</ele>
        <time>2022-03-19T15:00:56.215Z</time>
      </trkpt>
      <trkpt lat="47.553980" lon="8.144611">
        <ele>505.835465</ele>
        <time>2022-03-19T15:01:05.230Z</time>
      </trkpt>
      <trkpt lat="47.553944" lon="8.144483">
        <ele>505.040383</ele>
        <time>2022-03-19T15:01:09.253Z</time>
      </trkpt>
      <trkpt lat="47.554000" lon="8.144356">
        <ele>503.950910</ele>
        <time>2022-03-19T15:01:19.213Z</time>
      </trkpt>
      <trkpt lat="47.553971" lon="8.144223">
        <ele>502.836507</ele>
        <time>2022-03-19T15:01:24.226Z</time>
      </trkpt>
      <trkpt lat="47.553997" lon="8.144084">
        <ele>501.686456</ele>
        <time>2022-03-19T15:01:33.215Z</time>
      </trkpt>
      <trkpt lat="47.553994" lon="8.143951">
        <ele>500.625432</ele>
        <time>2022-03-19T15:01:37.223Z</time>
      </trkpt>
      <trkpt lat="47.554091" lon="8.143880">
        <ele>499.347280</ele>
        <time>2022-03-19T15:01:47.222Z</time>
      </trkpt>
      <trkpt lat="47.554199" lon="8.143860">
        <ele>498.061447</ele>
        <time>2022-03-19T15:01:51.252Z</time>
      </trkpt>
      <trkpt lat="47.554304" lon="8.143855">
        <ele>496.820341</ele>
        <time>2022-03-19T15:02:03.230Z</time>
      </trkpt>
      <trkpt lat="47.554381" lon="8.143786">
        <ele>495.757248</ele>
        <time>2022-03-19T15:02:07.250Z</time>
      </trkpt>
      <trkpt lat="47.554467" lon="8.143715">
        <ele>494.594186</ele>
        <time>2022-03-19T15:02:19.259Z</time>
      </trkpt>
      <trkpt lat="47.554547" lon="8.143649">
        <ele>493.512448</ele>
        <time>2022-03-19T15:02:24.211Z</time>
      </trkpt>
      <trkpt lat="47.554642" lon="8.143592">
        <ele>492.301600</ele>
        <time>2022-03-19T15:02:34.212Z</time>
      </trkpt>
      <trkpt lat="47.554721" lon="8.143522">
        <ele>491.214151</ele>
        <time>2022-03-19T15:02:41.249Z</time>
      </trkpt>
      <trkpt lat="47.554810" lon="8.143429">
        <ele>489.927549</ele>
        <time>2022-03-19T15:02:48.220Z</time>
      </trkpt>
      <trkpt lat="47.554897" lon="8.143378">
        <ele>488.822223</ele>
        <time>2022-03-19T15:02:57.269Z</time>
      </trkpt>
      <trkpt lat="47.554967" lon="8.143279">
        <ele>487.679011</ele>
        <time>2022-03-19T15:03:02.222Z</time>
      </trkpt>
      <trkpt lat="47.555024" lon="8.143165">
        <ele>486.547815</ele>
        <time>2022-03-19T15:03:10.237Z</time>
      </trkpt>
      <trkpt lat="47.555099" lon="8.143071">
        <ele>485.387309</ele>
        <time>2022-03-19T15:03:16.218Z</time>
      </trkpt>
      <trkpt lat="47.555164" lon="8.142971">
        <ele>484.280345</ele>
        <time>2022-03-19T15:03:29.230Z</time>
      </trkpt>
      <trkpt lat="47.555227" lon="8.142871">
        <ele>483.234264</ele>
        <time>2022-03-19T15:03:36.225Z</time>
      </trkpt>
      <trkpt lat="47.555302" lon="8.142757">
        <ele>482.157447</ele>
        <time>2022-03-19T15:03:45.250Z</time>
      </trkpt>
      <trkpt lat="47.555382" lon="8.142678">
        <ele>481.193938</ele>
        <time>2022-03-19T15:03:52.229Z</time>
      </trkpt>
      <trkpt lat="47.555453" lon="8.142562">
        <ele>480.134733</ele>
        <time>2022-03-19T15:04:01.251Z</time>
      </trkpt>
      <trkpt lat="47.555531" lon="8.142469">
        <ele>479.131355</ele>
        <time>2022-03-19T15:04:10.224Z</time>
      </trkpt>
      <trkpt lat="47.555608" lon="8.142378">
        <ele>478.144256</ele>
        <time>2022-03-19T15:04:16.220Z</time>
      </trkpt>
      <trkpt lat="47.555695" lon="8.142289">
        <ele>477.084719</ele>
        <time>2022-03-19T15:04:25.253Z</time>
      </trkpt>
      <trkpt lat="47.555769" lon="8.142211">
        <ele>476.174580</ele>
        <time>2022-03-19T15:04:31.228Z</time>
      </trkpt>
      <trkpt lat="47.555848" lon="8.142118">
        <ele>475.163376</ele>
        <time>2022-03-19T15:04:40.223Z</time>
      </trkpt>
      <trkpt lat="47.555934" lon="8.142037">
        <ele>474.142091</ele>
        <time>2022-03-19T15:04:45.218Z</time>
      </trkpt>
      <trkpt lat="47.556020" lon="8.141966">
        <ele>473.155436</ele>
        <time>2022-03-19T15:04:56.258Z</time>
      </trkpt>
      <trkpt lat="47.556111" lon="8.141900">
        <ele>472.140033</ele>
        <time>2022-03-19T15:05:05.215Z</time>
      </trkpt>
      <trkpt lat="47.556200" lon="8.141847">
        <ele>471.178725</ele>
        <time>2022-03-19T15:05:10.226Z</time>
      </trkpt>
      <trkpt lat="47.556293" lon="8.141832">
        <ele>470.241161</ele>
        <time>2022-03-19T15:05:20.221Z</time>
      </trkpt>
      <trkpt lat="47.556394" lon="8.141810">
        <ele>469.218047</ele>
        <time>2022-03-19T15:05:25.453Z</time>
      </trkpt>
      <trkpt lat="47.556500" lon="8.141825">
        <ele>468.150867</ele>
        <time>2022-03-19T15:05:34.211Z</time>
      </trkpt>
      <trkpt lat="47.556602" lon="8.141812">
        <ele>467.124834</ele>
        <time>2022-03-19T15:05:39.232Z</time>
      </trkpt>
      <trkpt lat="47.556699" lon="8.141759">
        <ele>466.088702</ele>
        <time>2022-03-19T15:05:49.221Z</time>
      </trkpt>
      <trkpt lat="47.556795" lon="8.141806">
        <ele>465.175156</ele>
        <time>2022-03-19T15:05:56.226Z</time>
      </trkpt>
      <trkpt lat="47.556852" lon="8.141927">
        <ele>464.437559</ele>
        <time>2022-03-19T15:06:06.223Z</time>
      </trkpt>
      <trkpt lat="47.556925" lon="8.142024">
        <ele>463.711312</ele>
        <time>2022-03-19T15:06:11.211Z</time>
      </trkpt>
      <trkpt lat="47.556993" lon="8.142148">
        <ele>462.912660</ele>
        <time>2022-03-19T15:06:16.218Z</time>
      </trkpt>
      <trkpt lat="47.557078" lon="8.142228">
        <ele>462.166825</ele>
        <time>2022-03-19T15:06:26.215Z</time>
      </trkpt>
      <trkpt lat="47.557159" lon="8.142291">
        <ele>461.489254</ele>
        <time>2022-03-19T15:06:33.246Z</time>
      </trkpt>
      <trkpt lat="47.557260" lon="8.142345">
        <ele>460.693964</ele>
        <time>2022-03-19T15:06:41.213Z</time>
      </trkpt>
      <trkpt lat="47.557344" lon="8.142289">
        <ele>460.011728</ele>
        <time>2022-03-19T15:06:47.215Z</time>
      </trkpt>
      <trkpt lat="47.557382" lon="8.142148">
        <ele>459.252822</ele>
        <time>2022-03-19T15:06:56.214Z</time>
      </trkpt>
      <trkpt lat="47.557423" lon="8.142020">
        <ele>458.544606</ele>
        <time>2022-03-19T15:07:06.252Z</time>
      </trkpt>
      <trkpt lat="47.557463" lon="8.141893">
        <ele>457.844068</ele>
        <time>2022-03-19T15:07:10.222Z</time>
      </trkpt>
      <trkpt lat="47.557528" lon="8.141800">
        <ele>457.174833</ele>
        <time>2022-03-19T15:07:20.220Z</time>
      </trkpt>
      <trkpt lat="47.557550" lon="8.141646">
        <ele>456.388013</ele>
        <time>2022-03-19T15:07:25.227Z</time>
      </trkpt>
      <trkpt lat="47.557554" lon="8.141506">
        <ele>455.687602</ele>
        <time>2022-03-19T15:07:35.219Z</time>
      </trkpt>
      <trkpt lat="47.557580" lon="8.141374">
        <ele>455.000277</ele>
        <time>2022-03-19T15:07:39.240Z</time>
      </trkpt>
      <trkpt lat="47.557635" lon="8.141263">
        <ele>454.311956</ele>
        <time>2022-03-19T15:07:49.225Z</time>
      </trkpt>
      <trkpt lat="47.557669" lon="8.141125">
        <ele>453.577639</ele>
        <time>2022-03-19T15:07:54.221Z</time>
      </trkpt>
      <trkpt lat="47.557701" lon="8.140988">
        <ele>452.852995</ele>
        <time>2022-03-19T15:07:59.213Z</time>
      </trkpt>
      <trkpt lat="47.557718" lon="8.140841">
        <ele>452.101465</ele>
        <time>2022-03-19T15:08:10.219Z</time>
      </trkpt>
      <trkpt lat="47.557751" lon="8.140704">
        <ele>451.217057</ele>
        <time>2022-03-19T15:08:15.225Z</time>
      </trkpt>
      <trkpt lat="47.557778" lon="8.140561">
        <ele>450.314253</ele>
        <time>2022-03-19T15:08:22.205Z</time>
      </trkpt>
      <trkpt lat="47.557806" lon="8.140429">
        <ele>449.473002</ele>
        <time>2022-03-19T15:08:30.213Z</time>
      </trkpt>
      <trkpt lat="47.557840" lon="8.140293">
        <ele>448.591230</ele>
        <time>2022-03-19T15:08:37.209Z</time>
      </trkpt>
      <trkpt lat="47.557868" lon="8.140163">
        <ele>447.761573</ele>
        <time>2022-03-19T15:08:45.230Z</time>
      </trkpt>
      <trkpt lat="47.557874" lon="8.140010">
        <ele>446.829790</ele>
        <time>2022-03-19T15:08:51.229Z</time>
      </trkpt>
      <trkpt lat="47.557926" lon="8.139891">
        <ele>445.967859</ele>
        <time>2022-03-19T15:08:58.212Z</time>
      </trkpt>
      <trkpt lat="47.557964" lon="8.139735">
        <ele>444.959512</ele>
        <time>2022-03-19T15:09:04.219Z</time>
      </trkpt>
      <trkpt lat="47.558023" lon="8.139609">
        <ele>444.027105</ele>
        <time>2022-03-19T15:09:14.214Z</time>
      </trkpt>
      <trkpt lat="47.558078" lon="8.139474">
        <ele>443.068357</ele>
        <time>2022-03-19T15:09:20.210Z</time>
      </trkpt>
      <trkpt lat="47.558133" lon="8.139353">
        <ele>442.181386</ele>
        <time>2022-03-19T15:09:30.210Z</time>
      </trkpt>
      <trkpt lat="47.558189" lon="8.139228">
        <ele>441.269192</ele>
        <time>2022-03-19T15:09:37.251Z</time>
      </trkpt>
      <trkpt lat="47.558240" lon="8.139108">
        <ele>440.406991</ele>
        <time>2022-03-19T15:09:46.214Z</time>
      </trkpt>
      <trkpt lat="47.558305" lon="8.138992">
        <ele>439.490306</ele>
        <time>2022-03-19T15:09:51.224Z</time>
      </trkpt>
      <trkpt lat="47.558363" lon="8.138860">
        <ele>438.532654</ele>
        <time>2022-03-19T15:10:01.246Z</time>
      </trkpt>
      <trkpt lat="47.558416" lon="8.138737">
        <ele>437.645401</ele>
        <time>2022-03-19T15:10:06.254Z</time>
      </trkpt>
      <trkpt lat="47.558479" lon="8.138614">
        <ele>436.706588</ele>
        <time>2022-03-19T15:10:16.214Z</time>
      </trkpt>
      <trkpt lat="47.558523" lon="8.138467">
        <ele>435.798315</ele>
        <time>2022-03-19T15:10:23.216Z</time>
      </trkpt>
      <trkpt lat="47.558587" lon="8.138366">
        <ele>435.245168</ele>
        <time>2022-03-19T15:10:32.224Z</time>
      </trkpt>
      <trkpt lat="47.558641" lon="8.138238">
        <ele>434.642485</ele>
        <time>2022-03-19T15:10:37.224Z</time>
      </trkpt>
      <trkpt lat="47.558704" lon="8.138124">
        <ele>434.054200</ele>
        <time>2022-03-19T15:10:47.218Z</time>
      </trkpt>
      <trkpt lat="47.558763" lon="8.138006">
        <ele>433.467865</ele>
        <time>2022-03-19T15:10:53.226Z</time>
      </trkpt>
      <trkpt lat="47.558838" lon="8.137912">
        <ele>432.886719</ele>
        <time>2022-03-19T15:11:03.220Z</time>
      </trkpt>
      <trkpt lat="47.558913" lon="8.137829">
        <ele>432.332918</ele>
        <time>2022-03-19T15:11:09.224Z</time>
      </trkpt>
      <trkpt lat="47.558991" lon="8.137717">
        <ele>431.690344</ele>
        <time>2022-03-19T15:11:18.219Z</time>
      </trkpt>
      <trkpt lat="47.559074" lon="8.137647">
        <ele>431.125337</ele>
        <time>2022-03-19T15:11:26.223Z</time>
      </trkpt>
      <trkpt lat="47.559153" lon="8.137542">
        <ele>430.497498</ele>
        <time>2022-03-19T15:11:32.222Z</time>
      </trkpt>
      <trkpt lat="47.559241" lon="8.137471">
        <ele>429.904702</ele>
        <time>2022-03-19T15:11:42.221Z</time>
      </trkpt>
      <trkpt lat="47.559329" lon="8.137424">
        <ele>429.351289</ele>
        <time>2022-03-19T15:11:51.225Z</time>
      </trkpt>
      <trkpt lat="47.559425" lon="8.137393">
        <ele>428.770001</ele>
        <time>2022-03-19T15:11:56.218Z</time>
      </trkpt>
      <trkpt lat="47.559516" lon="8.137391">
        <ele>428.231564</ele>
        <time>2022-03-19T15:12:05.215Z</time>
      </trkpt>
      <trkpt lat="47.559611" lon="8.137343">
        <ele>427.637748</ele>
        <time>2022-03-19T15:12:12.247Z</time>
      </trkpt>
      <trkpt lat="47.559705" lon="8.137316">
        <ele>427.071270</ele>
        <time>2022-03-19T15:12:20.268Z</time>
      </trkpt>
      <trkpt lat="47.559792" lon="8.137267">
        <ele>426.520634</ele>
        <time>2022-03-19T15:12:29.253Z</time>
      </trkpt>
      <trkpt lat="47.559890" lon="8.137224">
        <ele>425.915960</ele>
        <time>2022-03-19T15:12:35.212Z</time>
      </trkpt>
      <trkpt lat="47.559982" lon="8.137178">
        <ele>425.341518</ele>
        <time>2022-03-19T15:12:44.210Z</time>
      </trkpt>
      <trkpt lat="47.560067" lon="8.137115">
        <ele>425.212684</ele>
        <time>2022-03-19T15:12:50.227Z</time>
      </trkpt>
      <trkpt lat="47.560149" lon="8.137043">
        <ele>425.127432</ele>
        <time>2022-03-19T15:12:56.219Z</time>
      </trkpt>
      <trkpt lat="47.560211" lon="8.136938">
        <ele>425.043219</ele>
        <time>2022-03-19T15:13:05.333Z</time>
      </trkpt>
      <trkpt lat="47.560279" lon="8.136838">
        <ele>424.957531</ele>
        <time>2022-03-19T15:13:10.227Z</time>
      </trkpt>
      <trkpt lat="47.560345" lon="8.136733">
        <ele>424.870921</ele>
        <time>2022-03-19T15:13:18.256Z</time>
      </trkpt>
      <trkpt lat="47.560399" lon="8.136621">
        <ele>424.787838</ele>
        <time>2022-03-19T15:13:25.217Z</time>
      </trkpt>
      <trkpt lat="47.560436" lon="8.136499">
        <ele>424.707107</ele>
        <time>2022-03-19T15:13:31.224Z</time>
      </trkpt>
      <trkpt lat="47.560496" lon="8.136380">
        <ele>424.617446</ele>
        <time>2022-03-19T15:13:40.213Z</time>
      </trkpt>
      <trkpt lat="47.560549" lon="8.136248">
        <ele>424.524737</ele>
        <time>2022-03-19T15:13:47.218Z</time>
      </trkpt>
      <trkpt lat="47.560616" lon="8.136133">
        <ele>424.433035</ele>
        <time>2022-03-19T15:13:53.212Z</time>
      </trkpt>
      <trkpt lat="47.560671" lon="8.136018">
        <ele>424.347959</ele>
        <time>2022-03-19T15:14:05.213Z</time>
      </trkpt>
      <trkpt lat="47.560691" lon="8.135875">
        <ele>424.259813</ele>
        <time>2022-03-19T15:14:10.212Z</time>
      </trkpt>
      <trkpt lat="47.560701" lon="8.135740">
        <ele>424.177841</ele>
        <time>2022-03-19T15:14:17.246Z</time>
      </trkpt>
      <trkpt lat="47.560707" lon="8.135597">
        <ele>424.091363</ele>
        <time>2022-03-19T15:14:28.217Z</time>
      </trkpt>
      <trkpt lat="47.560708" lon="8.135464">
        <ele>424.011083</ele>
        <time>2022-03-19T15:14:33.255Z</time>
      </trkpt>
      <trkpt lat="47.560719" lon="8.135323">
        <ele>423.925412</ele>
        <time>2022-03-19T15:14:39.224Z</time>
      </trkpt>
      <trkpt lat="47.560735" lon="8.135183">
        <ele>423.839708</ele>
        <time>2022-03-19T15:14:49.222Z</time>
      </trkpt>
      <trkpt lat="47.560713" lon="8.135042">
        <ele>423.752359</ele>
        <time>2022-03-19T15:14:56.253Z</time>
      </trkpt>
      <trkpt lat="47.560714" lon="8.134907">
        <ele>423.551069</ele>
        <time>2022-03-19T15:15:03.218Z</time>
      </trkpt>
      <trkpt lat="47.560709" lon="8.134771">
        <ele>422.506758</ele>
        <time>2022-03-19T15:15:08.220Z</time>
      </trkpt>
      <trkpt lat="47.560751" lon="8.134651">
        <ele>421.470276</ele>
        <time>2022-03-19T15:15:19.227Z</time>
      </trkpt>
      <trkpt lat="47.560835" lon="8.134705">
        <ele>420.429905</ele>
        <time>2022-03-19T15:15:38.213Z</time>
      </trkpt>
      <trkpt lat="47.560896" lon="8.134806">
        <ele>419.390631</ele>
        <time>2022-03-19T15:15:46.210Z</time>
      </trkpt>
      <trkpt lat="47.560966" lon="8.134707">
        <ele>418.291184</ele>
        <time>2022-03-19T15:16:01.247Z</time>
      </trkpt>
      <trkpt lat="47.560984" lon="8.134572">
        <ele>417.236080</ele>
        <time>2022-03-19T15:16:07.210Z</time>
      </trkpt>
      <trkpt lat="47.561017" lon="8.134435">
        <ele>416.120739</ele>
        <time>2022-03-19T15:16:17.229Z</time>
      </trkpt>
      <trkpt lat="47.561024" lon="8.134295">
        <ele>415.044368</ele>
        <time>2022-03-19T15:16:27.220Z</time>
      </trkpt>
      <trkpt lat="47.561065" lon="8.134169">
        <ele>413.971830</ele>
        <time>2022-03-19T15:16:37.216Z</time>
      </trkpt>
      <trkpt lat="47.561105" lon="8.134038">
        <ele>412.869367</ele>
        <time>2022-03-19T15:16:46.224Z</time>
      </trkpt>
      <trkpt lat="47.561171" lon="8.133940">
        <ele>411.807780</ele>
        <time>2022-03-19T15:17:04.226Z</time>
      </trkpt>
      <trkpt lat="47.561226" lon="8.133820">
        <ele>410.695541</ele>
        <time>2022-03-19T15:17:14.213Z</time>
      </trkpt>
      <trkpt lat="47.561321" lon="8.133768">
        <ele>409.544842</ele>
        <time>2022-03-19T15:17:27.232Z</time>
      </trkpt>
      <trkpt lat="47.561405" lon="8.133717">
        <ele>408.513410</ele>
        <time>2022-03-19T15:17:36.221Z</time>
      </trkpt>
      <trkpt lat="47.561492" lon="8.133674">
        <ele>407.471359</ele>
        <time>2022-03-19T15:17:45.216Z</time>
      </trkpt>
      <trkpt lat="47.561583" lon="8.133629">
        <ele>406.381341</ele>
        <time>2022-03-19T15:17:53.231Z</time>
      </trkpt>
      <trkpt lat="47.561669" lon="8.133556">
        <ele>405.255236</ele>
        <time>2022-03-19T15:18:02.223Z</time>
      </trkpt>
      <trkpt lat="47.561755" lon="8.133492">
        <ele>404.161788</ele>
        <time>2022-03-19T15:18:11.250Z</time>
      </trkpt>
      <trkpt lat="47.561807" lon="8.133372">
        <ele>403.374063</ele>
        <time>2022-03-19T15:18:19.258Z</time>
      </trkpt>
      <trkpt lat="47.561843" lon="8.133243">
        <ele>404.162721</ele>
        <time>2022-03-19T15:18:32.220Z</time>
      </trkpt>
      <trkpt lat="47.561898" lon="8.133131">
        <ele>404.945287</ele>
        <time>2022-03-19T15:18:39.224Z</time>
      </trkpt>
      <trkpt lat="47.561930" lon="8.132994">
        <ele>405.764332</ele>
        <time>2022-03-19T15:18:47.207Z</time>
      </trkpt>
      <trkpt lat="47.561972" lon="8.132868">
        <ele>406.558288</ele>
        <time>2022-03-19T15:18:53.226Z</time>
      </trkpt>
      <trkpt lat="47.562011" lon="8.132739">
        <ele>407.356880</ele>
        <time>2022-03-19T15:19:00.212Z</time>
      </trkpt>
      <trkpt lat="47.562069" lon="8.132618">
        <ele>408.195390</ele>
        <time>2022-03-19T15:19:06.215Z</time>
      </trkpt>
      <trkpt lat="47.562133" lon="8.132489">
        <ele>409.099957</ele>
        <time>2022-03-19T15:19:17.218Z</time>
      </trkpt>
      <trkpt lat="47.562184" lon="8.132364">
        <ele>409.925197</ele>
        <time>2022-03-19T15:19:23.208Z</time>
      </trkpt>
      <trkpt lat="47.562255" lon="8.132245">
        <ele>410.822596</ele>
        <time>2022-03-19T15:19:32.210Z</time>
      </trkpt>
      <trkpt lat="47.562325" lon="8.132152">
        <ele>411.609688</ele>
        <time>2022-03-19T15:19:38.219Z</time>
      </trkpt>
      <trkpt lat="47.562404" lon="8.132055">
        <ele>412.468622</ele>
        <time>2022-03-19T15:19:46.211Z</time>
      </trkpt>
      <trkpt lat="47.562475" lon="8.131961">
        <ele>413.265719</ele>
        <time>2022-03-19T15:19:52.227Z</time>
      </trkpt>
      <trkpt lat="47.562542" lon="8.131854">
        <ele>414.090382</ele>
        <time>2022-03-19T15:20:01.214Z</time>
      </trkpt>
      <trkpt lat="47.562619" lon="8.131774">
        <ele>414.877693</ele>
        <time>2022-03-19T15:20:09.213Z</time>
      </trkpt>
      <trkpt lat="47.562686" lon="8.131671">
        <ele>415.685937</ele>
        <time>2022-03-19T15:20:18.216Z</time>
      </trkpt>
      <trkpt lat="47.562769" lon="8.131583">
        <ele>416.540362</ele>
        <time>2022-03-19T15:20:26.215Z</time>
      </trkpt>
      <trkpt lat="47.562850" lon="8.131494">
        <ele>417.384579</ele>
        <time>2022-03-19T15:20:34.254Z</time>
      </trkpt>
      <trkpt lat="47.562933" lon="8.131375">
        <ele>418.269704</ele>
        <time>2022-03-19T15:20:43.210Z</time>
      </trkpt>
      <trkpt lat="47.563004" lon="8.131294">
        <ele>417.752103</ele>
        <time>2022-03-19T15:20:52.218Z</time>
      </trkpt>
      <trkpt lat="47.563071" lon="8.131199">
        <ele>417.216446</ele>
        <time>2022-03-19T15:20:58.209Z</time>
      </trkpt>
      <trkpt lat="47.563144" lon="8.131105">
        <ele>416.657797</ele>
        <time>2022-03-19T15:21:04.248Z</time>
      </trkpt>
      <trkpt lat="47.563232" lon="8.131034">
        <ele>416.078993</ele>
        <time>2022-03-19T15:21:20.228Z</time>
      </trkpt>
      <trkpt lat="47.563297" lon="8.130936">
        <ele>415.543348</ele>
        <time>2022-03-19T15:21:26.213Z</time>
      </trkpt>
      <trkpt lat="47.563394" lon="8.130858">
        <ele>414.905834</ele>
        <time>2022-03-19T15:21:36.209Z</time>
      </trkpt>
      <trkpt lat="47.563486" lon="8.130794">
        <ele>414.318738</ele>
        <time>2022-03-19T15:21:42.222Z</time>
      </trkpt>
      <trkpt lat="47.563553" lon="8.130699">
        <ele>413.783082</ele>
        <time>2022-03-19T15:21:51.220Z</time>
      </trkpt>
      <trkpt lat="47.563622" lon="8.130607">
        <ele>413.246912</ele>
        <time>2022-03-19T15:21:55.231Z</time>
      </trkpt>
      <trkpt lat="47.563692" lon="8.130515">
        <ele>412.706433</ele>
        <time>2022-03-19T15:22:03.263Z</time>
      </trkpt>
      <trkpt lat="47.563767" lon="8.130440">
        <ele>412.183772</ele>
        <time>2022-03-19T15:22:10.214Z</time>
      </trkpt>
      <trkpt lat="47.563824" lon="8.130330">
        <ele>411.643154</ele>
        <time>2022-03-19T15:22:16.213Z</time>
      </trkpt>
      <trkpt lat="47.563877" lon="8.130210">
        <ele>411.084110</ele>
        <time>2022-03-19T15:22:24.231Z</time>
      </trkpt>
      <trkpt lat="47.563936" lon="8.130094">
        <ele>410.517885</ele>
        <time>2022-03-19T15:22:29.226Z</time>
      </trkpt>
      <trkpt lat="47.563989" lon="8.129975">
        <ele>409.962099</ele>
        <time>2022-03-19T15:22:38.219Z</time>
      </trkpt>
      <trkpt lat="47.564057" lon="8.129857">
        <ele>409.357233</ele>
        <time>2022-03-19T15:22:43.223Z</time>
      </trkpt>
      <trkpt lat="47.563972" lon="8.129796">
        <ele>408.811671</ele>
        <time>2022-03-19T15:22:57.217Z</time>
      </trkpt>
      <trkpt lat="47.563885" lon="8.129761">
        <ele>408.290909</ele>
        <time>2022-03-19T15:23:03.228Z</time>
      </trkpt>
      <trkpt lat="47.563812" lon="8.129669">
        <ele>407.713605</ele>
        <time>2022-03-19T15:23:11.310Z</time>
      </trkpt>
      <trkpt lat="47.563769" lon="8.129536">
        <ele>407.060974</ele>
        <time>2022-03-19T15:23:20.221Z</time>
      </trkpt>
      <trkpt lat="47.563721" lon="8.129419">
        <ele>406.455032</ele>
        <time>2022-03-19T15:23:29.210Z</time>
      </trkpt>
      <trkpt lat="47.563672" lon="8.129304">
        <ele>405.853158</ele>
        <time>2022-03-19T15:23:35.223Z</time>
      </trkpt>
      <trkpt lat="47.563605" lon="8.129188">
        <ele>405.177451</ele>
        <time>2022-03-19T15:23:45.210Z</time>
      </trkpt>
      <trkpt lat="47.563564" lon="8.129062">
        <ele>404.558419</ele>
        <time>2022-03-19T15:23:54.216Z</time>
      </trkpt>
      <trkpt lat="47.563484" lon="8.128984">
        <ele>403.930401</ele>
        <time>2022-03-19T15:24:00.250Z</time>
      </trkpt>
      <trkpt lat="47.563410" lon="8.128890">
        <ele>403.291215</ele>
        <time>2022-03-19T15:24:09.215Z</time>
      </trkpt>
      <trkpt lat="47.563320" lon="8.128834">
        <ele>402.651065</ele>
        <time>2022-03-19T15:24:14.224Z</time>
      </trkpt>
      <trkpt lat="47.563231" lon="8.128788">
        <ele>402.032907</ele>
        <time>2022-03-19T15:24:19.234Z</time>
      </trkpt>
      <trkpt lat="47.563189" lon="8.128659">
        <ele>401.399065</ele>
        <time>2022-03-19T15:24:27.249Z</time>
      </trkpt>
      <trkpt lat="47.563123" lon="8.128549">
        <ele>400.747674</ele>
        <time>2022-03-19T15:24:33.253Z</time>
      </trkpt>
      <trkpt lat="47.563072" lon="8.128432">
        <ele>400.131276</ele>
        <time>2022-03-19T15:24:45.213Z</time>
      </trkpt>
      <trkpt lat="47.563126" lon="8.128320">
        <ele>399.522120</ele>
        <time>2022-03-19T15:24:51.222Z</time>
      </trkpt>
      <trkpt lat="47.563182" lon="8.128188">
        <ele>398.832120</ele>
        <time>2022-03-19T15:25:00.214Z</time>
      </trkpt>
      <trkpt lat="47.563238" lon="8.128075">
        <ele>398.211686</ele>
        <time>2022-03-19T15:25:07.256Z</time>
      </trkpt>
      <trkpt lat="47.563307" lon="8.127966">
        <ele>397.550294</ele>
        <time>2022-03-19T15:25:16.222Z</time>
      </trkpt>
      <trkpt lat="47.563376" lon="8.127851">
        <ele>396.869296</ele>
        <time>2022-03-19T15:25:22.208Z</time>
      </trkpt>
      <trkpt lat="47.563395" lon="8.127712">
        <ele>396.241686</ele>
        <time>2022-03-19T15:25:30.231Z</time>
      </trkpt>
      <trkpt lat="47.563443" lon="8.127596">
        <ele>396.117005</ele>
        <time>2022-03-19T15:25:40.214Z</time>
      </trkpt>
      <trkpt lat="47.563532" lon="8.127508">
        <ele>396.117005</ele>
        <time>2022-03-19T15:25:47.213Z</time>
      </trkpt>
      <trkpt lat="47.563613" lon="8.127429">
        <ele>396.117005</ele>
        <time>2022-03-19T15:25:54.212Z</time>
      </trkpt>
      <trkpt lat="47.563707" lon="8.127381">
        <ele>396.117005</ele>
        <time>2022-03-19T15:26:02.224Z</time>
      </trkpt>
      <trkpt lat="47.563803" lon="8.127323">
        <ele>396.117005</ele>
        <time>2022-03-19T15:26:08.221Z</time>
      </trkpt>
      <trkpt lat="47.563847" lon="8.127205">
        <ele>396.117005</ele>
        <time>2022-03-19T15:26:17.210Z</time>
      </trkpt>
      <trkpt lat="47.563931" lon="8.127113">
        <ele>396.117005</ele>
        <time>2022-03-19T15:26:25.253Z</time>
      </trkpt>
      <trkpt lat="47.563975" lon="8.126886">
        <ele>396.117005</ele>
        <time>2022-03-19T15:26:57.248Z</time>
      </trkpt>
      <trkpt lat="47.564022" lon="8.126773">
        <ele>396.117005</ele>
        <time>2022-03-19T15:27:03.222Z</time>
      </trkpt>
      <trkpt lat="47.564022" lon="8.126733">
        <ele>396.117005</ele>
        <time>2022-03-19T15:27:24.222Z</time>
      </trkpt>
    </trkseg>
  </trk>
</gpx>
